<?xml version="1.0" encoding="UTF-8" standalone="no" ?>
<gpx xmlns="http://www.topografix.com/GPX/1/1" xmlns:xsi="http://www.w3.org/2001/XMLSchema-instance" xsi:schemaLocation="http://www.topografix.com/GPX/1/1 http://www.topografix.com/GPX/1/1/gpx.xsd" version="1.1" creator="VisuGPX - https://www.visugpx.com">
  <metadata>
    <name>Ski Rocheboc(E) Portette(N) 2631m</name>
  </metadata>
  <trk>
    <name><![CDATA[Ski Rocheboc(E) Portette(N) 2631m]]></name>
    <trkseg>
      <trkpt lat="45.59133" lon="6.67084">
        <ele>1416</ele>
        <time>2019-01-19T08:39:09.000Z</time>
      </trkpt>
      <trkpt lat="45.59133" lon="6.67084">
        <ele>1416</ele>
        <time>2019-01-19T08:39:14.000Z</time>
      </trkpt>
      <trkpt lat="45.59133" lon="6.67084">
        <ele>1416</ele>
        <time>2019-01-19T08:39:15.000Z</time>
      </trkpt>
      <trkpt lat="45.59133" lon="6.67084">
        <ele>1416</ele>
        <time>2019-01-19T08:39:16.000Z</time>
      </trkpt>
      <trkpt lat="45.59133" lon="6.67084">
        <ele>1416</ele>
        <time>2019-01-19T08:39:17.000Z</time>
      </trkpt>
      <trkpt lat="45.59133" lon="6.67084">
        <ele>1416</ele>
        <time>2019-01-19T08:39:21.000Z</time>
      </trkpt>
      <trkpt lat="45.59133" lon="6.67084">
        <ele>1416</ele>
        <time>2019-01-19T08:39:24.000Z</time>
      </trkpt>
      <trkpt lat="45.59133" lon="6.67084">
        <ele>1416</ele>
        <time>2019-01-19T08:39:25.000Z</time>
      </trkpt>
      <trkpt lat="45.59133" lon="6.67084">
        <ele>1416</ele>
        <time>2019-01-19T08:39:29.000Z</time>
      </trkpt>
      <trkpt lat="45.59133" lon="6.67084">
        <ele>1416</ele>
        <time>2019-01-19T08:39:31.000Z</time>
      </trkpt>
      <trkpt lat="45.59133" lon="6.67084">
        <ele>1416</ele>
        <time>2019-01-19T08:39:33.000Z</time>
      </trkpt>
      <trkpt lat="45.59133" lon="6.67084">
        <ele>1416</ele>
        <time>2019-01-19T08:39:34.000Z</time>
      </trkpt>
      <trkpt lat="45.59134" lon="6.67084">
        <ele>1416.1999511719</ele>
        <time>2019-01-19T08:39:36.000Z</time>
      </trkpt>
      <trkpt lat="45.59135" lon="6.67085">
        <ele>1416.8000488281</ele>
        <time>2019-01-19T08:39:38.000Z</time>
      </trkpt>
      <trkpt lat="45.59136" lon="6.67086">
        <ele>1417.1999511719</ele>
        <time>2019-01-19T08:39:39.000Z</time>
      </trkpt>
      <trkpt lat="45.5914" lon="6.67088">
        <ele>1418</ele>
        <time>2019-01-19T08:39:43.000Z</time>
      </trkpt>
      <trkpt lat="45.59149" lon="6.67091">
        <ele>1419.5999755859</ele>
        <time>2019-01-19T08:39:50.000Z</time>
      </trkpt>
      <trkpt lat="45.59155" lon="6.67091">
        <ele>1420</ele>
        <time>2019-01-19T08:39:56.000Z</time>
      </trkpt>
      <trkpt lat="45.5916" lon="6.67091">
        <ele>1420.5999755859</ele>
        <time>2019-01-19T08:40:01.000Z</time>
      </trkpt>
      <trkpt lat="45.59164" lon="6.67093">
        <ele>1421.4000244141</ele>
        <time>2019-01-19T08:40:06.000Z</time>
      </trkpt>
      <trkpt lat="45.59169" lon="6.67096">
        <ele>1422.8000488281</ele>
        <time>2019-01-19T08:40:11.000Z</time>
      </trkpt>
      <trkpt lat="45.59176" lon="6.67098">
        <ele>1424.1999511719</ele>
        <time>2019-01-19T08:40:18.000Z</time>
      </trkpt>
      <trkpt lat="45.59184" lon="6.67094">
        <ele>1423.1999511719</ele>
        <time>2019-01-19T08:40:24.000Z</time>
      </trkpt>
      <trkpt lat="45.59188" lon="6.67092">
        <ele>1422.8000488281</ele>
        <time>2019-01-19T08:40:30.000Z</time>
      </trkpt>
      <trkpt lat="45.59192" lon="6.67092">
        <ele>1423</ele>
        <time>2019-01-19T08:40:36.000Z</time>
      </trkpt>
      <trkpt lat="45.59193" lon="6.67092">
        <ele>1423.1999511719</ele>
        <time>2019-01-19T08:40:41.000Z</time>
      </trkpt>
      <trkpt lat="45.59193" lon="6.67093">
        <ele>1423.4000244141</ele>
        <time>2019-01-19T08:40:47.000Z</time>
      </trkpt>
      <trkpt lat="45.59193" lon="6.67093">
        <ele>1423.4000244141</ele>
        <time>2019-01-19T08:40:59.000Z</time>
      </trkpt>
      <trkpt lat="45.59193" lon="6.67093">
        <ele>1423.4000244141</ele>
        <time>2019-01-19T08:41:02.000Z</time>
      </trkpt>
      <trkpt lat="45.59193" lon="6.67093">
        <ele>1423.4000244141</ele>
        <time>2019-01-19T08:41:08.000Z</time>
      </trkpt>
      <trkpt lat="45.59193" lon="6.67093">
        <ele>1423.4000244141</ele>
        <time>2019-01-19T08:41:09.000Z</time>
      </trkpt>
      <trkpt lat="45.59193" lon="6.67093">
        <ele>1423.4000244141</ele>
        <time>2019-01-19T08:41:23.000Z</time>
      </trkpt>
      <trkpt lat="45.59193" lon="6.67092">
        <ele>1423.4000244141</ele>
        <time>2019-01-19T08:41:24.000Z</time>
      </trkpt>
      <trkpt lat="45.59193" lon="6.67092">
        <ele>1423.4000244141</ele>
        <time>2019-01-19T08:41:31.000Z</time>
      </trkpt>
      <trkpt lat="45.59193" lon="6.67092">
        <ele>1423.4000244141</ele>
        <time>2019-01-19T08:41:36.000Z</time>
      </trkpt>
      <trkpt lat="45.59193" lon="6.67092">
        <ele>1423.4000244141</ele>
        <time>2019-01-19T08:41:38.000Z</time>
      </trkpt>
      <trkpt lat="45.59195" lon="6.67091">
        <ele>1423.1999511719</ele>
        <time>2019-01-19T08:41:44.000Z</time>
      </trkpt>
      <trkpt lat="45.59197" lon="6.67091">
        <ele>1423</ele>
        <time>2019-01-19T08:41:45.000Z</time>
      </trkpt>
      <trkpt lat="45.59203" lon="6.67089">
        <ele>1423</ele>
        <time>2019-01-19T08:41:49.000Z</time>
      </trkpt>
      <trkpt lat="45.5921" lon="6.67086">
        <ele>1422.1999511719</ele>
        <time>2019-01-19T08:41:53.000Z</time>
      </trkpt>
      <trkpt lat="45.59216" lon="6.67083">
        <ele>1421.5999755859</ele>
        <time>2019-01-19T08:41:56.000Z</time>
      </trkpt>
      <trkpt lat="45.59227" lon="6.67079">
        <ele>1421.8000488281</ele>
        <time>2019-01-19T08:42:03.000Z</time>
      </trkpt>
      <trkpt lat="45.59237" lon="6.67081">
        <ele>1422.8000488281</ele>
        <time>2019-01-19T08:42:10.000Z</time>
      </trkpt>
      <trkpt lat="45.5924" lon="6.67081">
        <ele>1423</ele>
        <time>2019-01-19T08:42:13.000Z</time>
      </trkpt>
      <trkpt lat="45.59245" lon="6.67081">
        <ele>1423.4000244141</ele>
        <time>2019-01-19T08:42:17.000Z</time>
      </trkpt>
      <trkpt lat="45.59258" lon="6.67081">
        <ele>1424</ele>
        <time>2019-01-19T08:42:26.000Z</time>
      </trkpt>
      <trkpt lat="45.59266" lon="6.67081">
        <ele>1424.4000244141</ele>
        <time>2019-01-19T08:42:32.000Z</time>
      </trkpt>
      <trkpt lat="45.59273" lon="6.67082">
        <ele>1425</ele>
        <time>2019-01-19T08:42:39.000Z</time>
      </trkpt>
      <trkpt lat="45.59282" lon="6.6708">
        <ele>1424.8000488281</ele>
        <time>2019-01-19T08:42:46.000Z</time>
      </trkpt>
      <trkpt lat="45.59294" lon="6.67079">
        <ele>1425</ele>
        <time>2019-01-19T08:42:55.000Z</time>
      </trkpt>
      <trkpt lat="45.59303" lon="6.67079">
        <ele>1425.4000244141</ele>
        <time>2019-01-19T08:43:02.000Z</time>
      </trkpt>
      <trkpt lat="45.59313" lon="6.67078">
        <ele>1425.4000244141</ele>
        <time>2019-01-19T08:43:08.000Z</time>
      </trkpt>
      <trkpt lat="45.59316" lon="6.67078">
        <ele>1425.8000488281</ele>
        <time>2019-01-19T08:43:10.000Z</time>
      </trkpt>
      <trkpt lat="45.59327" lon="6.67077">
        <ele>1426.5999755859</ele>
        <time>2019-01-19T08:43:18.000Z</time>
      </trkpt>
      <trkpt lat="45.59337" lon="6.67079">
        <ele>1428.5999755859</ele>
        <time>2019-01-19T08:43:26.000Z</time>
      </trkpt>
      <trkpt lat="45.59348" lon="6.67088">
        <ele>1433</ele>
        <time>2019-01-19T08:43:34.000Z</time>
      </trkpt>
      <trkpt lat="45.59356" lon="6.67088">
        <ele>1433.8000488281</ele>
        <time>2019-01-19T08:43:39.000Z</time>
      </trkpt>
      <trkpt lat="45.5936" lon="6.67087">
        <ele>1434</ele>
        <time>2019-01-19T08:43:42.000Z</time>
      </trkpt>
      <trkpt lat="45.59364" lon="6.67086">
        <ele>1434</ele>
        <time>2019-01-19T08:43:45.000Z</time>
      </trkpt>
      <trkpt lat="45.59374" lon="6.67082">
        <ele>1433.5999755859</ele>
        <time>2019-01-19T08:43:52.000Z</time>
      </trkpt>
      <trkpt lat="45.59384" lon="6.6708">
        <ele>1433.8000488281</ele>
        <time>2019-01-19T08:43:59.000Z</time>
      </trkpt>
      <trkpt lat="45.59393" lon="6.67075">
        <ele>1433.8000488281</ele>
        <time>2019-01-19T08:44:06.000Z</time>
      </trkpt>
      <trkpt lat="45.59403" lon="6.6707">
        <ele>1434.1999511719</ele>
        <time>2019-01-19T08:44:12.000Z</time>
      </trkpt>
      <trkpt lat="45.59409" lon="6.67065">
        <ele>1433.8000488281</ele>
        <time>2019-01-19T08:44:16.000Z</time>
      </trkpt>
      <trkpt lat="45.59415" lon="6.6706">
        <ele>1433.5999755859</ele>
        <time>2019-01-19T08:44:21.000Z</time>
      </trkpt>
      <trkpt lat="45.59419" lon="6.67056">
        <ele>1433.1999511719</ele>
        <time>2019-01-19T08:44:25.000Z</time>
      </trkpt>
      <trkpt lat="45.5942" lon="6.67055">
        <ele>1433.1999511719</ele>
        <time>2019-01-19T08:44:26.000Z</time>
      </trkpt>
      <trkpt lat="45.59426" lon="6.67052">
        <ele>1433.1999511719</ele>
        <time>2019-01-19T08:44:31.000Z</time>
      </trkpt>
      <trkpt lat="45.59431" lon="6.67047">
        <ele>1432.5999755859</ele>
        <time>2019-01-19T08:44:36.000Z</time>
      </trkpt>
      <trkpt lat="45.59432" lon="6.67046">
        <ele>1432.5999755859</ele>
        <time>2019-01-19T08:44:37.000Z</time>
      </trkpt>
      <trkpt lat="45.59437" lon="6.67045">
        <ele>1433.1999511719</ele>
        <time>2019-01-19T08:44:41.000Z</time>
      </trkpt>
      <trkpt lat="45.59444" lon="6.67043">
        <ele>1434.1999511719</ele>
        <time>2019-01-19T08:44:47.000Z</time>
      </trkpt>
      <trkpt lat="45.59446" lon="6.67042">
        <ele>1434.1999511719</ele>
        <time>2019-01-19T08:44:48.000Z</time>
      </trkpt>
      <trkpt lat="45.59452" lon="6.67041">
        <ele>1435</ele>
        <time>2019-01-19T08:44:52.000Z</time>
      </trkpt>
      <trkpt lat="45.59457" lon="6.6704">
        <ele>1436</ele>
        <time>2019-01-19T08:44:57.000Z</time>
      </trkpt>
      <trkpt lat="45.59461" lon="6.6704">
        <ele>1436.4000244141</ele>
        <time>2019-01-19T08:45:00.000Z</time>
      </trkpt>
      <trkpt lat="45.59466" lon="6.6704">
        <ele>1437.4000244141</ele>
        <time>2019-01-19T08:45:04.000Z</time>
      </trkpt>
      <trkpt lat="45.59467" lon="6.67039">
        <ele>1437.4000244141</ele>
        <time>2019-01-19T08:45:05.000Z</time>
      </trkpt>
      <trkpt lat="45.59471" lon="6.67037">
        <ele>1437.1999511719</ele>
        <time>2019-01-19T08:45:08.000Z</time>
      </trkpt>
      <trkpt lat="45.59472" lon="6.67035">
        <ele>1437.1999511719</ele>
        <time>2019-01-19T08:45:09.000Z</time>
      </trkpt>
      <trkpt lat="45.59479" lon="6.67026">
        <ele>1435</ele>
        <time>2019-01-19T08:45:15.000Z</time>
      </trkpt>
      <trkpt lat="45.59483" lon="6.6702">
        <ele>1433.8000488281</ele>
        <time>2019-01-19T08:45:19.000Z</time>
      </trkpt>
      <trkpt lat="45.59485" lon="6.67018">
        <ele>1433.4000244141</ele>
        <time>2019-01-19T08:45:21.000Z</time>
      </trkpt>
      <trkpt lat="45.59492" lon="6.67013">
        <ele>1432.8000488281</ele>
        <time>2019-01-19T08:45:26.000Z</time>
      </trkpt>
      <trkpt lat="45.59496" lon="6.67011">
        <ele>1432.8000488281</ele>
        <time>2019-01-19T08:45:30.000Z</time>
      </trkpt>
      <trkpt lat="45.595" lon="6.67008">
        <ele>1432.5999755859</ele>
        <time>2019-01-19T08:45:35.000Z</time>
      </trkpt>
      <trkpt lat="45.59502" lon="6.67007">
        <ele>1432.4000244141</ele>
        <time>2019-01-19T08:45:36.000Z</time>
      </trkpt>
      <trkpt lat="45.59507" lon="6.67003">
        <ele>1431.1999511719</ele>
        <time>2019-01-19T08:45:40.000Z</time>
      </trkpt>
      <trkpt lat="45.59513" lon="6.67">
        <ele>1431</ele>
        <time>2019-01-19T08:45:46.000Z</time>
      </trkpt>
      <trkpt lat="45.59515" lon="6.67">
        <ele>1431.1999511719</ele>
        <time>2019-01-19T08:45:47.000Z</time>
      </trkpt>
      <trkpt lat="45.59521" lon="6.66998">
        <ele>1431.4000244141</ele>
        <time>2019-01-19T08:45:52.000Z</time>
      </trkpt>
      <trkpt lat="45.5953" lon="6.66998">
        <ele>1432.8000488281</ele>
        <time>2019-01-19T08:45:59.000Z</time>
      </trkpt>
      <trkpt lat="45.59534" lon="6.66999">
        <ele>1433.8000488281</ele>
        <time>2019-01-19T08:46:02.000Z</time>
      </trkpt>
      <trkpt lat="45.59536" lon="6.67">
        <ele>1434.4000244141</ele>
        <time>2019-01-19T08:46:04.000Z</time>
      </trkpt>
      <trkpt lat="45.59543" lon="6.67004">
        <ele>1437.1999511719</ele>
        <time>2019-01-19T08:46:10.000Z</time>
      </trkpt>
      <trkpt lat="45.5955" lon="6.67004">
        <ele>1438.4000244141</ele>
        <time>2019-01-19T08:46:15.000Z</time>
      </trkpt>
      <trkpt lat="45.59555" lon="6.67005">
        <ele>1439</ele>
        <time>2019-01-19T08:46:20.000Z</time>
      </trkpt>
      <trkpt lat="45.5956" lon="6.67006">
        <ele>1439</ele>
        <time>2019-01-19T08:46:24.000Z</time>
      </trkpt>
      <trkpt lat="45.59562" lon="6.67005">
        <ele>1438.5999755859</ele>
        <time>2019-01-19T08:46:26.000Z</time>
      </trkpt>
      <trkpt lat="45.59571" lon="6.67004">
        <ele>1438</ele>
        <time>2019-01-19T08:46:33.000Z</time>
      </trkpt>
      <trkpt lat="45.59575" lon="6.67003">
        <ele>1438.4000244141</ele>
        <time>2019-01-19T08:46:37.000Z</time>
      </trkpt>
      <trkpt lat="45.5958" lon="6.67003">
        <ele>1439.1999511719</ele>
        <time>2019-01-19T08:46:40.000Z</time>
      </trkpt>
      <trkpt lat="45.59585" lon="6.67003">
        <ele>1440</ele>
        <time>2019-01-19T08:46:45.000Z</time>
      </trkpt>
      <trkpt lat="45.59589" lon="6.67003">
        <ele>1440.8000488281</ele>
        <time>2019-01-19T08:46:48.000Z</time>
      </trkpt>
      <trkpt lat="45.59593" lon="6.67004">
        <ele>1441.5999755859</ele>
        <time>2019-01-19T08:46:51.000Z</time>
      </trkpt>
      <trkpt lat="45.596" lon="6.67007">
        <ele>1443.4000244141</ele>
        <time>2019-01-19T08:46:56.000Z</time>
      </trkpt>
      <trkpt lat="45.59606" lon="6.6701">
        <ele>1444.8000488281</ele>
        <time>2019-01-19T08:47:01.000Z</time>
      </trkpt>
      <trkpt lat="45.59608" lon="6.67011">
        <ele>1445.5999755859</ele>
        <time>2019-01-19T08:47:03.000Z</time>
      </trkpt>
      <trkpt lat="45.59618" lon="6.67018">
        <ele>1448.5999755859</ele>
        <time>2019-01-19T08:47:10.000Z</time>
      </trkpt>
      <trkpt lat="45.59619" lon="6.67019">
        <ele>1449</ele>
        <time>2019-01-19T08:47:11.000Z</time>
      </trkpt>
      <trkpt lat="45.59625" lon="6.6702">
        <ele>1450.1999511719</ele>
        <time>2019-01-19T08:47:16.000Z</time>
      </trkpt>
      <trkpt lat="45.59629" lon="6.6702">
        <ele>1450.8000488281</ele>
        <time>2019-01-19T08:47:19.000Z</time>
      </trkpt>
      <trkpt lat="45.59633" lon="6.67019">
        <ele>1451</ele>
        <time>2019-01-19T08:47:22.000Z</time>
      </trkpt>
      <trkpt lat="45.59634" lon="6.67019">
        <ele>1451.1999511719</ele>
        <time>2019-01-19T08:47:24.000Z</time>
      </trkpt>
      <trkpt lat="45.59637" lon="6.67019">
        <ele>1451.4000244141</ele>
        <time>2019-01-19T08:47:27.000Z</time>
      </trkpt>
      <trkpt lat="45.59637" lon="6.67019">
        <ele>1451.4000244141</ele>
        <time>2019-01-19T08:47:29.000Z</time>
      </trkpt>
      <trkpt lat="45.59637" lon="6.67019">
        <ele>1451.4000244141</ele>
        <time>2019-01-19T08:47:32.000Z</time>
      </trkpt>
      <trkpt lat="45.59637" lon="6.67018">
        <ele>1451.4000244141</ele>
        <time>2019-01-19T08:47:38.000Z</time>
      </trkpt>
      <trkpt lat="45.59639" lon="6.67014">
        <ele>1450.4000244141</ele>
        <time>2019-01-19T08:47:41.000Z</time>
      </trkpt>
      <trkpt lat="45.59641" lon="6.67009">
        <ele>1449.4000244141</ele>
        <time>2019-01-19T08:47:44.000Z</time>
      </trkpt>
      <trkpt lat="45.59643" lon="6.67001">
        <ele>1447.5999755859</ele>
        <time>2019-01-19T08:47:48.000Z</time>
      </trkpt>
      <trkpt lat="45.59644" lon="6.66999">
        <ele>1447.1999511719</ele>
        <time>2019-01-19T08:47:49.000Z</time>
      </trkpt>
      <trkpt lat="45.59644" lon="6.6699">
        <ele>1446.1999511719</ele>
        <time>2019-01-19T08:47:53.000Z</time>
      </trkpt>
      <trkpt lat="45.59643" lon="6.6698">
        <ele>1446.5999755859</ele>
        <time>2019-01-19T08:47:57.000Z</time>
      </trkpt>
      <trkpt lat="45.59643" lon="6.66978">
        <ele>1446.8000488281</ele>
        <time>2019-01-19T08:47:58.000Z</time>
      </trkpt>
      <trkpt lat="45.59641" lon="6.66971">
        <ele>1447.1999511719</ele>
        <time>2019-01-19T08:48:03.000Z</time>
      </trkpt>
      <trkpt lat="45.59638" lon="6.66965">
        <ele>1447.1999511719</ele>
        <time>2019-01-19T08:48:07.000Z</time>
      </trkpt>
      <trkpt lat="45.59637" lon="6.66959">
        <ele>1447.5999755859</ele>
        <time>2019-01-19T08:48:10.000Z</time>
      </trkpt>
      <trkpt lat="45.59635" lon="6.66954">
        <ele>1448</ele>
        <time>2019-01-19T08:48:13.000Z</time>
      </trkpt>
      <trkpt lat="45.59635" lon="6.66952">
        <ele>1448.1999511719</ele>
        <time>2019-01-19T08:48:14.000Z</time>
      </trkpt>
      <trkpt lat="45.59634" lon="6.66941">
        <ele>1449.1999511719</ele>
        <time>2019-01-19T08:48:20.000Z</time>
      </trkpt>
      <trkpt lat="45.59633" lon="6.66937">
        <ele>1449.4000244141</ele>
        <time>2019-01-19T08:48:23.000Z</time>
      </trkpt>
      <trkpt lat="45.59633" lon="6.66933">
        <ele>1449.8000488281</ele>
        <time>2019-01-19T08:48:26.000Z</time>
      </trkpt>
      <trkpt lat="45.59633" lon="6.66929">
        <ele>1450.4000244141</ele>
        <time>2019-01-19T08:48:28.000Z</time>
      </trkpt>
      <trkpt lat="45.59634" lon="6.66928">
        <ele>1450.5999755859</ele>
        <time>2019-01-19T08:48:29.000Z</time>
      </trkpt>
      <trkpt lat="45.59634" lon="6.66925">
        <ele>1451.1999511719</ele>
        <time>2019-01-19T08:48:31.000Z</time>
      </trkpt>
      <trkpt lat="45.59637" lon="6.66915">
        <ele>1453</ele>
        <time>2019-01-19T08:48:36.000Z</time>
      </trkpt>
      <trkpt lat="45.59638" lon="6.66909">
        <ele>1453.8000488281</ele>
        <time>2019-01-19T08:48:39.000Z</time>
      </trkpt>
      <trkpt lat="45.59639" lon="6.66903">
        <ele>1454.8000488281</ele>
        <time>2019-01-19T08:48:42.000Z</time>
      </trkpt>
      <trkpt lat="45.59639" lon="6.66893">
        <ele>1455.4000244141</ele>
        <time>2019-01-19T08:48:47.000Z</time>
      </trkpt>
      <trkpt lat="45.59641" lon="6.66885">
        <ele>1455.8000488281</ele>
        <time>2019-01-19T08:48:52.000Z</time>
      </trkpt>
      <trkpt lat="45.59642" lon="6.66878">
        <ele>1456.4000244141</ele>
        <time>2019-01-19T08:48:56.000Z</time>
      </trkpt>
      <trkpt lat="45.59642" lon="6.66875">
        <ele>1456.4000244141</ele>
        <time>2019-01-19T08:48:58.000Z</time>
      </trkpt>
      <trkpt lat="45.59642" lon="6.66868">
        <ele>1456.4000244141</ele>
        <time>2019-01-19T08:49:02.000Z</time>
      </trkpt>
      <trkpt lat="45.59641" lon="6.66866">
        <ele>1456.4000244141</ele>
        <time>2019-01-19T08:49:03.000Z</time>
      </trkpt>
      <trkpt lat="45.59641" lon="6.66857">
        <ele>1456.4000244141</ele>
        <time>2019-01-19T08:49:08.000Z</time>
      </trkpt>
      <trkpt lat="45.59639" lon="6.66848">
        <ele>1456.4000244141</ele>
        <time>2019-01-19T08:49:12.000Z</time>
      </trkpt>
      <trkpt lat="45.59639" lon="6.66846">
        <ele>1456.4000244141</ele>
        <time>2019-01-19T08:49:13.000Z</time>
      </trkpt>
      <trkpt lat="45.59639" lon="6.66837">
        <ele>1456.4000244141</ele>
        <time>2019-01-19T08:49:19.000Z</time>
      </trkpt>
      <trkpt lat="45.5964" lon="6.66831">
        <ele>1457</ele>
        <time>2019-01-19T08:49:22.000Z</time>
      </trkpt>
      <trkpt lat="45.59641" lon="6.66829">
        <ele>1457.1999511719</ele>
        <time>2019-01-19T08:49:24.000Z</time>
      </trkpt>
      <trkpt lat="45.59643" lon="6.66824">
        <ele>1457.8000488281</ele>
        <time>2019-01-19T08:49:28.000Z</time>
      </trkpt>
      <trkpt lat="45.59644" lon="6.66822">
        <ele>1458.1999511719</ele>
        <time>2019-01-19T08:49:30.000Z</time>
      </trkpt>
      <trkpt lat="45.59644" lon="6.6682">
        <ele>1458.4000244141</ele>
        <time>2019-01-19T08:49:31.000Z</time>
      </trkpt>
      <trkpt lat="45.59645" lon="6.66816">
        <ele>1459.1999511719</ele>
        <time>2019-01-19T08:49:34.000Z</time>
      </trkpt>
      <trkpt lat="45.59646" lon="6.66811">
        <ele>1460.8000488281</ele>
        <time>2019-01-19T08:49:37.000Z</time>
      </trkpt>
      <trkpt lat="45.59649" lon="6.66804">
        <ele>1463</ele>
        <time>2019-01-19T08:49:42.000Z</time>
      </trkpt>
      <trkpt lat="45.59649" lon="6.66803">
        <ele>1463.4000244141</ele>
        <time>2019-01-19T08:49:43.000Z</time>
      </trkpt>
      <trkpt lat="45.59652" lon="6.66797">
        <ele>1465.1999511719</ele>
        <time>2019-01-19T08:49:47.000Z</time>
      </trkpt>
      <trkpt lat="45.59653" lon="6.66796">
        <ele>1465.8000488281</ele>
        <time>2019-01-19T08:49:48.000Z</time>
      </trkpt>
      <trkpt lat="45.59655" lon="6.66791">
        <ele>1467.5999755859</ele>
        <time>2019-01-19T08:49:52.000Z</time>
      </trkpt>
      <trkpt lat="45.59657" lon="6.66788">
        <ele>1468.5999755859</ele>
        <time>2019-01-19T08:49:54.000Z</time>
      </trkpt>
      <trkpt lat="45.59656" lon="6.66785">
        <ele>1469.1999511719</ele>
        <time>2019-01-19T08:49:56.000Z</time>
      </trkpt>
      <trkpt lat="45.59651" lon="6.66782">
        <ele>1468.5999755859</ele>
        <time>2019-01-19T08:50:00.000Z</time>
      </trkpt>
      <trkpt lat="45.59649" lon="6.66781">
        <ele>1468.1999511719</ele>
        <time>2019-01-19T08:50:02.000Z</time>
      </trkpt>
      <trkpt lat="45.59646" lon="6.66776">
        <ele>1468.5999755859</ele>
        <time>2019-01-19T08:50:05.000Z</time>
      </trkpt>
      <trkpt lat="45.59645" lon="6.66775">
        <ele>1468.5999755859</ele>
        <time>2019-01-19T08:50:06.000Z</time>
      </trkpt>
      <trkpt lat="45.59645" lon="6.66775">
        <ele>1468.8000488281</ele>
        <time>2019-01-19T08:50:12.000Z</time>
      </trkpt>
      <trkpt lat="45.5965" lon="6.66773">
        <ele>1470.4000244141</ele>
        <time>2019-01-19T08:50:15.000Z</time>
      </trkpt>
      <trkpt lat="45.59653" lon="6.66772">
        <ele>1471.4000244141</ele>
        <time>2019-01-19T08:50:18.000Z</time>
      </trkpt>
      <trkpt lat="45.59663" lon="6.66772">
        <ele>1473.8000488281</ele>
        <time>2019-01-19T08:50:25.000Z</time>
      </trkpt>
      <trkpt lat="45.59664" lon="6.66773">
        <ele>1474</ele>
        <time>2019-01-19T08:50:26.000Z</time>
      </trkpt>
      <trkpt lat="45.59671" lon="6.66775">
        <ele>1475.4000244141</ele>
        <time>2019-01-19T08:50:31.000Z</time>
      </trkpt>
      <trkpt lat="45.59676" lon="6.66776">
        <ele>1476.1999511719</ele>
        <time>2019-01-19T08:50:35.000Z</time>
      </trkpt>
      <trkpt lat="45.59677" lon="6.66777">
        <ele>1476.4000244141</ele>
        <time>2019-01-19T08:50:36.000Z</time>
      </trkpt>
      <trkpt lat="45.59678" lon="6.66778">
        <ele>1476.4000244141</ele>
        <time>2019-01-19T08:50:37.000Z</time>
      </trkpt>
      <trkpt lat="45.59684" lon="6.66784">
        <ele>1476.5999755859</ele>
        <time>2019-01-19T08:50:43.000Z</time>
      </trkpt>
      <trkpt lat="45.59691" lon="6.66787">
        <ele>1477.5999755859</ele>
        <time>2019-01-19T08:50:48.000Z</time>
      </trkpt>
      <trkpt lat="45.59693" lon="6.66789">
        <ele>1477.5999755859</ele>
        <time>2019-01-19T08:50:49.000Z</time>
      </trkpt>
      <trkpt lat="45.59698" lon="6.66794">
        <ele>1477.8000488281</ele>
        <time>2019-01-19T08:50:53.000Z</time>
      </trkpt>
      <trkpt lat="45.59702" lon="6.66799">
        <ele>1477.5999755859</ele>
        <time>2019-01-19T08:50:57.000Z</time>
      </trkpt>
      <trkpt lat="45.59704" lon="6.668">
        <ele>1477.5999755859</ele>
        <time>2019-01-19T08:50:58.000Z</time>
      </trkpt>
      <trkpt lat="45.59705" lon="6.66801">
        <ele>1478</ele>
        <time>2019-01-19T08:50:59.000Z</time>
      </trkpt>
      <trkpt lat="45.59711" lon="6.66804">
        <ele>1478.8000488281</ele>
        <time>2019-01-19T08:51:04.000Z</time>
      </trkpt>
      <trkpt lat="45.59713" lon="6.66807">
        <ele>1478.5999755859</ele>
        <time>2019-01-19T08:51:06.000Z</time>
      </trkpt>
      <trkpt lat="45.59714" lon="6.66808">
        <ele>1478.4000244141</ele>
        <time>2019-01-19T08:51:07.000Z</time>
      </trkpt>
      <trkpt lat="45.59718" lon="6.66812">
        <ele>1478.4000244141</ele>
        <time>2019-01-19T08:51:10.000Z</time>
      </trkpt>
      <trkpt lat="45.5972" lon="6.66815">
        <ele>1478.4000244141</ele>
        <time>2019-01-19T08:51:12.000Z</time>
      </trkpt>
      <trkpt lat="45.59722" lon="6.66818">
        <ele>1478.4000244141</ele>
        <time>2019-01-19T08:51:15.000Z</time>
      </trkpt>
      <trkpt lat="45.59725" lon="6.66822">
        <ele>1478.5999755859</ele>
        <time>2019-01-19T08:51:18.000Z</time>
      </trkpt>
      <trkpt lat="45.59726" lon="6.66824">
        <ele>1478.5999755859</ele>
        <time>2019-01-19T08:51:20.000Z</time>
      </trkpt>
      <trkpt lat="45.59729" lon="6.66828">
        <ele>1478.8000488281</ele>
        <time>2019-01-19T08:51:24.000Z</time>
      </trkpt>
      <trkpt lat="45.59732" lon="6.66837">
        <ele>1478.5999755859</ele>
        <time>2019-01-19T08:51:29.000Z</time>
      </trkpt>
      <trkpt lat="45.59733" lon="6.66848">
        <ele>1478.4000244141</ele>
        <time>2019-01-19T08:51:34.000Z</time>
      </trkpt>
      <trkpt lat="45.59734" lon="6.66857">
        <ele>1478.1999511719</ele>
        <time>2019-01-19T08:51:38.000Z</time>
      </trkpt>
      <trkpt lat="45.59734" lon="6.66859">
        <ele>1478.1999511719</ele>
        <time>2019-01-19T08:51:39.000Z</time>
      </trkpt>
      <trkpt lat="45.59735" lon="6.66864">
        <ele>1478.1999511719</ele>
        <time>2019-01-19T08:51:42.000Z</time>
      </trkpt>
      <trkpt lat="45.59735" lon="6.66869">
        <ele>1478</ele>
        <time>2019-01-19T08:51:45.000Z</time>
      </trkpt>
      <trkpt lat="45.59735" lon="6.66877">
        <ele>1477.8000488281</ele>
        <time>2019-01-19T08:51:49.000Z</time>
      </trkpt>
      <trkpt lat="45.59735" lon="6.66882">
        <ele>1477.5999755859</ele>
        <time>2019-01-19T08:51:52.000Z</time>
      </trkpt>
      <trkpt lat="45.59736" lon="6.66885">
        <ele>1477.5999755859</ele>
        <time>2019-01-19T08:51:54.000Z</time>
      </trkpt>
      <trkpt lat="45.59736" lon="6.66888">
        <ele>1477.5999755859</ele>
        <time>2019-01-19T08:51:55.000Z</time>
      </trkpt>
      <trkpt lat="45.59737" lon="6.66893">
        <ele>1477.5999755859</ele>
        <time>2019-01-19T08:51:58.000Z</time>
      </trkpt>
      <trkpt lat="45.59737" lon="6.669">
        <ele>1477.1999511719</ele>
        <time>2019-01-19T08:52:02.000Z</time>
      </trkpt>
      <trkpt lat="45.59738" lon="6.66903">
        <ele>1477.1999511719</ele>
        <time>2019-01-19T08:52:04.000Z</time>
      </trkpt>
      <trkpt lat="45.59739" lon="6.66907">
        <ele>1476.5999755859</ele>
        <time>2019-01-19T08:52:07.000Z</time>
      </trkpt>
      <trkpt lat="45.59739" lon="6.66912">
        <ele>1475.5999755859</ele>
        <time>2019-01-19T08:52:10.000Z</time>
      </trkpt>
      <trkpt lat="45.59739" lon="6.66924">
        <ele>1473.1999511719</ele>
        <time>2019-01-19T08:52:16.000Z</time>
      </trkpt>
      <trkpt lat="45.59742" lon="6.6693">
        <ele>1472.5999755859</ele>
        <time>2019-01-19T08:52:20.000Z</time>
      </trkpt>
      <trkpt lat="45.59744" lon="6.66934">
        <ele>1472.4000244141</ele>
        <time>2019-01-19T08:52:22.000Z</time>
      </trkpt>
      <trkpt lat="45.59745" lon="6.66939">
        <ele>1471.8000488281</ele>
        <time>2019-01-19T08:52:25.000Z</time>
      </trkpt>
      <trkpt lat="45.59747" lon="6.66942">
        <ele>1471.5999755859</ele>
        <time>2019-01-19T08:52:27.000Z</time>
      </trkpt>
      <trkpt lat="45.59748" lon="6.66943">
        <ele>1471.5999755859</ele>
        <time>2019-01-19T08:52:28.000Z</time>
      </trkpt>
      <trkpt lat="45.59752" lon="6.66948">
        <ele>1471.4000244141</ele>
        <time>2019-01-19T08:52:32.000Z</time>
      </trkpt>
      <trkpt lat="45.59753" lon="6.66948">
        <ele>1471.4000244141</ele>
        <time>2019-01-19T08:52:33.000Z</time>
      </trkpt>
      <trkpt lat="45.59756" lon="6.66948">
        <ele>1471.5999755859</ele>
        <time>2019-01-19T08:52:36.000Z</time>
      </trkpt>
      <trkpt lat="45.5976" lon="6.66949">
        <ele>1471.8000488281</ele>
        <time>2019-01-19T08:52:40.000Z</time>
      </trkpt>
      <trkpt lat="45.59761" lon="6.66949">
        <ele>1472</ele>
        <time>2019-01-19T08:52:41.000Z</time>
      </trkpt>
      <trkpt lat="45.59765" lon="6.66948">
        <ele>1472.5999755859</ele>
        <time>2019-01-19T08:52:46.000Z</time>
      </trkpt>
      <trkpt lat="45.59766" lon="6.66947">
        <ele>1473</ele>
        <time>2019-01-19T08:52:47.000Z</time>
      </trkpt>
      <trkpt lat="45.59767" lon="6.66947">
        <ele>1473.1999511719</ele>
        <time>2019-01-19T08:52:54.000Z</time>
      </trkpt>
      <trkpt lat="45.59767" lon="6.66947">
        <ele>1473.1999511719</ele>
        <time>2019-01-19T08:52:55.000Z</time>
      </trkpt>
      <trkpt lat="45.59767" lon="6.66946">
        <ele>1473.4000244141</ele>
        <time>2019-01-19T08:53:04.000Z</time>
      </trkpt>
      <trkpt lat="45.59768" lon="6.66945">
        <ele>1473.8000488281</ele>
        <time>2019-01-19T08:53:14.000Z</time>
      </trkpt>
      <trkpt lat="45.59768" lon="6.66945">
        <ele>1473.8000488281</ele>
        <time>2019-01-19T08:53:15.000Z</time>
      </trkpt>
      <trkpt lat="45.59768" lon="6.66945">
        <ele>1473.8000488281</ele>
        <time>2019-01-19T08:53:19.000Z</time>
      </trkpt>
      <trkpt lat="45.59768" lon="6.66945">
        <ele>1473.8000488281</ele>
        <time>2019-01-19T08:53:20.000Z</time>
      </trkpt>
      <trkpt lat="45.59768" lon="6.66945">
        <ele>1473.8000488281</ele>
        <time>2019-01-19T08:53:21.000Z</time>
      </trkpt>
      <trkpt lat="45.59768" lon="6.66945">
        <ele>1473.8000488281</ele>
        <time>2019-01-19T08:53:22.000Z</time>
      </trkpt>
      <trkpt lat="45.59768" lon="6.66945">
        <ele>1473.8000488281</ele>
        <time>2019-01-19T08:53:26.000Z</time>
      </trkpt>
      <trkpt lat="45.59768" lon="6.66945">
        <ele>1473.8000488281</ele>
        <time>2019-01-19T08:53:27.000Z</time>
      </trkpt>
      <trkpt lat="45.59768" lon="6.66945">
        <ele>1473.8000488281</ele>
        <time>2019-01-19T08:53:29.000Z</time>
      </trkpt>
      <trkpt lat="45.5977" lon="6.66941">
        <ele>1474.8000488281</ele>
        <time>2019-01-19T08:53:35.000Z</time>
      </trkpt>
      <trkpt lat="45.59771" lon="6.6694">
        <ele>1475.1999511719</ele>
        <time>2019-01-19T08:53:41.000Z</time>
      </trkpt>
      <trkpt lat="45.59772" lon="6.66938">
        <ele>1475.8000488281</ele>
        <time>2019-01-19T08:53:47.000Z</time>
      </trkpt>
      <trkpt lat="45.59772" lon="6.66938">
        <ele>1475.8000488281</ele>
        <time>2019-01-19T08:53:49.000Z</time>
      </trkpt>
      <trkpt lat="45.59772" lon="6.66938">
        <ele>1475.8000488281</ele>
        <time>2019-01-19T08:53:54.000Z</time>
      </trkpt>
      <trkpt lat="45.59772" lon="6.66938">
        <ele>1475.8000488281</ele>
        <time>2019-01-19T08:53:58.000Z</time>
      </trkpt>
      <trkpt lat="45.59772" lon="6.66937">
        <ele>1476</ele>
        <time>2019-01-19T08:54:00.000Z</time>
      </trkpt>
      <trkpt lat="45.59773" lon="6.66937">
        <ele>1476.1999511719</ele>
        <time>2019-01-19T08:54:01.000Z</time>
      </trkpt>
      <trkpt lat="45.59774" lon="6.66937">
        <ele>1476.4000244141</ele>
        <time>2019-01-19T08:54:05.000Z</time>
      </trkpt>
      <trkpt lat="45.59774" lon="6.66937">
        <ele>1476.4000244141</ele>
        <time>2019-01-19T08:54:07.000Z</time>
      </trkpt>
      <trkpt lat="45.59774" lon="6.66937">
        <ele>1476.4000244141</ele>
        <time>2019-01-19T08:54:09.000Z</time>
      </trkpt>
      <trkpt lat="45.59774" lon="6.66937">
        <ele>1476.4000244141</ele>
        <time>2019-01-19T08:54:12.000Z</time>
      </trkpt>
      <trkpt lat="45.59774" lon="6.66937">
        <ele>1476.4000244141</ele>
        <time>2019-01-19T08:54:15.000Z</time>
      </trkpt>
      <trkpt lat="45.59774" lon="6.66937">
        <ele>1476.4000244141</ele>
        <time>2019-01-19T08:54:24.000Z</time>
      </trkpt>
      <trkpt lat="45.59774" lon="6.66937">
        <ele>1476.4000244141</ele>
        <time>2019-01-19T08:54:34.000Z</time>
      </trkpt>
      <trkpt lat="45.59774" lon="6.66937">
        <ele>1476.4000244141</ele>
        <time>2019-01-19T08:54:44.000Z</time>
      </trkpt>
      <trkpt lat="45.59775" lon="6.66937">
        <ele>1476.4000244141</ele>
        <time>2019-01-19T08:54:54.000Z</time>
      </trkpt>
      <trkpt lat="45.59775" lon="6.66934">
        <ele>1477.1999511719</ele>
        <time>2019-01-19T08:54:58.000Z</time>
      </trkpt>
      <trkpt lat="45.59776" lon="6.66932">
        <ele>1477.5999755859</ele>
        <time>2019-01-19T08:55:00.000Z</time>
      </trkpt>
      <trkpt lat="45.59778" lon="6.66925">
        <ele>1479.4000244141</ele>
        <time>2019-01-19T08:55:05.000Z</time>
      </trkpt>
      <trkpt lat="45.59779" lon="6.66921">
        <ele>1480.5999755859</ele>
        <time>2019-01-19T08:55:09.000Z</time>
      </trkpt>
      <trkpt lat="45.5978" lon="6.6692">
        <ele>1481</ele>
        <time>2019-01-19T08:55:10.000Z</time>
      </trkpt>
      <trkpt lat="45.5978" lon="6.66918">
        <ele>1481.1999511719</ele>
        <time>2019-01-19T08:55:11.000Z</time>
      </trkpt>
      <trkpt lat="45.5978" lon="6.66916">
        <ele>1481.5999755859</ele>
        <time>2019-01-19T08:55:12.000Z</time>
      </trkpt>
      <trkpt lat="45.5978" lon="6.66914">
        <ele>1482.1999511719</ele>
        <time>2019-01-19T08:55:14.000Z</time>
      </trkpt>
      <trkpt lat="45.5978" lon="6.66912">
        <ele>1482.5999755859</ele>
        <time>2019-01-19T08:55:15.000Z</time>
      </trkpt>
      <trkpt lat="45.59781" lon="6.66907">
        <ele>1483.5999755859</ele>
        <time>2019-01-19T08:55:17.000Z</time>
      </trkpt>
      <trkpt lat="45.59781" lon="6.66903">
        <ele>1484.5999755859</ele>
        <time>2019-01-19T08:55:20.000Z</time>
      </trkpt>
      <trkpt lat="45.59782" lon="6.66901">
        <ele>1484.5999755859</ele>
        <time>2019-01-19T08:55:21.000Z</time>
      </trkpt>
      <trkpt lat="45.59783" lon="6.66895">
        <ele>1485.1999511719</ele>
        <time>2019-01-19T08:55:25.000Z</time>
      </trkpt>
      <trkpt lat="45.59784" lon="6.66894">
        <ele>1485.4000244141</ele>
        <time>2019-01-19T08:55:26.000Z</time>
      </trkpt>
      <trkpt lat="45.59787" lon="6.66889">
        <ele>1486</ele>
        <time>2019-01-19T08:55:30.000Z</time>
      </trkpt>
      <trkpt lat="45.59788" lon="6.66887">
        <ele>1486.5999755859</ele>
        <time>2019-01-19T08:55:31.000Z</time>
      </trkpt>
      <trkpt lat="45.5979" lon="6.66885">
        <ele>1487.5999755859</ele>
        <time>2019-01-19T08:55:34.000Z</time>
      </trkpt>
      <trkpt lat="45.59791" lon="6.66882">
        <ele>1488.4000244141</ele>
        <time>2019-01-19T08:55:37.000Z</time>
      </trkpt>
      <trkpt lat="45.59792" lon="6.66881">
        <ele>1488.5999755859</ele>
        <time>2019-01-19T08:55:39.000Z</time>
      </trkpt>
      <trkpt lat="45.59794" lon="6.66876">
        <ele>1490.1999511719</ele>
        <time>2019-01-19T08:55:43.000Z</time>
      </trkpt>
      <trkpt lat="45.59795" lon="6.66875">
        <ele>1490.4000244141</ele>
        <time>2019-01-19T08:55:44.000Z</time>
      </trkpt>
      <trkpt lat="45.59795" lon="6.66875">
        <ele>1490.5999755859</ele>
        <time>2019-01-19T08:55:48.000Z</time>
      </trkpt>
      <trkpt lat="45.59796" lon="6.66876">
        <ele>1490.8000488281</ele>
        <time>2019-01-19T08:55:51.000Z</time>
      </trkpt>
      <trkpt lat="45.59796" lon="6.66876">
        <ele>1490.8000488281</ele>
        <time>2019-01-19T08:55:52.000Z</time>
      </trkpt>
      <trkpt lat="45.59796" lon="6.66876">
        <ele>1490.8000488281</ele>
        <time>2019-01-19T08:55:55.000Z</time>
      </trkpt>
      <trkpt lat="45.59796" lon="6.66876">
        <ele>1490.8000488281</ele>
        <time>2019-01-19T08:56:05.000Z</time>
      </trkpt>
      <trkpt lat="45.59796" lon="6.66876">
        <ele>1490.8000488281</ele>
        <time>2019-01-19T08:56:17.000Z</time>
      </trkpt>
      <trkpt lat="45.59796" lon="6.66876">
        <ele>1490.8000488281</ele>
        <time>2019-01-19T08:56:20.000Z</time>
      </trkpt>
      <trkpt lat="45.59796" lon="6.66876">
        <ele>1490.8000488281</ele>
        <time>2019-01-19T08:56:26.000Z</time>
      </trkpt>
      <trkpt lat="45.59796" lon="6.66876">
        <ele>1491</ele>
        <time>2019-01-19T08:56:35.000Z</time>
      </trkpt>
      <trkpt lat="45.59796" lon="6.66876">
        <ele>1491</ele>
        <time>2019-01-19T08:56:40.000Z</time>
      </trkpt>
      <trkpt lat="45.59796" lon="6.66875">
        <ele>1491</ele>
        <time>2019-01-19T08:56:47.000Z</time>
      </trkpt>
      <trkpt lat="45.59796" lon="6.66875">
        <ele>1491</ele>
        <time>2019-01-19T08:56:55.000Z</time>
      </trkpt>
      <trkpt lat="45.59796" lon="6.66875">
        <ele>1491</ele>
        <time>2019-01-19T08:57:00.000Z</time>
      </trkpt>
      <trkpt lat="45.59796" lon="6.66875">
        <ele>1491</ele>
        <time>2019-01-19T08:57:15.000Z</time>
      </trkpt>
      <trkpt lat="45.59796" lon="6.66875">
        <ele>1491</ele>
        <time>2019-01-19T08:57:23.000Z</time>
      </trkpt>
      <trkpt lat="45.59796" lon="6.66876">
        <ele>1491</ele>
        <time>2019-01-19T08:57:26.000Z</time>
      </trkpt>
      <trkpt lat="45.59796" lon="6.66876">
        <ele>1491</ele>
        <time>2019-01-19T08:57:31.000Z</time>
      </trkpt>
      <trkpt lat="45.59796" lon="6.66876">
        <ele>1491</ele>
        <time>2019-01-19T08:57:36.000Z</time>
      </trkpt>
      <trkpt lat="45.59797" lon="6.66875">
        <ele>1491.1999511719</ele>
        <time>2019-01-19T08:57:47.000Z</time>
      </trkpt>
      <trkpt lat="45.59799" lon="6.66869">
        <ele>1493</ele>
        <time>2019-01-19T08:57:53.000Z</time>
      </trkpt>
      <trkpt lat="45.59802" lon="6.66863">
        <ele>1494.5999755859</ele>
        <time>2019-01-19T08:57:59.000Z</time>
      </trkpt>
      <trkpt lat="45.59804" lon="6.66861">
        <ele>1495.5999755859</ele>
        <time>2019-01-19T08:58:02.000Z</time>
      </trkpt>
      <trkpt lat="45.59808" lon="6.66861">
        <ele>1496.4000244141</ele>
        <time>2019-01-19T08:58:07.000Z</time>
      </trkpt>
      <trkpt lat="45.59808" lon="6.66861">
        <ele>1496.5999755859</ele>
        <time>2019-01-19T08:58:08.000Z</time>
      </trkpt>
      <trkpt lat="45.59812" lon="6.66862">
        <ele>1497.4000244141</ele>
        <time>2019-01-19T08:58:12.000Z</time>
      </trkpt>
      <trkpt lat="45.59814" lon="6.66862">
        <ele>1497.5999755859</ele>
        <time>2019-01-19T08:58:14.000Z</time>
      </trkpt>
      <trkpt lat="45.59818" lon="6.66861">
        <ele>1498.8000488281</ele>
        <time>2019-01-19T08:58:18.000Z</time>
      </trkpt>
      <trkpt lat="45.59821" lon="6.66857">
        <ele>1500.4000244141</ele>
        <time>2019-01-19T08:58:23.000Z</time>
      </trkpt>
      <trkpt lat="45.59824" lon="6.66853">
        <ele>1501.8000488281</ele>
        <time>2019-01-19T08:58:28.000Z</time>
      </trkpt>
      <trkpt lat="45.59824" lon="6.66853">
        <ele>1501.8000488281</ele>
        <time>2019-01-19T08:58:29.000Z</time>
      </trkpt>
      <trkpt lat="45.59826" lon="6.6685">
        <ele>1502.8000488281</ele>
        <time>2019-01-19T08:58:32.000Z</time>
      </trkpt>
      <trkpt lat="45.59828" lon="6.66849">
        <ele>1503.1999511719</ele>
        <time>2019-01-19T08:58:34.000Z</time>
      </trkpt>
      <trkpt lat="45.5983" lon="6.66847">
        <ele>1504.1999511719</ele>
        <time>2019-01-19T08:58:36.000Z</time>
      </trkpt>
      <trkpt lat="45.59833" lon="6.66845">
        <ele>1505.5999755859</ele>
        <time>2019-01-19T08:58:39.000Z</time>
      </trkpt>
      <trkpt lat="45.59833" lon="6.66845">
        <ele>1505.8000488281</ele>
        <time>2019-01-19T08:58:40.000Z</time>
      </trkpt>
      <trkpt lat="45.59836" lon="6.66843">
        <ele>1507</ele>
        <time>2019-01-19T08:58:42.000Z</time>
      </trkpt>
      <trkpt lat="45.59838" lon="6.66842">
        <ele>1508</ele>
        <time>2019-01-19T08:58:45.000Z</time>
      </trkpt>
      <trkpt lat="45.59841" lon="6.6684">
        <ele>1509.4000244141</ele>
        <time>2019-01-19T08:58:50.000Z</time>
      </trkpt>
      <trkpt lat="45.5984" lon="6.66836">
        <ele>1510</ele>
        <time>2019-01-19T08:58:54.000Z</time>
      </trkpt>
      <trkpt lat="45.59839" lon="6.66834">
        <ele>1510</ele>
        <time>2019-01-19T08:58:55.000Z</time>
      </trkpt>
      <trkpt lat="45.59836" lon="6.66829">
        <ele>1510.4000244141</ele>
        <time>2019-01-19T08:59:00.000Z</time>
      </trkpt>
      <trkpt lat="45.59834" lon="6.66827">
        <ele>1510.4000244141</ele>
        <time>2019-01-19T08:59:01.000Z</time>
      </trkpt>
      <trkpt lat="45.59832" lon="6.66824">
        <ele>1510.4000244141</ele>
        <time>2019-01-19T08:59:05.000Z</time>
      </trkpt>
      <trkpt lat="45.59831" lon="6.66823">
        <ele>1510.1999511719</ele>
        <time>2019-01-19T08:59:06.000Z</time>
      </trkpt>
      <trkpt lat="45.59828" lon="6.66817">
        <ele>1510.8000488281</ele>
        <time>2019-01-19T08:59:12.000Z</time>
      </trkpt>
      <trkpt lat="45.59828" lon="6.66816">
        <ele>1511</ele>
        <time>2019-01-19T08:59:13.000Z</time>
      </trkpt>
      <trkpt lat="45.59829" lon="6.66811">
        <ele>1512.4000244141</ele>
        <time>2019-01-19T08:59:17.000Z</time>
      </trkpt>
      <trkpt lat="45.5983" lon="6.66808">
        <ele>1513</ele>
        <time>2019-01-19T08:59:19.000Z</time>
      </trkpt>
      <trkpt lat="45.5983" lon="6.66804">
        <ele>1514</ele>
        <time>2019-01-19T08:59:22.000Z</time>
      </trkpt>
      <trkpt lat="45.59831" lon="6.66797">
        <ele>1515.8000488281</ele>
        <time>2019-01-19T08:59:27.000Z</time>
      </trkpt>
      <trkpt lat="45.59831" lon="6.66797">
        <ele>1515.8000488281</ele>
        <time>2019-01-19T08:59:28.000Z</time>
      </trkpt>
      <trkpt lat="45.59833" lon="6.66792">
        <ele>1517.1999511719</ele>
        <time>2019-01-19T08:59:33.000Z</time>
      </trkpt>
      <trkpt lat="45.59833" lon="6.66791">
        <ele>1517.5999755859</ele>
        <time>2019-01-19T08:59:34.000Z</time>
      </trkpt>
      <trkpt lat="45.59833" lon="6.66786">
        <ele>1518.4000244141</ele>
        <time>2019-01-19T08:59:38.000Z</time>
      </trkpt>
      <trkpt lat="45.59832" lon="6.66785">
        <ele>1518.5999755859</ele>
        <time>2019-01-19T08:59:39.000Z</time>
      </trkpt>
      <trkpt lat="45.59833" lon="6.66781">
        <ele>1519.5999755859</ele>
        <time>2019-01-19T08:59:43.000Z</time>
      </trkpt>
      <trkpt lat="45.59834" lon="6.66779">
        <ele>1520.1999511719</ele>
        <time>2019-01-19T08:59:45.000Z</time>
      </trkpt>
      <trkpt lat="45.59835" lon="6.66778">
        <ele>1521</ele>
        <time>2019-01-19T08:59:48.000Z</time>
      </trkpt>
      <trkpt lat="45.59836" lon="6.66778">
        <ele>1521.1999511719</ele>
        <time>2019-01-19T08:59:49.000Z</time>
      </trkpt>
      <trkpt lat="45.59838" lon="6.66778">
        <ele>1522</ele>
        <time>2019-01-19T08:59:53.000Z</time>
      </trkpt>
      <trkpt lat="45.59839" lon="6.66778">
        <ele>1522.1999511719</ele>
        <time>2019-01-19T08:59:54.000Z</time>
      </trkpt>
      <trkpt lat="45.59844" lon="6.66777">
        <ele>1523.8000488281</ele>
        <time>2019-01-19T08:59:59.000Z</time>
      </trkpt>
      <trkpt lat="45.59845" lon="6.66777">
        <ele>1524.1999511719</ele>
        <time>2019-01-19T09:00:00.000Z</time>
      </trkpt>
      <trkpt lat="45.59848" lon="6.66777">
        <ele>1525.1999511719</ele>
        <time>2019-01-19T09:00:03.000Z</time>
      </trkpt>
      <trkpt lat="45.59848" lon="6.66777">
        <ele>1525.4000244141</ele>
        <time>2019-01-19T09:00:04.000Z</time>
      </trkpt>
      <trkpt lat="45.59853" lon="6.66775">
        <ele>1527</ele>
        <time>2019-01-19T09:00:08.000Z</time>
      </trkpt>
      <trkpt lat="45.59853" lon="6.66775">
        <ele>1527.1999511719</ele>
        <time>2019-01-19T09:00:09.000Z</time>
      </trkpt>
      <trkpt lat="45.59852" lon="6.66772">
        <ele>1527.8000488281</ele>
        <time>2019-01-19T09:00:12.000Z</time>
      </trkpt>
      <trkpt lat="45.59852" lon="6.6677">
        <ele>1528</ele>
        <time>2019-01-19T09:00:14.000Z</time>
      </trkpt>
      <trkpt lat="45.59852" lon="6.66768">
        <ele>1528.4000244141</ele>
        <time>2019-01-19T09:00:16.000Z</time>
      </trkpt>
      <trkpt lat="45.59852" lon="6.66763">
        <ele>1529.4000244141</ele>
        <time>2019-01-19T09:00:20.000Z</time>
      </trkpt>
      <trkpt lat="45.59851" lon="6.66757">
        <ele>1530.1999511719</ele>
        <time>2019-01-19T09:00:24.000Z</time>
      </trkpt>
      <trkpt lat="45.5985" lon="6.66757">
        <ele>1530.4000244141</ele>
        <time>2019-01-19T09:00:25.000Z</time>
      </trkpt>
      <trkpt lat="45.5985" lon="6.66752">
        <ele>1531</ele>
        <time>2019-01-19T09:00:30.000Z</time>
      </trkpt>
      <trkpt lat="45.59851" lon="6.66753">
        <ele>1531.4000244141</ele>
        <time>2019-01-19T09:00:35.000Z</time>
      </trkpt>
      <trkpt lat="45.59855" lon="6.66756">
        <ele>1531.8000488281</ele>
        <time>2019-01-19T09:00:40.000Z</time>
      </trkpt>
      <trkpt lat="45.59856" lon="6.66756">
        <ele>1532.4000244141</ele>
        <time>2019-01-19T09:00:42.000Z</time>
      </trkpt>
      <trkpt lat="45.59859" lon="6.66752">
        <ele>1534.1999511719</ele>
        <time>2019-01-19T09:00:46.000Z</time>
      </trkpt>
      <trkpt lat="45.59859" lon="6.66745">
        <ele>1535.8000488281</ele>
        <time>2019-01-19T09:00:51.000Z</time>
      </trkpt>
      <trkpt lat="45.59859" lon="6.66744">
        <ele>1536</ele>
        <time>2019-01-19T09:00:52.000Z</time>
      </trkpt>
      <trkpt lat="45.59859" lon="6.6674">
        <ele>1536.5999755859</ele>
        <time>2019-01-19T09:00:55.000Z</time>
      </trkpt>
      <trkpt lat="45.59857" lon="6.66736">
        <ele>1537</ele>
        <time>2019-01-19T09:00:59.000Z</time>
      </trkpt>
      <trkpt lat="45.59857" lon="6.66735">
        <ele>1537.1999511719</ele>
        <time>2019-01-19T09:01:02.000Z</time>
      </trkpt>
      <trkpt lat="45.59857" lon="6.66734">
        <ele>1537.4000244141</ele>
        <time>2019-01-19T09:01:05.000Z</time>
      </trkpt>
      <trkpt lat="45.5986" lon="6.66736">
        <ele>1538</ele>
        <time>2019-01-19T09:01:09.000Z</time>
      </trkpt>
      <trkpt lat="45.59861" lon="6.66736">
        <ele>1538.1999511719</ele>
        <time>2019-01-19T09:01:10.000Z</time>
      </trkpt>
      <trkpt lat="45.59864" lon="6.66739">
        <ele>1538.5999755859</ele>
        <time>2019-01-19T09:01:15.000Z</time>
      </trkpt>
      <trkpt lat="45.59867" lon="6.66742">
        <ele>1538.8000488281</ele>
        <time>2019-01-19T09:01:20.000Z</time>
      </trkpt>
      <trkpt lat="45.59869" lon="6.66744">
        <ele>1539</ele>
        <time>2019-01-19T09:01:22.000Z</time>
      </trkpt>
      <trkpt lat="45.5987" lon="6.66746">
        <ele>1539.1999511719</ele>
        <time>2019-01-19T09:01:25.000Z</time>
      </trkpt>
      <trkpt lat="45.59871" lon="6.66745">
        <ele>1539.5999755859</ele>
        <time>2019-01-19T09:01:27.000Z</time>
      </trkpt>
      <trkpt lat="45.59872" lon="6.66743">
        <ele>1540.1999511719</ele>
        <time>2019-01-19T09:01:31.000Z</time>
      </trkpt>
      <trkpt lat="45.59872" lon="6.66737">
        <ele>1541.4000244141</ele>
        <time>2019-01-19T09:01:36.000Z</time>
      </trkpt>
      <trkpt lat="45.59871" lon="6.66732">
        <ele>1543</ele>
        <time>2019-01-19T09:01:40.000Z</time>
      </trkpt>
      <trkpt lat="45.59871" lon="6.66731">
        <ele>1543.1999511719</ele>
        <time>2019-01-19T09:01:41.000Z</time>
      </trkpt>
      <trkpt lat="45.59872" lon="6.66725">
        <ele>1545</ele>
        <time>2019-01-19T09:01:45.000Z</time>
      </trkpt>
      <trkpt lat="45.59872" lon="6.66723">
        <ele>1545.5999755859</ele>
        <time>2019-01-19T09:01:47.000Z</time>
      </trkpt>
      <trkpt lat="45.59873" lon="6.66718">
        <ele>1546.8000488281</ele>
        <time>2019-01-19T09:01:51.000Z</time>
      </trkpt>
      <trkpt lat="45.59873" lon="6.66716">
        <ele>1547.1999511719</ele>
        <time>2019-01-19T09:01:52.000Z</time>
      </trkpt>
      <trkpt lat="45.59874" lon="6.66712">
        <ele>1548</ele>
        <time>2019-01-19T09:01:56.000Z</time>
      </trkpt>
      <trkpt lat="45.59874" lon="6.66711">
        <ele>1548.1999511719</ele>
        <time>2019-01-19T09:01:57.000Z</time>
      </trkpt>
      <trkpt lat="45.59874" lon="6.66707">
        <ele>1549</ele>
        <time>2019-01-19T09:02:00.000Z</time>
      </trkpt>
      <trkpt lat="45.59875" lon="6.66705">
        <ele>1549.4000244141</ele>
        <time>2019-01-19T09:02:01.000Z</time>
      </trkpt>
      <trkpt lat="45.59875" lon="6.66704">
        <ele>1549.8000488281</ele>
        <time>2019-01-19T09:02:02.000Z</time>
      </trkpt>
      <trkpt lat="45.59876" lon="6.66696">
        <ele>1551.1999511719</ele>
        <time>2019-01-19T09:02:07.000Z</time>
      </trkpt>
      <trkpt lat="45.59875" lon="6.6669">
        <ele>1552.1999511719</ele>
        <time>2019-01-19T09:02:12.000Z</time>
      </trkpt>
      <trkpt lat="45.59875" lon="6.66686">
        <ele>1553.1999511719</ele>
        <time>2019-01-19T09:02:17.000Z</time>
      </trkpt>
      <trkpt lat="45.59876" lon="6.6668">
        <ele>1554.4000244141</ele>
        <time>2019-01-19T09:02:22.000Z</time>
      </trkpt>
      <trkpt lat="45.59875" lon="6.66676">
        <ele>1554.8000488281</ele>
        <time>2019-01-19T09:02:25.000Z</time>
      </trkpt>
      <trkpt lat="45.59875" lon="6.66674">
        <ele>1555</ele>
        <time>2019-01-19T09:02:26.000Z</time>
      </trkpt>
      <trkpt lat="45.59874" lon="6.66673">
        <ele>1555.1999511719</ele>
        <time>2019-01-19T09:02:27.000Z</time>
      </trkpt>
      <trkpt lat="45.59873" lon="6.66669">
        <ele>1555.8000488281</ele>
        <time>2019-01-19T09:02:33.000Z</time>
      </trkpt>
      <trkpt lat="45.59873" lon="6.66668">
        <ele>1556</ele>
        <time>2019-01-19T09:02:34.000Z</time>
      </trkpt>
      <trkpt lat="45.59873" lon="6.66662">
        <ele>1557</ele>
        <time>2019-01-19T09:02:38.000Z</time>
      </trkpt>
      <trkpt lat="45.59873" lon="6.66661">
        <ele>1557.1999511719</ele>
        <time>2019-01-19T09:02:40.000Z</time>
      </trkpt>
      <trkpt lat="45.59872" lon="6.66656">
        <ele>1557.8000488281</ele>
        <time>2019-01-19T09:02:43.000Z</time>
      </trkpt>
      <trkpt lat="45.59872" lon="6.66655">
        <ele>1558</ele>
        <time>2019-01-19T09:02:45.000Z</time>
      </trkpt>
      <trkpt lat="45.59873" lon="6.6665">
        <ele>1559.4000244141</ele>
        <time>2019-01-19T09:02:49.000Z</time>
      </trkpt>
      <trkpt lat="45.59873" lon="6.66645">
        <ele>1561</ele>
        <time>2019-01-19T09:02:53.000Z</time>
      </trkpt>
      <trkpt lat="45.59872" lon="6.66643">
        <ele>1561.5999755859</ele>
        <time>2019-01-19T09:02:54.000Z</time>
      </trkpt>
      <trkpt lat="45.59873" lon="6.6664">
        <ele>1562.4000244141</ele>
        <time>2019-01-19T09:02:58.000Z</time>
      </trkpt>
      <trkpt lat="45.59872" lon="6.66636">
        <ele>1563.4000244141</ele>
        <time>2019-01-19T09:03:02.000Z</time>
      </trkpt>
      <trkpt lat="45.59871" lon="6.66631">
        <ele>1564.4000244141</ele>
        <time>2019-01-19T09:03:07.000Z</time>
      </trkpt>
      <trkpt lat="45.59871" lon="6.66629">
        <ele>1565</ele>
        <time>2019-01-19T09:03:08.000Z</time>
      </trkpt>
      <trkpt lat="45.59871" lon="6.66625">
        <ele>1566</ele>
        <time>2019-01-19T09:03:12.000Z</time>
      </trkpt>
      <trkpt lat="45.59871" lon="6.66624">
        <ele>1566.1999511719</ele>
        <time>2019-01-19T09:03:13.000Z</time>
      </trkpt>
      <trkpt lat="45.59871" lon="6.6662">
        <ele>1567.4000244141</ele>
        <time>2019-01-19T09:03:16.000Z</time>
      </trkpt>
      <trkpt lat="45.59871" lon="6.6662">
        <ele>1567.4000244141</ele>
        <time>2019-01-19T09:03:17.000Z</time>
      </trkpt>
      <trkpt lat="45.59872" lon="6.66619">
        <ele>1567.5999755859</ele>
        <time>2019-01-19T09:03:19.000Z</time>
      </trkpt>
      <trkpt lat="45.59873" lon="6.66617">
        <ele>1568.1999511719</ele>
        <time>2019-01-19T09:03:22.000Z</time>
      </trkpt>
      <trkpt lat="45.59873" lon="6.66617">
        <ele>1568.1999511719</ele>
        <time>2019-01-19T09:03:23.000Z</time>
      </trkpt>
      <trkpt lat="45.59875" lon="6.66615">
        <ele>1569</ele>
        <time>2019-01-19T09:03:27.000Z</time>
      </trkpt>
      <trkpt lat="45.59876" lon="6.66615">
        <ele>1569.1999511719</ele>
        <time>2019-01-19T09:03:29.000Z</time>
      </trkpt>
      <trkpt lat="45.59878" lon="6.66614">
        <ele>1569.8000488281</ele>
        <time>2019-01-19T09:03:32.000Z</time>
      </trkpt>
      <trkpt lat="45.59879" lon="6.66613">
        <ele>1570.1999511719</ele>
        <time>2019-01-19T09:03:34.000Z</time>
      </trkpt>
      <trkpt lat="45.59879" lon="6.66608">
        <ele>1571.4000244141</ele>
        <time>2019-01-19T09:03:37.000Z</time>
      </trkpt>
      <trkpt lat="45.59879" lon="6.66607">
        <ele>1571.8000488281</ele>
        <time>2019-01-19T09:03:38.000Z</time>
      </trkpt>
      <trkpt lat="45.59878" lon="6.66602">
        <ele>1572.5999755859</ele>
        <time>2019-01-19T09:03:41.000Z</time>
      </trkpt>
      <trkpt lat="45.59877" lon="6.666">
        <ele>1573.1999511719</ele>
        <time>2019-01-19T09:03:43.000Z</time>
      </trkpt>
      <trkpt lat="45.59878" lon="6.66596">
        <ele>1574.4000244141</ele>
        <time>2019-01-19T09:03:46.000Z</time>
      </trkpt>
      <trkpt lat="45.59878" lon="6.66595">
        <ele>1574.4000244141</ele>
        <time>2019-01-19T09:03:47.000Z</time>
      </trkpt>
      <trkpt lat="45.59878" lon="6.66594">
        <ele>1574.8000488281</ele>
        <time>2019-01-19T09:03:51.000Z</time>
      </trkpt>
      <trkpt lat="45.59878" lon="6.66593">
        <ele>1575</ele>
        <time>2019-01-19T09:03:54.000Z</time>
      </trkpt>
      <trkpt lat="45.59877" lon="6.66592">
        <ele>1575.1999511719</ele>
        <time>2019-01-19T09:03:55.000Z</time>
      </trkpt>
      <trkpt lat="45.59877" lon="6.66591">
        <ele>1575.4000244141</ele>
        <time>2019-01-19T09:04:04.000Z</time>
      </trkpt>
      <trkpt lat="45.59877" lon="6.66591">
        <ele>1575.4000244141</ele>
        <time>2019-01-19T09:04:15.000Z</time>
      </trkpt>
      <trkpt lat="45.59878" lon="6.66589">
        <ele>1576.1999511719</ele>
        <time>2019-01-19T09:04:20.000Z</time>
      </trkpt>
      <trkpt lat="45.59878" lon="6.66586">
        <ele>1576.8000488281</ele>
        <time>2019-01-19T09:04:23.000Z</time>
      </trkpt>
      <trkpt lat="45.59878" lon="6.66584">
        <ele>1577.4000244141</ele>
        <time>2019-01-19T09:04:24.000Z</time>
      </trkpt>
      <trkpt lat="45.59878" lon="6.66579">
        <ele>1578.5999755859</ele>
        <time>2019-01-19T09:04:28.000Z</time>
      </trkpt>
      <trkpt lat="45.59878" lon="6.66574">
        <ele>1580</ele>
        <time>2019-01-19T09:04:32.000Z</time>
      </trkpt>
      <trkpt lat="45.59878" lon="6.6657">
        <ele>1580.8000488281</ele>
        <time>2019-01-19T09:04:34.000Z</time>
      </trkpt>
      <trkpt lat="45.5988" lon="6.66565">
        <ele>1582.8000488281</ele>
        <time>2019-01-19T09:04:39.000Z</time>
      </trkpt>
      <trkpt lat="45.5988" lon="6.66563">
        <ele>1583.5999755859</ele>
        <time>2019-01-19T09:04:41.000Z</time>
      </trkpt>
      <trkpt lat="45.59879" lon="6.66559">
        <ele>1584.4000244141</ele>
        <time>2019-01-19T09:04:43.000Z</time>
      </trkpt>
      <trkpt lat="45.59879" lon="6.66556">
        <ele>1585.1999511719</ele>
        <time>2019-01-19T09:04:47.000Z</time>
      </trkpt>
      <trkpt lat="45.5988" lon="6.66555">
        <ele>1585.5999755859</ele>
        <time>2019-01-19T09:04:50.000Z</time>
      </trkpt>
      <trkpt lat="45.59881" lon="6.66554">
        <ele>1585.5999755859</ele>
        <time>2019-01-19T09:04:54.000Z</time>
      </trkpt>
      <trkpt lat="45.59881" lon="6.66554">
        <ele>1585.5999755859</ele>
        <time>2019-01-19T09:04:55.000Z</time>
      </trkpt>
      <trkpt lat="45.59884" lon="6.66559">
        <ele>1584.4000244141</ele>
        <time>2019-01-19T09:04:59.000Z</time>
      </trkpt>
      <trkpt lat="45.59885" lon="6.6656">
        <ele>1584.4000244141</ele>
        <time>2019-01-19T09:05:01.000Z</time>
      </trkpt>
      <trkpt lat="45.59887" lon="6.6656">
        <ele>1585.4000244141</ele>
        <time>2019-01-19T09:05:04.000Z</time>
      </trkpt>
      <trkpt lat="45.59893" lon="6.66561">
        <ele>1588.1999511719</ele>
        <time>2019-01-19T09:05:11.000Z</time>
      </trkpt>
      <trkpt lat="45.59897" lon="6.66561">
        <ele>1590.1999511719</ele>
        <time>2019-01-19T09:05:16.000Z</time>
      </trkpt>
      <trkpt lat="45.59901" lon="6.66565">
        <ele>1591.4000244141</ele>
        <time>2019-01-19T09:05:21.000Z</time>
      </trkpt>
      <trkpt lat="45.59905" lon="6.66569">
        <ele>1592.5999755859</ele>
        <time>2019-01-19T09:05:28.000Z</time>
      </trkpt>
      <trkpt lat="45.59906" lon="6.66569">
        <ele>1593</ele>
        <time>2019-01-19T09:05:33.000Z</time>
      </trkpt>
      <trkpt lat="45.59909" lon="6.66573">
        <ele>1593.8000488281</ele>
        <time>2019-01-19T09:05:39.000Z</time>
      </trkpt>
      <trkpt lat="45.59909" lon="6.66572">
        <ele>1594</ele>
        <time>2019-01-19T09:05:41.000Z</time>
      </trkpt>
      <trkpt lat="45.59909" lon="6.66569">
        <ele>1594.4000244141</ele>
        <time>2019-01-19T09:05:45.000Z</time>
      </trkpt>
      <trkpt lat="45.59909" lon="6.66567">
        <ele>1594.8000488281</ele>
        <time>2019-01-19T09:05:46.000Z</time>
      </trkpt>
      <trkpt lat="45.59907" lon="6.66561">
        <ele>1595.4000244141</ele>
        <time>2019-01-19T09:05:50.000Z</time>
      </trkpt>
      <trkpt lat="45.59907" lon="6.6656">
        <ele>1595.4000244141</ele>
        <time>2019-01-19T09:05:51.000Z</time>
      </trkpt>
      <trkpt lat="45.59906" lon="6.66555">
        <ele>1596.4000244141</ele>
        <time>2019-01-19T09:05:56.000Z</time>
      </trkpt>
      <trkpt lat="45.59908" lon="6.66558">
        <ele>1596.5999755859</ele>
        <time>2019-01-19T09:05:59.000Z</time>
      </trkpt>
      <trkpt lat="45.59909" lon="6.6656">
        <ele>1597</ele>
        <time>2019-01-19T09:06:01.000Z</time>
      </trkpt>
      <trkpt lat="45.59911" lon="6.6656">
        <ele>1597.5999755859</ele>
        <time>2019-01-19T09:06:02.000Z</time>
      </trkpt>
      <trkpt lat="45.59912" lon="6.66561">
        <ele>1598</ele>
        <time>2019-01-19T09:06:05.000Z</time>
      </trkpt>
      <trkpt lat="45.59916" lon="6.66562">
        <ele>1599.4000244141</ele>
        <time>2019-01-19T09:06:10.000Z</time>
      </trkpt>
      <trkpt lat="45.59918" lon="6.66566">
        <ele>1600</ele>
        <time>2019-01-19T09:06:16.000Z</time>
      </trkpt>
      <trkpt lat="45.59919" lon="6.66566">
        <ele>1600.1999511719</ele>
        <time>2019-01-19T09:06:17.000Z</time>
      </trkpt>
      <trkpt lat="45.5992" lon="6.66566">
        <ele>1600.8000488281</ele>
        <time>2019-01-19T09:06:21.000Z</time>
      </trkpt>
      <trkpt lat="45.59922" lon="6.66565">
        <ele>1602</ele>
        <time>2019-01-19T09:06:26.000Z</time>
      </trkpt>
      <trkpt lat="45.59922" lon="6.66565">
        <ele>1602.1999511719</ele>
        <time>2019-01-19T09:06:27.000Z</time>
      </trkpt>
      <trkpt lat="45.59922" lon="6.6656">
        <ele>1603.1999511719</ele>
        <time>2019-01-19T09:06:30.000Z</time>
      </trkpt>
      <trkpt lat="45.59922" lon="6.66559">
        <ele>1603.4000244141</ele>
        <time>2019-01-19T09:06:32.000Z</time>
      </trkpt>
      <trkpt lat="45.59921" lon="6.66557">
        <ele>1603.8000488281</ele>
        <time>2019-01-19T09:06:35.000Z</time>
      </trkpt>
      <trkpt lat="45.59922" lon="6.66554">
        <ele>1604.5999755859</ele>
        <time>2019-01-19T09:06:37.000Z</time>
      </trkpt>
      <trkpt lat="45.59922" lon="6.66553">
        <ele>1605.1999511719</ele>
        <time>2019-01-19T09:06:41.000Z</time>
      </trkpt>
      <trkpt lat="45.59922" lon="6.66552">
        <ele>1605.1999511719</ele>
        <time>2019-01-19T09:06:42.000Z</time>
      </trkpt>
      <trkpt lat="45.59921" lon="6.66549">
        <ele>1605.8000488281</ele>
        <time>2019-01-19T09:06:45.000Z</time>
      </trkpt>
      <trkpt lat="45.59921" lon="6.66549">
        <ele>1605.8000488281</ele>
        <time>2019-01-19T09:06:46.000Z</time>
      </trkpt>
      <trkpt lat="45.59921" lon="6.66546">
        <ele>1606.1999511719</ele>
        <time>2019-01-19T09:06:51.000Z</time>
      </trkpt>
      <trkpt lat="45.59921" lon="6.66544">
        <ele>1606.4000244141</ele>
        <time>2019-01-19T09:06:54.000Z</time>
      </trkpt>
      <trkpt lat="45.59921" lon="6.66543">
        <ele>1606.8000488281</ele>
        <time>2019-01-19T09:06:56.000Z</time>
      </trkpt>
      <trkpt lat="45.59921" lon="6.6654">
        <ele>1607.4000244141</ele>
        <time>2019-01-19T09:07:01.000Z</time>
      </trkpt>
      <trkpt lat="45.59921" lon="6.66539">
        <ele>1608</ele>
        <time>2019-01-19T09:07:05.000Z</time>
      </trkpt>
      <trkpt lat="45.59921" lon="6.6654">
        <ele>1607.8000488281</ele>
        <time>2019-01-19T09:07:08.000Z</time>
      </trkpt>
      <trkpt lat="45.59923" lon="6.66542">
        <ele>1608.1999511719</ele>
        <time>2019-01-19T09:07:09.000Z</time>
      </trkpt>
      <trkpt lat="45.59926" lon="6.66543">
        <ele>1609.1999511719</ele>
        <time>2019-01-19T09:07:12.000Z</time>
      </trkpt>
      <trkpt lat="45.59929" lon="6.66546">
        <ele>1610.5999755859</ele>
        <time>2019-01-19T09:07:17.000Z</time>
      </trkpt>
      <trkpt lat="45.5993" lon="6.66547">
        <ele>1611</ele>
        <time>2019-01-19T09:07:19.000Z</time>
      </trkpt>
      <trkpt lat="45.59933" lon="6.66549">
        <ele>1611.5999755859</ele>
        <time>2019-01-19T09:07:23.000Z</time>
      </trkpt>
      <trkpt lat="45.59935" lon="6.66551">
        <ele>1612.4000244141</ele>
        <time>2019-01-19T09:07:27.000Z</time>
      </trkpt>
      <trkpt lat="45.59935" lon="6.66551">
        <ele>1612.4000244141</ele>
        <time>2019-01-19T09:07:29.000Z</time>
      </trkpt>
      <trkpt lat="45.59935" lon="6.66551">
        <ele>1612.4000244141</ele>
        <time>2019-01-19T09:07:31.000Z</time>
      </trkpt>
      <trkpt lat="45.59935" lon="6.66551">
        <ele>1612.4000244141</ele>
        <time>2019-01-19T09:07:35.000Z</time>
      </trkpt>
      <trkpt lat="45.59936" lon="6.66553">
        <ele>1612.4000244141</ele>
        <time>2019-01-19T09:07:38.000Z</time>
      </trkpt>
      <trkpt lat="45.59938" lon="6.66555">
        <ele>1612.5999755859</ele>
        <time>2019-01-19T09:07:43.000Z</time>
      </trkpt>
      <trkpt lat="45.59938" lon="6.66556">
        <ele>1612.5999755859</ele>
        <time>2019-01-19T09:07:46.000Z</time>
      </trkpt>
      <trkpt lat="45.59938" lon="6.66555">
        <ele>1613</ele>
        <time>2019-01-19T09:07:50.000Z</time>
      </trkpt>
      <trkpt lat="45.59939" lon="6.6655">
        <ele>1614.8000488281</ele>
        <time>2019-01-19T09:07:55.000Z</time>
      </trkpt>
      <trkpt lat="45.5994" lon="6.66546">
        <ele>1615.5999755859</ele>
        <time>2019-01-19T09:07:56.000Z</time>
      </trkpt>
      <trkpt lat="45.5994" lon="6.66546">
        <ele>1615.8000488281</ele>
        <time>2019-01-19T09:07:57.000Z</time>
      </trkpt>
      <trkpt lat="45.5994" lon="6.66542">
        <ele>1617</ele>
        <time>2019-01-19T09:07:59.000Z</time>
      </trkpt>
      <trkpt lat="45.59939" lon="6.66535">
        <ele>1618</ele>
        <time>2019-01-19T09:08:04.000Z</time>
      </trkpt>
      <trkpt lat="45.59939" lon="6.66534">
        <ele>1618</ele>
        <time>2019-01-19T09:08:06.000Z</time>
      </trkpt>
      <trkpt lat="45.59938" lon="6.66532">
        <ele>1618.1999511719</ele>
        <time>2019-01-19T09:08:09.000Z</time>
      </trkpt>
      <trkpt lat="45.59938" lon="6.6653">
        <ele>1618.8000488281</ele>
        <time>2019-01-19T09:08:10.000Z</time>
      </trkpt>
      <trkpt lat="45.59941" lon="6.66528">
        <ele>1620.4000244141</ele>
        <time>2019-01-19T09:08:15.000Z</time>
      </trkpt>
      <trkpt lat="45.59941" lon="6.66529">
        <ele>1620.5999755859</ele>
        <time>2019-01-19T09:08:18.000Z</time>
      </trkpt>
      <trkpt lat="45.59942" lon="6.66531">
        <ele>1620.4000244141</ele>
        <time>2019-01-19T09:08:20.000Z</time>
      </trkpt>
      <trkpt lat="45.59942" lon="6.66531">
        <ele>1620.4000244141</ele>
        <time>2019-01-19T09:08:21.000Z</time>
      </trkpt>
      <trkpt lat="45.59943" lon="6.66531">
        <ele>1620.8000488281</ele>
        <time>2019-01-19T09:08:24.000Z</time>
      </trkpt>
      <trkpt lat="45.59944" lon="6.6653">
        <ele>1621.4000244141</ele>
        <time>2019-01-19T09:08:26.000Z</time>
      </trkpt>
      <trkpt lat="45.59946" lon="6.66527">
        <ele>1623.1999511719</ele>
        <time>2019-01-19T09:08:32.000Z</time>
      </trkpt>
      <trkpt lat="45.59946" lon="6.66522">
        <ele>1624.8000488281</ele>
        <time>2019-01-19T09:08:36.000Z</time>
      </trkpt>
      <trkpt lat="45.59947" lon="6.66522">
        <ele>1624.8000488281</ele>
        <time>2019-01-19T09:08:37.000Z</time>
      </trkpt>
      <trkpt lat="45.59947" lon="6.66518">
        <ele>1625.5999755859</ele>
        <time>2019-01-19T09:08:40.000Z</time>
      </trkpt>
      <trkpt lat="45.59946" lon="6.66516">
        <ele>1625.8000488281</ele>
        <time>2019-01-19T09:08:41.000Z</time>
      </trkpt>
      <trkpt lat="45.59946" lon="6.66516">
        <ele>1625.8000488281</ele>
        <time>2019-01-19T09:08:42.000Z</time>
      </trkpt>
      <trkpt lat="45.59946" lon="6.66516">
        <ele>1625.8000488281</ele>
        <time>2019-01-19T09:08:44.000Z</time>
      </trkpt>
      <trkpt lat="45.59947" lon="6.66516">
        <ele>1626.1999511719</ele>
        <time>2019-01-19T09:08:48.000Z</time>
      </trkpt>
      <trkpt lat="45.59947" lon="6.66516">
        <ele>1626.5999755859</ele>
        <time>2019-01-19T09:08:49.000Z</time>
      </trkpt>
      <trkpt lat="45.59949" lon="6.66517">
        <ele>1627.4000244141</ele>
        <time>2019-01-19T09:08:51.000Z</time>
      </trkpt>
      <trkpt lat="45.5995" lon="6.66518">
        <ele>1627.5999755859</ele>
        <time>2019-01-19T09:08:53.000Z</time>
      </trkpt>
      <trkpt lat="45.59951" lon="6.66519">
        <ele>1627.5999755859</ele>
        <time>2019-01-19T09:08:54.000Z</time>
      </trkpt>
      <trkpt lat="45.59952" lon="6.66522">
        <ele>1627.5999755859</ele>
        <time>2019-01-19T09:09:00.000Z</time>
      </trkpt>
      <trkpt lat="45.59952" lon="6.66522">
        <ele>1627.5999755859</ele>
        <time>2019-01-19T09:09:04.000Z</time>
      </trkpt>
      <trkpt lat="45.59953" lon="6.66518">
        <ele>1629.1999511719</ele>
        <time>2019-01-19T09:09:07.000Z</time>
      </trkpt>
      <trkpt lat="45.59954" lon="6.66512">
        <ele>1630.8000488281</ele>
        <time>2019-01-19T09:09:10.000Z</time>
      </trkpt>
      <trkpt lat="45.59954" lon="6.66512">
        <ele>1630.8000488281</ele>
        <time>2019-01-19T09:09:11.000Z</time>
      </trkpt>
      <trkpt lat="45.59953" lon="6.66508">
        <ele>1631</ele>
        <time>2019-01-19T09:09:13.000Z</time>
      </trkpt>
      <trkpt lat="45.59953" lon="6.66507">
        <ele>1631.4000244141</ele>
        <time>2019-01-19T09:09:16.000Z</time>
      </trkpt>
      <trkpt lat="45.59953" lon="6.66507">
        <ele>1631.4000244141</ele>
        <time>2019-01-19T09:09:20.000Z</time>
      </trkpt>
      <trkpt lat="45.59953" lon="6.66507">
        <ele>1631.4000244141</ele>
        <time>2019-01-19T09:09:30.000Z</time>
      </trkpt>
      <trkpt lat="45.59953" lon="6.66506">
        <ele>1631.4000244141</ele>
        <time>2019-01-19T09:09:37.000Z</time>
      </trkpt>
      <trkpt lat="45.59954" lon="6.665">
        <ele>1633.8000488281</ele>
        <time>2019-01-19T09:09:42.000Z</time>
      </trkpt>
      <trkpt lat="45.59955" lon="6.66497">
        <ele>1634.8000488281</ele>
        <time>2019-01-19T09:09:44.000Z</time>
      </trkpt>
      <trkpt lat="45.59955" lon="6.66495">
        <ele>1635.1999511719</ele>
        <time>2019-01-19T09:09:49.000Z</time>
      </trkpt>
      <trkpt lat="45.59955" lon="6.66495">
        <ele>1635.1999511719</ele>
        <time>2019-01-19T09:09:50.000Z</time>
      </trkpt>
      <trkpt lat="45.59955" lon="6.66495">
        <ele>1635.1999511719</ele>
        <time>2019-01-19T09:09:53.000Z</time>
      </trkpt>
      <trkpt lat="45.59957" lon="6.66496">
        <ele>1636.4000244141</ele>
        <time>2019-01-19T09:09:56.000Z</time>
      </trkpt>
      <trkpt lat="45.59957" lon="6.66496">
        <ele>1636.4000244141</ele>
        <time>2019-01-19T09:09:57.000Z</time>
      </trkpt>
      <trkpt lat="45.5996" lon="6.66496">
        <ele>1637.4000244141</ele>
        <time>2019-01-19T09:10:03.000Z</time>
      </trkpt>
      <trkpt lat="45.5996" lon="6.66496">
        <ele>1637.5999755859</ele>
        <time>2019-01-19T09:10:05.000Z</time>
      </trkpt>
      <trkpt lat="45.5996" lon="6.66496">
        <ele>1637.5999755859</ele>
        <time>2019-01-19T09:10:10.000Z</time>
      </trkpt>
      <trkpt lat="45.59961" lon="6.66496">
        <ele>1638.1999511719</ele>
        <time>2019-01-19T09:10:14.000Z</time>
      </trkpt>
      <trkpt lat="45.59961" lon="6.66496">
        <ele>1638.1999511719</ele>
        <time>2019-01-19T09:10:16.000Z</time>
      </trkpt>
      <trkpt lat="45.59963" lon="6.6649">
        <ele>1640.1999511719</ele>
        <time>2019-01-19T09:10:19.000Z</time>
      </trkpt>
      <trkpt lat="45.59963" lon="6.66483">
        <ele>1642</ele>
        <time>2019-01-19T09:10:22.000Z</time>
      </trkpt>
      <trkpt lat="45.59964" lon="6.66481">
        <ele>1642.8000488281</ele>
        <time>2019-01-19T09:10:24.000Z</time>
      </trkpt>
      <trkpt lat="45.59964" lon="6.66473">
        <ele>1643.1999511719</ele>
        <time>2019-01-19T09:10:28.000Z</time>
      </trkpt>
      <trkpt lat="45.59963" lon="6.66469">
        <ele>1643.4000244141</ele>
        <time>2019-01-19T09:10:32.000Z</time>
      </trkpt>
      <trkpt lat="45.59963" lon="6.66465">
        <ele>1643.5999755859</ele>
        <time>2019-01-19T09:10:35.000Z</time>
      </trkpt>
      <trkpt lat="45.59964" lon="6.66462">
        <ele>1644</ele>
        <time>2019-01-19T09:10:38.000Z</time>
      </trkpt>
      <trkpt lat="45.59965" lon="6.66457">
        <ele>1645</ele>
        <time>2019-01-19T09:10:42.000Z</time>
      </trkpt>
      <trkpt lat="45.59966" lon="6.66456">
        <ele>1645.1999511719</ele>
        <time>2019-01-19T09:10:43.000Z</time>
      </trkpt>
      <trkpt lat="45.59966" lon="6.66451">
        <ele>1645.5999755859</ele>
        <time>2019-01-19T09:10:47.000Z</time>
      </trkpt>
      <trkpt lat="45.59966" lon="6.66448">
        <ele>1645.8000488281</ele>
        <time>2019-01-19T09:10:50.000Z</time>
      </trkpt>
      <trkpt lat="45.59966" lon="6.66447">
        <ele>1646</ele>
        <time>2019-01-19T09:10:51.000Z</time>
      </trkpt>
      <trkpt lat="45.59967" lon="6.66441">
        <ele>1646.5999755859</ele>
        <time>2019-01-19T09:10:57.000Z</time>
      </trkpt>
      <trkpt lat="45.59969" lon="6.66435">
        <ele>1647.8000488281</ele>
        <time>2019-01-19T09:11:01.000Z</time>
      </trkpt>
      <trkpt lat="45.5997" lon="6.66432">
        <ele>1649</ele>
        <time>2019-01-19T09:11:04.000Z</time>
      </trkpt>
      <trkpt lat="45.59972" lon="6.66431">
        <ele>1650.5999755859</ele>
        <time>2019-01-19T09:11:08.000Z</time>
      </trkpt>
      <trkpt lat="45.59973" lon="6.6643">
        <ele>1651.1999511719</ele>
        <time>2019-01-19T09:11:10.000Z</time>
      </trkpt>
      <trkpt lat="45.59974" lon="6.66429">
        <ele>1651.4000244141</ele>
        <time>2019-01-19T09:11:11.000Z</time>
      </trkpt>
      <trkpt lat="45.59974" lon="6.66425">
        <ele>1651.8000488281</ele>
        <time>2019-01-19T09:11:15.000Z</time>
      </trkpt>
      <trkpt lat="45.59974" lon="6.66421">
        <ele>1652.1999511719</ele>
        <time>2019-01-19T09:11:18.000Z</time>
      </trkpt>
      <trkpt lat="45.59975" lon="6.66417">
        <ele>1653.1999511719</ele>
        <time>2019-01-19T09:11:25.000Z</time>
      </trkpt>
      <trkpt lat="45.59976" lon="6.66415">
        <ele>1653.5999755859</ele>
        <time>2019-01-19T09:11:27.000Z</time>
      </trkpt>
      <trkpt lat="45.59977" lon="6.66412">
        <ele>1654.8000488281</ele>
        <time>2019-01-19T09:11:30.000Z</time>
      </trkpt>
      <trkpt lat="45.59977" lon="6.66411">
        <ele>1655.1999511719</ele>
        <time>2019-01-19T09:11:31.000Z</time>
      </trkpt>
      <trkpt lat="45.59978" lon="6.66402">
        <ele>1656.4000244141</ele>
        <time>2019-01-19T09:11:38.000Z</time>
      </trkpt>
      <trkpt lat="45.59978" lon="6.664">
        <ele>1656.5999755859</ele>
        <time>2019-01-19T09:11:43.000Z</time>
      </trkpt>
      <trkpt lat="45.59979" lon="6.66397">
        <ele>1657</ele>
        <time>2019-01-19T09:11:45.000Z</time>
      </trkpt>
      <trkpt lat="45.59979" lon="6.66397">
        <ele>1657.1999511719</ele>
        <time>2019-01-19T09:11:46.000Z</time>
      </trkpt>
      <trkpt lat="45.5998" lon="6.66394">
        <ele>1657.8000488281</ele>
        <time>2019-01-19T09:11:49.000Z</time>
      </trkpt>
      <trkpt lat="45.59981" lon="6.66391">
        <ele>1658.5999755859</ele>
        <time>2019-01-19T09:11:51.000Z</time>
      </trkpt>
      <trkpt lat="45.59983" lon="6.66387">
        <ele>1660.1999511719</ele>
        <time>2019-01-19T09:11:55.000Z</time>
      </trkpt>
      <trkpt lat="45.59985" lon="6.66386">
        <ele>1661.4000244141</ele>
        <time>2019-01-19T09:11:57.000Z</time>
      </trkpt>
      <trkpt lat="45.59985" lon="6.66382">
        <ele>1662</ele>
        <time>2019-01-19T09:12:01.000Z</time>
      </trkpt>
      <trkpt lat="45.59985" lon="6.66377">
        <ele>1661.8000488281</ele>
        <time>2019-01-19T09:12:05.000Z</time>
      </trkpt>
      <trkpt lat="45.59984" lon="6.66373">
        <ele>1661.8000488281</ele>
        <time>2019-01-19T09:12:10.000Z</time>
      </trkpt>
      <trkpt lat="45.59984" lon="6.66372">
        <ele>1661.8000488281</ele>
        <time>2019-01-19T09:12:11.000Z</time>
      </trkpt>
      <trkpt lat="45.59986" lon="6.6637">
        <ele>1662.8000488281</ele>
        <time>2019-01-19T09:12:15.000Z</time>
      </trkpt>
      <trkpt lat="45.59988" lon="6.66367">
        <ele>1664.1999511719</ele>
        <time>2019-01-19T09:12:18.000Z</time>
      </trkpt>
      <trkpt lat="45.59989" lon="6.66364">
        <ele>1665</ele>
        <time>2019-01-19T09:12:20.000Z</time>
      </trkpt>
      <trkpt lat="45.5999" lon="6.6636">
        <ele>1666.1999511719</ele>
        <time>2019-01-19T09:12:23.000Z</time>
      </trkpt>
      <trkpt lat="45.59992" lon="6.66356">
        <ele>1667.1999511719</ele>
        <time>2019-01-19T09:12:27.000Z</time>
      </trkpt>
      <trkpt lat="45.59992" lon="6.66352">
        <ele>1667.5999755859</ele>
        <time>2019-01-19T09:12:30.000Z</time>
      </trkpt>
      <trkpt lat="45.59992" lon="6.6635">
        <ele>1667.5999755859</ele>
        <time>2019-01-19T09:12:34.000Z</time>
      </trkpt>
      <trkpt lat="45.59993" lon="6.66349">
        <ele>1668.4000244141</ele>
        <time>2019-01-19T09:12:37.000Z</time>
      </trkpt>
      <trkpt lat="45.59996" lon="6.66348">
        <ele>1670.4000244141</ele>
        <time>2019-01-19T09:12:41.000Z</time>
      </trkpt>
      <trkpt lat="45.59997" lon="6.66349">
        <ele>1671.1999511719</ele>
        <time>2019-01-19T09:12:44.000Z</time>
      </trkpt>
      <trkpt lat="45.59998" lon="6.66349">
        <ele>1671.4000244141</ele>
        <time>2019-01-19T09:12:45.000Z</time>
      </trkpt>
      <trkpt lat="45.59999" lon="6.66352">
        <ele>1672.4000244141</ele>
        <time>2019-01-19T09:12:50.000Z</time>
      </trkpt>
      <trkpt lat="45.59999" lon="6.66353">
        <ele>1672.4000244141</ele>
        <time>2019-01-19T09:12:51.000Z</time>
      </trkpt>
      <trkpt lat="45.60002" lon="6.66348">
        <ele>1673.8000488281</ele>
        <time>2019-01-19T09:12:58.000Z</time>
      </trkpt>
      <trkpt lat="45.60001" lon="6.66348">
        <ele>1673.5999755859</ele>
        <time>2019-01-19T09:12:59.000Z</time>
      </trkpt>
      <trkpt lat="45.60002" lon="6.66343">
        <ele>1674</ele>
        <time>2019-01-19T09:13:03.000Z</time>
      </trkpt>
      <trkpt lat="45.60003" lon="6.66341">
        <ele>1674.1999511719</ele>
        <time>2019-01-19T09:13:05.000Z</time>
      </trkpt>
      <trkpt lat="45.60003" lon="6.66339">
        <ele>1674.4000244141</ele>
        <time>2019-01-19T09:13:06.000Z</time>
      </trkpt>
      <trkpt lat="45.60004" lon="6.66331">
        <ele>1674.1999511719</ele>
        <time>2019-01-19T09:13:11.000Z</time>
      </trkpt>
      <trkpt lat="45.60003" lon="6.66325">
        <ele>1673.5999755859</ele>
        <time>2019-01-19T09:13:14.000Z</time>
      </trkpt>
      <trkpt lat="45.60002" lon="6.66322">
        <ele>1673</ele>
        <time>2019-01-19T09:13:16.000Z</time>
      </trkpt>
      <trkpt lat="45.60002" lon="6.66318">
        <ele>1672.8000488281</ele>
        <time>2019-01-19T09:13:18.000Z</time>
      </trkpt>
      <trkpt lat="45.60002" lon="6.66314">
        <ele>1673.4000244141</ele>
        <time>2019-01-19T09:13:21.000Z</time>
      </trkpt>
      <trkpt lat="45.60002" lon="6.66303">
        <ele>1675</ele>
        <time>2019-01-19T09:13:27.000Z</time>
      </trkpt>
      <trkpt lat="45.60002" lon="6.66299">
        <ele>1675.1999511719</ele>
        <time>2019-01-19T09:13:30.000Z</time>
      </trkpt>
      <trkpt lat="45.60002" lon="6.66293">
        <ele>1676</ele>
        <time>2019-01-19T09:13:34.000Z</time>
      </trkpt>
      <trkpt lat="45.60002" lon="6.66287">
        <ele>1677.1999511719</ele>
        <time>2019-01-19T09:13:39.000Z</time>
      </trkpt>
      <trkpt lat="45.60003" lon="6.66286">
        <ele>1677.1999511719</ele>
        <time>2019-01-19T09:13:40.000Z</time>
      </trkpt>
      <trkpt lat="45.60004" lon="6.66282">
        <ele>1678.4000244141</ele>
        <time>2019-01-19T09:13:42.000Z</time>
      </trkpt>
      <trkpt lat="45.60004" lon="6.66277">
        <ele>1679.4000244141</ele>
        <time>2019-01-19T09:13:45.000Z</time>
      </trkpt>
      <trkpt lat="45.60005" lon="6.66274">
        <ele>1680.1999511719</ele>
        <time>2019-01-19T09:13:47.000Z</time>
      </trkpt>
      <trkpt lat="45.60006" lon="6.66269">
        <ele>1680.5999755859</ele>
        <time>2019-01-19T09:13:51.000Z</time>
      </trkpt>
      <trkpt lat="45.60008" lon="6.66265">
        <ele>1681.1999511719</ele>
        <time>2019-01-19T09:13:56.000Z</time>
      </trkpt>
      <trkpt lat="45.60009" lon="6.66261">
        <ele>1681.4000244141</ele>
        <time>2019-01-19T09:13:59.000Z</time>
      </trkpt>
      <trkpt lat="45.6001" lon="6.6626">
        <ele>1682</ele>
        <time>2019-01-19T09:14:01.000Z</time>
      </trkpt>
      <trkpt lat="45.60011" lon="6.66258">
        <ele>1682.4000244141</ele>
        <time>2019-01-19T09:14:04.000Z</time>
      </trkpt>
      <trkpt lat="45.60012" lon="6.66255">
        <ele>1682.5999755859</ele>
        <time>2019-01-19T09:14:06.000Z</time>
      </trkpt>
      <trkpt lat="45.60012" lon="6.66253">
        <ele>1682.5999755859</ele>
        <time>2019-01-19T09:14:08.000Z</time>
      </trkpt>
      <trkpt lat="45.60012" lon="6.6625">
        <ele>1682.8000488281</ele>
        <time>2019-01-19T09:14:11.000Z</time>
      </trkpt>
      <trkpt lat="45.60013" lon="6.6625">
        <ele>1683</ele>
        <time>2019-01-19T09:14:13.000Z</time>
      </trkpt>
      <trkpt lat="45.60014" lon="6.66244">
        <ele>1683.1999511719</ele>
        <time>2019-01-19T09:14:17.000Z</time>
      </trkpt>
      <trkpt lat="45.60016" lon="6.66241">
        <ele>1684</ele>
        <time>2019-01-19T09:14:22.000Z</time>
      </trkpt>
      <trkpt lat="45.60017" lon="6.66241">
        <ele>1684.4000244141</ele>
        <time>2019-01-19T09:14:23.000Z</time>
      </trkpt>
      <trkpt lat="45.60017" lon="6.66241">
        <ele>1684.4000244141</ele>
        <time>2019-01-19T09:14:26.000Z</time>
      </trkpt>
      <trkpt lat="45.60018" lon="6.66243">
        <ele>1685</ele>
        <time>2019-01-19T09:14:28.000Z</time>
      </trkpt>
      <trkpt lat="45.60019" lon="6.66244">
        <ele>1685.5999755859</ele>
        <time>2019-01-19T09:14:30.000Z</time>
      </trkpt>
      <trkpt lat="45.60023" lon="6.66246">
        <ele>1687</ele>
        <time>2019-01-19T09:14:33.000Z</time>
      </trkpt>
      <trkpt lat="45.60026" lon="6.66247">
        <ele>1688.1999511719</ele>
        <time>2019-01-19T09:14:35.000Z</time>
      </trkpt>
      <trkpt lat="45.60026" lon="6.66248">
        <ele>1688.4000244141</ele>
        <time>2019-01-19T09:14:36.000Z</time>
      </trkpt>
      <trkpt lat="45.60028" lon="6.66248">
        <ele>1689.4000244141</ele>
        <time>2019-01-19T09:14:38.000Z</time>
      </trkpt>
      <trkpt lat="45.60031" lon="6.66247">
        <ele>1690.4000244141</ele>
        <time>2019-01-19T09:14:41.000Z</time>
      </trkpt>
      <trkpt lat="45.60033" lon="6.66245">
        <ele>1691.4000244141</ele>
        <time>2019-01-19T09:14:44.000Z</time>
      </trkpt>
      <trkpt lat="45.60034" lon="6.66244">
        <ele>1691.8000488281</ele>
        <time>2019-01-19T09:14:46.000Z</time>
      </trkpt>
      <trkpt lat="45.60034" lon="6.66244">
        <ele>1691.8000488281</ele>
        <time>2019-01-19T09:14:51.000Z</time>
      </trkpt>
      <trkpt lat="45.60034" lon="6.66244">
        <ele>1691.8000488281</ele>
        <time>2019-01-19T09:14:53.000Z</time>
      </trkpt>
      <trkpt lat="45.60034" lon="6.66244">
        <ele>1691.8000488281</ele>
        <time>2019-01-19T09:15:01.000Z</time>
      </trkpt>
      <trkpt lat="45.60034" lon="6.66244">
        <ele>1691.8000488281</ele>
        <time>2019-01-19T09:15:09.000Z</time>
      </trkpt>
      <trkpt lat="45.60034" lon="6.66245">
        <ele>1691.8000488281</ele>
        <time>2019-01-19T09:15:27.000Z</time>
      </trkpt>
      <trkpt lat="45.60034" lon="6.66245">
        <ele>1691.8000488281</ele>
        <time>2019-01-19T09:15:40.000Z</time>
      </trkpt>
      <trkpt lat="45.60034" lon="6.66245">
        <ele>1691.8000488281</ele>
        <time>2019-01-19T09:15:42.000Z</time>
      </trkpt>
      <trkpt lat="45.60034" lon="6.66245">
        <ele>1691.8000488281</ele>
        <time>2019-01-19T09:15:47.000Z</time>
      </trkpt>
      <trkpt lat="45.60034" lon="6.66245">
        <ele>1691.8000488281</ele>
        <time>2019-01-19T09:15:55.000Z</time>
      </trkpt>
      <trkpt lat="45.60034" lon="6.66241">
        <ele>1691.5999755859</ele>
        <time>2019-01-19T09:16:04.000Z</time>
      </trkpt>
      <trkpt lat="45.60034" lon="6.66241">
        <ele>1691.5999755859</ele>
        <time>2019-01-19T09:16:09.000Z</time>
      </trkpt>
      <trkpt lat="45.60034" lon="6.66236">
        <ele>1691.5999755859</ele>
        <time>2019-01-19T09:16:17.000Z</time>
      </trkpt>
      <trkpt lat="45.60035" lon="6.66228">
        <ele>1693.5999755859</ele>
        <time>2019-01-19T09:16:22.000Z</time>
      </trkpt>
      <trkpt lat="45.60035" lon="6.66224">
        <ele>1694.4000244141</ele>
        <time>2019-01-19T09:16:25.000Z</time>
      </trkpt>
      <trkpt lat="45.60036" lon="6.6622">
        <ele>1695.5999755859</ele>
        <time>2019-01-19T09:16:27.000Z</time>
      </trkpt>
      <trkpt lat="45.60036" lon="6.66219">
        <ele>1695.8000488281</ele>
        <time>2019-01-19T09:16:28.000Z</time>
      </trkpt>
      <trkpt lat="45.60037" lon="6.66213">
        <ele>1696</ele>
        <time>2019-01-19T09:16:32.000Z</time>
      </trkpt>
      <trkpt lat="45.60038" lon="6.66209">
        <ele>1696.4000244141</ele>
        <time>2019-01-19T09:16:36.000Z</time>
      </trkpt>
      <trkpt lat="45.60038" lon="6.66207">
        <ele>1696.4000244141</ele>
        <time>2019-01-19T09:16:38.000Z</time>
      </trkpt>
      <trkpt lat="45.60038" lon="6.66204">
        <ele>1696.5999755859</ele>
        <time>2019-01-19T09:16:39.000Z</time>
      </trkpt>
      <trkpt lat="45.60039" lon="6.66203">
        <ele>1696.8000488281</ele>
        <time>2019-01-19T09:16:41.000Z</time>
      </trkpt>
      <trkpt lat="45.60039" lon="6.662">
        <ele>1696.8000488281</ele>
        <time>2019-01-19T09:16:42.000Z</time>
      </trkpt>
      <trkpt lat="45.6004" lon="6.66198">
        <ele>1697</ele>
        <time>2019-01-19T09:16:45.000Z</time>
      </trkpt>
      <trkpt lat="45.6004" lon="6.66195">
        <ele>1697</ele>
        <time>2019-01-19T09:16:47.000Z</time>
      </trkpt>
      <trkpt lat="45.6004" lon="6.66189">
        <ele>1697.4000244141</ele>
        <time>2019-01-19T09:16:53.000Z</time>
      </trkpt>
      <trkpt lat="45.60041" lon="6.66185">
        <ele>1697.5999755859</ele>
        <time>2019-01-19T09:16:56.000Z</time>
      </trkpt>
      <trkpt lat="45.60041" lon="6.66183">
        <ele>1697.8000488281</ele>
        <time>2019-01-19T09:16:59.000Z</time>
      </trkpt>
      <trkpt lat="45.60042" lon="6.66181">
        <ele>1698</ele>
        <time>2019-01-19T09:17:01.000Z</time>
      </trkpt>
      <trkpt lat="45.60044" lon="6.6618">
        <ele>1698.4000244141</ele>
        <time>2019-01-19T09:17:02.000Z</time>
      </trkpt>
      <trkpt lat="45.60045" lon="6.6618">
        <ele>1698.8000488281</ele>
        <time>2019-01-19T09:17:04.000Z</time>
      </trkpt>
      <trkpt lat="45.60047" lon="6.6618">
        <ele>1699.1999511719</ele>
        <time>2019-01-19T09:17:07.000Z</time>
      </trkpt>
      <trkpt lat="45.60049" lon="6.66179">
        <ele>1699.5999755859</ele>
        <time>2019-01-19T09:17:10.000Z</time>
      </trkpt>
      <trkpt lat="45.60051" lon="6.66182">
        <ele>1700.1999511719</ele>
        <time>2019-01-19T09:17:16.000Z</time>
      </trkpt>
      <trkpt lat="45.60053" lon="6.66184">
        <ele>1701</ele>
        <time>2019-01-19T09:17:18.000Z</time>
      </trkpt>
      <trkpt lat="45.60055" lon="6.66187">
        <ele>1702.4000244141</ele>
        <time>2019-01-19T09:17:21.000Z</time>
      </trkpt>
      <trkpt lat="45.60057" lon="6.66189">
        <ele>1703.8000488281</ele>
        <time>2019-01-19T09:17:25.000Z</time>
      </trkpt>
      <trkpt lat="45.60059" lon="6.6619">
        <ele>1704.8000488281</ele>
        <time>2019-01-19T09:17:26.000Z</time>
      </trkpt>
      <trkpt lat="45.60063" lon="6.66194">
        <ele>1707.5999755859</ele>
        <time>2019-01-19T09:17:30.000Z</time>
      </trkpt>
      <trkpt lat="45.60064" lon="6.66194">
        <ele>1708.1999511719</ele>
        <time>2019-01-19T09:17:31.000Z</time>
      </trkpt>
      <trkpt lat="45.60065" lon="6.66197">
        <ele>1709</ele>
        <time>2019-01-19T09:17:35.000Z</time>
      </trkpt>
      <trkpt lat="45.60065" lon="6.66197">
        <ele>1709</ele>
        <time>2019-01-19T09:17:36.000Z</time>
      </trkpt>
      <trkpt lat="45.60069" lon="6.662">
        <ele>1711.5999755859</ele>
        <time>2019-01-19T09:17:40.000Z</time>
      </trkpt>
      <trkpt lat="45.60069" lon="6.66201">
        <ele>1711.4000244141</ele>
        <time>2019-01-19T09:17:41.000Z</time>
      </trkpt>
      <trkpt lat="45.60072" lon="6.66205">
        <ele>1713.4000244141</ele>
        <time>2019-01-19T09:17:46.000Z</time>
      </trkpt>
      <trkpt lat="45.60076" lon="6.66209">
        <ele>1716.4000244141</ele>
        <time>2019-01-19T09:17:51.000Z</time>
      </trkpt>
      <trkpt lat="45.60076" lon="6.66209">
        <ele>1716.4000244141</ele>
        <time>2019-01-19T09:17:52.000Z</time>
      </trkpt>
      <trkpt lat="45.60078" lon="6.66206">
        <ele>1717.8000488281</ele>
        <time>2019-01-19T09:17:56.000Z</time>
      </trkpt>
      <trkpt lat="45.60079" lon="6.662">
        <ele>1718.8000488281</ele>
        <time>2019-01-19T09:18:00.000Z</time>
      </trkpt>
      <trkpt lat="45.6008" lon="6.66199">
        <ele>1719</ele>
        <time>2019-01-19T09:18:01.000Z</time>
      </trkpt>
      <trkpt lat="45.6008" lon="6.66198">
        <ele>1719</ele>
        <time>2019-01-19T09:18:02.000Z</time>
      </trkpt>
      <trkpt lat="45.6008" lon="6.66196">
        <ele>1719.1999511719</ele>
        <time>2019-01-19T09:18:04.000Z</time>
      </trkpt>
      <trkpt lat="45.6008" lon="6.66191">
        <ele>1719.5999755859</ele>
        <time>2019-01-19T09:18:07.000Z</time>
      </trkpt>
      <trkpt lat="45.6008" lon="6.66187">
        <ele>1719.5999755859</ele>
        <time>2019-01-19T09:18:10.000Z</time>
      </trkpt>
      <trkpt lat="45.60081" lon="6.66185">
        <ele>1720</ele>
        <time>2019-01-19T09:18:12.000Z</time>
      </trkpt>
      <trkpt lat="45.60081" lon="6.66182">
        <ele>1720</ele>
        <time>2019-01-19T09:18:14.000Z</time>
      </trkpt>
      <trkpt lat="45.60081" lon="6.66179">
        <ele>1720.1999511719</ele>
        <time>2019-01-19T09:18:16.000Z</time>
      </trkpt>
      <trkpt lat="45.60081" lon="6.66179">
        <ele>1720.4000244141</ele>
        <time>2019-01-19T09:18:17.000Z</time>
      </trkpt>
      <trkpt lat="45.60082" lon="6.66174">
        <ele>1721.5999755859</ele>
        <time>2019-01-19T09:18:22.000Z</time>
      </trkpt>
      <trkpt lat="45.60083" lon="6.6617">
        <ele>1722.8000488281</ele>
        <time>2019-01-19T09:18:27.000Z</time>
      </trkpt>
      <trkpt lat="45.60085" lon="6.66168">
        <ele>1723.8000488281</ele>
        <time>2019-01-19T09:18:28.000Z</time>
      </trkpt>
      <trkpt lat="45.60085" lon="6.66167">
        <ele>1724.4000244141</ele>
        <time>2019-01-19T09:18:31.000Z</time>
      </trkpt>
      <trkpt lat="45.60085" lon="6.66166">
        <ele>1724.5999755859</ele>
        <time>2019-01-19T09:18:32.000Z</time>
      </trkpt>
      <trkpt lat="45.60087" lon="6.66162">
        <ele>1726.1999511719</ele>
        <time>2019-01-19T09:18:37.000Z</time>
      </trkpt>
      <trkpt lat="45.60087" lon="6.66162">
        <ele>1726.1999511719</ele>
        <time>2019-01-19T09:18:40.000Z</time>
      </trkpt>
      <trkpt lat="45.60087" lon="6.66162">
        <ele>1726.1999511719</ele>
        <time>2019-01-19T09:18:50.000Z</time>
      </trkpt>
      <trkpt lat="45.60087" lon="6.66161">
        <ele>1726.4000244141</ele>
        <time>2019-01-19T09:18:56.000Z</time>
      </trkpt>
      <trkpt lat="45.60088" lon="6.66158">
        <ele>1726.8000488281</ele>
        <time>2019-01-19T09:19:00.000Z</time>
      </trkpt>
      <trkpt lat="45.60089" lon="6.66154">
        <ele>1728.1999511719</ele>
        <time>2019-01-19T09:19:05.000Z</time>
      </trkpt>
      <trkpt lat="45.60089" lon="6.66154">
        <ele>1728.1999511719</ele>
        <time>2019-01-19T09:19:06.000Z</time>
      </trkpt>
      <trkpt lat="45.60089" lon="6.66154">
        <ele>1728.1999511719</ele>
        <time>2019-01-19T09:19:10.000Z</time>
      </trkpt>
      <trkpt lat="45.60089" lon="6.66154">
        <ele>1728.1999511719</ele>
        <time>2019-01-19T09:19:15.000Z</time>
      </trkpt>
      <trkpt lat="45.60089" lon="6.6615">
        <ele>1729.1999511719</ele>
        <time>2019-01-19T09:19:22.000Z</time>
      </trkpt>
      <trkpt lat="45.60089" lon="6.6615">
        <ele>1729</ele>
        <time>2019-01-19T09:19:23.000Z</time>
      </trkpt>
      <trkpt lat="45.60089" lon="6.66148">
        <ele>1729.5999755859</ele>
        <time>2019-01-19T09:19:26.000Z</time>
      </trkpt>
      <trkpt lat="45.60089" lon="6.66144">
        <ele>1730</ele>
        <time>2019-01-19T09:19:28.000Z</time>
      </trkpt>
      <trkpt lat="45.60089" lon="6.66142">
        <ele>1730.4000244141</ele>
        <time>2019-01-19T09:19:30.000Z</time>
      </trkpt>
      <trkpt lat="45.60089" lon="6.66138">
        <ele>1731</ele>
        <time>2019-01-19T09:19:33.000Z</time>
      </trkpt>
      <trkpt lat="45.60089" lon="6.66132">
        <ele>1732.1999511719</ele>
        <time>2019-01-19T09:19:36.000Z</time>
      </trkpt>
      <trkpt lat="45.60088" lon="6.66131">
        <ele>1731.5999755859</ele>
        <time>2019-01-19T09:19:37.000Z</time>
      </trkpt>
      <trkpt lat="45.60088" lon="6.66131">
        <ele>1731.5999755859</ele>
        <time>2019-01-19T09:19:38.000Z</time>
      </trkpt>
      <trkpt lat="45.60087" lon="6.66128">
        <ele>1731.8000488281</ele>
        <time>2019-01-19T09:19:40.000Z</time>
      </trkpt>
      <trkpt lat="45.60087" lon="6.66125">
        <ele>1732</ele>
        <time>2019-01-19T09:19:43.000Z</time>
      </trkpt>
      <trkpt lat="45.60087" lon="6.6612">
        <ele>1733</ele>
        <time>2019-01-19T09:19:45.000Z</time>
      </trkpt>
      <trkpt lat="45.60087" lon="6.6612">
        <ele>1733</ele>
        <time>2019-01-19T09:19:46.000Z</time>
      </trkpt>
      <trkpt lat="45.60087" lon="6.66118">
        <ele>1733.5999755859</ele>
        <time>2019-01-19T09:19:47.000Z</time>
      </trkpt>
      <trkpt lat="45.60088" lon="6.66111">
        <ele>1735.1999511719</ele>
        <time>2019-01-19T09:19:51.000Z</time>
      </trkpt>
      <trkpt lat="45.60088" lon="6.66109">
        <ele>1736</ele>
        <time>2019-01-19T09:19:54.000Z</time>
      </trkpt>
      <trkpt lat="45.60089" lon="6.66106">
        <ele>1736.8000488281</ele>
        <time>2019-01-19T09:19:56.000Z</time>
      </trkpt>
      <trkpt lat="45.60089" lon="6.661">
        <ele>1737.5999755859</ele>
        <time>2019-01-19T09:20:00.000Z</time>
      </trkpt>
      <trkpt lat="45.6009" lon="6.66098">
        <ele>1738</ele>
        <time>2019-01-19T09:20:01.000Z</time>
      </trkpt>
      <trkpt lat="45.6009" lon="6.66089">
        <ele>1739</ele>
        <time>2019-01-19T09:20:06.000Z</time>
      </trkpt>
      <trkpt lat="45.60091" lon="6.66088">
        <ele>1739.4000244141</ele>
        <time>2019-01-19T09:20:07.000Z</time>
      </trkpt>
      <trkpt lat="45.60091" lon="6.66084">
        <ele>1739.5999755859</ele>
        <time>2019-01-19T09:20:11.000Z</time>
      </trkpt>
      <trkpt lat="45.60091" lon="6.66084">
        <ele>1739.8000488281</ele>
        <time>2019-01-19T09:20:12.000Z</time>
      </trkpt>
      <trkpt lat="45.6009" lon="6.66079">
        <ele>1739.5999755859</ele>
        <time>2019-01-19T09:20:15.000Z</time>
      </trkpt>
      <trkpt lat="45.60089" lon="6.66078">
        <ele>1739.4000244141</ele>
        <time>2019-01-19T09:20:17.000Z</time>
      </trkpt>
      <trkpt lat="45.60089" lon="6.66076">
        <ele>1739.4000244141</ele>
        <time>2019-01-19T09:20:19.000Z</time>
      </trkpt>
      <trkpt lat="45.60089" lon="6.66076">
        <ele>1739.4000244141</ele>
        <time>2019-01-19T09:20:20.000Z</time>
      </trkpt>
      <trkpt lat="45.6009" lon="6.66075">
        <ele>1739.8000488281</ele>
        <time>2019-01-19T09:20:22.000Z</time>
      </trkpt>
      <trkpt lat="45.60089" lon="6.66068">
        <ele>1740.4000244141</ele>
        <time>2019-01-19T09:20:27.000Z</time>
      </trkpt>
      <trkpt lat="45.6009" lon="6.66066">
        <ele>1741.1999511719</ele>
        <time>2019-01-19T09:20:28.000Z</time>
      </trkpt>
      <trkpt lat="45.60091" lon="6.66061">
        <ele>1742.4000244141</ele>
        <time>2019-01-19T09:20:32.000Z</time>
      </trkpt>
      <trkpt lat="45.60092" lon="6.66058">
        <ele>1743.8000488281</ele>
        <time>2019-01-19T09:20:35.000Z</time>
      </trkpt>
      <trkpt lat="45.60092" lon="6.66053">
        <ele>1745</ele>
        <time>2019-01-19T09:20:38.000Z</time>
      </trkpt>
      <trkpt lat="45.60092" lon="6.66052">
        <ele>1745.4000244141</ele>
        <time>2019-01-19T09:20:39.000Z</time>
      </trkpt>
      <trkpt lat="45.60093" lon="6.66049">
        <ele>1746.4000244141</ele>
        <time>2019-01-19T09:20:41.000Z</time>
      </trkpt>
      <trkpt lat="45.60093" lon="6.66049">
        <ele>1746.5999755859</ele>
        <time>2019-01-19T09:20:43.000Z</time>
      </trkpt>
      <trkpt lat="45.60095" lon="6.66047">
        <ele>1748</ele>
        <time>2019-01-19T09:20:46.000Z</time>
      </trkpt>
      <trkpt lat="45.60096" lon="6.66048">
        <ele>1748.8000488281</ele>
        <time>2019-01-19T09:20:49.000Z</time>
      </trkpt>
      <trkpt lat="45.60099" lon="6.66048">
        <ele>1750.1999511719</ele>
        <time>2019-01-19T09:20:51.000Z</time>
      </trkpt>
      <trkpt lat="45.60101" lon="6.66047">
        <ele>1751.5999755859</ele>
        <time>2019-01-19T09:20:54.000Z</time>
      </trkpt>
      <trkpt lat="45.60098" lon="6.66042">
        <ele>1751</ele>
        <time>2019-01-19T09:20:59.000Z</time>
      </trkpt>
      <trkpt lat="45.60098" lon="6.66042">
        <ele>1750.8000488281</ele>
        <time>2019-01-19T09:21:00.000Z</time>
      </trkpt>
      <trkpt lat="45.60096" lon="6.6604">
        <ele>1750.4000244141</ele>
        <time>2019-01-19T09:21:03.000Z</time>
      </trkpt>
      <trkpt lat="45.60095" lon="6.66037">
        <ele>1750</ele>
        <time>2019-01-19T09:21:06.000Z</time>
      </trkpt>
      <trkpt lat="45.60094" lon="6.66034">
        <ele>1749.8000488281</ele>
        <time>2019-01-19T09:21:08.000Z</time>
      </trkpt>
      <trkpt lat="45.60091" lon="6.66029">
        <ele>1749.1999511719</ele>
        <time>2019-01-19T09:21:13.000Z</time>
      </trkpt>
      <trkpt lat="45.60091" lon="6.66029">
        <ele>1749.1999511719</ele>
        <time>2019-01-19T09:21:14.000Z</time>
      </trkpt>
      <trkpt lat="45.60091" lon="6.66026">
        <ele>1749.5999755859</ele>
        <time>2019-01-19T09:21:17.000Z</time>
      </trkpt>
      <trkpt lat="45.60091" lon="6.66023">
        <ele>1750</ele>
        <time>2019-01-19T09:21:19.000Z</time>
      </trkpt>
      <trkpt lat="45.60089" lon="6.66017">
        <ele>1749.8000488281</ele>
        <time>2019-01-19T09:21:22.000Z</time>
      </trkpt>
      <trkpt lat="45.60088" lon="6.66014">
        <ele>1749.5999755859</ele>
        <time>2019-01-19T09:21:23.000Z</time>
      </trkpt>
      <trkpt lat="45.60088" lon="6.66008">
        <ele>1750</ele>
        <time>2019-01-19T09:21:27.000Z</time>
      </trkpt>
      <trkpt lat="45.60087" lon="6.66">
        <ele>1750.4000244141</ele>
        <time>2019-01-19T09:21:34.000Z</time>
      </trkpt>
      <trkpt lat="45.60086" lon="6.65994">
        <ele>1750.8000488281</ele>
        <time>2019-01-19T09:21:39.000Z</time>
      </trkpt>
      <trkpt lat="45.60086" lon="6.65991">
        <ele>1751</ele>
        <time>2019-01-19T09:21:40.000Z</time>
      </trkpt>
      <trkpt lat="45.60086" lon="6.65987">
        <ele>1751.8000488281</ele>
        <time>2019-01-19T09:21:45.000Z</time>
      </trkpt>
      <trkpt lat="45.60086" lon="6.65986">
        <ele>1751.8000488281</ele>
        <time>2019-01-19T09:21:46.000Z</time>
      </trkpt>
      <trkpt lat="45.60087" lon="6.65984">
        <ele>1752.4000244141</ele>
        <time>2019-01-19T09:21:49.000Z</time>
      </trkpt>
      <trkpt lat="45.60088" lon="6.65982">
        <ele>1753</ele>
        <time>2019-01-19T09:21:52.000Z</time>
      </trkpt>
      <trkpt lat="45.60086" lon="6.65976">
        <ele>1753</ele>
        <time>2019-01-19T09:21:58.000Z</time>
      </trkpt>
      <trkpt lat="45.60085" lon="6.65971">
        <ele>1753.1999511719</ele>
        <time>2019-01-19T09:22:03.000Z</time>
      </trkpt>
      <trkpt lat="45.60082" lon="6.65967">
        <ele>1752.1999511719</ele>
        <time>2019-01-19T09:22:08.000Z</time>
      </trkpt>
      <trkpt lat="45.60078" lon="6.65957">
        <ele>1751.5999755859</ele>
        <time>2019-01-19T09:22:14.000Z</time>
      </trkpt>
      <trkpt lat="45.60077" lon="6.65954">
        <ele>1751.4000244141</ele>
        <time>2019-01-19T09:22:17.000Z</time>
      </trkpt>
      <trkpt lat="45.60076" lon="6.65949">
        <ele>1752</ele>
        <time>2019-01-19T09:22:20.000Z</time>
      </trkpt>
      <trkpt lat="45.60078" lon="6.65946">
        <ele>1753.1999511719</ele>
        <time>2019-01-19T09:22:26.000Z</time>
      </trkpt>
      <trkpt lat="45.60078" lon="6.65946">
        <ele>1753.1999511719</ele>
        <time>2019-01-19T09:22:28.000Z</time>
      </trkpt>
      <trkpt lat="45.60078" lon="6.65944">
        <ele>1753.5999755859</ele>
        <time>2019-01-19T09:22:30.000Z</time>
      </trkpt>
      <trkpt lat="45.60078" lon="6.65941">
        <ele>1753.8000488281</ele>
        <time>2019-01-19T09:22:33.000Z</time>
      </trkpt>
      <trkpt lat="45.60077" lon="6.65939">
        <ele>1753.8000488281</ele>
        <time>2019-01-19T09:22:34.000Z</time>
      </trkpt>
      <trkpt lat="45.60077" lon="6.65936">
        <ele>1754.1999511719</ele>
        <time>2019-01-19T09:22:38.000Z</time>
      </trkpt>
      <trkpt lat="45.60078" lon="6.65932">
        <ele>1755.4000244141</ele>
        <time>2019-01-19T09:22:39.000Z</time>
      </trkpt>
      <trkpt lat="45.60079" lon="6.65932">
        <ele>1755.5999755859</ele>
        <time>2019-01-19T09:22:40.000Z</time>
      </trkpt>
      <trkpt lat="45.6008" lon="6.65928">
        <ele>1756.8000488281</ele>
        <time>2019-01-19T09:22:42.000Z</time>
      </trkpt>
      <trkpt lat="45.60081" lon="6.65925">
        <ele>1757.1999511719</ele>
        <time>2019-01-19T09:22:44.000Z</time>
      </trkpt>
      <trkpt lat="45.60082" lon="6.65924">
        <ele>1757.8000488281</ele>
        <time>2019-01-19T09:22:45.000Z</time>
      </trkpt>
      <trkpt lat="45.60082" lon="6.65922">
        <ele>1757.8000488281</ele>
        <time>2019-01-19T09:22:47.000Z</time>
      </trkpt>
      <trkpt lat="45.60083" lon="6.65917">
        <ele>1758.1999511719</ele>
        <time>2019-01-19T09:22:50.000Z</time>
      </trkpt>
      <trkpt lat="45.60083" lon="6.65915">
        <ele>1758.1999511719</ele>
        <time>2019-01-19T09:22:52.000Z</time>
      </trkpt>
      <trkpt lat="45.60084" lon="6.65909">
        <ele>1759</ele>
        <time>2019-01-19T09:22:57.000Z</time>
      </trkpt>
      <trkpt lat="45.60085" lon="6.65908">
        <ele>1759.4000244141</ele>
        <time>2019-01-19T09:22:58.000Z</time>
      </trkpt>
      <trkpt lat="45.60086" lon="6.65908">
        <ele>1759.5999755859</ele>
        <time>2019-01-19T09:23:00.000Z</time>
      </trkpt>
      <trkpt lat="45.60089" lon="6.65905">
        <ele>1761</ele>
        <time>2019-01-19T09:23:04.000Z</time>
      </trkpt>
      <trkpt lat="45.60093" lon="6.65905">
        <ele>1762.5999755859</ele>
        <time>2019-01-19T09:23:09.000Z</time>
      </trkpt>
      <trkpt lat="45.60095" lon="6.659">
        <ele>1764</ele>
        <time>2019-01-19T09:23:14.000Z</time>
      </trkpt>
      <trkpt lat="45.60095" lon="6.65899">
        <ele>1764.1999511719</ele>
        <time>2019-01-19T09:23:15.000Z</time>
      </trkpt>
      <trkpt lat="45.60095" lon="6.65897">
        <ele>1764.5999755859</ele>
        <time>2019-01-19T09:23:17.000Z</time>
      </trkpt>
      <trkpt lat="45.60095" lon="6.65892">
        <ele>1765.1999511719</ele>
        <time>2019-01-19T09:23:20.000Z</time>
      </trkpt>
      <trkpt lat="45.60095" lon="6.6589">
        <ele>1765.4000244141</ele>
        <time>2019-01-19T09:23:21.000Z</time>
      </trkpt>
      <trkpt lat="45.60093" lon="6.65882">
        <ele>1766</ele>
        <time>2019-01-19T09:23:27.000Z</time>
      </trkpt>
      <trkpt lat="45.60093" lon="6.6588">
        <ele>1766</ele>
        <time>2019-01-19T09:23:28.000Z</time>
      </trkpt>
      <trkpt lat="45.60091" lon="6.65875">
        <ele>1766.1999511719</ele>
        <time>2019-01-19T09:23:32.000Z</time>
      </trkpt>
      <trkpt lat="45.60091" lon="6.65873">
        <ele>1766.4000244141</ele>
        <time>2019-01-19T09:23:33.000Z</time>
      </trkpt>
      <trkpt lat="45.60091" lon="6.65866">
        <ele>1767.1999511719</ele>
        <time>2019-01-19T09:23:39.000Z</time>
      </trkpt>
      <trkpt lat="45.60091" lon="6.65863">
        <ele>1767.5999755859</ele>
        <time>2019-01-19T09:23:41.000Z</time>
      </trkpt>
      <trkpt lat="45.60091" lon="6.6586">
        <ele>1768.4000244141</ele>
        <time>2019-01-19T09:23:44.000Z</time>
      </trkpt>
      <trkpt lat="45.60092" lon="6.6586">
        <ele>1768.4000244141</ele>
        <time>2019-01-19T09:23:45.000Z</time>
      </trkpt>
      <trkpt lat="45.60093" lon="6.65851">
        <ele>1769.4000244141</ele>
        <time>2019-01-19T09:23:51.000Z</time>
      </trkpt>
      <trkpt lat="45.60093" lon="6.6585">
        <ele>1769.5999755859</ele>
        <time>2019-01-19T09:23:52.000Z</time>
      </trkpt>
      <trkpt lat="45.60093" lon="6.65849">
        <ele>1769.5999755859</ele>
        <time>2019-01-19T09:23:58.000Z</time>
      </trkpt>
      <trkpt lat="45.60094" lon="6.65842">
        <ele>1770.1999511719</ele>
        <time>2019-01-19T09:24:04.000Z</time>
      </trkpt>
      <trkpt lat="45.60093" lon="6.65836">
        <ele>1770.4000244141</ele>
        <time>2019-01-19T09:24:08.000Z</time>
      </trkpt>
      <trkpt lat="45.60093" lon="6.65835">
        <ele>1770.5999755859</ele>
        <time>2019-01-19T09:24:09.000Z</time>
      </trkpt>
      <trkpt lat="45.60093" lon="6.65826">
        <ele>1771</ele>
        <time>2019-01-19T09:24:15.000Z</time>
      </trkpt>
      <trkpt lat="45.60095" lon="6.65817">
        <ele>1772.1999511719</ele>
        <time>2019-01-19T09:24:21.000Z</time>
      </trkpt>
      <trkpt lat="45.60095" lon="6.65814">
        <ele>1772.8000488281</ele>
        <time>2019-01-19T09:24:23.000Z</time>
      </trkpt>
      <trkpt lat="45.60094" lon="6.65812">
        <ele>1772.8000488281</ele>
        <time>2019-01-19T09:24:26.000Z</time>
      </trkpt>
      <trkpt lat="45.60094" lon="6.65811">
        <ele>1772.8000488281</ele>
        <time>2019-01-19T09:24:28.000Z</time>
      </trkpt>
      <trkpt lat="45.60093" lon="6.65809">
        <ele>1772.8000488281</ele>
        <time>2019-01-19T09:24:30.000Z</time>
      </trkpt>
      <trkpt lat="45.60093" lon="6.65806">
        <ele>1773</ele>
        <time>2019-01-19T09:24:32.000Z</time>
      </trkpt>
      <trkpt lat="45.60092" lon="6.65805">
        <ele>1773</ele>
        <time>2019-01-19T09:24:33.000Z</time>
      </trkpt>
      <trkpt lat="45.60093" lon="6.65798">
        <ele>1774.1999511719</ele>
        <time>2019-01-19T09:24:39.000Z</time>
      </trkpt>
      <trkpt lat="45.60093" lon="6.65789">
        <ele>1775.4000244141</ele>
        <time>2019-01-19T09:24:45.000Z</time>
      </trkpt>
      <trkpt lat="45.60093" lon="6.65788">
        <ele>1775.5999755859</ele>
        <time>2019-01-19T09:24:46.000Z</time>
      </trkpt>
      <trkpt lat="45.60095" lon="6.65782">
        <ele>1776.8000488281</ele>
        <time>2019-01-19T09:24:49.000Z</time>
      </trkpt>
      <trkpt lat="45.60095" lon="6.65778">
        <ele>1777.4000244141</ele>
        <time>2019-01-19T09:24:51.000Z</time>
      </trkpt>
      <trkpt lat="45.60097" lon="6.65771">
        <ele>1778.5999755859</ele>
        <time>2019-01-19T09:24:56.000Z</time>
      </trkpt>
      <trkpt lat="45.60098" lon="6.65767">
        <ele>1779.1999511719</ele>
        <time>2019-01-19T09:24:59.000Z</time>
      </trkpt>
      <trkpt lat="45.60099" lon="6.65765">
        <ele>1779.4000244141</ele>
        <time>2019-01-19T09:25:01.000Z</time>
      </trkpt>
      <trkpt lat="45.60098" lon="6.65758">
        <ele>1780</ele>
        <time>2019-01-19T09:25:06.000Z</time>
      </trkpt>
      <trkpt lat="45.60098" lon="6.65756">
        <ele>1780.1999511719</ele>
        <time>2019-01-19T09:25:07.000Z</time>
      </trkpt>
      <trkpt lat="45.60097" lon="6.6575">
        <ele>1780.4000244141</ele>
        <time>2019-01-19T09:25:12.000Z</time>
      </trkpt>
      <trkpt lat="45.60099" lon="6.65746">
        <ele>1781.4000244141</ele>
        <time>2019-01-19T09:25:17.000Z</time>
      </trkpt>
      <trkpt lat="45.601" lon="6.65745">
        <ele>1781.5999755859</ele>
        <time>2019-01-19T09:25:18.000Z</time>
      </trkpt>
      <trkpt lat="45.60104" lon="6.65748">
        <ele>1782.4000244141</ele>
        <time>2019-01-19T09:25:24.000Z</time>
      </trkpt>
      <trkpt lat="45.60105" lon="6.6575">
        <ele>1782.5999755859</ele>
        <time>2019-01-19T09:25:25.000Z</time>
      </trkpt>
      <trkpt lat="45.60107" lon="6.65757">
        <ele>1782.5999755859</ele>
        <time>2019-01-19T09:25:30.000Z</time>
      </trkpt>
      <trkpt lat="45.60108" lon="6.65758">
        <ele>1782.5999755859</ele>
        <time>2019-01-19T09:25:31.000Z</time>
      </trkpt>
      <trkpt lat="45.60111" lon="6.65763">
        <ele>1783.1999511719</ele>
        <time>2019-01-19T09:25:36.000Z</time>
      </trkpt>
      <trkpt lat="45.60112" lon="6.65764">
        <ele>1783.4000244141</ele>
        <time>2019-01-19T09:25:38.000Z</time>
      </trkpt>
      <trkpt lat="45.60114" lon="6.65766">
        <ele>1783.5999755859</ele>
        <time>2019-01-19T09:25:41.000Z</time>
      </trkpt>
      <trkpt lat="45.60114" lon="6.65766">
        <ele>1783.5999755859</ele>
        <time>2019-01-19T09:25:44.000Z</time>
      </trkpt>
      <trkpt lat="45.60117" lon="6.65768">
        <ele>1784.1999511719</ele>
        <time>2019-01-19T09:25:51.000Z</time>
      </trkpt>
      <trkpt lat="45.60118" lon="6.6577">
        <ele>1784.4000244141</ele>
        <time>2019-01-19T09:25:53.000Z</time>
      </trkpt>
      <trkpt lat="45.60119" lon="6.65771">
        <ele>1784.5999755859</ele>
        <time>2019-01-19T09:25:59.000Z</time>
      </trkpt>
      <trkpt lat="45.60119" lon="6.65771">
        <ele>1784.5999755859</ele>
        <time>2019-01-19T09:26:00.000Z</time>
      </trkpt>
      <trkpt lat="45.6012" lon="6.65772">
        <ele>1785</ele>
        <time>2019-01-19T09:26:12.000Z</time>
      </trkpt>
      <trkpt lat="45.60125" lon="6.65766">
        <ele>1786.5999755859</ele>
        <time>2019-01-19T09:26:17.000Z</time>
      </trkpt>
      <trkpt lat="45.60125" lon="6.65766">
        <ele>1786.8000488281</ele>
        <time>2019-01-19T09:26:18.000Z</time>
      </trkpt>
      <trkpt lat="45.60126" lon="6.65764">
        <ele>1787.1999511719</ele>
        <time>2019-01-19T09:26:19.000Z</time>
      </trkpt>
      <trkpt lat="45.60128" lon="6.65762">
        <ele>1787.8000488281</ele>
        <time>2019-01-19T09:26:21.000Z</time>
      </trkpt>
      <trkpt lat="45.6013" lon="6.6576">
        <ele>1788.4000244141</ele>
        <time>2019-01-19T09:26:23.000Z</time>
      </trkpt>
      <trkpt lat="45.60133" lon="6.65756">
        <ele>1789.5999755859</ele>
        <time>2019-01-19T09:26:29.000Z</time>
      </trkpt>
      <trkpt lat="45.60135" lon="6.65752">
        <ele>1790.5999755859</ele>
        <time>2019-01-19T09:26:34.000Z</time>
      </trkpt>
      <trkpt lat="45.60135" lon="6.6575">
        <ele>1790.8000488281</ele>
        <time>2019-01-19T09:26:36.000Z</time>
      </trkpt>
      <trkpt lat="45.60136" lon="6.65748">
        <ele>1791.4000244141</ele>
        <time>2019-01-19T09:26:40.000Z</time>
      </trkpt>
      <trkpt lat="45.60138" lon="6.65745">
        <ele>1792.5999755859</ele>
        <time>2019-01-19T09:26:43.000Z</time>
      </trkpt>
      <trkpt lat="45.60139" lon="6.65739">
        <ele>1793.5999755859</ele>
        <time>2019-01-19T09:26:48.000Z</time>
      </trkpt>
      <trkpt lat="45.60138" lon="6.65738">
        <ele>1793.4000244141</ele>
        <time>2019-01-19T09:26:49.000Z</time>
      </trkpt>
      <trkpt lat="45.6014" lon="6.65733">
        <ele>1794.1999511719</ele>
        <time>2019-01-19T09:26:53.000Z</time>
      </trkpt>
      <trkpt lat="45.6014" lon="6.65732">
        <ele>1794.8000488281</ele>
        <time>2019-01-19T09:26:55.000Z</time>
      </trkpt>
      <trkpt lat="45.60141" lon="6.6573">
        <ele>1795.1999511719</ele>
        <time>2019-01-19T09:26:58.000Z</time>
      </trkpt>
      <trkpt lat="45.60144" lon="6.65725">
        <ele>1796.5999755859</ele>
        <time>2019-01-19T09:27:03.000Z</time>
      </trkpt>
      <trkpt lat="45.60144" lon="6.65724">
        <ele>1796.8000488281</ele>
        <time>2019-01-19T09:27:05.000Z</time>
      </trkpt>
      <trkpt lat="45.60146" lon="6.65721">
        <ele>1797.8000488281</ele>
        <time>2019-01-19T09:27:08.000Z</time>
      </trkpt>
      <trkpt lat="45.60146" lon="6.6572">
        <ele>1798</ele>
        <time>2019-01-19T09:27:09.000Z</time>
      </trkpt>
      <trkpt lat="45.60147" lon="6.65717">
        <ele>1798.5999755859</ele>
        <time>2019-01-19T09:27:12.000Z</time>
      </trkpt>
      <trkpt lat="45.60148" lon="6.65716">
        <ele>1799</ele>
        <time>2019-01-19T09:27:14.000Z</time>
      </trkpt>
      <trkpt lat="45.60151" lon="6.65711">
        <ele>1800.8000488281</ele>
        <time>2019-01-19T09:27:19.000Z</time>
      </trkpt>
      <trkpt lat="45.60153" lon="6.65707">
        <ele>1801.8000488281</ele>
        <time>2019-01-19T09:27:24.000Z</time>
      </trkpt>
      <trkpt lat="45.60154" lon="6.65705">
        <ele>1802.4000244141</ele>
        <time>2019-01-19T09:27:26.000Z</time>
      </trkpt>
      <trkpt lat="45.60155" lon="6.65703">
        <ele>1803</ele>
        <time>2019-01-19T09:27:29.000Z</time>
      </trkpt>
      <trkpt lat="45.60155" lon="6.65702">
        <ele>1803.4000244141</ele>
        <time>2019-01-19T09:27:30.000Z</time>
      </trkpt>
      <trkpt lat="45.60158" lon="6.65698">
        <ele>1804.8000488281</ele>
        <time>2019-01-19T09:27:35.000Z</time>
      </trkpt>
      <trkpt lat="45.60159" lon="6.65696">
        <ele>1805.4000244141</ele>
        <time>2019-01-19T09:27:37.000Z</time>
      </trkpt>
      <trkpt lat="45.6016" lon="6.65695">
        <ele>1806</ele>
        <time>2019-01-19T09:27:39.000Z</time>
      </trkpt>
      <trkpt lat="45.6016" lon="6.65694">
        <ele>1806</ele>
        <time>2019-01-19T09:27:40.000Z</time>
      </trkpt>
      <trkpt lat="45.60163" lon="6.6569">
        <ele>1807.4000244141</ele>
        <time>2019-01-19T09:27:45.000Z</time>
      </trkpt>
      <trkpt lat="45.60165" lon="6.65687">
        <ele>1808.5999755859</ele>
        <time>2019-01-19T09:27:50.000Z</time>
      </trkpt>
      <trkpt lat="45.60165" lon="6.65687">
        <ele>1808.8000488281</ele>
        <time>2019-01-19T09:27:51.000Z</time>
      </trkpt>
      <trkpt lat="45.60167" lon="6.65684">
        <ele>1810</ele>
        <time>2019-01-19T09:27:55.000Z</time>
      </trkpt>
      <trkpt lat="45.60171" lon="6.65681">
        <ele>1811.5999755859</ele>
        <time>2019-01-19T09:28:00.000Z</time>
      </trkpt>
      <trkpt lat="45.60173" lon="6.65678">
        <ele>1812.5999755859</ele>
        <time>2019-01-19T09:28:05.000Z</time>
      </trkpt>
      <trkpt lat="45.60174" lon="6.65678">
        <ele>1813</ele>
        <time>2019-01-19T09:28:06.000Z</time>
      </trkpt>
      <trkpt lat="45.60174" lon="6.65678">
        <ele>1813</ele>
        <time>2019-01-19T09:28:08.000Z</time>
      </trkpt>
      <trkpt lat="45.60175" lon="6.65677">
        <ele>1813.4000244141</ele>
        <time>2019-01-19T09:28:10.000Z</time>
      </trkpt>
      <trkpt lat="45.60178" lon="6.65673">
        <ele>1815</ele>
        <time>2019-01-19T09:28:15.000Z</time>
      </trkpt>
      <trkpt lat="45.60179" lon="6.65671">
        <ele>1815.5999755859</ele>
        <time>2019-01-19T09:28:18.000Z</time>
      </trkpt>
      <trkpt lat="45.6018" lon="6.65669">
        <ele>1816.1999511719</ele>
        <time>2019-01-19T09:28:21.000Z</time>
      </trkpt>
      <trkpt lat="45.60181" lon="6.65667">
        <ele>1816.5999755859</ele>
        <time>2019-01-19T09:28:24.000Z</time>
      </trkpt>
      <trkpt lat="45.60183" lon="6.65665">
        <ele>1817.4000244141</ele>
        <time>2019-01-19T09:28:27.000Z</time>
      </trkpt>
      <trkpt lat="45.60183" lon="6.65665">
        <ele>1817.4000244141</ele>
        <time>2019-01-19T09:28:28.000Z</time>
      </trkpt>
      <trkpt lat="45.60184" lon="6.65663">
        <ele>1818</ele>
        <time>2019-01-19T09:28:32.000Z</time>
      </trkpt>
      <trkpt lat="45.60187" lon="6.65657">
        <ele>1819.4000244141</ele>
        <time>2019-01-19T09:28:37.000Z</time>
      </trkpt>
      <trkpt lat="45.60187" lon="6.65656">
        <ele>1819.8000488281</ele>
        <time>2019-01-19T09:28:38.000Z</time>
      </trkpt>
      <trkpt lat="45.60189" lon="6.65652">
        <ele>1820.8000488281</ele>
        <time>2019-01-19T09:28:43.000Z</time>
      </trkpt>
      <trkpt lat="45.60191" lon="6.65644">
        <ele>1822.4000244141</ele>
        <time>2019-01-19T09:28:49.000Z</time>
      </trkpt>
      <trkpt lat="45.60192" lon="6.65641">
        <ele>1823.1999511719</ele>
        <time>2019-01-19T09:28:52.000Z</time>
      </trkpt>
      <trkpt lat="45.60192" lon="6.6564">
        <ele>1823.5999755859</ele>
        <time>2019-01-19T09:28:54.000Z</time>
      </trkpt>
      <trkpt lat="45.60193" lon="6.65636">
        <ele>1824.4000244141</ele>
        <time>2019-01-19T09:28:58.000Z</time>
      </trkpt>
      <trkpt lat="45.60195" lon="6.65631">
        <ele>1825.8000488281</ele>
        <time>2019-01-19T09:29:03.000Z</time>
      </trkpt>
      <trkpt lat="45.60196" lon="6.65626">
        <ele>1826.4000244141</ele>
        <time>2019-01-19T09:29:06.000Z</time>
      </trkpt>
      <trkpt lat="45.60196" lon="6.65625">
        <ele>1826.5999755859</ele>
        <time>2019-01-19T09:29:07.000Z</time>
      </trkpt>
      <trkpt lat="45.60198" lon="6.65621">
        <ele>1827.1999511719</ele>
        <time>2019-01-19T09:29:11.000Z</time>
      </trkpt>
      <trkpt lat="45.60198" lon="6.6562">
        <ele>1827.1999511719</ele>
        <time>2019-01-19T09:29:12.000Z</time>
      </trkpt>
      <trkpt lat="45.60201" lon="6.65614">
        <ele>1828</ele>
        <time>2019-01-19T09:29:17.000Z</time>
      </trkpt>
      <trkpt lat="45.60204" lon="6.65608">
        <ele>1829.1999511719</ele>
        <time>2019-01-19T09:29:22.000Z</time>
      </trkpt>
      <trkpt lat="45.60205" lon="6.65607">
        <ele>1829.4000244141</ele>
        <time>2019-01-19T09:29:23.000Z</time>
      </trkpt>
      <trkpt lat="45.60208" lon="6.65603">
        <ele>1830.4000244141</ele>
        <time>2019-01-19T09:29:27.000Z</time>
      </trkpt>
      <trkpt lat="45.6021" lon="6.65599">
        <ele>1831.1999511719</ele>
        <time>2019-01-19T09:29:31.000Z</time>
      </trkpt>
      <trkpt lat="45.60213" lon="6.65597">
        <ele>1832</ele>
        <time>2019-01-19T09:29:34.000Z</time>
      </trkpt>
      <trkpt lat="45.60214" lon="6.65596">
        <ele>1832.4000244141</ele>
        <time>2019-01-19T09:29:36.000Z</time>
      </trkpt>
      <trkpt lat="45.60215" lon="6.65596">
        <ele>1832.8000488281</ele>
        <time>2019-01-19T09:29:39.000Z</time>
      </trkpt>
      <trkpt lat="45.60215" lon="6.65596">
        <ele>1833</ele>
        <time>2019-01-19T09:29:40.000Z</time>
      </trkpt>
      <trkpt lat="45.60216" lon="6.65597">
        <ele>1833.1999511719</ele>
        <time>2019-01-19T09:29:43.000Z</time>
      </trkpt>
      <trkpt lat="45.60217" lon="6.65598">
        <ele>1833.4000244141</ele>
        <time>2019-01-19T09:29:48.000Z</time>
      </trkpt>
      <trkpt lat="45.60222" lon="6.65601">
        <ele>1835.5999755859</ele>
        <time>2019-01-19T09:29:56.000Z</time>
      </trkpt>
      <trkpt lat="45.60224" lon="6.65601">
        <ele>1837</ele>
        <time>2019-01-19T09:30:02.000Z</time>
      </trkpt>
      <trkpt lat="45.60227" lon="6.656">
        <ele>1838.1999511719</ele>
        <time>2019-01-19T09:30:05.000Z</time>
      </trkpt>
      <trkpt lat="45.6023" lon="6.65594">
        <ele>1839.5999755859</ele>
        <time>2019-01-19T09:30:11.000Z</time>
      </trkpt>
      <trkpt lat="45.6023" lon="6.65594">
        <ele>1839.8000488281</ele>
        <time>2019-01-19T09:30:12.000Z</time>
      </trkpt>
      <trkpt lat="45.60232" lon="6.65591">
        <ele>1840.8000488281</ele>
        <time>2019-01-19T09:30:16.000Z</time>
      </trkpt>
      <trkpt lat="45.60233" lon="6.65589">
        <ele>1841.1999511719</ele>
        <time>2019-01-19T09:30:20.000Z</time>
      </trkpt>
      <trkpt lat="45.60233" lon="6.65588">
        <ele>1841.4000244141</ele>
        <time>2019-01-19T09:30:22.000Z</time>
      </trkpt>
      <trkpt lat="45.60233" lon="6.65588">
        <ele>1841.4000244141</ele>
        <time>2019-01-19T09:30:24.000Z</time>
      </trkpt>
      <trkpt lat="45.60235" lon="6.65586">
        <ele>1842.1999511719</ele>
        <time>2019-01-19T09:30:31.000Z</time>
      </trkpt>
      <trkpt lat="45.60235" lon="6.65586">
        <ele>1842.1999511719</ele>
        <time>2019-01-19T09:30:35.000Z</time>
      </trkpt>
      <trkpt lat="45.60238" lon="6.65584">
        <ele>1843</ele>
        <time>2019-01-19T09:30:40.000Z</time>
      </trkpt>
      <trkpt lat="45.60238" lon="6.65584">
        <ele>1843.1999511719</ele>
        <time>2019-01-19T09:30:41.000Z</time>
      </trkpt>
      <trkpt lat="45.6024" lon="6.65581">
        <ele>1843.8000488281</ele>
        <time>2019-01-19T09:30:46.000Z</time>
      </trkpt>
      <trkpt lat="45.60242" lon="6.65578">
        <ele>1844.1999511719</ele>
        <time>2019-01-19T09:30:49.000Z</time>
      </trkpt>
      <trkpt lat="45.60243" lon="6.65577">
        <ele>1844.5999755859</ele>
        <time>2019-01-19T09:30:51.000Z</time>
      </trkpt>
      <trkpt lat="45.60244" lon="6.65575">
        <ele>1845</ele>
        <time>2019-01-19T09:30:53.000Z</time>
      </trkpt>
      <trkpt lat="45.60246" lon="6.65572">
        <ele>1845.5999755859</ele>
        <time>2019-01-19T09:30:57.000Z</time>
      </trkpt>
      <trkpt lat="45.60247" lon="6.65572">
        <ele>1845.8000488281</ele>
        <time>2019-01-19T09:30:59.000Z</time>
      </trkpt>
      <trkpt lat="45.60249" lon="6.65569">
        <ele>1846.5999755859</ele>
        <time>2019-01-19T09:31:05.000Z</time>
      </trkpt>
      <trkpt lat="45.60254" lon="6.65564">
        <ele>1848.8000488281</ele>
        <time>2019-01-19T09:31:11.000Z</time>
      </trkpt>
      <trkpt lat="45.60257" lon="6.65561">
        <ele>1850</ele>
        <time>2019-01-19T09:31:15.000Z</time>
      </trkpt>
      <trkpt lat="45.60258" lon="6.6556">
        <ele>1850.5999755859</ele>
        <time>2019-01-19T09:31:17.000Z</time>
      </trkpt>
      <trkpt lat="45.6026" lon="6.65557">
        <ele>1851.1999511719</ele>
        <time>2019-01-19T09:31:21.000Z</time>
      </trkpt>
      <trkpt lat="45.60261" lon="6.65556">
        <ele>1851.5999755859</ele>
        <time>2019-01-19T09:31:22.000Z</time>
      </trkpt>
      <trkpt lat="45.60263" lon="6.65552">
        <ele>1852.4000244141</ele>
        <time>2019-01-19T09:31:25.000Z</time>
      </trkpt>
      <trkpt lat="45.60264" lon="6.65549">
        <ele>1853.1999511719</ele>
        <time>2019-01-19T09:31:28.000Z</time>
      </trkpt>
      <trkpt lat="45.60266" lon="6.65548">
        <ele>1853.8000488281</ele>
        <time>2019-01-19T09:31:31.000Z</time>
      </trkpt>
      <trkpt lat="45.60268" lon="6.65545">
        <ele>1854.5999755859</ele>
        <time>2019-01-19T09:31:34.000Z</time>
      </trkpt>
      <trkpt lat="45.60269" lon="6.65543">
        <ele>1855.4000244141</ele>
        <time>2019-01-19T09:31:36.000Z</time>
      </trkpt>
      <trkpt lat="45.60271" lon="6.65541">
        <ele>1856.1999511719</ele>
        <time>2019-01-19T09:31:39.000Z</time>
      </trkpt>
      <trkpt lat="45.60272" lon="6.65539">
        <ele>1856.5999755859</ele>
        <time>2019-01-19T09:31:42.000Z</time>
      </trkpt>
      <trkpt lat="45.60273" lon="6.65539">
        <ele>1856.8000488281</ele>
        <time>2019-01-19T09:31:44.000Z</time>
      </trkpt>
      <trkpt lat="45.60275" lon="6.65537">
        <ele>1857</ele>
        <time>2019-01-19T09:31:47.000Z</time>
      </trkpt>
      <trkpt lat="45.60277" lon="6.65534">
        <ele>1857.5999755859</ele>
        <time>2019-01-19T09:31:50.000Z</time>
      </trkpt>
      <trkpt lat="45.6028" lon="6.65531">
        <ele>1858.4000244141</ele>
        <time>2019-01-19T09:31:54.000Z</time>
      </trkpt>
      <trkpt lat="45.60285" lon="6.65528">
        <ele>1859.4000244141</ele>
        <time>2019-01-19T09:31:59.000Z</time>
      </trkpt>
      <trkpt lat="45.60285" lon="6.65528">
        <ele>1859.5999755859</ele>
        <time>2019-01-19T09:32:00.000Z</time>
      </trkpt>
      <trkpt lat="45.60287" lon="6.65528">
        <ele>1860</ele>
        <time>2019-01-19T09:32:04.000Z</time>
      </trkpt>
      <trkpt lat="45.60289" lon="6.65528">
        <ele>1860.8000488281</ele>
        <time>2019-01-19T09:32:07.000Z</time>
      </trkpt>
      <trkpt lat="45.60292" lon="6.6553">
        <ele>1861.8000488281</ele>
        <time>2019-01-19T09:32:13.000Z</time>
      </trkpt>
      <trkpt lat="45.60294" lon="6.65531">
        <ele>1862.5999755859</ele>
        <time>2019-01-19T09:32:17.000Z</time>
      </trkpt>
      <trkpt lat="45.60295" lon="6.65531">
        <ele>1862.8000488281</ele>
        <time>2019-01-19T09:32:18.000Z</time>
      </trkpt>
      <trkpt lat="45.60295" lon="6.65531">
        <ele>1862.8000488281</ele>
        <time>2019-01-19T09:32:21.000Z</time>
      </trkpt>
      <trkpt lat="45.60296" lon="6.65531">
        <ele>1863</ele>
        <time>2019-01-19T09:32:24.000Z</time>
      </trkpt>
      <trkpt lat="45.60296" lon="6.65531">
        <ele>1863.1999511719</ele>
        <time>2019-01-19T09:32:25.000Z</time>
      </trkpt>
      <trkpt lat="45.603" lon="6.6553">
        <ele>1864.1999511719</ele>
        <time>2019-01-19T09:32:31.000Z</time>
      </trkpt>
      <trkpt lat="45.603" lon="6.6553">
        <ele>1864.1999511719</ele>
        <time>2019-01-19T09:32:48.000Z</time>
      </trkpt>
      <trkpt lat="45.603" lon="6.6553">
        <ele>1864.1999511719</ele>
        <time>2019-01-19T09:32:59.000Z</time>
      </trkpt>
      <trkpt lat="45.60302" lon="6.65528">
        <ele>1864.5999755859</ele>
        <time>2019-01-19T09:33:13.000Z</time>
      </trkpt>
      <trkpt lat="45.60306" lon="6.65525">
        <ele>1865.8000488281</ele>
        <time>2019-01-19T09:33:18.000Z</time>
      </trkpt>
      <trkpt lat="45.60306" lon="6.65525">
        <ele>1865.8000488281</ele>
        <time>2019-01-19T09:33:19.000Z</time>
      </trkpt>
      <trkpt lat="45.60309" lon="6.65522">
        <ele>1866.5999755859</ele>
        <time>2019-01-19T09:33:23.000Z</time>
      </trkpt>
      <trkpt lat="45.60311" lon="6.6552">
        <ele>1867.1999511719</ele>
        <time>2019-01-19T09:33:25.000Z</time>
      </trkpt>
      <trkpt lat="45.60314" lon="6.65517">
        <ele>1867.8000488281</ele>
        <time>2019-01-19T09:33:29.000Z</time>
      </trkpt>
      <trkpt lat="45.60314" lon="6.65517">
        <ele>1868</ele>
        <time>2019-01-19T09:33:30.000Z</time>
      </trkpt>
      <trkpt lat="45.60317" lon="6.65514">
        <ele>1868.5999755859</ele>
        <time>2019-01-19T09:33:35.000Z</time>
      </trkpt>
      <trkpt lat="45.60317" lon="6.65513">
        <ele>1869</ele>
        <time>2019-01-19T09:33:36.000Z</time>
      </trkpt>
      <trkpt lat="45.60319" lon="6.65512">
        <ele>1869.4000244141</ele>
        <time>2019-01-19T09:33:39.000Z</time>
      </trkpt>
      <trkpt lat="45.6032" lon="6.65511">
        <ele>1869.8000488281</ele>
        <time>2019-01-19T09:33:41.000Z</time>
      </trkpt>
      <trkpt lat="45.60321" lon="6.65511">
        <ele>1870</ele>
        <time>2019-01-19T09:33:42.000Z</time>
      </trkpt>
      <trkpt lat="45.60322" lon="6.6551">
        <ele>1870.4000244141</ele>
        <time>2019-01-19T09:33:46.000Z</time>
      </trkpt>
      <trkpt lat="45.60323" lon="6.6551">
        <ele>1870.5999755859</ele>
        <time>2019-01-19T09:33:47.000Z</time>
      </trkpt>
      <trkpt lat="45.60326" lon="6.65507">
        <ele>1871.1999511719</ele>
        <time>2019-01-19T09:33:53.000Z</time>
      </trkpt>
      <trkpt lat="45.60328" lon="6.65505">
        <ele>1871.5999755859</ele>
        <time>2019-01-19T09:33:56.000Z</time>
      </trkpt>
      <trkpt lat="45.60331" lon="6.65504">
        <ele>1872</ele>
        <time>2019-01-19T09:33:59.000Z</time>
      </trkpt>
      <trkpt lat="45.60332" lon="6.65503">
        <ele>1872.4000244141</ele>
        <time>2019-01-19T09:34:01.000Z</time>
      </trkpt>
      <trkpt lat="45.60335" lon="6.65501">
        <ele>1873</ele>
        <time>2019-01-19T09:34:05.000Z</time>
      </trkpt>
      <trkpt lat="45.60339" lon="6.65499">
        <ele>1873.8000488281</ele>
        <time>2019-01-19T09:34:12.000Z</time>
      </trkpt>
      <trkpt lat="45.6034" lon="6.65499">
        <ele>1874</ele>
        <time>2019-01-19T09:34:13.000Z</time>
      </trkpt>
      <trkpt lat="45.60342" lon="6.65498">
        <ele>1874.4000244141</ele>
        <time>2019-01-19T09:34:17.000Z</time>
      </trkpt>
      <trkpt lat="45.60343" lon="6.65497">
        <ele>1874.5999755859</ele>
        <time>2019-01-19T09:34:18.000Z</time>
      </trkpt>
      <trkpt lat="45.60347" lon="6.65495">
        <ele>1875.4000244141</ele>
        <time>2019-01-19T09:34:23.000Z</time>
      </trkpt>
      <trkpt lat="45.6035" lon="6.65494">
        <ele>1876</ele>
        <time>2019-01-19T09:34:27.000Z</time>
      </trkpt>
      <trkpt lat="45.60352" lon="6.65494">
        <ele>1876.5999755859</ele>
        <time>2019-01-19T09:34:30.000Z</time>
      </trkpt>
      <trkpt lat="45.60352" lon="6.65494">
        <ele>1876.8000488281</ele>
        <time>2019-01-19T09:34:31.000Z</time>
      </trkpt>
      <trkpt lat="45.60356" lon="6.65493">
        <ele>1877.5999755859</ele>
        <time>2019-01-19T09:34:35.000Z</time>
      </trkpt>
      <trkpt lat="45.60358" lon="6.65492">
        <ele>1878.1999511719</ele>
        <time>2019-01-19T09:34:37.000Z</time>
      </trkpt>
      <trkpt lat="45.60359" lon="6.65492">
        <ele>1878.5999755859</ele>
        <time>2019-01-19T09:34:39.000Z</time>
      </trkpt>
      <trkpt lat="45.60365" lon="6.65492">
        <ele>1880.1999511719</ele>
        <time>2019-01-19T09:34:46.000Z</time>
      </trkpt>
      <trkpt lat="45.60367" lon="6.65492">
        <ele>1880.5999755859</ele>
        <time>2019-01-19T09:34:52.000Z</time>
      </trkpt>
      <trkpt lat="45.60367" lon="6.65492">
        <ele>1880.5999755859</ele>
        <time>2019-01-19T09:34:55.000Z</time>
      </trkpt>
      <trkpt lat="45.60367" lon="6.65492">
        <ele>1880.5999755859</ele>
        <time>2019-01-19T09:35:15.000Z</time>
      </trkpt>
      <trkpt lat="45.60371" lon="6.65491">
        <ele>1881.8000488281</ele>
        <time>2019-01-19T09:35:26.000Z</time>
      </trkpt>
      <trkpt lat="45.60377" lon="6.65491">
        <ele>1883.4000244141</ele>
        <time>2019-01-19T09:35:33.000Z</time>
      </trkpt>
      <trkpt lat="45.60378" lon="6.65491">
        <ele>1883.8000488281</ele>
        <time>2019-01-19T09:35:35.000Z</time>
      </trkpt>
      <trkpt lat="45.6038" lon="6.65491">
        <ele>1884.1999511719</ele>
        <time>2019-01-19T09:35:37.000Z</time>
      </trkpt>
      <trkpt lat="45.60384" lon="6.65489">
        <ele>1885</ele>
        <time>2019-01-19T09:35:41.000Z</time>
      </trkpt>
      <trkpt lat="45.60384" lon="6.65489">
        <ele>1885.1999511719</ele>
        <time>2019-01-19T09:35:42.000Z</time>
      </trkpt>
      <trkpt lat="45.60388" lon="6.65489">
        <ele>1886.4000244141</ele>
        <time>2019-01-19T09:35:48.000Z</time>
      </trkpt>
      <trkpt lat="45.60391" lon="6.65487">
        <ele>1887</ele>
        <time>2019-01-19T09:35:51.000Z</time>
      </trkpt>
      <trkpt lat="45.60393" lon="6.65487">
        <ele>1887.8000488281</ele>
        <time>2019-01-19T09:35:54.000Z</time>
      </trkpt>
      <trkpt lat="45.60394" lon="6.65487">
        <ele>1888.1999511719</ele>
        <time>2019-01-19T09:35:55.000Z</time>
      </trkpt>
      <trkpt lat="45.60398" lon="6.65485">
        <ele>1889.4000244141</ele>
        <time>2019-01-19T09:36:00.000Z</time>
      </trkpt>
      <trkpt lat="45.60399" lon="6.65484">
        <ele>1889.5999755859</ele>
        <time>2019-01-19T09:36:02.000Z</time>
      </trkpt>
      <trkpt lat="45.604" lon="6.65484">
        <ele>1890</ele>
        <time>2019-01-19T09:36:05.000Z</time>
      </trkpt>
      <trkpt lat="45.60402" lon="6.65484">
        <ele>1890.5999755859</ele>
        <time>2019-01-19T09:36:07.000Z</time>
      </trkpt>
      <trkpt lat="45.60404" lon="6.65484">
        <ele>1891.1999511719</ele>
        <time>2019-01-19T09:36:09.000Z</time>
      </trkpt>
      <trkpt lat="45.60408" lon="6.65485">
        <ele>1892.4000244141</ele>
        <time>2019-01-19T09:36:13.000Z</time>
      </trkpt>
      <trkpt lat="45.60409" lon="6.65485">
        <ele>1892.5999755859</ele>
        <time>2019-01-19T09:36:14.000Z</time>
      </trkpt>
      <trkpt lat="45.60414" lon="6.65488">
        <ele>1894.5999755859</ele>
        <time>2019-01-19T09:36:20.000Z</time>
      </trkpt>
      <trkpt lat="45.60415" lon="6.65489">
        <ele>1895.1999511719</ele>
        <time>2019-01-19T09:36:22.000Z</time>
      </trkpt>
      <trkpt lat="45.60419" lon="6.65491">
        <ele>1896.8000488281</ele>
        <time>2019-01-19T09:36:28.000Z</time>
      </trkpt>
      <trkpt lat="45.6042" lon="6.65491">
        <ele>1897</ele>
        <time>2019-01-19T09:36:29.000Z</time>
      </trkpt>
      <trkpt lat="45.60422" lon="6.65492">
        <ele>1897.8000488281</ele>
        <time>2019-01-19T09:36:33.000Z</time>
      </trkpt>
      <trkpt lat="45.60426" lon="6.65493">
        <ele>1899</ele>
        <time>2019-01-19T09:36:37.000Z</time>
      </trkpt>
      <trkpt lat="45.60428" lon="6.65493">
        <ele>1899.8000488281</ele>
        <time>2019-01-19T09:36:41.000Z</time>
      </trkpt>
      <trkpt lat="45.60432" lon="6.65495">
        <ele>1901.5999755859</ele>
        <time>2019-01-19T09:36:46.000Z</time>
      </trkpt>
      <trkpt lat="45.60435" lon="6.65498">
        <ele>1902.8000488281</ele>
        <time>2019-01-19T09:36:50.000Z</time>
      </trkpt>
      <trkpt lat="45.60437" lon="6.65497">
        <ele>1903.4000244141</ele>
        <time>2019-01-19T09:36:53.000Z</time>
      </trkpt>
      <trkpt lat="45.60437" lon="6.65497">
        <ele>1903.5999755859</ele>
        <time>2019-01-19T09:36:54.000Z</time>
      </trkpt>
      <trkpt lat="45.60438" lon="6.65497">
        <ele>1903.5999755859</ele>
        <time>2019-01-19T09:36:58.000Z</time>
      </trkpt>
      <trkpt lat="45.6044" lon="6.65496">
        <ele>1904.1999511719</ele>
        <time>2019-01-19T09:37:01.000Z</time>
      </trkpt>
      <trkpt lat="45.6044" lon="6.65496">
        <ele>1904.1999511719</ele>
        <time>2019-01-19T09:37:02.000Z</time>
      </trkpt>
      <trkpt lat="45.60442" lon="6.65494">
        <ele>1904.8000488281</ele>
        <time>2019-01-19T09:37:06.000Z</time>
      </trkpt>
      <trkpt lat="45.60447" lon="6.65491">
        <ele>1905.8000488281</ele>
        <time>2019-01-19T09:37:12.000Z</time>
      </trkpt>
      <trkpt lat="45.60451" lon="6.65487">
        <ele>1906.4000244141</ele>
        <time>2019-01-19T09:37:18.000Z</time>
      </trkpt>
      <trkpt lat="45.60454" lon="6.65484">
        <ele>1907.1999511719</ele>
        <time>2019-01-19T09:37:22.000Z</time>
      </trkpt>
      <trkpt lat="45.60454" lon="6.65483">
        <ele>1907.5999755859</ele>
        <time>2019-01-19T09:37:23.000Z</time>
      </trkpt>
      <trkpt lat="45.60457" lon="6.6548">
        <ele>1908.8000488281</ele>
        <time>2019-01-19T09:37:28.000Z</time>
      </trkpt>
      <trkpt lat="45.60458" lon="6.65479">
        <ele>1909</ele>
        <time>2019-01-19T09:37:29.000Z</time>
      </trkpt>
      <trkpt lat="45.60462" lon="6.65475">
        <ele>1910.8000488281</ele>
        <time>2019-01-19T09:37:35.000Z</time>
      </trkpt>
      <trkpt lat="45.60465" lon="6.65473">
        <ele>1912</ele>
        <time>2019-01-19T09:37:40.000Z</time>
      </trkpt>
      <trkpt lat="45.60466" lon="6.65471">
        <ele>1912.8000488281</ele>
        <time>2019-01-19T09:37:42.000Z</time>
      </trkpt>
      <trkpt lat="45.60468" lon="6.65469">
        <ele>1913.8000488281</ele>
        <time>2019-01-19T09:37:45.000Z</time>
      </trkpt>
      <trkpt lat="45.60471" lon="6.65465">
        <ele>1915.5999755859</ele>
        <time>2019-01-19T09:37:49.000Z</time>
      </trkpt>
      <trkpt lat="45.60471" lon="6.65463">
        <ele>1915.5999755859</ele>
        <time>2019-01-19T09:37:50.000Z</time>
      </trkpt>
      <trkpt lat="45.60469" lon="6.6546">
        <ele>1915</ele>
        <time>2019-01-19T09:37:54.000Z</time>
      </trkpt>
      <trkpt lat="45.60469" lon="6.65459">
        <ele>1915</ele>
        <time>2019-01-19T09:37:55.000Z</time>
      </trkpt>
      <trkpt lat="45.60468" lon="6.65457">
        <ele>1915</ele>
        <time>2019-01-19T09:37:58.000Z</time>
      </trkpt>
      <trkpt lat="45.60468" lon="6.65457">
        <ele>1915</ele>
        <time>2019-01-19T09:37:59.000Z</time>
      </trkpt>
      <trkpt lat="45.60468" lon="6.65457">
        <ele>1915</ele>
        <time>2019-01-19T09:38:01.000Z</time>
      </trkpt>
      <trkpt lat="45.60467" lon="6.65454">
        <ele>1915</ele>
        <time>2019-01-19T09:38:08.000Z</time>
      </trkpt>
      <trkpt lat="45.60466" lon="6.6545">
        <ele>1915</ele>
        <time>2019-01-19T09:38:12.000Z</time>
      </trkpt>
      <trkpt lat="45.60466" lon="6.65445">
        <ele>1915.5999755859</ele>
        <time>2019-01-19T09:38:16.000Z</time>
      </trkpt>
      <trkpt lat="45.60466" lon="6.65444">
        <ele>1915.8000488281</ele>
        <time>2019-01-19T09:38:17.000Z</time>
      </trkpt>
      <trkpt lat="45.60466" lon="6.6544">
        <ele>1916</ele>
        <time>2019-01-19T09:38:20.000Z</time>
      </trkpt>
      <trkpt lat="45.60465" lon="6.65436">
        <ele>1916</ele>
        <time>2019-01-19T09:38:23.000Z</time>
      </trkpt>
      <trkpt lat="45.60464" lon="6.65431">
        <ele>1916.1999511719</ele>
        <time>2019-01-19T09:38:28.000Z</time>
      </trkpt>
      <trkpt lat="45.60463" lon="6.6543">
        <ele>1916.1999511719</ele>
        <time>2019-01-19T09:38:29.000Z</time>
      </trkpt>
      <trkpt lat="45.60462" lon="6.65424">
        <ele>1916.1999511719</ele>
        <time>2019-01-19T09:38:33.000Z</time>
      </trkpt>
      <trkpt lat="45.60461" lon="6.6542">
        <ele>1916.1999511719</ele>
        <time>2019-01-19T09:38:36.000Z</time>
      </trkpt>
      <trkpt lat="45.60461" lon="6.65418">
        <ele>1916.4000244141</ele>
        <time>2019-01-19T09:38:38.000Z</time>
      </trkpt>
      <trkpt lat="45.60459" lon="6.65411">
        <ele>1916.4000244141</ele>
        <time>2019-01-19T09:38:42.000Z</time>
      </trkpt>
      <trkpt lat="45.60459" lon="6.6541">
        <ele>1916.5999755859</ele>
        <time>2019-01-19T09:38:43.000Z</time>
      </trkpt>
      <trkpt lat="45.60458" lon="6.65404">
        <ele>1917</ele>
        <time>2019-01-19T09:38:48.000Z</time>
      </trkpt>
      <trkpt lat="45.60457" lon="6.65401">
        <ele>1917.4000244141</ele>
        <time>2019-01-19T09:38:50.000Z</time>
      </trkpt>
      <trkpt lat="45.60457" lon="6.65398">
        <ele>1917.8000488281</ele>
        <time>2019-01-19T09:38:52.000Z</time>
      </trkpt>
      <trkpt lat="45.60457" lon="6.65397">
        <ele>1918</ele>
        <time>2019-01-19T09:38:53.000Z</time>
      </trkpt>
      <trkpt lat="45.60458" lon="6.65389">
        <ele>1920</ele>
        <time>2019-01-19T09:38:59.000Z</time>
      </trkpt>
      <trkpt lat="45.60458" lon="6.65385">
        <ele>1920.5999755859</ele>
        <time>2019-01-19T09:39:02.000Z</time>
      </trkpt>
      <trkpt lat="45.60457" lon="6.65381">
        <ele>1921.1999511719</ele>
        <time>2019-01-19T09:39:05.000Z</time>
      </trkpt>
      <trkpt lat="45.60456" lon="6.65375">
        <ele>1922</ele>
        <time>2019-01-19T09:39:10.000Z</time>
      </trkpt>
      <trkpt lat="45.60456" lon="6.65374">
        <ele>1922.1999511719</ele>
        <time>2019-01-19T09:39:11.000Z</time>
      </trkpt>
      <trkpt lat="45.60456" lon="6.6537">
        <ele>1922.5999755859</ele>
        <time>2019-01-19T09:39:15.000Z</time>
      </trkpt>
      <trkpt lat="45.60455" lon="6.65366">
        <ele>1923.1999511719</ele>
        <time>2019-01-19T09:39:18.000Z</time>
      </trkpt>
      <trkpt lat="45.60455" lon="6.65366">
        <ele>1923.1999511719</ele>
        <time>2019-01-19T09:39:19.000Z</time>
      </trkpt>
      <trkpt lat="45.60453" lon="6.65363">
        <ele>1923.1999511719</ele>
        <time>2019-01-19T09:39:21.000Z</time>
      </trkpt>
      <trkpt lat="45.60453" lon="6.65361">
        <ele>1923.4000244141</ele>
        <time>2019-01-19T09:39:23.000Z</time>
      </trkpt>
      <trkpt lat="45.60453" lon="6.6536">
        <ele>1923.5999755859</ele>
        <time>2019-01-19T09:39:24.000Z</time>
      </trkpt>
      <trkpt lat="45.60451" lon="6.65355">
        <ele>1923.8000488281</ele>
        <time>2019-01-19T09:39:29.000Z</time>
      </trkpt>
      <trkpt lat="45.6045" lon="6.65353">
        <ele>1923.8000488281</ele>
        <time>2019-01-19T09:39:31.000Z</time>
      </trkpt>
      <trkpt lat="45.60449" lon="6.65351">
        <ele>1924.1999511719</ele>
        <time>2019-01-19T09:39:34.000Z</time>
      </trkpt>
      <trkpt lat="45.60447" lon="6.65348">
        <ele>1923.8000488281</ele>
        <time>2019-01-19T09:39:38.000Z</time>
      </trkpt>
      <trkpt lat="45.60446" lon="6.65348">
        <ele>1923.8000488281</ele>
        <time>2019-01-19T09:39:40.000Z</time>
      </trkpt>
      <trkpt lat="45.60446" lon="6.65346">
        <ele>1923.8000488281</ele>
        <time>2019-01-19T09:39:42.000Z</time>
      </trkpt>
      <trkpt lat="45.60444" lon="6.65342">
        <ele>1924.1999511719</ele>
        <time>2019-01-19T09:39:46.000Z</time>
      </trkpt>
      <trkpt lat="45.60443" lon="6.65339">
        <ele>1924.4000244141</ele>
        <time>2019-01-19T09:39:51.000Z</time>
      </trkpt>
      <trkpt lat="45.60443" lon="6.65338">
        <ele>1924.4000244141</ele>
        <time>2019-01-19T09:39:53.000Z</time>
      </trkpt>
      <trkpt lat="45.60442" lon="6.65335">
        <ele>1924.4000244141</ele>
        <time>2019-01-19T09:39:56.000Z</time>
      </trkpt>
      <trkpt lat="45.60441" lon="6.65335">
        <ele>1924.4000244141</ele>
        <time>2019-01-19T09:39:59.000Z</time>
      </trkpt>
      <trkpt lat="45.6044" lon="6.65332">
        <ele>1924.4000244141</ele>
        <time>2019-01-19T09:40:02.000Z</time>
      </trkpt>
      <trkpt lat="45.60439" lon="6.65326">
        <ele>1925</ele>
        <time>2019-01-19T09:40:06.000Z</time>
      </trkpt>
      <trkpt lat="45.60439" lon="6.65326">
        <ele>1925.1999511719</ele>
        <time>2019-01-19T09:40:07.000Z</time>
      </trkpt>
      <trkpt lat="45.60438" lon="6.6532">
        <ele>1925.8000488281</ele>
        <time>2019-01-19T09:40:13.000Z</time>
      </trkpt>
      <trkpt lat="45.60437" lon="6.65318">
        <ele>1926</ele>
        <time>2019-01-19T09:40:18.000Z</time>
      </trkpt>
      <trkpt lat="45.60437" lon="6.65318">
        <ele>1926</ele>
        <time>2019-01-19T09:40:25.000Z</time>
      </trkpt>
      <trkpt lat="45.60435" lon="6.65315">
        <ele>1926.4000244141</ele>
        <time>2019-01-19T09:40:29.000Z</time>
      </trkpt>
      <trkpt lat="45.60435" lon="6.65312">
        <ele>1926.8000488281</ele>
        <time>2019-01-19T09:40:31.000Z</time>
      </trkpt>
      <trkpt lat="45.60434" lon="6.65311">
        <ele>1927.1999511719</ele>
        <time>2019-01-19T09:40:33.000Z</time>
      </trkpt>
      <trkpt lat="45.60434" lon="6.65305">
        <ele>1928.5999755859</ele>
        <time>2019-01-19T09:40:39.000Z</time>
      </trkpt>
      <trkpt lat="45.60435" lon="6.65299">
        <ele>1930</ele>
        <time>2019-01-19T09:40:45.000Z</time>
      </trkpt>
      <trkpt lat="45.60435" lon="6.65299">
        <ele>1930</ele>
        <time>2019-01-19T09:40:46.000Z</time>
      </trkpt>
      <trkpt lat="45.60436" lon="6.65296">
        <ele>1931.4000244141</ele>
        <time>2019-01-19T09:40:52.000Z</time>
      </trkpt>
      <trkpt lat="45.60437" lon="6.65294">
        <ele>1932</ele>
        <time>2019-01-19T09:40:55.000Z</time>
      </trkpt>
      <trkpt lat="45.60437" lon="6.65294">
        <ele>1932</ele>
        <time>2019-01-19T09:40:57.000Z</time>
      </trkpt>
      <trkpt lat="45.60437" lon="6.65294">
        <ele>1932</ele>
        <time>2019-01-19T09:40:59.000Z</time>
      </trkpt>
      <trkpt lat="45.60437" lon="6.65294">
        <ele>1932</ele>
        <time>2019-01-19T09:41:16.000Z</time>
      </trkpt>
      <trkpt lat="45.60437" lon="6.65294">
        <ele>1932</ele>
        <time>2019-01-19T09:41:30.000Z</time>
      </trkpt>
      <trkpt lat="45.60439" lon="6.65293">
        <ele>1933.4000244141</ele>
        <time>2019-01-19T09:41:37.000Z</time>
      </trkpt>
      <trkpt lat="45.6044" lon="6.65291">
        <ele>1934</ele>
        <time>2019-01-19T09:41:41.000Z</time>
      </trkpt>
      <trkpt lat="45.6044" lon="6.65291">
        <ele>1934</ele>
        <time>2019-01-19T09:41:43.000Z</time>
      </trkpt>
      <trkpt lat="45.6044" lon="6.65291">
        <ele>1934</ele>
        <time>2019-01-19T09:41:46.000Z</time>
      </trkpt>
      <trkpt lat="45.60441" lon="6.65291">
        <ele>1934.1999511719</ele>
        <time>2019-01-19T09:41:52.000Z</time>
      </trkpt>
      <trkpt lat="45.60447" lon="6.6529">
        <ele>1935.1999511719</ele>
        <time>2019-01-19T09:41:58.000Z</time>
      </trkpt>
      <trkpt lat="45.60447" lon="6.6529">
        <ele>1935.1999511719</ele>
        <time>2019-01-19T09:41:59.000Z</time>
      </trkpt>
      <trkpt lat="45.60454" lon="6.65291">
        <ele>1936.1999511719</ele>
        <time>2019-01-19T09:42:05.000Z</time>
      </trkpt>
      <trkpt lat="45.60458" lon="6.65293">
        <ele>1936.8000488281</ele>
        <time>2019-01-19T09:42:10.000Z</time>
      </trkpt>
      <trkpt lat="45.60459" lon="6.65293">
        <ele>1936.8000488281</ele>
        <time>2019-01-19T09:42:11.000Z</time>
      </trkpt>
      <trkpt lat="45.60462" lon="6.65294">
        <ele>1937.1999511719</ele>
        <time>2019-01-19T09:42:14.000Z</time>
      </trkpt>
      <trkpt lat="45.60465" lon="6.65294">
        <ele>1937.8000488281</ele>
        <time>2019-01-19T09:42:18.000Z</time>
      </trkpt>
      <trkpt lat="45.60472" lon="6.65296">
        <ele>1938.8000488281</ele>
        <time>2019-01-19T09:42:25.000Z</time>
      </trkpt>
      <trkpt lat="45.60472" lon="6.65296">
        <ele>1939</ele>
        <time>2019-01-19T09:42:26.000Z</time>
      </trkpt>
      <trkpt lat="45.60472" lon="6.65296">
        <ele>1939</ele>
        <time>2019-01-19T09:42:32.000Z</time>
      </trkpt>
      <trkpt lat="45.60476" lon="6.65298">
        <ele>1939.5999755859</ele>
        <time>2019-01-19T09:42:40.000Z</time>
      </trkpt>
      <trkpt lat="45.60483" lon="6.65298">
        <ele>1940.8000488281</ele>
        <time>2019-01-19T09:42:46.000Z</time>
      </trkpt>
      <trkpt lat="45.60485" lon="6.65299">
        <ele>1941.4000244141</ele>
        <time>2019-01-19T09:42:48.000Z</time>
      </trkpt>
      <trkpt lat="45.60494" lon="6.65303">
        <ele>1942.5999755859</ele>
        <time>2019-01-19T09:42:55.000Z</time>
      </trkpt>
      <trkpt lat="45.60496" lon="6.65304">
        <ele>1943</ele>
        <time>2019-01-19T09:42:57.000Z</time>
      </trkpt>
      <trkpt lat="45.605" lon="6.65307">
        <ele>1943.5999755859</ele>
        <time>2019-01-19T09:43:01.000Z</time>
      </trkpt>
      <trkpt lat="45.60501" lon="6.65308">
        <ele>1943.8000488281</ele>
        <time>2019-01-19T09:43:03.000Z</time>
      </trkpt>
      <trkpt lat="45.60503" lon="6.65308">
        <ele>1944.1999511719</ele>
        <time>2019-01-19T09:43:05.000Z</time>
      </trkpt>
      <trkpt lat="45.6051" lon="6.65311">
        <ele>1945.1999511719</ele>
        <time>2019-01-19T09:43:10.000Z</time>
      </trkpt>
      <trkpt lat="45.60511" lon="6.65312">
        <ele>1945.4000244141</ele>
        <time>2019-01-19T09:43:11.000Z</time>
      </trkpt>
      <trkpt lat="45.60518" lon="6.65316">
        <ele>1946.4000244141</ele>
        <time>2019-01-19T09:43:17.000Z</time>
      </trkpt>
      <trkpt lat="45.60519" lon="6.65316">
        <ele>1946.5999755859</ele>
        <time>2019-01-19T09:43:18.000Z</time>
      </trkpt>
      <trkpt lat="45.60527" lon="6.65317">
        <ele>1948</ele>
        <time>2019-01-19T09:43:24.000Z</time>
      </trkpt>
      <trkpt lat="45.60533" lon="6.65315">
        <ele>1949.5999755859</ele>
        <time>2019-01-19T09:43:31.000Z</time>
      </trkpt>
      <trkpt lat="45.60541" lon="6.65314">
        <ele>1951.4000244141</ele>
        <time>2019-01-19T09:43:37.000Z</time>
      </trkpt>
      <trkpt lat="45.60545" lon="6.65314">
        <ele>1952.1999511719</ele>
        <time>2019-01-19T09:43:40.000Z</time>
      </trkpt>
      <trkpt lat="45.60556" lon="6.65314">
        <ele>1953.4000244141</ele>
        <time>2019-01-19T09:43:49.000Z</time>
      </trkpt>
      <trkpt lat="45.60563" lon="6.65316">
        <ele>1954.5999755859</ele>
        <time>2019-01-19T09:43:56.000Z</time>
      </trkpt>
      <trkpt lat="45.60564" lon="6.65318">
        <ele>1954.8000488281</ele>
        <time>2019-01-19T09:43:58.000Z</time>
      </trkpt>
      <trkpt lat="45.6057" lon="6.65321">
        <ele>1956</ele>
        <time>2019-01-19T09:44:05.000Z</time>
      </trkpt>
      <trkpt lat="45.60578" lon="6.65319">
        <ele>1956.5999755859</ele>
        <time>2019-01-19T09:44:12.000Z</time>
      </trkpt>
      <trkpt lat="45.60578" lon="6.65319">
        <ele>1956.8000488281</ele>
        <time>2019-01-19T09:44:13.000Z</time>
      </trkpt>
      <trkpt lat="45.60583" lon="6.65319">
        <ele>1957.5999755859</ele>
        <time>2019-01-19T09:44:17.000Z</time>
      </trkpt>
      <trkpt lat="45.60589" lon="6.65318">
        <ele>1958.4000244141</ele>
        <time>2019-01-19T09:44:21.000Z</time>
      </trkpt>
      <trkpt lat="45.60593" lon="6.65317">
        <ele>1958.8000488281</ele>
        <time>2019-01-19T09:44:24.000Z</time>
      </trkpt>
      <trkpt lat="45.60597" lon="6.65317">
        <ele>1959.4000244141</ele>
        <time>2019-01-19T09:44:29.000Z</time>
      </trkpt>
      <trkpt lat="45.60598" lon="6.65318">
        <ele>1959.5999755859</ele>
        <time>2019-01-19T09:44:30.000Z</time>
      </trkpt>
      <trkpt lat="45.60604" lon="6.65322">
        <ele>1961.1999511719</ele>
        <time>2019-01-19T09:44:37.000Z</time>
      </trkpt>
      <trkpt lat="45.60615" lon="6.65327">
        <ele>1964</ele>
        <time>2019-01-19T09:44:47.000Z</time>
      </trkpt>
      <trkpt lat="45.60623" lon="6.6533">
        <ele>1965.8000488281</ele>
        <time>2019-01-19T09:44:53.000Z</time>
      </trkpt>
      <trkpt lat="45.60624" lon="6.6533">
        <ele>1966.1999511719</ele>
        <time>2019-01-19T09:44:54.000Z</time>
      </trkpt>
      <trkpt lat="45.60627" lon="6.65332">
        <ele>1967</ele>
        <time>2019-01-19T09:44:57.000Z</time>
      </trkpt>
      <trkpt lat="45.60633" lon="6.65333">
        <ele>1968.1999511719</ele>
        <time>2019-01-19T09:45:02.000Z</time>
      </trkpt>
      <trkpt lat="45.60636" lon="6.65334">
        <ele>1968.5999755859</ele>
        <time>2019-01-19T09:45:05.000Z</time>
      </trkpt>
      <trkpt lat="45.60643" lon="6.65333">
        <ele>1968.5999755859</ele>
        <time>2019-01-19T09:45:09.000Z</time>
      </trkpt>
      <trkpt lat="45.60644" lon="6.65335">
        <ele>1969.1999511719</ele>
        <time>2019-01-19T09:45:12.000Z</time>
      </trkpt>
      <trkpt lat="45.60649" lon="6.65337">
        <ele>1969.5999755859</ele>
        <time>2019-01-19T09:45:16.000Z</time>
      </trkpt>
      <trkpt lat="45.60652" lon="6.65338">
        <ele>1970</ele>
        <time>2019-01-19T09:45:20.000Z</time>
      </trkpt>
      <trkpt lat="45.60654" lon="6.65339">
        <ele>1970</ele>
        <time>2019-01-19T09:45:22.000Z</time>
      </trkpt>
      <trkpt lat="45.60655" lon="6.6534">
        <ele>1970.4000244141</ele>
        <time>2019-01-19T09:45:27.000Z</time>
      </trkpt>
      <trkpt lat="45.60655" lon="6.6534">
        <ele>1970.4000244141</ele>
        <time>2019-01-19T09:45:32.000Z</time>
      </trkpt>
      <trkpt lat="45.60655" lon="6.6534">
        <ele>1970.4000244141</ele>
        <time>2019-01-19T09:45:37.000Z</time>
      </trkpt>
      <trkpt lat="45.60655" lon="6.6534">
        <ele>1970.4000244141</ele>
        <time>2019-01-19T09:45:48.000Z</time>
      </trkpt>
      <trkpt lat="45.60658" lon="6.65338">
        <ele>1970.1999511719</ele>
        <time>2019-01-19T09:45:56.000Z</time>
      </trkpt>
      <trkpt lat="45.60663" lon="6.65339">
        <ele>1970.8000488281</ele>
        <time>2019-01-19T09:46:02.000Z</time>
      </trkpt>
      <trkpt lat="45.60671" lon="6.65339">
        <ele>1971.4000244141</ele>
        <time>2019-01-19T09:46:09.000Z</time>
      </trkpt>
      <trkpt lat="45.60675" lon="6.65339">
        <ele>1971.8000488281</ele>
        <time>2019-01-19T09:46:15.000Z</time>
      </trkpt>
      <trkpt lat="45.60677" lon="6.65339">
        <ele>1971.8000488281</ele>
        <time>2019-01-19T09:46:17.000Z</time>
      </trkpt>
      <trkpt lat="45.60688" lon="6.65335">
        <ele>1971.8000488281</ele>
        <time>2019-01-19T09:46:25.000Z</time>
      </trkpt>
      <trkpt lat="45.60692" lon="6.65332">
        <ele>1971.5999755859</ele>
        <time>2019-01-19T09:46:28.000Z</time>
      </trkpt>
      <trkpt lat="45.60696" lon="6.65331">
        <ele>1971.5999755859</ele>
        <time>2019-01-19T09:46:31.000Z</time>
      </trkpt>
      <trkpt lat="45.60702" lon="6.65332">
        <ele>1972.1999511719</ele>
        <time>2019-01-19T09:46:39.000Z</time>
      </trkpt>
      <trkpt lat="45.60709" lon="6.65328">
        <ele>1972</ele>
        <time>2019-01-19T09:46:45.000Z</time>
      </trkpt>
      <trkpt lat="45.6071" lon="6.65329">
        <ele>1972.1999511719</ele>
        <time>2019-01-19T09:46:48.000Z</time>
      </trkpt>
      <trkpt lat="45.60713" lon="6.6533">
        <ele>1972.5999755859</ele>
        <time>2019-01-19T09:46:49.000Z</time>
      </trkpt>
      <trkpt lat="45.60716" lon="6.65331">
        <ele>1973</ele>
        <time>2019-01-19T09:46:51.000Z</time>
      </trkpt>
      <trkpt lat="45.60717" lon="6.65331">
        <ele>1973.1999511719</ele>
        <time>2019-01-19T09:46:52.000Z</time>
      </trkpt>
      <trkpt lat="45.60726" lon="6.65334">
        <ele>1974</ele>
        <time>2019-01-19T09:46:58.000Z</time>
      </trkpt>
      <trkpt lat="45.60727" lon="6.65338">
        <ele>1974.8000488281</ele>
        <time>2019-01-19T09:47:00.000Z</time>
      </trkpt>
      <trkpt lat="45.60728" lon="6.65342">
        <ele>1975.4000244141</ele>
        <time>2019-01-19T09:47:02.000Z</time>
      </trkpt>
      <trkpt lat="45.60729" lon="6.65347">
        <ele>1976.5999755859</ele>
        <time>2019-01-19T09:47:06.000Z</time>
      </trkpt>
      <trkpt lat="45.60729" lon="6.65349">
        <ele>1977</ele>
        <time>2019-01-19T09:47:07.000Z</time>
      </trkpt>
      <trkpt lat="45.60733" lon="6.65351">
        <ele>1977.4000244141</ele>
        <time>2019-01-19T09:47:13.000Z</time>
      </trkpt>
      <trkpt lat="45.60735" lon="6.65351">
        <ele>1977.4000244141</ele>
        <time>2019-01-19T09:47:19.000Z</time>
      </trkpt>
      <trkpt lat="45.60738" lon="6.6535">
        <ele>1977.4000244141</ele>
        <time>2019-01-19T09:47:22.000Z</time>
      </trkpt>
      <trkpt lat="45.60741" lon="6.65352">
        <ele>1977.8000488281</ele>
        <time>2019-01-19T09:47:26.000Z</time>
      </trkpt>
      <trkpt lat="45.60744" lon="6.65354">
        <ele>1978.1999511719</ele>
        <time>2019-01-19T09:47:29.000Z</time>
      </trkpt>
      <trkpt lat="45.60745" lon="6.65355">
        <ele>1978.4000244141</ele>
        <time>2019-01-19T09:47:32.000Z</time>
      </trkpt>
      <trkpt lat="45.60746" lon="6.65355">
        <ele>1978.5999755859</ele>
        <time>2019-01-19T09:47:33.000Z</time>
      </trkpt>
      <trkpt lat="45.6075" lon="6.65359">
        <ele>1979.4000244141</ele>
        <time>2019-01-19T09:47:39.000Z</time>
      </trkpt>
      <trkpt lat="45.60752" lon="6.65361">
        <ele>1979.8000488281</ele>
        <time>2019-01-19T09:47:42.000Z</time>
      </trkpt>
      <trkpt lat="45.60755" lon="6.65363">
        <ele>1980.4000244141</ele>
        <time>2019-01-19T09:47:48.000Z</time>
      </trkpt>
      <trkpt lat="45.60757" lon="6.65364">
        <ele>1980.4000244141</ele>
        <time>2019-01-19T09:47:51.000Z</time>
      </trkpt>
      <trkpt lat="45.60761" lon="6.65367">
        <ele>1981.1999511719</ele>
        <time>2019-01-19T09:47:56.000Z</time>
      </trkpt>
      <trkpt lat="45.60761" lon="6.6537">
        <ele>1981.5999755859</ele>
        <time>2019-01-19T09:47:58.000Z</time>
      </trkpt>
      <trkpt lat="45.60764" lon="6.65374">
        <ele>1982.5999755859</ele>
        <time>2019-01-19T09:48:03.000Z</time>
      </trkpt>
      <trkpt lat="45.60765" lon="6.65374">
        <ele>1982.5999755859</ele>
        <time>2019-01-19T09:48:04.000Z</time>
      </trkpt>
      <trkpt lat="45.60769" lon="6.65374">
        <ele>1982.8000488281</ele>
        <time>2019-01-19T09:48:08.000Z</time>
      </trkpt>
      <trkpt lat="45.60772" lon="6.65375">
        <ele>1983</ele>
        <time>2019-01-19T09:48:13.000Z</time>
      </trkpt>
      <trkpt lat="45.60779" lon="6.65377">
        <ele>1984.1999511719</ele>
        <time>2019-01-19T09:48:22.000Z</time>
      </trkpt>
      <trkpt lat="45.60783" lon="6.6538">
        <ele>1985.1999511719</ele>
        <time>2019-01-19T09:48:28.000Z</time>
      </trkpt>
      <trkpt lat="45.60786" lon="6.65382">
        <ele>1985.5999755859</ele>
        <time>2019-01-19T09:48:30.000Z</time>
      </trkpt>
      <trkpt lat="45.60791" lon="6.65384">
        <ele>1987</ele>
        <time>2019-01-19T09:48:35.000Z</time>
      </trkpt>
      <trkpt lat="45.60795" lon="6.65383">
        <ele>1988</ele>
        <time>2019-01-19T09:48:39.000Z</time>
      </trkpt>
      <trkpt lat="45.60796" lon="6.65383">
        <ele>1988.1999511719</ele>
        <time>2019-01-19T09:48:40.000Z</time>
      </trkpt>
      <trkpt lat="45.60797" lon="6.65383">
        <ele>1988.5999755859</ele>
        <time>2019-01-19T09:48:47.000Z</time>
      </trkpt>
      <trkpt lat="45.60797" lon="6.65383">
        <ele>1988.5999755859</ele>
        <time>2019-01-19T09:48:55.000Z</time>
      </trkpt>
      <trkpt lat="45.60797" lon="6.65383">
        <ele>1988.5999755859</ele>
        <time>2019-01-19T09:49:06.000Z</time>
      </trkpt>
      <trkpt lat="45.60797" lon="6.65383">
        <ele>1988.5999755859</ele>
        <time>2019-01-19T09:49:19.000Z</time>
      </trkpt>
      <trkpt lat="45.60797" lon="6.65381">
        <ele>1988.4000244141</ele>
        <time>2019-01-19T09:49:32.000Z</time>
      </trkpt>
      <trkpt lat="45.60797" lon="6.65381">
        <ele>1988.4000244141</ele>
        <time>2019-01-19T09:49:41.000Z</time>
      </trkpt>
      <trkpt lat="45.60797" lon="6.65381">
        <ele>1988.4000244141</ele>
        <time>2019-01-19T09:49:46.000Z</time>
      </trkpt>
      <trkpt lat="45.60797" lon="6.65381">
        <ele>1988.4000244141</ele>
        <time>2019-01-19T09:49:53.000Z</time>
      </trkpt>
      <trkpt lat="45.60797" lon="6.65381">
        <ele>1988.4000244141</ele>
        <time>2019-01-19T09:49:59.000Z</time>
      </trkpt>
      <trkpt lat="45.60797" lon="6.65379">
        <ele>1988.5999755859</ele>
        <time>2019-01-19T09:50:13.000Z</time>
      </trkpt>
      <trkpt lat="45.60797" lon="6.65379">
        <ele>1988.5999755859</ele>
        <time>2019-01-19T09:50:26.000Z</time>
      </trkpt>
      <trkpt lat="45.60797" lon="6.65379">
        <ele>1988.5999755859</ele>
        <time>2019-01-19T09:50:31.000Z</time>
      </trkpt>
      <trkpt lat="45.60796" lon="6.65377">
        <ele>1988.4000244141</ele>
        <time>2019-01-19T09:50:41.000Z</time>
      </trkpt>
      <trkpt lat="45.60796" lon="6.65376">
        <ele>1988.5999755859</ele>
        <time>2019-01-19T09:50:44.000Z</time>
      </trkpt>
      <trkpt lat="45.60796" lon="6.65374">
        <ele>1988.5999755859</ele>
        <time>2019-01-19T09:50:46.000Z</time>
      </trkpt>
      <trkpt lat="45.60796" lon="6.65374">
        <ele>1988.5999755859</ele>
        <time>2019-01-19T09:50:48.000Z</time>
      </trkpt>
      <trkpt lat="45.60796" lon="6.6537">
        <ele>1988.8000488281</ele>
        <time>2019-01-19T09:50:51.000Z</time>
      </trkpt>
      <trkpt lat="45.6079" lon="6.65351">
        <ele>1987.8000488281</ele>
        <time>2019-01-19T09:50:56.000Z</time>
      </trkpt>
      <trkpt lat="45.6079" lon="6.6535">
        <ele>1987.8000488281</ele>
        <time>2019-01-19T09:50:57.000Z</time>
      </trkpt>
      <trkpt lat="45.60788" lon="6.65342">
        <ele>1987.5999755859</ele>
        <time>2019-01-19T09:51:01.000Z</time>
      </trkpt>
      <trkpt lat="45.60787" lon="6.6534">
        <ele>1987.4000244141</ele>
        <time>2019-01-19T09:51:02.000Z</time>
      </trkpt>
      <trkpt lat="45.60785" lon="6.65335">
        <ele>1987.1999511719</ele>
        <time>2019-01-19T09:51:06.000Z</time>
      </trkpt>
      <trkpt lat="45.60785" lon="6.65333">
        <ele>1987.1999511719</ele>
        <time>2019-01-19T09:51:08.000Z</time>
      </trkpt>
      <trkpt lat="45.60784" lon="6.65332">
        <ele>1987</ele>
        <time>2019-01-19T09:51:10.000Z</time>
      </trkpt>
      <trkpt lat="45.60784" lon="6.65331">
        <ele>1987</ele>
        <time>2019-01-19T09:51:13.000Z</time>
      </trkpt>
      <trkpt lat="45.60784" lon="6.65331">
        <ele>1987</ele>
        <time>2019-01-19T09:51:17.000Z</time>
      </trkpt>
      <trkpt lat="45.60782" lon="6.65327">
        <ele>1986.8000488281</ele>
        <time>2019-01-19T09:51:25.000Z</time>
      </trkpt>
      <trkpt lat="45.60781" lon="6.65322">
        <ele>1986.5999755859</ele>
        <time>2019-01-19T09:51:29.000Z</time>
      </trkpt>
      <trkpt lat="45.6078" lon="6.6532">
        <ele>1986.5999755859</ele>
        <time>2019-01-19T09:51:30.000Z</time>
      </trkpt>
      <trkpt lat="45.60778" lon="6.65314">
        <ele>1987.1999511719</ele>
        <time>2019-01-19T09:51:35.000Z</time>
      </trkpt>
      <trkpt lat="45.60777" lon="6.6531">
        <ele>1988</ele>
        <time>2019-01-19T09:51:38.000Z</time>
      </trkpt>
      <trkpt lat="45.60777" lon="6.65309">
        <ele>1988.1999511719</ele>
        <time>2019-01-19T09:51:40.000Z</time>
      </trkpt>
      <trkpt lat="45.60776" lon="6.65305">
        <ele>1988.8000488281</ele>
        <time>2019-01-19T09:51:44.000Z</time>
      </trkpt>
      <trkpt lat="45.60775" lon="6.65302">
        <ele>1989.4000244141</ele>
        <time>2019-01-19T09:51:47.000Z</time>
      </trkpt>
      <trkpt lat="45.60774" lon="6.65297">
        <ele>1990.4000244141</ele>
        <time>2019-01-19T09:51:50.000Z</time>
      </trkpt>
      <trkpt lat="45.60774" lon="6.65297">
        <ele>1990.4000244141</ele>
        <time>2019-01-19T09:51:52.000Z</time>
      </trkpt>
      <trkpt lat="45.60773" lon="6.65295">
        <ele>1990.4000244141</ele>
        <time>2019-01-19T09:51:54.000Z</time>
      </trkpt>
      <trkpt lat="45.60772" lon="6.65293">
        <ele>1990.5999755859</ele>
        <time>2019-01-19T09:51:59.000Z</time>
      </trkpt>
      <trkpt lat="45.60773" lon="6.65293">
        <ele>1990.8000488281</ele>
        <time>2019-01-19T09:52:02.000Z</time>
      </trkpt>
      <trkpt lat="45.60774" lon="6.65294">
        <ele>1991</ele>
        <time>2019-01-19T09:52:05.000Z</time>
      </trkpt>
      <trkpt lat="45.60775" lon="6.65295">
        <ele>1991</ele>
        <time>2019-01-19T09:52:07.000Z</time>
      </trkpt>
      <trkpt lat="45.60779" lon="6.65299">
        <ele>1991</ele>
        <time>2019-01-19T09:52:14.000Z</time>
      </trkpt>
      <trkpt lat="45.60781" lon="6.653">
        <ele>1991.4000244141</ele>
        <time>2019-01-19T09:52:16.000Z</time>
      </trkpt>
      <trkpt lat="45.60784" lon="6.65302">
        <ele>1991.5999755859</ele>
        <time>2019-01-19T09:52:22.000Z</time>
      </trkpt>
      <trkpt lat="45.60785" lon="6.65302">
        <ele>1992</ele>
        <time>2019-01-19T09:52:23.000Z</time>
      </trkpt>
      <trkpt lat="45.60793" lon="6.65307">
        <ele>1993.1999511719</ele>
        <time>2019-01-19T09:52:31.000Z</time>
      </trkpt>
      <trkpt lat="45.60807" lon="6.65303">
        <ele>2000.4000244141</ele>
        <time>2019-01-19T09:52:40.000Z</time>
      </trkpt>
      <trkpt lat="45.60808" lon="6.65303">
        <ele>2000.4000244141</ele>
        <time>2019-01-19T09:52:42.000Z</time>
      </trkpt>
      <trkpt lat="45.60808" lon="6.65303">
        <ele>2000.4000244141</ele>
        <time>2019-01-19T09:52:49.000Z</time>
      </trkpt>
      <trkpt lat="45.60809" lon="6.65303">
        <ele>2001</ele>
        <time>2019-01-19T09:52:57.000Z</time>
      </trkpt>
      <trkpt lat="45.60809" lon="6.65303">
        <ele>2001</ele>
        <time>2019-01-19T09:53:00.000Z</time>
      </trkpt>
      <trkpt lat="45.6081" lon="6.65302">
        <ele>2001.5999755859</ele>
        <time>2019-01-19T09:53:04.000Z</time>
      </trkpt>
      <trkpt lat="45.6081" lon="6.65302">
        <ele>2002</ele>
        <time>2019-01-19T09:53:06.000Z</time>
      </trkpt>
      <trkpt lat="45.60811" lon="6.65301">
        <ele>2002.5999755859</ele>
        <time>2019-01-19T09:53:08.000Z</time>
      </trkpt>
      <trkpt lat="45.60813" lon="6.653">
        <ele>2003.4000244141</ele>
        <time>2019-01-19T09:53:12.000Z</time>
      </trkpt>
      <trkpt lat="45.60813" lon="6.653">
        <ele>2003.4000244141</ele>
        <time>2019-01-19T09:53:13.000Z</time>
      </trkpt>
      <trkpt lat="45.60817" lon="6.65298">
        <ele>2005.8000488281</ele>
        <time>2019-01-19T09:53:16.000Z</time>
      </trkpt>
      <trkpt lat="45.60824" lon="6.65295">
        <ele>2009.1999511719</ele>
        <time>2019-01-19T09:53:20.000Z</time>
      </trkpt>
      <trkpt lat="45.60826" lon="6.65295">
        <ele>2010</ele>
        <time>2019-01-19T09:53:26.000Z</time>
      </trkpt>
      <trkpt lat="45.60828" lon="6.65294">
        <ele>2010.8000488281</ele>
        <time>2019-01-19T09:53:28.000Z</time>
      </trkpt>
      <trkpt lat="45.6083" lon="6.65293">
        <ele>2012.1999511719</ele>
        <time>2019-01-19T09:53:30.000Z</time>
      </trkpt>
      <trkpt lat="45.60831" lon="6.65292">
        <ele>2012.5999755859</ele>
        <time>2019-01-19T09:53:34.000Z</time>
      </trkpt>
      <trkpt lat="45.60831" lon="6.65292">
        <ele>2013</ele>
        <time>2019-01-19T09:53:36.000Z</time>
      </trkpt>
      <trkpt lat="45.60827" lon="6.6529">
        <ele>2012.4000244141</ele>
        <time>2019-01-19T09:53:41.000Z</time>
      </trkpt>
      <trkpt lat="45.60826" lon="6.65287">
        <ele>2013.1999511719</ele>
        <time>2019-01-19T09:53:46.000Z</time>
      </trkpt>
      <trkpt lat="45.60826" lon="6.65287">
        <ele>2013</ele>
        <time>2019-01-19T09:53:52.000Z</time>
      </trkpt>
      <trkpt lat="45.60826" lon="6.65287">
        <ele>2013</ele>
        <time>2019-01-19T09:54:03.000Z</time>
      </trkpt>
      <trkpt lat="45.60826" lon="6.65288">
        <ele>2012.8000488281</ele>
        <time>2019-01-19T09:54:15.000Z</time>
      </trkpt>
      <trkpt lat="45.60826" lon="6.65288">
        <ele>2012.8000488281</ele>
        <time>2019-01-19T09:54:27.000Z</time>
      </trkpt>
      <trkpt lat="45.60826" lon="6.65288">
        <ele>2012.8000488281</ele>
        <time>2019-01-19T09:54:37.000Z</time>
      </trkpt>
      <trkpt lat="45.60827" lon="6.65288">
        <ele>2013.4000244141</ele>
        <time>2019-01-19T09:54:51.000Z</time>
      </trkpt>
      <trkpt lat="45.60827" lon="6.65288">
        <ele>2013.4000244141</ele>
        <time>2019-01-19T09:55:00.000Z</time>
      </trkpt>
      <trkpt lat="45.60826" lon="6.65286">
        <ele>2013.4000244141</ele>
        <time>2019-01-19T09:55:04.000Z</time>
      </trkpt>
      <trkpt lat="45.60824" lon="6.65285">
        <ele>2013.4000244141</ele>
        <time>2019-01-19T09:55:05.000Z</time>
      </trkpt>
      <trkpt lat="45.60824" lon="6.65284">
        <ele>2013.5999755859</ele>
        <time>2019-01-19T09:55:06.000Z</time>
      </trkpt>
      <trkpt lat="45.60822" lon="6.65281">
        <ele>2014</ele>
        <time>2019-01-19T09:55:10.000Z</time>
      </trkpt>
      <trkpt lat="45.60821" lon="6.65279">
        <ele>2014.5999755859</ele>
        <time>2019-01-19T09:55:15.000Z</time>
      </trkpt>
      <trkpt lat="45.60818" lon="6.65275">
        <ele>2015</ele>
        <time>2019-01-19T09:55:19.000Z</time>
      </trkpt>
      <trkpt lat="45.60817" lon="6.65273">
        <ele>2015.4000244141</ele>
        <time>2019-01-19T09:55:21.000Z</time>
      </trkpt>
      <trkpt lat="45.60816" lon="6.65272">
        <ele>2015.5999755859</ele>
        <time>2019-01-19T09:55:23.000Z</time>
      </trkpt>
      <trkpt lat="45.60816" lon="6.65271">
        <ele>2015.8000488281</ele>
        <time>2019-01-19T09:55:24.000Z</time>
      </trkpt>
      <trkpt lat="45.60814" lon="6.65269">
        <ele>2016</ele>
        <time>2019-01-19T09:55:27.000Z</time>
      </trkpt>
      <trkpt lat="45.60814" lon="6.65269">
        <ele>2016.1999511719</ele>
        <time>2019-01-19T09:55:32.000Z</time>
      </trkpt>
      <trkpt lat="45.60814" lon="6.65269">
        <ele>2016.1999511719</ele>
        <time>2019-01-19T09:55:34.000Z</time>
      </trkpt>
      <trkpt lat="45.60814" lon="6.65268">
        <ele>2016.8000488281</ele>
        <time>2019-01-19T09:55:38.000Z</time>
      </trkpt>
      <trkpt lat="45.60814" lon="6.65268">
        <ele>2016.8000488281</ele>
        <time>2019-01-19T09:55:39.000Z</time>
      </trkpt>
      <trkpt lat="45.60818" lon="6.65265">
        <ele>2019</ele>
        <time>2019-01-19T09:55:45.000Z</time>
      </trkpt>
      <trkpt lat="45.60821" lon="6.65263">
        <ele>2021</ele>
        <time>2019-01-19T09:55:48.000Z</time>
      </trkpt>
      <trkpt lat="45.60823" lon="6.65262">
        <ele>2021.8000488281</ele>
        <time>2019-01-19T09:55:50.000Z</time>
      </trkpt>
      <trkpt lat="45.60827" lon="6.6526">
        <ele>2024.1999511719</ele>
        <time>2019-01-19T09:55:55.000Z</time>
      </trkpt>
      <trkpt lat="45.60829" lon="6.65259">
        <ele>2024.8000488281</ele>
        <time>2019-01-19T09:55:57.000Z</time>
      </trkpt>
      <trkpt lat="45.60835" lon="6.65257">
        <ele>2027</ele>
        <time>2019-01-19T09:56:01.000Z</time>
      </trkpt>
      <trkpt lat="45.60841" lon="6.65254">
        <ele>2029.1999511719</ele>
        <time>2019-01-19T09:56:06.000Z</time>
      </trkpt>
      <trkpt lat="45.60844" lon="6.65253">
        <ele>2030.1999511719</ele>
        <time>2019-01-19T09:56:09.000Z</time>
      </trkpt>
      <trkpt lat="45.60846" lon="6.65252">
        <ele>2031</ele>
        <time>2019-01-19T09:56:13.000Z</time>
      </trkpt>
      <trkpt lat="45.60846" lon="6.65252">
        <ele>2031</ele>
        <time>2019-01-19T09:56:18.000Z</time>
      </trkpt>
      <trkpt lat="45.60843" lon="6.65251">
        <ele>2030.5999755859</ele>
        <time>2019-01-19T09:56:22.000Z</time>
      </trkpt>
      <trkpt lat="45.6084" lon="6.65251">
        <ele>2029.8000488281</ele>
        <time>2019-01-19T09:56:25.000Z</time>
      </trkpt>
      <trkpt lat="45.60839" lon="6.6525">
        <ele>2029.8000488281</ele>
        <time>2019-01-19T09:56:27.000Z</time>
      </trkpt>
      <trkpt lat="45.60839" lon="6.65248">
        <ele>2030.1999511719</ele>
        <time>2019-01-19T09:56:29.000Z</time>
      </trkpt>
      <trkpt lat="45.60836" lon="6.65246">
        <ele>2030.4000244141</ele>
        <time>2019-01-19T09:56:34.000Z</time>
      </trkpt>
      <trkpt lat="45.60833" lon="6.65243">
        <ele>2030.4000244141</ele>
        <time>2019-01-19T09:56:39.000Z</time>
      </trkpt>
      <trkpt lat="45.60833" lon="6.65243">
        <ele>2030.5999755859</ele>
        <time>2019-01-19T09:56:40.000Z</time>
      </trkpt>
      <trkpt lat="45.60831" lon="6.65238">
        <ele>2031.1999511719</ele>
        <time>2019-01-19T09:56:45.000Z</time>
      </trkpt>
      <trkpt lat="45.6083" lon="6.65238">
        <ele>2031.1999511719</ele>
        <time>2019-01-19T09:56:47.000Z</time>
      </trkpt>
      <trkpt lat="45.60829" lon="6.65238">
        <ele>2031</ele>
        <time>2019-01-19T09:56:49.000Z</time>
      </trkpt>
      <trkpt lat="45.60828" lon="6.65236">
        <ele>2031</ele>
        <time>2019-01-19T09:56:53.000Z</time>
      </trkpt>
      <trkpt lat="45.60825" lon="6.65234">
        <ele>2031.4000244141</ele>
        <time>2019-01-19T09:56:58.000Z</time>
      </trkpt>
      <trkpt lat="45.60824" lon="6.65233">
        <ele>2031.8000488281</ele>
        <time>2019-01-19T09:57:03.000Z</time>
      </trkpt>
      <trkpt lat="45.60825" lon="6.65231">
        <ele>2032.4000244141</ele>
        <time>2019-01-19T09:57:09.000Z</time>
      </trkpt>
      <trkpt lat="45.60827" lon="6.65229">
        <ele>2034</ele>
        <time>2019-01-19T09:57:13.000Z</time>
      </trkpt>
      <trkpt lat="45.60834" lon="6.65226">
        <ele>2037.1999511719</ele>
        <time>2019-01-19T09:57:22.000Z</time>
      </trkpt>
      <trkpt lat="45.6084" lon="6.65225">
        <ele>2038.8000488281</ele>
        <time>2019-01-19T09:57:29.000Z</time>
      </trkpt>
      <trkpt lat="45.60842" lon="6.65225">
        <ele>2039.4000244141</ele>
        <time>2019-01-19T09:57:31.000Z</time>
      </trkpt>
      <trkpt lat="45.60848" lon="6.65223">
        <ele>2041.4000244141</ele>
        <time>2019-01-19T09:57:37.000Z</time>
      </trkpt>
      <trkpt lat="45.60851" lon="6.65223">
        <ele>2042</ele>
        <time>2019-01-19T09:57:41.000Z</time>
      </trkpt>
      <trkpt lat="45.60851" lon="6.65223">
        <ele>2042.4000244141</ele>
        <time>2019-01-19T09:57:42.000Z</time>
      </trkpt>
      <trkpt lat="45.60855" lon="6.65222">
        <ele>2043.5999755859</ele>
        <time>2019-01-19T09:57:47.000Z</time>
      </trkpt>
      <trkpt lat="45.60856" lon="6.65222">
        <ele>2044</ele>
        <time>2019-01-19T09:57:49.000Z</time>
      </trkpt>
      <trkpt lat="45.60858" lon="6.65222">
        <ele>2044.1999511719</ele>
        <time>2019-01-19T09:57:51.000Z</time>
      </trkpt>
      <trkpt lat="45.60862" lon="6.65225">
        <ele>2043.8000488281</ele>
        <time>2019-01-19T09:57:58.000Z</time>
      </trkpt>
      <trkpt lat="45.60863" lon="6.65225">
        <ele>2044.1999511719</ele>
        <time>2019-01-19T09:58:00.000Z</time>
      </trkpt>
      <trkpt lat="45.60866" lon="6.65226">
        <ele>2045</ele>
        <time>2019-01-19T09:58:04.000Z</time>
      </trkpt>
      <trkpt lat="45.6087" lon="6.65228">
        <ele>2045</ele>
        <time>2019-01-19T09:58:10.000Z</time>
      </trkpt>
      <trkpt lat="45.60873" lon="6.65227">
        <ele>2045.8000488281</ele>
        <time>2019-01-19T09:58:16.000Z</time>
      </trkpt>
      <trkpt lat="45.60875" lon="6.65226">
        <ele>2046.5999755859</ele>
        <time>2019-01-19T09:58:20.000Z</time>
      </trkpt>
      <trkpt lat="45.60875" lon="6.65226">
        <ele>2046.5999755859</ele>
        <time>2019-01-19T09:58:21.000Z</time>
      </trkpt>
      <trkpt lat="45.60876" lon="6.65226">
        <ele>2046.8000488281</ele>
        <time>2019-01-19T09:58:24.000Z</time>
      </trkpt>
      <trkpt lat="45.60876" lon="6.65226">
        <ele>2047</ele>
        <time>2019-01-19T09:58:25.000Z</time>
      </trkpt>
      <trkpt lat="45.60876" lon="6.65226">
        <ele>2047</ele>
        <time>2019-01-19T09:58:28.000Z</time>
      </trkpt>
      <trkpt lat="45.60876" lon="6.65226">
        <ele>2047</ele>
        <time>2019-01-19T09:58:32.000Z</time>
      </trkpt>
      <trkpt lat="45.60876" lon="6.65226">
        <ele>2047</ele>
        <time>2019-01-19T09:58:42.000Z</time>
      </trkpt>
      <trkpt lat="45.60878" lon="6.65224">
        <ele>2047.1999511719</ele>
        <time>2019-01-19T09:58:44.000Z</time>
      </trkpt>
      <trkpt lat="45.60879" lon="6.65223">
        <ele>2047.5999755859</ele>
        <time>2019-01-19T09:58:47.000Z</time>
      </trkpt>
      <trkpt lat="45.60882" lon="6.65221">
        <ele>2048</ele>
        <time>2019-01-19T09:58:51.000Z</time>
      </trkpt>
      <trkpt lat="45.60881" lon="6.6522">
        <ele>2048.1999511719</ele>
        <time>2019-01-19T09:58:54.000Z</time>
      </trkpt>
      <trkpt lat="45.6088" lon="6.65218">
        <ele>2048.6000976562</ele>
        <time>2019-01-19T09:58:57.000Z</time>
      </trkpt>
      <trkpt lat="45.60879" lon="6.65216">
        <ele>2049</ele>
        <time>2019-01-19T09:58:59.000Z</time>
      </trkpt>
      <trkpt lat="45.60877" lon="6.65213">
        <ele>2049.6000976562</ele>
        <time>2019-01-19T09:59:03.000Z</time>
      </trkpt>
      <trkpt lat="45.60876" lon="6.65211">
        <ele>2050</ele>
        <time>2019-01-19T09:59:05.000Z</time>
      </trkpt>
      <trkpt lat="45.60874" lon="6.65206">
        <ele>2051</ele>
        <time>2019-01-19T09:59:08.000Z</time>
      </trkpt>
      <trkpt lat="45.60874" lon="6.65206">
        <ele>2051</ele>
        <time>2019-01-19T09:59:10.000Z</time>
      </trkpt>
      <trkpt lat="45.60873" lon="6.65204">
        <ele>2051.3999023438</ele>
        <time>2019-01-19T09:59:13.000Z</time>
      </trkpt>
      <trkpt lat="45.60872" lon="6.65202">
        <ele>2051.6000976562</ele>
        <time>2019-01-19T09:59:14.000Z</time>
      </trkpt>
      <trkpt lat="45.60869" lon="6.652">
        <ele>2052.1999511719</ele>
        <time>2019-01-19T09:59:18.000Z</time>
      </trkpt>
      <trkpt lat="45.60869" lon="6.652">
        <ele>2052.1999511719</ele>
        <time>2019-01-19T09:59:19.000Z</time>
      </trkpt>
      <trkpt lat="45.60867" lon="6.65197">
        <ele>2052.8000488281</ele>
        <time>2019-01-19T09:59:22.000Z</time>
      </trkpt>
      <trkpt lat="45.60867" lon="6.65195">
        <ele>2053</ele>
        <time>2019-01-19T09:59:25.000Z</time>
      </trkpt>
      <trkpt lat="45.60867" lon="6.65193">
        <ele>2053.6000976562</ele>
        <time>2019-01-19T09:59:29.000Z</time>
      </trkpt>
      <trkpt lat="45.60868" lon="6.65191">
        <ele>2054</ele>
        <time>2019-01-19T09:59:32.000Z</time>
      </trkpt>
      <trkpt lat="45.60869" lon="6.65191">
        <ele>2054</ele>
        <time>2019-01-19T09:59:38.000Z</time>
      </trkpt>
      <trkpt lat="45.60869" lon="6.65191">
        <ele>2054</ele>
        <time>2019-01-19T09:59:39.000Z</time>
      </trkpt>
      <trkpt lat="45.60873" lon="6.65192">
        <ele>2053.8000488281</ele>
        <time>2019-01-19T09:59:43.000Z</time>
      </trkpt>
      <trkpt lat="45.60876" lon="6.65191">
        <ele>2054</ele>
        <time>2019-01-19T09:59:47.000Z</time>
      </trkpt>
      <trkpt lat="45.60878" lon="6.6519">
        <ele>2054.1999511719</ele>
        <time>2019-01-19T09:59:51.000Z</time>
      </trkpt>
      <trkpt lat="45.60879" lon="6.6519">
        <ele>2054.3999023438</ele>
        <time>2019-01-19T09:59:57.000Z</time>
      </trkpt>
      <trkpt lat="45.6088" lon="6.6519">
        <ele>2054.3999023438</ele>
        <time>2019-01-19T10:00:02.000Z</time>
      </trkpt>
      <trkpt lat="45.6088" lon="6.6519">
        <ele>2054.3999023438</ele>
        <time>2019-01-19T10:00:03.000Z</time>
      </trkpt>
      <trkpt lat="45.6088" lon="6.6519">
        <ele>2054.3999023438</ele>
        <time>2019-01-19T10:00:24.000Z</time>
      </trkpt>
      <trkpt lat="45.60883" lon="6.65189">
        <ele>2054.6000976562</ele>
        <time>2019-01-19T10:00:33.000Z</time>
      </trkpt>
      <trkpt lat="45.60885" lon="6.65187">
        <ele>2055</ele>
        <time>2019-01-19T10:00:38.000Z</time>
      </trkpt>
      <trkpt lat="45.60886" lon="6.65187">
        <ele>2055.1999511719</ele>
        <time>2019-01-19T10:00:42.000Z</time>
      </trkpt>
      <trkpt lat="45.60886" lon="6.65187">
        <ele>2055.1999511719</ele>
        <time>2019-01-19T10:00:44.000Z</time>
      </trkpt>
      <trkpt lat="45.60886" lon="6.65187">
        <ele>2055.1999511719</ele>
        <time>2019-01-19T10:01:07.000Z</time>
      </trkpt>
      <trkpt lat="45.60888" lon="6.65185">
        <ele>2055.8000488281</ele>
        <time>2019-01-19T10:01:15.000Z</time>
      </trkpt>
      <trkpt lat="45.6089" lon="6.65185">
        <ele>2056.3999023438</ele>
        <time>2019-01-19T10:01:19.000Z</time>
      </trkpt>
      <trkpt lat="45.60891" lon="6.65184">
        <ele>2056.3999023438</ele>
        <time>2019-01-19T10:01:20.000Z</time>
      </trkpt>
      <trkpt lat="45.6089" lon="6.65183">
        <ele>2056.3999023438</ele>
        <time>2019-01-19T10:01:26.000Z</time>
      </trkpt>
      <trkpt lat="45.60888" lon="6.6518">
        <ele>2056.8000488281</ele>
        <time>2019-01-19T10:01:30.000Z</time>
      </trkpt>
      <trkpt lat="45.60885" lon="6.65178">
        <ele>2056.8000488281</ele>
        <time>2019-01-19T10:01:34.000Z</time>
      </trkpt>
      <trkpt lat="45.60884" lon="6.65177">
        <ele>2057</ele>
        <time>2019-01-19T10:01:37.000Z</time>
      </trkpt>
      <trkpt lat="45.60883" lon="6.65176">
        <ele>2057.1999511719</ele>
        <time>2019-01-19T10:01:40.000Z</time>
      </trkpt>
      <trkpt lat="45.60883" lon="6.65176">
        <ele>2057.1999511719</ele>
        <time>2019-01-19T10:01:41.000Z</time>
      </trkpt>
      <trkpt lat="45.6088" lon="6.65173">
        <ele>2057.8000488281</ele>
        <time>2019-01-19T10:01:47.000Z</time>
      </trkpt>
      <trkpt lat="45.60879" lon="6.65171">
        <ele>2058</ele>
        <time>2019-01-19T10:01:49.000Z</time>
      </trkpt>
      <trkpt lat="45.60877" lon="6.6517">
        <ele>2058.3999023438</ele>
        <time>2019-01-19T10:01:52.000Z</time>
      </trkpt>
      <trkpt lat="45.60876" lon="6.65168">
        <ele>2058.8000488281</ele>
        <time>2019-01-19T10:01:54.000Z</time>
      </trkpt>
      <trkpt lat="45.60876" lon="6.65168">
        <ele>2058.8000488281</ele>
        <time>2019-01-19T10:01:57.000Z</time>
      </trkpt>
      <trkpt lat="45.60872" lon="6.65164">
        <ele>2059.6000976562</ele>
        <time>2019-01-19T10:02:02.000Z</time>
      </trkpt>
      <trkpt lat="45.60871" lon="6.65162">
        <ele>2059.8000488281</ele>
        <time>2019-01-19T10:02:04.000Z</time>
      </trkpt>
      <trkpt lat="45.60871" lon="6.65162">
        <ele>2059.8000488281</ele>
        <time>2019-01-19T10:02:07.000Z</time>
      </trkpt>
      <trkpt lat="45.60871" lon="6.65162">
        <ele>2059.8000488281</ele>
        <time>2019-01-19T10:02:09.000Z</time>
      </trkpt>
      <trkpt lat="45.60871" lon="6.65162">
        <ele>2059.8000488281</ele>
        <time>2019-01-19T10:02:10.000Z</time>
      </trkpt>
      <trkpt lat="45.60868" lon="6.65158">
        <ele>2060.8000488281</ele>
        <time>2019-01-19T10:02:17.000Z</time>
      </trkpt>
      <trkpt lat="45.60867" lon="6.65156">
        <ele>2061</ele>
        <time>2019-01-19T10:02:21.000Z</time>
      </trkpt>
      <trkpt lat="45.60866" lon="6.65156">
        <ele>2061</ele>
        <time>2019-01-19T10:02:22.000Z</time>
      </trkpt>
      <trkpt lat="45.60864" lon="6.65154">
        <ele>2061.3999023438</ele>
        <time>2019-01-19T10:02:26.000Z</time>
      </trkpt>
      <trkpt lat="45.60863" lon="6.65153">
        <ele>2061.6000976562</ele>
        <time>2019-01-19T10:02:29.000Z</time>
      </trkpt>
      <trkpt lat="45.60863" lon="6.65151">
        <ele>2062.3999023438</ele>
        <time>2019-01-19T10:02:32.000Z</time>
      </trkpt>
      <trkpt lat="45.60862" lon="6.65149">
        <ele>2063.6000976562</ele>
        <time>2019-01-19T10:02:35.000Z</time>
      </trkpt>
      <trkpt lat="45.6086" lon="6.65147">
        <ele>2065</ele>
        <time>2019-01-19T10:02:38.000Z</time>
      </trkpt>
      <trkpt lat="45.60859" lon="6.65143">
        <ele>2066.8000488281</ele>
        <time>2019-01-19T10:02:41.000Z</time>
      </trkpt>
      <trkpt lat="45.60859" lon="6.65142">
        <ele>2067.3999023438</ele>
        <time>2019-01-19T10:02:42.000Z</time>
      </trkpt>
      <trkpt lat="45.60857" lon="6.65136">
        <ele>2070.8000488281</ele>
        <time>2019-01-19T10:02:48.000Z</time>
      </trkpt>
      <trkpt lat="45.60855" lon="6.65134">
        <ele>2072</ele>
        <time>2019-01-19T10:02:51.000Z</time>
      </trkpt>
      <trkpt lat="45.60852" lon="6.65133">
        <ele>2072.3999023438</ele>
        <time>2019-01-19T10:02:55.000Z</time>
      </trkpt>
      <trkpt lat="45.60852" lon="6.65133">
        <ele>2072.6000976562</ele>
        <time>2019-01-19T10:02:56.000Z</time>
      </trkpt>
      <trkpt lat="45.60851" lon="6.65132">
        <ele>2072.8000488281</ele>
        <time>2019-01-19T10:02:59.000Z</time>
      </trkpt>
      <trkpt lat="45.6085" lon="6.65127">
        <ele>2076</ele>
        <time>2019-01-19T10:03:04.000Z</time>
      </trkpt>
      <trkpt lat="45.6085" lon="6.65119">
        <ele>2080.1999511719</ele>
        <time>2019-01-19T10:03:08.000Z</time>
      </trkpt>
      <trkpt lat="45.60849" lon="6.65116">
        <ele>2081.8000488281</ele>
        <time>2019-01-19T10:03:11.000Z</time>
      </trkpt>
      <trkpt lat="45.60849" lon="6.65114">
        <ele>2082.8000488281</ele>
        <time>2019-01-19T10:03:13.000Z</time>
      </trkpt>
      <trkpt lat="45.60849" lon="6.65104">
        <ele>2087.6000976562</ele>
        <time>2019-01-19T10:03:19.000Z</time>
      </trkpt>
      <trkpt lat="45.60849" lon="6.65102">
        <ele>2088.3999023438</ele>
        <time>2019-01-19T10:03:20.000Z</time>
      </trkpt>
      <trkpt lat="45.6085" lon="6.65097">
        <ele>2090.8000488281</ele>
        <time>2019-01-19T10:03:24.000Z</time>
      </trkpt>
      <trkpt lat="45.60848" lon="6.65095">
        <ele>2092</ele>
        <time>2019-01-19T10:03:26.000Z</time>
      </trkpt>
      <trkpt lat="45.60848" lon="6.65094">
        <ele>2092.6000976562</ele>
        <time>2019-01-19T10:03:29.000Z</time>
      </trkpt>
      <trkpt lat="45.60845" lon="6.6509">
        <ele>2094.6000976562</ele>
        <time>2019-01-19T10:03:34.000Z</time>
      </trkpt>
      <trkpt lat="45.60843" lon="6.65089">
        <ele>2095.1999511719</ele>
        <time>2019-01-19T10:03:37.000Z</time>
      </trkpt>
      <trkpt lat="45.60841" lon="6.65088">
        <ele>2095.8000488281</ele>
        <time>2019-01-19T10:03:39.000Z</time>
      </trkpt>
      <trkpt lat="45.60841" lon="6.65088">
        <ele>2096</ele>
        <time>2019-01-19T10:03:40.000Z</time>
      </trkpt>
      <trkpt lat="45.6084" lon="6.65087">
        <ele>2096.3999023438</ele>
        <time>2019-01-19T10:03:42.000Z</time>
      </trkpt>
      <trkpt lat="45.60836" lon="6.65087">
        <ele>2096.3999023438</ele>
        <time>2019-01-19T10:03:45.000Z</time>
      </trkpt>
      <trkpt lat="45.60834" lon="6.65086">
        <ele>2097.3999023438</ele>
        <time>2019-01-19T10:03:49.000Z</time>
      </trkpt>
      <trkpt lat="45.60835" lon="6.65085">
        <ele>2097.6000976562</ele>
        <time>2019-01-19T10:03:50.000Z</time>
      </trkpt>
      <trkpt lat="45.60833" lon="6.65083">
        <ele>2098.8000488281</ele>
        <time>2019-01-19T10:03:53.000Z</time>
      </trkpt>
      <trkpt lat="45.6083" lon="6.6508">
        <ele>2100.6000976562</ele>
        <time>2019-01-19T10:04:01.000Z</time>
      </trkpt>
      <trkpt lat="45.60829" lon="6.65077">
        <ele>2101.8000488281</ele>
        <time>2019-01-19T10:04:11.000Z</time>
      </trkpt>
      <trkpt lat="45.60837" lon="6.65061">
        <ele>2109</ele>
        <time>2019-01-19T10:04:32.000Z</time>
      </trkpt>
      <trkpt lat="45.60837" lon="6.65061">
        <ele>2109</ele>
        <time>2019-01-19T10:04:33.000Z</time>
      </trkpt>
      <trkpt lat="45.60846" lon="6.65055">
        <ele>2111.8000488281</ele>
        <time>2019-01-19T10:04:41.000Z</time>
      </trkpt>
      <trkpt lat="45.60842" lon="6.65059">
        <ele>2110</ele>
        <time>2019-01-19T10:04:55.000Z</time>
      </trkpt>
      <trkpt lat="45.60839" lon="6.65062">
        <ele>2108.8000488281</ele>
        <time>2019-01-19T10:05:05.000Z</time>
      </trkpt>
      <trkpt lat="45.60827" lon="6.65077">
        <ele>2101.8000488281</ele>
        <time>2019-01-19T10:05:07.000Z</time>
      </trkpt>
      <trkpt lat="45.60815" lon="6.65094">
        <ele>2093.6000976562</ele>
        <time>2019-01-19T10:05:10.000Z</time>
      </trkpt>
      <trkpt lat="45.60812" lon="6.65097">
        <ele>2091.8000488281</ele>
        <time>2019-01-19T10:05:11.000Z</time>
      </trkpt>
      <trkpt lat="45.60808" lon="6.65098">
        <ele>2091.3999023438</ele>
        <time>2019-01-19T10:05:18.000Z</time>
      </trkpt>
      <trkpt lat="45.60816" lon="6.6509">
        <ele>2096</ele>
        <time>2019-01-19T10:05:25.000Z</time>
      </trkpt>
      <trkpt lat="45.6082" lon="6.65085">
        <ele>2098.3999023438</ele>
        <time>2019-01-19T10:05:28.000Z</time>
      </trkpt>
      <trkpt lat="45.60821" lon="6.65083">
        <ele>2099</ele>
        <time>2019-01-19T10:05:29.000Z</time>
      </trkpt>
      <trkpt lat="45.60831" lon="6.65072">
        <ele>2104.3999023438</ele>
        <time>2019-01-19T10:05:36.000Z</time>
      </trkpt>
      <trkpt lat="45.60832" lon="6.6507">
        <ele>2105.1999511719</ele>
        <time>2019-01-19T10:05:37.000Z</time>
      </trkpt>
      <trkpt lat="45.60842" lon="6.65059">
        <ele>2109.8000488281</ele>
        <time>2019-01-19T10:05:41.000Z</time>
      </trkpt>
      <trkpt lat="45.60849" lon="6.65052">
        <ele>2113</ele>
        <time>2019-01-19T10:05:43.000Z</time>
      </trkpt>
      <trkpt lat="45.60862" lon="6.65039">
        <ele>2119.3999023438</ele>
        <time>2019-01-19T10:05:46.000Z</time>
      </trkpt>
      <trkpt lat="45.60885" lon="6.65014">
        <ele>2135.3999023438</ele>
        <time>2019-01-19T10:05:51.000Z</time>
      </trkpt>
      <trkpt lat="45.60899" lon="6.64998">
        <ele>2143.1999511719</ele>
        <time>2019-01-19T10:05:54.000Z</time>
      </trkpt>
      <trkpt lat="45.60931" lon="6.64959">
        <ele>2156.1999511719</ele>
        <time>2019-01-19T10:06:01.000Z</time>
      </trkpt>
      <trkpt lat="45.60935" lon="6.64953">
        <ele>2158.1999511719</ele>
        <time>2019-01-19T10:06:02.000Z</time>
      </trkpt>
      <trkpt lat="45.60937" lon="6.64948">
        <ele>2159.8000488281</ele>
        <time>2019-01-19T10:06:03.000Z</time>
      </trkpt>
      <trkpt lat="45.60942" lon="6.64937">
        <ele>2162.8000488281</ele>
        <time>2019-01-19T10:06:05.000Z</time>
      </trkpt>
      <trkpt lat="45.60945" lon="6.64932">
        <ele>2163.8000488281</ele>
        <time>2019-01-19T10:06:06.000Z</time>
      </trkpt>
      <trkpt lat="45.60951" lon="6.64915">
        <ele>2169</ele>
        <time>2019-01-19T10:06:10.000Z</time>
      </trkpt>
      <trkpt lat="45.60953" lon="6.64912">
        <ele>2169.3999023438</ele>
        <time>2019-01-19T10:06:11.000Z</time>
      </trkpt>
      <trkpt lat="45.60955" lon="6.64904">
        <ele>2172.6000976562</ele>
        <time>2019-01-19T10:06:14.000Z</time>
      </trkpt>
      <trkpt lat="45.60953" lon="6.64897">
        <ele>2181</ele>
        <time>2019-01-19T10:06:19.000Z</time>
      </trkpt>
      <trkpt lat="45.60952" lon="6.64897">
        <ele>2181.6000976562</ele>
        <time>2019-01-19T10:06:22.000Z</time>
      </trkpt>
      <trkpt lat="45.60947" lon="6.64898">
        <ele>2182</ele>
        <time>2019-01-19T10:06:26.000Z</time>
      </trkpt>
      <trkpt lat="45.60946" lon="6.64899">
        <ele>2181</ele>
        <time>2019-01-19T10:06:27.000Z</time>
      </trkpt>
      <trkpt lat="45.60945" lon="6.64899">
        <ele>2181.8000488281</ele>
        <time>2019-01-19T10:06:28.000Z</time>
      </trkpt>
      <trkpt lat="45.60944" lon="6.64899">
        <ele>2181.8000488281</ele>
        <time>2019-01-19T10:06:30.000Z</time>
      </trkpt>
      <trkpt lat="45.60942" lon="6.649">
        <ele>2181</ele>
        <time>2019-01-19T10:06:33.000Z</time>
      </trkpt>
      <trkpt lat="45.60942" lon="6.649">
        <ele>2181</ele>
        <time>2019-01-19T10:06:34.000Z</time>
      </trkpt>
      <trkpt lat="45.60938" lon="6.64902">
        <ele>2180.8000488281</ele>
        <time>2019-01-19T10:06:38.000Z</time>
      </trkpt>
      <trkpt lat="45.60936" lon="6.64903">
        <ele>2180.1999511719</ele>
        <time>2019-01-19T10:06:42.000Z</time>
      </trkpt>
      <trkpt lat="45.60932" lon="6.64905">
        <ele>2181</ele>
        <time>2019-01-19T10:06:47.000Z</time>
      </trkpt>
      <trkpt lat="45.60926" lon="6.64908">
        <ele>2181.8000488281</ele>
        <time>2019-01-19T10:06:51.000Z</time>
      </trkpt>
      <trkpt lat="45.60925" lon="6.64909">
        <ele>2181.8000488281</ele>
        <time>2019-01-19T10:06:53.000Z</time>
      </trkpt>
      <trkpt lat="45.60923" lon="6.64911">
        <ele>2182</ele>
        <time>2019-01-19T10:06:57.000Z</time>
      </trkpt>
      <trkpt lat="45.6092" lon="6.64911">
        <ele>2182.6000976562</ele>
        <time>2019-01-19T10:07:02.000Z</time>
      </trkpt>
      <trkpt lat="45.60919" lon="6.64911">
        <ele>2183</ele>
        <time>2019-01-19T10:07:03.000Z</time>
      </trkpt>
      <trkpt lat="45.60906" lon="6.64912">
        <ele>2187.8000488281</ele>
        <time>2019-01-19T10:07:07.000Z</time>
      </trkpt>
      <trkpt lat="45.60901" lon="6.64916">
        <ele>2187.8000488281</ele>
        <time>2019-01-19T10:07:08.000Z</time>
      </trkpt>
      <trkpt lat="45.60894" lon="6.64924">
        <ele>2185.3999023438</ele>
        <time>2019-01-19T10:07:11.000Z</time>
      </trkpt>
      <trkpt lat="45.6088" lon="6.64936">
        <ele>2182.1999511719</ele>
        <time>2019-01-19T10:07:17.000Z</time>
      </trkpt>
      <trkpt lat="45.60878" lon="6.64937">
        <ele>2182.1999511719</ele>
        <time>2019-01-19T10:07:18.000Z</time>
      </trkpt>
      <trkpt lat="45.60875" lon="6.64937">
        <ele>2183</ele>
        <time>2019-01-19T10:07:21.000Z</time>
      </trkpt>
      <trkpt lat="45.60872" lon="6.64938">
        <ele>2183.1999511719</ele>
        <time>2019-01-19T10:07:25.000Z</time>
      </trkpt>
      <trkpt lat="45.60871" lon="6.64938">
        <ele>2184</ele>
        <time>2019-01-19T10:07:28.000Z</time>
      </trkpt>
      <trkpt lat="45.6087" lon="6.64936">
        <ele>2185.6000976562</ele>
        <time>2019-01-19T10:07:32.000Z</time>
      </trkpt>
      <trkpt lat="45.60868" lon="6.64935">
        <ele>2186.6000976562</ele>
        <time>2019-01-19T10:07:35.000Z</time>
      </trkpt>
      <trkpt lat="45.60867" lon="6.64934">
        <ele>2187</ele>
        <time>2019-01-19T10:07:38.000Z</time>
      </trkpt>
      <trkpt lat="45.60867" lon="6.64934">
        <ele>2187.3999023438</ele>
        <time>2019-01-19T10:07:39.000Z</time>
      </trkpt>
      <trkpt lat="45.60863" lon="6.64933">
        <ele>2188.8000488281</ele>
        <time>2019-01-19T10:07:45.000Z</time>
      </trkpt>
      <trkpt lat="45.60863" lon="6.64933">
        <ele>2189</ele>
        <time>2019-01-19T10:07:46.000Z</time>
      </trkpt>
      <trkpt lat="45.60859" lon="6.64932">
        <ele>2191</ele>
        <time>2019-01-19T10:07:51.000Z</time>
      </trkpt>
      <trkpt lat="45.60859" lon="6.64932">
        <ele>2190.8000488281</ele>
        <time>2019-01-19T10:07:52.000Z</time>
      </trkpt>
      <trkpt lat="45.60857" lon="6.64931">
        <ele>2192</ele>
        <time>2019-01-19T10:07:55.000Z</time>
      </trkpt>
      <trkpt lat="45.60857" lon="6.64929">
        <ele>2193.6000976562</ele>
        <time>2019-01-19T10:08:01.000Z</time>
      </trkpt>
      <trkpt lat="45.60855" lon="6.64927">
        <ele>2194.6000976562</ele>
        <time>2019-01-19T10:08:06.000Z</time>
      </trkpt>
      <trkpt lat="45.60855" lon="6.64927">
        <ele>2194.8000488281</ele>
        <time>2019-01-19T10:08:09.000Z</time>
      </trkpt>
      <trkpt lat="45.60854" lon="6.64926">
        <ele>2195.8000488281</ele>
        <time>2019-01-19T10:08:12.000Z</time>
      </trkpt>
      <trkpt lat="45.60854" lon="6.64926">
        <ele>2196</ele>
        <time>2019-01-19T10:08:13.000Z</time>
      </trkpt>
      <trkpt lat="45.60851" lon="6.64925">
        <ele>2197.1999511719</ele>
        <time>2019-01-19T10:08:18.000Z</time>
      </trkpt>
      <trkpt lat="45.60851" lon="6.64923">
        <ele>2198.6000976562</ele>
        <time>2019-01-19T10:08:26.000Z</time>
      </trkpt>
      <trkpt lat="45.60851" lon="6.64922">
        <ele>2198.8000488281</ele>
        <time>2019-01-19T10:08:27.000Z</time>
      </trkpt>
      <trkpt lat="45.60808" lon="6.6499">
        <ele>2144.6000976562</ele>
        <time>2019-01-19T10:08:39.000Z</time>
      </trkpt>
      <trkpt lat="45.60766" lon="6.65031">
        <ele>2113</ele>
        <time>2019-01-19T10:08:52.000Z</time>
      </trkpt>
      <trkpt lat="45.60741" lon="6.65056">
        <ele>2091.6000976562</ele>
        <time>2019-01-19T10:09:06.000Z</time>
      </trkpt>
      <trkpt lat="45.60748" lon="6.65053">
        <ele>2095.1999511719</ele>
        <time>2019-01-19T10:09:13.000Z</time>
      </trkpt>
      <trkpt lat="45.60749" lon="6.65051">
        <ele>2096.6000976562</ele>
        <time>2019-01-19T10:09:15.000Z</time>
      </trkpt>
      <trkpt lat="45.60753" lon="6.65048">
        <ele>2099.8000488281</ele>
        <time>2019-01-19T10:09:22.000Z</time>
      </trkpt>
      <trkpt lat="45.60754" lon="6.65047">
        <ele>2100.6000976562</ele>
        <time>2019-01-19T10:09:25.000Z</time>
      </trkpt>
      <trkpt lat="45.60757" lon="6.65047">
        <ele>2101.8000488281</ele>
        <time>2019-01-19T10:09:29.000Z</time>
      </trkpt>
      <trkpt lat="45.6076" lon="6.65046">
        <ele>2103.3999023438</ele>
        <time>2019-01-19T10:09:34.000Z</time>
      </trkpt>
      <trkpt lat="45.60761" lon="6.65045">
        <ele>2104.3999023438</ele>
        <time>2019-01-19T10:09:35.000Z</time>
      </trkpt>
      <trkpt lat="45.60766" lon="6.65042">
        <ele>2107.6000976562</ele>
        <time>2019-01-19T10:09:43.000Z</time>
      </trkpt>
      <trkpt lat="45.60768" lon="6.65042">
        <ele>2107.8000488281</ele>
        <time>2019-01-19T10:09:46.000Z</time>
      </trkpt>
      <trkpt lat="45.60771" lon="6.65042">
        <ele>2109.6000976562</ele>
        <time>2019-01-19T10:09:53.000Z</time>
      </trkpt>
      <trkpt lat="45.60772" lon="6.65042">
        <ele>2109.8000488281</ele>
        <time>2019-01-19T10:09:55.000Z</time>
      </trkpt>
      <trkpt lat="45.60775" lon="6.65041">
        <ele>2111.3999023438</ele>
        <time>2019-01-19T10:10:03.000Z</time>
      </trkpt>
      <trkpt lat="45.60776" lon="6.65042">
        <ele>2111.1999511719</ele>
        <time>2019-01-19T10:10:05.000Z</time>
      </trkpt>
      <trkpt lat="45.60778" lon="6.65042">
        <ele>2111.3999023438</ele>
        <time>2019-01-19T10:10:09.000Z</time>
      </trkpt>
      <trkpt lat="45.60781" lon="6.65042">
        <ele>2112.3999023438</ele>
        <time>2019-01-19T10:10:14.000Z</time>
      </trkpt>
      <trkpt lat="45.60783" lon="6.65042">
        <ele>2113.3999023438</ele>
        <time>2019-01-19T10:10:20.000Z</time>
      </trkpt>
      <trkpt lat="45.60784" lon="6.65042">
        <ele>2114</ele>
        <time>2019-01-19T10:10:24.000Z</time>
      </trkpt>
      <trkpt lat="45.60784" lon="6.65042">
        <ele>2114</ele>
        <time>2019-01-19T10:10:27.000Z</time>
      </trkpt>
      <trkpt lat="45.60784" lon="6.6504">
        <ele>2114.8000488281</ele>
        <time>2019-01-19T10:10:34.000Z</time>
      </trkpt>
      <trkpt lat="45.60784" lon="6.65039">
        <ele>2115.1999511719</ele>
        <time>2019-01-19T10:10:40.000Z</time>
      </trkpt>
      <trkpt lat="45.60782" lon="6.65039">
        <ele>2114.6000976562</ele>
        <time>2019-01-19T10:10:45.000Z</time>
      </trkpt>
      <trkpt lat="45.60782" lon="6.65039">
        <ele>2114.6000976562</ele>
        <time>2019-01-19T10:10:47.000Z</time>
      </trkpt>
      <trkpt lat="45.60779" lon="6.6504">
        <ele>2113.1999511719</ele>
        <time>2019-01-19T10:10:50.000Z</time>
      </trkpt>
      <trkpt lat="45.60777" lon="6.6504">
        <ele>2112.1999511719</ele>
        <time>2019-01-19T10:10:54.000Z</time>
      </trkpt>
      <trkpt lat="45.60776" lon="6.6504">
        <ele>2112</ele>
        <time>2019-01-19T10:11:00.000Z</time>
      </trkpt>
      <trkpt lat="45.60774" lon="6.6504">
        <ele>2111.6000976562</ele>
        <time>2019-01-19T10:11:03.000Z</time>
      </trkpt>
      <trkpt lat="45.60774" lon="6.6504">
        <ele>2111.1999511719</ele>
        <time>2019-01-19T10:11:05.000Z</time>
      </trkpt>
      <trkpt lat="45.60773" lon="6.6504">
        <ele>2110.6000976562</ele>
        <time>2019-01-19T10:11:10.000Z</time>
      </trkpt>
      <trkpt lat="45.60773" lon="6.6504">
        <ele>2110.6000976562</ele>
        <time>2019-01-19T10:11:11.000Z</time>
      </trkpt>
      <trkpt lat="45.60773" lon="6.6504">
        <ele>2110.6000976562</ele>
        <time>2019-01-19T10:11:16.000Z</time>
      </trkpt>
      <trkpt lat="45.60773" lon="6.6504">
        <ele>2110.8000488281</ele>
        <time>2019-01-19T10:11:18.000Z</time>
      </trkpt>
      <trkpt lat="45.60773" lon="6.6504">
        <ele>2110.8000488281</ele>
        <time>2019-01-19T10:11:19.000Z</time>
      </trkpt>
      <trkpt lat="45.60772" lon="6.65039">
        <ele>2111.3999023438</ele>
        <time>2019-01-19T10:11:31.000Z</time>
      </trkpt>
      <trkpt lat="45.6077" lon="6.65037">
        <ele>2111.6000976562</ele>
        <time>2019-01-19T10:11:37.000Z</time>
      </trkpt>
      <trkpt lat="45.60767" lon="6.65035">
        <ele>2111.3999023438</ele>
        <time>2019-01-19T10:11:42.000Z</time>
      </trkpt>
      <trkpt lat="45.60766" lon="6.65035">
        <ele>2111</ele>
        <time>2019-01-19T10:11:45.000Z</time>
      </trkpt>
      <trkpt lat="45.60765" lon="6.65035">
        <ele>2110.8000488281</ele>
        <time>2019-01-19T10:11:46.000Z</time>
      </trkpt>
      <trkpt lat="45.60763" lon="6.65034">
        <ele>2110.3999023438</ele>
        <time>2019-01-19T10:11:54.000Z</time>
      </trkpt>
      <trkpt lat="45.60761" lon="6.65033">
        <ele>2110</ele>
        <time>2019-01-19T10:11:55.000Z</time>
      </trkpt>
      <trkpt lat="45.60762" lon="6.65034">
        <ele>2110</ele>
        <time>2019-01-19T10:11:59.000Z</time>
      </trkpt>
      <trkpt lat="45.60762" lon="6.65034">
        <ele>2110</ele>
        <time>2019-01-19T10:12:02.000Z</time>
      </trkpt>
      <trkpt lat="45.60763" lon="6.65033">
        <ele>2110.8000488281</ele>
        <time>2019-01-19T10:12:08.000Z</time>
      </trkpt>
      <trkpt lat="45.60767" lon="6.65028">
        <ele>2114.3999023438</ele>
        <time>2019-01-19T10:12:14.000Z</time>
      </trkpt>
      <trkpt lat="45.60768" lon="6.65028">
        <ele>2115.1999511719</ele>
        <time>2019-01-19T10:12:18.000Z</time>
      </trkpt>
      <trkpt lat="45.60769" lon="6.65027">
        <ele>2115.6000976562</ele>
        <time>2019-01-19T10:12:22.000Z</time>
      </trkpt>
      <trkpt lat="45.60772" lon="6.65026">
        <ele>2117.1999511719</ele>
        <time>2019-01-19T10:12:27.000Z</time>
      </trkpt>
      <trkpt lat="45.60772" lon="6.65026">
        <ele>2117.6000976562</ele>
        <time>2019-01-19T10:12:29.000Z</time>
      </trkpt>
      <trkpt lat="45.60775" lon="6.65023">
        <ele>2119.8000488281</ele>
        <time>2019-01-19T10:12:33.000Z</time>
      </trkpt>
      <trkpt lat="45.60777" lon="6.6502">
        <ele>2121.8000488281</ele>
        <time>2019-01-19T10:12:36.000Z</time>
      </trkpt>
      <trkpt lat="45.60781" lon="6.65018">
        <ele>2124.3999023438</ele>
        <time>2019-01-19T10:12:44.000Z</time>
      </trkpt>
      <trkpt lat="45.60782" lon="6.65017">
        <ele>2125</ele>
        <time>2019-01-19T10:12:47.000Z</time>
      </trkpt>
      <trkpt lat="45.60783" lon="6.65017">
        <ele>2125.6000976562</ele>
        <time>2019-01-19T10:12:51.000Z</time>
      </trkpt>
      <trkpt lat="45.60783" lon="6.65017">
        <ele>2125.6000976562</ele>
        <time>2019-01-19T10:12:56.000Z</time>
      </trkpt>
      <trkpt lat="45.60783" lon="6.65017">
        <ele>2125.8000488281</ele>
        <time>2019-01-19T10:13:06.000Z</time>
      </trkpt>
      <trkpt lat="45.60783" lon="6.65017">
        <ele>2125.8000488281</ele>
        <time>2019-01-19T10:13:13.000Z</time>
      </trkpt>
      <trkpt lat="45.60783" lon="6.65017">
        <ele>2125.8000488281</ele>
        <time>2019-01-19T10:13:15.000Z</time>
      </trkpt>
      <trkpt lat="45.60781" lon="6.65015">
        <ele>2126</ele>
        <time>2019-01-19T10:13:19.000Z</time>
      </trkpt>
      <trkpt lat="45.60781" lon="6.65015">
        <ele>2126</ele>
        <time>2019-01-19T10:13:24.000Z</time>
      </trkpt>
      <trkpt lat="45.60781" lon="6.65015">
        <ele>2126</ele>
        <time>2019-01-19T10:13:27.000Z</time>
      </trkpt>
      <trkpt lat="45.60781" lon="6.65015">
        <ele>2126</ele>
        <time>2019-01-19T10:13:33.000Z</time>
      </trkpt>
      <trkpt lat="45.6078" lon="6.65013">
        <ele>2126.3999023438</ele>
        <time>2019-01-19T10:13:37.000Z</time>
      </trkpt>
      <trkpt lat="45.60777" lon="6.6501">
        <ele>2126.8000488281</ele>
        <time>2019-01-19T10:13:41.000Z</time>
      </trkpt>
      <trkpt lat="45.60777" lon="6.6501">
        <ele>2126.8000488281</ele>
        <time>2019-01-19T10:13:43.000Z</time>
      </trkpt>
      <trkpt lat="45.60777" lon="6.6501">
        <ele>2126.8000488281</ele>
        <time>2019-01-19T10:13:46.000Z</time>
      </trkpt>
      <trkpt lat="45.60774" lon="6.65009">
        <ele>2126.3999023438</ele>
        <time>2019-01-19T10:13:49.000Z</time>
      </trkpt>
      <trkpt lat="45.60774" lon="6.65008">
        <ele>2126.6000976562</ele>
        <time>2019-01-19T10:13:50.000Z</time>
      </trkpt>
      <trkpt lat="45.60774" lon="6.65008">
        <ele>2126.6000976562</ele>
        <time>2019-01-19T10:13:57.000Z</time>
      </trkpt>
      <trkpt lat="45.60774" lon="6.65008">
        <ele>2126.6000976562</ele>
        <time>2019-01-19T10:14:02.000Z</time>
      </trkpt>
      <trkpt lat="45.60774" lon="6.65008">
        <ele>2126.6000976562</ele>
        <time>2019-01-19T10:14:03.000Z</time>
      </trkpt>
      <trkpt lat="45.60774" lon="6.65008">
        <ele>2126.6000976562</ele>
        <time>2019-01-19T10:14:14.000Z</time>
      </trkpt>
      <trkpt lat="45.60774" lon="6.65008">
        <ele>2126.6000976562</ele>
        <time>2019-01-19T10:14:19.000Z</time>
      </trkpt>
      <trkpt lat="45.60774" lon="6.65008">
        <ele>2126.6000976562</ele>
        <time>2019-01-19T10:14:22.000Z</time>
      </trkpt>
      <trkpt lat="45.60773" lon="6.65008">
        <ele>2126.3999023438</ele>
        <time>2019-01-19T10:14:31.000Z</time>
      </trkpt>
      <trkpt lat="45.60773" lon="6.65008">
        <ele>2126.3999023438</ele>
        <time>2019-01-19T10:14:40.000Z</time>
      </trkpt>
      <trkpt lat="45.60773" lon="6.65008">
        <ele>2126.3999023438</ele>
        <time>2019-01-19T10:14:41.000Z</time>
      </trkpt>
      <trkpt lat="45.60773" lon="6.65008">
        <ele>2126.3999023438</ele>
        <time>2019-01-19T10:14:49.000Z</time>
      </trkpt>
      <trkpt lat="45.60773" lon="6.65008">
        <ele>2126.3999023438</ele>
        <time>2019-01-19T10:14:51.000Z</time>
      </trkpt>
      <trkpt lat="45.60773" lon="6.65008">
        <ele>2126.3999023438</ele>
        <time>2019-01-19T10:14:57.000Z</time>
      </trkpt>
      <trkpt lat="45.60773" lon="6.65008">
        <ele>2126.3999023438</ele>
        <time>2019-01-19T10:15:05.000Z</time>
      </trkpt>
      <trkpt lat="45.60773" lon="6.65008">
        <ele>2126.3999023438</ele>
        <time>2019-01-19T10:15:06.000Z</time>
      </trkpt>
      <trkpt lat="45.60773" lon="6.65008">
        <ele>2126.6000976562</ele>
        <time>2019-01-19T10:15:14.000Z</time>
      </trkpt>
      <trkpt lat="45.60773" lon="6.65008">
        <ele>2126.6000976562</ele>
        <time>2019-01-19T10:15:16.000Z</time>
      </trkpt>
      <trkpt lat="45.60773" lon="6.65008">
        <ele>2126.6000976562</ele>
        <time>2019-01-19T10:15:23.000Z</time>
      </trkpt>
      <trkpt lat="45.60773" lon="6.65008">
        <ele>2126.6000976562</ele>
        <time>2019-01-19T10:15:24.000Z</time>
      </trkpt>
      <trkpt lat="45.60773" lon="6.65007">
        <ele>2126.8000488281</ele>
        <time>2019-01-19T10:15:31.000Z</time>
      </trkpt>
      <trkpt lat="45.60773" lon="6.65007">
        <ele>2126.8000488281</ele>
        <time>2019-01-19T10:15:36.000Z</time>
      </trkpt>
      <trkpt lat="45.60773" lon="6.65005">
        <ele>2127.6000976562</ele>
        <time>2019-01-19T10:15:37.000Z</time>
      </trkpt>
      <trkpt lat="45.60772" lon="6.65004">
        <ele>2127.6000976562</ele>
        <time>2019-01-19T10:15:43.000Z</time>
      </trkpt>
      <trkpt lat="45.60771" lon="6.65004">
        <ele>2127.8000488281</ele>
        <time>2019-01-19T10:15:48.000Z</time>
      </trkpt>
      <trkpt lat="45.60771" lon="6.65004">
        <ele>2127.8000488281</ele>
        <time>2019-01-19T10:15:50.000Z</time>
      </trkpt>
      <trkpt lat="45.6077" lon="6.65003">
        <ele>2127.8000488281</ele>
        <time>2019-01-19T10:15:54.000Z</time>
      </trkpt>
      <trkpt lat="45.60768" lon="6.65">
        <ele>2128.6000976562</ele>
        <time>2019-01-19T10:15:58.000Z</time>
      </trkpt>
      <trkpt lat="45.60766" lon="6.64999">
        <ele>2128.3999023438</ele>
        <time>2019-01-19T10:16:00.000Z</time>
      </trkpt>
      <trkpt lat="45.60766" lon="6.64998">
        <ele>2128.3999023438</ele>
        <time>2019-01-19T10:16:05.000Z</time>
      </trkpt>
      <trkpt lat="45.60766" lon="6.64998">
        <ele>2128.3999023438</ele>
        <time>2019-01-19T10:16:07.000Z</time>
      </trkpt>
      <trkpt lat="45.60766" lon="6.64998">
        <ele>2128.3999023438</ele>
        <time>2019-01-19T10:16:14.000Z</time>
      </trkpt>
      <trkpt lat="45.60766" lon="6.64998">
        <ele>2128.3999023438</ele>
        <time>2019-01-19T10:16:19.000Z</time>
      </trkpt>
      <trkpt lat="45.60766" lon="6.64998">
        <ele>2128.3999023438</ele>
        <time>2019-01-19T10:16:21.000Z</time>
      </trkpt>
      <trkpt lat="45.60766" lon="6.64998">
        <ele>2128.3999023438</ele>
        <time>2019-01-19T10:16:22.000Z</time>
      </trkpt>
      <trkpt lat="45.60766" lon="6.64998">
        <ele>2128.3999023438</ele>
        <time>2019-01-19T10:16:26.000Z</time>
      </trkpt>
      <trkpt lat="45.60766" lon="6.64998">
        <ele>2128.3999023438</ele>
        <time>2019-01-19T10:16:32.000Z</time>
      </trkpt>
      <trkpt lat="45.60766" lon="6.64998">
        <ele>2128.3999023438</ele>
        <time>2019-01-19T10:16:38.000Z</time>
      </trkpt>
      <trkpt lat="45.60766" lon="6.64998">
        <ele>2128.3999023438</ele>
        <time>2019-01-19T10:16:43.000Z</time>
      </trkpt>
      <trkpt lat="45.60766" lon="6.64996">
        <ele>2129.8000488281</ele>
        <time>2019-01-19T10:16:45.000Z</time>
      </trkpt>
      <trkpt lat="45.60766" lon="6.64996">
        <ele>2129.8000488281</ele>
        <time>2019-01-19T10:16:51.000Z</time>
      </trkpt>
      <trkpt lat="45.60766" lon="6.64996">
        <ele>2129.8000488281</ele>
        <time>2019-01-19T10:16:54.000Z</time>
      </trkpt>
      <trkpt lat="45.60766" lon="6.64996">
        <ele>2129.8000488281</ele>
        <time>2019-01-19T10:17:01.000Z</time>
      </trkpt>
      <trkpt lat="45.60766" lon="6.64996">
        <ele>2129.8000488281</ele>
        <time>2019-01-19T10:17:08.000Z</time>
      </trkpt>
      <trkpt lat="45.60766" lon="6.64996">
        <ele>2129.8000488281</ele>
        <time>2019-01-19T10:17:11.000Z</time>
      </trkpt>
      <trkpt lat="45.60766" lon="6.64996">
        <ele>2129.8000488281</ele>
        <time>2019-01-19T10:17:16.000Z</time>
      </trkpt>
      <trkpt lat="45.60766" lon="6.64996">
        <ele>2129.8000488281</ele>
        <time>2019-01-19T10:17:19.000Z</time>
      </trkpt>
      <trkpt lat="45.60766" lon="6.64994">
        <ele>2130.3999023438</ele>
        <time>2019-01-19T10:17:23.000Z</time>
      </trkpt>
      <trkpt lat="45.60765" lon="6.64989">
        <ele>2132.6000976562</ele>
        <time>2019-01-19T10:17:29.000Z</time>
      </trkpt>
      <trkpt lat="45.60764" lon="6.64989">
        <ele>2132.1999511719</ele>
        <time>2019-01-19T10:17:35.000Z</time>
      </trkpt>
      <trkpt lat="45.60763" lon="6.64988">
        <ele>2132.3999023438</ele>
        <time>2019-01-19T10:17:38.000Z</time>
      </trkpt>
      <trkpt lat="45.60762" lon="6.64987">
        <ele>2132.6000976562</ele>
        <time>2019-01-19T10:17:41.000Z</time>
      </trkpt>
      <trkpt lat="45.60762" lon="6.64986">
        <ele>2133</ele>
        <time>2019-01-19T10:17:46.000Z</time>
      </trkpt>
      <trkpt lat="45.60762" lon="6.64986">
        <ele>2133</ele>
        <time>2019-01-19T10:17:47.000Z</time>
      </trkpt>
      <trkpt lat="45.60761" lon="6.64984">
        <ele>2134.3999023438</ele>
        <time>2019-01-19T10:17:52.000Z</time>
      </trkpt>
      <trkpt lat="45.60757" lon="6.64981">
        <ele>2137.6000976562</ele>
        <time>2019-01-19T10:17:59.000Z</time>
      </trkpt>
      <trkpt lat="45.60757" lon="6.64981">
        <ele>2137.6000976562</ele>
        <time>2019-01-19T10:18:00.000Z</time>
      </trkpt>
      <trkpt lat="45.60757" lon="6.64981">
        <ele>2137.6000976562</ele>
        <time>2019-01-19T10:18:06.000Z</time>
      </trkpt>
      <trkpt lat="45.60755" lon="6.64981">
        <ele>2137</ele>
        <time>2019-01-19T10:18:11.000Z</time>
      </trkpt>
      <trkpt lat="45.60755" lon="6.6498">
        <ele>2137.8000488281</ele>
        <time>2019-01-19T10:18:15.000Z</time>
      </trkpt>
      <trkpt lat="45.60756" lon="6.64981">
        <ele>2137.8000488281</ele>
        <time>2019-01-19T10:18:20.000Z</time>
      </trkpt>
      <trkpt lat="45.60756" lon="6.64981">
        <ele>2137.8000488281</ele>
        <time>2019-01-19T10:18:22.000Z</time>
      </trkpt>
      <trkpt lat="45.60756" lon="6.64981">
        <ele>2137.8000488281</ele>
        <time>2019-01-19T10:18:27.000Z</time>
      </trkpt>
      <trkpt lat="45.60756" lon="6.64981">
        <ele>2137.8000488281</ele>
        <time>2019-01-19T10:18:32.000Z</time>
      </trkpt>
      <trkpt lat="45.60756" lon="6.64981">
        <ele>2137.8000488281</ele>
        <time>2019-01-19T10:18:38.000Z</time>
      </trkpt>
      <trkpt lat="45.60756" lon="6.64981">
        <ele>2137.8000488281</ele>
        <time>2019-01-19T10:18:41.000Z</time>
      </trkpt>
      <trkpt lat="45.60756" lon="6.64981">
        <ele>2137.8000488281</ele>
        <time>2019-01-19T10:18:45.000Z</time>
      </trkpt>
      <trkpt lat="45.60756" lon="6.64981">
        <ele>2137.8000488281</ele>
        <time>2019-01-19T10:18:51.000Z</time>
      </trkpt>
      <trkpt lat="45.60757" lon="6.64977">
        <ele>2142.8000488281</ele>
        <time>2019-01-19T10:18:58.000Z</time>
      </trkpt>
      <trkpt lat="45.60757" lon="6.64977">
        <ele>2142.8000488281</ele>
        <time>2019-01-19T10:19:00.000Z</time>
      </trkpt>
      <trkpt lat="45.60757" lon="6.64977">
        <ele>2142.8000488281</ele>
        <time>2019-01-19T10:19:06.000Z</time>
      </trkpt>
      <trkpt lat="45.60757" lon="6.64977">
        <ele>2142.8000488281</ele>
        <time>2019-01-19T10:19:09.000Z</time>
      </trkpt>
      <trkpt lat="45.60757" lon="6.64977">
        <ele>2142.8000488281</ele>
        <time>2019-01-19T10:19:16.000Z</time>
      </trkpt>
      <trkpt lat="45.60757" lon="6.64977">
        <ele>2142.8000488281</ele>
        <time>2019-01-19T10:19:20.000Z</time>
      </trkpt>
      <trkpt lat="45.60757" lon="6.64977">
        <ele>2142.8000488281</ele>
        <time>2019-01-19T10:19:26.000Z</time>
      </trkpt>
      <trkpt lat="45.60757" lon="6.64977">
        <ele>2142.8000488281</ele>
        <time>2019-01-19T10:19:31.000Z</time>
      </trkpt>
      <trkpt lat="45.60757" lon="6.64976">
        <ele>2144.3999023438</ele>
        <time>2019-01-19T10:19:40.000Z</time>
      </trkpt>
      <trkpt lat="45.60757" lon="6.64976">
        <ele>2144.3999023438</ele>
        <time>2019-01-19T10:19:46.000Z</time>
      </trkpt>
      <trkpt lat="45.60757" lon="6.64976">
        <ele>2144.3999023438</ele>
        <time>2019-01-19T10:19:54.000Z</time>
      </trkpt>
      <trkpt lat="45.60756" lon="6.64973">
        <ele>2147.3999023438</ele>
        <time>2019-01-19T10:19:57.000Z</time>
      </trkpt>
      <trkpt lat="45.60756" lon="6.64973">
        <ele>2147.3999023438</ele>
        <time>2019-01-19T10:19:58.000Z</time>
      </trkpt>
      <trkpt lat="45.60756" lon="6.64973">
        <ele>2147.3999023438</ele>
        <time>2019-01-19T10:20:03.000Z</time>
      </trkpt>
      <trkpt lat="45.60756" lon="6.64973">
        <ele>2147.3999023438</ele>
        <time>2019-01-19T10:20:06.000Z</time>
      </trkpt>
      <trkpt lat="45.60753" lon="6.6497">
        <ele>2150.3999023438</ele>
        <time>2019-01-19T10:20:09.000Z</time>
      </trkpt>
      <trkpt lat="45.60752" lon="6.64968">
        <ele>2152</ele>
        <time>2019-01-19T10:20:11.000Z</time>
      </trkpt>
      <trkpt lat="45.60751" lon="6.64967">
        <ele>2152.8000488281</ele>
        <time>2019-01-19T10:20:14.000Z</time>
      </trkpt>
      <trkpt lat="45.60751" lon="6.64967">
        <ele>2152.8000488281</ele>
        <time>2019-01-19T10:20:18.000Z</time>
      </trkpt>
      <trkpt lat="45.60751" lon="6.64967">
        <ele>2152.8000488281</ele>
        <time>2019-01-19T10:20:25.000Z</time>
      </trkpt>
      <trkpt lat="45.60751" lon="6.64967">
        <ele>2152.8000488281</ele>
        <time>2019-01-19T10:20:31.000Z</time>
      </trkpt>
      <trkpt lat="45.60751" lon="6.64967">
        <ele>2152.8000488281</ele>
        <time>2019-01-19T10:20:32.000Z</time>
      </trkpt>
      <trkpt lat="45.60751" lon="6.64967">
        <ele>2152.8000488281</ele>
        <time>2019-01-19T10:20:40.000Z</time>
      </trkpt>
      <trkpt lat="45.60751" lon="6.64967">
        <ele>2152.8000488281</ele>
        <time>2019-01-19T10:20:46.000Z</time>
      </trkpt>
      <trkpt lat="45.60751" lon="6.64967">
        <ele>2152.8000488281</ele>
        <time>2019-01-19T10:20:47.000Z</time>
      </trkpt>
      <trkpt lat="45.60751" lon="6.64967">
        <ele>2152.8000488281</ele>
        <time>2019-01-19T10:20:48.000Z</time>
      </trkpt>
      <trkpt lat="45.60752" lon="6.64961">
        <ele>2160.3999023438</ele>
        <time>2019-01-19T10:20:55.000Z</time>
      </trkpt>
      <trkpt lat="45.60752" lon="6.64961">
        <ele>2160.3999023438</ele>
        <time>2019-01-19T10:20:57.000Z</time>
      </trkpt>
      <trkpt lat="45.60752" lon="6.64961">
        <ele>2160.3999023438</ele>
        <time>2019-01-19T10:21:05.000Z</time>
      </trkpt>
      <trkpt lat="45.60752" lon="6.64961">
        <ele>2160.3999023438</ele>
        <time>2019-01-19T10:21:11.000Z</time>
      </trkpt>
      <trkpt lat="45.60752" lon="6.64961">
        <ele>2160.3999023438</ele>
        <time>2019-01-19T10:21:13.000Z</time>
      </trkpt>
      <trkpt lat="45.60752" lon="6.64961">
        <ele>2160.3999023438</ele>
        <time>2019-01-19T10:21:24.000Z</time>
      </trkpt>
      <trkpt lat="45.60752" lon="6.64961">
        <ele>2160.3999023438</ele>
        <time>2019-01-19T10:21:26.000Z</time>
      </trkpt>
      <trkpt lat="45.60753" lon="6.64958">
        <ele>2164.6000976562</ele>
        <time>2019-01-19T10:21:32.000Z</time>
      </trkpt>
      <trkpt lat="45.60753" lon="6.64958">
        <ele>2164.6000976562</ele>
        <time>2019-01-19T10:21:38.000Z</time>
      </trkpt>
      <trkpt lat="45.60753" lon="6.64958">
        <ele>2164.6000976562</ele>
        <time>2019-01-19T10:21:43.000Z</time>
      </trkpt>
      <trkpt lat="45.60753" lon="6.64958">
        <ele>2164.6000976562</ele>
        <time>2019-01-19T10:21:51.000Z</time>
      </trkpt>
      <trkpt lat="45.60753" lon="6.64958">
        <ele>2164.6000976562</ele>
        <time>2019-01-19T10:21:53.000Z</time>
      </trkpt>
      <trkpt lat="45.60753" lon="6.64958">
        <ele>2164.6000976562</ele>
        <time>2019-01-19T10:22:05.000Z</time>
      </trkpt>
      <trkpt lat="45.60754" lon="6.64954">
        <ele>2170.1999511719</ele>
        <time>2019-01-19T10:22:16.000Z</time>
      </trkpt>
      <trkpt lat="45.60754" lon="6.64954">
        <ele>2170.1999511719</ele>
        <time>2019-01-19T10:22:25.000Z</time>
      </trkpt>
      <trkpt lat="45.60754" lon="6.64954">
        <ele>2170.1999511719</ele>
        <time>2019-01-19T10:22:31.000Z</time>
      </trkpt>
      <trkpt lat="45.60754" lon="6.64954">
        <ele>2170.1999511719</ele>
        <time>2019-01-19T10:22:32.000Z</time>
      </trkpt>
      <trkpt lat="45.60754" lon="6.64954">
        <ele>2170.1999511719</ele>
        <time>2019-01-19T10:22:42.000Z</time>
      </trkpt>
      <trkpt lat="45.60753" lon="6.64952">
        <ele>2172.1999511719</ele>
        <time>2019-01-19T10:23:00.000Z</time>
      </trkpt>
      <trkpt lat="45.60753" lon="6.64952">
        <ele>2172.1999511719</ele>
        <time>2019-01-19T10:23:08.000Z</time>
      </trkpt>
      <trkpt lat="45.6075" lon="6.64949">
        <ele>2175</ele>
        <time>2019-01-19T10:23:14.000Z</time>
      </trkpt>
      <trkpt lat="45.60749" lon="6.64948">
        <ele>2175.6000976562</ele>
        <time>2019-01-19T10:23:15.000Z</time>
      </trkpt>
      <trkpt lat="45.60749" lon="6.64948">
        <ele>2176.1999511719</ele>
        <time>2019-01-19T10:23:22.000Z</time>
      </trkpt>
      <trkpt lat="45.60746" lon="6.64948">
        <ele>2175.1999511719</ele>
        <time>2019-01-19T10:23:26.000Z</time>
      </trkpt>
      <trkpt lat="45.60744" lon="6.64946">
        <ele>2176.3999023438</ele>
        <time>2019-01-19T10:23:29.000Z</time>
      </trkpt>
      <trkpt lat="45.60742" lon="6.64944">
        <ele>2178.1999511719</ele>
        <time>2019-01-19T10:23:33.000Z</time>
      </trkpt>
      <trkpt lat="45.60742" lon="6.64943">
        <ele>2179.1999511719</ele>
        <time>2019-01-19T10:23:36.000Z</time>
      </trkpt>
      <trkpt lat="45.60742" lon="6.64943">
        <ele>2179.1999511719</ele>
        <time>2019-01-19T10:23:39.000Z</time>
      </trkpt>
      <trkpt lat="45.60742" lon="6.64943">
        <ele>2179.1999511719</ele>
        <time>2019-01-19T10:23:43.000Z</time>
      </trkpt>
      <trkpt lat="45.60742" lon="6.64943">
        <ele>2179.1999511719</ele>
        <time>2019-01-19T10:23:44.000Z</time>
      </trkpt>
      <trkpt lat="45.60742" lon="6.64943">
        <ele>2179.1999511719</ele>
        <time>2019-01-19T10:23:52.000Z</time>
      </trkpt>
      <trkpt lat="45.60742" lon="6.64943">
        <ele>2179.1999511719</ele>
        <time>2019-01-19T10:23:54.000Z</time>
      </trkpt>
      <trkpt lat="45.60742" lon="6.64943">
        <ele>2179.1999511719</ele>
        <time>2019-01-19T10:23:59.000Z</time>
      </trkpt>
      <trkpt lat="45.60742" lon="6.64943">
        <ele>2179.1999511719</ele>
        <time>2019-01-19T10:24:06.000Z</time>
      </trkpt>
      <trkpt lat="45.60742" lon="6.64943">
        <ele>2179.1999511719</ele>
        <time>2019-01-19T10:24:09.000Z</time>
      </trkpt>
      <trkpt lat="45.60741" lon="6.64943">
        <ele>2179.1999511719</ele>
        <time>2019-01-19T10:24:18.000Z</time>
      </trkpt>
      <trkpt lat="45.60741" lon="6.64937">
        <ele>2186.6000976562</ele>
        <time>2019-01-19T10:24:25.000Z</time>
      </trkpt>
      <trkpt lat="45.60741" lon="6.64936">
        <ele>2188.1999511719</ele>
        <time>2019-01-19T10:24:26.000Z</time>
      </trkpt>
      <trkpt lat="45.60741" lon="6.64927">
        <ele>2199.1999511719</ele>
        <time>2019-01-19T10:24:32.000Z</time>
      </trkpt>
      <trkpt lat="45.60741" lon="6.64926">
        <ele>2200.3999023438</ele>
        <time>2019-01-19T10:24:33.000Z</time>
      </trkpt>
      <trkpt lat="45.60744" lon="6.64919">
        <ele>2207.3999023438</ele>
        <time>2019-01-19T10:24:40.000Z</time>
      </trkpt>
      <trkpt lat="45.60744" lon="6.64919">
        <ele>2208</ele>
        <time>2019-01-19T10:24:42.000Z</time>
      </trkpt>
      <trkpt lat="45.60745" lon="6.64917">
        <ele>2209</ele>
        <time>2019-01-19T10:24:47.000Z</time>
      </trkpt>
      <trkpt lat="45.60745" lon="6.64917">
        <ele>2209</ele>
        <time>2019-01-19T10:24:51.000Z</time>
      </trkpt>
      <trkpt lat="45.60745" lon="6.64917">
        <ele>2209</ele>
        <time>2019-01-19T10:24:54.000Z</time>
      </trkpt>
      <trkpt lat="45.60745" lon="6.64917">
        <ele>2209</ele>
        <time>2019-01-19T10:24:57.000Z</time>
      </trkpt>
      <trkpt lat="45.60745" lon="6.64917">
        <ele>2209</ele>
        <time>2019-01-19T10:25:04.000Z</time>
      </trkpt>
      <trkpt lat="45.60745" lon="6.64917">
        <ele>2209</ele>
        <time>2019-01-19T10:25:14.000Z</time>
      </trkpt>
      <trkpt lat="45.60745" lon="6.64917">
        <ele>2209</ele>
        <time>2019-01-19T10:25:20.000Z</time>
      </trkpt>
      <trkpt lat="45.60745" lon="6.64917">
        <ele>2209</ele>
        <time>2019-01-19T10:25:21.000Z</time>
      </trkpt>
      <trkpt lat="45.60745" lon="6.64916">
        <ele>2210</ele>
        <time>2019-01-19T10:25:33.000Z</time>
      </trkpt>
      <trkpt lat="45.60745" lon="6.64916">
        <ele>2210</ele>
        <time>2019-01-19T10:25:41.000Z</time>
      </trkpt>
      <trkpt lat="45.60745" lon="6.64916">
        <ele>2210</ele>
        <time>2019-01-19T10:25:45.000Z</time>
      </trkpt>
      <trkpt lat="45.60745" lon="6.64916">
        <ele>2210</ele>
        <time>2019-01-19T10:25:47.000Z</time>
      </trkpt>
      <trkpt lat="45.60742" lon="6.64913">
        <ele>2213.1999511719</ele>
        <time>2019-01-19T10:25:53.000Z</time>
      </trkpt>
      <trkpt lat="45.60739" lon="6.64909">
        <ele>2217</ele>
        <time>2019-01-19T10:25:57.000Z</time>
      </trkpt>
      <trkpt lat="45.60737" lon="6.64908">
        <ele>2217.8000488281</ele>
        <time>2019-01-19T10:26:00.000Z</time>
      </trkpt>
      <trkpt lat="45.60735" lon="6.64906">
        <ele>2219.3999023438</ele>
        <time>2019-01-19T10:26:05.000Z</time>
      </trkpt>
      <trkpt lat="45.60735" lon="6.64906">
        <ele>2219.6000976562</ele>
        <time>2019-01-19T10:26:06.000Z</time>
      </trkpt>
      <trkpt lat="45.60732" lon="6.64905">
        <ele>2220.1999511719</ele>
        <time>2019-01-19T10:26:11.000Z</time>
      </trkpt>
      <trkpt lat="45.60732" lon="6.64905">
        <ele>2220.1999511719</ele>
        <time>2019-01-19T10:26:12.000Z</time>
      </trkpt>
      <trkpt lat="45.6073" lon="6.64904">
        <ele>2220.8000488281</ele>
        <time>2019-01-19T10:26:20.000Z</time>
      </trkpt>
      <trkpt lat="45.6073" lon="6.64904">
        <ele>2220.8000488281</ele>
        <time>2019-01-19T10:26:22.000Z</time>
      </trkpt>
      <trkpt lat="45.6073" lon="6.64904">
        <ele>2221</ele>
        <time>2019-01-19T10:26:25.000Z</time>
      </trkpt>
      <trkpt lat="45.60729" lon="6.64903">
        <ele>2221.8000488281</ele>
        <time>2019-01-19T10:26:31.000Z</time>
      </trkpt>
      <trkpt lat="45.60729" lon="6.64903">
        <ele>2221.8000488281</ele>
        <time>2019-01-19T10:26:32.000Z</time>
      </trkpt>
      <trkpt lat="45.60729" lon="6.64903">
        <ele>2221.8000488281</ele>
        <time>2019-01-19T10:26:39.000Z</time>
      </trkpt>
      <trkpt lat="45.60729" lon="6.64903">
        <ele>2221.8000488281</ele>
        <time>2019-01-19T10:26:41.000Z</time>
      </trkpt>
      <trkpt lat="45.60729" lon="6.64903">
        <ele>2221.8000488281</ele>
        <time>2019-01-19T10:26:47.000Z</time>
      </trkpt>
      <trkpt lat="45.60729" lon="6.64903">
        <ele>2221.8000488281</ele>
        <time>2019-01-19T10:27:00.000Z</time>
      </trkpt>
      <trkpt lat="45.60729" lon="6.64903">
        <ele>2221.8000488281</ele>
        <time>2019-01-19T10:27:01.000Z</time>
      </trkpt>
      <trkpt lat="45.60729" lon="6.64903">
        <ele>2221.8000488281</ele>
        <time>2019-01-19T10:27:08.000Z</time>
      </trkpt>
      <trkpt lat="45.6073" lon="6.64901">
        <ele>2224.1999511719</ele>
        <time>2019-01-19T10:27:10.000Z</time>
      </trkpt>
      <trkpt lat="45.6073" lon="6.64901">
        <ele>2224.1999511719</ele>
        <time>2019-01-19T10:27:12.000Z</time>
      </trkpt>
      <trkpt lat="45.6073" lon="6.64901">
        <ele>2224.1999511719</ele>
        <time>2019-01-19T10:27:15.000Z</time>
      </trkpt>
      <trkpt lat="45.6073" lon="6.64901">
        <ele>2224.1999511719</ele>
        <time>2019-01-19T10:27:16.000Z</time>
      </trkpt>
      <trkpt lat="45.6073" lon="6.64901">
        <ele>2224.1999511719</ele>
        <time>2019-01-19T10:27:29.000Z</time>
      </trkpt>
      <trkpt lat="45.6073" lon="6.64901">
        <ele>2224.1999511719</ele>
        <time>2019-01-19T10:27:37.000Z</time>
      </trkpt>
      <trkpt lat="45.6073" lon="6.64901">
        <ele>2224.1999511719</ele>
        <time>2019-01-19T10:27:38.000Z</time>
      </trkpt>
      <trkpt lat="45.6073" lon="6.64901">
        <ele>2224.1999511719</ele>
        <time>2019-01-19T10:27:46.000Z</time>
      </trkpt>
      <trkpt lat="45.60731" lon="6.64899">
        <ele>2226</ele>
        <time>2019-01-19T10:27:51.000Z</time>
      </trkpt>
      <trkpt lat="45.60731" lon="6.64899">
        <ele>2226</ele>
        <time>2019-01-19T10:27:56.000Z</time>
      </trkpt>
      <trkpt lat="45.60731" lon="6.64899">
        <ele>2226</ele>
        <time>2019-01-19T10:28:06.000Z</time>
      </trkpt>
      <trkpt lat="45.60731" lon="6.64899">
        <ele>2226</ele>
        <time>2019-01-19T10:28:09.000Z</time>
      </trkpt>
      <trkpt lat="45.60731" lon="6.64899">
        <ele>2226</ele>
        <time>2019-01-19T10:28:11.000Z</time>
      </trkpt>
      <trkpt lat="45.60729" lon="6.64897">
        <ele>2227.6000976562</ele>
        <time>2019-01-19T10:28:16.000Z</time>
      </trkpt>
      <trkpt lat="45.60729" lon="6.64897">
        <ele>2227.6000976562</ele>
        <time>2019-01-19T10:28:22.000Z</time>
      </trkpt>
      <trkpt lat="45.60729" lon="6.64896">
        <ele>2228.1999511719</ele>
        <time>2019-01-19T10:28:25.000Z</time>
      </trkpt>
      <trkpt lat="45.60729" lon="6.64896">
        <ele>2228.1999511719</ele>
        <time>2019-01-19T10:28:31.000Z</time>
      </trkpt>
      <trkpt lat="45.60729" lon="6.64896">
        <ele>2228.1999511719</ele>
        <time>2019-01-19T10:28:32.000Z</time>
      </trkpt>
      <trkpt lat="45.60728" lon="6.64894">
        <ele>2229.8000488281</ele>
        <time>2019-01-19T10:28:35.000Z</time>
      </trkpt>
      <trkpt lat="45.60728" lon="6.64894">
        <ele>2230.3999023438</ele>
        <time>2019-01-19T10:28:39.000Z</time>
      </trkpt>
      <trkpt lat="45.60728" lon="6.64894">
        <ele>2230.3999023438</ele>
        <time>2019-01-19T10:28:41.000Z</time>
      </trkpt>
      <trkpt lat="45.60728" lon="6.64894">
        <ele>2230.3999023438</ele>
        <time>2019-01-19T10:28:47.000Z</time>
      </trkpt>
      <trkpt lat="45.60728" lon="6.64894">
        <ele>2230.3999023438</ele>
        <time>2019-01-19T10:28:54.000Z</time>
      </trkpt>
      <trkpt lat="45.60728" lon="6.64894">
        <ele>2230.3999023438</ele>
        <time>2019-01-19T10:28:57.000Z</time>
      </trkpt>
      <trkpt lat="45.60728" lon="6.64894">
        <ele>2230.3999023438</ele>
        <time>2019-01-19T10:28:58.000Z</time>
      </trkpt>
      <trkpt lat="45.60728" lon="6.64894">
        <ele>2230.3999023438</ele>
        <time>2019-01-19T10:29:03.000Z</time>
      </trkpt>
      <trkpt lat="45.60728" lon="6.64894">
        <ele>2230.3999023438</ele>
        <time>2019-01-19T10:29:04.000Z</time>
      </trkpt>
      <trkpt lat="45.60728" lon="6.64894">
        <ele>2230.3999023438</ele>
        <time>2019-01-19T10:29:11.000Z</time>
      </trkpt>
      <trkpt lat="45.60728" lon="6.64892">
        <ele>2232.1999511719</ele>
        <time>2019-01-19T10:29:19.000Z</time>
      </trkpt>
      <trkpt lat="45.60728" lon="6.64892">
        <ele>2232.1999511719</ele>
        <time>2019-01-19T10:29:23.000Z</time>
      </trkpt>
      <trkpt lat="45.60728" lon="6.64892">
        <ele>2232.1999511719</ele>
        <time>2019-01-19T10:29:28.000Z</time>
      </trkpt>
      <trkpt lat="45.60728" lon="6.64892">
        <ele>2232.1999511719</ele>
        <time>2019-01-19T10:29:40.000Z</time>
      </trkpt>
      <trkpt lat="45.60728" lon="6.64892">
        <ele>2232.1999511719</ele>
        <time>2019-01-19T10:29:53.000Z</time>
      </trkpt>
      <trkpt lat="45.60729" lon="6.6489">
        <ele>2233.8000488281</ele>
        <time>2019-01-19T10:30:05.000Z</time>
      </trkpt>
      <trkpt lat="45.60729" lon="6.6489">
        <ele>2233.8000488281</ele>
        <time>2019-01-19T10:30:07.000Z</time>
      </trkpt>
      <trkpt lat="45.60729" lon="6.6489">
        <ele>2233.8000488281</ele>
        <time>2019-01-19T10:30:16.000Z</time>
      </trkpt>
      <trkpt lat="45.60729" lon="6.6489">
        <ele>2233.8000488281</ele>
        <time>2019-01-19T10:30:17.000Z</time>
      </trkpt>
      <trkpt lat="45.60729" lon="6.6489">
        <ele>2233.8000488281</ele>
        <time>2019-01-19T10:30:22.000Z</time>
      </trkpt>
      <trkpt lat="45.60729" lon="6.6489">
        <ele>2233.8000488281</ele>
        <time>2019-01-19T10:30:23.000Z</time>
      </trkpt>
      <trkpt lat="45.60729" lon="6.6489">
        <ele>2233.8000488281</ele>
        <time>2019-01-19T10:30:30.000Z</time>
      </trkpt>
      <trkpt lat="45.60729" lon="6.6489">
        <ele>2233.8000488281</ele>
        <time>2019-01-19T10:30:31.000Z</time>
      </trkpt>
      <trkpt lat="45.60729" lon="6.64889">
        <ele>2234.6000976562</ele>
        <time>2019-01-19T10:30:36.000Z</time>
      </trkpt>
      <trkpt lat="45.60729" lon="6.64889">
        <ele>2234.6000976562</ele>
        <time>2019-01-19T10:30:39.000Z</time>
      </trkpt>
      <trkpt lat="45.60729" lon="6.64886">
        <ele>2237.1999511719</ele>
        <time>2019-01-19T10:30:46.000Z</time>
      </trkpt>
      <trkpt lat="45.60729" lon="6.64885">
        <ele>2238</ele>
        <time>2019-01-19T10:30:54.000Z</time>
      </trkpt>
      <trkpt lat="45.60729" lon="6.64885">
        <ele>2238</ele>
        <time>2019-01-19T10:30:59.000Z</time>
      </trkpt>
      <trkpt lat="45.60728" lon="6.64885">
        <ele>2238.1999511719</ele>
        <time>2019-01-19T10:31:02.000Z</time>
      </trkpt>
      <trkpt lat="45.60725" lon="6.64882">
        <ele>2241.1999511719</ele>
        <time>2019-01-19T10:31:07.000Z</time>
      </trkpt>
      <trkpt lat="45.60724" lon="6.64882">
        <ele>2241.1999511719</ele>
        <time>2019-01-19T10:31:12.000Z</time>
      </trkpt>
      <trkpt lat="45.60724" lon="6.64882">
        <ele>2241.1999511719</ele>
        <time>2019-01-19T10:31:13.000Z</time>
      </trkpt>
      <trkpt lat="45.60724" lon="6.64882">
        <ele>2241.1999511719</ele>
        <time>2019-01-19T10:31:22.000Z</time>
      </trkpt>
      <trkpt lat="45.60724" lon="6.64882">
        <ele>2241.1999511719</ele>
        <time>2019-01-19T10:31:23.000Z</time>
      </trkpt>
      <trkpt lat="45.60723" lon="6.64881">
        <ele>2241.8000488281</ele>
        <time>2019-01-19T10:31:31.000Z</time>
      </trkpt>
      <trkpt lat="45.60723" lon="6.64881">
        <ele>2241.8000488281</ele>
        <time>2019-01-19T10:31:35.000Z</time>
      </trkpt>
      <trkpt lat="45.60723" lon="6.64881">
        <ele>2241.8000488281</ele>
        <time>2019-01-19T10:31:39.000Z</time>
      </trkpt>
      <trkpt lat="45.60723" lon="6.64881">
        <ele>2241.8000488281</ele>
        <time>2019-01-19T10:31:41.000Z</time>
      </trkpt>
      <trkpt lat="45.60723" lon="6.64881">
        <ele>2241.8000488281</ele>
        <time>2019-01-19T10:31:47.000Z</time>
      </trkpt>
      <trkpt lat="45.60723" lon="6.6488">
        <ele>2242.8000488281</ele>
        <time>2019-01-19T10:31:54.000Z</time>
      </trkpt>
      <trkpt lat="45.60725" lon="6.64876">
        <ele>2246</ele>
        <time>2019-01-19T10:32:06.000Z</time>
      </trkpt>
      <trkpt lat="45.60725" lon="6.64876">
        <ele>2246</ele>
        <time>2019-01-19T10:32:10.000Z</time>
      </trkpt>
      <trkpt lat="45.60725" lon="6.64876">
        <ele>2246</ele>
        <time>2019-01-19T10:32:15.000Z</time>
      </trkpt>
      <trkpt lat="45.60725" lon="6.64876">
        <ele>2246</ele>
        <time>2019-01-19T10:32:20.000Z</time>
      </trkpt>
      <trkpt lat="45.60724" lon="6.64877">
        <ele>2246</ele>
        <time>2019-01-19T10:32:38.000Z</time>
      </trkpt>
      <trkpt lat="45.60724" lon="6.64876">
        <ele>2246.8000488281</ele>
        <time>2019-01-19T10:32:50.000Z</time>
      </trkpt>
      <trkpt lat="45.60724" lon="6.64874">
        <ele>2248</ele>
        <time>2019-01-19T10:32:59.000Z</time>
      </trkpt>
      <trkpt lat="45.60725" lon="6.64868">
        <ele>2253.3999023438</ele>
        <time>2019-01-19T10:33:06.000Z</time>
      </trkpt>
      <trkpt lat="45.60726" lon="6.64867">
        <ele>2254.6000976562</ele>
        <time>2019-01-19T10:33:07.000Z</time>
      </trkpt>
      <trkpt lat="45.60726" lon="6.64865">
        <ele>2256</ele>
        <time>2019-01-19T10:33:14.000Z</time>
      </trkpt>
      <trkpt lat="45.60726" lon="6.64865">
        <ele>2256</ele>
        <time>2019-01-19T10:33:18.000Z</time>
      </trkpt>
      <trkpt lat="45.60726" lon="6.64865">
        <ele>2256</ele>
        <time>2019-01-19T10:33:25.000Z</time>
      </trkpt>
      <trkpt lat="45.60725" lon="6.64864">
        <ele>2257</ele>
        <time>2019-01-19T10:33:35.000Z</time>
      </trkpt>
      <trkpt lat="45.60725" lon="6.64864">
        <ele>2257</ele>
        <time>2019-01-19T10:33:37.000Z</time>
      </trkpt>
      <trkpt lat="45.60725" lon="6.64864">
        <ele>2257.8000488281</ele>
        <time>2019-01-19T10:33:42.000Z</time>
      </trkpt>
      <trkpt lat="45.60724" lon="6.64863">
        <ele>2258</ele>
        <time>2019-01-19T10:33:44.000Z</time>
      </trkpt>
      <trkpt lat="45.60722" lon="6.64864">
        <ele>2257.1999511719</ele>
        <time>2019-01-19T10:33:49.000Z</time>
      </trkpt>
      <trkpt lat="45.6072" lon="6.64866">
        <ele>2255.3999023438</ele>
        <time>2019-01-19T10:33:52.000Z</time>
      </trkpt>
      <trkpt lat="45.6072" lon="6.64866">
        <ele>2255.1999511719</ele>
        <time>2019-01-19T10:33:58.000Z</time>
      </trkpt>
      <trkpt lat="45.6072" lon="6.64866">
        <ele>2255.1999511719</ele>
        <time>2019-01-19T10:34:00.000Z</time>
      </trkpt>
      <trkpt lat="45.6072" lon="6.64866">
        <ele>2255.1999511719</ele>
        <time>2019-01-19T10:34:09.000Z</time>
      </trkpt>
      <trkpt lat="45.60721" lon="6.64866">
        <ele>2255.1999511719</ele>
        <time>2019-01-19T10:34:16.000Z</time>
      </trkpt>
      <trkpt lat="45.6072" lon="6.64866">
        <ele>2255.6000976562</ele>
        <time>2019-01-19T10:34:17.000Z</time>
      </trkpt>
      <trkpt lat="45.6072" lon="6.64865">
        <ele>2256.6000976562</ele>
        <time>2019-01-19T10:34:18.000Z</time>
      </trkpt>
      <trkpt lat="45.60719" lon="6.64863">
        <ele>2258.1999511719</ele>
        <time>2019-01-19T10:34:25.000Z</time>
      </trkpt>
      <trkpt lat="45.60719" lon="6.64862">
        <ele>2259.3999023438</ele>
        <time>2019-01-19T10:34:26.000Z</time>
      </trkpt>
      <trkpt lat="45.6072" lon="6.64858">
        <ele>2262.3999023438</ele>
        <time>2019-01-19T10:34:32.000Z</time>
      </trkpt>
      <trkpt lat="45.60721" lon="6.64854">
        <ele>2266.3999023438</ele>
        <time>2019-01-19T10:34:36.000Z</time>
      </trkpt>
      <trkpt lat="45.60723" lon="6.64852">
        <ele>2268.6000976562</ele>
        <time>2019-01-19T10:34:39.000Z</time>
      </trkpt>
      <trkpt lat="45.60723" lon="6.64851">
        <ele>2269.3999023438</ele>
        <time>2019-01-19T10:34:45.000Z</time>
      </trkpt>
      <trkpt lat="45.60723" lon="6.64851">
        <ele>2269.3999023438</ele>
        <time>2019-01-19T10:34:48.000Z</time>
      </trkpt>
      <trkpt lat="45.60723" lon="6.64851">
        <ele>2269.3999023438</ele>
        <time>2019-01-19T10:35:01.000Z</time>
      </trkpt>
      <trkpt lat="45.60723" lon="6.64851">
        <ele>2269.3999023438</ele>
        <time>2019-01-19T10:35:10.000Z</time>
      </trkpt>
      <trkpt lat="45.60723" lon="6.64851">
        <ele>2269.3999023438</ele>
        <time>2019-01-19T10:35:11.000Z</time>
      </trkpt>
      <trkpt lat="45.60723" lon="6.64851">
        <ele>2269.6000976562</ele>
        <time>2019-01-19T10:35:18.000Z</time>
      </trkpt>
      <trkpt lat="45.60723" lon="6.64851">
        <ele>2269.6000976562</ele>
        <time>2019-01-19T10:35:21.000Z</time>
      </trkpt>
      <trkpt lat="45.60723" lon="6.64851">
        <ele>2269.6000976562</ele>
        <time>2019-01-19T10:35:30.000Z</time>
      </trkpt>
      <trkpt lat="45.60722" lon="6.64851">
        <ele>2268.8000488281</ele>
        <time>2019-01-19T10:35:36.000Z</time>
      </trkpt>
      <trkpt lat="45.60722" lon="6.64851">
        <ele>2268.8000488281</ele>
        <time>2019-01-19T10:35:38.000Z</time>
      </trkpt>
      <trkpt lat="45.60721" lon="6.64852">
        <ele>2268</ele>
        <time>2019-01-19T10:35:43.000Z</time>
      </trkpt>
      <trkpt lat="45.60718" lon="6.64856">
        <ele>2264.1999511719</ele>
        <time>2019-01-19T10:35:53.000Z</time>
      </trkpt>
      <trkpt lat="45.60718" lon="6.64856">
        <ele>2264.1999511719</ele>
        <time>2019-01-19T10:36:03.000Z</time>
      </trkpt>
      <trkpt lat="45.60718" lon="6.64856">
        <ele>2264.1999511719</ele>
        <time>2019-01-19T10:36:13.000Z</time>
      </trkpt>
      <trkpt lat="45.60718" lon="6.64856">
        <ele>2264.1999511719</ele>
        <time>2019-01-19T10:36:17.000Z</time>
      </trkpt>
      <trkpt lat="45.60718" lon="6.64856">
        <ele>2264.1999511719</ele>
        <time>2019-01-19T10:36:18.000Z</time>
      </trkpt>
      <trkpt lat="45.60718" lon="6.64856">
        <ele>2264.1999511719</ele>
        <time>2019-01-19T10:36:21.000Z</time>
      </trkpt>
      <trkpt lat="45.60718" lon="6.64856">
        <ele>2264.1999511719</ele>
        <time>2019-01-19T10:36:24.000Z</time>
      </trkpt>
      <trkpt lat="45.60718" lon="6.64856">
        <ele>2264.1999511719</ele>
        <time>2019-01-19T10:36:27.000Z</time>
      </trkpt>
      <trkpt lat="45.60718" lon="6.64856">
        <ele>2264.1999511719</ele>
        <time>2019-01-19T10:36:30.000Z</time>
      </trkpt>
      <trkpt lat="45.60718" lon="6.64856">
        <ele>2264.1999511719</ele>
        <time>2019-01-19T10:36:36.000Z</time>
      </trkpt>
      <trkpt lat="45.60718" lon="6.64856">
        <ele>2264.1999511719</ele>
        <time>2019-01-19T10:36:37.000Z</time>
      </trkpt>
      <trkpt lat="45.60718" lon="6.64856">
        <ele>2264.1999511719</ele>
        <time>2019-01-19T10:36:39.000Z</time>
      </trkpt>
      <trkpt lat="45.60718" lon="6.64856">
        <ele>2264.1999511719</ele>
        <time>2019-01-19T10:36:45.000Z</time>
      </trkpt>
      <trkpt lat="45.60718" lon="6.64856">
        <ele>2264.1999511719</ele>
        <time>2019-01-19T10:36:47.000Z</time>
      </trkpt>
      <trkpt lat="45.60718" lon="6.64856">
        <ele>2264.1999511719</ele>
        <time>2019-01-19T10:36:49.000Z</time>
      </trkpt>
      <trkpt lat="45.60718" lon="6.64856">
        <ele>2264.1999511719</ele>
        <time>2019-01-19T10:36:54.000Z</time>
      </trkpt>
      <trkpt lat="45.60718" lon="6.64856">
        <ele>2264.1999511719</ele>
        <time>2019-01-19T10:36:55.000Z</time>
      </trkpt>
      <trkpt lat="45.60718" lon="6.64856">
        <ele>2264.1999511719</ele>
        <time>2019-01-19T10:36:57.000Z</time>
      </trkpt>
      <trkpt lat="45.60718" lon="6.64856">
        <ele>2264.1999511719</ele>
        <time>2019-01-19T10:36:58.000Z</time>
      </trkpt>
      <trkpt lat="45.60718" lon="6.64856">
        <ele>2264.1999511719</ele>
        <time>2019-01-19T10:36:59.000Z</time>
      </trkpt>
      <trkpt lat="45.60718" lon="6.64856">
        <ele>2264.1999511719</ele>
        <time>2019-01-19T10:37:00.000Z</time>
      </trkpt>
      <trkpt lat="45.60718" lon="6.64856">
        <ele>2264.1999511719</ele>
        <time>2019-01-19T10:37:02.000Z</time>
      </trkpt>
      <trkpt lat="45.60718" lon="6.64856">
        <ele>2264.1999511719</ele>
        <time>2019-01-19T10:37:03.000Z</time>
      </trkpt>
      <trkpt lat="45.60718" lon="6.64856">
        <ele>2264.1999511719</ele>
        <time>2019-01-19T10:37:04.000Z</time>
      </trkpt>
      <trkpt lat="45.60718" lon="6.64856">
        <ele>2264.1999511719</ele>
        <time>2019-01-19T10:37:05.000Z</time>
      </trkpt>
      <trkpt lat="45.60718" lon="6.64856">
        <ele>2264.1999511719</ele>
        <time>2019-01-19T10:37:06.000Z</time>
      </trkpt>
      <trkpt lat="45.60718" lon="6.64856">
        <ele>2264.1999511719</ele>
        <time>2019-01-19T10:37:08.000Z</time>
      </trkpt>
      <trkpt lat="45.60718" lon="6.64856">
        <ele>2264.6000976562</ele>
        <time>2019-01-19T10:37:13.000Z</time>
      </trkpt>
      <trkpt lat="45.60718" lon="6.64856">
        <ele>2264.6000976562</ele>
        <time>2019-01-19T10:37:15.000Z</time>
      </trkpt>
      <trkpt lat="45.60718" lon="6.64856">
        <ele>2264.6000976562</ele>
        <time>2019-01-19T10:37:26.000Z</time>
      </trkpt>
      <trkpt lat="45.60718" lon="6.64856">
        <ele>2264.6000976562</ele>
        <time>2019-01-19T10:37:32.000Z</time>
      </trkpt>
      <trkpt lat="45.60718" lon="6.64856">
        <ele>2264.6000976562</ele>
        <time>2019-01-19T10:37:34.000Z</time>
      </trkpt>
      <trkpt lat="45.60717" lon="6.64856">
        <ele>2264</ele>
        <time>2019-01-19T10:37:39.000Z</time>
      </trkpt>
      <trkpt lat="45.60717" lon="6.64856">
        <ele>2264</ele>
        <time>2019-01-19T10:37:41.000Z</time>
      </trkpt>
      <trkpt lat="45.60717" lon="6.64856">
        <ele>2264</ele>
        <time>2019-01-19T10:37:57.000Z</time>
      </trkpt>
      <trkpt lat="45.60717" lon="6.64856">
        <ele>2264</ele>
        <time>2019-01-19T10:38:11.000Z</time>
      </trkpt>
      <trkpt lat="45.60717" lon="6.64856">
        <ele>2263.6000976562</ele>
        <time>2019-01-19T10:38:20.000Z</time>
      </trkpt>
      <trkpt lat="45.60717" lon="6.64856">
        <ele>2263.6000976562</ele>
        <time>2019-01-19T10:38:22.000Z</time>
      </trkpt>
      <trkpt lat="45.60717" lon="6.64856">
        <ele>2263.6000976562</ele>
        <time>2019-01-19T10:38:27.000Z</time>
      </trkpt>
      <trkpt lat="45.60717" lon="6.64856">
        <ele>2263.6000976562</ele>
        <time>2019-01-19T10:38:44.000Z</time>
      </trkpt>
      <trkpt lat="45.60717" lon="6.64856">
        <ele>2264.1999511719</ele>
        <time>2019-01-19T10:38:57.000Z</time>
      </trkpt>
      <trkpt lat="45.60717" lon="6.64856">
        <ele>2264.1999511719</ele>
        <time>2019-01-19T10:39:03.000Z</time>
      </trkpt>
      <trkpt lat="45.60717" lon="6.64856">
        <ele>2264.1999511719</ele>
        <time>2019-01-19T10:39:10.000Z</time>
      </trkpt>
      <trkpt lat="45.60717" lon="6.64856">
        <ele>2264.1999511719</ele>
        <time>2019-01-19T10:39:11.000Z</time>
      </trkpt>
      <trkpt lat="45.60717" lon="6.64856">
        <ele>2264.1999511719</ele>
        <time>2019-01-19T10:39:13.000Z</time>
      </trkpt>
      <trkpt lat="45.60717" lon="6.64856">
        <ele>2264.1999511719</ele>
        <time>2019-01-19T10:39:15.000Z</time>
      </trkpt>
      <trkpt lat="45.60717" lon="6.64856">
        <ele>2264.1999511719</ele>
        <time>2019-01-19T10:39:22.000Z</time>
      </trkpt>
      <trkpt lat="45.60717" lon="6.64856">
        <ele>2264.1999511719</ele>
        <time>2019-01-19T10:39:24.000Z</time>
      </trkpt>
      <trkpt lat="45.60717" lon="6.64856">
        <ele>2264.1999511719</ele>
        <time>2019-01-19T10:39:40.000Z</time>
      </trkpt>
      <trkpt lat="45.60717" lon="6.64856">
        <ele>2264.1999511719</ele>
        <time>2019-01-19T10:39:44.000Z</time>
      </trkpt>
      <trkpt lat="45.60716" lon="6.64857">
        <ele>2263.3999023438</ele>
        <time>2019-01-19T10:39:47.000Z</time>
      </trkpt>
      <trkpt lat="45.60715" lon="6.64857">
        <ele>2262.8000488281</ele>
        <time>2019-01-19T10:39:51.000Z</time>
      </trkpt>
      <trkpt lat="45.60715" lon="6.64857">
        <ele>2262.8000488281</ele>
        <time>2019-01-19T10:39:52.000Z</time>
      </trkpt>
      <trkpt lat="45.60715" lon="6.64857">
        <ele>2262.8000488281</ele>
        <time>2019-01-19T10:39:58.000Z</time>
      </trkpt>
      <trkpt lat="45.60715" lon="6.64857">
        <ele>2262.8000488281</ele>
        <time>2019-01-19T10:40:04.000Z</time>
      </trkpt>
      <trkpt lat="45.60715" lon="6.64857">
        <ele>2262.8000488281</ele>
        <time>2019-01-19T10:40:05.000Z</time>
      </trkpt>
      <trkpt lat="45.60715" lon="6.64857">
        <ele>2262.8000488281</ele>
        <time>2019-01-19T10:40:06.000Z</time>
      </trkpt>
      <trkpt lat="45.60715" lon="6.64857">
        <ele>2262.8000488281</ele>
        <time>2019-01-19T10:40:08.000Z</time>
      </trkpt>
      <trkpt lat="45.60715" lon="6.64857">
        <ele>2262.8000488281</ele>
        <time>2019-01-19T10:40:10.000Z</time>
      </trkpt>
      <trkpt lat="45.60715" lon="6.64857">
        <ele>2262.8000488281</ele>
        <time>2019-01-19T10:40:11.000Z</time>
      </trkpt>
      <trkpt lat="45.60715" lon="6.64857">
        <ele>2262.8000488281</ele>
        <time>2019-01-19T10:40:12.000Z</time>
      </trkpt>
      <trkpt lat="45.60715" lon="6.64857">
        <ele>2262.8000488281</ele>
        <time>2019-01-19T10:40:15.000Z</time>
      </trkpt>
      <trkpt lat="45.60715" lon="6.64857">
        <ele>2262.8000488281</ele>
        <time>2019-01-19T10:40:16.000Z</time>
      </trkpt>
      <trkpt lat="45.60715" lon="6.64857">
        <ele>2262.8000488281</ele>
        <time>2019-01-19T10:40:18.000Z</time>
      </trkpt>
      <trkpt lat="45.60715" lon="6.64857">
        <ele>2262.8000488281</ele>
        <time>2019-01-19T10:40:19.000Z</time>
      </trkpt>
      <trkpt lat="45.60715" lon="6.64857">
        <ele>2262.8000488281</ele>
        <time>2019-01-19T10:40:20.000Z</time>
      </trkpt>
      <trkpt lat="45.60715" lon="6.64857">
        <ele>2262.8000488281</ele>
        <time>2019-01-19T10:40:21.000Z</time>
      </trkpt>
      <trkpt lat="45.60715" lon="6.64857">
        <ele>2262.8000488281</ele>
        <time>2019-01-19T10:40:22.000Z</time>
      </trkpt>
      <trkpt lat="45.60715" lon="6.64857">
        <ele>2262.8000488281</ele>
        <time>2019-01-19T10:40:24.000Z</time>
      </trkpt>
      <trkpt lat="45.60715" lon="6.64857">
        <ele>2262.8000488281</ele>
        <time>2019-01-19T10:40:25.000Z</time>
      </trkpt>
      <trkpt lat="45.60715" lon="6.64857">
        <ele>2262.8000488281</ele>
        <time>2019-01-19T10:40:26.000Z</time>
      </trkpt>
      <trkpt lat="45.60715" lon="6.64857">
        <ele>2262.8000488281</ele>
        <time>2019-01-19T10:40:27.000Z</time>
      </trkpt>
      <trkpt lat="45.60715" lon="6.64857">
        <ele>2262.8000488281</ele>
        <time>2019-01-19T10:40:28.000Z</time>
      </trkpt>
      <trkpt lat="45.60715" lon="6.64858">
        <ele>2262.3999023438</ele>
        <time>2019-01-19T10:40:35.000Z</time>
      </trkpt>
      <trkpt lat="45.60715" lon="6.64858">
        <ele>2262.3999023438</ele>
        <time>2019-01-19T10:40:41.000Z</time>
      </trkpt>
      <trkpt lat="45.60715" lon="6.64858">
        <ele>2262.3999023438</ele>
        <time>2019-01-19T10:40:42.000Z</time>
      </trkpt>
      <trkpt lat="45.60714" lon="6.64858">
        <ele>2261.6000976562</ele>
        <time>2019-01-19T10:40:48.000Z</time>
      </trkpt>
      <trkpt lat="45.60714" lon="6.64858">
        <ele>2261.3999023438</ele>
        <time>2019-01-19T10:40:49.000Z</time>
      </trkpt>
      <trkpt lat="45.60714" lon="6.64858">
        <ele>2261.6000976562</ele>
        <time>2019-01-19T10:40:56.000Z</time>
      </trkpt>
      <trkpt lat="45.60714" lon="6.64858">
        <ele>2261.6000976562</ele>
        <time>2019-01-19T10:41:02.000Z</time>
      </trkpt>
      <trkpt lat="45.60714" lon="6.64858">
        <ele>2261.3999023438</ele>
        <time>2019-01-19T10:41:04.000Z</time>
      </trkpt>
      <trkpt lat="45.60713" lon="6.6486">
        <ele>2260</ele>
        <time>2019-01-19T10:41:10.000Z</time>
      </trkpt>
      <trkpt lat="45.60713" lon="6.6486">
        <ele>2260</ele>
        <time>2019-01-19T10:41:13.000Z</time>
      </trkpt>
      <trkpt lat="45.60713" lon="6.6486">
        <ele>2259.6000976562</ele>
        <time>2019-01-19T10:41:17.000Z</time>
      </trkpt>
      <trkpt lat="45.60713" lon="6.64859">
        <ele>2260.6000976562</ele>
        <time>2019-01-19T10:41:24.000Z</time>
      </trkpt>
      <trkpt lat="45.60713" lon="6.64859">
        <ele>2261</ele>
        <time>2019-01-19T10:41:25.000Z</time>
      </trkpt>
      <trkpt lat="45.60712" lon="6.64859">
        <ele>2260.8000488281</ele>
        <time>2019-01-19T10:41:27.000Z</time>
      </trkpt>
      <trkpt lat="45.60712" lon="6.64859">
        <ele>2260.8000488281</ele>
        <time>2019-01-19T10:41:33.000Z</time>
      </trkpt>
      <trkpt lat="45.60712" lon="6.64859">
        <ele>2260.8000488281</ele>
        <time>2019-01-19T10:41:42.000Z</time>
      </trkpt>
      <trkpt lat="45.60712" lon="6.64859">
        <ele>2260.8000488281</ele>
        <time>2019-01-19T10:41:49.000Z</time>
      </trkpt>
      <trkpt lat="45.60712" lon="6.64859">
        <ele>2260.8000488281</ele>
        <time>2019-01-19T10:41:52.000Z</time>
      </trkpt>
      <trkpt lat="45.60712" lon="6.64859">
        <ele>2260.8000488281</ele>
        <time>2019-01-19T10:42:00.000Z</time>
      </trkpt>
      <trkpt lat="45.60712" lon="6.64859">
        <ele>2260.8000488281</ele>
        <time>2019-01-19T10:42:08.000Z</time>
      </trkpt>
      <trkpt lat="45.60712" lon="6.64859">
        <ele>2260.8000488281</ele>
        <time>2019-01-19T10:42:11.000Z</time>
      </trkpt>
      <trkpt lat="45.60712" lon="6.64859">
        <ele>2260.8000488281</ele>
        <time>2019-01-19T10:42:12.000Z</time>
      </trkpt>
      <trkpt lat="45.60712" lon="6.64859">
        <ele>2260.8000488281</ele>
        <time>2019-01-19T10:42:13.000Z</time>
      </trkpt>
      <trkpt lat="45.60712" lon="6.64859">
        <ele>2260.8000488281</ele>
        <time>2019-01-19T10:42:14.000Z</time>
      </trkpt>
      <trkpt lat="45.60711" lon="6.64859">
        <ele>2260.6000976562</ele>
        <time>2019-01-19T10:42:15.000Z</time>
      </trkpt>
      <trkpt lat="45.60711" lon="6.64859">
        <ele>2260.8000488281</ele>
        <time>2019-01-19T10:42:16.000Z</time>
      </trkpt>
      <trkpt lat="45.60711" lon="6.64859">
        <ele>2260.8000488281</ele>
        <time>2019-01-19T10:42:17.000Z</time>
      </trkpt>
      <trkpt lat="45.60711" lon="6.64859">
        <ele>2260.8000488281</ele>
        <time>2019-01-19T10:42:19.000Z</time>
      </trkpt>
      <trkpt lat="45.60711" lon="6.64859">
        <ele>2260.8000488281</ele>
        <time>2019-01-19T10:42:21.000Z</time>
      </trkpt>
      <trkpt lat="45.60711" lon="6.64859">
        <ele>2260.8000488281</ele>
        <time>2019-01-19T10:42:28.000Z</time>
      </trkpt>
      <trkpt lat="45.6071" lon="6.64858">
        <ele>2261</ele>
        <time>2019-01-19T10:42:38.000Z</time>
      </trkpt>
      <trkpt lat="45.6071" lon="6.64858">
        <ele>2260.8000488281</ele>
        <time>2019-01-19T10:42:47.000Z</time>
      </trkpt>
      <trkpt lat="45.6071" lon="6.64858">
        <ele>2260.8000488281</ele>
        <time>2019-01-19T10:42:54.000Z</time>
      </trkpt>
      <trkpt lat="45.60709" lon="6.64858">
        <ele>2261</ele>
        <time>2019-01-19T10:42:56.000Z</time>
      </trkpt>
      <trkpt lat="45.60709" lon="6.64858">
        <ele>2261</ele>
        <time>2019-01-19T10:43:01.000Z</time>
      </trkpt>
      <trkpt lat="45.60709" lon="6.64858">
        <ele>2261</ele>
        <time>2019-01-19T10:43:07.000Z</time>
      </trkpt>
      <trkpt lat="45.60709" lon="6.64858">
        <ele>2261</ele>
        <time>2019-01-19T10:43:09.000Z</time>
      </trkpt>
      <trkpt lat="45.60709" lon="6.64858">
        <ele>2261</ele>
        <time>2019-01-19T10:43:13.000Z</time>
      </trkpt>
      <trkpt lat="45.60709" lon="6.64858">
        <ele>2261</ele>
        <time>2019-01-19T10:43:14.000Z</time>
      </trkpt>
      <trkpt lat="45.60709" lon="6.64858">
        <ele>2261</ele>
        <time>2019-01-19T10:43:23.000Z</time>
      </trkpt>
      <trkpt lat="45.60709" lon="6.64858">
        <ele>2261</ele>
        <time>2019-01-19T10:43:31.000Z</time>
      </trkpt>
      <trkpt lat="45.60709" lon="6.64858">
        <ele>2261</ele>
        <time>2019-01-19T10:43:32.000Z</time>
      </trkpt>
      <trkpt lat="45.60709" lon="6.64858">
        <ele>2261</ele>
        <time>2019-01-19T10:43:33.000Z</time>
      </trkpt>
      <trkpt lat="45.60709" lon="6.64858">
        <ele>2261</ele>
        <time>2019-01-19T10:43:34.000Z</time>
      </trkpt>
      <trkpt lat="45.60709" lon="6.64858">
        <ele>2261</ele>
        <time>2019-01-19T10:43:35.000Z</time>
      </trkpt>
      <trkpt lat="45.60709" lon="6.64858">
        <ele>2260.6000976562</ele>
        <time>2019-01-19T10:43:36.000Z</time>
      </trkpt>
      <trkpt lat="45.60709" lon="6.64858">
        <ele>2260.6000976562</ele>
        <time>2019-01-19T10:43:37.000Z</time>
      </trkpt>
      <trkpt lat="45.60709" lon="6.64858">
        <ele>2260.6000976562</ele>
        <time>2019-01-19T10:43:38.000Z</time>
      </trkpt>
      <trkpt lat="45.60709" lon="6.64858">
        <ele>2260.6000976562</ele>
        <time>2019-01-19T10:43:39.000Z</time>
      </trkpt>
      <trkpt lat="45.60709" lon="6.64858">
        <ele>2260.6000976562</ele>
        <time>2019-01-19T10:43:40.000Z</time>
      </trkpt>
      <trkpt lat="45.60709" lon="6.64858">
        <ele>2260.6000976562</ele>
        <time>2019-01-19T10:43:41.000Z</time>
      </trkpt>
      <trkpt lat="45.60709" lon="6.64859">
        <ele>2260.3999023438</ele>
        <time>2019-01-19T10:43:42.000Z</time>
      </trkpt>
      <trkpt lat="45.60709" lon="6.64859">
        <ele>2260.3999023438</ele>
        <time>2019-01-19T10:43:44.000Z</time>
      </trkpt>
      <trkpt lat="45.60709" lon="6.64859">
        <ele>2260.3999023438</ele>
        <time>2019-01-19T10:43:45.000Z</time>
      </trkpt>
      <trkpt lat="45.60709" lon="6.64859">
        <ele>2260.3999023438</ele>
        <time>2019-01-19T10:43:47.000Z</time>
      </trkpt>
      <trkpt lat="45.60709" lon="6.64859">
        <ele>2260.3999023438</ele>
        <time>2019-01-19T10:43:48.000Z</time>
      </trkpt>
      <trkpt lat="45.60709" lon="6.64859">
        <ele>2260.3999023438</ele>
        <time>2019-01-19T10:43:52.000Z</time>
      </trkpt>
      <trkpt lat="45.60709" lon="6.64859">
        <ele>2260.3999023438</ele>
        <time>2019-01-19T10:43:57.000Z</time>
      </trkpt>
      <trkpt lat="45.60709" lon="6.64859">
        <ele>2260.3999023438</ele>
        <time>2019-01-19T10:44:06.000Z</time>
      </trkpt>
      <trkpt lat="45.60709" lon="6.64859">
        <ele>2260.3999023438</ele>
        <time>2019-01-19T10:44:09.000Z</time>
      </trkpt>
      <trkpt lat="45.60709" lon="6.64859">
        <ele>2260.3999023438</ele>
        <time>2019-01-19T10:44:19.000Z</time>
      </trkpt>
      <trkpt lat="45.60709" lon="6.64859">
        <ele>2260.6000976562</ele>
        <time>2019-01-19T10:44:22.000Z</time>
      </trkpt>
      <trkpt lat="45.60709" lon="6.64859">
        <ele>2260.6000976562</ele>
        <time>2019-01-19T10:44:28.000Z</time>
      </trkpt>
      <trkpt lat="45.60709" lon="6.64859">
        <ele>2260.6000976562</ele>
        <time>2019-01-19T10:44:33.000Z</time>
      </trkpt>
      <trkpt lat="45.60709" lon="6.64859">
        <ele>2260.6000976562</ele>
        <time>2019-01-19T10:44:36.000Z</time>
      </trkpt>
      <trkpt lat="45.60709" lon="6.64859">
        <ele>2260.6000976562</ele>
        <time>2019-01-19T10:44:42.000Z</time>
      </trkpt>
      <trkpt lat="45.60709" lon="6.64859">
        <ele>2260.1999511719</ele>
        <time>2019-01-19T10:44:43.000Z</time>
      </trkpt>
      <trkpt lat="45.60709" lon="6.64859">
        <ele>2260.1999511719</ele>
        <time>2019-01-19T10:44:55.000Z</time>
      </trkpt>
      <trkpt lat="45.60709" lon="6.64859">
        <ele>2260.1999511719</ele>
        <time>2019-01-19T10:45:07.000Z</time>
      </trkpt>
      <trkpt lat="45.60709" lon="6.64859">
        <ele>2260</ele>
        <time>2019-01-19T10:45:14.000Z</time>
      </trkpt>
      <trkpt lat="45.60709" lon="6.64859">
        <ele>2260</ele>
        <time>2019-01-19T10:45:25.000Z</time>
      </trkpt>
      <trkpt lat="45.60709" lon="6.64859">
        <ele>2260</ele>
        <time>2019-01-19T10:45:36.000Z</time>
      </trkpt>
      <trkpt lat="45.60709" lon="6.64859">
        <ele>2260</ele>
        <time>2019-01-19T10:45:45.000Z</time>
      </trkpt>
      <trkpt lat="45.60709" lon="6.64859">
        <ele>2260</ele>
        <time>2019-01-19T10:45:48.000Z</time>
      </trkpt>
      <trkpt lat="45.60709" lon="6.64859">
        <ele>2260</ele>
        <time>2019-01-19T10:45:53.000Z</time>
      </trkpt>
      <trkpt lat="45.60709" lon="6.64859">
        <ele>2260</ele>
        <time>2019-01-19T10:45:57.000Z</time>
      </trkpt>
      <trkpt lat="45.60709" lon="6.64859">
        <ele>2260</ele>
        <time>2019-01-19T10:46:02.000Z</time>
      </trkpt>
      <trkpt lat="45.60709" lon="6.64859">
        <ele>2260</ele>
        <time>2019-01-19T10:46:09.000Z</time>
      </trkpt>
      <trkpt lat="45.60709" lon="6.64859">
        <ele>2260</ele>
        <time>2019-01-19T10:46:21.000Z</time>
      </trkpt>
      <trkpt lat="45.60708" lon="6.64859">
        <ele>2260.3999023438</ele>
        <time>2019-01-19T10:46:25.000Z</time>
      </trkpt>
      <trkpt lat="45.60708" lon="6.64859">
        <ele>2260.3999023438</ele>
        <time>2019-01-19T10:46:31.000Z</time>
      </trkpt>
      <trkpt lat="45.60708" lon="6.64859">
        <ele>2260.3999023438</ele>
        <time>2019-01-19T10:46:44.000Z</time>
      </trkpt>
      <trkpt lat="45.60708" lon="6.64859">
        <ele>2260.3999023438</ele>
        <time>2019-01-19T10:46:45.000Z</time>
      </trkpt>
      <trkpt lat="45.60708" lon="6.64859">
        <ele>2260.3999023438</ele>
        <time>2019-01-19T10:46:46.000Z</time>
      </trkpt>
      <trkpt lat="45.60708" lon="6.64859">
        <ele>2260.3999023438</ele>
        <time>2019-01-19T10:46:48.000Z</time>
      </trkpt>
      <trkpt lat="45.60708" lon="6.64859">
        <ele>2260.3999023438</ele>
        <time>2019-01-19T10:46:49.000Z</time>
      </trkpt>
      <trkpt lat="45.60708" lon="6.64859">
        <ele>2260.3999023438</ele>
        <time>2019-01-19T10:46:50.000Z</time>
      </trkpt>
      <trkpt lat="45.60708" lon="6.64859">
        <ele>2260.3999023438</ele>
        <time>2019-01-19T10:46:51.000Z</time>
      </trkpt>
      <trkpt lat="45.60708" lon="6.64859">
        <ele>2260.3999023438</ele>
        <time>2019-01-19T10:46:52.000Z</time>
      </trkpt>
      <trkpt lat="45.60708" lon="6.64859">
        <ele>2260.3999023438</ele>
        <time>2019-01-19T10:46:53.000Z</time>
      </trkpt>
      <trkpt lat="45.60708" lon="6.64859">
        <ele>2260.3999023438</ele>
        <time>2019-01-19T10:46:54.000Z</time>
      </trkpt>
      <trkpt lat="45.60708" lon="6.64859">
        <ele>2260.3999023438</ele>
        <time>2019-01-19T10:46:55.000Z</time>
      </trkpt>
      <trkpt lat="45.60708" lon="6.64859">
        <ele>2260.3999023438</ele>
        <time>2019-01-19T10:46:56.000Z</time>
      </trkpt>
      <trkpt lat="45.60708" lon="6.64859">
        <ele>2260.3999023438</ele>
        <time>2019-01-19T10:46:57.000Z</time>
      </trkpt>
      <trkpt lat="45.60708" lon="6.64859">
        <ele>2260.3999023438</ele>
        <time>2019-01-19T10:46:59.000Z</time>
      </trkpt>
      <trkpt lat="45.60708" lon="6.6486">
        <ele>2259.3999023438</ele>
        <time>2019-01-19T10:47:10.000Z</time>
      </trkpt>
      <trkpt lat="45.60708" lon="6.6486">
        <ele>2259.3999023438</ele>
        <time>2019-01-19T10:47:20.000Z</time>
      </trkpt>
      <trkpt lat="45.60708" lon="6.6486">
        <ele>2259.3999023438</ele>
        <time>2019-01-19T10:47:21.000Z</time>
      </trkpt>
      <trkpt lat="45.60708" lon="6.6486">
        <ele>2259.1999511719</ele>
        <time>2019-01-19T10:47:28.000Z</time>
      </trkpt>
      <trkpt lat="45.60708" lon="6.6486">
        <ele>2259.1999511719</ele>
        <time>2019-01-19T10:47:36.000Z</time>
      </trkpt>
      <trkpt lat="45.60708" lon="6.6486">
        <ele>2259.1999511719</ele>
        <time>2019-01-19T10:47:45.000Z</time>
      </trkpt>
      <trkpt lat="45.60708" lon="6.6486">
        <ele>2259.1999511719</ele>
        <time>2019-01-19T10:47:59.000Z</time>
      </trkpt>
      <trkpt lat="45.60708" lon="6.6486">
        <ele>2259.1999511719</ele>
        <time>2019-01-19T10:48:00.000Z</time>
      </trkpt>
      <trkpt lat="45.60708" lon="6.6486">
        <ele>2259.1999511719</ele>
        <time>2019-01-19T10:48:08.000Z</time>
      </trkpt>
      <trkpt lat="45.60707" lon="6.6486">
        <ele>2258.3999023438</ele>
        <time>2019-01-19T10:48:17.000Z</time>
      </trkpt>
      <trkpt lat="45.60707" lon="6.6486">
        <ele>2258.3999023438</ele>
        <time>2019-01-19T10:48:27.000Z</time>
      </trkpt>
      <trkpt lat="45.60707" lon="6.6486">
        <ele>2258.3999023438</ele>
        <time>2019-01-19T10:48:31.000Z</time>
      </trkpt>
      <trkpt lat="45.60707" lon="6.6486">
        <ele>2258.3999023438</ele>
        <time>2019-01-19T10:48:38.000Z</time>
      </trkpt>
      <trkpt lat="45.60707" lon="6.6486">
        <ele>2258.3999023438</ele>
        <time>2019-01-19T10:48:46.000Z</time>
      </trkpt>
      <trkpt lat="45.60707" lon="6.6486">
        <ele>2258.3999023438</ele>
        <time>2019-01-19T10:48:47.000Z</time>
      </trkpt>
      <trkpt lat="45.60706" lon="6.6486">
        <ele>2259.1999511719</ele>
        <time>2019-01-19T10:48:54.000Z</time>
      </trkpt>
      <trkpt lat="45.60706" lon="6.6486">
        <ele>2259.1999511719</ele>
        <time>2019-01-19T10:49:02.000Z</time>
      </trkpt>
      <trkpt lat="45.60706" lon="6.6486">
        <ele>2259.1999511719</ele>
        <time>2019-01-19T10:49:11.000Z</time>
      </trkpt>
      <trkpt lat="45.60706" lon="6.6486">
        <ele>2259.1999511719</ele>
        <time>2019-01-19T10:49:16.000Z</time>
      </trkpt>
      <trkpt lat="45.60705" lon="6.64859">
        <ele>2259.3999023438</ele>
        <time>2019-01-19T10:49:24.000Z</time>
      </trkpt>
      <trkpt lat="45.60705" lon="6.64859">
        <ele>2259.3999023438</ele>
        <time>2019-01-19T10:49:27.000Z</time>
      </trkpt>
      <trkpt lat="45.60705" lon="6.64859">
        <ele>2259.3999023438</ele>
        <time>2019-01-19T10:49:29.000Z</time>
      </trkpt>
      <trkpt lat="45.60705" lon="6.64859">
        <ele>2259.3999023438</ele>
        <time>2019-01-19T10:49:37.000Z</time>
      </trkpt>
      <trkpt lat="45.60704" lon="6.64859">
        <ele>2259.3999023438</ele>
        <time>2019-01-19T10:49:42.000Z</time>
      </trkpt>
      <trkpt lat="45.60704" lon="6.64859">
        <ele>2259.3999023438</ele>
        <time>2019-01-19T10:49:47.000Z</time>
      </trkpt>
      <trkpt lat="45.60707" lon="6.64861">
        <ele>2257.8000488281</ele>
        <time>2019-01-19T10:49:53.000Z</time>
      </trkpt>
      <trkpt lat="45.60707" lon="6.64862">
        <ele>2257.3999023438</ele>
        <time>2019-01-19T10:49:54.000Z</time>
      </trkpt>
      <trkpt lat="45.60706" lon="6.64862">
        <ele>2256.6000976562</ele>
        <time>2019-01-19T10:49:57.000Z</time>
      </trkpt>
      <trkpt lat="45.60706" lon="6.64862">
        <ele>2256.6000976562</ele>
        <time>2019-01-19T10:50:02.000Z</time>
      </trkpt>
      <trkpt lat="45.60706" lon="6.64862">
        <ele>2256.6000976562</ele>
        <time>2019-01-19T10:50:13.000Z</time>
      </trkpt>
      <trkpt lat="45.60706" lon="6.64862">
        <ele>2256.6000976562</ele>
        <time>2019-01-19T10:50:15.000Z</time>
      </trkpt>
      <trkpt lat="45.60706" lon="6.64863">
        <ele>2256.3999023438</ele>
        <time>2019-01-19T10:50:24.000Z</time>
      </trkpt>
      <trkpt lat="45.60706" lon="6.64863">
        <ele>2256.3999023438</ele>
        <time>2019-01-19T10:50:36.000Z</time>
      </trkpt>
      <trkpt lat="45.60706" lon="6.64863">
        <ele>2256.3999023438</ele>
        <time>2019-01-19T10:50:45.000Z</time>
      </trkpt>
      <trkpt lat="45.60706" lon="6.64863">
        <ele>2256.3999023438</ele>
        <time>2019-01-19T10:50:47.000Z</time>
      </trkpt>
      <trkpt lat="45.60706" lon="6.64863">
        <ele>2256.3999023438</ele>
        <time>2019-01-19T10:50:54.000Z</time>
      </trkpt>
      <trkpt lat="45.60706" lon="6.64863">
        <ele>2256.3999023438</ele>
        <time>2019-01-19T10:51:01.000Z</time>
      </trkpt>
      <trkpt lat="45.60706" lon="6.64863">
        <ele>2256.3999023438</ele>
        <time>2019-01-19T10:51:06.000Z</time>
      </trkpt>
      <trkpt lat="45.60706" lon="6.64863">
        <ele>2256.3999023438</ele>
        <time>2019-01-19T10:51:09.000Z</time>
      </trkpt>
      <trkpt lat="45.60706" lon="6.64863">
        <ele>2256.3999023438</ele>
        <time>2019-01-19T10:51:13.000Z</time>
      </trkpt>
      <trkpt lat="45.60706" lon="6.64863">
        <ele>2256.3999023438</ele>
        <time>2019-01-19T10:51:19.000Z</time>
      </trkpt>
      <trkpt lat="45.60706" lon="6.64863">
        <ele>2256.3999023438</ele>
        <time>2019-01-19T10:51:24.000Z</time>
      </trkpt>
      <trkpt lat="45.60706" lon="6.64863">
        <ele>2256.3999023438</ele>
        <time>2019-01-19T10:51:28.000Z</time>
      </trkpt>
      <trkpt lat="45.60706" lon="6.64863">
        <ele>2256.3999023438</ele>
        <time>2019-01-19T10:51:35.000Z</time>
      </trkpt>
      <trkpt lat="45.60705" lon="6.64863">
        <ele>2256.1999511719</ele>
        <time>2019-01-19T10:51:43.000Z</time>
      </trkpt>
      <trkpt lat="45.60705" lon="6.64863">
        <ele>2256.1999511719</ele>
        <time>2019-01-19T10:51:46.000Z</time>
      </trkpt>
      <trkpt lat="45.60705" lon="6.64863">
        <ele>2256.1999511719</ele>
        <time>2019-01-19T10:51:55.000Z</time>
      </trkpt>
      <trkpt lat="45.60705" lon="6.64863">
        <ele>2256.1999511719</ele>
        <time>2019-01-19T10:52:01.000Z</time>
      </trkpt>
      <trkpt lat="45.60705" lon="6.64863">
        <ele>2256.1999511719</ele>
        <time>2019-01-19T10:52:02.000Z</time>
      </trkpt>
      <trkpt lat="45.60705" lon="6.64862">
        <ele>2257</ele>
        <time>2019-01-19T10:52:06.000Z</time>
      </trkpt>
      <trkpt lat="45.60705" lon="6.64861">
        <ele>2257.3999023438</ele>
        <time>2019-01-19T10:52:08.000Z</time>
      </trkpt>
      <trkpt lat="45.60706" lon="6.64859">
        <ele>2259.8000488281</ele>
        <time>2019-01-19T10:52:14.000Z</time>
      </trkpt>
      <trkpt lat="45.60707" lon="6.64857">
        <ele>2261.1999511719</ele>
        <time>2019-01-19T10:52:17.000Z</time>
      </trkpt>
      <trkpt lat="45.60706" lon="6.64855">
        <ele>2262.8000488281</ele>
        <time>2019-01-19T10:52:21.000Z</time>
      </trkpt>
      <trkpt lat="45.60706" lon="6.64855">
        <ele>2263.6000976562</ele>
        <time>2019-01-19T10:52:29.000Z</time>
      </trkpt>
      <trkpt lat="45.60705" lon="6.64853">
        <ele>2265</ele>
        <time>2019-01-19T10:52:34.000Z</time>
      </trkpt>
      <trkpt lat="45.60705" lon="6.64853">
        <ele>2265</ele>
        <time>2019-01-19T10:52:36.000Z</time>
      </trkpt>
      <trkpt lat="45.60703" lon="6.64851">
        <ele>2266.1999511719</ele>
        <time>2019-01-19T10:52:41.000Z</time>
      </trkpt>
      <trkpt lat="45.60702" lon="6.6485">
        <ele>2267</ele>
        <time>2019-01-19T10:52:45.000Z</time>
      </trkpt>
      <trkpt lat="45.60702" lon="6.64849">
        <ele>2268</ele>
        <time>2019-01-19T10:52:48.000Z</time>
      </trkpt>
      <trkpt lat="45.60702" lon="6.64848">
        <ele>2268.8000488281</ele>
        <time>2019-01-19T10:52:54.000Z</time>
      </trkpt>
      <trkpt lat="45.60702" lon="6.64848">
        <ele>2268.8000488281</ele>
        <time>2019-01-19T10:52:55.000Z</time>
      </trkpt>
      <trkpt lat="45.60702" lon="6.64847">
        <ele>2269.6000976562</ele>
        <time>2019-01-19T10:52:57.000Z</time>
      </trkpt>
      <trkpt lat="45.60702" lon="6.64846">
        <ele>2270.3999023438</ele>
        <time>2019-01-19T10:53:04.000Z</time>
      </trkpt>
      <trkpt lat="45.60701" lon="6.64846">
        <ele>2271</ele>
        <time>2019-01-19T10:53:11.000Z</time>
      </trkpt>
      <trkpt lat="45.60701" lon="6.64845">
        <ele>2271.3999023438</ele>
        <time>2019-01-19T10:53:15.000Z</time>
      </trkpt>
      <trkpt lat="45.60701" lon="6.64845">
        <ele>2271.3999023438</ele>
        <time>2019-01-19T10:53:19.000Z</time>
      </trkpt>
      <trkpt lat="45.60701" lon="6.64843">
        <ele>2273</ele>
        <time>2019-01-19T10:53:25.000Z</time>
      </trkpt>
      <trkpt lat="45.607" lon="6.64843">
        <ele>2273.6000976562</ele>
        <time>2019-01-19T10:53:26.000Z</time>
      </trkpt>
      <trkpt lat="45.60701" lon="6.64842">
        <ele>2274.1999511719</ele>
        <time>2019-01-19T10:53:31.000Z</time>
      </trkpt>
      <trkpt lat="45.60701" lon="6.64842">
        <ele>2274.1999511719</ele>
        <time>2019-01-19T10:53:34.000Z</time>
      </trkpt>
      <trkpt lat="45.60701" lon="6.64842">
        <ele>2274.1999511719</ele>
        <time>2019-01-19T10:53:35.000Z</time>
      </trkpt>
      <trkpt lat="45.60701" lon="6.64842">
        <ele>2274.1999511719</ele>
        <time>2019-01-19T10:53:36.000Z</time>
      </trkpt>
      <trkpt lat="45.60701" lon="6.64842">
        <ele>2274.1999511719</ele>
        <time>2019-01-19T10:53:37.000Z</time>
      </trkpt>
      <trkpt lat="45.60701" lon="6.64841">
        <ele>2274.8000488281</ele>
        <time>2019-01-19T10:53:42.000Z</time>
      </trkpt>
      <trkpt lat="45.60701" lon="6.64841">
        <ele>2275.1999511719</ele>
        <time>2019-01-19T10:53:43.000Z</time>
      </trkpt>
      <trkpt lat="45.60701" lon="6.6484">
        <ele>2276</ele>
        <time>2019-01-19T10:53:44.000Z</time>
      </trkpt>
      <trkpt lat="45.60701" lon="6.64839">
        <ele>2276.6000976562</ele>
        <time>2019-01-19T10:53:45.000Z</time>
      </trkpt>
      <trkpt lat="45.60702" lon="6.64838">
        <ele>2278.1999511719</ele>
        <time>2019-01-19T10:53:47.000Z</time>
      </trkpt>
      <trkpt lat="45.60702" lon="6.64836">
        <ele>2279.8000488281</ele>
        <time>2019-01-19T10:53:49.000Z</time>
      </trkpt>
      <trkpt lat="45.60701" lon="6.6483">
        <ele>2285.3999023438</ele>
        <time>2019-01-19T10:53:56.000Z</time>
      </trkpt>
      <trkpt lat="45.60701" lon="6.64828">
        <ele>2287.1999511719</ele>
        <time>2019-01-19T10:53:58.000Z</time>
      </trkpt>
      <trkpt lat="45.60699" lon="6.64825">
        <ele>2290</ele>
        <time>2019-01-19T10:54:00.000Z</time>
      </trkpt>
      <trkpt lat="45.60698" lon="6.64822">
        <ele>2292</ele>
        <time>2019-01-19T10:54:02.000Z</time>
      </trkpt>
      <trkpt lat="45.60685" lon="6.64802">
        <ele>2289</ele>
        <time>2019-01-19T10:54:26.000Z</time>
      </trkpt>
      <trkpt lat="45.60686" lon="6.64802">
        <ele>2289.1999511719</ele>
        <time>2019-01-19T10:54:28.000Z</time>
      </trkpt>
      <trkpt lat="45.60688" lon="6.64802">
        <ele>2289.3999023438</ele>
        <time>2019-01-19T10:54:30.000Z</time>
      </trkpt>
      <trkpt lat="45.60689" lon="6.64802">
        <ele>2289.6000976562</ele>
        <time>2019-01-19T10:54:36.000Z</time>
      </trkpt>
      <trkpt lat="45.60689" lon="6.64802">
        <ele>2289.6000976562</ele>
        <time>2019-01-19T10:54:39.000Z</time>
      </trkpt>
      <trkpt lat="45.60689" lon="6.64802">
        <ele>2289.6000976562</ele>
        <time>2019-01-19T10:54:42.000Z</time>
      </trkpt>
      <trkpt lat="45.60689" lon="6.64802">
        <ele>2289.6000976562</ele>
        <time>2019-01-19T10:54:44.000Z</time>
      </trkpt>
      <trkpt lat="45.60689" lon="6.64802">
        <ele>2289.6000976562</ele>
        <time>2019-01-19T10:54:45.000Z</time>
      </trkpt>
      <trkpt lat="45.60689" lon="6.64802">
        <ele>2289.6000976562</ele>
        <time>2019-01-19T10:54:47.000Z</time>
      </trkpt>
      <trkpt lat="45.60689" lon="6.64822">
        <ele>2290.8000488281</ele>
        <time>2019-01-19T10:54:50.000Z</time>
      </trkpt>
      <trkpt lat="45.60691" lon="6.64826">
        <ele>2286.8000488281</ele>
        <time>2019-01-19T10:54:52.000Z</time>
      </trkpt>
      <trkpt lat="45.60691" lon="6.64826">
        <ele>2286.8000488281</ele>
        <time>2019-01-19T10:54:58.000Z</time>
      </trkpt>
      <trkpt lat="45.60692" lon="6.64826">
        <ele>2287.1999511719</ele>
        <time>2019-01-19T10:55:02.000Z</time>
      </trkpt>
      <trkpt lat="45.60693" lon="6.64826">
        <ele>2287.3999023438</ele>
        <time>2019-01-19T10:55:05.000Z</time>
      </trkpt>
      <trkpt lat="45.60694" lon="6.64825">
        <ele>2289</ele>
        <time>2019-01-19T10:55:07.000Z</time>
      </trkpt>
      <trkpt lat="45.60696" lon="6.64825">
        <ele>2288.6000976562</ele>
        <time>2019-01-19T10:55:09.000Z</time>
      </trkpt>
      <trkpt lat="45.60696" lon="6.64827">
        <ele>2287</ele>
        <time>2019-01-19T10:55:12.000Z</time>
      </trkpt>
      <trkpt lat="45.60697" lon="6.64826">
        <ele>2287.8000488281</ele>
        <time>2019-01-19T10:55:15.000Z</time>
      </trkpt>
      <trkpt lat="45.60696" lon="6.64826">
        <ele>2288</ele>
        <time>2019-01-19T10:55:20.000Z</time>
      </trkpt>
      <trkpt lat="45.60696" lon="6.64826">
        <ele>2288</ele>
        <time>2019-01-19T10:55:24.000Z</time>
      </trkpt>
      <trkpt lat="45.60696" lon="6.64826">
        <ele>2288</ele>
        <time>2019-01-19T10:55:33.000Z</time>
      </trkpt>
      <trkpt lat="45.60696" lon="6.64826">
        <ele>2288</ele>
        <time>2019-01-19T10:55:44.000Z</time>
      </trkpt>
      <trkpt lat="45.60696" lon="6.64826">
        <ele>2288</ele>
        <time>2019-01-19T10:55:56.000Z</time>
      </trkpt>
      <trkpt lat="45.60697" lon="6.64825">
        <ele>2288.8000488281</ele>
        <time>2019-01-19T10:56:02.000Z</time>
      </trkpt>
      <trkpt lat="45.60697" lon="6.64825">
        <ele>2288.8000488281</ele>
        <time>2019-01-19T10:56:04.000Z</time>
      </trkpt>
      <trkpt lat="45.60697" lon="6.64825">
        <ele>2288.8000488281</ele>
        <time>2019-01-19T10:56:18.000Z</time>
      </trkpt>
      <trkpt lat="45.60697" lon="6.64825">
        <ele>2288.8000488281</ele>
        <time>2019-01-19T10:56:31.000Z</time>
      </trkpt>
      <trkpt lat="45.60697" lon="6.64825">
        <ele>2289</ele>
        <time>2019-01-19T10:56:46.000Z</time>
      </trkpt>
      <trkpt lat="45.60697" lon="6.64825">
        <ele>2289</ele>
        <time>2019-01-19T10:56:53.000Z</time>
      </trkpt>
      <trkpt lat="45.60697" lon="6.64825">
        <ele>2289</ele>
        <time>2019-01-19T10:57:01.000Z</time>
      </trkpt>
      <trkpt lat="45.60697" lon="6.64825">
        <ele>2289</ele>
        <time>2019-01-19T10:57:11.000Z</time>
      </trkpt>
      <trkpt lat="45.60697" lon="6.64825">
        <ele>2288.8000488281</ele>
        <time>2019-01-19T10:57:22.000Z</time>
      </trkpt>
      <trkpt lat="45.60697" lon="6.64824">
        <ele>2289.6000976562</ele>
        <time>2019-01-19T10:57:27.000Z</time>
      </trkpt>
      <trkpt lat="45.60697" lon="6.64823">
        <ele>2291</ele>
        <time>2019-01-19T10:57:32.000Z</time>
      </trkpt>
      <trkpt lat="45.60698" lon="6.64823">
        <ele>2291</ele>
        <time>2019-01-19T10:57:37.000Z</time>
      </trkpt>
      <trkpt lat="45.60698" lon="6.64823">
        <ele>2291</ele>
        <time>2019-01-19T10:57:40.000Z</time>
      </trkpt>
      <trkpt lat="45.60698" lon="6.64823">
        <ele>2291</ele>
        <time>2019-01-19T10:57:49.000Z</time>
      </trkpt>
      <trkpt lat="45.60699" lon="6.64823">
        <ele>2291</ele>
        <time>2019-01-19T10:57:56.000Z</time>
      </trkpt>
      <trkpt lat="45.607" lon="6.64823">
        <ele>2291.3999023438</ele>
        <time>2019-01-19T10:57:59.000Z</time>
      </trkpt>
      <trkpt lat="45.60701" lon="6.64823">
        <ele>2291.8000488281</ele>
        <time>2019-01-19T10:58:01.000Z</time>
      </trkpt>
      <trkpt lat="45.60702" lon="6.64823">
        <ele>2291.6000976562</ele>
        <time>2019-01-19T10:58:08.000Z</time>
      </trkpt>
      <trkpt lat="45.60704" lon="6.64823">
        <ele>2291.8000488281</ele>
        <time>2019-01-19T10:58:13.000Z</time>
      </trkpt>
      <trkpt lat="45.60705" lon="6.64823">
        <ele>2292.6000976562</ele>
        <time>2019-01-19T10:58:15.000Z</time>
      </trkpt>
      <trkpt lat="45.60706" lon="6.64821">
        <ele>2294.8000488281</ele>
        <time>2019-01-19T10:58:21.000Z</time>
      </trkpt>
      <trkpt lat="45.60707" lon="6.6482">
        <ele>2295.6000976562</ele>
        <time>2019-01-19T10:58:28.000Z</time>
      </trkpt>
      <trkpt lat="45.60708" lon="6.64816">
        <ele>2295.6000976562</ele>
        <time>2019-01-19T10:58:34.000Z</time>
      </trkpt>
      <trkpt lat="45.60708" lon="6.64816">
        <ele>2295.6000976562</ele>
        <time>2019-01-19T10:58:36.000Z</time>
      </trkpt>
      <trkpt lat="45.60708" lon="6.64816">
        <ele>2295.6000976562</ele>
        <time>2019-01-19T10:58:46.000Z</time>
      </trkpt>
      <trkpt lat="45.60708" lon="6.64816">
        <ele>2295.6000976562</ele>
        <time>2019-01-19T10:58:57.000Z</time>
      </trkpt>
      <trkpt lat="45.60708" lon="6.64815">
        <ele>2295.6000976562</ele>
        <time>2019-01-19T10:59:03.000Z</time>
      </trkpt>
      <trkpt lat="45.60709" lon="6.64815">
        <ele>2295.6000976562</ele>
        <time>2019-01-19T10:59:12.000Z</time>
      </trkpt>
      <trkpt lat="45.6071" lon="6.64814">
        <ele>2295.3999023438</ele>
        <time>2019-01-19T10:59:18.000Z</time>
      </trkpt>
      <trkpt lat="45.6071" lon="6.64814">
        <ele>2295.3999023438</ele>
        <time>2019-01-19T10:59:23.000Z</time>
      </trkpt>
      <trkpt lat="45.60711" lon="6.64813">
        <ele>2295.3999023438</ele>
        <time>2019-01-19T10:59:26.000Z</time>
      </trkpt>
      <trkpt lat="45.60711" lon="6.64813">
        <ele>2295.3999023438</ele>
        <time>2019-01-19T10:59:33.000Z</time>
      </trkpt>
      <trkpt lat="45.60711" lon="6.64813">
        <ele>2295.3999023438</ele>
        <time>2019-01-19T10:59:36.000Z</time>
      </trkpt>
      <trkpt lat="45.60711" lon="6.64813">
        <ele>2295.3999023438</ele>
        <time>2019-01-19T10:59:37.000Z</time>
      </trkpt>
      <trkpt lat="45.60711" lon="6.64813">
        <ele>2295.3999023438</ele>
        <time>2019-01-19T10:59:49.000Z</time>
      </trkpt>
      <trkpt lat="45.60711" lon="6.64811">
        <ele>2295.6000976562</ele>
        <time>2019-01-19T10:59:54.000Z</time>
      </trkpt>
      <trkpt lat="45.60711" lon="6.64811">
        <ele>2295.6000976562</ele>
        <time>2019-01-19T10:59:55.000Z</time>
      </trkpt>
      <trkpt lat="45.60711" lon="6.64811">
        <ele>2295.6000976562</ele>
        <time>2019-01-19T11:00:11.000Z</time>
      </trkpt>
      <trkpt lat="45.60711" lon="6.64811">
        <ele>2295.6000976562</ele>
        <time>2019-01-19T11:00:23.000Z</time>
      </trkpt>
      <trkpt lat="45.60711" lon="6.64811">
        <ele>2295.6000976562</ele>
        <time>2019-01-19T11:00:30.000Z</time>
      </trkpt>
      <trkpt lat="45.60712" lon="6.64811">
        <ele>2295.8000488281</ele>
        <time>2019-01-19T11:00:42.000Z</time>
      </trkpt>
      <trkpt lat="45.60712" lon="6.64811">
        <ele>2295.8000488281</ele>
        <time>2019-01-19T11:00:55.000Z</time>
      </trkpt>
      <trkpt lat="45.60712" lon="6.64809">
        <ele>2296</ele>
        <time>2019-01-19T11:01:11.000Z</time>
      </trkpt>
      <trkpt lat="45.60712" lon="6.64809">
        <ele>2296</ele>
        <time>2019-01-19T11:01:25.000Z</time>
      </trkpt>
      <trkpt lat="45.60712" lon="6.64809">
        <ele>2296</ele>
        <time>2019-01-19T11:01:40.000Z</time>
      </trkpt>
      <trkpt lat="45.60712" lon="6.6481">
        <ele>2296</ele>
        <time>2019-01-19T11:01:57.000Z</time>
      </trkpt>
      <trkpt lat="45.60711" lon="6.64811">
        <ele>2295.1999511719</ele>
        <time>2019-01-19T11:02:04.000Z</time>
      </trkpt>
      <trkpt lat="45.6071" lon="6.6481">
        <ele>2295</ele>
        <time>2019-01-19T11:02:14.000Z</time>
      </trkpt>
      <trkpt lat="45.6071" lon="6.6481">
        <ele>2295</ele>
        <time>2019-01-19T11:02:15.000Z</time>
      </trkpt>
      <trkpt lat="45.6071" lon="6.6481">
        <ele>2295</ele>
        <time>2019-01-19T11:02:21.000Z</time>
      </trkpt>
      <trkpt lat="45.60709" lon="6.64809">
        <ele>2294.6000976562</ele>
        <time>2019-01-19T11:02:23.000Z</time>
      </trkpt>
      <trkpt lat="45.60707" lon="6.64811">
        <ele>2294.3999023438</ele>
        <time>2019-01-19T11:02:28.000Z</time>
      </trkpt>
      <trkpt lat="45.60707" lon="6.64812">
        <ele>2294.8000488281</ele>
        <time>2019-01-19T11:02:32.000Z</time>
      </trkpt>
      <trkpt lat="45.60707" lon="6.64812">
        <ele>2294.8000488281</ele>
        <time>2019-01-19T11:02:34.000Z</time>
      </trkpt>
      <trkpt lat="45.60707" lon="6.64813">
        <ele>2294.8000488281</ele>
        <time>2019-01-19T11:02:40.000Z</time>
      </trkpt>
      <trkpt lat="45.60707" lon="6.64813">
        <ele>2294.8000488281</ele>
        <time>2019-01-19T11:02:47.000Z</time>
      </trkpt>
      <trkpt lat="45.60707" lon="6.64813">
        <ele>2294.8000488281</ele>
        <time>2019-01-19T11:02:50.000Z</time>
      </trkpt>
      <trkpt lat="45.60707" lon="6.64813">
        <ele>2294.8000488281</ele>
        <time>2019-01-19T11:02:51.000Z</time>
      </trkpt>
      <trkpt lat="45.60707" lon="6.64813">
        <ele>2294.8000488281</ele>
        <time>2019-01-19T11:02:55.000Z</time>
      </trkpt>
      <trkpt lat="45.60707" lon="6.64813">
        <ele>2294.8000488281</ele>
        <time>2019-01-19T11:02:56.000Z</time>
      </trkpt>
      <trkpt lat="45.60707" lon="6.64813">
        <ele>2294.8000488281</ele>
        <time>2019-01-19T11:02:58.000Z</time>
      </trkpt>
      <trkpt lat="45.60707" lon="6.64813">
        <ele>2294.8000488281</ele>
        <time>2019-01-19T11:02:59.000Z</time>
      </trkpt>
      <trkpt lat="45.60707" lon="6.64813">
        <ele>2294.8000488281</ele>
        <time>2019-01-19T11:03:01.000Z</time>
      </trkpt>
      <trkpt lat="45.60707" lon="6.64813">
        <ele>2294.8000488281</ele>
        <time>2019-01-19T11:03:02.000Z</time>
      </trkpt>
      <trkpt lat="45.60707" lon="6.64813">
        <ele>2294.8000488281</ele>
        <time>2019-01-19T11:03:06.000Z</time>
      </trkpt>
      <trkpt lat="45.60707" lon="6.64813">
        <ele>2294.8000488281</ele>
        <time>2019-01-19T11:03:17.000Z</time>
      </trkpt>
      <trkpt lat="45.60707" lon="6.64813">
        <ele>2294.8000488281</ele>
        <time>2019-01-19T11:03:21.000Z</time>
      </trkpt>
      <trkpt lat="45.60707" lon="6.64813">
        <ele>2294.8000488281</ele>
        <time>2019-01-19T11:03:28.000Z</time>
      </trkpt>
      <trkpt lat="45.60707" lon="6.64813">
        <ele>2294.8000488281</ele>
        <time>2019-01-19T11:03:40.000Z</time>
      </trkpt>
      <trkpt lat="45.60707" lon="6.64813">
        <ele>2294.8000488281</ele>
        <time>2019-01-19T11:03:57.000Z</time>
      </trkpt>
      <trkpt lat="45.60707" lon="6.64813">
        <ele>2294.8000488281</ele>
        <time>2019-01-19T11:04:09.000Z</time>
      </trkpt>
      <trkpt lat="45.60707" lon="6.64813">
        <ele>2294.8000488281</ele>
        <time>2019-01-19T11:04:10.000Z</time>
      </trkpt>
      <trkpt lat="45.60707" lon="6.64813">
        <ele>2294.8000488281</ele>
        <time>2019-01-19T11:04:22.000Z</time>
      </trkpt>
      <trkpt lat="45.60707" lon="6.64813">
        <ele>2294.8000488281</ele>
        <time>2019-01-19T11:04:32.000Z</time>
      </trkpt>
      <trkpt lat="45.60707" lon="6.64813">
        <ele>2294.8000488281</ele>
        <time>2019-01-19T11:04:46.000Z</time>
      </trkpt>
      <trkpt lat="45.60707" lon="6.64813">
        <ele>2294.8000488281</ele>
        <time>2019-01-19T11:04:57.000Z</time>
      </trkpt>
      <trkpt lat="45.60707" lon="6.64813">
        <ele>2294.8000488281</ele>
        <time>2019-01-19T11:05:14.000Z</time>
      </trkpt>
      <trkpt lat="45.60707" lon="6.64813">
        <ele>2294.8000488281</ele>
        <time>2019-01-19T11:05:29.000Z</time>
      </trkpt>
      <trkpt lat="45.60707" lon="6.64813">
        <ele>2294.8000488281</ele>
        <time>2019-01-19T11:05:40.000Z</time>
      </trkpt>
      <trkpt lat="45.60707" lon="6.64813">
        <ele>2295</ele>
        <time>2019-01-19T11:05:56.000Z</time>
      </trkpt>
      <trkpt lat="45.60707" lon="6.64813">
        <ele>2295</ele>
        <time>2019-01-19T11:06:06.000Z</time>
      </trkpt>
      <trkpt lat="45.60707" lon="6.64813">
        <ele>2295</ele>
        <time>2019-01-19T11:06:08.000Z</time>
      </trkpt>
      <trkpt lat="45.60707" lon="6.64813">
        <ele>2295</ele>
        <time>2019-01-19T11:06:09.000Z</time>
      </trkpt>
      <trkpt lat="45.60707" lon="6.64813">
        <ele>2295</ele>
        <time>2019-01-19T11:06:10.000Z</time>
      </trkpt>
      <trkpt lat="45.60707" lon="6.64813">
        <ele>2295</ele>
        <time>2019-01-19T11:06:23.000Z</time>
      </trkpt>
      <trkpt lat="45.60707" lon="6.64813">
        <ele>2294.8000488281</ele>
        <time>2019-01-19T11:06:40.000Z</time>
      </trkpt>
      <trkpt lat="45.60707" lon="6.64813">
        <ele>2294.8000488281</ele>
        <time>2019-01-19T11:06:50.000Z</time>
      </trkpt>
      <trkpt lat="45.60707" lon="6.64813">
        <ele>2294.8000488281</ele>
        <time>2019-01-19T11:06:58.000Z</time>
      </trkpt>
      <trkpt lat="45.60707" lon="6.64813">
        <ele>2294.8000488281</ele>
        <time>2019-01-19T11:07:11.000Z</time>
      </trkpt>
      <trkpt lat="45.60707" lon="6.64813">
        <ele>2294.8000488281</ele>
        <time>2019-01-19T11:07:24.000Z</time>
      </trkpt>
      <trkpt lat="45.60707" lon="6.64813">
        <ele>2294.8000488281</ele>
        <time>2019-01-19T11:07:27.000Z</time>
      </trkpt>
      <trkpt lat="45.60707" lon="6.64813">
        <ele>2294.8000488281</ele>
        <time>2019-01-19T11:07:41.000Z</time>
      </trkpt>
      <trkpt lat="45.60707" lon="6.64813">
        <ele>2294.8000488281</ele>
        <time>2019-01-19T11:08:00.000Z</time>
      </trkpt>
      <trkpt lat="45.60707" lon="6.64813">
        <ele>2294.8000488281</ele>
        <time>2019-01-19T11:08:06.000Z</time>
      </trkpt>
      <trkpt lat="45.60707" lon="6.64813">
        <ele>2294.8000488281</ele>
        <time>2019-01-19T11:08:15.000Z</time>
      </trkpt>
      <trkpt lat="45.60707" lon="6.64813">
        <ele>2294.8000488281</ele>
        <time>2019-01-19T11:08:16.000Z</time>
      </trkpt>
      <trkpt lat="45.60707" lon="6.64813">
        <ele>2294.8000488281</ele>
        <time>2019-01-19T11:08:20.000Z</time>
      </trkpt>
      <trkpt lat="45.60707" lon="6.64813">
        <ele>2294.8000488281</ele>
        <time>2019-01-19T11:08:29.000Z</time>
      </trkpt>
      <trkpt lat="45.60707" lon="6.64813">
        <ele>2294.8000488281</ele>
        <time>2019-01-19T11:08:40.000Z</time>
      </trkpt>
      <trkpt lat="45.60707" lon="6.64813">
        <ele>2294.8000488281</ele>
        <time>2019-01-19T11:08:54.000Z</time>
      </trkpt>
      <trkpt lat="45.60707" lon="6.64813">
        <ele>2294.8000488281</ele>
        <time>2019-01-19T11:08:56.000Z</time>
      </trkpt>
      <trkpt lat="45.60707" lon="6.64813">
        <ele>2294.8000488281</ele>
        <time>2019-01-19T11:09:01.000Z</time>
      </trkpt>
      <trkpt lat="45.60707" lon="6.64813">
        <ele>2294.8000488281</ele>
        <time>2019-01-19T11:09:04.000Z</time>
      </trkpt>
      <trkpt lat="45.60707" lon="6.64813">
        <ele>2294.8000488281</ele>
        <time>2019-01-19T11:09:06.000Z</time>
      </trkpt>
      <trkpt lat="45.60707" lon="6.64813">
        <ele>2294.8000488281</ele>
        <time>2019-01-19T11:09:07.000Z</time>
      </trkpt>
      <trkpt lat="45.60707" lon="6.64813">
        <ele>2294.8000488281</ele>
        <time>2019-01-19T11:09:09.000Z</time>
      </trkpt>
      <trkpt lat="45.60707" lon="6.64813">
        <ele>2294.8000488281</ele>
        <time>2019-01-19T11:09:10.000Z</time>
      </trkpt>
      <trkpt lat="45.60707" lon="6.64813">
        <ele>2294.8000488281</ele>
        <time>2019-01-19T11:09:13.000Z</time>
      </trkpt>
      <trkpt lat="45.60707" lon="6.64813">
        <ele>2294.8000488281</ele>
        <time>2019-01-19T11:09:19.000Z</time>
      </trkpt>
      <trkpt lat="45.60707" lon="6.64813">
        <ele>2294.8000488281</ele>
        <time>2019-01-19T11:09:25.000Z</time>
      </trkpt>
      <trkpt lat="45.60707" lon="6.64813">
        <ele>2294.8000488281</ele>
        <time>2019-01-19T11:09:30.000Z</time>
      </trkpt>
      <trkpt lat="45.60707" lon="6.64813">
        <ele>2294.8000488281</ele>
        <time>2019-01-19T11:09:34.000Z</time>
      </trkpt>
      <trkpt lat="45.60707" lon="6.64813">
        <ele>2294.8000488281</ele>
        <time>2019-01-19T11:09:35.000Z</time>
      </trkpt>
      <trkpt lat="45.60707" lon="6.64813">
        <ele>2294.8000488281</ele>
        <time>2019-01-19T11:09:38.000Z</time>
      </trkpt>
      <trkpt lat="45.60707" lon="6.64813">
        <ele>2294.8000488281</ele>
        <time>2019-01-19T11:09:41.000Z</time>
      </trkpt>
      <trkpt lat="45.60707" lon="6.64813">
        <ele>2294.8000488281</ele>
        <time>2019-01-19T11:09:45.000Z</time>
      </trkpt>
      <trkpt lat="45.60707" lon="6.64813">
        <ele>2294.8000488281</ele>
        <time>2019-01-19T11:09:49.000Z</time>
      </trkpt>
      <trkpt lat="45.60707" lon="6.64813">
        <ele>2294.8000488281</ele>
        <time>2019-01-19T11:10:03.000Z</time>
      </trkpt>
      <trkpt lat="45.60707" lon="6.64813">
        <ele>2294.8000488281</ele>
        <time>2019-01-19T11:10:18.000Z</time>
      </trkpt>
      <trkpt lat="45.60707" lon="6.64813">
        <ele>2294.8000488281</ele>
        <time>2019-01-19T11:10:33.000Z</time>
      </trkpt>
      <trkpt lat="45.60706" lon="6.64813">
        <ele>2294.6000976562</ele>
        <time>2019-01-19T11:10:44.000Z</time>
      </trkpt>
      <trkpt lat="45.60706" lon="6.64813">
        <ele>2294.6000976562</ele>
        <time>2019-01-19T11:10:51.000Z</time>
      </trkpt>
      <trkpt lat="45.60706" lon="6.64813">
        <ele>2294.6000976562</ele>
        <time>2019-01-19T11:11:00.000Z</time>
      </trkpt>
      <trkpt lat="45.60706" lon="6.64813">
        <ele>2294.6000976562</ele>
        <time>2019-01-19T11:11:14.000Z</time>
      </trkpt>
      <trkpt lat="45.60706" lon="6.64813">
        <ele>2294.8000488281</ele>
        <time>2019-01-19T11:11:24.000Z</time>
      </trkpt>
      <trkpt lat="45.60706" lon="6.64813">
        <ele>2294.8000488281</ele>
        <time>2019-01-19T11:11:31.000Z</time>
      </trkpt>
      <trkpt lat="45.60706" lon="6.64813">
        <ele>2294.8000488281</ele>
        <time>2019-01-19T11:11:49.000Z</time>
      </trkpt>
      <trkpt lat="45.60706" lon="6.64813">
        <ele>2294.8000488281</ele>
        <time>2019-01-19T11:12:04.000Z</time>
      </trkpt>
      <trkpt lat="45.60706" lon="6.64813">
        <ele>2294.8000488281</ele>
        <time>2019-01-19T11:12:25.000Z</time>
      </trkpt>
      <trkpt lat="45.60706" lon="6.64813">
        <ele>2294.8000488281</ele>
        <time>2019-01-19T11:12:33.000Z</time>
      </trkpt>
      <trkpt lat="45.60706" lon="6.64813">
        <ele>2294.6000976562</ele>
        <time>2019-01-19T11:12:37.000Z</time>
      </trkpt>
      <trkpt lat="45.60706" lon="6.64813">
        <ele>2294.6000976562</ele>
        <time>2019-01-19T11:12:57.000Z</time>
      </trkpt>
      <trkpt lat="45.60706" lon="6.64813">
        <ele>2294.6000976562</ele>
        <time>2019-01-19T11:13:10.000Z</time>
      </trkpt>
      <trkpt lat="45.60706" lon="6.64813">
        <ele>2294.6000976562</ele>
        <time>2019-01-19T11:13:19.000Z</time>
      </trkpt>
      <trkpt lat="45.60706" lon="6.64813">
        <ele>2294.6000976562</ele>
        <time>2019-01-19T11:13:30.000Z</time>
      </trkpt>
      <trkpt lat="45.60706" lon="6.64813">
        <ele>2294.6000976562</ele>
        <time>2019-01-19T11:13:42.000Z</time>
      </trkpt>
      <trkpt lat="45.60706" lon="6.64813">
        <ele>2294.6000976562</ele>
        <time>2019-01-19T11:13:57.000Z</time>
      </trkpt>
      <trkpt lat="45.60706" lon="6.64813">
        <ele>2294.6000976562</ele>
        <time>2019-01-19T11:14:09.000Z</time>
      </trkpt>
      <trkpt lat="45.60706" lon="6.64813">
        <ele>2294.6000976562</ele>
        <time>2019-01-19T11:14:23.000Z</time>
      </trkpt>
      <trkpt lat="45.60706" lon="6.64813">
        <ele>2294.6000976562</ele>
        <time>2019-01-19T11:14:45.000Z</time>
      </trkpt>
      <trkpt lat="45.60706" lon="6.64813">
        <ele>2294.6000976562</ele>
        <time>2019-01-19T11:15:04.000Z</time>
      </trkpt>
      <trkpt lat="45.60706" lon="6.64813">
        <ele>2294.6000976562</ele>
        <time>2019-01-19T11:15:14.000Z</time>
      </trkpt>
      <trkpt lat="45.60706" lon="6.64812">
        <ele>2294.6000976562</ele>
        <time>2019-01-19T11:15:24.000Z</time>
      </trkpt>
      <trkpt lat="45.60706" lon="6.64813">
        <ele>2294.6000976562</ele>
        <time>2019-01-19T11:15:28.000Z</time>
      </trkpt>
      <trkpt lat="45.60706" lon="6.64813">
        <ele>2294.6000976562</ele>
        <time>2019-01-19T11:15:32.000Z</time>
      </trkpt>
      <trkpt lat="45.60706" lon="6.64813">
        <ele>2294.6000976562</ele>
        <time>2019-01-19T11:15:33.000Z</time>
      </trkpt>
      <trkpt lat="45.60706" lon="6.64813">
        <ele>2294.6000976562</ele>
        <time>2019-01-19T11:15:34.000Z</time>
      </trkpt>
      <trkpt lat="45.60706" lon="6.64813">
        <ele>2294.6000976562</ele>
        <time>2019-01-19T11:15:45.000Z</time>
      </trkpt>
      <trkpt lat="45.60706" lon="6.64813">
        <ele>2294.6000976562</ele>
        <time>2019-01-19T11:15:46.000Z</time>
      </trkpt>
      <trkpt lat="45.60706" lon="6.64813">
        <ele>2294.6000976562</ele>
        <time>2019-01-19T11:15:52.000Z</time>
      </trkpt>
      <trkpt lat="45.60706" lon="6.64813">
        <ele>2294.6000976562</ele>
        <time>2019-01-19T11:15:55.000Z</time>
      </trkpt>
      <trkpt lat="45.60706" lon="6.64813">
        <ele>2294.6000976562</ele>
        <time>2019-01-19T11:15:58.000Z</time>
      </trkpt>
      <trkpt lat="45.60706" lon="6.64813">
        <ele>2294.6000976562</ele>
        <time>2019-01-19T11:16:00.000Z</time>
      </trkpt>
      <trkpt lat="45.60706" lon="6.64813">
        <ele>2294.6000976562</ele>
        <time>2019-01-19T11:16:05.000Z</time>
      </trkpt>
      <trkpt lat="45.60706" lon="6.64813">
        <ele>2294.6000976562</ele>
        <time>2019-01-19T11:16:06.000Z</time>
      </trkpt>
      <trkpt lat="45.60706" lon="6.64813">
        <ele>2294.6000976562</ele>
        <time>2019-01-19T11:16:08.000Z</time>
      </trkpt>
      <trkpt lat="45.60706" lon="6.64813">
        <ele>2294.6000976562</ele>
        <time>2019-01-19T11:16:16.000Z</time>
      </trkpt>
      <trkpt lat="45.60706" lon="6.64813">
        <ele>2294.6000976562</ele>
        <time>2019-01-19T11:16:18.000Z</time>
      </trkpt>
      <trkpt lat="45.60706" lon="6.64813">
        <ele>2294.6000976562</ele>
        <time>2019-01-19T11:16:29.000Z</time>
      </trkpt>
      <trkpt lat="45.60706" lon="6.64813">
        <ele>2294.6000976562</ele>
        <time>2019-01-19T11:16:38.000Z</time>
      </trkpt>
      <trkpt lat="45.60706" lon="6.64813">
        <ele>2294.6000976562</ele>
        <time>2019-01-19T11:16:42.000Z</time>
      </trkpt>
      <trkpt lat="45.60706" lon="6.64813">
        <ele>2294.6000976562</ele>
        <time>2019-01-19T11:16:45.000Z</time>
      </trkpt>
      <trkpt lat="45.60706" lon="6.64813">
        <ele>2294.6000976562</ele>
        <time>2019-01-19T11:16:52.000Z</time>
      </trkpt>
      <trkpt lat="45.60706" lon="6.64813">
        <ele>2294.6000976562</ele>
        <time>2019-01-19T11:17:03.000Z</time>
      </trkpt>
      <trkpt lat="45.60706" lon="6.64813">
        <ele>2294.6000976562</ele>
        <time>2019-01-19T11:17:07.000Z</time>
      </trkpt>
      <trkpt lat="45.60706" lon="6.64813">
        <ele>2294.6000976562</ele>
        <time>2019-01-19T11:17:21.000Z</time>
      </trkpt>
      <trkpt lat="45.60706" lon="6.64814">
        <ele>2294.8000488281</ele>
        <time>2019-01-19T11:17:31.000Z</time>
      </trkpt>
      <trkpt lat="45.60706" lon="6.64814">
        <ele>2294.8000488281</ele>
        <time>2019-01-19T11:17:42.000Z</time>
      </trkpt>
      <trkpt lat="45.60709" lon="6.64815">
        <ele>2295.6000976562</ele>
        <time>2019-01-19T11:17:49.000Z</time>
      </trkpt>
      <trkpt lat="45.6071" lon="6.64819">
        <ele>2296.6000976562</ele>
        <time>2019-01-19T11:17:52.000Z</time>
      </trkpt>
      <trkpt lat="45.60708" lon="6.64822">
        <ele>2293.3999023438</ele>
        <time>2019-01-19T11:17:54.000Z</time>
      </trkpt>
      <trkpt lat="45.60708" lon="6.64823">
        <ele>2292.8000488281</ele>
        <time>2019-01-19T11:17:55.000Z</time>
      </trkpt>
      <trkpt lat="45.60708" lon="6.64823">
        <ele>2292.8000488281</ele>
        <time>2019-01-19T11:17:58.000Z</time>
      </trkpt>
      <trkpt lat="45.60708" lon="6.64823">
        <ele>2292.8000488281</ele>
        <time>2019-01-19T11:18:00.000Z</time>
      </trkpt>
      <trkpt lat="45.60708" lon="6.64823">
        <ele>2292.8000488281</ele>
        <time>2019-01-19T11:18:06.000Z</time>
      </trkpt>
      <trkpt lat="45.60704" lon="6.64827">
        <ele>2288.3999023438</ele>
        <time>2019-01-19T11:18:08.000Z</time>
      </trkpt>
      <trkpt lat="45.60702" lon="6.64828">
        <ele>2287.1999511719</ele>
        <time>2019-01-19T11:18:11.000Z</time>
      </trkpt>
      <trkpt lat="45.60702" lon="6.64828">
        <ele>2287.1999511719</ele>
        <time>2019-01-19T11:18:13.000Z</time>
      </trkpt>
      <trkpt lat="45.60698" lon="6.6483">
        <ele>2284.8000488281</ele>
        <time>2019-01-19T11:18:19.000Z</time>
      </trkpt>
      <trkpt lat="45.60695" lon="6.6483">
        <ele>2284.6000976562</ele>
        <time>2019-01-19T11:18:23.000Z</time>
      </trkpt>
      <trkpt lat="45.60695" lon="6.6483">
        <ele>2284.6000976562</ele>
        <time>2019-01-19T11:18:24.000Z</time>
      </trkpt>
      <trkpt lat="45.60695" lon="6.64832">
        <ele>2282</ele>
        <time>2019-01-19T11:18:26.000Z</time>
      </trkpt>
      <trkpt lat="45.60695" lon="6.64834">
        <ele>2280.6000976562</ele>
        <time>2019-01-19T11:18:27.000Z</time>
      </trkpt>
      <trkpt lat="45.60694" lon="6.64836">
        <ele>2278.6000976562</ele>
        <time>2019-01-19T11:18:28.000Z</time>
      </trkpt>
      <trkpt lat="45.60694" lon="6.64837">
        <ele>2277.6000976562</ele>
        <time>2019-01-19T11:18:29.000Z</time>
      </trkpt>
      <trkpt lat="45.60694" lon="6.64839">
        <ele>2276</ele>
        <time>2019-01-19T11:18:31.000Z</time>
      </trkpt>
      <trkpt lat="45.60694" lon="6.64842">
        <ele>2272.8000488281</ele>
        <time>2019-01-19T11:18:32.000Z</time>
      </trkpt>
      <trkpt lat="45.60694" lon="6.64845">
        <ele>2270.6000976562</ele>
        <time>2019-01-19T11:18:33.000Z</time>
      </trkpt>
      <trkpt lat="45.60693" lon="6.64847">
        <ele>2268.1999511719</ele>
        <time>2019-01-19T11:18:34.000Z</time>
      </trkpt>
      <trkpt lat="45.60692" lon="6.64853">
        <ele>2262.3999023438</ele>
        <time>2019-01-19T11:18:36.000Z</time>
      </trkpt>
      <trkpt lat="45.6069" lon="6.64858">
        <ele>2257.8000488281</ele>
        <time>2019-01-19T11:18:38.000Z</time>
      </trkpt>
      <trkpt lat="45.60689" lon="6.6486">
        <ele>2255.8000488281</ele>
        <time>2019-01-19T11:18:39.000Z</time>
      </trkpt>
      <trkpt lat="45.60689" lon="6.64861">
        <ele>2254.8000488281</ele>
        <time>2019-01-19T11:18:40.000Z</time>
      </trkpt>
      <trkpt lat="45.60688" lon="6.64862">
        <ele>2254.1999511719</ele>
        <time>2019-01-19T11:18:42.000Z</time>
      </trkpt>
      <trkpt lat="45.60688" lon="6.64862">
        <ele>2253.6000976562</ele>
        <time>2019-01-19T11:18:44.000Z</time>
      </trkpt>
      <trkpt lat="45.60688" lon="6.64864">
        <ele>2252</ele>
        <time>2019-01-19T11:18:46.000Z</time>
      </trkpt>
      <trkpt lat="45.60688" lon="6.64865">
        <ele>2251.3999023438</ele>
        <time>2019-01-19T11:18:48.000Z</time>
      </trkpt>
      <trkpt lat="45.6069" lon="6.64867">
        <ele>2249.1999511719</ele>
        <time>2019-01-19T11:18:51.000Z</time>
      </trkpt>
      <trkpt lat="45.6069" lon="6.64867">
        <ele>2249.1999511719</ele>
        <time>2019-01-19T11:18:56.000Z</time>
      </trkpt>
      <trkpt lat="45.6069" lon="6.64867">
        <ele>2249.1999511719</ele>
        <time>2019-01-19T11:19:12.000Z</time>
      </trkpt>
      <trkpt lat="45.6069" lon="6.64867">
        <ele>2249.1999511719</ele>
        <time>2019-01-19T11:19:27.000Z</time>
      </trkpt>
      <trkpt lat="45.6069" lon="6.64866">
        <ele>2250.1999511719</ele>
        <time>2019-01-19T11:19:43.000Z</time>
      </trkpt>
      <trkpt lat="45.6069" lon="6.64866">
        <ele>2250.1999511719</ele>
        <time>2019-01-19T11:20:04.000Z</time>
      </trkpt>
      <trkpt lat="45.60689" lon="6.6486">
        <ele>2256.1999511719</ele>
        <time>2019-01-19T11:20:17.000Z</time>
      </trkpt>
      <trkpt lat="45.60691" lon="6.64854">
        <ele>2261.1999511719</ele>
        <time>2019-01-19T11:20:28.000Z</time>
      </trkpt>
      <trkpt lat="45.60691" lon="6.64854">
        <ele>2261.1999511719</ele>
        <time>2019-01-19T11:20:47.000Z</time>
      </trkpt>
      <trkpt lat="45.60691" lon="6.64854">
        <ele>2261.1999511719</ele>
        <time>2019-01-19T11:20:57.000Z</time>
      </trkpt>
      <trkpt lat="45.60691" lon="6.64852">
        <ele>2263.8000488281</ele>
        <time>2019-01-19T11:21:08.000Z</time>
      </trkpt>
      <trkpt lat="45.60692" lon="6.64849">
        <ele>2266.3999023438</ele>
        <time>2019-01-19T11:21:12.000Z</time>
      </trkpt>
      <trkpt lat="45.60692" lon="6.64849">
        <ele>2266.3999023438</ele>
        <time>2019-01-19T11:21:15.000Z</time>
      </trkpt>
      <trkpt lat="45.60692" lon="6.64849">
        <ele>2266.3999023438</ele>
        <time>2019-01-19T11:21:22.000Z</time>
      </trkpt>
      <trkpt lat="45.60692" lon="6.64849">
        <ele>2266.3999023438</ele>
        <time>2019-01-19T11:21:37.000Z</time>
      </trkpt>
      <trkpt lat="45.60692" lon="6.64849">
        <ele>2266.3999023438</ele>
        <time>2019-01-19T11:21:47.000Z</time>
      </trkpt>
      <trkpt lat="45.60692" lon="6.6485">
        <ele>2266</ele>
        <time>2019-01-19T11:21:57.000Z</time>
      </trkpt>
      <trkpt lat="45.60692" lon="6.6485">
        <ele>2266</ele>
        <time>2019-01-19T11:22:11.000Z</time>
      </trkpt>
      <trkpt lat="45.60692" lon="6.6485">
        <ele>2266</ele>
        <time>2019-01-19T11:22:28.000Z</time>
      </trkpt>
      <trkpt lat="45.60693" lon="6.64849">
        <ele>2266.1999511719</ele>
        <time>2019-01-19T11:22:36.000Z</time>
      </trkpt>
      <trkpt lat="45.60693" lon="6.64849">
        <ele>2266.1999511719</ele>
        <time>2019-01-19T11:22:40.000Z</time>
      </trkpt>
      <trkpt lat="45.60693" lon="6.64849">
        <ele>2266.1999511719</ele>
        <time>2019-01-19T11:22:42.000Z</time>
      </trkpt>
      <trkpt lat="45.60693" lon="6.64849">
        <ele>2266.1999511719</ele>
        <time>2019-01-19T11:22:46.000Z</time>
      </trkpt>
      <trkpt lat="45.60692" lon="6.6485">
        <ele>2265.6000976562</ele>
        <time>2019-01-19T11:22:47.000Z</time>
      </trkpt>
      <trkpt lat="45.60697" lon="6.6486">
        <ele>2257.1999511719</ele>
        <time>2019-01-19T11:22:49.000Z</time>
      </trkpt>
      <trkpt lat="45.60697" lon="6.64862">
        <ele>2255.6000976562</ele>
        <time>2019-01-19T11:22:51.000Z</time>
      </trkpt>
      <trkpt lat="45.60698" lon="6.64864">
        <ele>2254.1999511719</ele>
        <time>2019-01-19T11:22:54.000Z</time>
      </trkpt>
      <trkpt lat="45.60698" lon="6.64864">
        <ele>2254.1999511719</ele>
        <time>2019-01-19T11:22:57.000Z</time>
      </trkpt>
      <trkpt lat="45.607" lon="6.64865">
        <ele>2252.8000488281</ele>
        <time>2019-01-19T11:23:01.000Z</time>
      </trkpt>
      <trkpt lat="45.60701" lon="6.64866">
        <ele>2252.3999023438</ele>
        <time>2019-01-19T11:23:06.000Z</time>
      </trkpt>
      <trkpt lat="45.60701" lon="6.64867">
        <ele>2251.8000488281</ele>
        <time>2019-01-19T11:23:08.000Z</time>
      </trkpt>
      <trkpt lat="45.60702" lon="6.64867">
        <ele>2251.3999023438</ele>
        <time>2019-01-19T11:23:09.000Z</time>
      </trkpt>
      <trkpt lat="45.60702" lon="6.6487">
        <ele>2248.3999023438</ele>
        <time>2019-01-19T11:23:11.000Z</time>
      </trkpt>
      <trkpt lat="45.60703" lon="6.64874">
        <ele>2244.8000488281</ele>
        <time>2019-01-19T11:23:13.000Z</time>
      </trkpt>
      <trkpt lat="45.60703" lon="6.64874">
        <ele>2244.8000488281</ele>
        <time>2019-01-19T11:23:16.000Z</time>
      </trkpt>
      <trkpt lat="45.60703" lon="6.64874">
        <ele>2244.8000488281</ele>
        <time>2019-01-19T11:23:20.000Z</time>
      </trkpt>
      <trkpt lat="45.60703" lon="6.64874">
        <ele>2245.3999023438</ele>
        <time>2019-01-19T11:23:21.000Z</time>
      </trkpt>
      <trkpt lat="45.60705" lon="6.64874">
        <ele>2245.3999023438</ele>
        <time>2019-01-19T11:23:22.000Z</time>
      </trkpt>
      <trkpt lat="45.60706" lon="6.64881">
        <ele>2239.3999023438</ele>
        <time>2019-01-19T11:23:25.000Z</time>
      </trkpt>
      <trkpt lat="45.60706" lon="6.64884">
        <ele>2236.6000976562</ele>
        <time>2019-01-19T11:23:26.000Z</time>
      </trkpt>
      <trkpt lat="45.60706" lon="6.64884">
        <ele>2236.6000976562</ele>
        <time>2019-01-19T11:23:27.000Z</time>
      </trkpt>
      <trkpt lat="45.60707" lon="6.64887">
        <ele>2234.6000976562</ele>
        <time>2019-01-19T11:23:29.000Z</time>
      </trkpt>
      <trkpt lat="45.60707" lon="6.6489">
        <ele>2231.3999023438</ele>
        <time>2019-01-19T11:23:30.000Z</time>
      </trkpt>
      <trkpt lat="45.60708" lon="6.64892">
        <ele>2229.6000976562</ele>
        <time>2019-01-19T11:23:31.000Z</time>
      </trkpt>
      <trkpt lat="45.60711" lon="6.64892">
        <ele>2230</ele>
        <time>2019-01-19T11:23:32.000Z</time>
      </trkpt>
      <trkpt lat="45.60713" lon="6.64894">
        <ele>2229.1999511719</ele>
        <time>2019-01-19T11:23:33.000Z</time>
      </trkpt>
      <trkpt lat="45.60712" lon="6.64901">
        <ele>2225.3999023438</ele>
        <time>2019-01-19T11:23:35.000Z</time>
      </trkpt>
      <trkpt lat="45.60714" lon="6.64905">
        <ele>2220.3999023438</ele>
        <time>2019-01-19T11:23:36.000Z</time>
      </trkpt>
      <trkpt lat="45.60716" lon="6.64909">
        <ele>2215.3999023438</ele>
        <time>2019-01-19T11:23:37.000Z</time>
      </trkpt>
      <trkpt lat="45.60719" lon="6.6491">
        <ele>2212.3999023438</ele>
        <time>2019-01-19T11:23:38.000Z</time>
      </trkpt>
      <trkpt lat="45.60721" lon="6.64911">
        <ele>2212.6000976562</ele>
        <time>2019-01-19T11:23:39.000Z</time>
      </trkpt>
      <trkpt lat="45.60722" lon="6.64911">
        <ele>2213</ele>
        <time>2019-01-19T11:23:40.000Z</time>
      </trkpt>
      <trkpt lat="45.60723" lon="6.64911">
        <ele>2213.3999023438</ele>
        <time>2019-01-19T11:23:41.000Z</time>
      </trkpt>
      <trkpt lat="45.60724" lon="6.6491">
        <ele>2214</ele>
        <time>2019-01-19T11:23:42.000Z</time>
      </trkpt>
      <trkpt lat="45.60725" lon="6.6491">
        <ele>2214.3999023438</ele>
        <time>2019-01-19T11:23:43.000Z</time>
      </trkpt>
      <trkpt lat="45.60726" lon="6.64911">
        <ele>2214.6000976562</ele>
        <time>2019-01-19T11:23:45.000Z</time>
      </trkpt>
      <trkpt lat="45.60726" lon="6.64911">
        <ele>2214.6000976562</ele>
        <time>2019-01-19T11:23:51.000Z</time>
      </trkpt>
      <trkpt lat="45.60726" lon="6.64911">
        <ele>2214.6000976562</ele>
        <time>2019-01-19T11:23:52.000Z</time>
      </trkpt>
      <trkpt lat="45.60726" lon="6.64911">
        <ele>2214.6000976562</ele>
        <time>2019-01-19T11:24:05.000Z</time>
      </trkpt>
      <trkpt lat="45.60726" lon="6.64911">
        <ele>2214.6000976562</ele>
        <time>2019-01-19T11:24:23.000Z</time>
      </trkpt>
      <trkpt lat="45.60726" lon="6.6491">
        <ele>2214.6000976562</ele>
        <time>2019-01-19T11:24:40.000Z</time>
      </trkpt>
      <trkpt lat="45.60726" lon="6.6491">
        <ele>2214.6000976562</ele>
        <time>2019-01-19T11:24:58.000Z</time>
      </trkpt>
      <trkpt lat="45.60726" lon="6.64911">
        <ele>2214.6000976562</ele>
        <time>2019-01-19T11:25:09.000Z</time>
      </trkpt>
      <trkpt lat="45.60726" lon="6.64911">
        <ele>2214.6000976562</ele>
        <time>2019-01-19T11:25:27.000Z</time>
      </trkpt>
      <trkpt lat="45.60726" lon="6.64911">
        <ele>2214.1999511719</ele>
        <time>2019-01-19T11:25:49.000Z</time>
      </trkpt>
      <trkpt lat="45.60725" lon="6.64912">
        <ele>2212.3999023438</ele>
        <time>2019-01-19T11:25:54.000Z</time>
      </trkpt>
      <trkpt lat="45.60723" lon="6.64916">
        <ele>2207.1999511719</ele>
        <time>2019-01-19T11:25:55.000Z</time>
      </trkpt>
      <trkpt lat="45.60723" lon="6.6492">
        <ele>2201.6000976562</ele>
        <time>2019-01-19T11:25:56.000Z</time>
      </trkpt>
      <trkpt lat="45.60721" lon="6.64927">
        <ele>2192</ele>
        <time>2019-01-19T11:25:58.000Z</time>
      </trkpt>
      <trkpt lat="45.60722" lon="6.64932">
        <ele>2186.8000488281</ele>
        <time>2019-01-19T11:25:59.000Z</time>
      </trkpt>
      <trkpt lat="45.60723" lon="6.64935">
        <ele>2182.8000488281</ele>
        <time>2019-01-19T11:26:00.000Z</time>
      </trkpt>
      <trkpt lat="45.60722" lon="6.64944">
        <ele>2171.6000976562</ele>
        <time>2019-01-19T11:26:02.000Z</time>
      </trkpt>
      <trkpt lat="45.60724" lon="6.64948">
        <ele>2167.6000976562</ele>
        <time>2019-01-19T11:26:03.000Z</time>
      </trkpt>
      <trkpt lat="45.60724" lon="6.64951">
        <ele>2163</ele>
        <time>2019-01-19T11:26:04.000Z</time>
      </trkpt>
      <trkpt lat="45.60723" lon="6.64957">
        <ele>2155.8000488281</ele>
        <time>2019-01-19T11:26:05.000Z</time>
      </trkpt>
      <trkpt lat="45.60723" lon="6.64961">
        <ele>2150</ele>
        <time>2019-01-19T11:26:06.000Z</time>
      </trkpt>
      <trkpt lat="45.60725" lon="6.64964">
        <ele>2148</ele>
        <time>2019-01-19T11:26:07.000Z</time>
      </trkpt>
      <trkpt lat="45.60724" lon="6.64968">
        <ele>2141.8000488281</ele>
        <time>2019-01-19T11:26:08.000Z</time>
      </trkpt>
      <trkpt lat="45.60726" lon="6.64974">
        <ele>2134.8000488281</ele>
        <time>2019-01-19T11:26:09.000Z</time>
      </trkpt>
      <trkpt lat="45.60728" lon="6.64978">
        <ele>2131.8000488281</ele>
        <time>2019-01-19T11:26:10.000Z</time>
      </trkpt>
      <trkpt lat="45.60729" lon="6.64981">
        <ele>2127.3999023438</ele>
        <time>2019-01-19T11:26:11.000Z</time>
      </trkpt>
      <trkpt lat="45.60729" lon="6.64986">
        <ele>2121.6000976562</ele>
        <time>2019-01-19T11:26:12.000Z</time>
      </trkpt>
      <trkpt lat="45.60731" lon="6.64991">
        <ele>2120</ele>
        <time>2019-01-19T11:26:13.000Z</time>
      </trkpt>
      <trkpt lat="45.60733" lon="6.64995">
        <ele>2118.8000488281</ele>
        <time>2019-01-19T11:26:14.000Z</time>
      </trkpt>
      <trkpt lat="45.60735" lon="6.64997">
        <ele>2118.6000976562</ele>
        <time>2019-01-19T11:26:15.000Z</time>
      </trkpt>
      <trkpt lat="45.60737" lon="6.64997">
        <ele>2119</ele>
        <time>2019-01-19T11:26:16.000Z</time>
      </trkpt>
      <trkpt lat="45.60739" lon="6.64996">
        <ele>2120.3999023438</ele>
        <time>2019-01-19T11:26:17.000Z</time>
      </trkpt>
      <trkpt lat="45.60741" lon="6.64994">
        <ele>2122</ele>
        <time>2019-01-19T11:26:18.000Z</time>
      </trkpt>
      <trkpt lat="45.60743" lon="6.64993">
        <ele>2123.1999511719</ele>
        <time>2019-01-19T11:26:19.000Z</time>
      </trkpt>
      <trkpt lat="45.60747" lon="6.64992">
        <ele>2125</ele>
        <time>2019-01-19T11:26:20.000Z</time>
      </trkpt>
      <trkpt lat="45.60749" lon="6.64996">
        <ele>2124</ele>
        <time>2019-01-19T11:26:21.000Z</time>
      </trkpt>
      <trkpt lat="45.60748" lon="6.65001">
        <ele>2121.1999511719</ele>
        <time>2019-01-19T11:26:22.000Z</time>
      </trkpt>
      <trkpt lat="45.60747" lon="6.65006">
        <ele>2118.1999511719</ele>
        <time>2019-01-19T11:26:23.000Z</time>
      </trkpt>
      <trkpt lat="45.60747" lon="6.65013">
        <ele>2114.8000488281</ele>
        <time>2019-01-19T11:26:24.000Z</time>
      </trkpt>
      <trkpt lat="45.6075" lon="6.65019">
        <ele>2113</ele>
        <time>2019-01-19T11:26:25.000Z</time>
      </trkpt>
      <trkpt lat="45.60749" lon="6.65026">
        <ele>2109.6000976562</ele>
        <time>2019-01-19T11:26:26.000Z</time>
      </trkpt>
      <trkpt lat="45.60751" lon="6.6503">
        <ele>2108</ele>
        <time>2019-01-19T11:26:27.000Z</time>
      </trkpt>
      <trkpt lat="45.60755" lon="6.65034">
        <ele>2107.1999511719</ele>
        <time>2019-01-19T11:26:28.000Z</time>
      </trkpt>
      <trkpt lat="45.60757" lon="6.6504">
        <ele>2105.3999023438</ele>
        <time>2019-01-19T11:26:29.000Z</time>
      </trkpt>
      <trkpt lat="45.60759" lon="6.65045">
        <ele>2103.6000976562</ele>
        <time>2019-01-19T11:26:30.000Z</time>
      </trkpt>
      <trkpt lat="45.60761" lon="6.6505">
        <ele>2101.6000976562</ele>
        <time>2019-01-19T11:26:31.000Z</time>
      </trkpt>
      <trkpt lat="45.60764" lon="6.65054">
        <ele>2100.3999023438</ele>
        <time>2019-01-19T11:26:32.000Z</time>
      </trkpt>
      <trkpt lat="45.60764" lon="6.6506">
        <ele>2097.8000488281</ele>
        <time>2019-01-19T11:26:33.000Z</time>
      </trkpt>
      <trkpt lat="45.60762" lon="6.65065">
        <ele>2094.6000976562</ele>
        <time>2019-01-19T11:26:34.000Z</time>
      </trkpt>
      <trkpt lat="45.60759" lon="6.65071">
        <ele>2091</ele>
        <time>2019-01-19T11:26:35.000Z</time>
      </trkpt>
      <trkpt lat="45.60757" lon="6.65073">
        <ele>2088.6000976562</ele>
        <time>2019-01-19T11:26:36.000Z</time>
      </trkpt>
      <trkpt lat="45.60757" lon="6.65075">
        <ele>2087.3999023438</ele>
        <time>2019-01-19T11:26:37.000Z</time>
      </trkpt>
      <trkpt lat="45.60756" lon="6.65081">
        <ele>2084</ele>
        <time>2019-01-19T11:26:38.000Z</time>
      </trkpt>
      <trkpt lat="45.60754" lon="6.65088">
        <ele>2079.1999511719</ele>
        <time>2019-01-19T11:26:39.000Z</time>
      </trkpt>
      <trkpt lat="45.60751" lon="6.65095">
        <ele>2074.6000976562</ele>
        <time>2019-01-19T11:26:40.000Z</time>
      </trkpt>
      <trkpt lat="45.60754" lon="6.651">
        <ele>2072.8000488281</ele>
        <time>2019-01-19T11:26:41.000Z</time>
      </trkpt>
      <trkpt lat="45.60753" lon="6.65107">
        <ele>2069</ele>
        <time>2019-01-19T11:26:42.000Z</time>
      </trkpt>
      <trkpt lat="45.60751" lon="6.65115">
        <ele>2065.1999511719</ele>
        <time>2019-01-19T11:26:43.000Z</time>
      </trkpt>
      <trkpt lat="45.6075" lon="6.65123">
        <ele>2061.8000488281</ele>
        <time>2019-01-19T11:26:44.000Z</time>
      </trkpt>
      <trkpt lat="45.6075" lon="6.65129">
        <ele>2059.1999511719</ele>
        <time>2019-01-19T11:26:45.000Z</time>
      </trkpt>
      <trkpt lat="45.60753" lon="6.65133">
        <ele>2058.6000976562</ele>
        <time>2019-01-19T11:26:46.000Z</time>
      </trkpt>
      <trkpt lat="45.60754" lon="6.65139">
        <ele>2056.1999511719</ele>
        <time>2019-01-19T11:26:47.000Z</time>
      </trkpt>
      <trkpt lat="45.60754" lon="6.65146">
        <ele>2053.1999511719</ele>
        <time>2019-01-19T11:26:48.000Z</time>
      </trkpt>
      <trkpt lat="45.60752" lon="6.65153">
        <ele>2049.8000488281</ele>
        <time>2019-01-19T11:26:49.000Z</time>
      </trkpt>
      <trkpt lat="45.60751" lon="6.65162">
        <ele>2046</ele>
        <time>2019-01-19T11:26:50.000Z</time>
      </trkpt>
      <trkpt lat="45.6075" lon="6.65171">
        <ele>2041.8000488281</ele>
        <time>2019-01-19T11:26:51.000Z</time>
      </trkpt>
      <trkpt lat="45.60749" lon="6.65179">
        <ele>2038</ele>
        <time>2019-01-19T11:26:52.000Z</time>
      </trkpt>
      <trkpt lat="45.60751" lon="6.65182">
        <ele>2037.5999755859</ele>
        <time>2019-01-19T11:26:53.000Z</time>
      </trkpt>
      <trkpt lat="45.60752" lon="6.65188">
        <ele>2034.8000488281</ele>
        <time>2019-01-19T11:26:54.000Z</time>
      </trkpt>
      <trkpt lat="45.60752" lon="6.65191">
        <ele>2032.5999755859</ele>
        <time>2019-01-19T11:26:55.000Z</time>
      </trkpt>
      <trkpt lat="45.60755" lon="6.65195">
        <ele>2031.4000244141</ele>
        <time>2019-01-19T11:26:56.000Z</time>
      </trkpt>
      <trkpt lat="45.60762" lon="6.65196">
        <ele>2033.5999755859</ele>
        <time>2019-01-19T11:26:57.000Z</time>
      </trkpt>
      <trkpt lat="45.60768" lon="6.65198">
        <ele>2034.1999511719</ele>
        <time>2019-01-19T11:26:58.000Z</time>
      </trkpt>
      <trkpt lat="45.60772" lon="6.65197">
        <ele>2035.1999511719</ele>
        <time>2019-01-19T11:26:59.000Z</time>
      </trkpt>
      <trkpt lat="45.60776" lon="6.65197">
        <ele>2036.1999511719</ele>
        <time>2019-01-19T11:27:00.000Z</time>
      </trkpt>
      <trkpt lat="45.60779" lon="6.65201">
        <ele>2035</ele>
        <time>2019-01-19T11:27:01.000Z</time>
      </trkpt>
      <trkpt lat="45.60785" lon="6.65205">
        <ele>2034.4000244141</ele>
        <time>2019-01-19T11:27:02.000Z</time>
      </trkpt>
      <trkpt lat="45.60789" lon="6.65209">
        <ele>2033.8000488281</ele>
        <time>2019-01-19T11:27:03.000Z</time>
      </trkpt>
      <trkpt lat="45.60791" lon="6.65217">
        <ele>2030.8000488281</ele>
        <time>2019-01-19T11:27:04.000Z</time>
      </trkpt>
      <trkpt lat="45.60791" lon="6.65224">
        <ele>2027.8000488281</ele>
        <time>2019-01-19T11:27:05.000Z</time>
      </trkpt>
      <trkpt lat="45.60791" lon="6.6523">
        <ele>2024.1999511719</ele>
        <time>2019-01-19T11:27:06.000Z</time>
      </trkpt>
      <trkpt lat="45.60794" lon="6.65234">
        <ele>2022.8000488281</ele>
        <time>2019-01-19T11:27:07.000Z</time>
      </trkpt>
      <trkpt lat="45.60798" lon="6.6524">
        <ele>2021.8000488281</ele>
        <time>2019-01-19T11:27:08.000Z</time>
      </trkpt>
      <trkpt lat="45.60802" lon="6.65245">
        <ele>2021.4000244141</ele>
        <time>2019-01-19T11:27:09.000Z</time>
      </trkpt>
      <trkpt lat="45.60807" lon="6.65251">
        <ele>2020.5999755859</ele>
        <time>2019-01-19T11:27:10.000Z</time>
      </trkpt>
      <trkpt lat="45.60811" lon="6.65257">
        <ele>2020.1999511719</ele>
        <time>2019-01-19T11:27:11.000Z</time>
      </trkpt>
      <trkpt lat="45.60816" lon="6.65262">
        <ele>2019.5999755859</ele>
        <time>2019-01-19T11:27:12.000Z</time>
      </trkpt>
      <trkpt lat="45.60819" lon="6.65268">
        <ele>2018</ele>
        <time>2019-01-19T11:27:13.000Z</time>
      </trkpt>
      <trkpt lat="45.60819" lon="6.65274">
        <ele>2016.1999511719</ele>
        <time>2019-01-19T11:27:14.000Z</time>
      </trkpt>
      <trkpt lat="45.60819" lon="6.65278">
        <ele>2014.1999511719</ele>
        <time>2019-01-19T11:27:15.000Z</time>
      </trkpt>
      <trkpt lat="45.60817" lon="6.65282">
        <ele>2012.1999511719</ele>
        <time>2019-01-19T11:27:16.000Z</time>
      </trkpt>
      <trkpt lat="45.60815" lon="6.65284">
        <ele>2010.1999511719</ele>
        <time>2019-01-19T11:27:17.000Z</time>
      </trkpt>
      <trkpt lat="45.60813" lon="6.65287">
        <ele>2008.5999755859</ele>
        <time>2019-01-19T11:27:18.000Z</time>
      </trkpt>
      <trkpt lat="45.60812" lon="6.65288">
        <ele>2007.8000488281</ele>
        <time>2019-01-19T11:27:19.000Z</time>
      </trkpt>
      <trkpt lat="45.6081" lon="6.6529">
        <ele>2006.5999755859</ele>
        <time>2019-01-19T11:27:20.000Z</time>
      </trkpt>
      <trkpt lat="45.6081" lon="6.65291">
        <ele>2006</ele>
        <time>2019-01-19T11:27:21.000Z</time>
      </trkpt>
      <trkpt lat="45.60811" lon="6.65297">
        <ele>2004</ele>
        <time>2019-01-19T11:27:23.000Z</time>
      </trkpt>
      <trkpt lat="45.60812" lon="6.65305">
        <ele>2001.5999755859</ele>
        <time>2019-01-19T11:27:25.000Z</time>
      </trkpt>
      <trkpt lat="45.60813" lon="6.65308">
        <ele>2000.1999511719</ele>
        <time>2019-01-19T11:27:26.000Z</time>
      </trkpt>
      <trkpt lat="45.60814" lon="6.65313">
        <ele>1998.8000488281</ele>
        <time>2019-01-19T11:27:27.000Z</time>
      </trkpt>
      <trkpt lat="45.60814" lon="6.65317">
        <ele>1997</ele>
        <time>2019-01-19T11:27:28.000Z</time>
      </trkpt>
      <trkpt lat="45.60812" lon="6.6533">
        <ele>1993.4000244141</ele>
        <time>2019-01-19T11:27:30.000Z</time>
      </trkpt>
      <trkpt lat="45.6081" lon="6.65337">
        <ele>1992.8000488281</ele>
        <time>2019-01-19T11:27:31.000Z</time>
      </trkpt>
      <trkpt lat="45.60809" lon="6.65344">
        <ele>1992.4000244141</ele>
        <time>2019-01-19T11:27:32.000Z</time>
      </trkpt>
      <trkpt lat="45.60811" lon="6.65351">
        <ele>1992.5999755859</ele>
        <time>2019-01-19T11:27:33.000Z</time>
      </trkpt>
      <trkpt lat="45.60816" lon="6.65355">
        <ele>1993.1999511719</ele>
        <time>2019-01-19T11:27:34.000Z</time>
      </trkpt>
      <trkpt lat="45.60819" lon="6.6536">
        <ele>1993.5999755859</ele>
        <time>2019-01-19T11:27:35.000Z</time>
      </trkpt>
      <trkpt lat="45.60821" lon="6.65365">
        <ele>1993.8000488281</ele>
        <time>2019-01-19T11:27:36.000Z</time>
      </trkpt>
      <trkpt lat="45.60823" lon="6.6537">
        <ele>1994</ele>
        <time>2019-01-19T11:27:37.000Z</time>
      </trkpt>
      <trkpt lat="45.60825" lon="6.65375">
        <ele>1994.1999511719</ele>
        <time>2019-01-19T11:27:38.000Z</time>
      </trkpt>
      <trkpt lat="45.60826" lon="6.65378">
        <ele>1994.1999511719</ele>
        <time>2019-01-19T11:27:39.000Z</time>
      </trkpt>
      <trkpt lat="45.60829" lon="6.65382">
        <ele>1994.5999755859</ele>
        <time>2019-01-19T11:27:41.000Z</time>
      </trkpt>
      <trkpt lat="45.60829" lon="6.65383">
        <ele>1994.5999755859</ele>
        <time>2019-01-19T11:27:44.000Z</time>
      </trkpt>
      <trkpt lat="45.60829" lon="6.65383">
        <ele>1994.5999755859</ele>
        <time>2019-01-19T11:27:46.000Z</time>
      </trkpt>
      <trkpt lat="45.60829" lon="6.65383">
        <ele>1994.5999755859</ele>
        <time>2019-01-19T11:28:04.000Z</time>
      </trkpt>
      <trkpt lat="45.60829" lon="6.65383">
        <ele>1994.5999755859</ele>
        <time>2019-01-19T11:28:19.000Z</time>
      </trkpt>
      <trkpt lat="45.60829" lon="6.6538">
        <ele>1994.5999755859</ele>
        <time>2019-01-19T11:28:32.000Z</time>
      </trkpt>
      <trkpt lat="45.60829" lon="6.65384">
        <ele>1994.5999755859</ele>
        <time>2019-01-19T11:28:35.000Z</time>
      </trkpt>
      <trkpt lat="45.6083" lon="6.65388">
        <ele>1994.5999755859</ele>
        <time>2019-01-19T11:28:37.000Z</time>
      </trkpt>
      <trkpt lat="45.6083" lon="6.65388">
        <ele>1994.5999755859</ele>
        <time>2019-01-19T11:28:40.000Z</time>
      </trkpt>
      <trkpt lat="45.6083" lon="6.65388">
        <ele>1994.5999755859</ele>
        <time>2019-01-19T11:28:43.000Z</time>
      </trkpt>
      <trkpt lat="45.6083" lon="6.65388">
        <ele>1994.5999755859</ele>
        <time>2019-01-19T11:28:55.000Z</time>
      </trkpt>
      <trkpt lat="45.6083" lon="6.65388">
        <ele>1994.5999755859</ele>
        <time>2019-01-19T11:28:59.000Z</time>
      </trkpt>
      <trkpt lat="45.6083" lon="6.65388">
        <ele>1994.5999755859</ele>
        <time>2019-01-19T11:29:01.000Z</time>
      </trkpt>
      <trkpt lat="45.6083" lon="6.65388">
        <ele>1994.5999755859</ele>
        <time>2019-01-19T11:29:05.000Z</time>
      </trkpt>
      <trkpt lat="45.6083" lon="6.65388">
        <ele>1994.5999755859</ele>
        <time>2019-01-19T11:29:07.000Z</time>
      </trkpt>
      <trkpt lat="45.6083" lon="6.65388">
        <ele>1994.5999755859</ele>
        <time>2019-01-19T11:29:09.000Z</time>
      </trkpt>
      <trkpt lat="45.6083" lon="6.65388">
        <ele>1994.5999755859</ele>
        <time>2019-01-19T11:29:13.000Z</time>
      </trkpt>
      <trkpt lat="45.6083" lon="6.65388">
        <ele>1994.5999755859</ele>
        <time>2019-01-19T11:29:16.000Z</time>
      </trkpt>
      <trkpt lat="45.60829" lon="6.65388">
        <ele>1994.4000244141</ele>
        <time>2019-01-19T11:29:21.000Z</time>
      </trkpt>
      <trkpt lat="45.60829" lon="6.65388">
        <ele>1994.4000244141</ele>
        <time>2019-01-19T11:29:35.000Z</time>
      </trkpt>
      <trkpt lat="45.60829" lon="6.65388">
        <ele>1994.4000244141</ele>
        <time>2019-01-19T11:29:47.000Z</time>
      </trkpt>
      <trkpt lat="45.60829" lon="6.65385">
        <ele>1994.5999755859</ele>
        <time>2019-01-19T11:30:07.000Z</time>
      </trkpt>
      <trkpt lat="45.60829" lon="6.65385">
        <ele>1994.5999755859</ele>
        <time>2019-01-19T11:30:23.000Z</time>
      </trkpt>
      <trkpt lat="45.60829" lon="6.65385">
        <ele>1994.5999755859</ele>
        <time>2019-01-19T11:30:25.000Z</time>
      </trkpt>
      <trkpt lat="45.60829" lon="6.65385">
        <ele>1994.5999755859</ele>
        <time>2019-01-19T11:30:29.000Z</time>
      </trkpt>
      <trkpt lat="45.60829" lon="6.65385">
        <ele>1994.5999755859</ele>
        <time>2019-01-19T11:30:35.000Z</time>
      </trkpt>
      <trkpt lat="45.6083" lon="6.65382">
        <ele>1994.8000488281</ele>
        <time>2019-01-19T11:30:48.000Z</time>
      </trkpt>
      <trkpt lat="45.6083" lon="6.65382">
        <ele>1994.8000488281</ele>
        <time>2019-01-19T11:31:03.000Z</time>
      </trkpt>
      <trkpt lat="45.6083" lon="6.65383">
        <ele>1994.8000488281</ele>
        <time>2019-01-19T11:31:20.000Z</time>
      </trkpt>
      <trkpt lat="45.6083" lon="6.65383">
        <ele>1994.8000488281</ele>
        <time>2019-01-19T11:31:35.000Z</time>
      </trkpt>
      <trkpt lat="45.6083" lon="6.65383">
        <ele>1994.8000488281</ele>
        <time>2019-01-19T11:31:45.000Z</time>
      </trkpt>
      <trkpt lat="45.6083" lon="6.65383">
        <ele>1994.8000488281</ele>
        <time>2019-01-19T11:31:46.000Z</time>
      </trkpt>
      <trkpt lat="45.6083" lon="6.65383">
        <ele>1994.8000488281</ele>
        <time>2019-01-19T11:31:50.000Z</time>
      </trkpt>
      <trkpt lat="45.6083" lon="6.65383">
        <ele>1994.8000488281</ele>
        <time>2019-01-19T11:32:02.000Z</time>
      </trkpt>
      <trkpt lat="45.6083" lon="6.65383">
        <ele>1994.8000488281</ele>
        <time>2019-01-19T11:32:15.000Z</time>
      </trkpt>
      <trkpt lat="45.6083" lon="6.65383">
        <ele>1994.8000488281</ele>
        <time>2019-01-19T11:32:29.000Z</time>
      </trkpt>
      <trkpt lat="45.6083" lon="6.65384">
        <ele>1994.8000488281</ele>
        <time>2019-01-19T11:32:42.000Z</time>
      </trkpt>
      <trkpt lat="45.6083" lon="6.65384">
        <ele>1994.8000488281</ele>
        <time>2019-01-19T11:32:59.000Z</time>
      </trkpt>
      <trkpt lat="45.6083" lon="6.65384">
        <ele>1994.8000488281</ele>
        <time>2019-01-19T11:33:02.000Z</time>
      </trkpt>
      <trkpt lat="45.6083" lon="6.65384">
        <ele>1994.8000488281</ele>
        <time>2019-01-19T11:33:15.000Z</time>
      </trkpt>
      <trkpt lat="45.6083" lon="6.65385">
        <ele>1994.8000488281</ele>
        <time>2019-01-19T11:33:29.000Z</time>
      </trkpt>
      <trkpt lat="45.6083" lon="6.65385">
        <ele>1994.8000488281</ele>
        <time>2019-01-19T11:33:35.000Z</time>
      </trkpt>
      <trkpt lat="45.6083" lon="6.65385">
        <ele>1994.8000488281</ele>
        <time>2019-01-19T11:33:41.000Z</time>
      </trkpt>
      <trkpt lat="45.6083" lon="6.65385">
        <ele>1994.8000488281</ele>
        <time>2019-01-19T11:33:42.000Z</time>
      </trkpt>
      <trkpt lat="45.6083" lon="6.65385">
        <ele>1994.8000488281</ele>
        <time>2019-01-19T11:33:54.000Z</time>
      </trkpt>
      <trkpt lat="45.6083" lon="6.65385">
        <ele>1994.8000488281</ele>
        <time>2019-01-19T11:33:56.000Z</time>
      </trkpt>
      <trkpt lat="45.6083" lon="6.65386">
        <ele>1994.8000488281</ele>
        <time>2019-01-19T11:34:00.000Z</time>
      </trkpt>
      <trkpt lat="45.6083" lon="6.65386">
        <ele>1994.8000488281</ele>
        <time>2019-01-19T11:34:02.000Z</time>
      </trkpt>
      <trkpt lat="45.6083" lon="6.65386">
        <ele>1994.8000488281</ele>
        <time>2019-01-19T11:34:07.000Z</time>
      </trkpt>
      <trkpt lat="45.6083" lon="6.65386">
        <ele>1994.8000488281</ele>
        <time>2019-01-19T11:34:10.000Z</time>
      </trkpt>
      <trkpt lat="45.6083" lon="6.65386">
        <ele>1994.8000488281</ele>
        <time>2019-01-19T11:34:21.000Z</time>
      </trkpt>
      <trkpt lat="45.60831" lon="6.65384">
        <ele>1994.8000488281</ele>
        <time>2019-01-19T11:34:23.000Z</time>
      </trkpt>
      <trkpt lat="45.60831" lon="6.65383">
        <ele>1995</ele>
        <time>2019-01-19T11:34:29.000Z</time>
      </trkpt>
      <trkpt lat="45.60831" lon="6.65383">
        <ele>1995</ele>
        <time>2019-01-19T11:34:40.000Z</time>
      </trkpt>
      <trkpt lat="45.60831" lon="6.65383">
        <ele>1995</ele>
        <time>2019-01-19T11:34:54.000Z</time>
      </trkpt>
      <trkpt lat="45.60832" lon="6.65381">
        <ele>1995.1999511719</ele>
        <time>2019-01-19T11:35:06.000Z</time>
      </trkpt>
      <trkpt lat="45.60832" lon="6.65381">
        <ele>1995.1999511719</ele>
        <time>2019-01-19T11:35:08.000Z</time>
      </trkpt>
      <trkpt lat="45.60832" lon="6.65381">
        <ele>1995.1999511719</ele>
        <time>2019-01-19T11:35:10.000Z</time>
      </trkpt>
      <trkpt lat="45.60832" lon="6.65381">
        <ele>1995.1999511719</ele>
        <time>2019-01-19T11:35:16.000Z</time>
      </trkpt>
      <trkpt lat="45.60832" lon="6.65381">
        <ele>1995.1999511719</ele>
        <time>2019-01-19T11:35:18.000Z</time>
      </trkpt>
      <trkpt lat="45.60832" lon="6.65381">
        <ele>1995.1999511719</ele>
        <time>2019-01-19T11:35:35.000Z</time>
      </trkpt>
      <trkpt lat="45.60832" lon="6.65381">
        <ele>1995.1999511719</ele>
        <time>2019-01-19T11:35:41.000Z</time>
      </trkpt>
      <trkpt lat="45.60832" lon="6.6538">
        <ele>1995.1999511719</ele>
        <time>2019-01-19T11:35:45.000Z</time>
      </trkpt>
      <trkpt lat="45.60832" lon="6.6538">
        <ele>1995.1999511719</ele>
        <time>2019-01-19T11:35:48.000Z</time>
      </trkpt>
      <trkpt lat="45.60832" lon="6.6538">
        <ele>1995.1999511719</ele>
        <time>2019-01-19T11:35:52.000Z</time>
      </trkpt>
      <trkpt lat="45.60832" lon="6.6538">
        <ele>1995.1999511719</ele>
        <time>2019-01-19T11:35:56.000Z</time>
      </trkpt>
      <trkpt lat="45.60832" lon="6.6538">
        <ele>1995.1999511719</ele>
        <time>2019-01-19T11:36:00.000Z</time>
      </trkpt>
      <trkpt lat="45.60832" lon="6.6538">
        <ele>1995.1999511719</ele>
        <time>2019-01-19T11:36:06.000Z</time>
      </trkpt>
      <trkpt lat="45.60832" lon="6.6538">
        <ele>1995.1999511719</ele>
        <time>2019-01-19T11:36:11.000Z</time>
      </trkpt>
      <trkpt lat="45.60832" lon="6.6538">
        <ele>1995.1999511719</ele>
        <time>2019-01-19T11:36:20.000Z</time>
      </trkpt>
      <trkpt lat="45.60832" lon="6.65379">
        <ele>1995.4000244141</ele>
        <time>2019-01-19T11:36:32.000Z</time>
      </trkpt>
      <trkpt lat="45.60832" lon="6.65379">
        <ele>1995.4000244141</ele>
        <time>2019-01-19T11:36:36.000Z</time>
      </trkpt>
      <trkpt lat="45.60832" lon="6.65379">
        <ele>1995.4000244141</ele>
        <time>2019-01-19T11:36:38.000Z</time>
      </trkpt>
      <trkpt lat="45.60832" lon="6.65379">
        <ele>1995.4000244141</ele>
        <time>2019-01-19T11:36:42.000Z</time>
      </trkpt>
      <trkpt lat="45.60832" lon="6.65379">
        <ele>1995.4000244141</ele>
        <time>2019-01-19T11:36:43.000Z</time>
      </trkpt>
      <trkpt lat="45.60832" lon="6.65379">
        <ele>1995.4000244141</ele>
        <time>2019-01-19T11:36:58.000Z</time>
      </trkpt>
      <trkpt lat="45.60832" lon="6.6538">
        <ele>1995.4000244141</ele>
        <time>2019-01-19T11:37:12.000Z</time>
      </trkpt>
      <trkpt lat="45.60832" lon="6.65381">
        <ele>1995.1999511719</ele>
        <time>2019-01-19T11:37:16.000Z</time>
      </trkpt>
      <trkpt lat="45.60832" lon="6.65381">
        <ele>1995.1999511719</ele>
        <time>2019-01-19T11:37:20.000Z</time>
      </trkpt>
      <trkpt lat="45.60832" lon="6.65381">
        <ele>1995.1999511719</ele>
        <time>2019-01-19T11:37:25.000Z</time>
      </trkpt>
      <trkpt lat="45.60832" lon="6.65381">
        <ele>1995.1999511719</ele>
        <time>2019-01-19T11:37:39.000Z</time>
      </trkpt>
      <trkpt lat="45.60833" lon="6.65378">
        <ele>1995.4000244141</ele>
        <time>2019-01-19T11:37:56.000Z</time>
      </trkpt>
      <trkpt lat="45.60833" lon="6.65378">
        <ele>1995.4000244141</ele>
        <time>2019-01-19T11:38:12.000Z</time>
      </trkpt>
      <trkpt lat="45.60833" lon="6.65378">
        <ele>1995.4000244141</ele>
        <time>2019-01-19T11:38:30.000Z</time>
      </trkpt>
      <trkpt lat="45.60839" lon="6.65355">
        <ele>1997.5999755859</ele>
        <time>2019-01-19T11:38:42.000Z</time>
      </trkpt>
      <trkpt lat="45.60849" lon="6.65318">
        <ele>2008.8000488281</ele>
        <time>2019-01-19T11:38:49.000Z</time>
      </trkpt>
      <trkpt lat="45.60851" lon="6.65311">
        <ele>2012</ele>
        <time>2019-01-19T11:38:50.000Z</time>
      </trkpt>
      <trkpt lat="45.60857" lon="6.65285">
        <ele>2024</ele>
        <time>2019-01-19T11:38:57.000Z</time>
      </trkpt>
      <trkpt lat="45.60858" lon="6.65278">
        <ele>2026.4000244141</ele>
        <time>2019-01-19T11:39:02.000Z</time>
      </trkpt>
      <trkpt lat="45.60859" lon="6.65272">
        <ele>2028.4000244141</ele>
        <time>2019-01-19T11:39:04.000Z</time>
      </trkpt>
      <trkpt lat="45.60859" lon="6.65272">
        <ele>2028.4000244141</ele>
        <time>2019-01-19T11:39:05.000Z</time>
      </trkpt>
      <trkpt lat="45.60861" lon="6.6527">
        <ele>2029.1999511719</ele>
        <time>2019-01-19T11:39:06.000Z</time>
      </trkpt>
      <trkpt lat="45.60865" lon="6.65263">
        <ele>2032.4000244141</ele>
        <time>2019-01-19T11:39:10.000Z</time>
      </trkpt>
      <trkpt lat="45.6087" lon="6.65255">
        <ele>2035.8000488281</ele>
        <time>2019-01-19T11:39:16.000Z</time>
      </trkpt>
      <trkpt lat="45.60874" lon="6.6525">
        <ele>2038.4000244141</ele>
        <time>2019-01-19T11:39:22.000Z</time>
      </trkpt>
      <trkpt lat="45.60875" lon="6.65249">
        <ele>2039</ele>
        <time>2019-01-19T11:39:23.000Z</time>
      </trkpt>
      <trkpt lat="45.60879" lon="6.65241">
        <ele>2042</ele>
        <time>2019-01-19T11:39:27.000Z</time>
      </trkpt>
      <trkpt lat="45.60881" lon="6.6524">
        <ele>2043</ele>
        <time>2019-01-19T11:39:31.000Z</time>
      </trkpt>
      <trkpt lat="45.60881" lon="6.6524">
        <ele>2043</ele>
        <time>2019-01-19T11:39:34.000Z</time>
      </trkpt>
      <trkpt lat="45.60884" lon="6.65239">
        <ele>2043.8000488281</ele>
        <time>2019-01-19T11:39:40.000Z</time>
      </trkpt>
      <trkpt lat="45.60889" lon="6.65228">
        <ele>2047.1999511719</ele>
        <time>2019-01-19T11:39:47.000Z</time>
      </trkpt>
      <trkpt lat="45.60894" lon="6.65223">
        <ele>2049.1999511719</ele>
        <time>2019-01-19T11:39:53.000Z</time>
      </trkpt>
      <trkpt lat="45.60895" lon="6.65221">
        <ele>2049.6000976562</ele>
        <time>2019-01-19T11:39:55.000Z</time>
      </trkpt>
      <trkpt lat="45.60898" lon="6.65218">
        <ele>2050.8000488281</ele>
        <time>2019-01-19T11:39:59.000Z</time>
      </trkpt>
      <trkpt lat="45.60899" lon="6.65218">
        <ele>2051</ele>
        <time>2019-01-19T11:40:00.000Z</time>
      </trkpt>
      <trkpt lat="45.60903" lon="6.65216">
        <ele>2052</ele>
        <time>2019-01-19T11:40:04.000Z</time>
      </trkpt>
      <trkpt lat="45.60904" lon="6.65215">
        <ele>2052.1999511719</ele>
        <time>2019-01-19T11:40:05.000Z</time>
      </trkpt>
      <trkpt lat="45.60904" lon="6.65213">
        <ele>2052.8000488281</ele>
        <time>2019-01-19T11:40:09.000Z</time>
      </trkpt>
      <trkpt lat="45.60907" lon="6.65211">
        <ele>2053.6000976562</ele>
        <time>2019-01-19T11:40:12.000Z</time>
      </trkpt>
      <trkpt lat="45.6091" lon="6.65208">
        <ele>2055</ele>
        <time>2019-01-19T11:40:18.000Z</time>
      </trkpt>
      <trkpt lat="45.60911" lon="6.65207">
        <ele>2055.1999511719</ele>
        <time>2019-01-19T11:40:19.000Z</time>
      </trkpt>
      <trkpt lat="45.60916" lon="6.65205">
        <ele>2056.3999023438</ele>
        <time>2019-01-19T11:40:24.000Z</time>
      </trkpt>
      <trkpt lat="45.60917" lon="6.65205">
        <ele>2056.6000976562</ele>
        <time>2019-01-19T11:40:26.000Z</time>
      </trkpt>
      <trkpt lat="45.60917" lon="6.65204">
        <ele>2056.8000488281</ele>
        <time>2019-01-19T11:40:29.000Z</time>
      </trkpt>
      <trkpt lat="45.60918" lon="6.65201">
        <ele>2057.8000488281</ele>
        <time>2019-01-19T11:40:34.000Z</time>
      </trkpt>
      <trkpt lat="45.60921" lon="6.65198">
        <ele>2058.6000976562</ele>
        <time>2019-01-19T11:40:38.000Z</time>
      </trkpt>
      <trkpt lat="45.60923" lon="6.65197">
        <ele>2059.1999511719</ele>
        <time>2019-01-19T11:40:40.000Z</time>
      </trkpt>
      <trkpt lat="45.60923" lon="6.65198">
        <ele>2059</ele>
        <time>2019-01-19T11:40:41.000Z</time>
      </trkpt>
      <trkpt lat="45.60924" lon="6.65197">
        <ele>2059.3999023438</ele>
        <time>2019-01-19T11:40:43.000Z</time>
      </trkpt>
      <trkpt lat="45.60926" lon="6.65194">
        <ele>2060.3999023438</ele>
        <time>2019-01-19T11:40:48.000Z</time>
      </trkpt>
      <trkpt lat="45.60928" lon="6.65193">
        <ele>2060.8000488281</ele>
        <time>2019-01-19T11:40:51.000Z</time>
      </trkpt>
      <trkpt lat="45.60929" lon="6.65191">
        <ele>2061.1999511719</ele>
        <time>2019-01-19T11:40:56.000Z</time>
      </trkpt>
      <trkpt lat="45.60933" lon="6.65189">
        <ele>2061.8000488281</ele>
        <time>2019-01-19T11:41:00.000Z</time>
      </trkpt>
      <trkpt lat="45.60935" lon="6.65188">
        <ele>2062</ele>
        <time>2019-01-19T11:41:02.000Z</time>
      </trkpt>
      <trkpt lat="45.60937" lon="6.65187">
        <ele>2062.3999023438</ele>
        <time>2019-01-19T11:41:06.000Z</time>
      </trkpt>
      <trkpt lat="45.60938" lon="6.65187">
        <ele>2062.6000976562</ele>
        <time>2019-01-19T11:41:08.000Z</time>
      </trkpt>
      <trkpt lat="45.60938" lon="6.65186">
        <ele>2062.6000976562</ele>
        <time>2019-01-19T11:41:11.000Z</time>
      </trkpt>
      <trkpt lat="45.6094" lon="6.65185">
        <ele>2063</ele>
        <time>2019-01-19T11:41:16.000Z</time>
      </trkpt>
      <trkpt lat="45.60942" lon="6.65184">
        <ele>2063.1999511719</ele>
        <time>2019-01-19T11:41:19.000Z</time>
      </trkpt>
      <trkpt lat="45.60944" lon="6.65182">
        <ele>2063.8000488281</ele>
        <time>2019-01-19T11:41:22.000Z</time>
      </trkpt>
      <trkpt lat="45.60945" lon="6.6518">
        <ele>2064</ele>
        <time>2019-01-19T11:41:23.000Z</time>
      </trkpt>
      <trkpt lat="45.60946" lon="6.6518">
        <ele>2064.1999511719</ele>
        <time>2019-01-19T11:41:26.000Z</time>
      </trkpt>
      <trkpt lat="45.6095" lon="6.65178">
        <ele>2065</ele>
        <time>2019-01-19T11:41:32.000Z</time>
      </trkpt>
      <trkpt lat="45.60953" lon="6.65175">
        <ele>2065.6000976562</ele>
        <time>2019-01-19T11:41:41.000Z</time>
      </trkpt>
      <trkpt lat="45.60958" lon="6.65172">
        <ele>2066.6000976562</ele>
        <time>2019-01-19T11:41:47.000Z</time>
      </trkpt>
      <trkpt lat="45.60959" lon="6.65171">
        <ele>2066.6000976562</ele>
        <time>2019-01-19T11:41:49.000Z</time>
      </trkpt>
      <trkpt lat="45.60962" lon="6.65168">
        <ele>2067.3999023438</ele>
        <time>2019-01-19T11:41:52.000Z</time>
      </trkpt>
      <trkpt lat="45.60963" lon="6.65168">
        <ele>2067.3999023438</ele>
        <time>2019-01-19T11:41:54.000Z</time>
      </trkpt>
      <trkpt lat="45.60966" lon="6.65166">
        <ele>2068</ele>
        <time>2019-01-19T11:41:57.000Z</time>
      </trkpt>
      <trkpt lat="45.60969" lon="6.65163">
        <ele>2068.8000488281</ele>
        <time>2019-01-19T11:42:02.000Z</time>
      </trkpt>
      <trkpt lat="45.60973" lon="6.6516">
        <ele>2070</ele>
        <time>2019-01-19T11:42:07.000Z</time>
      </trkpt>
      <trkpt lat="45.60974" lon="6.65159">
        <ele>2070.1999511719</ele>
        <time>2019-01-19T11:42:09.000Z</time>
      </trkpt>
      <trkpt lat="45.60975" lon="6.65159">
        <ele>2070.6000976562</ele>
        <time>2019-01-19T11:42:14.000Z</time>
      </trkpt>
      <trkpt lat="45.60981" lon="6.65155">
        <ele>2072.8000488281</ele>
        <time>2019-01-19T11:42:19.000Z</time>
      </trkpt>
      <trkpt lat="45.60983" lon="6.65153">
        <ele>2073.8000488281</ele>
        <time>2019-01-19T11:42:23.000Z</time>
      </trkpt>
      <trkpt lat="45.60987" lon="6.6515">
        <ele>2075.3999023438</ele>
        <time>2019-01-19T11:42:28.000Z</time>
      </trkpt>
      <trkpt lat="45.6099" lon="6.65148">
        <ele>2077</ele>
        <time>2019-01-19T11:42:32.000Z</time>
      </trkpt>
      <trkpt lat="45.60991" lon="6.65148">
        <ele>2077.1999511719</ele>
        <time>2019-01-19T11:42:33.000Z</time>
      </trkpt>
      <trkpt lat="45.60994" lon="6.65145">
        <ele>2079</ele>
        <time>2019-01-19T11:42:38.000Z</time>
      </trkpt>
      <trkpt lat="45.61" lon="6.65144">
        <ele>2080.8000488281</ele>
        <time>2019-01-19T11:42:42.000Z</time>
      </trkpt>
      <trkpt lat="45.61" lon="6.65144">
        <ele>2080.8000488281</ele>
        <time>2019-01-19T11:42:44.000Z</time>
      </trkpt>
      <trkpt lat="45.61005" lon="6.65144">
        <ele>2082</ele>
        <time>2019-01-19T11:42:49.000Z</time>
      </trkpt>
      <trkpt lat="45.61006" lon="6.65145">
        <ele>2082.3999023438</ele>
        <time>2019-01-19T11:42:51.000Z</time>
      </trkpt>
      <trkpt lat="45.61011" lon="6.65142">
        <ele>2084.3999023438</ele>
        <time>2019-01-19T11:42:56.000Z</time>
      </trkpt>
      <trkpt lat="45.61014" lon="6.65137">
        <ele>2086.6000976562</ele>
        <time>2019-01-19T11:43:01.000Z</time>
      </trkpt>
      <trkpt lat="45.61016" lon="6.65136">
        <ele>2087.3999023438</ele>
        <time>2019-01-19T11:43:04.000Z</time>
      </trkpt>
      <trkpt lat="45.61016" lon="6.65136">
        <ele>2087.6000976562</ele>
        <time>2019-01-19T11:43:06.000Z</time>
      </trkpt>
      <trkpt lat="45.61016" lon="6.65136">
        <ele>2087.6000976562</ele>
        <time>2019-01-19T11:43:09.000Z</time>
      </trkpt>
      <trkpt lat="45.61016" lon="6.65136">
        <ele>2087.6000976562</ele>
        <time>2019-01-19T11:43:17.000Z</time>
      </trkpt>
      <trkpt lat="45.61016" lon="6.65136">
        <ele>2087.6000976562</ele>
        <time>2019-01-19T11:43:19.000Z</time>
      </trkpt>
      <trkpt lat="45.61016" lon="6.65136">
        <ele>2087.6000976562</ele>
        <time>2019-01-19T11:43:26.000Z</time>
      </trkpt>
      <trkpt lat="45.61019" lon="6.65133">
        <ele>2089</ele>
        <time>2019-01-19T11:43:29.000Z</time>
      </trkpt>
      <trkpt lat="45.61024" lon="6.65131">
        <ele>2091</ele>
        <time>2019-01-19T11:43:34.000Z</time>
      </trkpt>
      <trkpt lat="45.61024" lon="6.65131">
        <ele>2091</ele>
        <time>2019-01-19T11:43:35.000Z</time>
      </trkpt>
      <trkpt lat="45.61029" lon="6.6513">
        <ele>2092.6000976562</ele>
        <time>2019-01-19T11:43:42.000Z</time>
      </trkpt>
      <trkpt lat="45.61033" lon="6.65132">
        <ele>2093.1999511719</ele>
        <time>2019-01-19T11:43:49.000Z</time>
      </trkpt>
      <trkpt lat="45.6104" lon="6.65135">
        <ele>2093.8000488281</ele>
        <time>2019-01-19T11:43:55.000Z</time>
      </trkpt>
      <trkpt lat="45.6104" lon="6.65135">
        <ele>2093.8000488281</ele>
        <time>2019-01-19T11:43:56.000Z</time>
      </trkpt>
      <trkpt lat="45.61041" lon="6.65136">
        <ele>2093.8000488281</ele>
        <time>2019-01-19T11:43:58.000Z</time>
      </trkpt>
      <trkpt lat="45.61043" lon="6.65137">
        <ele>2093.8000488281</ele>
        <time>2019-01-19T11:44:03.000Z</time>
      </trkpt>
      <trkpt lat="45.61043" lon="6.65136">
        <ele>2094</ele>
        <time>2019-01-19T11:44:08.000Z</time>
      </trkpt>
      <trkpt lat="45.61043" lon="6.65136">
        <ele>2094</ele>
        <time>2019-01-19T11:44:10.000Z</time>
      </trkpt>
      <trkpt lat="45.61046" lon="6.65137">
        <ele>2094.3999023438</ele>
        <time>2019-01-19T11:44:16.000Z</time>
      </trkpt>
      <trkpt lat="45.61051" lon="6.65138">
        <ele>2095.1999511719</ele>
        <time>2019-01-19T11:44:21.000Z</time>
      </trkpt>
      <trkpt lat="45.61051" lon="6.65138">
        <ele>2095.1999511719</ele>
        <time>2019-01-19T11:44:22.000Z</time>
      </trkpt>
      <trkpt lat="45.61054" lon="6.65138">
        <ele>2096</ele>
        <time>2019-01-19T11:44:26.000Z</time>
      </trkpt>
      <trkpt lat="45.61055" lon="6.65139">
        <ele>2096.1999511719</ele>
        <time>2019-01-19T11:44:27.000Z</time>
      </trkpt>
      <trkpt lat="45.6106" lon="6.65141">
        <ele>2097.8000488281</ele>
        <time>2019-01-19T11:44:33.000Z</time>
      </trkpt>
      <trkpt lat="45.6106" lon="6.65141">
        <ele>2097.8000488281</ele>
        <time>2019-01-19T11:44:34.000Z</time>
      </trkpt>
      <trkpt lat="45.61064" lon="6.65144">
        <ele>2098.8000488281</ele>
        <time>2019-01-19T11:44:39.000Z</time>
      </trkpt>
      <trkpt lat="45.61066" lon="6.65146">
        <ele>2099.1999511719</ele>
        <time>2019-01-19T11:44:42.000Z</time>
      </trkpt>
      <trkpt lat="45.61068" lon="6.65146">
        <ele>2099.8000488281</ele>
        <time>2019-01-19T11:44:45.000Z</time>
      </trkpt>
      <trkpt lat="45.61069" lon="6.65147">
        <ele>2100</ele>
        <time>2019-01-19T11:44:47.000Z</time>
      </trkpt>
      <trkpt lat="45.61071" lon="6.65148">
        <ele>2100.6000976562</ele>
        <time>2019-01-19T11:44:51.000Z</time>
      </trkpt>
      <trkpt lat="45.61073" lon="6.6515">
        <ele>2101</ele>
        <time>2019-01-19T11:44:53.000Z</time>
      </trkpt>
      <trkpt lat="45.61076" lon="6.65153">
        <ele>2101.6000976562</ele>
        <time>2019-01-19T11:44:58.000Z</time>
      </trkpt>
      <trkpt lat="45.61078" lon="6.65154">
        <ele>2101.8000488281</ele>
        <time>2019-01-19T11:44:59.000Z</time>
      </trkpt>
      <trkpt lat="45.6108" lon="6.65156">
        <ele>2102.1999511719</ele>
        <time>2019-01-19T11:45:03.000Z</time>
      </trkpt>
      <trkpt lat="45.61084" lon="6.65161">
        <ele>2102.1999511719</ele>
        <time>2019-01-19T11:45:11.000Z</time>
      </trkpt>
      <trkpt lat="45.61085" lon="6.65162">
        <ele>2102.1999511719</ele>
        <time>2019-01-19T11:45:12.000Z</time>
      </trkpt>
      <trkpt lat="45.61088" lon="6.65166">
        <ele>2102.6000976562</ele>
        <time>2019-01-19T11:45:18.000Z</time>
      </trkpt>
      <trkpt lat="45.61089" lon="6.65167">
        <ele>2102.3999023438</ele>
        <time>2019-01-19T11:45:19.000Z</time>
      </trkpt>
      <trkpt lat="45.6109" lon="6.6517">
        <ele>2101.8000488281</ele>
        <time>2019-01-19T11:45:23.000Z</time>
      </trkpt>
      <trkpt lat="45.6109" lon="6.65171">
        <ele>2101.8000488281</ele>
        <time>2019-01-19T11:45:24.000Z</time>
      </trkpt>
      <trkpt lat="45.6109" lon="6.65172">
        <ele>2101.6000976562</ele>
        <time>2019-01-19T11:45:28.000Z</time>
      </trkpt>
      <trkpt lat="45.6109" lon="6.65172">
        <ele>2101.6000976562</ele>
        <time>2019-01-19T11:45:30.000Z</time>
      </trkpt>
      <trkpt lat="45.6109" lon="6.6517">
        <ele>2102.1999511719</ele>
        <time>2019-01-19T11:45:35.000Z</time>
      </trkpt>
      <trkpt lat="45.6109" lon="6.65169">
        <ele>2102.6000976562</ele>
        <time>2019-01-19T11:45:46.000Z</time>
      </trkpt>
      <trkpt lat="45.61091" lon="6.65166">
        <ele>2103.8000488281</ele>
        <time>2019-01-19T11:45:48.000Z</time>
      </trkpt>
      <trkpt lat="45.61091" lon="6.65162">
        <ele>2104.6000976562</ele>
        <time>2019-01-19T11:45:51.000Z</time>
      </trkpt>
      <trkpt lat="45.6109" lon="6.65159">
        <ele>2105.3999023438</ele>
        <time>2019-01-19T11:45:55.000Z</time>
      </trkpt>
      <trkpt lat="45.6109" lon="6.65156">
        <ele>2106</ele>
        <time>2019-01-19T11:46:01.000Z</time>
      </trkpt>
      <trkpt lat="45.6109" lon="6.65154">
        <ele>2106.8000488281</ele>
        <time>2019-01-19T11:46:02.000Z</time>
      </trkpt>
      <trkpt lat="45.61089" lon="6.6515">
        <ele>2107.1999511719</ele>
        <time>2019-01-19T11:46:06.000Z</time>
      </trkpt>
      <trkpt lat="45.61088" lon="6.65147">
        <ele>2107.6000976562</ele>
        <time>2019-01-19T11:46:10.000Z</time>
      </trkpt>
      <trkpt lat="45.61088" lon="6.65146">
        <ele>2107.8000488281</ele>
        <time>2019-01-19T11:46:11.000Z</time>
      </trkpt>
      <trkpt lat="45.61086" lon="6.65142">
        <ele>2108</ele>
        <time>2019-01-19T11:46:15.000Z</time>
      </trkpt>
      <trkpt lat="45.61085" lon="6.65141">
        <ele>2108</ele>
        <time>2019-01-19T11:46:18.000Z</time>
      </trkpt>
      <trkpt lat="45.61086" lon="6.65138">
        <ele>2108.6000976562</ele>
        <time>2019-01-19T11:46:20.000Z</time>
      </trkpt>
      <trkpt lat="45.61087" lon="6.65135">
        <ele>2110</ele>
        <time>2019-01-19T11:46:24.000Z</time>
      </trkpt>
      <trkpt lat="45.61087" lon="6.65133">
        <ele>2110.3999023438</ele>
        <time>2019-01-19T11:46:25.000Z</time>
      </trkpt>
      <trkpt lat="45.61087" lon="6.65131">
        <ele>2110.8000488281</ele>
        <time>2019-01-19T11:46:28.000Z</time>
      </trkpt>
      <trkpt lat="45.61088" lon="6.65129">
        <ele>2111.6000976562</ele>
        <time>2019-01-19T11:46:30.000Z</time>
      </trkpt>
      <trkpt lat="45.61088" lon="6.65129">
        <ele>2111.6000976562</ele>
        <time>2019-01-19T11:46:31.000Z</time>
      </trkpt>
      <trkpt lat="45.61088" lon="6.65128">
        <ele>2112</ele>
        <time>2019-01-19T11:46:32.000Z</time>
      </trkpt>
      <trkpt lat="45.61089" lon="6.65126">
        <ele>2113</ele>
        <time>2019-01-19T11:46:36.000Z</time>
      </trkpt>
      <trkpt lat="45.61089" lon="6.65126">
        <ele>2113</ele>
        <time>2019-01-19T11:46:38.000Z</time>
      </trkpt>
      <trkpt lat="45.61089" lon="6.65126">
        <ele>2113</ele>
        <time>2019-01-19T11:46:41.000Z</time>
      </trkpt>
      <trkpt lat="45.61089" lon="6.65126">
        <ele>2113</ele>
        <time>2019-01-19T11:46:51.000Z</time>
      </trkpt>
      <trkpt lat="45.6109" lon="6.65123">
        <ele>2114</ele>
        <time>2019-01-19T11:47:00.000Z</time>
      </trkpt>
      <trkpt lat="45.6109" lon="6.65119">
        <ele>2114.8000488281</ele>
        <time>2019-01-19T11:47:05.000Z</time>
      </trkpt>
      <trkpt lat="45.61092" lon="6.65116">
        <ele>2116.1999511719</ele>
        <time>2019-01-19T11:47:10.000Z</time>
      </trkpt>
      <trkpt lat="45.61093" lon="6.65116">
        <ele>2116.3999023438</ele>
        <time>2019-01-19T11:47:11.000Z</time>
      </trkpt>
      <trkpt lat="45.61096" lon="6.6512">
        <ele>2116.6000976562</ele>
        <time>2019-01-19T11:47:15.000Z</time>
      </trkpt>
      <trkpt lat="45.61097" lon="6.65122">
        <ele>2116.8000488281</ele>
        <time>2019-01-19T11:47:16.000Z</time>
      </trkpt>
      <trkpt lat="45.611" lon="6.65126">
        <ele>2117.1999511719</ele>
        <time>2019-01-19T11:47:21.000Z</time>
      </trkpt>
      <trkpt lat="45.611" lon="6.65127">
        <ele>2117</ele>
        <time>2019-01-19T11:47:23.000Z</time>
      </trkpt>
      <trkpt lat="45.61103" lon="6.6513">
        <ele>2117.3999023438</ele>
        <time>2019-01-19T11:47:29.000Z</time>
      </trkpt>
      <trkpt lat="45.61103" lon="6.65131">
        <ele>2117.1999511719</ele>
        <time>2019-01-19T11:47:30.000Z</time>
      </trkpt>
      <trkpt lat="45.61105" lon="6.65134">
        <ele>2117.1999511719</ele>
        <time>2019-01-19T11:47:34.000Z</time>
      </trkpt>
      <trkpt lat="45.61108" lon="6.65138">
        <ele>2117.3999023438</ele>
        <time>2019-01-19T11:47:38.000Z</time>
      </trkpt>
      <trkpt lat="45.61108" lon="6.65139">
        <ele>2117.3999023438</ele>
        <time>2019-01-19T11:47:39.000Z</time>
      </trkpt>
      <trkpt lat="45.61108" lon="6.65139">
        <ele>2117.3999023438</ele>
        <time>2019-01-19T11:47:43.000Z</time>
      </trkpt>
      <trkpt lat="45.61109" lon="6.65142">
        <ele>2116.8000488281</ele>
        <time>2019-01-19T11:47:48.000Z</time>
      </trkpt>
      <trkpt lat="45.61111" lon="6.65144">
        <ele>2117.3999023438</ele>
        <time>2019-01-19T11:47:53.000Z</time>
      </trkpt>
      <trkpt lat="45.61111" lon="6.65144">
        <ele>2117.3999023438</ele>
        <time>2019-01-19T11:47:59.000Z</time>
      </trkpt>
      <trkpt lat="45.61113" lon="6.65147">
        <ele>2117.3999023438</ele>
        <time>2019-01-19T11:48:07.000Z</time>
      </trkpt>
      <trkpt lat="45.61114" lon="6.65148">
        <ele>2117.6000976562</ele>
        <time>2019-01-19T11:48:13.000Z</time>
      </trkpt>
      <trkpt lat="45.61117" lon="6.6515">
        <ele>2118.1999511719</ele>
        <time>2019-01-19T11:48:18.000Z</time>
      </trkpt>
      <trkpt lat="45.61118" lon="6.65152">
        <ele>2118.3999023438</ele>
        <time>2019-01-19T11:48:22.000Z</time>
      </trkpt>
      <trkpt lat="45.61119" lon="6.65153">
        <ele>2118.1999511719</ele>
        <time>2019-01-19T11:48:24.000Z</time>
      </trkpt>
      <trkpt lat="45.61119" lon="6.65154">
        <ele>2118</ele>
        <time>2019-01-19T11:48:28.000Z</time>
      </trkpt>
      <trkpt lat="45.6112" lon="6.65155">
        <ele>2118</ele>
        <time>2019-01-19T11:48:29.000Z</time>
      </trkpt>
      <trkpt lat="45.61121" lon="6.65157">
        <ele>2118</ele>
        <time>2019-01-19T11:48:33.000Z</time>
      </trkpt>
      <trkpt lat="45.61121" lon="6.65158">
        <ele>2117.8000488281</ele>
        <time>2019-01-19T11:48:34.000Z</time>
      </trkpt>
      <trkpt lat="45.61123" lon="6.65167">
        <ele>2115.8000488281</ele>
        <time>2019-01-19T11:48:41.000Z</time>
      </trkpt>
      <trkpt lat="45.61123" lon="6.65168">
        <ele>2115.6000976562</ele>
        <time>2019-01-19T11:48:42.000Z</time>
      </trkpt>
      <trkpt lat="45.61122" lon="6.65172">
        <ele>2114.1999511719</ele>
        <time>2019-01-19T11:48:46.000Z</time>
      </trkpt>
      <trkpt lat="45.61124" lon="6.65177">
        <ele>2113.1999511719</ele>
        <time>2019-01-19T11:48:51.000Z</time>
      </trkpt>
      <trkpt lat="45.61124" lon="6.65179">
        <ele>2113</ele>
        <time>2019-01-19T11:48:53.000Z</time>
      </trkpt>
      <trkpt lat="45.61125" lon="6.65182">
        <ele>2112.1999511719</ele>
        <time>2019-01-19T11:48:56.000Z</time>
      </trkpt>
      <trkpt lat="45.61125" lon="6.65183">
        <ele>2112</ele>
        <time>2019-01-19T11:48:57.000Z</time>
      </trkpt>
      <trkpt lat="45.61124" lon="6.65187">
        <ele>2110.8000488281</ele>
        <time>2019-01-19T11:49:01.000Z</time>
      </trkpt>
      <trkpt lat="45.61124" lon="6.65187">
        <ele>2110.8000488281</ele>
        <time>2019-01-19T11:49:04.000Z</time>
      </trkpt>
      <trkpt lat="45.61125" lon="6.65186">
        <ele>2111.1999511719</ele>
        <time>2019-01-19T11:49:06.000Z</time>
      </trkpt>
      <trkpt lat="45.61126" lon="6.65187">
        <ele>2111.6000976562</ele>
        <time>2019-01-19T11:49:07.000Z</time>
      </trkpt>
      <trkpt lat="45.61129" lon="6.65185">
        <ele>2113</ele>
        <time>2019-01-19T11:49:12.000Z</time>
      </trkpt>
      <trkpt lat="45.6113" lon="6.65185">
        <ele>2113.3999023438</ele>
        <time>2019-01-19T11:49:13.000Z</time>
      </trkpt>
      <trkpt lat="45.6113" lon="6.65184">
        <ele>2113.8000488281</ele>
        <time>2019-01-19T11:49:18.000Z</time>
      </trkpt>
      <trkpt lat="45.61132" lon="6.65184">
        <ele>2115</ele>
        <time>2019-01-19T11:49:29.000Z</time>
      </trkpt>
      <trkpt lat="45.61133" lon="6.65183">
        <ele>2115.3999023438</ele>
        <time>2019-01-19T11:49:30.000Z</time>
      </trkpt>
      <trkpt lat="45.61134" lon="6.65183">
        <ele>2115.8000488281</ele>
        <time>2019-01-19T11:49:31.000Z</time>
      </trkpt>
      <trkpt lat="45.61137" lon="6.65182">
        <ele>2116.8000488281</ele>
        <time>2019-01-19T11:49:34.000Z</time>
      </trkpt>
      <trkpt lat="45.61138" lon="6.65181">
        <ele>2117.3999023438</ele>
        <time>2019-01-19T11:49:38.000Z</time>
      </trkpt>
      <trkpt lat="45.6114" lon="6.65181">
        <ele>2118</ele>
        <time>2019-01-19T11:49:40.000Z</time>
      </trkpt>
      <trkpt lat="45.61142" lon="6.6518">
        <ele>2118.8000488281</ele>
        <time>2019-01-19T11:49:42.000Z</time>
      </trkpt>
      <trkpt lat="45.61143" lon="6.65179">
        <ele>2119.1999511719</ele>
        <time>2019-01-19T11:49:44.000Z</time>
      </trkpt>
      <trkpt lat="45.61144" lon="6.65177">
        <ele>2120.1999511719</ele>
        <time>2019-01-19T11:49:47.000Z</time>
      </trkpt>
      <trkpt lat="45.61145" lon="6.65175">
        <ele>2121</ele>
        <time>2019-01-19T11:49:49.000Z</time>
      </trkpt>
      <trkpt lat="45.61146" lon="6.65173">
        <ele>2121.8000488281</ele>
        <time>2019-01-19T11:49:51.000Z</time>
      </trkpt>
      <trkpt lat="45.61147" lon="6.65171">
        <ele>2122.8000488281</ele>
        <time>2019-01-19T11:49:54.000Z</time>
      </trkpt>
      <trkpt lat="45.61148" lon="6.6517">
        <ele>2123</ele>
        <time>2019-01-19T11:49:57.000Z</time>
      </trkpt>
      <trkpt lat="45.61149" lon="6.65171">
        <ele>2123.1999511719</ele>
        <time>2019-01-19T11:49:59.000Z</time>
      </trkpt>
      <trkpt lat="45.6115" lon="6.6517">
        <ele>2123.6000976562</ele>
        <time>2019-01-19T11:50:01.000Z</time>
      </trkpt>
      <trkpt lat="45.61152" lon="6.65169">
        <ele>2124.3999023438</ele>
        <time>2019-01-19T11:50:05.000Z</time>
      </trkpt>
      <trkpt lat="45.61154" lon="6.65169">
        <ele>2124.8000488281</ele>
        <time>2019-01-19T11:50:07.000Z</time>
      </trkpt>
      <trkpt lat="45.61157" lon="6.65169">
        <ele>2125.3999023438</ele>
        <time>2019-01-19T11:50:11.000Z</time>
      </trkpt>
      <trkpt lat="45.61157" lon="6.65169">
        <ele>2125.6000976562</ele>
        <time>2019-01-19T11:50:12.000Z</time>
      </trkpt>
      <trkpt lat="45.61161" lon="6.65168">
        <ele>2126.6000976562</ele>
        <time>2019-01-19T11:50:17.000Z</time>
      </trkpt>
      <trkpt lat="45.61162" lon="6.65167">
        <ele>2127</ele>
        <time>2019-01-19T11:50:20.000Z</time>
      </trkpt>
      <trkpt lat="45.61163" lon="6.65167">
        <ele>2127.3999023438</ele>
        <time>2019-01-19T11:50:22.000Z</time>
      </trkpt>
      <trkpt lat="45.61164" lon="6.65166">
        <ele>2128</ele>
        <time>2019-01-19T11:50:26.000Z</time>
      </trkpt>
      <trkpt lat="45.61164" lon="6.65162">
        <ele>2128.8000488281</ele>
        <time>2019-01-19T11:50:30.000Z</time>
      </trkpt>
      <trkpt lat="45.61164" lon="6.65161">
        <ele>2129</ele>
        <time>2019-01-19T11:50:31.000Z</time>
      </trkpt>
      <trkpt lat="45.61163" lon="6.65155">
        <ele>2130.3999023438</ele>
        <time>2019-01-19T11:50:36.000Z</time>
      </trkpt>
      <trkpt lat="45.61162" lon="6.65153">
        <ele>2130.8000488281</ele>
        <time>2019-01-19T11:50:38.000Z</time>
      </trkpt>
      <trkpt lat="45.6116" lon="6.65149">
        <ele>2131.1999511719</ele>
        <time>2019-01-19T11:50:40.000Z</time>
      </trkpt>
      <trkpt lat="45.6116" lon="6.65148">
        <ele>2131.3999023438</ele>
        <time>2019-01-19T11:50:41.000Z</time>
      </trkpt>
      <trkpt lat="45.61159" lon="6.65146">
        <ele>2131.3999023438</ele>
        <time>2019-01-19T11:50:43.000Z</time>
      </trkpt>
      <trkpt lat="45.61158" lon="6.65145">
        <ele>2131.6000976562</ele>
        <time>2019-01-19T11:50:46.000Z</time>
      </trkpt>
      <trkpt lat="45.61158" lon="6.65142">
        <ele>2132.3999023438</ele>
        <time>2019-01-19T11:50:52.000Z</time>
      </trkpt>
      <trkpt lat="45.61158" lon="6.65142">
        <ele>2132.3999023438</ele>
        <time>2019-01-19T11:50:57.000Z</time>
      </trkpt>
      <trkpt lat="45.61158" lon="6.65142">
        <ele>2132.3999023438</ele>
        <time>2019-01-19T11:50:59.000Z</time>
      </trkpt>
      <trkpt lat="45.61158" lon="6.65142">
        <ele>2132.3999023438</ele>
        <time>2019-01-19T11:51:02.000Z</time>
      </trkpt>
      <trkpt lat="45.61164" lon="6.65143">
        <ele>2133.3999023438</ele>
        <time>2019-01-19T11:51:09.000Z</time>
      </trkpt>
      <trkpt lat="45.61165" lon="6.65143">
        <ele>2133.6000976562</ele>
        <time>2019-01-19T11:51:10.000Z</time>
      </trkpt>
      <trkpt lat="45.61166" lon="6.65143">
        <ele>2134</ele>
        <time>2019-01-19T11:51:13.000Z</time>
      </trkpt>
      <trkpt lat="45.61167" lon="6.65142">
        <ele>2134.1999511719</ele>
        <time>2019-01-19T11:51:14.000Z</time>
      </trkpt>
      <trkpt lat="45.61171" lon="6.65142">
        <ele>2135.1999511719</ele>
        <time>2019-01-19T11:51:18.000Z</time>
      </trkpt>
      <trkpt lat="45.61173" lon="6.65142">
        <ele>2135.6000976562</ele>
        <time>2019-01-19T11:51:20.000Z</time>
      </trkpt>
      <trkpt lat="45.61175" lon="6.65141">
        <ele>2136.1999511719</ele>
        <time>2019-01-19T11:51:24.000Z</time>
      </trkpt>
      <trkpt lat="45.61175" lon="6.65141">
        <ele>2136.3999023438</ele>
        <time>2019-01-19T11:51:26.000Z</time>
      </trkpt>
      <trkpt lat="45.61176" lon="6.6514">
        <ele>2136.8000488281</ele>
        <time>2019-01-19T11:51:29.000Z</time>
      </trkpt>
      <trkpt lat="45.61176" lon="6.65137">
        <ele>2137.1999511719</ele>
        <time>2019-01-19T11:51:33.000Z</time>
      </trkpt>
      <trkpt lat="45.61176" lon="6.65137">
        <ele>2137.1999511719</ele>
        <time>2019-01-19T11:51:34.000Z</time>
      </trkpt>
      <trkpt lat="45.61174" lon="6.65135">
        <ele>2137.3999023438</ele>
        <time>2019-01-19T11:51:37.000Z</time>
      </trkpt>
      <trkpt lat="45.61173" lon="6.65133">
        <ele>2137.6000976562</ele>
        <time>2019-01-19T11:51:40.000Z</time>
      </trkpt>
      <trkpt lat="45.61172" lon="6.65129">
        <ele>2138.1999511719</ele>
        <time>2019-01-19T11:51:45.000Z</time>
      </trkpt>
      <trkpt lat="45.61172" lon="6.65127">
        <ele>2138.6000976562</ele>
        <time>2019-01-19T11:51:49.000Z</time>
      </trkpt>
      <trkpt lat="45.61172" lon="6.65126">
        <ele>2139</ele>
        <time>2019-01-19T11:51:51.000Z</time>
      </trkpt>
      <trkpt lat="45.61171" lon="6.65124">
        <ele>2139.1999511719</ele>
        <time>2019-01-19T11:51:54.000Z</time>
      </trkpt>
      <trkpt lat="45.6117" lon="6.65123">
        <ele>2139.3999023438</ele>
        <time>2019-01-19T11:51:58.000Z</time>
      </trkpt>
      <trkpt lat="45.61169" lon="6.6512">
        <ele>2139.6000976562</ele>
        <time>2019-01-19T11:52:00.000Z</time>
      </trkpt>
      <trkpt lat="45.61168" lon="6.65118">
        <ele>2140</ele>
        <time>2019-01-19T11:52:02.000Z</time>
      </trkpt>
      <trkpt lat="45.61167" lon="6.65116">
        <ele>2140.1999511719</ele>
        <time>2019-01-19T11:52:05.000Z</time>
      </trkpt>
      <trkpt lat="45.61168" lon="6.65114">
        <ele>2140.8000488281</ele>
        <time>2019-01-19T11:52:09.000Z</time>
      </trkpt>
      <trkpt lat="45.61168" lon="6.65113">
        <ele>2141.3999023438</ele>
        <time>2019-01-19T11:52:13.000Z</time>
      </trkpt>
      <trkpt lat="45.6117" lon="6.65111">
        <ele>2142</ele>
        <time>2019-01-19T11:52:15.000Z</time>
      </trkpt>
      <trkpt lat="45.6117" lon="6.65109">
        <ele>2142.3999023438</ele>
        <time>2019-01-19T11:52:20.000Z</time>
      </trkpt>
      <trkpt lat="45.6117" lon="6.65108">
        <ele>2142.8000488281</ele>
        <time>2019-01-19T11:52:23.000Z</time>
      </trkpt>
      <trkpt lat="45.6117" lon="6.65107">
        <ele>2143</ele>
        <time>2019-01-19T11:52:25.000Z</time>
      </trkpt>
      <trkpt lat="45.6117" lon="6.65107">
        <ele>2143</ele>
        <time>2019-01-19T11:52:26.000Z</time>
      </trkpt>
      <trkpt lat="45.61171" lon="6.65105">
        <ele>2143.6000976562</ele>
        <time>2019-01-19T11:52:28.000Z</time>
      </trkpt>
      <trkpt lat="45.61172" lon="6.65104">
        <ele>2144</ele>
        <time>2019-01-19T11:52:30.000Z</time>
      </trkpt>
      <trkpt lat="45.61172" lon="6.65102">
        <ele>2144.8000488281</ele>
        <time>2019-01-19T11:52:34.000Z</time>
      </trkpt>
      <trkpt lat="45.61173" lon="6.651">
        <ele>2145.6000976562</ele>
        <time>2019-01-19T11:52:37.000Z</time>
      </trkpt>
      <trkpt lat="45.61173" lon="6.651">
        <ele>2145.6000976562</ele>
        <time>2019-01-19T11:52:38.000Z</time>
      </trkpt>
      <trkpt lat="45.61175" lon="6.65098">
        <ele>2146.6000976562</ele>
        <time>2019-01-19T11:52:40.000Z</time>
      </trkpt>
      <trkpt lat="45.61177" lon="6.65097">
        <ele>2147.6000976562</ele>
        <time>2019-01-19T11:52:42.000Z</time>
      </trkpt>
      <trkpt lat="45.61179" lon="6.65095">
        <ele>2148.6000976562</ele>
        <time>2019-01-19T11:52:44.000Z</time>
      </trkpt>
      <trkpt lat="45.6118" lon="6.65092">
        <ele>2150</ele>
        <time>2019-01-19T11:52:47.000Z</time>
      </trkpt>
      <trkpt lat="45.61183" lon="6.65089">
        <ele>2151.3999023438</ele>
        <time>2019-01-19T11:52:51.000Z</time>
      </trkpt>
      <trkpt lat="45.61184" lon="6.65089">
        <ele>2151.8000488281</ele>
        <time>2019-01-19T11:52:52.000Z</time>
      </trkpt>
      <trkpt lat="45.61186" lon="6.65087">
        <ele>2153</ele>
        <time>2019-01-19T11:52:55.000Z</time>
      </trkpt>
      <trkpt lat="45.61187" lon="6.65085">
        <ele>2153.6000976562</ele>
        <time>2019-01-19T11:52:57.000Z</time>
      </trkpt>
      <trkpt lat="45.61188" lon="6.65083">
        <ele>2154.3999023438</ele>
        <time>2019-01-19T11:53:00.000Z</time>
      </trkpt>
      <trkpt lat="45.61189" lon="6.6508">
        <ele>2155.8000488281</ele>
        <time>2019-01-19T11:53:04.000Z</time>
      </trkpt>
      <trkpt lat="45.61189" lon="6.6508">
        <ele>2156</ele>
        <time>2019-01-19T11:53:05.000Z</time>
      </trkpt>
      <trkpt lat="45.61191" lon="6.65078">
        <ele>2156.8000488281</ele>
        <time>2019-01-19T11:53:09.000Z</time>
      </trkpt>
      <trkpt lat="45.61192" lon="6.65077">
        <ele>2157.1999511719</ele>
        <time>2019-01-19T11:53:11.000Z</time>
      </trkpt>
      <trkpt lat="45.61193" lon="6.65077">
        <ele>2157.6000976562</ele>
        <time>2019-01-19T11:53:12.000Z</time>
      </trkpt>
      <trkpt lat="45.61193" lon="6.65076">
        <ele>2157.8000488281</ele>
        <time>2019-01-19T11:53:13.000Z</time>
      </trkpt>
      <trkpt lat="45.61194" lon="6.65074">
        <ele>2158.8000488281</ele>
        <time>2019-01-19T11:53:17.000Z</time>
      </trkpt>
      <trkpt lat="45.61194" lon="6.65074">
        <ele>2158.8000488281</ele>
        <time>2019-01-19T11:53:18.000Z</time>
      </trkpt>
      <trkpt lat="45.61194" lon="6.65072">
        <ele>2159.3999023438</ele>
        <time>2019-01-19T11:53:23.000Z</time>
      </trkpt>
      <trkpt lat="45.61194" lon="6.65072">
        <ele>2159.6000976562</ele>
        <time>2019-01-19T11:53:24.000Z</time>
      </trkpt>
      <trkpt lat="45.61194" lon="6.6507">
        <ele>2160</ele>
        <time>2019-01-19T11:53:27.000Z</time>
      </trkpt>
      <trkpt lat="45.61195" lon="6.65068">
        <ele>2161</ele>
        <time>2019-01-19T11:53:33.000Z</time>
      </trkpt>
      <trkpt lat="45.61196" lon="6.65067">
        <ele>2161.1999511719</ele>
        <time>2019-01-19T11:53:34.000Z</time>
      </trkpt>
      <trkpt lat="45.61196" lon="6.65066">
        <ele>2161.6000976562</ele>
        <time>2019-01-19T11:53:37.000Z</time>
      </trkpt>
      <trkpt lat="45.61198" lon="6.65065">
        <ele>2162.1999511719</ele>
        <time>2019-01-19T11:53:40.000Z</time>
      </trkpt>
      <trkpt lat="45.61198" lon="6.65065">
        <ele>2162.3999023438</ele>
        <time>2019-01-19T11:53:41.000Z</time>
      </trkpt>
      <trkpt lat="45.61198" lon="6.65064">
        <ele>2162.6000976562</ele>
        <time>2019-01-19T11:53:47.000Z</time>
      </trkpt>
      <trkpt lat="45.61197" lon="6.65061">
        <ele>2163</ele>
        <time>2019-01-19T11:53:50.000Z</time>
      </trkpt>
      <trkpt lat="45.61197" lon="6.6506">
        <ele>2163.3999023438</ele>
        <time>2019-01-19T11:53:51.000Z</time>
      </trkpt>
      <trkpt lat="45.61197" lon="6.65058">
        <ele>2164</ele>
        <time>2019-01-19T11:53:55.000Z</time>
      </trkpt>
      <trkpt lat="45.61198" lon="6.65058">
        <ele>2164.1999511719</ele>
        <time>2019-01-19T11:53:58.000Z</time>
      </trkpt>
      <trkpt lat="45.612" lon="6.65058">
        <ele>2164.8000488281</ele>
        <time>2019-01-19T11:54:03.000Z</time>
      </trkpt>
      <trkpt lat="45.61202" lon="6.65058">
        <ele>2165.1999511719</ele>
        <time>2019-01-19T11:54:06.000Z</time>
      </trkpt>
      <trkpt lat="45.61203" lon="6.65057">
        <ele>2165.6000976562</ele>
        <time>2019-01-19T11:54:09.000Z</time>
      </trkpt>
      <trkpt lat="45.61203" lon="6.65057">
        <ele>2165.6000976562</ele>
        <time>2019-01-19T11:54:11.000Z</time>
      </trkpt>
      <trkpt lat="45.61204" lon="6.65055">
        <ele>2166.8000488281</ele>
        <time>2019-01-19T11:54:17.000Z</time>
      </trkpt>
      <trkpt lat="45.61206" lon="6.65054">
        <ele>2168</ele>
        <time>2019-01-19T11:54:21.000Z</time>
      </trkpt>
      <trkpt lat="45.61207" lon="6.65053">
        <ele>2168.6000976562</ele>
        <time>2019-01-19T11:54:22.000Z</time>
      </trkpt>
      <trkpt lat="45.61208" lon="6.65052">
        <ele>2169.3999023438</ele>
        <time>2019-01-19T11:54:24.000Z</time>
      </trkpt>
      <trkpt lat="45.61208" lon="6.65051">
        <ele>2169.8000488281</ele>
        <time>2019-01-19T11:54:27.000Z</time>
      </trkpt>
      <trkpt lat="45.61208" lon="6.65051">
        <ele>2169.8000488281</ele>
        <time>2019-01-19T11:54:28.000Z</time>
      </trkpt>
      <trkpt lat="45.61207" lon="6.65049">
        <ele>2170.1999511719</ele>
        <time>2019-01-19T11:54:33.000Z</time>
      </trkpt>
      <trkpt lat="45.61207" lon="6.65048">
        <ele>2170.3999023438</ele>
        <time>2019-01-19T11:54:37.000Z</time>
      </trkpt>
      <trkpt lat="45.61206" lon="6.65046">
        <ele>2170.8000488281</ele>
        <time>2019-01-19T11:54:42.000Z</time>
      </trkpt>
      <trkpt lat="45.61205" lon="6.65043">
        <ele>2171.3999023438</ele>
        <time>2019-01-19T11:54:46.000Z</time>
      </trkpt>
      <trkpt lat="45.61204" lon="6.65041">
        <ele>2172.1999511719</ele>
        <time>2019-01-19T11:54:49.000Z</time>
      </trkpt>
      <trkpt lat="45.61206" lon="6.6504">
        <ele>2173.1999511719</ele>
        <time>2019-01-19T11:54:56.000Z</time>
      </trkpt>
      <trkpt lat="45.61209" lon="6.65037">
        <ele>2175.6000976562</ele>
        <time>2019-01-19T11:55:03.000Z</time>
      </trkpt>
      <trkpt lat="45.61209" lon="6.65037">
        <ele>2176</ele>
        <time>2019-01-19T11:55:04.000Z</time>
      </trkpt>
      <trkpt lat="45.61213" lon="6.65036">
        <ele>2178</ele>
        <time>2019-01-19T11:55:10.000Z</time>
      </trkpt>
      <trkpt lat="45.61216" lon="6.65035">
        <ele>2179.3999023438</ele>
        <time>2019-01-19T11:55:14.000Z</time>
      </trkpt>
      <trkpt lat="45.61216" lon="6.65035">
        <ele>2179.8000488281</ele>
        <time>2019-01-19T11:55:16.000Z</time>
      </trkpt>
      <trkpt lat="45.61218" lon="6.65034">
        <ele>2180.6000976562</ele>
        <time>2019-01-19T11:55:19.000Z</time>
      </trkpt>
      <trkpt lat="45.61218" lon="6.65034">
        <ele>2180.8000488281</ele>
        <time>2019-01-19T11:55:20.000Z</time>
      </trkpt>
      <trkpt lat="45.61219" lon="6.65033">
        <ele>2181.3999023438</ele>
        <time>2019-01-19T11:55:24.000Z</time>
      </trkpt>
      <trkpt lat="45.61219" lon="6.65033">
        <ele>2181.3999023438</ele>
        <time>2019-01-19T11:55:25.000Z</time>
      </trkpt>
      <trkpt lat="45.61216" lon="6.65028">
        <ele>2182.1999511719</ele>
        <time>2019-01-19T11:55:32.000Z</time>
      </trkpt>
      <trkpt lat="45.61216" lon="6.65028">
        <ele>2182.1999511719</ele>
        <time>2019-01-19T11:55:33.000Z</time>
      </trkpt>
      <trkpt lat="45.61215" lon="6.65026">
        <ele>2182.3999023438</ele>
        <time>2019-01-19T11:55:36.000Z</time>
      </trkpt>
      <trkpt lat="45.61214" lon="6.65022">
        <ele>2183.6000976562</ele>
        <time>2019-01-19T11:55:41.000Z</time>
      </trkpt>
      <trkpt lat="45.61215" lon="6.6502">
        <ele>2185</ele>
        <time>2019-01-19T11:55:44.000Z</time>
      </trkpt>
      <trkpt lat="45.61214" lon="6.65018">
        <ele>2185.3999023438</ele>
        <time>2019-01-19T11:55:47.000Z</time>
      </trkpt>
      <trkpt lat="45.61214" lon="6.65018">
        <ele>2185.6000976562</ele>
        <time>2019-01-19T11:55:48.000Z</time>
      </trkpt>
      <trkpt lat="45.61214" lon="6.65017">
        <ele>2185.8000488281</ele>
        <time>2019-01-19T11:55:50.000Z</time>
      </trkpt>
      <trkpt lat="45.61214" lon="6.65016">
        <ele>2186.1999511719</ele>
        <time>2019-01-19T11:55:51.000Z</time>
      </trkpt>
      <trkpt lat="45.61215" lon="6.65012">
        <ele>2188.1999511719</ele>
        <time>2019-01-19T11:55:57.000Z</time>
      </trkpt>
      <trkpt lat="45.61215" lon="6.65011">
        <ele>2188.3999023438</ele>
        <time>2019-01-19T11:55:58.000Z</time>
      </trkpt>
      <trkpt lat="45.61214" lon="6.65007">
        <ele>2189.3999023438</ele>
        <time>2019-01-19T11:56:01.000Z</time>
      </trkpt>
      <trkpt lat="45.61214" lon="6.65007">
        <ele>2189.6000976562</ele>
        <time>2019-01-19T11:56:03.000Z</time>
      </trkpt>
      <trkpt lat="45.61213" lon="6.65003">
        <ele>2190.8000488281</ele>
        <time>2019-01-19T11:56:06.000Z</time>
      </trkpt>
      <trkpt lat="45.61212" lon="6.65">
        <ele>2191.6000976562</ele>
        <time>2019-01-19T11:56:08.000Z</time>
      </trkpt>
      <trkpt lat="45.61212" lon="6.64994">
        <ele>2194.1999511719</ele>
        <time>2019-01-19T11:56:13.000Z</time>
      </trkpt>
      <trkpt lat="45.61212" lon="6.6499">
        <ele>2195.6000976562</ele>
        <time>2019-01-19T11:56:18.000Z</time>
      </trkpt>
      <trkpt lat="45.61212" lon="6.64989">
        <ele>2195.8000488281</ele>
        <time>2019-01-19T11:56:19.000Z</time>
      </trkpt>
      <trkpt lat="45.61211" lon="6.64987">
        <ele>2196.3999023438</ele>
        <time>2019-01-19T11:56:21.000Z</time>
      </trkpt>
      <trkpt lat="45.6121" lon="6.64986">
        <ele>2196.6000976562</ele>
        <time>2019-01-19T11:56:23.000Z</time>
      </trkpt>
      <trkpt lat="45.6121" lon="6.64984">
        <ele>2196.8000488281</ele>
        <time>2019-01-19T11:56:26.000Z</time>
      </trkpt>
      <trkpt lat="45.61209" lon="6.64983">
        <ele>2197</ele>
        <time>2019-01-19T11:56:28.000Z</time>
      </trkpt>
      <trkpt lat="45.61209" lon="6.64983">
        <ele>2197</ele>
        <time>2019-01-19T11:56:29.000Z</time>
      </trkpt>
      <trkpt lat="45.61209" lon="6.64981">
        <ele>2197.3999023438</ele>
        <time>2019-01-19T11:56:33.000Z</time>
      </trkpt>
      <trkpt lat="45.6121" lon="6.64981">
        <ele>2197.8000488281</ele>
        <time>2019-01-19T11:56:37.000Z</time>
      </trkpt>
      <trkpt lat="45.6121" lon="6.64981">
        <ele>2197.8000488281</ele>
        <time>2019-01-19T11:56:40.000Z</time>
      </trkpt>
      <trkpt lat="45.61212" lon="6.64981">
        <ele>2199</ele>
        <time>2019-01-19T11:56:43.000Z</time>
      </trkpt>
      <trkpt lat="45.61213" lon="6.6498">
        <ele>2199.3999023438</ele>
        <time>2019-01-19T11:56:45.000Z</time>
      </trkpt>
      <trkpt lat="45.61216" lon="6.64978">
        <ele>2201.1999511719</ele>
        <time>2019-01-19T11:56:52.000Z</time>
      </trkpt>
      <trkpt lat="45.61217" lon="6.64978">
        <ele>2201.3999023438</ele>
        <time>2019-01-19T11:56:53.000Z</time>
      </trkpt>
      <trkpt lat="45.61219" lon="6.64979">
        <ele>2201.8000488281</ele>
        <time>2019-01-19T11:56:58.000Z</time>
      </trkpt>
      <trkpt lat="45.61219" lon="6.64978">
        <ele>2202.1999511719</ele>
        <time>2019-01-19T11:57:05.000Z</time>
      </trkpt>
      <trkpt lat="45.61218" lon="6.64975">
        <ele>2202.6000976562</ele>
        <time>2019-01-19T11:57:10.000Z</time>
      </trkpt>
      <trkpt lat="45.61218" lon="6.64974">
        <ele>2202.8000488281</ele>
        <time>2019-01-19T11:57:11.000Z</time>
      </trkpt>
      <trkpt lat="45.61216" lon="6.64972">
        <ele>2203</ele>
        <time>2019-01-19T11:57:15.000Z</time>
      </trkpt>
      <trkpt lat="45.61216" lon="6.64971">
        <ele>2203.1999511719</ele>
        <time>2019-01-19T11:57:16.000Z</time>
      </trkpt>
      <trkpt lat="45.61215" lon="6.64969">
        <ele>2203.6000976562</ele>
        <time>2019-01-19T11:57:20.000Z</time>
      </trkpt>
      <trkpt lat="45.61216" lon="6.6497">
        <ele>2203.3999023438</ele>
        <time>2019-01-19T11:57:26.000Z</time>
      </trkpt>
      <trkpt lat="45.61216" lon="6.6497">
        <ele>2203.3999023438</ele>
        <time>2019-01-19T11:57:27.000Z</time>
      </trkpt>
      <trkpt lat="45.61219" lon="6.6497">
        <ele>2204.3999023438</ele>
        <time>2019-01-19T11:57:32.000Z</time>
      </trkpt>
      <trkpt lat="45.61221" lon="6.64969">
        <ele>2205</ele>
        <time>2019-01-19T11:57:35.000Z</time>
      </trkpt>
      <trkpt lat="45.61221" lon="6.64969">
        <ele>2205.1999511719</ele>
        <time>2019-01-19T11:57:37.000Z</time>
      </trkpt>
      <trkpt lat="45.61225" lon="6.6497">
        <ele>2205.6000976562</ele>
        <time>2019-01-19T11:57:42.000Z</time>
      </trkpt>
      <trkpt lat="45.61229" lon="6.64973">
        <ele>2205.6000976562</ele>
        <time>2019-01-19T11:57:47.000Z</time>
      </trkpt>
      <trkpt lat="45.61233" lon="6.64974">
        <ele>2206</ele>
        <time>2019-01-19T11:57:52.000Z</time>
      </trkpt>
      <trkpt lat="45.61236" lon="6.64975">
        <ele>2206.1999511719</ele>
        <time>2019-01-19T11:57:57.000Z</time>
      </trkpt>
      <trkpt lat="45.61237" lon="6.64976">
        <ele>2206.3999023438</ele>
        <time>2019-01-19T11:57:58.000Z</time>
      </trkpt>
      <trkpt lat="45.61239" lon="6.64976">
        <ele>2206.6000976562</ele>
        <time>2019-01-19T11:58:02.000Z</time>
      </trkpt>
      <trkpt lat="45.61241" lon="6.64977">
        <ele>2206.8000488281</ele>
        <time>2019-01-19T11:58:06.000Z</time>
      </trkpt>
      <trkpt lat="45.61243" lon="6.64978">
        <ele>2206.8000488281</ele>
        <time>2019-01-19T11:58:09.000Z</time>
      </trkpt>
      <trkpt lat="45.61246" lon="6.64978">
        <ele>2207.1999511719</ele>
        <time>2019-01-19T11:58:14.000Z</time>
      </trkpt>
      <trkpt lat="45.61248" lon="6.64978">
        <ele>2207.8000488281</ele>
        <time>2019-01-19T11:58:19.000Z</time>
      </trkpt>
      <trkpt lat="45.61251" lon="6.64977">
        <ele>2208.6000976562</ele>
        <time>2019-01-19T11:58:23.000Z</time>
      </trkpt>
      <trkpt lat="45.61253" lon="6.64976">
        <ele>2209.1999511719</ele>
        <time>2019-01-19T11:58:25.000Z</time>
      </trkpt>
      <trkpt lat="45.61253" lon="6.64976">
        <ele>2209.3999023438</ele>
        <time>2019-01-19T11:58:27.000Z</time>
      </trkpt>
      <trkpt lat="45.61254" lon="6.64975">
        <ele>2209.8000488281</ele>
        <time>2019-01-19T11:58:30.000Z</time>
      </trkpt>
      <trkpt lat="45.61256" lon="6.64975">
        <ele>2210.1999511719</ele>
        <time>2019-01-19T11:58:35.000Z</time>
      </trkpt>
      <trkpt lat="45.61259" lon="6.64975">
        <ele>2210.6000976562</ele>
        <time>2019-01-19T11:58:41.000Z</time>
      </trkpt>
      <trkpt lat="45.61261" lon="6.64975">
        <ele>2211</ele>
        <time>2019-01-19T11:58:45.000Z</time>
      </trkpt>
      <trkpt lat="45.61262" lon="6.64974">
        <ele>2211.8000488281</ele>
        <time>2019-01-19T11:58:47.000Z</time>
      </trkpt>
      <trkpt lat="45.61262" lon="6.64973">
        <ele>2212</ele>
        <time>2019-01-19T11:58:49.000Z</time>
      </trkpt>
      <trkpt lat="45.61262" lon="6.64971">
        <ele>2212.3999023438</ele>
        <time>2019-01-19T11:58:51.000Z</time>
      </trkpt>
      <trkpt lat="45.61262" lon="6.64971">
        <ele>2212.6000976562</ele>
        <time>2019-01-19T11:58:52.000Z</time>
      </trkpt>
      <trkpt lat="45.61262" lon="6.64969">
        <ele>2213</ele>
        <time>2019-01-19T11:58:55.000Z</time>
      </trkpt>
      <trkpt lat="45.61263" lon="6.64966">
        <ele>2213.8000488281</ele>
        <time>2019-01-19T11:58:59.000Z</time>
      </trkpt>
      <trkpt lat="45.61263" lon="6.64966">
        <ele>2214</ele>
        <time>2019-01-19T11:59:01.000Z</time>
      </trkpt>
      <trkpt lat="45.61263" lon="6.64966">
        <ele>2214</ele>
        <time>2019-01-19T11:59:04.000Z</time>
      </trkpt>
      <trkpt lat="45.61263" lon="6.64966">
        <ele>2214</ele>
        <time>2019-01-19T11:59:05.000Z</time>
      </trkpt>
      <trkpt lat="45.61263" lon="6.64966">
        <ele>2214</ele>
        <time>2019-01-19T11:59:09.000Z</time>
      </trkpt>
      <trkpt lat="45.61264" lon="6.64967">
        <ele>2214</ele>
        <time>2019-01-19T11:59:18.000Z</time>
      </trkpt>
      <trkpt lat="45.61269" lon="6.64967">
        <ele>2214.8000488281</ele>
        <time>2019-01-19T11:59:25.000Z</time>
      </trkpt>
      <trkpt lat="45.61272" lon="6.64966">
        <ele>2215.6000976562</ele>
        <time>2019-01-19T11:59:30.000Z</time>
      </trkpt>
      <trkpt lat="45.61273" lon="6.64965">
        <ele>2216.3999023438</ele>
        <time>2019-01-19T11:59:34.000Z</time>
      </trkpt>
      <trkpt lat="45.61274" lon="6.64961">
        <ele>2217.3999023438</ele>
        <time>2019-01-19T11:59:38.000Z</time>
      </trkpt>
      <trkpt lat="45.61276" lon="6.6496">
        <ele>2218.1999511719</ele>
        <time>2019-01-19T11:59:40.000Z</time>
      </trkpt>
      <trkpt lat="45.61276" lon="6.64959">
        <ele>2218.3999023438</ele>
        <time>2019-01-19T11:59:42.000Z</time>
      </trkpt>
      <trkpt lat="45.61277" lon="6.64958">
        <ele>2218.6000976562</ele>
        <time>2019-01-19T11:59:44.000Z</time>
      </trkpt>
      <trkpt lat="45.61278" lon="6.64957">
        <ele>2219</ele>
        <time>2019-01-19T11:59:45.000Z</time>
      </trkpt>
      <trkpt lat="45.61278" lon="6.64956">
        <ele>2219.1999511719</ele>
        <time>2019-01-19T11:59:47.000Z</time>
      </trkpt>
      <trkpt lat="45.61279" lon="6.64955">
        <ele>2219.3999023438</ele>
        <time>2019-01-19T11:59:48.000Z</time>
      </trkpt>
      <trkpt lat="45.61282" lon="6.64952">
        <ele>2220.1999511719</ele>
        <time>2019-01-19T11:59:51.000Z</time>
      </trkpt>
      <trkpt lat="45.61283" lon="6.64951">
        <ele>2220.6000976562</ele>
        <time>2019-01-19T11:59:52.000Z</time>
      </trkpt>
      <trkpt lat="45.61283" lon="6.6495">
        <ele>2220.8000488281</ele>
        <time>2019-01-19T11:59:53.000Z</time>
      </trkpt>
      <trkpt lat="45.61284" lon="6.64946">
        <ele>2221.8000488281</ele>
        <time>2019-01-19T11:59:57.000Z</time>
      </trkpt>
      <trkpt lat="45.61284" lon="6.64944">
        <ele>2222.1999511719</ele>
        <time>2019-01-19T11:59:59.000Z</time>
      </trkpt>
      <trkpt lat="45.61285" lon="6.64942">
        <ele>2222.6000976562</ele>
        <time>2019-01-19T12:00:01.000Z</time>
      </trkpt>
      <trkpt lat="45.61285" lon="6.6494">
        <ele>2223</ele>
        <time>2019-01-19T12:00:04.000Z</time>
      </trkpt>
      <trkpt lat="45.61286" lon="6.64939">
        <ele>2223.3999023438</ele>
        <time>2019-01-19T12:00:08.000Z</time>
      </trkpt>
      <trkpt lat="45.61288" lon="6.64936">
        <ele>2224</ele>
        <time>2019-01-19T12:00:11.000Z</time>
      </trkpt>
      <trkpt lat="45.61289" lon="6.64934">
        <ele>2224.6000976562</ele>
        <time>2019-01-19T12:00:15.000Z</time>
      </trkpt>
      <trkpt lat="45.6129" lon="6.64934">
        <ele>2224.6000976562</ele>
        <time>2019-01-19T12:00:16.000Z</time>
      </trkpt>
      <trkpt lat="45.61291" lon="6.64932">
        <ele>2225.1999511719</ele>
        <time>2019-01-19T12:00:19.000Z</time>
      </trkpt>
      <trkpt lat="45.61292" lon="6.64931">
        <ele>2225.3999023438</ele>
        <time>2019-01-19T12:00:21.000Z</time>
      </trkpt>
      <trkpt lat="45.61292" lon="6.64931">
        <ele>2225.3999023438</ele>
        <time>2019-01-19T12:00:26.000Z</time>
      </trkpt>
      <trkpt lat="45.61292" lon="6.64931">
        <ele>2225.3999023438</ele>
        <time>2019-01-19T12:00:35.000Z</time>
      </trkpt>
      <trkpt lat="45.61292" lon="6.64931">
        <ele>2225.3999023438</ele>
        <time>2019-01-19T12:00:44.000Z</time>
      </trkpt>
      <trkpt lat="45.61292" lon="6.64931">
        <ele>2225.3999023438</ele>
        <time>2019-01-19T12:00:48.000Z</time>
      </trkpt>
      <trkpt lat="45.61292" lon="6.64931">
        <ele>2225.3999023438</ele>
        <time>2019-01-19T12:01:04.000Z</time>
      </trkpt>
      <trkpt lat="45.61292" lon="6.64931">
        <ele>2225.3999023438</ele>
        <time>2019-01-19T12:01:20.000Z</time>
      </trkpt>
      <trkpt lat="45.61292" lon="6.64931">
        <ele>2225.3999023438</ele>
        <time>2019-01-19T12:01:37.000Z</time>
      </trkpt>
      <trkpt lat="45.61292" lon="6.64931">
        <ele>2225.3999023438</ele>
        <time>2019-01-19T12:01:55.000Z</time>
      </trkpt>
      <trkpt lat="45.61292" lon="6.64931">
        <ele>2225.3999023438</ele>
        <time>2019-01-19T12:02:04.000Z</time>
      </trkpt>
      <trkpt lat="45.61292" lon="6.64931">
        <ele>2225.3999023438</ele>
        <time>2019-01-19T12:02:23.000Z</time>
      </trkpt>
      <trkpt lat="45.61292" lon="6.64931">
        <ele>2225.3999023438</ele>
        <time>2019-01-19T12:02:40.000Z</time>
      </trkpt>
      <trkpt lat="45.61292" lon="6.64932">
        <ele>2225.3999023438</ele>
        <time>2019-01-19T12:02:51.000Z</time>
      </trkpt>
      <trkpt lat="45.61292" lon="6.64931">
        <ele>2225.3999023438</ele>
        <time>2019-01-19T12:02:56.000Z</time>
      </trkpt>
      <trkpt lat="45.61292" lon="6.64931">
        <ele>2225.3999023438</ele>
        <time>2019-01-19T12:03:09.000Z</time>
      </trkpt>
      <trkpt lat="45.61292" lon="6.64931">
        <ele>2225.3999023438</ele>
        <time>2019-01-19T12:03:24.000Z</time>
      </trkpt>
      <trkpt lat="45.61293" lon="6.64932">
        <ele>2225.3999023438</ele>
        <time>2019-01-19T12:03:35.000Z</time>
      </trkpt>
      <trkpt lat="45.61293" lon="6.64932">
        <ele>2225.3999023438</ele>
        <time>2019-01-19T12:03:56.000Z</time>
      </trkpt>
      <trkpt lat="45.61293" lon="6.64931">
        <ele>2225.6000976562</ele>
        <time>2019-01-19T12:04:15.000Z</time>
      </trkpt>
      <trkpt lat="45.61293" lon="6.64931">
        <ele>2225.6000976562</ele>
        <time>2019-01-19T12:04:41.000Z</time>
      </trkpt>
      <trkpt lat="45.61293" lon="6.64931">
        <ele>2225.6000976562</ele>
        <time>2019-01-19T12:05:00.000Z</time>
      </trkpt>
      <trkpt lat="45.61293" lon="6.64931">
        <ele>2225.6000976562</ele>
        <time>2019-01-19T12:05:20.000Z</time>
      </trkpt>
      <trkpt lat="45.61293" lon="6.64931">
        <ele>2225.6000976562</ele>
        <time>2019-01-19T12:05:34.000Z</time>
      </trkpt>
      <trkpt lat="45.61293" lon="6.64931">
        <ele>2225.6000976562</ele>
        <time>2019-01-19T12:05:52.000Z</time>
      </trkpt>
      <trkpt lat="45.61293" lon="6.64931">
        <ele>2225.6000976562</ele>
        <time>2019-01-19T12:06:09.000Z</time>
      </trkpt>
      <trkpt lat="45.61295" lon="6.64929">
        <ele>2226</ele>
        <time>2019-01-19T12:06:16.000Z</time>
      </trkpt>
      <trkpt lat="45.61295" lon="6.64928">
        <ele>2226.3999023438</ele>
        <time>2019-01-19T12:06:22.000Z</time>
      </trkpt>
      <trkpt lat="45.61298" lon="6.64926">
        <ele>2227.1999511719</ele>
        <time>2019-01-19T12:06:28.000Z</time>
      </trkpt>
      <trkpt lat="45.61298" lon="6.64926">
        <ele>2227.1999511719</ele>
        <time>2019-01-19T12:06:39.000Z</time>
      </trkpt>
      <trkpt lat="45.61298" lon="6.64926">
        <ele>2227.1999511719</ele>
        <time>2019-01-19T12:06:45.000Z</time>
      </trkpt>
      <trkpt lat="45.61299" lon="6.64926">
        <ele>2227.1999511719</ele>
        <time>2019-01-19T12:06:52.000Z</time>
      </trkpt>
      <trkpt lat="45.61302" lon="6.64923">
        <ele>2228</ele>
        <time>2019-01-19T12:06:57.000Z</time>
      </trkpt>
      <trkpt lat="45.61303" lon="6.6492">
        <ele>2228.6000976562</ele>
        <time>2019-01-19T12:07:02.000Z</time>
      </trkpt>
      <trkpt lat="45.61304" lon="6.6492">
        <ele>2228.8000488281</ele>
        <time>2019-01-19T12:07:03.000Z</time>
      </trkpt>
      <trkpt lat="45.61305" lon="6.64918">
        <ele>2229</ele>
        <time>2019-01-19T12:07:06.000Z</time>
      </trkpt>
      <trkpt lat="45.61305" lon="6.64914">
        <ele>2229.8000488281</ele>
        <time>2019-01-19T12:07:11.000Z</time>
      </trkpt>
      <trkpt lat="45.61305" lon="6.64914">
        <ele>2230</ele>
        <time>2019-01-19T12:07:17.000Z</time>
      </trkpt>
      <trkpt lat="45.61305" lon="6.64913">
        <ele>2230.1999511719</ele>
        <time>2019-01-19T12:07:18.000Z</time>
      </trkpt>
      <trkpt lat="45.61305" lon="6.64912">
        <ele>2230.3999023438</ele>
        <time>2019-01-19T12:07:20.000Z</time>
      </trkpt>
      <trkpt lat="45.61304" lon="6.6491">
        <ele>2230.6000976562</ele>
        <time>2019-01-19T12:07:22.000Z</time>
      </trkpt>
      <trkpt lat="45.61305" lon="6.64908">
        <ele>2231</ele>
        <time>2019-01-19T12:07:26.000Z</time>
      </trkpt>
      <trkpt lat="45.61307" lon="6.64905">
        <ele>2231.3999023438</ele>
        <time>2019-01-19T12:07:30.000Z</time>
      </trkpt>
      <trkpt lat="45.61308" lon="6.64904">
        <ele>2231.3999023438</ele>
        <time>2019-01-19T12:07:31.000Z</time>
      </trkpt>
      <trkpt lat="45.61309" lon="6.64904">
        <ele>2231.3999023438</ele>
        <time>2019-01-19T12:07:35.000Z</time>
      </trkpt>
      <trkpt lat="45.61309" lon="6.64904">
        <ele>2231.3999023438</ele>
        <time>2019-01-19T12:07:37.000Z</time>
      </trkpt>
      <trkpt lat="45.61311" lon="6.64901">
        <ele>2231.6000976562</ele>
        <time>2019-01-19T12:07:48.000Z</time>
      </trkpt>
      <trkpt lat="45.61311" lon="6.64899">
        <ele>2231.6000976562</ele>
        <time>2019-01-19T12:07:54.000Z</time>
      </trkpt>
      <trkpt lat="45.61311" lon="6.64899">
        <ele>2231.6000976562</ele>
        <time>2019-01-19T12:08:05.000Z</time>
      </trkpt>
      <trkpt lat="45.61311" lon="6.64899">
        <ele>2231.6000976562</ele>
        <time>2019-01-19T12:08:17.000Z</time>
      </trkpt>
      <trkpt lat="45.61311" lon="6.64899">
        <ele>2231.6000976562</ele>
        <time>2019-01-19T12:08:27.000Z</time>
      </trkpt>
      <trkpt lat="45.61311" lon="6.64899">
        <ele>2231.6000976562</ele>
        <time>2019-01-19T12:08:41.000Z</time>
      </trkpt>
      <trkpt lat="45.61311" lon="6.64899">
        <ele>2231.6000976562</ele>
        <time>2019-01-19T12:08:51.000Z</time>
      </trkpt>
      <trkpt lat="45.61311" lon="6.64899">
        <ele>2231.6000976562</ele>
        <time>2019-01-19T12:09:05.000Z</time>
      </trkpt>
      <trkpt lat="45.61311" lon="6.64899">
        <ele>2231.6000976562</ele>
        <time>2019-01-19T12:09:06.000Z</time>
      </trkpt>
      <trkpt lat="45.61311" lon="6.64898">
        <ele>2231.6000976562</ele>
        <time>2019-01-19T12:09:16.000Z</time>
      </trkpt>
      <trkpt lat="45.61311" lon="6.64898">
        <ele>2231.6000976562</ele>
        <time>2019-01-19T12:09:20.000Z</time>
      </trkpt>
      <trkpt lat="45.61311" lon="6.64898">
        <ele>2231.6000976562</ele>
        <time>2019-01-19T12:09:22.000Z</time>
      </trkpt>
      <trkpt lat="45.61311" lon="6.64898">
        <ele>2231.6000976562</ele>
        <time>2019-01-19T12:09:30.000Z</time>
      </trkpt>
      <trkpt lat="45.61311" lon="6.64898">
        <ele>2231.6000976562</ele>
        <time>2019-01-19T12:09:38.000Z</time>
      </trkpt>
      <trkpt lat="45.61311" lon="6.64898">
        <ele>2231.6000976562</ele>
        <time>2019-01-19T12:09:52.000Z</time>
      </trkpt>
      <trkpt lat="45.61311" lon="6.64898">
        <ele>2231.6000976562</ele>
        <time>2019-01-19T12:10:05.000Z</time>
      </trkpt>
      <trkpt lat="45.61311" lon="6.64898">
        <ele>2231.6000976562</ele>
        <time>2019-01-19T12:10:21.000Z</time>
      </trkpt>
      <trkpt lat="45.61311" lon="6.64899">
        <ele>2231.6000976562</ele>
        <time>2019-01-19T12:10:37.000Z</time>
      </trkpt>
      <trkpt lat="45.61311" lon="6.64899">
        <ele>2231.6000976562</ele>
        <time>2019-01-19T12:10:46.000Z</time>
      </trkpt>
      <trkpt lat="45.61311" lon="6.64899">
        <ele>2231.6000976562</ele>
        <time>2019-01-19T12:11:01.000Z</time>
      </trkpt>
      <trkpt lat="45.61311" lon="6.64899">
        <ele>2231.6000976562</ele>
        <time>2019-01-19T12:11:16.000Z</time>
      </trkpt>
      <trkpt lat="45.61311" lon="6.64899">
        <ele>2231.6000976562</ele>
        <time>2019-01-19T12:11:34.000Z</time>
      </trkpt>
      <trkpt lat="45.61312" lon="6.64896">
        <ele>2231.8000488281</ele>
        <time>2019-01-19T12:11:45.000Z</time>
      </trkpt>
      <trkpt lat="45.61316" lon="6.64892">
        <ele>2231.8000488281</ele>
        <time>2019-01-19T12:11:49.000Z</time>
      </trkpt>
      <trkpt lat="45.6132" lon="6.64889">
        <ele>2231.8000488281</ele>
        <time>2019-01-19T12:11:53.000Z</time>
      </trkpt>
      <trkpt lat="45.61323" lon="6.64884">
        <ele>2231.8000488281</ele>
        <time>2019-01-19T12:11:58.000Z</time>
      </trkpt>
      <trkpt lat="45.61327" lon="6.64876">
        <ele>2232</ele>
        <time>2019-01-19T12:12:03.000Z</time>
      </trkpt>
      <trkpt lat="45.6133" lon="6.64874">
        <ele>2232</ele>
        <time>2019-01-19T12:12:05.000Z</time>
      </trkpt>
      <trkpt lat="45.61332" lon="6.64871">
        <ele>2232.1999511719</ele>
        <time>2019-01-19T12:12:08.000Z</time>
      </trkpt>
      <trkpt lat="45.61335" lon="6.64868">
        <ele>2232</ele>
        <time>2019-01-19T12:12:13.000Z</time>
      </trkpt>
      <trkpt lat="45.61336" lon="6.64863">
        <ele>2232.3999023438</ele>
        <time>2019-01-19T12:12:18.000Z</time>
      </trkpt>
      <trkpt lat="45.61336" lon="6.64861">
        <ele>2232.3999023438</ele>
        <time>2019-01-19T12:12:19.000Z</time>
      </trkpt>
      <trkpt lat="45.61337" lon="6.64855">
        <ele>2232.8000488281</ele>
        <time>2019-01-19T12:12:24.000Z</time>
      </trkpt>
      <trkpt lat="45.61337" lon="6.64854">
        <ele>2232.8000488281</ele>
        <time>2019-01-19T12:12:25.000Z</time>
      </trkpt>
      <trkpt lat="45.61335" lon="6.6485">
        <ele>2233.3999023438</ele>
        <time>2019-01-19T12:12:30.000Z</time>
      </trkpt>
      <trkpt lat="45.61335" lon="6.6485">
        <ele>2233.3999023438</ele>
        <time>2019-01-19T12:12:31.000Z</time>
      </trkpt>
      <trkpt lat="45.61335" lon="6.64846">
        <ele>2234.1999511719</ele>
        <time>2019-01-19T12:12:38.000Z</time>
      </trkpt>
      <trkpt lat="45.61336" lon="6.64838">
        <ele>2235.8000488281</ele>
        <time>2019-01-19T12:12:43.000Z</time>
      </trkpt>
      <trkpt lat="45.61336" lon="6.64836">
        <ele>2236.1999511719</ele>
        <time>2019-01-19T12:12:44.000Z</time>
      </trkpt>
      <trkpt lat="45.61336" lon="6.64829">
        <ele>2237.3999023438</ele>
        <time>2019-01-19T12:12:49.000Z</time>
      </trkpt>
      <trkpt lat="45.61338" lon="6.64822">
        <ele>2239.1999511719</ele>
        <time>2019-01-19T12:12:53.000Z</time>
      </trkpt>
      <trkpt lat="45.61341" lon="6.64814">
        <ele>2240.3999023438</ele>
        <time>2019-01-19T12:12:58.000Z</time>
      </trkpt>
      <trkpt lat="45.61343" lon="6.64806">
        <ele>2241.6000976562</ele>
        <time>2019-01-19T12:13:02.000Z</time>
      </trkpt>
      <trkpt lat="45.61346" lon="6.648">
        <ele>2242.3999023438</ele>
        <time>2019-01-19T12:13:06.000Z</time>
      </trkpt>
      <trkpt lat="45.6135" lon="6.64799">
        <ele>2243</ele>
        <time>2019-01-19T12:13:10.000Z</time>
      </trkpt>
      <trkpt lat="45.61351" lon="6.64798">
        <ele>2243</ele>
        <time>2019-01-19T12:13:11.000Z</time>
      </trkpt>
      <trkpt lat="45.61353" lon="6.64795">
        <ele>2243.6000976562</ele>
        <time>2019-01-19T12:13:14.000Z</time>
      </trkpt>
      <trkpt lat="45.61354" lon="6.64793">
        <ele>2244</ele>
        <time>2019-01-19T12:13:15.000Z</time>
      </trkpt>
      <trkpt lat="45.61356" lon="6.64791">
        <ele>2244.1999511719</ele>
        <time>2019-01-19T12:13:17.000Z</time>
      </trkpt>
      <trkpt lat="45.61357" lon="6.64791">
        <ele>2244.3999023438</ele>
        <time>2019-01-19T12:13:20.000Z</time>
      </trkpt>
      <trkpt lat="45.61356" lon="6.64792">
        <ele>2244.1999511719</ele>
        <time>2019-01-19T12:13:21.000Z</time>
      </trkpt>
      <trkpt lat="45.61357" lon="6.64788">
        <ele>2245</ele>
        <time>2019-01-19T12:13:27.000Z</time>
      </trkpt>
      <trkpt lat="45.61358" lon="6.64785">
        <ele>2245.3999023438</ele>
        <time>2019-01-19T12:13:29.000Z</time>
      </trkpt>
      <trkpt lat="45.61359" lon="6.64781">
        <ele>2246.1999511719</ele>
        <time>2019-01-19T12:13:32.000Z</time>
      </trkpt>
      <trkpt lat="45.6136" lon="6.64778">
        <ele>2246.8000488281</ele>
        <time>2019-01-19T12:13:35.000Z</time>
      </trkpt>
      <trkpt lat="45.6136" lon="6.64777">
        <ele>2246.8000488281</ele>
        <time>2019-01-19T12:13:36.000Z</time>
      </trkpt>
      <trkpt lat="45.61361" lon="6.64772">
        <ele>2247.6000976562</ele>
        <time>2019-01-19T12:13:41.000Z</time>
      </trkpt>
      <trkpt lat="45.61363" lon="6.64766">
        <ele>2249</ele>
        <time>2019-01-19T12:13:45.000Z</time>
      </trkpt>
      <trkpt lat="45.61366" lon="6.64759">
        <ele>2250.1999511719</ele>
        <time>2019-01-19T12:13:50.000Z</time>
      </trkpt>
      <trkpt lat="45.61369" lon="6.64757">
        <ele>2251</ele>
        <time>2019-01-19T12:13:54.000Z</time>
      </trkpt>
      <trkpt lat="45.61369" lon="6.64756">
        <ele>2251.1999511719</ele>
        <time>2019-01-19T12:13:56.000Z</time>
      </trkpt>
      <trkpt lat="45.61371" lon="6.64755">
        <ele>2251.3999023438</ele>
        <time>2019-01-19T12:13:58.000Z</time>
      </trkpt>
      <trkpt lat="45.61372" lon="6.64752">
        <ele>2252</ele>
        <time>2019-01-19T12:14:00.000Z</time>
      </trkpt>
      <trkpt lat="45.61375" lon="6.64749">
        <ele>2252.8000488281</ele>
        <time>2019-01-19T12:14:04.000Z</time>
      </trkpt>
      <trkpt lat="45.61379" lon="6.64746">
        <ele>2253.8000488281</ele>
        <time>2019-01-19T12:14:09.000Z</time>
      </trkpt>
      <trkpt lat="45.61383" lon="6.64744">
        <ele>2254.3999023438</ele>
        <time>2019-01-19T12:14:15.000Z</time>
      </trkpt>
      <trkpt lat="45.61385" lon="6.64744">
        <ele>2254.6000976562</ele>
        <time>2019-01-19T12:14:19.000Z</time>
      </trkpt>
      <trkpt lat="45.61386" lon="6.64742">
        <ele>2255.1999511719</ele>
        <time>2019-01-19T12:14:22.000Z</time>
      </trkpt>
      <trkpt lat="45.61388" lon="6.64741">
        <ele>2255.8000488281</ele>
        <time>2019-01-19T12:14:24.000Z</time>
      </trkpt>
      <trkpt lat="45.6139" lon="6.6474">
        <ele>2256.3999023438</ele>
        <time>2019-01-19T12:14:27.000Z</time>
      </trkpt>
      <trkpt lat="45.6139" lon="6.64737">
        <ele>2257</ele>
        <time>2019-01-19T12:14:30.000Z</time>
      </trkpt>
      <trkpt lat="45.61391" lon="6.64736">
        <ele>2257.3999023438</ele>
        <time>2019-01-19T12:14:32.000Z</time>
      </trkpt>
      <trkpt lat="45.61397" lon="6.64734">
        <ele>2258.8000488281</ele>
        <time>2019-01-19T12:14:38.000Z</time>
      </trkpt>
      <trkpt lat="45.61397" lon="6.64733">
        <ele>2259</ele>
        <time>2019-01-19T12:14:40.000Z</time>
      </trkpt>
      <trkpt lat="45.61399" lon="6.64733">
        <ele>2259.3999023438</ele>
        <time>2019-01-19T12:14:41.000Z</time>
      </trkpt>
      <trkpt lat="45.61404" lon="6.64734">
        <ele>2260.1999511719</ele>
        <time>2019-01-19T12:14:48.000Z</time>
      </trkpt>
      <trkpt lat="45.61408" lon="6.64735">
        <ele>2261</ele>
        <time>2019-01-19T12:14:54.000Z</time>
      </trkpt>
      <trkpt lat="45.6141" lon="6.64735">
        <ele>2261.3999023438</ele>
        <time>2019-01-19T12:14:56.000Z</time>
      </trkpt>
      <trkpt lat="45.61416" lon="6.64732">
        <ele>2263.1999511719</ele>
        <time>2019-01-19T12:15:03.000Z</time>
      </trkpt>
      <trkpt lat="45.61419" lon="6.64728">
        <ele>2264.3999023438</ele>
        <time>2019-01-19T12:15:08.000Z</time>
      </trkpt>
      <trkpt lat="45.61421" lon="6.64727">
        <ele>2265</ele>
        <time>2019-01-19T12:15:12.000Z</time>
      </trkpt>
      <trkpt lat="45.61421" lon="6.64727">
        <ele>2265</ele>
        <time>2019-01-19T12:15:13.000Z</time>
      </trkpt>
      <trkpt lat="45.61424" lon="6.64721">
        <ele>2266.3999023438</ele>
        <time>2019-01-19T12:15:18.000Z</time>
      </trkpt>
      <trkpt lat="45.61425" lon="6.64715">
        <ele>2267.6000976562</ele>
        <time>2019-01-19T12:15:23.000Z</time>
      </trkpt>
      <trkpt lat="45.61427" lon="6.64709">
        <ele>2268.8000488281</ele>
        <time>2019-01-19T12:15:28.000Z</time>
      </trkpt>
      <trkpt lat="45.6143" lon="6.64704">
        <ele>2270.1999511719</ele>
        <time>2019-01-19T12:15:33.000Z</time>
      </trkpt>
      <trkpt lat="45.61432" lon="6.64698">
        <ele>2271.6000976562</ele>
        <time>2019-01-19T12:15:38.000Z</time>
      </trkpt>
      <trkpt lat="45.61435" lon="6.64694">
        <ele>2273</ele>
        <time>2019-01-19T12:15:42.000Z</time>
      </trkpt>
      <trkpt lat="45.61437" lon="6.64693">
        <ele>2273.6000976562</ele>
        <time>2019-01-19T12:15:44.000Z</time>
      </trkpt>
      <trkpt lat="45.61439" lon="6.64692">
        <ele>2274.1999511719</ele>
        <time>2019-01-19T12:15:47.000Z</time>
      </trkpt>
      <trkpt lat="45.61441" lon="6.64692">
        <ele>2274.6000976562</ele>
        <time>2019-01-19T12:15:50.000Z</time>
      </trkpt>
      <trkpt lat="45.61445" lon="6.64696">
        <ele>2274.8000488281</ele>
        <time>2019-01-19T12:15:55.000Z</time>
      </trkpt>
      <trkpt lat="45.61445" lon="6.64698">
        <ele>2274.8000488281</ele>
        <time>2019-01-19T12:15:56.000Z</time>
      </trkpt>
      <trkpt lat="45.61448" lon="6.64702">
        <ele>2274.8000488281</ele>
        <time>2019-01-19T12:16:00.000Z</time>
      </trkpt>
      <trkpt lat="45.6145" lon="6.64703">
        <ele>2275</ele>
        <time>2019-01-19T12:16:03.000Z</time>
      </trkpt>
      <trkpt lat="45.61451" lon="6.64703">
        <ele>2275.1999511719</ele>
        <time>2019-01-19T12:16:06.000Z</time>
      </trkpt>
      <trkpt lat="45.61453" lon="6.64704">
        <ele>2275.8000488281</ele>
        <time>2019-01-19T12:16:11.000Z</time>
      </trkpt>
      <trkpt lat="45.61455" lon="6.64704">
        <ele>2276</ele>
        <time>2019-01-19T12:16:13.000Z</time>
      </trkpt>
      <trkpt lat="45.61458" lon="6.64702">
        <ele>2277.1999511719</ele>
        <time>2019-01-19T12:16:19.000Z</time>
      </trkpt>
      <trkpt lat="45.61461" lon="6.64702">
        <ele>2278</ele>
        <time>2019-01-19T12:16:25.000Z</time>
      </trkpt>
      <trkpt lat="45.61462" lon="6.64702">
        <ele>2278.1999511719</ele>
        <time>2019-01-19T12:16:26.000Z</time>
      </trkpt>
      <trkpt lat="45.61465" lon="6.647">
        <ele>2279</ele>
        <time>2019-01-19T12:16:31.000Z</time>
      </trkpt>
      <trkpt lat="45.61467" lon="6.64699">
        <ele>2279.8000488281</ele>
        <time>2019-01-19T12:16:35.000Z</time>
      </trkpt>
      <trkpt lat="45.61469" lon="6.64699">
        <ele>2280.3999023438</ele>
        <time>2019-01-19T12:16:38.000Z</time>
      </trkpt>
      <trkpt lat="45.61472" lon="6.64698">
        <ele>2281.3999023438</ele>
        <time>2019-01-19T12:16:43.000Z</time>
      </trkpt>
      <trkpt lat="45.61472" lon="6.64698">
        <ele>2281.6000976562</ele>
        <time>2019-01-19T12:16:44.000Z</time>
      </trkpt>
      <trkpt lat="45.61476" lon="6.64698">
        <ele>2282.8000488281</ele>
        <time>2019-01-19T12:16:50.000Z</time>
      </trkpt>
      <trkpt lat="45.61477" lon="6.64699">
        <ele>2283.1999511719</ele>
        <time>2019-01-19T12:16:52.000Z</time>
      </trkpt>
      <trkpt lat="45.61481" lon="6.64699">
        <ele>2284.3999023438</ele>
        <time>2019-01-19T12:16:59.000Z</time>
      </trkpt>
      <trkpt lat="45.61484" lon="6.64699">
        <ele>2285.6000976562</ele>
        <time>2019-01-19T12:17:04.000Z</time>
      </trkpt>
      <trkpt lat="45.61485" lon="6.64699">
        <ele>2285.8000488281</ele>
        <time>2019-01-19T12:17:05.000Z</time>
      </trkpt>
      <trkpt lat="45.61489" lon="6.64699">
        <ele>2287.3999023438</ele>
        <time>2019-01-19T12:17:12.000Z</time>
      </trkpt>
      <trkpt lat="45.61492" lon="6.64698">
        <ele>2288.3999023438</ele>
        <time>2019-01-19T12:17:14.000Z</time>
      </trkpt>
      <trkpt lat="45.61494" lon="6.64697">
        <ele>2289.3999023438</ele>
        <time>2019-01-19T12:17:18.000Z</time>
      </trkpt>
      <trkpt lat="45.61499" lon="6.64698">
        <ele>2291</ele>
        <time>2019-01-19T12:17:24.000Z</time>
      </trkpt>
      <trkpt lat="45.61502" lon="6.64699">
        <ele>2291.6000976562</ele>
        <time>2019-01-19T12:17:27.000Z</time>
      </trkpt>
      <trkpt lat="45.61504" lon="6.64702">
        <ele>2292</ele>
        <time>2019-01-19T12:17:30.000Z</time>
      </trkpt>
      <trkpt lat="45.61505" lon="6.64703">
        <ele>2292</ele>
        <time>2019-01-19T12:17:32.000Z</time>
      </trkpt>
      <trkpt lat="45.61506" lon="6.64706">
        <ele>2292.1999511719</ele>
        <time>2019-01-19T12:17:36.000Z</time>
      </trkpt>
      <trkpt lat="45.61508" lon="6.64707">
        <ele>2292.3999023438</ele>
        <time>2019-01-19T12:17:38.000Z</time>
      </trkpt>
      <trkpt lat="45.6151" lon="6.64707">
        <ele>2293</ele>
        <time>2019-01-19T12:17:42.000Z</time>
      </trkpt>
      <trkpt lat="45.61512" lon="6.64709">
        <ele>2293.6000976562</ele>
        <time>2019-01-19T12:17:45.000Z</time>
      </trkpt>
      <trkpt lat="45.61516" lon="6.6471">
        <ele>2294.6000976562</ele>
        <time>2019-01-19T12:17:50.000Z</time>
      </trkpt>
      <trkpt lat="45.61518" lon="6.64712">
        <ele>2295.1999511719</ele>
        <time>2019-01-19T12:17:55.000Z</time>
      </trkpt>
      <trkpt lat="45.61519" lon="6.64713">
        <ele>2295.1999511719</ele>
        <time>2019-01-19T12:17:56.000Z</time>
      </trkpt>
      <trkpt lat="45.61521" lon="6.64715">
        <ele>2295.3999023438</ele>
        <time>2019-01-19T12:18:00.000Z</time>
      </trkpt>
      <trkpt lat="45.61521" lon="6.64716">
        <ele>2295.6000976562</ele>
        <time>2019-01-19T12:18:01.000Z</time>
      </trkpt>
      <trkpt lat="45.61524" lon="6.64717">
        <ele>2296.1999511719</ele>
        <time>2019-01-19T12:18:07.000Z</time>
      </trkpt>
      <trkpt lat="45.61527" lon="6.64721">
        <ele>2296.8000488281</ele>
        <time>2019-01-19T12:18:14.000Z</time>
      </trkpt>
      <trkpt lat="45.61527" lon="6.64721">
        <ele>2296.8000488281</ele>
        <time>2019-01-19T12:18:22.000Z</time>
      </trkpt>
      <trkpt lat="45.61527" lon="6.64721">
        <ele>2296.8000488281</ele>
        <time>2019-01-19T12:18:26.000Z</time>
      </trkpt>
      <trkpt lat="45.61529" lon="6.64723">
        <ele>2297</ele>
        <time>2019-01-19T12:18:34.000Z</time>
      </trkpt>
      <trkpt lat="45.6153" lon="6.64725">
        <ele>2297.1999511719</ele>
        <time>2019-01-19T12:18:36.000Z</time>
      </trkpt>
      <trkpt lat="45.61531" lon="6.64728">
        <ele>2297.1999511719</ele>
        <time>2019-01-19T12:18:39.000Z</time>
      </trkpt>
      <trkpt lat="45.61535" lon="6.6473">
        <ele>2298.1999511719</ele>
        <time>2019-01-19T12:18:44.000Z</time>
      </trkpt>
      <trkpt lat="45.61536" lon="6.6473">
        <ele>2298.3999023438</ele>
        <time>2019-01-19T12:18:46.000Z</time>
      </trkpt>
      <trkpt lat="45.61538" lon="6.64732">
        <ele>2298.8000488281</ele>
        <time>2019-01-19T12:18:49.000Z</time>
      </trkpt>
      <trkpt lat="45.61539" lon="6.64732">
        <ele>2299</ele>
        <time>2019-01-19T12:18:55.000Z</time>
      </trkpt>
      <trkpt lat="45.61538" lon="6.64727">
        <ele>2299.8000488281</ele>
        <time>2019-01-19T12:19:00.000Z</time>
      </trkpt>
      <trkpt lat="45.61538" lon="6.64723">
        <ele>2300.3999023438</ele>
        <time>2019-01-19T12:19:03.000Z</time>
      </trkpt>
      <trkpt lat="45.61539" lon="6.64721">
        <ele>2300.8000488281</ele>
        <time>2019-01-19T12:19:05.000Z</time>
      </trkpt>
      <trkpt lat="45.61538" lon="6.64716">
        <ele>2301.3999023438</ele>
        <time>2019-01-19T12:19:09.000Z</time>
      </trkpt>
      <trkpt lat="45.61538" lon="6.64715">
        <ele>2301.6000976562</ele>
        <time>2019-01-19T12:19:12.000Z</time>
      </trkpt>
      <trkpt lat="45.61537" lon="6.64712">
        <ele>2301.8000488281</ele>
        <time>2019-01-19T12:19:16.000Z</time>
      </trkpt>
      <trkpt lat="45.61537" lon="6.64711">
        <ele>2301.8000488281</ele>
        <time>2019-01-19T12:19:17.000Z</time>
      </trkpt>
      <trkpt lat="45.61537" lon="6.64709">
        <ele>2302.1999511719</ele>
        <time>2019-01-19T12:19:20.000Z</time>
      </trkpt>
      <trkpt lat="45.61537" lon="6.64708">
        <ele>2302.3999023438</ele>
        <time>2019-01-19T12:19:23.000Z</time>
      </trkpt>
      <trkpt lat="45.61537" lon="6.64704">
        <ele>2303</ele>
        <time>2019-01-19T12:19:26.000Z</time>
      </trkpt>
      <trkpt lat="45.61536" lon="6.64701">
        <ele>2303.3999023438</ele>
        <time>2019-01-19T12:19:29.000Z</time>
      </trkpt>
      <trkpt lat="45.61536" lon="6.64698">
        <ele>2303.8000488281</ele>
        <time>2019-01-19T12:19:33.000Z</time>
      </trkpt>
      <trkpt lat="45.61536" lon="6.64696">
        <ele>2304.1999511719</ele>
        <time>2019-01-19T12:19:34.000Z</time>
      </trkpt>
      <trkpt lat="45.61536" lon="6.64692">
        <ele>2305</ele>
        <time>2019-01-19T12:19:39.000Z</time>
      </trkpt>
      <trkpt lat="45.61536" lon="6.64691">
        <ele>2305</ele>
        <time>2019-01-19T12:19:40.000Z</time>
      </trkpt>
      <trkpt lat="45.61536" lon="6.64686">
        <ele>2305.8000488281</ele>
        <time>2019-01-19T12:19:43.000Z</time>
      </trkpt>
      <trkpt lat="45.61536" lon="6.64682">
        <ele>2306.3999023438</ele>
        <time>2019-01-19T12:19:46.000Z</time>
      </trkpt>
      <trkpt lat="45.61536" lon="6.64682">
        <ele>2306.3999023438</ele>
        <time>2019-01-19T12:19:48.000Z</time>
      </trkpt>
      <trkpt lat="45.61535" lon="6.64677">
        <ele>2307.1999511719</ele>
        <time>2019-01-19T12:19:53.000Z</time>
      </trkpt>
      <trkpt lat="45.61535" lon="6.64672">
        <ele>2307.8000488281</ele>
        <time>2019-01-19T12:19:59.000Z</time>
      </trkpt>
      <trkpt lat="45.61534" lon="6.64671">
        <ele>2307.8000488281</ele>
        <time>2019-01-19T12:20:00.000Z</time>
      </trkpt>
      <trkpt lat="45.61534" lon="6.64666">
        <ele>2308.6000976562</ele>
        <time>2019-01-19T12:20:04.000Z</time>
      </trkpt>
      <trkpt lat="45.61534" lon="6.64663">
        <ele>2309</ele>
        <time>2019-01-19T12:20:07.000Z</time>
      </trkpt>
      <trkpt lat="45.61533" lon="6.64661">
        <ele>2309</ele>
        <time>2019-01-19T12:20:08.000Z</time>
      </trkpt>
      <trkpt lat="45.61533" lon="6.6466">
        <ele>2309.1999511719</ele>
        <time>2019-01-19T12:20:12.000Z</time>
      </trkpt>
      <trkpt lat="45.61531" lon="6.64655">
        <ele>2309.1999511719</ele>
        <time>2019-01-19T12:20:15.000Z</time>
      </trkpt>
      <trkpt lat="45.61531" lon="6.64654">
        <ele>2309.3999023438</ele>
        <time>2019-01-19T12:20:16.000Z</time>
      </trkpt>
      <trkpt lat="45.6153" lon="6.64651">
        <ele>2309.8000488281</ele>
        <time>2019-01-19T12:20:18.000Z</time>
      </trkpt>
      <trkpt lat="45.61529" lon="6.64649">
        <ele>2310.1999511719</ele>
        <time>2019-01-19T12:20:21.000Z</time>
      </trkpt>
      <trkpt lat="45.61529" lon="6.64648">
        <ele>2310.3999023438</ele>
        <time>2019-01-19T12:20:22.000Z</time>
      </trkpt>
      <trkpt lat="45.61529" lon="6.64643">
        <ele>2311.6000976562</ele>
        <time>2019-01-19T12:20:27.000Z</time>
      </trkpt>
      <trkpt lat="45.61528" lon="6.64641">
        <ele>2311.8000488281</ele>
        <time>2019-01-19T12:20:29.000Z</time>
      </trkpt>
      <trkpt lat="45.61526" lon="6.64639">
        <ele>2311.8000488281</ele>
        <time>2019-01-19T12:20:32.000Z</time>
      </trkpt>
      <trkpt lat="45.61525" lon="6.64636">
        <ele>2312.1999511719</ele>
        <time>2019-01-19T12:20:36.000Z</time>
      </trkpt>
      <trkpt lat="45.61524" lon="6.64635">
        <ele>2312.1999511719</ele>
        <time>2019-01-19T12:20:38.000Z</time>
      </trkpt>
      <trkpt lat="45.61522" lon="6.64632">
        <ele>2312</ele>
        <time>2019-01-19T12:20:43.000Z</time>
      </trkpt>
      <trkpt lat="45.61522" lon="6.64633">
        <ele>2312</ele>
        <time>2019-01-19T12:20:44.000Z</time>
      </trkpt>
      <trkpt lat="45.61519" lon="6.64629">
        <ele>2312</ele>
        <time>2019-01-19T12:20:48.000Z</time>
      </trkpt>
      <trkpt lat="45.61517" lon="6.64627">
        <ele>2312</ele>
        <time>2019-01-19T12:20:50.000Z</time>
      </trkpt>
      <trkpt lat="45.61517" lon="6.64626">
        <ele>2312</ele>
        <time>2019-01-19T12:20:52.000Z</time>
      </trkpt>
      <trkpt lat="45.61514" lon="6.64622">
        <ele>2312.1999511719</ele>
        <time>2019-01-19T12:20:57.000Z</time>
      </trkpt>
      <trkpt lat="45.61514" lon="6.64622">
        <ele>2312.1999511719</ele>
        <time>2019-01-19T12:20:58.000Z</time>
      </trkpt>
      <trkpt lat="45.61512" lon="6.64621">
        <ele>2312</ele>
        <time>2019-01-19T12:21:01.000Z</time>
      </trkpt>
      <trkpt lat="45.6151" lon="6.64619">
        <ele>2311.8000488281</ele>
        <time>2019-01-19T12:21:05.000Z</time>
      </trkpt>
      <trkpt lat="45.61509" lon="6.64616">
        <ele>2312</ele>
        <time>2019-01-19T12:21:09.000Z</time>
      </trkpt>
      <trkpt lat="45.61508" lon="6.64615">
        <ele>2312</ele>
        <time>2019-01-19T12:21:12.000Z</time>
      </trkpt>
      <trkpt lat="45.61508" lon="6.64614">
        <ele>2312.1999511719</ele>
        <time>2019-01-19T12:21:14.000Z</time>
      </trkpt>
      <trkpt lat="45.61507" lon="6.64613">
        <ele>2312.1999511719</ele>
        <time>2019-01-19T12:21:18.000Z</time>
      </trkpt>
      <trkpt lat="45.61505" lon="6.64609">
        <ele>2312.8000488281</ele>
        <time>2019-01-19T12:21:22.000Z</time>
      </trkpt>
      <trkpt lat="45.61505" lon="6.64608">
        <ele>2313</ele>
        <time>2019-01-19T12:21:23.000Z</time>
      </trkpt>
      <trkpt lat="45.61504" lon="6.64605">
        <ele>2313.3999023438</ele>
        <time>2019-01-19T12:21:26.000Z</time>
      </trkpt>
      <trkpt lat="45.61504" lon="6.64605">
        <ele>2313.3999023438</ele>
        <time>2019-01-19T12:21:27.000Z</time>
      </trkpt>
      <trkpt lat="45.61502" lon="6.646">
        <ele>2313.6000976562</ele>
        <time>2019-01-19T12:21:32.000Z</time>
      </trkpt>
      <trkpt lat="45.61501" lon="6.64599">
        <ele>2313.8000488281</ele>
        <time>2019-01-19T12:21:35.000Z</time>
      </trkpt>
      <trkpt lat="45.61501" lon="6.64599">
        <ele>2313.8000488281</ele>
        <time>2019-01-19T12:21:36.000Z</time>
      </trkpt>
      <trkpt lat="45.615" lon="6.64597">
        <ele>2313.8000488281</ele>
        <time>2019-01-19T12:21:39.000Z</time>
      </trkpt>
      <trkpt lat="45.615" lon="6.64595">
        <ele>2314</ele>
        <time>2019-01-19T12:21:41.000Z</time>
      </trkpt>
      <trkpt lat="45.61499" lon="6.64594">
        <ele>2314</ele>
        <time>2019-01-19T12:21:45.000Z</time>
      </trkpt>
      <trkpt lat="45.61499" lon="6.64594">
        <ele>2314</ele>
        <time>2019-01-19T12:21:46.000Z</time>
      </trkpt>
      <trkpt lat="45.61499" lon="6.64594">
        <ele>2314</ele>
        <time>2019-01-19T12:21:58.000Z</time>
      </trkpt>
      <trkpt lat="45.61499" lon="6.64594">
        <ele>2314</ele>
        <time>2019-01-19T12:22:06.000Z</time>
      </trkpt>
      <trkpt lat="45.61499" lon="6.64594">
        <ele>2314</ele>
        <time>2019-01-19T12:22:14.000Z</time>
      </trkpt>
      <trkpt lat="45.61499" lon="6.64593">
        <ele>2314</ele>
        <time>2019-01-19T12:22:27.000Z</time>
      </trkpt>
      <trkpt lat="45.61497" lon="6.64588">
        <ele>2314.3999023438</ele>
        <time>2019-01-19T12:22:36.000Z</time>
      </trkpt>
      <trkpt lat="45.61495" lon="6.64581">
        <ele>2315</ele>
        <time>2019-01-19T12:22:40.000Z</time>
      </trkpt>
      <trkpt lat="45.61495" lon="6.6458">
        <ele>2315.1999511719</ele>
        <time>2019-01-19T12:22:41.000Z</time>
      </trkpt>
      <trkpt lat="45.61492" lon="6.64575">
        <ele>2315.1999511719</ele>
        <time>2019-01-19T12:22:44.000Z</time>
      </trkpt>
      <trkpt lat="45.61491" lon="6.64572">
        <ele>2315.3999023438</ele>
        <time>2019-01-19T12:22:46.000Z</time>
      </trkpt>
      <trkpt lat="45.61489" lon="6.64568">
        <ele>2315.6000976562</ele>
        <time>2019-01-19T12:22:50.000Z</time>
      </trkpt>
      <trkpt lat="45.61489" lon="6.64565">
        <ele>2316.1999511719</ele>
        <time>2019-01-19T12:22:52.000Z</time>
      </trkpt>
      <trkpt lat="45.61487" lon="6.6456">
        <ele>2316.8000488281</ele>
        <time>2019-01-19T12:22:55.000Z</time>
      </trkpt>
      <trkpt lat="45.61486" lon="6.64558">
        <ele>2317</ele>
        <time>2019-01-19T12:22:57.000Z</time>
      </trkpt>
      <trkpt lat="45.61483" lon="6.64554">
        <ele>2317</ele>
        <time>2019-01-19T12:23:00.000Z</time>
      </trkpt>
      <trkpt lat="45.61483" lon="6.64553">
        <ele>2317.3999023438</ele>
        <time>2019-01-19T12:23:02.000Z</time>
      </trkpt>
      <trkpt lat="45.61484" lon="6.6455">
        <ele>2318.1999511719</ele>
        <time>2019-01-19T12:23:05.000Z</time>
      </trkpt>
      <trkpt lat="45.61485" lon="6.64548">
        <ele>2318.8000488281</ele>
        <time>2019-01-19T12:23:07.000Z</time>
      </trkpt>
      <trkpt lat="45.61487" lon="6.64546">
        <ele>2319.8000488281</ele>
        <time>2019-01-19T12:23:09.000Z</time>
      </trkpt>
      <trkpt lat="45.61488" lon="6.64544">
        <ele>2320.1999511719</ele>
        <time>2019-01-19T12:23:10.000Z</time>
      </trkpt>
      <trkpt lat="45.61488" lon="6.64544">
        <ele>2320.3999023438</ele>
        <time>2019-01-19T12:23:11.000Z</time>
      </trkpt>
      <trkpt lat="45.61491" lon="6.64541">
        <ele>2321.6000976562</ele>
        <time>2019-01-19T12:23:15.000Z</time>
      </trkpt>
      <trkpt lat="45.61493" lon="6.64539">
        <ele>2322.3999023438</ele>
        <time>2019-01-19T12:23:20.000Z</time>
      </trkpt>
      <trkpt lat="45.61494" lon="6.64537">
        <ele>2323.1999511719</ele>
        <time>2019-01-19T12:23:22.000Z</time>
      </trkpt>
      <trkpt lat="45.61495" lon="6.64536">
        <ele>2323.6000976562</ele>
        <time>2019-01-19T12:23:25.000Z</time>
      </trkpt>
      <trkpt lat="45.61499" lon="6.64531">
        <ele>2325.1999511719</ele>
        <time>2019-01-19T12:23:30.000Z</time>
      </trkpt>
      <trkpt lat="45.615" lon="6.64528">
        <ele>2326.3999023438</ele>
        <time>2019-01-19T12:23:35.000Z</time>
      </trkpt>
      <trkpt lat="45.61502" lon="6.64526">
        <ele>2326.8000488281</ele>
        <time>2019-01-19T12:23:37.000Z</time>
      </trkpt>
      <trkpt lat="45.61504" lon="6.64525">
        <ele>2327.6000976562</ele>
        <time>2019-01-19T12:23:38.000Z</time>
      </trkpt>
      <trkpt lat="45.61505" lon="6.64524">
        <ele>2328</ele>
        <time>2019-01-19T12:23:42.000Z</time>
      </trkpt>
      <trkpt lat="45.61505" lon="6.64524">
        <ele>2328.1999511719</ele>
        <time>2019-01-19T12:23:43.000Z</time>
      </trkpt>
      <trkpt lat="45.61507" lon="6.64521">
        <ele>2328.8000488281</ele>
        <time>2019-01-19T12:23:47.000Z</time>
      </trkpt>
      <trkpt lat="45.61507" lon="6.64522">
        <ele>2328.6000976562</ele>
        <time>2019-01-19T12:23:48.000Z</time>
      </trkpt>
      <trkpt lat="45.61507" lon="6.64521">
        <ele>2328.8000488281</ele>
        <time>2019-01-19T12:23:49.000Z</time>
      </trkpt>
      <trkpt lat="45.61509" lon="6.64519">
        <ele>2329.1999511719</ele>
        <time>2019-01-19T12:23:52.000Z</time>
      </trkpt>
      <trkpt lat="45.6151" lon="6.64518">
        <ele>2329.3999023438</ele>
        <time>2019-01-19T12:23:55.000Z</time>
      </trkpt>
      <trkpt lat="45.6151" lon="6.64519">
        <ele>2329.3999023438</ele>
        <time>2019-01-19T12:23:56.000Z</time>
      </trkpt>
      <trkpt lat="45.61514" lon="6.64515">
        <ele>2330.1999511719</ele>
        <time>2019-01-19T12:24:01.000Z</time>
      </trkpt>
      <trkpt lat="45.61519" lon="6.64512">
        <ele>2331.1999511719</ele>
        <time>2019-01-19T12:24:07.000Z</time>
      </trkpt>
      <trkpt lat="45.61523" lon="6.64508">
        <ele>2332.1999511719</ele>
        <time>2019-01-19T12:24:13.000Z</time>
      </trkpt>
      <trkpt lat="45.61524" lon="6.64508">
        <ele>2332.1999511719</ele>
        <time>2019-01-19T12:24:14.000Z</time>
      </trkpt>
      <trkpt lat="45.61527" lon="6.64507">
        <ele>2332.6000976562</ele>
        <time>2019-01-19T12:24:19.000Z</time>
      </trkpt>
      <trkpt lat="45.61528" lon="6.64506">
        <ele>2333</ele>
        <time>2019-01-19T12:24:21.000Z</time>
      </trkpt>
      <trkpt lat="45.61533" lon="6.64504">
        <ele>2333.6000976562</ele>
        <time>2019-01-19T12:24:25.000Z</time>
      </trkpt>
      <trkpt lat="45.61538" lon="6.64502">
        <ele>2334.6000976562</ele>
        <time>2019-01-19T12:24:30.000Z</time>
      </trkpt>
      <trkpt lat="45.61542" lon="6.645">
        <ele>2335.3999023438</ele>
        <time>2019-01-19T12:24:36.000Z</time>
      </trkpt>
      <trkpt lat="45.61546" lon="6.64498">
        <ele>2336</ele>
        <time>2019-01-19T12:24:40.000Z</time>
      </trkpt>
      <trkpt lat="45.61547" lon="6.64498">
        <ele>2336</ele>
        <time>2019-01-19T12:24:42.000Z</time>
      </trkpt>
      <trkpt lat="45.61551" lon="6.64496">
        <ele>2336.8000488281</ele>
        <time>2019-01-19T12:24:48.000Z</time>
      </trkpt>
      <trkpt lat="45.61553" lon="6.64496">
        <ele>2337</ele>
        <time>2019-01-19T12:24:50.000Z</time>
      </trkpt>
      <trkpt lat="45.61557" lon="6.64494">
        <ele>2337.3999023438</ele>
        <time>2019-01-19T12:24:54.000Z</time>
      </trkpt>
      <trkpt lat="45.61561" lon="6.64493">
        <ele>2337.8000488281</ele>
        <time>2019-01-19T12:24:59.000Z</time>
      </trkpt>
      <trkpt lat="45.61562" lon="6.64492">
        <ele>2338</ele>
        <time>2019-01-19T12:25:02.000Z</time>
      </trkpt>
      <trkpt lat="45.61565" lon="6.64492">
        <ele>2338.1999511719</ele>
        <time>2019-01-19T12:25:06.000Z</time>
      </trkpt>
      <trkpt lat="45.61566" lon="6.64491">
        <ele>2338.3999023438</ele>
        <time>2019-01-19T12:25:10.000Z</time>
      </trkpt>
      <trkpt lat="45.61566" lon="6.6449">
        <ele>2338.6000976562</ele>
        <time>2019-01-19T12:25:12.000Z</time>
      </trkpt>
      <trkpt lat="45.61565" lon="6.64489">
        <ele>2338.6000976562</ele>
        <time>2019-01-19T12:25:14.000Z</time>
      </trkpt>
      <trkpt lat="45.61563" lon="6.64487">
        <ele>2338.8000488281</ele>
        <time>2019-01-19T12:25:16.000Z</time>
      </trkpt>
      <trkpt lat="45.61563" lon="6.64487">
        <ele>2338.8000488281</ele>
        <time>2019-01-19T12:25:17.000Z</time>
      </trkpt>
      <trkpt lat="45.6156" lon="6.64483">
        <ele>2339</ele>
        <time>2019-01-19T12:25:22.000Z</time>
      </trkpt>
      <trkpt lat="45.61558" lon="6.64481">
        <ele>2339</ele>
        <time>2019-01-19T12:25:23.000Z</time>
      </trkpt>
      <trkpt lat="45.61557" lon="6.64479">
        <ele>2339</ele>
        <time>2019-01-19T12:25:27.000Z</time>
      </trkpt>
      <trkpt lat="45.61556" lon="6.64478">
        <ele>2339</ele>
        <time>2019-01-19T12:25:33.000Z</time>
      </trkpt>
      <trkpt lat="45.61557" lon="6.64477">
        <ele>2339.1999511719</ele>
        <time>2019-01-19T12:25:37.000Z</time>
      </trkpt>
      <trkpt lat="45.61558" lon="6.64477">
        <ele>2339.1999511719</ele>
        <time>2019-01-19T12:25:39.000Z</time>
      </trkpt>
      <trkpt lat="45.61558" lon="6.64477">
        <ele>2339.1999511719</ele>
        <time>2019-01-19T12:25:54.000Z</time>
      </trkpt>
      <trkpt lat="45.6156" lon="6.64476">
        <ele>2339.6000976562</ele>
        <time>2019-01-19T12:26:08.000Z</time>
      </trkpt>
      <trkpt lat="45.61565" lon="6.64474">
        <ele>2340</ele>
        <time>2019-01-19T12:26:13.000Z</time>
      </trkpt>
      <trkpt lat="45.61566" lon="6.64473">
        <ele>2340.1999511719</ele>
        <time>2019-01-19T12:26:14.000Z</time>
      </trkpt>
      <trkpt lat="45.61571" lon="6.64471">
        <ele>2340.8000488281</ele>
        <time>2019-01-19T12:26:19.000Z</time>
      </trkpt>
      <trkpt lat="45.61572" lon="6.6447">
        <ele>2341</ele>
        <time>2019-01-19T12:26:20.000Z</time>
      </trkpt>
      <trkpt lat="45.61577" lon="6.64468">
        <ele>2341.6000976562</ele>
        <time>2019-01-19T12:26:23.000Z</time>
      </trkpt>
      <trkpt lat="45.61579" lon="6.64467">
        <ele>2341.8000488281</ele>
        <time>2019-01-19T12:26:26.000Z</time>
      </trkpt>
      <trkpt lat="45.61582" lon="6.64466">
        <ele>2342.1999511719</ele>
        <time>2019-01-19T12:26:30.000Z</time>
      </trkpt>
      <trkpt lat="45.61584" lon="6.64466">
        <ele>2342.3999023438</ele>
        <time>2019-01-19T12:26:32.000Z</time>
      </trkpt>
      <trkpt lat="45.61588" lon="6.64466">
        <ele>2342.6000976562</ele>
        <time>2019-01-19T12:26:37.000Z</time>
      </trkpt>
      <trkpt lat="45.61588" lon="6.64466">
        <ele>2342.8000488281</ele>
        <time>2019-01-19T12:26:39.000Z</time>
      </trkpt>
      <trkpt lat="45.61593" lon="6.64462">
        <ele>2343.3999023438</ele>
        <time>2019-01-19T12:26:45.000Z</time>
      </trkpt>
      <trkpt lat="45.61596" lon="6.6446">
        <ele>2343.8000488281</ele>
        <time>2019-01-19T12:26:51.000Z</time>
      </trkpt>
      <trkpt lat="45.61597" lon="6.6446">
        <ele>2344</ele>
        <time>2019-01-19T12:26:52.000Z</time>
      </trkpt>
      <trkpt lat="45.616" lon="6.64461">
        <ele>2344.1999511719</ele>
        <time>2019-01-19T12:26:57.000Z</time>
      </trkpt>
      <trkpt lat="45.61603" lon="6.6446">
        <ele>2344.3999023438</ele>
        <time>2019-01-19T12:27:01.000Z</time>
      </trkpt>
      <trkpt lat="45.61603" lon="6.6446">
        <ele>2344.3999023438</ele>
        <time>2019-01-19T12:27:03.000Z</time>
      </trkpt>
      <trkpt lat="45.61603" lon="6.6446">
        <ele>2344.3999023438</ele>
        <time>2019-01-19T12:27:05.000Z</time>
      </trkpt>
      <trkpt lat="45.61604" lon="6.6446">
        <ele>2344.6000976562</ele>
        <time>2019-01-19T12:27:17.000Z</time>
      </trkpt>
      <trkpt lat="45.61604" lon="6.6446">
        <ele>2344.6000976562</ele>
        <time>2019-01-19T12:27:24.000Z</time>
      </trkpt>
      <trkpt lat="45.61604" lon="6.6446">
        <ele>2344.6000976562</ele>
        <time>2019-01-19T12:27:44.000Z</time>
      </trkpt>
      <trkpt lat="45.61604" lon="6.64459">
        <ele>2344.6000976562</ele>
        <time>2019-01-19T12:27:57.000Z</time>
      </trkpt>
      <trkpt lat="45.61604" lon="6.64459">
        <ele>2344.6000976562</ele>
        <time>2019-01-19T12:28:15.000Z</time>
      </trkpt>
      <trkpt lat="45.61604" lon="6.64459">
        <ele>2344.6000976562</ele>
        <time>2019-01-19T12:28:28.000Z</time>
      </trkpt>
      <trkpt lat="45.61604" lon="6.64459">
        <ele>2344.6000976562</ele>
        <time>2019-01-19T12:28:39.000Z</time>
      </trkpt>
      <trkpt lat="45.61604" lon="6.64459">
        <ele>2344.6000976562</ele>
        <time>2019-01-19T12:29:01.000Z</time>
      </trkpt>
      <trkpt lat="45.61604" lon="6.64459">
        <ele>2344.6000976562</ele>
        <time>2019-01-19T12:29:19.000Z</time>
      </trkpt>
      <trkpt lat="45.61604" lon="6.64459">
        <ele>2344.6000976562</ele>
        <time>2019-01-19T12:29:35.000Z</time>
      </trkpt>
      <trkpt lat="45.61604" lon="6.64458">
        <ele>2344.6000976562</ele>
        <time>2019-01-19T12:29:54.000Z</time>
      </trkpt>
      <trkpt lat="45.61604" lon="6.64458">
        <ele>2344.6000976562</ele>
        <time>2019-01-19T12:30:10.000Z</time>
      </trkpt>
      <trkpt lat="45.61604" lon="6.64458">
        <ele>2344.6000976562</ele>
        <time>2019-01-19T12:30:26.000Z</time>
      </trkpt>
      <trkpt lat="45.61604" lon="6.64458">
        <ele>2344.6000976562</ele>
        <time>2019-01-19T12:30:43.000Z</time>
      </trkpt>
      <trkpt lat="45.61604" lon="6.64458">
        <ele>2344.6000976562</ele>
        <time>2019-01-19T12:30:56.000Z</time>
      </trkpt>
      <trkpt lat="45.61604" lon="6.64458">
        <ele>2344.6000976562</ele>
        <time>2019-01-19T12:31:10.000Z</time>
      </trkpt>
      <trkpt lat="45.61604" lon="6.64458">
        <ele>2344.6000976562</ele>
        <time>2019-01-19T12:31:12.000Z</time>
      </trkpt>
      <trkpt lat="45.61606" lon="6.64454">
        <ele>2345.1999511719</ele>
        <time>2019-01-19T12:31:18.000Z</time>
      </trkpt>
      <trkpt lat="45.61609" lon="6.64452">
        <ele>2345.6000976562</ele>
        <time>2019-01-19T12:31:23.000Z</time>
      </trkpt>
      <trkpt lat="45.61612" lon="6.6445">
        <ele>2346</ele>
        <time>2019-01-19T12:31:28.000Z</time>
      </trkpt>
      <trkpt lat="45.61614" lon="6.64449">
        <ele>2346</ele>
        <time>2019-01-19T12:31:30.000Z</time>
      </trkpt>
      <trkpt lat="45.61616" lon="6.64446">
        <ele>2346.3999023438</ele>
        <time>2019-01-19T12:31:33.000Z</time>
      </trkpt>
      <trkpt lat="45.61618" lon="6.64443">
        <ele>2346.8000488281</ele>
        <time>2019-01-19T12:31:36.000Z</time>
      </trkpt>
      <trkpt lat="45.61618" lon="6.64443">
        <ele>2346.8000488281</ele>
        <time>2019-01-19T12:31:38.000Z</time>
      </trkpt>
      <trkpt lat="45.61618" lon="6.64443">
        <ele>2346.8000488281</ele>
        <time>2019-01-19T12:31:39.000Z</time>
      </trkpt>
      <trkpt lat="45.6162" lon="6.6444">
        <ele>2347.1999511719</ele>
        <time>2019-01-19T12:31:44.000Z</time>
      </trkpt>
      <trkpt lat="45.61622" lon="6.64438">
        <ele>2347.3999023438</ele>
        <time>2019-01-19T12:31:48.000Z</time>
      </trkpt>
      <trkpt lat="45.61624" lon="6.64434">
        <ele>2348</ele>
        <time>2019-01-19T12:31:53.000Z</time>
      </trkpt>
      <trkpt lat="45.61627" lon="6.64432">
        <ele>2348.1999511719</ele>
        <time>2019-01-19T12:31:56.000Z</time>
      </trkpt>
      <trkpt lat="45.61628" lon="6.64431">
        <ele>2348.3999023438</ele>
        <time>2019-01-19T12:32:00.000Z</time>
      </trkpt>
      <trkpt lat="45.61629" lon="6.64431">
        <ele>2348.6000976562</ele>
        <time>2019-01-19T12:32:02.000Z</time>
      </trkpt>
      <trkpt lat="45.61632" lon="6.64429">
        <ele>2348.8000488281</ele>
        <time>2019-01-19T12:32:10.000Z</time>
      </trkpt>
      <trkpt lat="45.61636" lon="6.64425">
        <ele>2349.3999023438</ele>
        <time>2019-01-19T12:32:15.000Z</time>
      </trkpt>
      <trkpt lat="45.61637" lon="6.64419">
        <ele>2349.8000488281</ele>
        <time>2019-01-19T12:32:20.000Z</time>
      </trkpt>
      <trkpt lat="45.61637" lon="6.64413">
        <ele>2350.1999511719</ele>
        <time>2019-01-19T12:32:25.000Z</time>
      </trkpt>
      <trkpt lat="45.61638" lon="6.64411">
        <ele>2350.3999023438</ele>
        <time>2019-01-19T12:32:29.000Z</time>
      </trkpt>
      <trkpt lat="45.61639" lon="6.64408">
        <ele>2350.6000976562</ele>
        <time>2019-01-19T12:32:32.000Z</time>
      </trkpt>
      <trkpt lat="45.6164" lon="6.64407">
        <ele>2350.6000976562</ele>
        <time>2019-01-19T12:32:35.000Z</time>
      </trkpt>
      <trkpt lat="45.61641" lon="6.64404">
        <ele>2351.1999511719</ele>
        <time>2019-01-19T12:32:48.000Z</time>
      </trkpt>
      <trkpt lat="45.61642" lon="6.64395">
        <ele>2352</ele>
        <time>2019-01-19T12:32:53.000Z</time>
      </trkpt>
      <trkpt lat="45.61643" lon="6.64389">
        <ele>2352.3999023438</ele>
        <time>2019-01-19T12:32:57.000Z</time>
      </trkpt>
      <trkpt lat="45.61643" lon="6.64381">
        <ele>2353</ele>
        <time>2019-01-19T12:33:03.000Z</time>
      </trkpt>
      <trkpt lat="45.61643" lon="6.64376">
        <ele>2353.1999511719</ele>
        <time>2019-01-19T12:33:07.000Z</time>
      </trkpt>
      <trkpt lat="45.61643" lon="6.64373">
        <ele>2353.3999023438</ele>
        <time>2019-01-19T12:33:09.000Z</time>
      </trkpt>
      <trkpt lat="45.61639" lon="6.6436">
        <ele>2353.8000488281</ele>
        <time>2019-01-19T12:33:15.000Z</time>
      </trkpt>
      <trkpt lat="45.61638" lon="6.64353">
        <ele>2354.1999511719</ele>
        <time>2019-01-19T12:33:19.000Z</time>
      </trkpt>
      <trkpt lat="45.61638" lon="6.64351">
        <ele>2354.1999511719</ele>
        <time>2019-01-19T12:33:21.000Z</time>
      </trkpt>
      <trkpt lat="45.61638" lon="6.64341">
        <ele>2354.8000488281</ele>
        <time>2019-01-19T12:33:27.000Z</time>
      </trkpt>
      <trkpt lat="45.6164" lon="6.64336">
        <ele>2355.3999023438</ele>
        <time>2019-01-19T12:33:32.000Z</time>
      </trkpt>
      <trkpt lat="45.61641" lon="6.64333">
        <ele>2355.6000976562</ele>
        <time>2019-01-19T12:33:34.000Z</time>
      </trkpt>
      <trkpt lat="45.61642" lon="6.6433">
        <ele>2356</ele>
        <time>2019-01-19T12:33:36.000Z</time>
      </trkpt>
      <trkpt lat="45.61646" lon="6.64322">
        <ele>2357.8000488281</ele>
        <time>2019-01-19T12:33:42.000Z</time>
      </trkpt>
      <trkpt lat="45.61648" lon="6.64316">
        <ele>2358.8000488281</ele>
        <time>2019-01-19T12:33:46.000Z</time>
      </trkpt>
      <trkpt lat="45.61648" lon="6.6431">
        <ele>2359.3999023438</ele>
        <time>2019-01-19T12:33:50.000Z</time>
      </trkpt>
      <trkpt lat="45.61648" lon="6.64309">
        <ele>2359.6000976562</ele>
        <time>2019-01-19T12:33:51.000Z</time>
      </trkpt>
      <trkpt lat="45.61646" lon="6.64302">
        <ele>2359.8000488281</ele>
        <time>2019-01-19T12:33:56.000Z</time>
      </trkpt>
      <trkpt lat="45.61646" lon="6.64294">
        <ele>2360.6000976562</ele>
        <time>2019-01-19T12:34:02.000Z</time>
      </trkpt>
      <trkpt lat="45.61647" lon="6.64289">
        <ele>2361.3999023438</ele>
        <time>2019-01-19T12:34:06.000Z</time>
      </trkpt>
      <trkpt lat="45.61649" lon="6.6428">
        <ele>2362.3999023438</ele>
        <time>2019-01-19T12:34:12.000Z</time>
      </trkpt>
      <trkpt lat="45.6165" lon="6.64273">
        <ele>2363.3999023438</ele>
        <time>2019-01-19T12:34:17.000Z</time>
      </trkpt>
      <trkpt lat="45.61649" lon="6.64269">
        <ele>2363.8000488281</ele>
        <time>2019-01-19T12:34:21.000Z</time>
      </trkpt>
      <trkpt lat="45.61649" lon="6.64264">
        <ele>2364</ele>
        <time>2019-01-19T12:34:25.000Z</time>
      </trkpt>
      <trkpt lat="45.61649" lon="6.64263">
        <ele>2364.1999511719</ele>
        <time>2019-01-19T12:34:26.000Z</time>
      </trkpt>
      <trkpt lat="45.61648" lon="6.64259">
        <ele>2364.3999023438</ele>
        <time>2019-01-19T12:34:29.000Z</time>
      </trkpt>
      <trkpt lat="45.61647" lon="6.64256">
        <ele>2364.3999023438</ele>
        <time>2019-01-19T12:34:32.000Z</time>
      </trkpt>
      <trkpt lat="45.61646" lon="6.6425">
        <ele>2364.8000488281</ele>
        <time>2019-01-19T12:34:39.000Z</time>
      </trkpt>
      <trkpt lat="45.61646" lon="6.64249">
        <ele>2365</ele>
        <time>2019-01-19T12:34:41.000Z</time>
      </trkpt>
      <trkpt lat="45.61647" lon="6.64247">
        <ele>2365.1999511719</ele>
        <time>2019-01-19T12:34:42.000Z</time>
      </trkpt>
      <trkpt lat="45.61647" lon="6.64245">
        <ele>2366</ele>
        <time>2019-01-19T12:34:44.000Z</time>
      </trkpt>
      <trkpt lat="45.61648" lon="6.64242">
        <ele>2366.6000976562</ele>
        <time>2019-01-19T12:34:48.000Z</time>
      </trkpt>
      <trkpt lat="45.61647" lon="6.64238">
        <ele>2367.1999511719</ele>
        <time>2019-01-19T12:34:51.000Z</time>
      </trkpt>
      <trkpt lat="45.61647" lon="6.64237">
        <ele>2367.3999023438</ele>
        <time>2019-01-19T12:34:52.000Z</time>
      </trkpt>
      <trkpt lat="45.61645" lon="6.64232">
        <ele>2367.6000976562</ele>
        <time>2019-01-19T12:34:57.000Z</time>
      </trkpt>
      <trkpt lat="45.61644" lon="6.6423">
        <ele>2367.3999023438</ele>
        <time>2019-01-19T12:34:59.000Z</time>
      </trkpt>
      <trkpt lat="45.61643" lon="6.64228">
        <ele>2367.3999023438</ele>
        <time>2019-01-19T12:35:02.000Z</time>
      </trkpt>
      <trkpt lat="45.61642" lon="6.64225">
        <ele>2367.3999023438</ele>
        <time>2019-01-19T12:35:06.000Z</time>
      </trkpt>
      <trkpt lat="45.61642" lon="6.6422">
        <ele>2368</ele>
        <time>2019-01-19T12:35:11.000Z</time>
      </trkpt>
      <trkpt lat="45.61642" lon="6.64219">
        <ele>2368</ele>
        <time>2019-01-19T12:35:12.000Z</time>
      </trkpt>
      <trkpt lat="45.61641" lon="6.64213">
        <ele>2368.3999023438</ele>
        <time>2019-01-19T12:35:17.000Z</time>
      </trkpt>
      <trkpt lat="45.61641" lon="6.64212">
        <ele>2368.3999023438</ele>
        <time>2019-01-19T12:35:18.000Z</time>
      </trkpt>
      <trkpt lat="45.6164" lon="6.64207">
        <ele>2368.3999023438</ele>
        <time>2019-01-19T12:35:22.000Z</time>
      </trkpt>
      <trkpt lat="45.61639" lon="6.64202">
        <ele>2368.8000488281</ele>
        <time>2019-01-19T12:35:26.000Z</time>
      </trkpt>
      <trkpt lat="45.6164" lon="6.64201">
        <ele>2369.1999511719</ele>
        <time>2019-01-19T12:35:27.000Z</time>
      </trkpt>
      <trkpt lat="45.61639" lon="6.64196">
        <ele>2369.6000976562</ele>
        <time>2019-01-19T12:35:32.000Z</time>
      </trkpt>
      <trkpt lat="45.6164" lon="6.64192">
        <ele>2370.1999511719</ele>
        <time>2019-01-19T12:35:36.000Z</time>
      </trkpt>
      <trkpt lat="45.6164" lon="6.6419">
        <ele>2370.3999023438</ele>
        <time>2019-01-19T12:35:38.000Z</time>
      </trkpt>
      <trkpt lat="45.6164" lon="6.64187">
        <ele>2370.8000488281</ele>
        <time>2019-01-19T12:35:41.000Z</time>
      </trkpt>
      <trkpt lat="45.6164" lon="6.64184">
        <ele>2371</ele>
        <time>2019-01-19T12:35:43.000Z</time>
      </trkpt>
      <trkpt lat="45.61639" lon="6.64182">
        <ele>2371</ele>
        <time>2019-01-19T12:35:46.000Z</time>
      </trkpt>
      <trkpt lat="45.61638" lon="6.6418">
        <ele>2371</ele>
        <time>2019-01-19T12:35:49.000Z</time>
      </trkpt>
      <trkpt lat="45.61638" lon="6.64176">
        <ele>2371.3999023438</ele>
        <time>2019-01-19T12:35:52.000Z</time>
      </trkpt>
      <trkpt lat="45.61639" lon="6.64169">
        <ele>2372.3999023438</ele>
        <time>2019-01-19T12:35:58.000Z</time>
      </trkpt>
      <trkpt lat="45.61639" lon="6.64164">
        <ele>2373</ele>
        <time>2019-01-19T12:36:04.000Z</time>
      </trkpt>
      <trkpt lat="45.61642" lon="6.64157">
        <ele>2374.3999023438</ele>
        <time>2019-01-19T12:36:10.000Z</time>
      </trkpt>
      <trkpt lat="45.61642" lon="6.64157">
        <ele>2374.6000976562</ele>
        <time>2019-01-19T12:36:18.000Z</time>
      </trkpt>
      <trkpt lat="45.61642" lon="6.64157">
        <ele>2374.6000976562</ele>
        <time>2019-01-19T12:36:19.000Z</time>
      </trkpt>
      <trkpt lat="45.61642" lon="6.64157">
        <ele>2374.6000976562</ele>
        <time>2019-01-19T12:36:36.000Z</time>
      </trkpt>
      <trkpt lat="45.61642" lon="6.64156">
        <ele>2374.8000488281</ele>
        <time>2019-01-19T12:36:52.000Z</time>
      </trkpt>
      <trkpt lat="45.61642" lon="6.64156">
        <ele>2374.8000488281</ele>
        <time>2019-01-19T12:36:59.000Z</time>
      </trkpt>
      <trkpt lat="45.61642" lon="6.64156">
        <ele>2374.8000488281</ele>
        <time>2019-01-19T12:37:00.000Z</time>
      </trkpt>
      <trkpt lat="45.61643" lon="6.64153">
        <ele>2375.3999023438</ele>
        <time>2019-01-19T12:37:04.000Z</time>
      </trkpt>
      <trkpt lat="45.61644" lon="6.64152">
        <ele>2375.6000976562</ele>
        <time>2019-01-19T12:37:05.000Z</time>
      </trkpt>
      <trkpt lat="45.61645" lon="6.64145">
        <ele>2376.6000976562</ele>
        <time>2019-01-19T12:37:10.000Z</time>
      </trkpt>
      <trkpt lat="45.61646" lon="6.64138">
        <ele>2377.1999511719</ele>
        <time>2019-01-19T12:37:15.000Z</time>
      </trkpt>
      <trkpt lat="45.61648" lon="6.64131">
        <ele>2378.3999023438</ele>
        <time>2019-01-19T12:37:20.000Z</time>
      </trkpt>
      <trkpt lat="45.61649" lon="6.64127">
        <ele>2378.8000488281</ele>
        <time>2019-01-19T12:37:25.000Z</time>
      </trkpt>
      <trkpt lat="45.61649" lon="6.64125">
        <ele>2379</ele>
        <time>2019-01-19T12:37:26.000Z</time>
      </trkpt>
      <trkpt lat="45.61649" lon="6.64121">
        <ele>2379.3999023438</ele>
        <time>2019-01-19T12:37:29.000Z</time>
      </trkpt>
      <trkpt lat="45.6165" lon="6.64119">
        <ele>2379.8000488281</ele>
        <time>2019-01-19T12:37:31.000Z</time>
      </trkpt>
      <trkpt lat="45.61651" lon="6.64116">
        <ele>2380.3999023438</ele>
        <time>2019-01-19T12:37:33.000Z</time>
      </trkpt>
      <trkpt lat="45.61651" lon="6.6411">
        <ele>2380.6000976562</ele>
        <time>2019-01-19T12:37:38.000Z</time>
      </trkpt>
      <trkpt lat="45.6165" lon="6.64108">
        <ele>2380.6000976562</ele>
        <time>2019-01-19T12:37:43.000Z</time>
      </trkpt>
      <trkpt lat="45.6165" lon="6.64108">
        <ele>2380.6000976562</ele>
        <time>2019-01-19T12:37:44.000Z</time>
      </trkpt>
      <trkpt lat="45.61649" lon="6.64103">
        <ele>2380.6000976562</ele>
        <time>2019-01-19T12:37:48.000Z</time>
      </trkpt>
      <trkpt lat="45.61649" lon="6.64099">
        <ele>2380.8000488281</ele>
        <time>2019-01-19T12:37:52.000Z</time>
      </trkpt>
      <trkpt lat="45.61649" lon="6.64098">
        <ele>2380.8000488281</ele>
        <time>2019-01-19T12:37:53.000Z</time>
      </trkpt>
      <trkpt lat="45.6165" lon="6.64092">
        <ele>2381.6000976562</ele>
        <time>2019-01-19T12:37:58.000Z</time>
      </trkpt>
      <trkpt lat="45.6165" lon="6.64091">
        <ele>2381.8000488281</ele>
        <time>2019-01-19T12:37:59.000Z</time>
      </trkpt>
      <trkpt lat="45.6165" lon="6.64087">
        <ele>2382.1999511719</ele>
        <time>2019-01-19T12:38:02.000Z</time>
      </trkpt>
      <trkpt lat="45.61649" lon="6.64082">
        <ele>2382.1999511719</ele>
        <time>2019-01-19T12:38:07.000Z</time>
      </trkpt>
      <trkpt lat="45.61649" lon="6.64076">
        <ele>2382.3999023438</ele>
        <time>2019-01-19T12:38:11.000Z</time>
      </trkpt>
      <trkpt lat="45.61649" lon="6.64075">
        <ele>2382.6000976562</ele>
        <time>2019-01-19T12:38:12.000Z</time>
      </trkpt>
      <trkpt lat="45.61647" lon="6.64071">
        <ele>2382.1999511719</ele>
        <time>2019-01-19T12:38:17.000Z</time>
      </trkpt>
      <trkpt lat="45.61643" lon="6.64068">
        <ele>2381.1999511719</ele>
        <time>2019-01-19T12:38:24.000Z</time>
      </trkpt>
      <trkpt lat="45.6164" lon="6.64066">
        <ele>2380.8000488281</ele>
        <time>2019-01-19T12:38:28.000Z</time>
      </trkpt>
      <trkpt lat="45.61637" lon="6.64061">
        <ele>2380.8000488281</ele>
        <time>2019-01-19T12:38:33.000Z</time>
      </trkpt>
      <trkpt lat="45.61636" lon="6.64057">
        <ele>2381.1999511719</ele>
        <time>2019-01-19T12:38:37.000Z</time>
      </trkpt>
      <trkpt lat="45.61635" lon="6.64055">
        <ele>2381.1999511719</ele>
        <time>2019-01-19T12:38:40.000Z</time>
      </trkpt>
      <trkpt lat="45.61635" lon="6.64054">
        <ele>2381.3999023438</ele>
        <time>2019-01-19T12:38:41.000Z</time>
      </trkpt>
      <trkpt lat="45.61636" lon="6.64052">
        <ele>2382</ele>
        <time>2019-01-19T12:38:45.000Z</time>
      </trkpt>
      <trkpt lat="45.61637" lon="6.64051">
        <ele>2382.1999511719</ele>
        <time>2019-01-19T12:38:46.000Z</time>
      </trkpt>
      <trkpt lat="45.61638" lon="6.64046">
        <ele>2383.1999511719</ele>
        <time>2019-01-19T12:38:51.000Z</time>
      </trkpt>
      <trkpt lat="45.61638" lon="6.64045">
        <ele>2383.3999023438</ele>
        <time>2019-01-19T12:38:53.000Z</time>
      </trkpt>
      <trkpt lat="45.61637" lon="6.64044">
        <ele>2383.3999023438</ele>
        <time>2019-01-19T12:38:55.000Z</time>
      </trkpt>
      <trkpt lat="45.61637" lon="6.64038">
        <ele>2384.3999023438</ele>
        <time>2019-01-19T12:39:01.000Z</time>
      </trkpt>
      <trkpt lat="45.61636" lon="6.64033">
        <ele>2384.8000488281</ele>
        <time>2019-01-19T12:39:06.000Z</time>
      </trkpt>
      <trkpt lat="45.61636" lon="6.64032">
        <ele>2385</ele>
        <time>2019-01-19T12:39:07.000Z</time>
      </trkpt>
      <trkpt lat="45.61636" lon="6.64025">
        <ele>2386</ele>
        <time>2019-01-19T12:39:12.000Z</time>
      </trkpt>
      <trkpt lat="45.61635" lon="6.64019">
        <ele>2386.8000488281</ele>
        <time>2019-01-19T12:39:18.000Z</time>
      </trkpt>
      <trkpt lat="45.61635" lon="6.64015">
        <ele>2387.3999023438</ele>
        <time>2019-01-19T12:39:21.000Z</time>
      </trkpt>
      <trkpt lat="45.61634" lon="6.64014">
        <ele>2387.3999023438</ele>
        <time>2019-01-19T12:39:22.000Z</time>
      </trkpt>
      <trkpt lat="45.61632" lon="6.6401">
        <ele>2387.6000976562</ele>
        <time>2019-01-19T12:39:28.000Z</time>
      </trkpt>
      <trkpt lat="45.61631" lon="6.64007">
        <ele>2387.8000488281</ele>
        <time>2019-01-19T12:39:31.000Z</time>
      </trkpt>
      <trkpt lat="45.61629" lon="6.64003">
        <ele>2388</ele>
        <time>2019-01-19T12:39:35.000Z</time>
      </trkpt>
      <trkpt lat="45.61629" lon="6.64002">
        <ele>2388.1999511719</ele>
        <time>2019-01-19T12:39:38.000Z</time>
      </trkpt>
      <trkpt lat="45.6163" lon="6.64001">
        <ele>2388.3999023438</ele>
        <time>2019-01-19T12:39:40.000Z</time>
      </trkpt>
      <trkpt lat="45.6163" lon="6.64">
        <ele>2388.6000976562</ele>
        <time>2019-01-19T12:39:44.000Z</time>
      </trkpt>
      <trkpt lat="45.61631" lon="6.63999">
        <ele>2389.1999511719</ele>
        <time>2019-01-19T12:39:48.000Z</time>
      </trkpt>
      <trkpt lat="45.61632" lon="6.63999">
        <ele>2389.1999511719</ele>
        <time>2019-01-19T12:39:50.000Z</time>
      </trkpt>
      <trkpt lat="45.61632" lon="6.63998">
        <ele>2389.3999023438</ele>
        <time>2019-01-19T12:39:54.000Z</time>
      </trkpt>
      <trkpt lat="45.61632" lon="6.63998">
        <ele>2389.3999023438</ele>
        <time>2019-01-19T12:39:58.000Z</time>
      </trkpt>
      <trkpt lat="45.61633" lon="6.63998">
        <ele>2389.6000976562</ele>
        <time>2019-01-19T12:40:02.000Z</time>
      </trkpt>
      <trkpt lat="45.61637" lon="6.63997">
        <ele>2390.6000976562</ele>
        <time>2019-01-19T12:40:07.000Z</time>
      </trkpt>
      <trkpt lat="45.61638" lon="6.63995">
        <ele>2391.1999511719</ele>
        <time>2019-01-19T12:40:10.000Z</time>
      </trkpt>
      <trkpt lat="45.61642" lon="6.63997">
        <ele>2392</ele>
        <time>2019-01-19T12:40:16.000Z</time>
      </trkpt>
      <trkpt lat="45.61643" lon="6.63997">
        <ele>2392.1999511719</ele>
        <time>2019-01-19T12:40:17.000Z</time>
      </trkpt>
      <trkpt lat="45.61647" lon="6.63995">
        <ele>2393.6000976562</ele>
        <time>2019-01-19T12:40:21.000Z</time>
      </trkpt>
      <trkpt lat="45.61647" lon="6.63994">
        <ele>2393.8000488281</ele>
        <time>2019-01-19T12:40:22.000Z</time>
      </trkpt>
      <trkpt lat="45.61647" lon="6.6399">
        <ele>2394</ele>
        <time>2019-01-19T12:40:25.000Z</time>
      </trkpt>
      <trkpt lat="45.61647" lon="6.63987">
        <ele>2394.1999511719</ele>
        <time>2019-01-19T12:40:29.000Z</time>
      </trkpt>
      <trkpt lat="45.61646" lon="6.63986">
        <ele>2394.1999511719</ele>
        <time>2019-01-19T12:40:30.000Z</time>
      </trkpt>
      <trkpt lat="45.61644" lon="6.63982">
        <ele>2395</ele>
        <time>2019-01-19T12:40:36.000Z</time>
      </trkpt>
      <trkpt lat="45.61642" lon="6.6398">
        <ele>2395.3999023438</ele>
        <time>2019-01-19T12:40:41.000Z</time>
      </trkpt>
      <trkpt lat="45.61641" lon="6.63979">
        <ele>2395.6000976562</ele>
        <time>2019-01-19T12:40:43.000Z</time>
      </trkpt>
      <trkpt lat="45.6164" lon="6.63976">
        <ele>2396.1999511719</ele>
        <time>2019-01-19T12:40:47.000Z</time>
      </trkpt>
      <trkpt lat="45.61639" lon="6.63975">
        <ele>2396.3999023438</ele>
        <time>2019-01-19T12:40:48.000Z</time>
      </trkpt>
      <trkpt lat="45.61635" lon="6.63971">
        <ele>2397.1999511719</ele>
        <time>2019-01-19T12:40:53.000Z</time>
      </trkpt>
      <trkpt lat="45.61635" lon="6.63971">
        <ele>2397.1999511719</ele>
        <time>2019-01-19T12:40:54.000Z</time>
      </trkpt>
      <trkpt lat="45.61633" lon="6.63968">
        <ele>2397.6000976562</ele>
        <time>2019-01-19T12:40:58.000Z</time>
      </trkpt>
      <trkpt lat="45.6163" lon="6.63966">
        <ele>2397.8000488281</ele>
        <time>2019-01-19T12:41:02.000Z</time>
      </trkpt>
      <trkpt lat="45.61629" lon="6.63966">
        <ele>2397.8000488281</ele>
        <time>2019-01-19T12:41:03.000Z</time>
      </trkpt>
      <trkpt lat="45.61626" lon="6.63963">
        <ele>2398.1999511719</ele>
        <time>2019-01-19T12:41:07.000Z</time>
      </trkpt>
      <trkpt lat="45.61622" lon="6.63961">
        <ele>2398.1999511719</ele>
        <time>2019-01-19T12:41:11.000Z</time>
      </trkpt>
      <trkpt lat="45.61622" lon="6.63961">
        <ele>2398.1999511719</ele>
        <time>2019-01-19T12:41:12.000Z</time>
      </trkpt>
      <trkpt lat="45.61619" lon="6.63958">
        <ele>2398.8000488281</ele>
        <time>2019-01-19T12:41:18.000Z</time>
      </trkpt>
      <trkpt lat="45.61619" lon="6.63957">
        <ele>2399.3999023438</ele>
        <time>2019-01-19T12:41:19.000Z</time>
      </trkpt>
      <trkpt lat="45.61616" lon="6.63952">
        <ele>2400.3999023438</ele>
        <time>2019-01-19T12:41:25.000Z</time>
      </trkpt>
      <trkpt lat="45.61614" lon="6.63948">
        <ele>2401.6000976562</ele>
        <time>2019-01-19T12:41:30.000Z</time>
      </trkpt>
      <trkpt lat="45.61612" lon="6.63946">
        <ele>2401.8000488281</ele>
        <time>2019-01-19T12:41:32.000Z</time>
      </trkpt>
      <trkpt lat="45.61612" lon="6.63943">
        <ele>2403</ele>
        <time>2019-01-19T12:41:37.000Z</time>
      </trkpt>
      <trkpt lat="45.61611" lon="6.63941">
        <ele>2403.6000976562</ele>
        <time>2019-01-19T12:41:38.000Z</time>
      </trkpt>
      <trkpt lat="45.61612" lon="6.63938">
        <ele>2404.8000488281</ele>
        <time>2019-01-19T12:41:43.000Z</time>
      </trkpt>
      <trkpt lat="45.61613" lon="6.63939">
        <ele>2404.6000976562</ele>
        <time>2019-01-19T12:41:49.000Z</time>
      </trkpt>
      <trkpt lat="45.61615" lon="6.63939">
        <ele>2405</ele>
        <time>2019-01-19T12:41:51.000Z</time>
      </trkpt>
      <trkpt lat="45.61617" lon="6.63939">
        <ele>2405.3999023438</ele>
        <time>2019-01-19T12:41:57.000Z</time>
      </trkpt>
      <trkpt lat="45.61623" lon="6.63936">
        <ele>2407.1999511719</ele>
        <time>2019-01-19T12:42:03.000Z</time>
      </trkpt>
      <trkpt lat="45.61624" lon="6.63936">
        <ele>2407.3999023438</ele>
        <time>2019-01-19T12:42:04.000Z</time>
      </trkpt>
      <trkpt lat="45.61626" lon="6.63935">
        <ele>2408.1999511719</ele>
        <time>2019-01-19T12:42:07.000Z</time>
      </trkpt>
      <trkpt lat="45.61627" lon="6.63935">
        <ele>2408.3999023438</ele>
        <time>2019-01-19T12:42:09.000Z</time>
      </trkpt>
      <trkpt lat="45.61628" lon="6.63935">
        <ele>2408.6000976562</ele>
        <time>2019-01-19T12:42:14.000Z</time>
      </trkpt>
      <trkpt lat="45.6163" lon="6.63934">
        <ele>2409.1999511719</ele>
        <time>2019-01-19T12:42:17.000Z</time>
      </trkpt>
      <trkpt lat="45.6163" lon="6.63934">
        <ele>2409.1999511719</ele>
        <time>2019-01-19T12:42:18.000Z</time>
      </trkpt>
      <trkpt lat="45.61633" lon="6.63932">
        <ele>2410.3999023438</ele>
        <time>2019-01-19T12:42:23.000Z</time>
      </trkpt>
      <trkpt lat="45.61635" lon="6.63932">
        <ele>2410.8000488281</ele>
        <time>2019-01-19T12:42:29.000Z</time>
      </trkpt>
      <trkpt lat="45.61635" lon="6.63931">
        <ele>2411</ele>
        <time>2019-01-19T12:42:30.000Z</time>
      </trkpt>
      <trkpt lat="45.6164" lon="6.63931">
        <ele>2412.1999511719</ele>
        <time>2019-01-19T12:42:36.000Z</time>
      </trkpt>
      <trkpt lat="45.61642" lon="6.63931">
        <ele>2412.6000976562</ele>
        <time>2019-01-19T12:42:40.000Z</time>
      </trkpt>
      <trkpt lat="45.61644" lon="6.63932">
        <ele>2412.3999023438</ele>
        <time>2019-01-19T12:42:42.000Z</time>
      </trkpt>
      <trkpt lat="45.61647" lon="6.63931">
        <ele>2413.6000976562</ele>
        <time>2019-01-19T12:42:49.000Z</time>
      </trkpt>
      <trkpt lat="45.61648" lon="6.63931">
        <ele>2413.6000976562</ele>
        <time>2019-01-19T12:42:50.000Z</time>
      </trkpt>
      <trkpt lat="45.6165" lon="6.6393">
        <ele>2414.6000976562</ele>
        <time>2019-01-19T12:42:56.000Z</time>
      </trkpt>
      <trkpt lat="45.6165" lon="6.6393">
        <ele>2414.6000976562</ele>
        <time>2019-01-19T12:42:58.000Z</time>
      </trkpt>
      <trkpt lat="45.61653" lon="6.63931">
        <ele>2414.8000488281</ele>
        <time>2019-01-19T12:43:05.000Z</time>
      </trkpt>
      <trkpt lat="45.61654" lon="6.63931">
        <ele>2415</ele>
        <time>2019-01-19T12:43:06.000Z</time>
      </trkpt>
      <trkpt lat="45.61659" lon="6.63929">
        <ele>2417</ele>
        <time>2019-01-19T12:43:12.000Z</time>
      </trkpt>
      <trkpt lat="45.6166" lon="6.63929">
        <ele>2417.1999511719</ele>
        <time>2019-01-19T12:43:14.000Z</time>
      </trkpt>
      <trkpt lat="45.61663" lon="6.63927">
        <ele>2418.1999511719</ele>
        <time>2019-01-19T12:43:18.000Z</time>
      </trkpt>
      <trkpt lat="45.61665" lon="6.63927">
        <ele>2418.6000976562</ele>
        <time>2019-01-19T12:43:21.000Z</time>
      </trkpt>
      <trkpt lat="45.61669" lon="6.63929">
        <ele>2418.8000488281</ele>
        <time>2019-01-19T12:43:26.000Z</time>
      </trkpt>
      <trkpt lat="45.6167" lon="6.63929">
        <ele>2419</ele>
        <time>2019-01-19T12:43:28.000Z</time>
      </trkpt>
      <trkpt lat="45.61675" lon="6.63927">
        <ele>2420.8000488281</ele>
        <time>2019-01-19T12:43:34.000Z</time>
      </trkpt>
      <trkpt lat="45.61676" lon="6.63927">
        <ele>2421</ele>
        <time>2019-01-19T12:43:36.000Z</time>
      </trkpt>
      <trkpt lat="45.61677" lon="6.63927">
        <ele>2421.1999511719</ele>
        <time>2019-01-19T12:43:41.000Z</time>
      </trkpt>
      <trkpt lat="45.61683" lon="6.63924">
        <ele>2423.1999511719</ele>
        <time>2019-01-19T12:43:47.000Z</time>
      </trkpt>
      <trkpt lat="45.61683" lon="6.63924">
        <ele>2423.3999023438</ele>
        <time>2019-01-19T12:43:48.000Z</time>
      </trkpt>
      <trkpt lat="45.61688" lon="6.63924">
        <ele>2424.6000976562</ele>
        <time>2019-01-19T12:43:54.000Z</time>
      </trkpt>
      <trkpt lat="45.61689" lon="6.63923">
        <ele>2425</ele>
        <time>2019-01-19T12:43:55.000Z</time>
      </trkpt>
      <trkpt lat="45.61693" lon="6.63924">
        <ele>2425.3999023438</ele>
        <time>2019-01-19T12:44:00.000Z</time>
      </trkpt>
      <trkpt lat="45.61693" lon="6.63924">
        <ele>2425.6000976562</ele>
        <time>2019-01-19T12:44:01.000Z</time>
      </trkpt>
      <trkpt lat="45.61697" lon="6.63923">
        <ele>2426.3999023438</ele>
        <time>2019-01-19T12:44:08.000Z</time>
      </trkpt>
      <trkpt lat="45.61701" lon="6.63925">
        <ele>2427</ele>
        <time>2019-01-19T12:44:15.000Z</time>
      </trkpt>
      <trkpt lat="45.61704" lon="6.63924">
        <ele>2427.8000488281</ele>
        <time>2019-01-19T12:44:18.000Z</time>
      </trkpt>
      <trkpt lat="45.61707" lon="6.63923">
        <ele>2428.8000488281</ele>
        <time>2019-01-19T12:44:21.000Z</time>
      </trkpt>
      <trkpt lat="45.61708" lon="6.63921">
        <ele>2429.6000976562</ele>
        <time>2019-01-19T12:44:24.000Z</time>
      </trkpt>
      <trkpt lat="45.61709" lon="6.63921">
        <ele>2429.6000976562</ele>
        <time>2019-01-19T12:44:26.000Z</time>
      </trkpt>
      <trkpt lat="45.61712" lon="6.63922">
        <ele>2430</ele>
        <time>2019-01-19T12:44:31.000Z</time>
      </trkpt>
      <trkpt lat="45.61713" lon="6.63922">
        <ele>2430.1999511719</ele>
        <time>2019-01-19T12:44:33.000Z</time>
      </trkpt>
      <trkpt lat="45.61717" lon="6.63919">
        <ele>2432</ele>
        <time>2019-01-19T12:44:39.000Z</time>
      </trkpt>
      <trkpt lat="45.61721" lon="6.63916">
        <ele>2433.6000976562</ele>
        <time>2019-01-19T12:44:46.000Z</time>
      </trkpt>
      <trkpt lat="45.61721" lon="6.63916">
        <ele>2433.8000488281</ele>
        <time>2019-01-19T12:44:47.000Z</time>
      </trkpt>
      <trkpt lat="45.61725" lon="6.63914">
        <ele>2435.1999511719</ele>
        <time>2019-01-19T12:44:52.000Z</time>
      </trkpt>
      <trkpt lat="45.61726" lon="6.63914">
        <ele>2435.3999023438</ele>
        <time>2019-01-19T12:44:53.000Z</time>
      </trkpt>
      <trkpt lat="45.61731" lon="6.63912">
        <ele>2436.8000488281</ele>
        <time>2019-01-19T12:44:59.000Z</time>
      </trkpt>
      <trkpt lat="45.61732" lon="6.63913">
        <ele>2436.8000488281</ele>
        <time>2019-01-19T12:45:00.000Z</time>
      </trkpt>
      <trkpt lat="45.61734" lon="6.63913">
        <ele>2437</ele>
        <time>2019-01-19T12:45:06.000Z</time>
      </trkpt>
      <trkpt lat="45.61736" lon="6.63911">
        <ele>2437.6000976562</ele>
        <time>2019-01-19T12:45:09.000Z</time>
      </trkpt>
      <trkpt lat="45.61738" lon="6.63911">
        <ele>2437.8000488281</ele>
        <time>2019-01-19T12:45:13.000Z</time>
      </trkpt>
      <trkpt lat="45.61738" lon="6.63911">
        <ele>2437.8000488281</ele>
        <time>2019-01-19T12:45:14.000Z</time>
      </trkpt>
      <trkpt lat="45.6174" lon="6.63911">
        <ele>2438.1999511719</ele>
        <time>2019-01-19T12:45:18.000Z</time>
      </trkpt>
      <trkpt lat="45.61743" lon="6.63912">
        <ele>2438.3999023438</ele>
        <time>2019-01-19T12:45:24.000Z</time>
      </trkpt>
      <trkpt lat="45.61743" lon="6.63912">
        <ele>2438.3999023438</ele>
        <time>2019-01-19T12:45:25.000Z</time>
      </trkpt>
      <trkpt lat="45.61746" lon="6.63911">
        <ele>2438.8000488281</ele>
        <time>2019-01-19T12:45:30.000Z</time>
      </trkpt>
      <trkpt lat="45.61751" lon="6.63909">
        <ele>2440</ele>
        <time>2019-01-19T12:45:37.000Z</time>
      </trkpt>
      <trkpt lat="45.61751" lon="6.63909">
        <ele>2440</ele>
        <time>2019-01-19T12:45:38.000Z</time>
      </trkpt>
      <trkpt lat="45.61754" lon="6.63909">
        <ele>2440.1999511719</ele>
        <time>2019-01-19T12:45:45.000Z</time>
      </trkpt>
      <trkpt lat="45.61753" lon="6.63908">
        <ele>2440.6000976562</ele>
        <time>2019-01-19T12:45:53.000Z</time>
      </trkpt>
      <trkpt lat="45.6175" lon="6.63903">
        <ele>2441.6000976562</ele>
        <time>2019-01-19T12:45:57.000Z</time>
      </trkpt>
      <trkpt lat="45.61749" lon="6.639">
        <ele>2442.8000488281</ele>
        <time>2019-01-19T12:46:00.000Z</time>
      </trkpt>
      <trkpt lat="45.61748" lon="6.63897">
        <ele>2444.3999023438</ele>
        <time>2019-01-19T12:46:03.000Z</time>
      </trkpt>
      <trkpt lat="45.61746" lon="6.63894">
        <ele>2446</ele>
        <time>2019-01-19T12:46:07.000Z</time>
      </trkpt>
      <trkpt lat="45.6174" lon="6.6389">
        <ele>2447.3999023438</ele>
        <time>2019-01-19T12:46:14.000Z</time>
      </trkpt>
      <trkpt lat="45.61739" lon="6.63888">
        <ele>2448.6000976562</ele>
        <time>2019-01-19T12:46:20.000Z</time>
      </trkpt>
      <trkpt lat="45.61735" lon="6.63886">
        <ele>2449.1999511719</ele>
        <time>2019-01-19T12:46:24.000Z</time>
      </trkpt>
      <trkpt lat="45.61735" lon="6.63886">
        <ele>2449.1999511719</ele>
        <time>2019-01-19T12:46:25.000Z</time>
      </trkpt>
      <trkpt lat="45.61734" lon="6.63884">
        <ele>2450</ele>
        <time>2019-01-19T12:46:28.000Z</time>
      </trkpt>
      <trkpt lat="45.61733" lon="6.63881">
        <ele>2451.6000976562</ele>
        <time>2019-01-19T12:46:31.000Z</time>
      </trkpt>
      <trkpt lat="45.61732" lon="6.63881">
        <ele>2451.6000976562</ele>
        <time>2019-01-19T12:46:33.000Z</time>
      </trkpt>
      <trkpt lat="45.61731" lon="6.63881">
        <ele>2451.3999023438</ele>
        <time>2019-01-19T12:46:37.000Z</time>
      </trkpt>
      <trkpt lat="45.61728" lon="6.63879">
        <ele>2452.1999511719</ele>
        <time>2019-01-19T12:46:43.000Z</time>
      </trkpt>
      <trkpt lat="45.61727" lon="6.63879">
        <ele>2452.1999511719</ele>
        <time>2019-01-19T12:46:45.000Z</time>
      </trkpt>
      <trkpt lat="45.61723" lon="6.63877">
        <ele>2452.6000976562</ele>
        <time>2019-01-19T12:46:49.000Z</time>
      </trkpt>
      <trkpt lat="45.61722" lon="6.63876">
        <ele>2453.6000976562</ele>
        <time>2019-01-19T12:46:51.000Z</time>
      </trkpt>
      <trkpt lat="45.61721" lon="6.63874">
        <ele>2454.1999511719</ele>
        <time>2019-01-19T12:46:53.000Z</time>
      </trkpt>
      <trkpt lat="45.61719" lon="6.63871">
        <ele>2455.6000976562</ele>
        <time>2019-01-19T12:46:59.000Z</time>
      </trkpt>
      <trkpt lat="45.61719" lon="6.63871">
        <ele>2455.6000976562</ele>
        <time>2019-01-19T12:47:00.000Z</time>
      </trkpt>
      <trkpt lat="45.61716" lon="6.63867">
        <ele>2457.6000976562</ele>
        <time>2019-01-19T12:47:05.000Z</time>
      </trkpt>
      <trkpt lat="45.61713" lon="6.63866">
        <ele>2457.8000488281</ele>
        <time>2019-01-19T12:47:09.000Z</time>
      </trkpt>
      <trkpt lat="45.61713" lon="6.63866">
        <ele>2457.8000488281</ele>
        <time>2019-01-19T12:47:11.000Z</time>
      </trkpt>
      <trkpt lat="45.61708" lon="6.63865">
        <ele>2457.8000488281</ele>
        <time>2019-01-19T12:47:15.000Z</time>
      </trkpt>
      <trkpt lat="45.61707" lon="6.63865">
        <ele>2457.3999023438</ele>
        <time>2019-01-19T12:47:16.000Z</time>
      </trkpt>
      <trkpt lat="45.61705" lon="6.63865">
        <ele>2457</ele>
        <time>2019-01-19T12:47:19.000Z</time>
      </trkpt>
      <trkpt lat="45.61703" lon="6.63864">
        <ele>2457.6000976562</ele>
        <time>2019-01-19T12:47:24.000Z</time>
      </trkpt>
      <trkpt lat="45.61702" lon="6.63863">
        <ele>2458</ele>
        <time>2019-01-19T12:47:25.000Z</time>
      </trkpt>
      <trkpt lat="45.61698" lon="6.63861">
        <ele>2458.3999023438</ele>
        <time>2019-01-19T12:47:31.000Z</time>
      </trkpt>
      <trkpt lat="45.61697" lon="6.63861">
        <ele>2458.3999023438</ele>
        <time>2019-01-19T12:47:33.000Z</time>
      </trkpt>
      <trkpt lat="45.61696" lon="6.6386">
        <ele>2458.8000488281</ele>
        <time>2019-01-19T12:47:37.000Z</time>
      </trkpt>
      <trkpt lat="45.61694" lon="6.63859">
        <ele>2459.1999511719</ele>
        <time>2019-01-19T12:47:42.000Z</time>
      </trkpt>
      <trkpt lat="45.61693" lon="6.63858">
        <ele>2459.3999023438</ele>
        <time>2019-01-19T12:47:44.000Z</time>
      </trkpt>
      <trkpt lat="45.6169" lon="6.63856">
        <ele>2460.3999023438</ele>
        <time>2019-01-19T12:47:48.000Z</time>
      </trkpt>
      <trkpt lat="45.61689" lon="6.63856">
        <ele>2460.3999023438</ele>
        <time>2019-01-19T12:47:50.000Z</time>
      </trkpt>
      <trkpt lat="45.61688" lon="6.63856">
        <ele>2460.3999023438</ele>
        <time>2019-01-19T12:47:52.000Z</time>
      </trkpt>
      <trkpt lat="45.61683" lon="6.63856">
        <ele>2459.1999511719</ele>
        <time>2019-01-19T12:47:58.000Z</time>
      </trkpt>
      <trkpt lat="45.61682" lon="6.63856">
        <ele>2459.1999511719</ele>
        <time>2019-01-19T12:47:59.000Z</time>
      </trkpt>
      <trkpt lat="45.61682" lon="6.63857">
        <ele>2458.8000488281</ele>
        <time>2019-01-19T12:48:03.000Z</time>
      </trkpt>
      <trkpt lat="45.61681" lon="6.63858">
        <ele>2458.1999511719</ele>
        <time>2019-01-19T12:48:07.000Z</time>
      </trkpt>
      <trkpt lat="45.61681" lon="6.63858">
        <ele>2458.1999511719</ele>
        <time>2019-01-19T12:48:10.000Z</time>
      </trkpt>
      <trkpt lat="45.61683" lon="6.63857">
        <ele>2458.8000488281</ele>
        <time>2019-01-19T12:48:17.000Z</time>
      </trkpt>
      <trkpt lat="45.61684" lon="6.63857">
        <ele>2459.1999511719</ele>
        <time>2019-01-19T12:48:19.000Z</time>
      </trkpt>
      <trkpt lat="45.61689" lon="6.63854">
        <ele>2461.3999023438</ele>
        <time>2019-01-19T12:48:24.000Z</time>
      </trkpt>
      <trkpt lat="45.61691" lon="6.63853">
        <ele>2462.3999023438</ele>
        <time>2019-01-19T12:48:28.000Z</time>
      </trkpt>
      <trkpt lat="45.61693" lon="6.6385">
        <ele>2464</ele>
        <time>2019-01-19T12:48:31.000Z</time>
      </trkpt>
      <trkpt lat="45.61696" lon="6.6385">
        <ele>2464.3999023438</ele>
        <time>2019-01-19T12:48:36.000Z</time>
      </trkpt>
      <trkpt lat="45.61696" lon="6.6385">
        <ele>2464.3999023438</ele>
        <time>2019-01-19T12:48:37.000Z</time>
      </trkpt>
      <trkpt lat="45.61697" lon="6.6385">
        <ele>2465</ele>
        <time>2019-01-19T12:48:43.000Z</time>
      </trkpt>
      <trkpt lat="45.617" lon="6.63848">
        <ele>2465.8000488281</ele>
        <time>2019-01-19T12:48:45.000Z</time>
      </trkpt>
      <trkpt lat="45.61704" lon="6.63847">
        <ele>2467.3999023438</ele>
        <time>2019-01-19T12:48:50.000Z</time>
      </trkpt>
      <trkpt lat="45.61705" lon="6.63847">
        <ele>2467.6000976562</ele>
        <time>2019-01-19T12:48:51.000Z</time>
      </trkpt>
      <trkpt lat="45.61711" lon="6.63843">
        <ele>2470.1999511719</ele>
        <time>2019-01-19T12:48:59.000Z</time>
      </trkpt>
      <trkpt lat="45.61712" lon="6.63843">
        <ele>2470.8000488281</ele>
        <time>2019-01-19T12:49:00.000Z</time>
      </trkpt>
      <trkpt lat="45.61716" lon="6.63842">
        <ele>2471.8000488281</ele>
        <time>2019-01-19T12:49:05.000Z</time>
      </trkpt>
      <trkpt lat="45.61717" lon="6.63842">
        <ele>2472</ele>
        <time>2019-01-19T12:49:06.000Z</time>
      </trkpt>
      <trkpt lat="45.61722" lon="6.63843">
        <ele>2471.8000488281</ele>
        <time>2019-01-19T12:49:13.000Z</time>
      </trkpt>
      <trkpt lat="45.61725" lon="6.63844">
        <ele>2472</ele>
        <time>2019-01-19T12:49:21.000Z</time>
      </trkpt>
      <trkpt lat="45.61725" lon="6.63843">
        <ele>2472.3999023438</ele>
        <time>2019-01-19T12:49:22.000Z</time>
      </trkpt>
      <trkpt lat="45.61729" lon="6.63841">
        <ele>2474</ele>
        <time>2019-01-19T12:49:28.000Z</time>
      </trkpt>
      <trkpt lat="45.61733" lon="6.6384">
        <ele>2474.8000488281</ele>
        <time>2019-01-19T12:49:32.000Z</time>
      </trkpt>
      <trkpt lat="45.61735" lon="6.6384">
        <ele>2475</ele>
        <time>2019-01-19T12:49:34.000Z</time>
      </trkpt>
      <trkpt lat="45.61737" lon="6.6384">
        <ele>2475.6000976562</ele>
        <time>2019-01-19T12:49:36.000Z</time>
      </trkpt>
      <trkpt lat="45.61739" lon="6.63839">
        <ele>2476.1999511719</ele>
        <time>2019-01-19T12:49:38.000Z</time>
      </trkpt>
      <trkpt lat="45.61741" lon="6.63838">
        <ele>2476.8000488281</ele>
        <time>2019-01-19T12:49:39.000Z</time>
      </trkpt>
      <trkpt lat="45.61743" lon="6.63837">
        <ele>2478.1999511719</ele>
        <time>2019-01-19T12:49:43.000Z</time>
      </trkpt>
      <trkpt lat="45.61743" lon="6.63836">
        <ele>2478.3999023438</ele>
        <time>2019-01-19T12:49:44.000Z</time>
      </trkpt>
      <trkpt lat="45.61744" lon="6.63835">
        <ele>2479.1999511719</ele>
        <time>2019-01-19T12:49:49.000Z</time>
      </trkpt>
      <trkpt lat="45.61744" lon="6.63835">
        <ele>2479.1999511719</ele>
        <time>2019-01-19T12:49:50.000Z</time>
      </trkpt>
      <trkpt lat="45.61749" lon="6.63835">
        <ele>2480.1999511719</ele>
        <time>2019-01-19T12:49:57.000Z</time>
      </trkpt>
      <trkpt lat="45.61749" lon="6.63834">
        <ele>2480.6000976562</ele>
        <time>2019-01-19T12:49:58.000Z</time>
      </trkpt>
      <trkpt lat="45.61753" lon="6.63833">
        <ele>2481.6000976562</ele>
        <time>2019-01-19T12:50:02.000Z</time>
      </trkpt>
      <trkpt lat="45.61754" lon="6.63833">
        <ele>2482</ele>
        <time>2019-01-19T12:50:04.000Z</time>
      </trkpt>
      <trkpt lat="45.61757" lon="6.63831">
        <ele>2483.1999511719</ele>
        <time>2019-01-19T12:50:10.000Z</time>
      </trkpt>
      <trkpt lat="45.61761" lon="6.63831">
        <ele>2483.8000488281</ele>
        <time>2019-01-19T12:50:16.000Z</time>
      </trkpt>
      <trkpt lat="45.61762" lon="6.63832">
        <ele>2483.3999023438</ele>
        <time>2019-01-19T12:50:18.000Z</time>
      </trkpt>
      <trkpt lat="45.61764" lon="6.63833">
        <ele>2483.1999511719</ele>
        <time>2019-01-19T12:50:22.000Z</time>
      </trkpt>
      <trkpt lat="45.61766" lon="6.63831">
        <ele>2484.6000976562</ele>
        <time>2019-01-19T12:50:25.000Z</time>
      </trkpt>
      <trkpt lat="45.61767" lon="6.63831">
        <ele>2484.6000976562</ele>
        <time>2019-01-19T12:50:28.000Z</time>
      </trkpt>
      <trkpt lat="45.61767" lon="6.63831">
        <ele>2484.6000976562</ele>
        <time>2019-01-19T12:50:30.000Z</time>
      </trkpt>
      <trkpt lat="45.61767" lon="6.63831">
        <ele>2484.6000976562</ele>
        <time>2019-01-19T12:50:38.000Z</time>
      </trkpt>
      <trkpt lat="45.61761" lon="6.63828">
        <ele>2486</ele>
        <time>2019-01-19T12:50:44.000Z</time>
      </trkpt>
      <trkpt lat="45.6176" lon="6.63826">
        <ele>2487</ele>
        <time>2019-01-19T12:50:48.000Z</time>
      </trkpt>
      <trkpt lat="45.61758" lon="6.63823">
        <ele>2488.3999023438</ele>
        <time>2019-01-19T12:50:53.000Z</time>
      </trkpt>
      <trkpt lat="45.61752" lon="6.63821">
        <ele>2488.6000976562</ele>
        <time>2019-01-19T12:50:59.000Z</time>
      </trkpt>
      <trkpt lat="45.6175" lon="6.63819">
        <ele>2489.1999511719</ele>
        <time>2019-01-19T12:51:04.000Z</time>
      </trkpt>
      <trkpt lat="45.61748" lon="6.63819">
        <ele>2489.3999023438</ele>
        <time>2019-01-19T12:51:07.000Z</time>
      </trkpt>
      <trkpt lat="45.61747" lon="6.63817">
        <ele>2490.3999023438</ele>
        <time>2019-01-19T12:51:10.000Z</time>
      </trkpt>
      <trkpt lat="45.61744" lon="6.63814">
        <ele>2491.8000488281</ele>
        <time>2019-01-19T12:51:15.000Z</time>
      </trkpt>
      <trkpt lat="45.61742" lon="6.63816">
        <ele>2490.6000976562</ele>
        <time>2019-01-19T12:51:20.000Z</time>
      </trkpt>
      <trkpt lat="45.61741" lon="6.63815">
        <ele>2490.8000488281</ele>
        <time>2019-01-19T12:51:21.000Z</time>
      </trkpt>
      <trkpt lat="45.61737" lon="6.63814">
        <ele>2491.3999023438</ele>
        <time>2019-01-19T12:51:25.000Z</time>
      </trkpt>
      <trkpt lat="45.61736" lon="6.63813">
        <ele>2491.3999023438</ele>
        <time>2019-01-19T12:51:27.000Z</time>
      </trkpt>
      <trkpt lat="45.61734" lon="6.63814">
        <ele>2490.8000488281</ele>
        <time>2019-01-19T12:51:29.000Z</time>
      </trkpt>
      <trkpt lat="45.61732" lon="6.63811">
        <ele>2492.6000976562</ele>
        <time>2019-01-19T12:51:35.000Z</time>
      </trkpt>
      <trkpt lat="45.61731" lon="6.6381">
        <ele>2492.8000488281</ele>
        <time>2019-01-19T12:51:37.000Z</time>
      </trkpt>
      <trkpt lat="45.61727" lon="6.6381">
        <ele>2492.1999511719</ele>
        <time>2019-01-19T12:51:41.000Z</time>
      </trkpt>
      <trkpt lat="45.61725" lon="6.63809">
        <ele>2493</ele>
        <time>2019-01-19T12:51:44.000Z</time>
      </trkpt>
      <trkpt lat="45.61725" lon="6.63808">
        <ele>2493.3999023438</ele>
        <time>2019-01-19T12:51:45.000Z</time>
      </trkpt>
      <trkpt lat="45.61723" lon="6.63807">
        <ele>2494</ele>
        <time>2019-01-19T12:51:51.000Z</time>
      </trkpt>
      <trkpt lat="45.61722" lon="6.63807">
        <ele>2493.8000488281</ele>
        <time>2019-01-19T12:51:53.000Z</time>
      </trkpt>
      <trkpt lat="45.61718" lon="6.63808">
        <ele>2492.1999511719</ele>
        <time>2019-01-19T12:51:59.000Z</time>
      </trkpt>
      <trkpt lat="45.61716" lon="6.63808">
        <ele>2492</ele>
        <time>2019-01-19T12:52:05.000Z</time>
      </trkpt>
      <trkpt lat="45.61713" lon="6.63808">
        <ele>2491.6000976562</ele>
        <time>2019-01-19T12:52:10.000Z</time>
      </trkpt>
      <trkpt lat="45.61709" lon="6.63807">
        <ele>2491.8000488281</ele>
        <time>2019-01-19T12:52:15.000Z</time>
      </trkpt>
      <trkpt lat="45.61708" lon="6.63807">
        <ele>2491.3999023438</ele>
        <time>2019-01-19T12:52:17.000Z</time>
      </trkpt>
      <trkpt lat="45.61708" lon="6.63807">
        <ele>2491.6000976562</ele>
        <time>2019-01-19T12:52:28.000Z</time>
      </trkpt>
      <trkpt lat="45.61708" lon="6.63807">
        <ele>2491.6000976562</ele>
        <time>2019-01-19T12:52:35.000Z</time>
      </trkpt>
      <trkpt lat="45.61707" lon="6.63805">
        <ele>2492.8000488281</ele>
        <time>2019-01-19T12:52:38.000Z</time>
      </trkpt>
      <trkpt lat="45.61708" lon="6.63804">
        <ele>2493.1999511719</ele>
        <time>2019-01-19T12:52:42.000Z</time>
      </trkpt>
      <trkpt lat="45.61708" lon="6.63804">
        <ele>2493.1999511719</ele>
        <time>2019-01-19T12:52:45.000Z</time>
      </trkpt>
      <trkpt lat="45.6171" lon="6.63803">
        <ele>2494.6000976562</ele>
        <time>2019-01-19T12:52:52.000Z</time>
      </trkpt>
      <trkpt lat="45.61713" lon="6.63801">
        <ele>2496.1999511719</ele>
        <time>2019-01-19T12:52:55.000Z</time>
      </trkpt>
      <trkpt lat="45.61717" lon="6.638">
        <ele>2497.8000488281</ele>
        <time>2019-01-19T12:53:00.000Z</time>
      </trkpt>
      <trkpt lat="45.6172" lon="6.63797">
        <ele>2500</ele>
        <time>2019-01-19T12:53:04.000Z</time>
      </trkpt>
      <trkpt lat="45.61721" lon="6.63798">
        <ele>2500</ele>
        <time>2019-01-19T12:53:07.000Z</time>
      </trkpt>
      <trkpt lat="45.61721" lon="6.63798">
        <ele>2500</ele>
        <time>2019-01-19T12:53:11.000Z</time>
      </trkpt>
      <trkpt lat="45.61721" lon="6.63797">
        <ele>2500.1999511719</ele>
        <time>2019-01-19T12:53:15.000Z</time>
      </trkpt>
      <trkpt lat="45.61721" lon="6.63797">
        <ele>2500.1999511719</ele>
        <time>2019-01-19T12:53:16.000Z</time>
      </trkpt>
      <trkpt lat="45.61723" lon="6.63797">
        <ele>2500.6000976562</ele>
        <time>2019-01-19T12:53:21.000Z</time>
      </trkpt>
      <trkpt lat="45.61726" lon="6.63795">
        <ele>2502.6000976562</ele>
        <time>2019-01-19T12:53:25.000Z</time>
      </trkpt>
      <trkpt lat="45.61727" lon="6.63794">
        <ele>2503.1999511719</ele>
        <time>2019-01-19T12:53:28.000Z</time>
      </trkpt>
      <trkpt lat="45.61727" lon="6.63794">
        <ele>2503.1999511719</ele>
        <time>2019-01-19T12:53:34.000Z</time>
      </trkpt>
      <trkpt lat="45.61727" lon="6.63794">
        <ele>2503.1999511719</ele>
        <time>2019-01-19T12:53:38.000Z</time>
      </trkpt>
      <trkpt lat="45.61728" lon="6.63794">
        <ele>2503.1999511719</ele>
        <time>2019-01-19T12:53:45.000Z</time>
      </trkpt>
      <trkpt lat="45.61732" lon="6.63793">
        <ele>2504.6000976562</ele>
        <time>2019-01-19T12:53:54.000Z</time>
      </trkpt>
      <trkpt lat="45.61734" lon="6.63793">
        <ele>2505.1999511719</ele>
        <time>2019-01-19T12:53:58.000Z</time>
      </trkpt>
      <trkpt lat="45.61734" lon="6.63793">
        <ele>2505.1999511719</ele>
        <time>2019-01-19T12:54:01.000Z</time>
      </trkpt>
      <trkpt lat="45.61734" lon="6.63792">
        <ele>2506</ele>
        <time>2019-01-19T12:54:12.000Z</time>
      </trkpt>
      <trkpt lat="45.61733" lon="6.63791">
        <ele>2506.1999511719</ele>
        <time>2019-01-19T12:54:18.000Z</time>
      </trkpt>
      <trkpt lat="45.61732" lon="6.63789">
        <ele>2507.3999023438</ele>
        <time>2019-01-19T12:54:20.000Z</time>
      </trkpt>
      <trkpt lat="45.61732" lon="6.63789">
        <ele>2507.3999023438</ele>
        <time>2019-01-19T12:54:22.000Z</time>
      </trkpt>
      <trkpt lat="45.61729" lon="6.63789">
        <ele>2507.3999023438</ele>
        <time>2019-01-19T12:54:27.000Z</time>
      </trkpt>
      <trkpt lat="45.61727" lon="6.63788">
        <ele>2507.3999023438</ele>
        <time>2019-01-19T12:54:34.000Z</time>
      </trkpt>
      <trkpt lat="45.61726" lon="6.63788">
        <ele>2507.1999511719</ele>
        <time>2019-01-19T12:54:38.000Z</time>
      </trkpt>
      <trkpt lat="45.61726" lon="6.63788">
        <ele>2507.1999511719</ele>
        <time>2019-01-19T12:54:40.000Z</time>
      </trkpt>
      <trkpt lat="45.61724" lon="6.63788">
        <ele>2507.1999511719</ele>
        <time>2019-01-19T12:54:45.000Z</time>
      </trkpt>
      <trkpt lat="45.61722" lon="6.63788">
        <ele>2506.8000488281</ele>
        <time>2019-01-19T12:54:49.000Z</time>
      </trkpt>
      <trkpt lat="45.61721" lon="6.63788">
        <ele>2507</ele>
        <time>2019-01-19T12:54:51.000Z</time>
      </trkpt>
      <trkpt lat="45.6172" lon="6.63787">
        <ele>2507</ele>
        <time>2019-01-19T12:54:56.000Z</time>
      </trkpt>
      <trkpt lat="45.61718" lon="6.63785">
        <ele>2508.1999511719</ele>
        <time>2019-01-19T12:55:02.000Z</time>
      </trkpt>
      <trkpt lat="45.61717" lon="6.63783">
        <ele>2509.6000976562</ele>
        <time>2019-01-19T12:55:09.000Z</time>
      </trkpt>
      <trkpt lat="45.61716" lon="6.63782">
        <ele>2510</ele>
        <time>2019-01-19T12:55:14.000Z</time>
      </trkpt>
      <trkpt lat="45.61716" lon="6.63782">
        <ele>2510</ele>
        <time>2019-01-19T12:55:15.000Z</time>
      </trkpt>
      <trkpt lat="45.61712" lon="6.6378">
        <ele>2510.8000488281</ele>
        <time>2019-01-19T12:55:20.000Z</time>
      </trkpt>
      <trkpt lat="45.6171" lon="6.63779">
        <ele>2510.6000976562</ele>
        <time>2019-01-19T12:55:25.000Z</time>
      </trkpt>
      <trkpt lat="45.6171" lon="6.63779">
        <ele>2510.8000488281</ele>
        <time>2019-01-19T12:55:31.000Z</time>
      </trkpt>
      <trkpt lat="45.6171" lon="6.63779">
        <ele>2510.8000488281</ele>
        <time>2019-01-19T12:55:35.000Z</time>
      </trkpt>
      <trkpt lat="45.6171" lon="6.63779">
        <ele>2510.8000488281</ele>
        <time>2019-01-19T12:55:38.000Z</time>
      </trkpt>
      <trkpt lat="45.6171" lon="6.63781">
        <ele>2509.3999023438</ele>
        <time>2019-01-19T12:55:40.000Z</time>
      </trkpt>
      <trkpt lat="45.6171" lon="6.63781">
        <ele>2509.3999023438</ele>
        <time>2019-01-19T12:55:41.000Z</time>
      </trkpt>
      <trkpt lat="45.6171" lon="6.63782">
        <ele>2508.6000976562</ele>
        <time>2019-01-19T12:55:45.000Z</time>
      </trkpt>
      <trkpt lat="45.6171" lon="6.63783">
        <ele>2508.1999511719</ele>
        <time>2019-01-19T12:55:48.000Z</time>
      </trkpt>
      <trkpt lat="45.61714" lon="6.63781">
        <ele>2510.3999023438</ele>
        <time>2019-01-19T12:55:55.000Z</time>
      </trkpt>
      <trkpt lat="45.61715" lon="6.6378">
        <ele>2511</ele>
        <time>2019-01-19T12:56:03.000Z</time>
      </trkpt>
      <trkpt lat="45.61715" lon="6.6378">
        <ele>2511</ele>
        <time>2019-01-19T12:56:05.000Z</time>
      </trkpt>
      <trkpt lat="45.61716" lon="6.63779">
        <ele>2511.8000488281</ele>
        <time>2019-01-19T12:56:11.000Z</time>
      </trkpt>
      <trkpt lat="45.61717" lon="6.63778">
        <ele>2512.8000488281</ele>
        <time>2019-01-19T12:56:16.000Z</time>
      </trkpt>
      <trkpt lat="45.61717" lon="6.63778">
        <ele>2512.8000488281</ele>
        <time>2019-01-19T12:56:19.000Z</time>
      </trkpt>
      <trkpt lat="45.6172" lon="6.63777">
        <ele>2513.8000488281</ele>
        <time>2019-01-19T12:56:26.000Z</time>
      </trkpt>
      <trkpt lat="45.61722" lon="6.63776">
        <ele>2514.6000976562</ele>
        <time>2019-01-19T12:56:34.000Z</time>
      </trkpt>
      <trkpt lat="45.61723" lon="6.63776">
        <ele>2515.1999511719</ele>
        <time>2019-01-19T12:56:38.000Z</time>
      </trkpt>
      <trkpt lat="45.61723" lon="6.63776">
        <ele>2515.1999511719</ele>
        <time>2019-01-19T12:56:46.000Z</time>
      </trkpt>
      <trkpt lat="45.61723" lon="6.63776">
        <ele>2515.1999511719</ele>
        <time>2019-01-19T12:57:02.000Z</time>
      </trkpt>
      <trkpt lat="45.61725" lon="6.63775">
        <ele>2516.1999511719</ele>
        <time>2019-01-19T12:57:09.000Z</time>
      </trkpt>
      <trkpt lat="45.61727" lon="6.63774">
        <ele>2516.6000976562</ele>
        <time>2019-01-19T12:57:18.000Z</time>
      </trkpt>
      <trkpt lat="45.61727" lon="6.63774">
        <ele>2516.6000976562</ele>
        <time>2019-01-19T12:57:19.000Z</time>
      </trkpt>
      <trkpt lat="45.61728" lon="6.63772">
        <ele>2518.1999511719</ele>
        <time>2019-01-19T12:57:27.000Z</time>
      </trkpt>
      <trkpt lat="45.61728" lon="6.63772">
        <ele>2518.8000488281</ele>
        <time>2019-01-19T12:57:33.000Z</time>
      </trkpt>
      <trkpt lat="45.61728" lon="6.63771">
        <ele>2519</ele>
        <time>2019-01-19T12:57:35.000Z</time>
      </trkpt>
      <trkpt lat="45.61727" lon="6.63771">
        <ele>2519.1999511719</ele>
        <time>2019-01-19T12:57:38.000Z</time>
      </trkpt>
      <trkpt lat="45.61727" lon="6.6377">
        <ele>2519.3999023438</ele>
        <time>2019-01-19T12:57:44.000Z</time>
      </trkpt>
      <trkpt lat="45.61724" lon="6.63769">
        <ele>2519.6000976562</ele>
        <time>2019-01-19T12:57:50.000Z</time>
      </trkpt>
      <trkpt lat="45.61721" lon="6.6377">
        <ele>2518.6000976562</ele>
        <time>2019-01-19T12:57:55.000Z</time>
      </trkpt>
      <trkpt lat="45.6172" lon="6.63771">
        <ele>2518.1999511719</ele>
        <time>2019-01-19T12:57:58.000Z</time>
      </trkpt>
      <trkpt lat="45.6172" lon="6.6377">
        <ele>2518.3999023438</ele>
        <time>2019-01-19T12:58:02.000Z</time>
      </trkpt>
      <trkpt lat="45.61718" lon="6.6377">
        <ele>2518.6000976562</ele>
        <time>2019-01-19T12:58:08.000Z</time>
      </trkpt>
      <trkpt lat="45.61718" lon="6.6377">
        <ele>2518.6000976562</ele>
        <time>2019-01-19T12:58:10.000Z</time>
      </trkpt>
      <trkpt lat="45.61717" lon="6.63769">
        <ele>2519.1999511719</ele>
        <time>2019-01-19T12:58:15.000Z</time>
      </trkpt>
      <trkpt lat="45.61717" lon="6.63769">
        <ele>2519.1999511719</ele>
        <time>2019-01-19T12:58:28.000Z</time>
      </trkpt>
      <trkpt lat="45.61716" lon="6.63768">
        <ele>2519.1999511719</ele>
        <time>2019-01-19T12:58:33.000Z</time>
      </trkpt>
      <trkpt lat="45.61715" lon="6.63767">
        <ele>2520</ele>
        <time>2019-01-19T12:58:40.000Z</time>
      </trkpt>
      <trkpt lat="45.61715" lon="6.63767">
        <ele>2520</ele>
        <time>2019-01-19T12:58:41.000Z</time>
      </trkpt>
      <trkpt lat="45.61715" lon="6.63767">
        <ele>2520</ele>
        <time>2019-01-19T12:58:46.000Z</time>
      </trkpt>
      <trkpt lat="45.61715" lon="6.63767">
        <ele>2520</ele>
        <time>2019-01-19T12:58:52.000Z</time>
      </trkpt>
      <trkpt lat="45.61715" lon="6.63767">
        <ele>2520</ele>
        <time>2019-01-19T12:58:59.000Z</time>
      </trkpt>
      <trkpt lat="45.61715" lon="6.63767">
        <ele>2520</ele>
        <time>2019-01-19T12:59:10.000Z</time>
      </trkpt>
      <trkpt lat="45.61716" lon="6.63767">
        <ele>2520</ele>
        <time>2019-01-19T12:59:19.000Z</time>
      </trkpt>
      <trkpt lat="45.61719" lon="6.63769">
        <ele>2519.3999023438</ele>
        <time>2019-01-19T12:59:27.000Z</time>
      </trkpt>
      <trkpt lat="45.61722" lon="6.63765">
        <ele>2522.1999511719</ele>
        <time>2019-01-19T12:59:34.000Z</time>
      </trkpt>
      <trkpt lat="45.61724" lon="6.63764">
        <ele>2523.3999023438</ele>
        <time>2019-01-19T12:59:40.000Z</time>
      </trkpt>
      <trkpt lat="45.61724" lon="6.63764">
        <ele>2523.3999023438</ele>
        <time>2019-01-19T12:59:41.000Z</time>
      </trkpt>
      <trkpt lat="45.61724" lon="6.63764">
        <ele>2523.3999023438</ele>
        <time>2019-01-19T12:59:50.000Z</time>
      </trkpt>
      <trkpt lat="45.61724" lon="6.63764">
        <ele>2523.3999023438</ele>
        <time>2019-01-19T12:59:51.000Z</time>
      </trkpt>
      <trkpt lat="45.61724" lon="6.63764">
        <ele>2523.3999023438</ele>
        <time>2019-01-19T13:00:05.000Z</time>
      </trkpt>
      <trkpt lat="45.61724" lon="6.63763">
        <ele>2523.8000488281</ele>
        <time>2019-01-19T13:00:21.000Z</time>
      </trkpt>
      <trkpt lat="45.61723" lon="6.63764">
        <ele>2523.6000976562</ele>
        <time>2019-01-19T13:00:31.000Z</time>
      </trkpt>
      <trkpt lat="45.61724" lon="6.63764">
        <ele>2523.3999023438</ele>
        <time>2019-01-19T13:00:33.000Z</time>
      </trkpt>
      <trkpt lat="45.61724" lon="6.63764">
        <ele>2523.3999023438</ele>
        <time>2019-01-19T13:00:37.000Z</time>
      </trkpt>
      <trkpt lat="45.61724" lon="6.63764">
        <ele>2523.1999511719</ele>
        <time>2019-01-19T13:00:38.000Z</time>
      </trkpt>
      <trkpt lat="45.61724" lon="6.63764">
        <ele>2523.1999511719</ele>
        <time>2019-01-19T13:00:39.000Z</time>
      </trkpt>
      <trkpt lat="45.61722" lon="6.63766">
        <ele>2521.8000488281</ele>
        <time>2019-01-19T13:00:45.000Z</time>
      </trkpt>
      <trkpt lat="45.61722" lon="6.63766">
        <ele>2521.8000488281</ele>
        <time>2019-01-19T13:00:46.000Z</time>
      </trkpt>
      <trkpt lat="45.61722" lon="6.63766">
        <ele>2521.8000488281</ele>
        <time>2019-01-19T13:00:48.000Z</time>
      </trkpt>
      <trkpt lat="45.61722" lon="6.63766">
        <ele>2521.8000488281</ele>
        <time>2019-01-19T13:00:52.000Z</time>
      </trkpt>
      <trkpt lat="45.61722" lon="6.63766">
        <ele>2521.8000488281</ele>
        <time>2019-01-19T13:00:53.000Z</time>
      </trkpt>
      <trkpt lat="45.61722" lon="6.63766">
        <ele>2521.8000488281</ele>
        <time>2019-01-19T13:00:54.000Z</time>
      </trkpt>
      <trkpt lat="45.61721" lon="6.63765">
        <ele>2522.3999023438</ele>
        <time>2019-01-19T13:01:00.000Z</time>
      </trkpt>
      <trkpt lat="45.6172" lon="6.63764">
        <ele>2522.6000976562</ele>
        <time>2019-01-19T13:01:07.000Z</time>
      </trkpt>
      <trkpt lat="45.6172" lon="6.63764">
        <ele>2522.6000976562</ele>
        <time>2019-01-19T13:01:13.000Z</time>
      </trkpt>
      <trkpt lat="45.6172" lon="6.63764">
        <ele>2522.6000976562</ele>
        <time>2019-01-19T13:01:17.000Z</time>
      </trkpt>
      <trkpt lat="45.61719" lon="6.63764">
        <ele>2523</ele>
        <time>2019-01-19T13:01:22.000Z</time>
      </trkpt>
      <trkpt lat="45.61719" lon="6.63764">
        <ele>2523</ele>
        <time>2019-01-19T13:01:24.000Z</time>
      </trkpt>
      <trkpt lat="45.61719" lon="6.63764">
        <ele>2523</ele>
        <time>2019-01-19T13:01:26.000Z</time>
      </trkpt>
      <trkpt lat="45.61719" lon="6.63764">
        <ele>2523</ele>
        <time>2019-01-19T13:01:28.000Z</time>
      </trkpt>
      <trkpt lat="45.61719" lon="6.63764">
        <ele>2523</ele>
        <time>2019-01-19T13:01:32.000Z</time>
      </trkpt>
      <trkpt lat="45.6172" lon="6.63763">
        <ele>2523.3999023438</ele>
        <time>2019-01-19T13:01:41.000Z</time>
      </trkpt>
      <trkpt lat="45.6172" lon="6.63763">
        <ele>2523.3999023438</ele>
        <time>2019-01-19T13:01:49.000Z</time>
      </trkpt>
      <trkpt lat="45.61721" lon="6.63763">
        <ele>2523.8000488281</ele>
        <time>2019-01-19T13:01:56.000Z</time>
      </trkpt>
      <trkpt lat="45.61721" lon="6.63763">
        <ele>2523.8000488281</ele>
        <time>2019-01-19T13:01:57.000Z</time>
      </trkpt>
      <trkpt lat="45.61721" lon="6.63763">
        <ele>2523.6000976562</ele>
        <time>2019-01-19T13:02:06.000Z</time>
      </trkpt>
      <trkpt lat="45.61722" lon="6.63764">
        <ele>2523.3999023438</ele>
        <time>2019-01-19T13:02:16.000Z</time>
      </trkpt>
      <trkpt lat="45.61722" lon="6.63762">
        <ele>2524.1999511719</ele>
        <time>2019-01-19T13:02:24.000Z</time>
      </trkpt>
      <trkpt lat="45.61721" lon="6.63761">
        <ele>2525</ele>
        <time>2019-01-19T13:02:29.000Z</time>
      </trkpt>
      <trkpt lat="45.61719" lon="6.63756">
        <ele>2527.8000488281</ele>
        <time>2019-01-19T13:02:35.000Z</time>
      </trkpt>
      <trkpt lat="45.61718" lon="6.63756">
        <ele>2527.8000488281</ele>
        <time>2019-01-19T13:02:37.000Z</time>
      </trkpt>
      <trkpt lat="45.61717" lon="6.63757">
        <ele>2527.3999023438</ele>
        <time>2019-01-19T13:02:41.000Z</time>
      </trkpt>
      <trkpt lat="45.61716" lon="6.63757">
        <ele>2527</ele>
        <time>2019-01-19T13:02:49.000Z</time>
      </trkpt>
      <trkpt lat="45.61717" lon="6.63759">
        <ele>2526</ele>
        <time>2019-01-19T13:02:55.000Z</time>
      </trkpt>
      <trkpt lat="45.61718" lon="6.63759">
        <ele>2525.8000488281</ele>
        <time>2019-01-19T13:02:57.000Z</time>
      </trkpt>
      <trkpt lat="45.61722" lon="6.63757">
        <ele>2528</ele>
        <time>2019-01-19T13:03:04.000Z</time>
      </trkpt>
      <trkpt lat="45.61723" lon="6.63757">
        <ele>2528</ele>
        <time>2019-01-19T13:03:05.000Z</time>
      </trkpt>
      <trkpt lat="45.61727" lon="6.63757">
        <ele>2528.6000976562</ele>
        <time>2019-01-19T13:03:12.000Z</time>
      </trkpt>
      <trkpt lat="45.61728" lon="6.63759">
        <ele>2527.3999023438</ele>
        <time>2019-01-19T13:03:21.000Z</time>
      </trkpt>
      <trkpt lat="45.61727" lon="6.63758">
        <ele>2527.8000488281</ele>
        <time>2019-01-19T13:03:28.000Z</time>
      </trkpt>
      <trkpt lat="45.61726" lon="6.63758">
        <ele>2528</ele>
        <time>2019-01-19T13:03:29.000Z</time>
      </trkpt>
      <trkpt lat="45.61723" lon="6.63755">
        <ele>2529.6000976562</ele>
        <time>2019-01-19T13:03:35.000Z</time>
      </trkpt>
      <trkpt lat="45.61722" lon="6.63752">
        <ele>2531</ele>
        <time>2019-01-19T13:03:41.000Z</time>
      </trkpt>
      <trkpt lat="45.61722" lon="6.63752">
        <ele>2531</ele>
        <time>2019-01-19T13:03:51.000Z</time>
      </trkpt>
      <trkpt lat="45.61722" lon="6.63752">
        <ele>2531</ele>
        <time>2019-01-19T13:03:54.000Z</time>
      </trkpt>
      <trkpt lat="45.61722" lon="6.63752">
        <ele>2531</ele>
        <time>2019-01-19T13:04:00.000Z</time>
      </trkpt>
      <trkpt lat="45.61723" lon="6.63751">
        <ele>2532.6000976562</ele>
        <time>2019-01-19T13:04:07.000Z</time>
      </trkpt>
      <trkpt lat="45.61724" lon="6.6375">
        <ele>2532.6000976562</ele>
        <time>2019-01-19T13:04:11.000Z</time>
      </trkpt>
      <trkpt lat="45.61724" lon="6.6375">
        <ele>2532.6000976562</ele>
        <time>2019-01-19T13:04:17.000Z</time>
      </trkpt>
      <trkpt lat="45.61724" lon="6.6375">
        <ele>2532.6000976562</ele>
        <time>2019-01-19T13:04:28.000Z</time>
      </trkpt>
      <trkpt lat="45.61723" lon="6.6375">
        <ele>2532.8000488281</ele>
        <time>2019-01-19T13:04:35.000Z</time>
      </trkpt>
      <trkpt lat="45.61723" lon="6.6375">
        <ele>2532.8000488281</ele>
        <time>2019-01-19T13:04:37.000Z</time>
      </trkpt>
      <trkpt lat="45.61721" lon="6.63749">
        <ele>2533.1999511719</ele>
        <time>2019-01-19T13:04:41.000Z</time>
      </trkpt>
      <trkpt lat="45.61721" lon="6.63749">
        <ele>2533.3999023438</ele>
        <time>2019-01-19T13:04:50.000Z</time>
      </trkpt>
      <trkpt lat="45.61721" lon="6.63748">
        <ele>2533.6000976562</ele>
        <time>2019-01-19T13:04:53.000Z</time>
      </trkpt>
      <trkpt lat="45.61721" lon="6.63748">
        <ele>2533.6000976562</ele>
        <time>2019-01-19T13:04:59.000Z</time>
      </trkpt>
      <trkpt lat="45.61721" lon="6.63748">
        <ele>2533.6000976562</ele>
        <time>2019-01-19T13:05:09.000Z</time>
      </trkpt>
      <trkpt lat="45.61721" lon="6.63748">
        <ele>2533.6000976562</ele>
        <time>2019-01-19T13:05:25.000Z</time>
      </trkpt>
      <trkpt lat="45.61721" lon="6.63748">
        <ele>2533.6000976562</ele>
        <time>2019-01-19T13:05:28.000Z</time>
      </trkpt>
      <trkpt lat="45.61721" lon="6.63748">
        <ele>2533.6000976562</ele>
        <time>2019-01-19T13:05:34.000Z</time>
      </trkpt>
      <trkpt lat="45.61721" lon="6.63748">
        <ele>2533.6000976562</ele>
        <time>2019-01-19T13:05:35.000Z</time>
      </trkpt>
      <trkpt lat="45.61721" lon="6.63748">
        <ele>2533.6000976562</ele>
        <time>2019-01-19T13:05:36.000Z</time>
      </trkpt>
      <trkpt lat="45.61721" lon="6.63748">
        <ele>2533.6000976562</ele>
        <time>2019-01-19T13:05:44.000Z</time>
      </trkpt>
      <trkpt lat="45.61722" lon="6.63749">
        <ele>2533.3999023438</ele>
        <time>2019-01-19T13:05:48.000Z</time>
      </trkpt>
      <trkpt lat="45.61722" lon="6.63748">
        <ele>2533.8000488281</ele>
        <time>2019-01-19T13:05:56.000Z</time>
      </trkpt>
      <trkpt lat="45.61722" lon="6.63748">
        <ele>2533.8000488281</ele>
        <time>2019-01-19T13:05:57.000Z</time>
      </trkpt>
      <trkpt lat="45.61722" lon="6.63748">
        <ele>2533.8000488281</ele>
        <time>2019-01-19T13:06:04.000Z</time>
      </trkpt>
      <trkpt lat="45.61719" lon="6.63749">
        <ele>2533.1999511719</ele>
        <time>2019-01-19T13:06:12.000Z</time>
      </trkpt>
      <trkpt lat="45.61719" lon="6.63749">
        <ele>2533.1999511719</ele>
        <time>2019-01-19T13:06:13.000Z</time>
      </trkpt>
      <trkpt lat="45.61719" lon="6.63749">
        <ele>2533.1999511719</ele>
        <time>2019-01-19T13:06:23.000Z</time>
      </trkpt>
      <trkpt lat="45.61719" lon="6.63749">
        <ele>2533.1999511719</ele>
        <time>2019-01-19T13:06:35.000Z</time>
      </trkpt>
      <trkpt lat="45.61719" lon="6.63749">
        <ele>2533.1999511719</ele>
        <time>2019-01-19T13:06:46.000Z</time>
      </trkpt>
      <trkpt lat="45.6172" lon="6.63747">
        <ele>2534.3999023438</ele>
        <time>2019-01-19T13:06:52.000Z</time>
      </trkpt>
      <trkpt lat="45.6172" lon="6.63747">
        <ele>2534.3999023438</ele>
        <time>2019-01-19T13:06:59.000Z</time>
      </trkpt>
      <trkpt lat="45.6172" lon="6.63747">
        <ele>2534.3999023438</ele>
        <time>2019-01-19T13:07:07.000Z</time>
      </trkpt>
      <trkpt lat="45.6172" lon="6.63747">
        <ele>2534.3999023438</ele>
        <time>2019-01-19T13:07:24.000Z</time>
      </trkpt>
      <trkpt lat="45.6172" lon="6.63747">
        <ele>2534.3999023438</ele>
        <time>2019-01-19T13:07:40.000Z</time>
      </trkpt>
      <trkpt lat="45.6172" lon="6.63747">
        <ele>2534.3999023438</ele>
        <time>2019-01-19T13:07:59.000Z</time>
      </trkpt>
      <trkpt lat="45.61719" lon="6.63746">
        <ele>2535</ele>
        <time>2019-01-19T13:08:08.000Z</time>
      </trkpt>
      <trkpt lat="45.61716" lon="6.63742">
        <ele>2537.1999511719</ele>
        <time>2019-01-19T13:08:15.000Z</time>
      </trkpt>
      <trkpt lat="45.61716" lon="6.63742">
        <ele>2537.1999511719</ele>
        <time>2019-01-19T13:08:23.000Z</time>
      </trkpt>
      <trkpt lat="45.61716" lon="6.63741">
        <ele>2537.6000976562</ele>
        <time>2019-01-19T13:08:24.000Z</time>
      </trkpt>
      <trkpt lat="45.61718" lon="6.6374">
        <ele>2538.6000976562</ele>
        <time>2019-01-19T13:08:32.000Z</time>
      </trkpt>
      <trkpt lat="45.61718" lon="6.6374">
        <ele>2538.8000488281</ele>
        <time>2019-01-19T13:08:40.000Z</time>
      </trkpt>
      <trkpt lat="45.61716" lon="6.63738">
        <ele>2539.8000488281</ele>
        <time>2019-01-19T13:08:48.000Z</time>
      </trkpt>
      <trkpt lat="45.61716" lon="6.63738">
        <ele>2539.8000488281</ele>
        <time>2019-01-19T13:08:50.000Z</time>
      </trkpt>
      <trkpt lat="45.61718" lon="6.63737">
        <ele>2541</ele>
        <time>2019-01-19T13:08:56.000Z</time>
      </trkpt>
      <trkpt lat="45.6172" lon="6.63736">
        <ele>2541.8000488281</ele>
        <time>2019-01-19T13:09:03.000Z</time>
      </trkpt>
      <trkpt lat="45.6172" lon="6.63736">
        <ele>2541.8000488281</ele>
        <time>2019-01-19T13:09:08.000Z</time>
      </trkpt>
      <trkpt lat="45.61722" lon="6.63735">
        <ele>2541.3999023438</ele>
        <time>2019-01-19T13:09:11.000Z</time>
      </trkpt>
      <trkpt lat="45.61723" lon="6.63735">
        <ele>2541.3999023438</ele>
        <time>2019-01-19T13:09:16.000Z</time>
      </trkpt>
      <trkpt lat="45.61723" lon="6.63735">
        <ele>2541.3999023438</ele>
        <time>2019-01-19T13:09:20.000Z</time>
      </trkpt>
      <trkpt lat="45.61723" lon="6.63735">
        <ele>2541.3999023438</ele>
        <time>2019-01-19T13:09:29.000Z</time>
      </trkpt>
      <trkpt lat="45.61723" lon="6.63735">
        <ele>2541.3999023438</ele>
        <time>2019-01-19T13:09:37.000Z</time>
      </trkpt>
      <trkpt lat="45.61723" lon="6.63735">
        <ele>2541.3999023438</ele>
        <time>2019-01-19T13:09:40.000Z</time>
      </trkpt>
      <trkpt lat="45.61723" lon="6.63735">
        <ele>2541.3999023438</ele>
        <time>2019-01-19T13:09:46.000Z</time>
      </trkpt>
      <trkpt lat="45.61723" lon="6.63735">
        <ele>2541.3999023438</ele>
        <time>2019-01-19T13:09:52.000Z</time>
      </trkpt>
      <trkpt lat="45.61723" lon="6.63735">
        <ele>2541.3999023438</ele>
        <time>2019-01-19T13:09:55.000Z</time>
      </trkpt>
      <trkpt lat="45.61724" lon="6.63734">
        <ele>2541</ele>
        <time>2019-01-19T13:10:02.000Z</time>
      </trkpt>
      <trkpt lat="45.61724" lon="6.63734">
        <ele>2541</ele>
        <time>2019-01-19T13:10:04.000Z</time>
      </trkpt>
      <trkpt lat="45.61726" lon="6.63733">
        <ele>2540.6000976562</ele>
        <time>2019-01-19T13:10:09.000Z</time>
      </trkpt>
      <trkpt lat="45.61726" lon="6.63733">
        <ele>2540.6000976562</ele>
        <time>2019-01-19T13:10:22.000Z</time>
      </trkpt>
      <trkpt lat="45.61726" lon="6.63733">
        <ele>2540.6000976562</ele>
        <time>2019-01-19T13:10:25.000Z</time>
      </trkpt>
      <trkpt lat="45.61726" lon="6.63731">
        <ele>2540.1999511719</ele>
        <time>2019-01-19T13:10:32.000Z</time>
      </trkpt>
      <trkpt lat="45.61725" lon="6.63728">
        <ele>2540</ele>
        <time>2019-01-19T13:10:40.000Z</time>
      </trkpt>
      <trkpt lat="45.61725" lon="6.63726">
        <ele>2539.6000976562</ele>
        <time>2019-01-19T13:10:41.000Z</time>
      </trkpt>
      <trkpt lat="45.61721" lon="6.63723">
        <ele>2539.6000976562</ele>
        <time>2019-01-19T13:10:47.000Z</time>
      </trkpt>
      <trkpt lat="45.6172" lon="6.63721">
        <ele>2539.6000976562</ele>
        <time>2019-01-19T13:10:50.000Z</time>
      </trkpt>
      <trkpt lat="45.61718" lon="6.63721">
        <ele>2539.6000976562</ele>
        <time>2019-01-19T13:10:54.000Z</time>
      </trkpt>
      <trkpt lat="45.61718" lon="6.63721">
        <ele>2539.6000976562</ele>
        <time>2019-01-19T13:10:55.000Z</time>
      </trkpt>
      <trkpt lat="45.61719" lon="6.63721">
        <ele>2539.6000976562</ele>
        <time>2019-01-19T13:10:59.000Z</time>
      </trkpt>
      <trkpt lat="45.6172" lon="6.63721">
        <ele>2539.6000976562</ele>
        <time>2019-01-19T13:11:01.000Z</time>
      </trkpt>
      <trkpt lat="45.61722" lon="6.63721">
        <ele>2539.3999023438</ele>
        <time>2019-01-19T13:11:10.000Z</time>
      </trkpt>
      <trkpt lat="45.61722" lon="6.63721">
        <ele>2539.3999023438</ele>
        <time>2019-01-19T13:11:14.000Z</time>
      </trkpt>
      <trkpt lat="45.61722" lon="6.63721">
        <ele>2539.3999023438</ele>
        <time>2019-01-19T13:11:24.000Z</time>
      </trkpt>
      <trkpt lat="45.61722" lon="6.63721">
        <ele>2539.1999511719</ele>
        <time>2019-01-19T13:11:30.000Z</time>
      </trkpt>
      <trkpt lat="45.61723" lon="6.63722">
        <ele>2539.1999511719</ele>
        <time>2019-01-19T13:11:36.000Z</time>
      </trkpt>
      <trkpt lat="45.61723" lon="6.63722">
        <ele>2539.1999511719</ele>
        <time>2019-01-19T13:11:41.000Z</time>
      </trkpt>
      <trkpt lat="45.61723" lon="6.63722">
        <ele>2539.1999511719</ele>
        <time>2019-01-19T13:11:42.000Z</time>
      </trkpt>
      <trkpt lat="45.61723" lon="6.63722">
        <ele>2539.1999511719</ele>
        <time>2019-01-19T13:11:51.000Z</time>
      </trkpt>
      <trkpt lat="45.61723" lon="6.63722">
        <ele>2539.1999511719</ele>
        <time>2019-01-19T13:11:58.000Z</time>
      </trkpt>
      <trkpt lat="45.61723" lon="6.63722">
        <ele>2539.1999511719</ele>
        <time>2019-01-19T13:12:05.000Z</time>
      </trkpt>
      <trkpt lat="45.61723" lon="6.63722">
        <ele>2539.1999511719</ele>
        <time>2019-01-19T13:12:06.000Z</time>
      </trkpt>
      <trkpt lat="45.61723" lon="6.63722">
        <ele>2539.1999511719</ele>
        <time>2019-01-19T13:12:14.000Z</time>
      </trkpt>
      <trkpt lat="45.61722" lon="6.63722">
        <ele>2539.3999023438</ele>
        <time>2019-01-19T13:12:21.000Z</time>
      </trkpt>
      <trkpt lat="45.61722" lon="6.63722">
        <ele>2539.3999023438</ele>
        <time>2019-01-19T13:12:28.000Z</time>
      </trkpt>
      <trkpt lat="45.61722" lon="6.63722">
        <ele>2539.3999023438</ele>
        <time>2019-01-19T13:12:29.000Z</time>
      </trkpt>
      <trkpt lat="45.61722" lon="6.63722">
        <ele>2539.3999023438</ele>
        <time>2019-01-19T13:12:37.000Z</time>
      </trkpt>
      <trkpt lat="45.61722" lon="6.63721">
        <ele>2539.3999023438</ele>
        <time>2019-01-19T13:12:43.000Z</time>
      </trkpt>
      <trkpt lat="45.61722" lon="6.63721">
        <ele>2539.3999023438</ele>
        <time>2019-01-19T13:12:44.000Z</time>
      </trkpt>
      <trkpt lat="45.61722" lon="6.63721">
        <ele>2539.3999023438</ele>
        <time>2019-01-19T13:12:48.000Z</time>
      </trkpt>
      <trkpt lat="45.61722" lon="6.63721">
        <ele>2539.3999023438</ele>
        <time>2019-01-19T13:12:50.000Z</time>
      </trkpt>
      <trkpt lat="45.61722" lon="6.63721">
        <ele>2539.3999023438</ele>
        <time>2019-01-19T13:12:52.000Z</time>
      </trkpt>
      <trkpt lat="45.61721" lon="6.6372">
        <ele>2539.1999511719</ele>
        <time>2019-01-19T13:12:58.000Z</time>
      </trkpt>
      <trkpt lat="45.61721" lon="6.63719">
        <ele>2539</ele>
        <time>2019-01-19T13:13:00.000Z</time>
      </trkpt>
      <trkpt lat="45.61721" lon="6.63719">
        <ele>2539</ele>
        <time>2019-01-19T13:13:09.000Z</time>
      </trkpt>
      <trkpt lat="45.61721" lon="6.63719">
        <ele>2539</ele>
        <time>2019-01-19T13:13:19.000Z</time>
      </trkpt>
      <trkpt lat="45.61721" lon="6.63719">
        <ele>2539</ele>
        <time>2019-01-19T13:13:21.000Z</time>
      </trkpt>
      <trkpt lat="45.61721" lon="6.63719">
        <ele>2539</ele>
        <time>2019-01-19T13:13:30.000Z</time>
      </trkpt>
      <trkpt lat="45.61721" lon="6.63719">
        <ele>2539</ele>
        <time>2019-01-19T13:13:37.000Z</time>
      </trkpt>
      <trkpt lat="45.61722" lon="6.63718">
        <ele>2538.8000488281</ele>
        <time>2019-01-19T13:13:39.000Z</time>
      </trkpt>
      <trkpt lat="45.61722" lon="6.63718">
        <ele>2538.8000488281</ele>
        <time>2019-01-19T13:13:40.000Z</time>
      </trkpt>
      <trkpt lat="45.61722" lon="6.63718">
        <ele>2538.8000488281</ele>
        <time>2019-01-19T13:13:49.000Z</time>
      </trkpt>
      <trkpt lat="45.61722" lon="6.63718">
        <ele>2538.8000488281</ele>
        <time>2019-01-19T13:13:58.000Z</time>
      </trkpt>
      <trkpt lat="45.61725" lon="6.63719">
        <ele>2538.6000976562</ele>
        <time>2019-01-19T13:14:08.000Z</time>
      </trkpt>
      <trkpt lat="45.61725" lon="6.63719">
        <ele>2538.6000976562</ele>
        <time>2019-01-19T13:14:10.000Z</time>
      </trkpt>
      <trkpt lat="45.61726" lon="6.63719">
        <ele>2538.3999023438</ele>
        <time>2019-01-19T13:14:14.000Z</time>
      </trkpt>
      <trkpt lat="45.61726" lon="6.63719">
        <ele>2538.3999023438</ele>
        <time>2019-01-19T13:14:19.000Z</time>
      </trkpt>
      <trkpt lat="45.61726" lon="6.63719">
        <ele>2538.3999023438</ele>
        <time>2019-01-19T13:14:26.000Z</time>
      </trkpt>
      <trkpt lat="45.61726" lon="6.63719">
        <ele>2538.3999023438</ele>
        <time>2019-01-19T13:14:41.000Z</time>
      </trkpt>
      <trkpt lat="45.61726" lon="6.63719">
        <ele>2538.3999023438</ele>
        <time>2019-01-19T13:14:51.000Z</time>
      </trkpt>
      <trkpt lat="45.61726" lon="6.63716">
        <ele>2538</ele>
        <time>2019-01-19T13:15:01.000Z</time>
      </trkpt>
      <trkpt lat="45.61726" lon="6.63716">
        <ele>2538</ele>
        <time>2019-01-19T13:15:04.000Z</time>
      </trkpt>
      <trkpt lat="45.61726" lon="6.63716">
        <ele>2538</ele>
        <time>2019-01-19T13:15:11.000Z</time>
      </trkpt>
      <trkpt lat="45.61727" lon="6.63715">
        <ele>2537.8000488281</ele>
        <time>2019-01-19T13:15:20.000Z</time>
      </trkpt>
      <trkpt lat="45.61731" lon="6.63714">
        <ele>2537</ele>
        <time>2019-01-19T13:15:25.000Z</time>
      </trkpt>
      <trkpt lat="45.6173" lon="6.6371">
        <ele>2536.6000976562</ele>
        <time>2019-01-19T13:15:28.000Z</time>
      </trkpt>
      <trkpt lat="45.6173" lon="6.6371">
        <ele>2536.6000976562</ele>
        <time>2019-01-19T13:15:31.000Z</time>
      </trkpt>
      <trkpt lat="45.61732" lon="6.63712">
        <ele>2536.6000976562</ele>
        <time>2019-01-19T13:15:38.000Z</time>
      </trkpt>
      <trkpt lat="45.61733" lon="6.63713">
        <ele>2536.6000976562</ele>
        <time>2019-01-19T13:15:42.000Z</time>
      </trkpt>
      <trkpt lat="45.61733" lon="6.63713">
        <ele>2536.6000976562</ele>
        <time>2019-01-19T13:15:45.000Z</time>
      </trkpt>
      <trkpt lat="45.61733" lon="6.63713">
        <ele>2536.6000976562</ele>
        <time>2019-01-19T13:15:54.000Z</time>
      </trkpt>
      <trkpt lat="45.61733" lon="6.63713">
        <ele>2536.6000976562</ele>
        <time>2019-01-19T13:16:09.000Z</time>
      </trkpt>
      <trkpt lat="45.61733" lon="6.63713">
        <ele>2536.6000976562</ele>
        <time>2019-01-19T13:16:20.000Z</time>
      </trkpt>
      <trkpt lat="45.61733" lon="6.63713">
        <ele>2536.6000976562</ele>
        <time>2019-01-19T13:16:25.000Z</time>
      </trkpt>
      <trkpt lat="45.61733" lon="6.63713">
        <ele>2536.6000976562</ele>
        <time>2019-01-19T13:16:26.000Z</time>
      </trkpt>
      <trkpt lat="45.61733" lon="6.63713">
        <ele>2536.6000976562</ele>
        <time>2019-01-19T13:16:32.000Z</time>
      </trkpt>
      <trkpt lat="45.61733" lon="6.63713">
        <ele>2536.6000976562</ele>
        <time>2019-01-19T13:16:42.000Z</time>
      </trkpt>
      <trkpt lat="45.61733" lon="6.63713">
        <ele>2536.6000976562</ele>
        <time>2019-01-19T13:16:54.000Z</time>
      </trkpt>
      <trkpt lat="45.61734" lon="6.63713">
        <ele>2536.6000976562</ele>
        <time>2019-01-19T13:17:01.000Z</time>
      </trkpt>
      <trkpt lat="45.61734" lon="6.63713">
        <ele>2536.6000976562</ele>
        <time>2019-01-19T13:17:08.000Z</time>
      </trkpt>
      <trkpt lat="45.61734" lon="6.63713">
        <ele>2536.6000976562</ele>
        <time>2019-01-19T13:17:21.000Z</time>
      </trkpt>
      <trkpt lat="45.61734" lon="6.63713">
        <ele>2536.6000976562</ele>
        <time>2019-01-19T13:17:38.000Z</time>
      </trkpt>
      <trkpt lat="45.61738" lon="6.63711">
        <ele>2535.6000976562</ele>
        <time>2019-01-19T13:17:46.000Z</time>
      </trkpt>
      <trkpt lat="45.6174" lon="6.63711">
        <ele>2535.3999023438</ele>
        <time>2019-01-19T13:17:52.000Z</time>
      </trkpt>
      <trkpt lat="45.6174" lon="6.63711">
        <ele>2535.3999023438</ele>
        <time>2019-01-19T13:18:12.000Z</time>
      </trkpt>
      <trkpt lat="45.6174" lon="6.63711">
        <ele>2535.3999023438</ele>
        <time>2019-01-19T13:18:29.000Z</time>
      </trkpt>
      <trkpt lat="45.61741" lon="6.63712">
        <ele>2535.3999023438</ele>
        <time>2019-01-19T13:18:41.000Z</time>
      </trkpt>
      <trkpt lat="45.61744" lon="6.63709">
        <ele>2534.3999023438</ele>
        <time>2019-01-19T13:18:47.000Z</time>
      </trkpt>
      <trkpt lat="45.61745" lon="6.63709">
        <ele>2534.3999023438</ele>
        <time>2019-01-19T13:18:50.000Z</time>
      </trkpt>
      <trkpt lat="45.61745" lon="6.63709">
        <ele>2534.3999023438</ele>
        <time>2019-01-19T13:18:55.000Z</time>
      </trkpt>
      <trkpt lat="45.61744" lon="6.63708">
        <ele>2534.1999511719</ele>
        <time>2019-01-19T13:19:03.000Z</time>
      </trkpt>
      <trkpt lat="45.61744" lon="6.63708">
        <ele>2534.1999511719</ele>
        <time>2019-01-19T13:19:05.000Z</time>
      </trkpt>
      <trkpt lat="45.61744" lon="6.63708">
        <ele>2534.3999023438</ele>
        <time>2019-01-19T13:19:11.000Z</time>
      </trkpt>
      <trkpt lat="45.61743" lon="6.63708">
        <ele>2534.3999023438</ele>
        <time>2019-01-19T13:19:14.000Z</time>
      </trkpt>
      <trkpt lat="45.61743" lon="6.63708">
        <ele>2534.3999023438</ele>
        <time>2019-01-19T13:19:20.000Z</time>
      </trkpt>
      <trkpt lat="45.61743" lon="6.63708">
        <ele>2534.3999023438</ele>
        <time>2019-01-19T13:19:30.000Z</time>
      </trkpt>
      <trkpt lat="45.61743" lon="6.63708">
        <ele>2534.3999023438</ele>
        <time>2019-01-19T13:19:31.000Z</time>
      </trkpt>
      <trkpt lat="45.61743" lon="6.63707">
        <ele>2534.1999511719</ele>
        <time>2019-01-19T13:19:40.000Z</time>
      </trkpt>
      <trkpt lat="45.61745" lon="6.63706">
        <ele>2533.8000488281</ele>
        <time>2019-01-19T13:19:45.000Z</time>
      </trkpt>
      <trkpt lat="45.61746" lon="6.63705">
        <ele>2533.6000976562</ele>
        <time>2019-01-19T13:19:47.000Z</time>
      </trkpt>
      <trkpt lat="45.61746" lon="6.63705">
        <ele>2533.6000976562</ele>
        <time>2019-01-19T13:19:54.000Z</time>
      </trkpt>
      <trkpt lat="45.61746" lon="6.63706">
        <ele>2533.8000488281</ele>
        <time>2019-01-19T13:20:04.000Z</time>
      </trkpt>
      <trkpt lat="45.61746" lon="6.63706">
        <ele>2533.8000488281</ele>
        <time>2019-01-19T13:20:15.000Z</time>
      </trkpt>
      <trkpt lat="45.61746" lon="6.63707">
        <ele>2533.8000488281</ele>
        <time>2019-01-19T13:20:20.000Z</time>
      </trkpt>
      <trkpt lat="45.61746" lon="6.63707">
        <ele>2533.8000488281</ele>
        <time>2019-01-19T13:20:21.000Z</time>
      </trkpt>
      <trkpt lat="45.61746" lon="6.63706">
        <ele>2533.8000488281</ele>
        <time>2019-01-19T13:20:23.000Z</time>
      </trkpt>
      <trkpt lat="45.61746" lon="6.63706">
        <ele>2533.6000976562</ele>
        <time>2019-01-19T13:20:27.000Z</time>
      </trkpt>
      <trkpt lat="45.61746" lon="6.63706">
        <ele>2533.8000488281</ele>
        <time>2019-01-19T13:20:30.000Z</time>
      </trkpt>
      <trkpt lat="45.61746" lon="6.63706">
        <ele>2533.8000488281</ele>
        <time>2019-01-19T13:20:32.000Z</time>
      </trkpt>
      <trkpt lat="45.61746" lon="6.63705">
        <ele>2533.6000976562</ele>
        <time>2019-01-19T13:20:35.000Z</time>
      </trkpt>
      <trkpt lat="45.61746" lon="6.63704">
        <ele>2533.6000976562</ele>
        <time>2019-01-19T13:20:39.000Z</time>
      </trkpt>
      <trkpt lat="45.61746" lon="6.63704">
        <ele>2533.6000976562</ele>
        <time>2019-01-19T13:20:42.000Z</time>
      </trkpt>
      <trkpt lat="45.61746" lon="6.63704">
        <ele>2533.6000976562</ele>
        <time>2019-01-19T13:20:45.000Z</time>
      </trkpt>
      <trkpt lat="45.61746" lon="6.63704">
        <ele>2533.6000976562</ele>
        <time>2019-01-19T13:20:49.000Z</time>
      </trkpt>
      <trkpt lat="45.61746" lon="6.63704">
        <ele>2533.6000976562</ele>
        <time>2019-01-19T13:20:51.000Z</time>
      </trkpt>
      <trkpt lat="45.61746" lon="6.63704">
        <ele>2533.6000976562</ele>
        <time>2019-01-19T13:20:53.000Z</time>
      </trkpt>
      <trkpt lat="45.61746" lon="6.63703">
        <ele>2533.3999023438</ele>
        <time>2019-01-19T13:20:58.000Z</time>
      </trkpt>
      <trkpt lat="45.61746" lon="6.63703">
        <ele>2533.3999023438</ele>
        <time>2019-01-19T13:21:02.000Z</time>
      </trkpt>
      <trkpt lat="45.61746" lon="6.63703">
        <ele>2533.3999023438</ele>
        <time>2019-01-19T13:21:05.000Z</time>
      </trkpt>
      <trkpt lat="45.61746" lon="6.63703">
        <ele>2533.3999023438</ele>
        <time>2019-01-19T13:21:09.000Z</time>
      </trkpt>
      <trkpt lat="45.61745" lon="6.63701">
        <ele>2533</ele>
        <time>2019-01-19T13:21:12.000Z</time>
      </trkpt>
      <trkpt lat="45.61744" lon="6.63701">
        <ele>2533.1999511719</ele>
        <time>2019-01-19T13:21:20.000Z</time>
      </trkpt>
      <trkpt lat="45.61744" lon="6.63701">
        <ele>2533.1999511719</ele>
        <time>2019-01-19T13:21:21.000Z</time>
      </trkpt>
      <trkpt lat="45.61744" lon="6.63701">
        <ele>2533.1999511719</ele>
        <time>2019-01-19T13:21:30.000Z</time>
      </trkpt>
      <trkpt lat="45.61744" lon="6.63701">
        <ele>2533.1999511719</ele>
        <time>2019-01-19T13:21:42.000Z</time>
      </trkpt>
      <trkpt lat="45.61744" lon="6.63701">
        <ele>2533.1999511719</ele>
        <time>2019-01-19T13:21:53.000Z</time>
      </trkpt>
      <trkpt lat="45.61744" lon="6.63701">
        <ele>2533.1999511719</ele>
        <time>2019-01-19T13:21:57.000Z</time>
      </trkpt>
      <trkpt lat="45.61745" lon="6.637">
        <ele>2533</ele>
        <time>2019-01-19T13:22:03.000Z</time>
      </trkpt>
      <trkpt lat="45.61747" lon="6.63698">
        <ele>2532.3999023438</ele>
        <time>2019-01-19T13:22:09.000Z</time>
      </trkpt>
      <trkpt lat="45.61747" lon="6.63698">
        <ele>2532.3999023438</ele>
        <time>2019-01-19T13:22:20.000Z</time>
      </trkpt>
      <trkpt lat="45.61747" lon="6.63698">
        <ele>2532.3999023438</ele>
        <time>2019-01-19T13:22:31.000Z</time>
      </trkpt>
      <trkpt lat="45.61747" lon="6.63698">
        <ele>2532.3999023438</ele>
        <time>2019-01-19T13:22:36.000Z</time>
      </trkpt>
      <trkpt lat="45.61747" lon="6.63698">
        <ele>2532.3999023438</ele>
        <time>2019-01-19T13:22:38.000Z</time>
      </trkpt>
      <trkpt lat="45.61747" lon="6.63698">
        <ele>2532.3999023438</ele>
        <time>2019-01-19T13:22:42.000Z</time>
      </trkpt>
      <trkpt lat="45.61747" lon="6.63698">
        <ele>2532.3999023438</ele>
        <time>2019-01-19T13:22:43.000Z</time>
      </trkpt>
      <trkpt lat="45.61747" lon="6.63698">
        <ele>2532.3999023438</ele>
        <time>2019-01-19T13:22:49.000Z</time>
      </trkpt>
      <trkpt lat="45.61747" lon="6.63698">
        <ele>2532.3999023438</ele>
        <time>2019-01-19T13:22:52.000Z</time>
      </trkpt>
      <trkpt lat="45.61747" lon="6.63697">
        <ele>2532.3999023438</ele>
        <time>2019-01-19T13:23:00.000Z</time>
      </trkpt>
      <trkpt lat="45.61747" lon="6.63697">
        <ele>2532.3999023438</ele>
        <time>2019-01-19T13:23:03.000Z</time>
      </trkpt>
      <trkpt lat="45.61747" lon="6.63697">
        <ele>2532.3999023438</ele>
        <time>2019-01-19T13:23:10.000Z</time>
      </trkpt>
      <trkpt lat="45.61747" lon="6.63697">
        <ele>2532.3999023438</ele>
        <time>2019-01-19T13:23:19.000Z</time>
      </trkpt>
      <trkpt lat="45.61747" lon="6.63696">
        <ele>2532</ele>
        <time>2019-01-19T13:23:28.000Z</time>
      </trkpt>
      <trkpt lat="45.61747" lon="6.63696">
        <ele>2532</ele>
        <time>2019-01-19T13:23:30.000Z</time>
      </trkpt>
      <trkpt lat="45.61745" lon="6.63696">
        <ele>2532.1999511719</ele>
        <time>2019-01-19T13:23:40.000Z</time>
      </trkpt>
      <trkpt lat="45.61745" lon="6.63696">
        <ele>2532.3999023438</ele>
        <time>2019-01-19T13:23:43.000Z</time>
      </trkpt>
      <trkpt lat="45.61745" lon="6.63696">
        <ele>2532.3999023438</ele>
        <time>2019-01-19T13:23:47.000Z</time>
      </trkpt>
      <trkpt lat="45.61747" lon="6.63695">
        <ele>2531.8000488281</ele>
        <time>2019-01-19T13:23:54.000Z</time>
      </trkpt>
      <trkpt lat="45.61747" lon="6.63695">
        <ele>2531.8000488281</ele>
        <time>2019-01-19T13:23:58.000Z</time>
      </trkpt>
      <trkpt lat="45.61747" lon="6.63695">
        <ele>2531.8000488281</ele>
        <time>2019-01-19T13:24:05.000Z</time>
      </trkpt>
      <trkpt lat="45.61745" lon="6.63694">
        <ele>2532</ele>
        <time>2019-01-19T13:24:14.000Z</time>
      </trkpt>
      <trkpt lat="45.61744" lon="6.63694">
        <ele>2532</ele>
        <time>2019-01-19T13:24:16.000Z</time>
      </trkpt>
      <trkpt lat="45.61744" lon="6.63694">
        <ele>2532.1999511719</ele>
        <time>2019-01-19T13:24:23.000Z</time>
      </trkpt>
      <trkpt lat="45.61744" lon="6.63694">
        <ele>2532.1999511719</ele>
        <time>2019-01-19T13:24:26.000Z</time>
      </trkpt>
      <trkpt lat="45.61742" lon="6.63693">
        <ele>2532.1999511719</ele>
        <time>2019-01-19T13:24:39.000Z</time>
      </trkpt>
      <trkpt lat="45.61742" lon="6.63693">
        <ele>2532.1999511719</ele>
        <time>2019-01-19T13:24:52.000Z</time>
      </trkpt>
      <trkpt lat="45.61742" lon="6.63693">
        <ele>2532.1999511719</ele>
        <time>2019-01-19T13:25:00.000Z</time>
      </trkpt>
      <trkpt lat="45.61742" lon="6.63693">
        <ele>2532.1999511719</ele>
        <time>2019-01-19T13:25:06.000Z</time>
      </trkpt>
      <trkpt lat="45.61742" lon="6.63693">
        <ele>2532.1999511719</ele>
        <time>2019-01-19T13:25:08.000Z</time>
      </trkpt>
      <trkpt lat="45.61741" lon="6.63692">
        <ele>2532.1999511719</ele>
        <time>2019-01-19T13:25:19.000Z</time>
      </trkpt>
      <trkpt lat="45.6174" lon="6.63692">
        <ele>2532.3999023438</ele>
        <time>2019-01-19T13:25:26.000Z</time>
      </trkpt>
      <trkpt lat="45.6174" lon="6.63692">
        <ele>2532.3999023438</ele>
        <time>2019-01-19T13:25:30.000Z</time>
      </trkpt>
      <trkpt lat="45.6174" lon="6.63692">
        <ele>2532.3999023438</ele>
        <time>2019-01-19T13:25:40.000Z</time>
      </trkpt>
      <trkpt lat="45.6174" lon="6.63692">
        <ele>2532.3999023438</ele>
        <time>2019-01-19T13:25:43.000Z</time>
      </trkpt>
      <trkpt lat="45.6174" lon="6.63692">
        <ele>2532.3999023438</ele>
        <time>2019-01-19T13:25:49.000Z</time>
      </trkpt>
      <trkpt lat="45.6174" lon="6.63692">
        <ele>2532.3999023438</ele>
        <time>2019-01-19T13:26:00.000Z</time>
      </trkpt>
      <trkpt lat="45.6174" lon="6.63692">
        <ele>2532.3999023438</ele>
        <time>2019-01-19T13:26:02.000Z</time>
      </trkpt>
      <trkpt lat="45.6174" lon="6.63692">
        <ele>2532.3999023438</ele>
        <time>2019-01-19T13:26:07.000Z</time>
      </trkpt>
      <trkpt lat="45.6174" lon="6.63692">
        <ele>2532.3999023438</ele>
        <time>2019-01-19T13:26:10.000Z</time>
      </trkpt>
      <trkpt lat="45.6174" lon="6.63692">
        <ele>2532.3999023438</ele>
        <time>2019-01-19T13:26:12.000Z</time>
      </trkpt>
      <trkpt lat="45.6174" lon="6.63692">
        <ele>2532.3999023438</ele>
        <time>2019-01-19T13:26:16.000Z</time>
      </trkpt>
      <trkpt lat="45.6174" lon="6.63692">
        <ele>2532.3999023438</ele>
        <time>2019-01-19T13:26:22.000Z</time>
      </trkpt>
      <trkpt lat="45.6174" lon="6.63692">
        <ele>2532.3999023438</ele>
        <time>2019-01-19T13:26:23.000Z</time>
      </trkpt>
      <trkpt lat="45.6174" lon="6.63692">
        <ele>2532.3999023438</ele>
        <time>2019-01-19T13:26:34.000Z</time>
      </trkpt>
      <trkpt lat="45.61745" lon="6.6369">
        <ele>2531.6000976562</ele>
        <time>2019-01-19T13:26:43.000Z</time>
      </trkpt>
      <trkpt lat="45.61745" lon="6.6369">
        <ele>2531.3999023438</ele>
        <time>2019-01-19T13:26:47.000Z</time>
      </trkpt>
      <trkpt lat="45.61745" lon="6.6369">
        <ele>2531.3999023438</ele>
        <time>2019-01-19T13:26:58.000Z</time>
      </trkpt>
      <trkpt lat="45.61745" lon="6.6369">
        <ele>2531.3999023438</ele>
        <time>2019-01-19T13:27:11.000Z</time>
      </trkpt>
      <trkpt lat="45.61747" lon="6.63693">
        <ele>2531.6000976562</ele>
        <time>2019-01-19T13:27:25.000Z</time>
      </trkpt>
      <trkpt lat="45.61747" lon="6.63693">
        <ele>2531.6000976562</ele>
        <time>2019-01-19T13:27:28.000Z</time>
      </trkpt>
      <trkpt lat="45.61746" lon="6.63694">
        <ele>2532</ele>
        <time>2019-01-19T13:27:37.000Z</time>
      </trkpt>
      <trkpt lat="45.61746" lon="6.63694">
        <ele>2532</ele>
        <time>2019-01-19T13:27:38.000Z</time>
      </trkpt>
      <trkpt lat="45.61746" lon="6.63694">
        <ele>2531.8000488281</ele>
        <time>2019-01-19T13:27:40.000Z</time>
      </trkpt>
      <trkpt lat="45.61746" lon="6.63694">
        <ele>2531.8000488281</ele>
        <time>2019-01-19T13:27:45.000Z</time>
      </trkpt>
      <trkpt lat="45.61746" lon="6.63694">
        <ele>2531.8000488281</ele>
        <time>2019-01-19T13:27:49.000Z</time>
      </trkpt>
      <trkpt lat="45.61746" lon="6.63694">
        <ele>2531.8000488281</ele>
        <time>2019-01-19T13:27:50.000Z</time>
      </trkpt>
      <trkpt lat="45.61746" lon="6.63694">
        <ele>2531.8000488281</ele>
        <time>2019-01-19T13:27:59.000Z</time>
      </trkpt>
      <trkpt lat="45.61746" lon="6.63694">
        <ele>2531.8000488281</ele>
        <time>2019-01-19T13:28:02.000Z</time>
      </trkpt>
      <trkpt lat="45.61746" lon="6.63694">
        <ele>2531.8000488281</ele>
        <time>2019-01-19T13:28:14.000Z</time>
      </trkpt>
      <trkpt lat="45.61746" lon="6.63694">
        <ele>2531.8000488281</ele>
        <time>2019-01-19T13:28:15.000Z</time>
      </trkpt>
      <trkpt lat="45.61746" lon="6.63694">
        <ele>2531.8000488281</ele>
        <time>2019-01-19T13:28:16.000Z</time>
      </trkpt>
      <trkpt lat="45.61746" lon="6.63694">
        <ele>2531.8000488281</ele>
        <time>2019-01-19T13:28:17.000Z</time>
      </trkpt>
      <trkpt lat="45.61746" lon="6.63694">
        <ele>2531.8000488281</ele>
        <time>2019-01-19T13:28:18.000Z</time>
      </trkpt>
      <trkpt lat="45.61746" lon="6.63694">
        <ele>2531.8000488281</ele>
        <time>2019-01-19T13:28:19.000Z</time>
      </trkpt>
      <trkpt lat="45.61746" lon="6.63694">
        <ele>2531.8000488281</ele>
        <time>2019-01-19T13:28:23.000Z</time>
      </trkpt>
      <trkpt lat="45.61746" lon="6.63694">
        <ele>2531.8000488281</ele>
        <time>2019-01-19T13:28:24.000Z</time>
      </trkpt>
      <trkpt lat="45.61746" lon="6.63694">
        <ele>2531.8000488281</ele>
        <time>2019-01-19T13:28:25.000Z</time>
      </trkpt>
      <trkpt lat="45.61746" lon="6.63694">
        <ele>2531.8000488281</ele>
        <time>2019-01-19T13:28:26.000Z</time>
      </trkpt>
      <trkpt lat="45.61746" lon="6.63694">
        <ele>2531.8000488281</ele>
        <time>2019-01-19T13:28:28.000Z</time>
      </trkpt>
      <trkpt lat="45.61746" lon="6.63694">
        <ele>2531.8000488281</ele>
        <time>2019-01-19T13:28:29.000Z</time>
      </trkpt>
      <trkpt lat="45.61746" lon="6.63694">
        <ele>2531.8000488281</ele>
        <time>2019-01-19T13:28:30.000Z</time>
      </trkpt>
      <trkpt lat="45.61746" lon="6.63694">
        <ele>2531.8000488281</ele>
        <time>2019-01-19T13:28:37.000Z</time>
      </trkpt>
      <trkpt lat="45.61746" lon="6.63694">
        <ele>2531.8000488281</ele>
        <time>2019-01-19T13:28:39.000Z</time>
      </trkpt>
      <trkpt lat="45.61746" lon="6.63694">
        <ele>2531.8000488281</ele>
        <time>2019-01-19T13:28:42.000Z</time>
      </trkpt>
      <trkpt lat="45.61746" lon="6.63694">
        <ele>2531.8000488281</ele>
        <time>2019-01-19T13:28:44.000Z</time>
      </trkpt>
      <trkpt lat="45.61746" lon="6.63694">
        <ele>2531.8000488281</ele>
        <time>2019-01-19T13:28:45.000Z</time>
      </trkpt>
      <trkpt lat="45.61746" lon="6.63694">
        <ele>2531.8000488281</ele>
        <time>2019-01-19T13:28:46.000Z</time>
      </trkpt>
      <trkpt lat="45.61746" lon="6.63694">
        <ele>2531.8000488281</ele>
        <time>2019-01-19T13:28:49.000Z</time>
      </trkpt>
      <trkpt lat="45.61746" lon="6.63694">
        <ele>2531.8000488281</ele>
        <time>2019-01-19T13:28:50.000Z</time>
      </trkpt>
      <trkpt lat="45.61746" lon="6.63694">
        <ele>2531.8000488281</ele>
        <time>2019-01-19T13:28:51.000Z</time>
      </trkpt>
      <trkpt lat="45.61746" lon="6.63694">
        <ele>2531.8000488281</ele>
        <time>2019-01-19T13:28:53.000Z</time>
      </trkpt>
      <trkpt lat="45.61746" lon="6.63694">
        <ele>2531.8000488281</ele>
        <time>2019-01-19T13:28:55.000Z</time>
      </trkpt>
      <trkpt lat="45.61746" lon="6.63694">
        <ele>2531.8000488281</ele>
        <time>2019-01-19T13:28:56.000Z</time>
      </trkpt>
      <trkpt lat="45.61746" lon="6.63694">
        <ele>2531.8000488281</ele>
        <time>2019-01-19T13:28:57.000Z</time>
      </trkpt>
      <trkpt lat="45.61746" lon="6.63694">
        <ele>2531.8000488281</ele>
        <time>2019-01-19T13:29:03.000Z</time>
      </trkpt>
      <trkpt lat="45.61746" lon="6.63694">
        <ele>2531.8000488281</ele>
        <time>2019-01-19T13:29:05.000Z</time>
      </trkpt>
      <trkpt lat="45.61746" lon="6.63694">
        <ele>2531.8000488281</ele>
        <time>2019-01-19T13:29:08.000Z</time>
      </trkpt>
      <trkpt lat="45.61746" lon="6.63694">
        <ele>2531.8000488281</ele>
        <time>2019-01-19T13:29:09.000Z</time>
      </trkpt>
      <trkpt lat="45.61746" lon="6.63694">
        <ele>2531.8000488281</ele>
        <time>2019-01-19T13:29:12.000Z</time>
      </trkpt>
      <trkpt lat="45.61746" lon="6.63694">
        <ele>2531.8000488281</ele>
        <time>2019-01-19T13:29:13.000Z</time>
      </trkpt>
      <trkpt lat="45.61746" lon="6.63694">
        <ele>2531.8000488281</ele>
        <time>2019-01-19T13:29:14.000Z</time>
      </trkpt>
      <trkpt lat="45.61746" lon="6.63694">
        <ele>2531.8000488281</ele>
        <time>2019-01-19T13:29:16.000Z</time>
      </trkpt>
      <trkpt lat="45.61746" lon="6.63694">
        <ele>2531.8000488281</ele>
        <time>2019-01-19T13:29:18.000Z</time>
      </trkpt>
      <trkpt lat="45.61746" lon="6.63694">
        <ele>2531.8000488281</ele>
        <time>2019-01-19T13:29:19.000Z</time>
      </trkpt>
      <trkpt lat="45.61746" lon="6.63694">
        <ele>2531.8000488281</ele>
        <time>2019-01-19T13:29:20.000Z</time>
      </trkpt>
      <trkpt lat="45.61746" lon="6.63694">
        <ele>2531.8000488281</ele>
        <time>2019-01-19T13:29:21.000Z</time>
      </trkpt>
      <trkpt lat="45.61746" lon="6.63694">
        <ele>2531.8000488281</ele>
        <time>2019-01-19T13:29:25.000Z</time>
      </trkpt>
      <trkpt lat="45.61746" lon="6.63694">
        <ele>2531.8000488281</ele>
        <time>2019-01-19T13:29:29.000Z</time>
      </trkpt>
      <trkpt lat="45.61746" lon="6.63694">
        <ele>2531.8000488281</ele>
        <time>2019-01-19T13:29:32.000Z</time>
      </trkpt>
      <trkpt lat="45.61744" lon="6.63693">
        <ele>2532</ele>
        <time>2019-01-19T13:29:36.000Z</time>
      </trkpt>
      <trkpt lat="45.61744" lon="6.63693">
        <ele>2532</ele>
        <time>2019-01-19T13:29:42.000Z</time>
      </trkpt>
      <trkpt lat="45.61744" lon="6.63693">
        <ele>2532</ele>
        <time>2019-01-19T13:29:43.000Z</time>
      </trkpt>
      <trkpt lat="45.61744" lon="6.63693">
        <ele>2532</ele>
        <time>2019-01-19T13:29:45.000Z</time>
      </trkpt>
      <trkpt lat="45.61744" lon="6.63693">
        <ele>2532</ele>
        <time>2019-01-19T13:29:46.000Z</time>
      </trkpt>
      <trkpt lat="45.61744" lon="6.63693">
        <ele>2532</ele>
        <time>2019-01-19T13:29:55.000Z</time>
      </trkpt>
      <trkpt lat="45.61744" lon="6.63693">
        <ele>2532</ele>
        <time>2019-01-19T13:29:56.000Z</time>
      </trkpt>
      <trkpt lat="45.61744" lon="6.63693">
        <ele>2532</ele>
        <time>2019-01-19T13:29:58.000Z</time>
      </trkpt>
      <trkpt lat="45.61744" lon="6.63693">
        <ele>2532</ele>
        <time>2019-01-19T13:29:59.000Z</time>
      </trkpt>
      <trkpt lat="45.61744" lon="6.63693">
        <ele>2532</ele>
        <time>2019-01-19T13:30:01.000Z</time>
      </trkpt>
      <trkpt lat="45.61744" lon="6.63693">
        <ele>2532</ele>
        <time>2019-01-19T13:30:10.000Z</time>
      </trkpt>
      <trkpt lat="45.61744" lon="6.63693">
        <ele>2532</ele>
        <time>2019-01-19T13:30:12.000Z</time>
      </trkpt>
      <trkpt lat="45.61743" lon="6.63692">
        <ele>2532</ele>
        <time>2019-01-19T13:30:22.000Z</time>
      </trkpt>
      <trkpt lat="45.61743" lon="6.63692">
        <ele>2532</ele>
        <time>2019-01-19T13:30:24.000Z</time>
      </trkpt>
      <trkpt lat="45.61743" lon="6.63692">
        <ele>2532</ele>
        <time>2019-01-19T13:30:27.000Z</time>
      </trkpt>
      <trkpt lat="45.61743" lon="6.63692">
        <ele>2532</ele>
        <time>2019-01-19T13:30:36.000Z</time>
      </trkpt>
      <trkpt lat="45.61743" lon="6.63692">
        <ele>2532</ele>
        <time>2019-01-19T13:30:37.000Z</time>
      </trkpt>
      <trkpt lat="45.61743" lon="6.63692">
        <ele>2532</ele>
        <time>2019-01-19T13:30:41.000Z</time>
      </trkpt>
      <trkpt lat="45.61743" lon="6.63692">
        <ele>2532</ele>
        <time>2019-01-19T13:30:42.000Z</time>
      </trkpt>
      <trkpt lat="45.61743" lon="6.63692">
        <ele>2532</ele>
        <time>2019-01-19T13:30:49.000Z</time>
      </trkpt>
      <trkpt lat="45.61743" lon="6.63692">
        <ele>2532</ele>
        <time>2019-01-19T13:30:52.000Z</time>
      </trkpt>
      <trkpt lat="45.61743" lon="6.63692">
        <ele>2532</ele>
        <time>2019-01-19T13:30:54.000Z</time>
      </trkpt>
      <trkpt lat="45.61742" lon="6.63691">
        <ele>2532</ele>
        <time>2019-01-19T13:30:57.000Z</time>
      </trkpt>
      <trkpt lat="45.61742" lon="6.63691">
        <ele>2532</ele>
        <time>2019-01-19T13:30:58.000Z</time>
      </trkpt>
      <trkpt lat="45.61742" lon="6.63691">
        <ele>2532</ele>
        <time>2019-01-19T13:31:00.000Z</time>
      </trkpt>
      <trkpt lat="45.61742" lon="6.63691">
        <ele>2532</ele>
        <time>2019-01-19T13:31:02.000Z</time>
      </trkpt>
      <trkpt lat="45.61742" lon="6.63691">
        <ele>2532</ele>
        <time>2019-01-19T13:31:03.000Z</time>
      </trkpt>
      <trkpt lat="45.61742" lon="6.63691">
        <ele>2532</ele>
        <time>2019-01-19T13:31:04.000Z</time>
      </trkpt>
      <trkpt lat="45.61742" lon="6.63691">
        <ele>2532</ele>
        <time>2019-01-19T13:31:05.000Z</time>
      </trkpt>
      <trkpt lat="45.61742" lon="6.63691">
        <ele>2532</ele>
        <time>2019-01-19T13:31:06.000Z</time>
      </trkpt>
      <trkpt lat="45.61742" lon="6.63691">
        <ele>2532</ele>
        <time>2019-01-19T13:31:08.000Z</time>
      </trkpt>
      <trkpt lat="45.61742" lon="6.63691">
        <ele>2532</ele>
        <time>2019-01-19T13:31:11.000Z</time>
      </trkpt>
      <trkpt lat="45.61742" lon="6.63691">
        <ele>2532</ele>
        <time>2019-01-19T13:31:12.000Z</time>
      </trkpt>
      <trkpt lat="45.61742" lon="6.63691">
        <ele>2532</ele>
        <time>2019-01-19T13:31:13.000Z</time>
      </trkpt>
      <trkpt lat="45.61742" lon="6.63691">
        <ele>2532</ele>
        <time>2019-01-19T13:31:14.000Z</time>
      </trkpt>
      <trkpt lat="45.61742" lon="6.63691">
        <ele>2532</ele>
        <time>2019-01-19T13:31:16.000Z</time>
      </trkpt>
      <trkpt lat="45.61742" lon="6.63691">
        <ele>2532</ele>
        <time>2019-01-19T13:31:19.000Z</time>
      </trkpt>
      <trkpt lat="45.61742" lon="6.63691">
        <ele>2532</ele>
        <time>2019-01-19T13:31:20.000Z</time>
      </trkpt>
      <trkpt lat="45.61742" lon="6.63691">
        <ele>2532</ele>
        <time>2019-01-19T13:31:21.000Z</time>
      </trkpt>
      <trkpt lat="45.61742" lon="6.63689">
        <ele>2531.8000488281</ele>
        <time>2019-01-19T13:31:28.000Z</time>
      </trkpt>
      <trkpt lat="45.61742" lon="6.63689">
        <ele>2531.8000488281</ele>
        <time>2019-01-19T13:31:30.000Z</time>
      </trkpt>
      <trkpt lat="45.61742" lon="6.63689">
        <ele>2531.8000488281</ele>
        <time>2019-01-19T13:31:31.000Z</time>
      </trkpt>
      <trkpt lat="45.61742" lon="6.63689">
        <ele>2531.8000488281</ele>
        <time>2019-01-19T13:31:37.000Z</time>
      </trkpt>
      <trkpt lat="45.61742" lon="6.63689">
        <ele>2531.8000488281</ele>
        <time>2019-01-19T13:31:39.000Z</time>
      </trkpt>
      <trkpt lat="45.61742" lon="6.63689">
        <ele>2531.8000488281</ele>
        <time>2019-01-19T13:31:43.000Z</time>
      </trkpt>
      <trkpt lat="45.61742" lon="6.63689">
        <ele>2531.8000488281</ele>
        <time>2019-01-19T13:31:45.000Z</time>
      </trkpt>
      <trkpt lat="45.61742" lon="6.63689">
        <ele>2531.8000488281</ele>
        <time>2019-01-19T13:31:49.000Z</time>
      </trkpt>
      <trkpt lat="45.61742" lon="6.63689">
        <ele>2531.8000488281</ele>
        <time>2019-01-19T13:31:56.000Z</time>
      </trkpt>
      <trkpt lat="45.61742" lon="6.63689">
        <ele>2531.8000488281</ele>
        <time>2019-01-19T13:31:57.000Z</time>
      </trkpt>
      <trkpt lat="45.61742" lon="6.63689">
        <ele>2531.8000488281</ele>
        <time>2019-01-19T13:31:58.000Z</time>
      </trkpt>
      <trkpt lat="45.61742" lon="6.63689">
        <ele>2531.8000488281</ele>
        <time>2019-01-19T13:32:00.000Z</time>
      </trkpt>
      <trkpt lat="45.61743" lon="6.63689">
        <ele>2531.3999023438</ele>
        <time>2019-01-19T13:32:03.000Z</time>
      </trkpt>
      <trkpt lat="45.61743" lon="6.63689">
        <ele>2531.3999023438</ele>
        <time>2019-01-19T13:32:04.000Z</time>
      </trkpt>
      <trkpt lat="45.61743" lon="6.63689">
        <ele>2531.3999023438</ele>
        <time>2019-01-19T13:32:05.000Z</time>
      </trkpt>
      <trkpt lat="45.61743" lon="6.63689">
        <ele>2531.3999023438</ele>
        <time>2019-01-19T13:32:10.000Z</time>
      </trkpt>
      <trkpt lat="45.61743" lon="6.63689">
        <ele>2531.3999023438</ele>
        <time>2019-01-19T13:32:11.000Z</time>
      </trkpt>
      <trkpt lat="45.61743" lon="6.63689">
        <ele>2531.3999023438</ele>
        <time>2019-01-19T13:32:12.000Z</time>
      </trkpt>
      <trkpt lat="45.61743" lon="6.63689">
        <ele>2531.3999023438</ele>
        <time>2019-01-19T13:32:14.000Z</time>
      </trkpt>
      <trkpt lat="45.61743" lon="6.63689">
        <ele>2531.3999023438</ele>
        <time>2019-01-19T13:32:17.000Z</time>
      </trkpt>
      <trkpt lat="45.61743" lon="6.63689">
        <ele>2531.3999023438</ele>
        <time>2019-01-19T13:32:19.000Z</time>
      </trkpt>
      <trkpt lat="45.61743" lon="6.63689">
        <ele>2531.3999023438</ele>
        <time>2019-01-19T13:32:25.000Z</time>
      </trkpt>
      <trkpt lat="45.61743" lon="6.63689">
        <ele>2531.3999023438</ele>
        <time>2019-01-19T13:32:30.000Z</time>
      </trkpt>
      <trkpt lat="45.61743" lon="6.63689">
        <ele>2531.3999023438</ele>
        <time>2019-01-19T13:32:32.000Z</time>
      </trkpt>
      <trkpt lat="45.61743" lon="6.63689">
        <ele>2531.3999023438</ele>
        <time>2019-01-19T13:32:37.000Z</time>
      </trkpt>
      <trkpt lat="45.61743" lon="6.63689">
        <ele>2531.3999023438</ele>
        <time>2019-01-19T13:32:39.000Z</time>
      </trkpt>
      <trkpt lat="45.61743" lon="6.63689">
        <ele>2531.3999023438</ele>
        <time>2019-01-19T13:32:44.000Z</time>
      </trkpt>
      <trkpt lat="45.61743" lon="6.63689">
        <ele>2531.3999023438</ele>
        <time>2019-01-19T13:32:46.000Z</time>
      </trkpt>
      <trkpt lat="45.61743" lon="6.63689">
        <ele>2531.3999023438</ele>
        <time>2019-01-19T13:32:51.000Z</time>
      </trkpt>
      <trkpt lat="45.61743" lon="6.63689">
        <ele>2531.3999023438</ele>
        <time>2019-01-19T13:32:53.000Z</time>
      </trkpt>
      <trkpt lat="45.61743" lon="6.63689">
        <ele>2531.3999023438</ele>
        <time>2019-01-19T13:32:55.000Z</time>
      </trkpt>
      <trkpt lat="45.61743" lon="6.63689">
        <ele>2531.3999023438</ele>
        <time>2019-01-19T13:33:00.000Z</time>
      </trkpt>
      <trkpt lat="45.61743" lon="6.63689">
        <ele>2531.3999023438</ele>
        <time>2019-01-19T13:33:03.000Z</time>
      </trkpt>
      <trkpt lat="45.61743" lon="6.63689">
        <ele>2531.6000976562</ele>
        <time>2019-01-19T13:33:08.000Z</time>
      </trkpt>
      <trkpt lat="45.61743" lon="6.63689">
        <ele>2531.6000976562</ele>
        <time>2019-01-19T13:33:16.000Z</time>
      </trkpt>
      <trkpt lat="45.61743" lon="6.63689">
        <ele>2531.6000976562</ele>
        <time>2019-01-19T13:33:19.000Z</time>
      </trkpt>
      <trkpt lat="45.61743" lon="6.63689">
        <ele>2531.6000976562</ele>
        <time>2019-01-19T13:33:22.000Z</time>
      </trkpt>
      <trkpt lat="45.61743" lon="6.63689">
        <ele>2531.6000976562</ele>
        <time>2019-01-19T13:33:24.000Z</time>
      </trkpt>
      <trkpt lat="45.61744" lon="6.6369">
        <ele>2531.6000976562</ele>
        <time>2019-01-19T13:33:27.000Z</time>
      </trkpt>
      <trkpt lat="45.61744" lon="6.6369">
        <ele>2531.6000976562</ele>
        <time>2019-01-19T13:33:32.000Z</time>
      </trkpt>
      <trkpt lat="45.61744" lon="6.6369">
        <ele>2531.6000976562</ele>
        <time>2019-01-19T13:33:35.000Z</time>
      </trkpt>
      <trkpt lat="45.61744" lon="6.6369">
        <ele>2531.6000976562</ele>
        <time>2019-01-19T13:33:37.000Z</time>
      </trkpt>
      <trkpt lat="45.61744" lon="6.6369">
        <ele>2531.6000976562</ele>
        <time>2019-01-19T13:33:41.000Z</time>
      </trkpt>
      <trkpt lat="45.61744" lon="6.6369">
        <ele>2531.6000976562</ele>
        <time>2019-01-19T13:33:44.000Z</time>
      </trkpt>
      <trkpt lat="45.61744" lon="6.6369">
        <ele>2531.6000976562</ele>
        <time>2019-01-19T13:33:51.000Z</time>
      </trkpt>
      <trkpt lat="45.61744" lon="6.6369">
        <ele>2531.6000976562</ele>
        <time>2019-01-19T13:33:59.000Z</time>
      </trkpt>
      <trkpt lat="45.61739" lon="6.63692">
        <ele>2532.3999023438</ele>
        <time>2019-01-19T13:34:09.000Z</time>
      </trkpt>
      <trkpt lat="45.61739" lon="6.63692">
        <ele>2532.3999023438</ele>
        <time>2019-01-19T13:34:10.000Z</time>
      </trkpt>
      <trkpt lat="45.61743" lon="6.63692">
        <ele>2532</ele>
        <time>2019-01-19T13:34:17.000Z</time>
      </trkpt>
      <trkpt lat="45.61744" lon="6.63692">
        <ele>2531.8000488281</ele>
        <time>2019-01-19T13:34:21.000Z</time>
      </trkpt>
      <trkpt lat="45.61744" lon="6.63692">
        <ele>2531.8000488281</ele>
        <time>2019-01-19T13:34:34.000Z</time>
      </trkpt>
      <trkpt lat="45.61744" lon="6.63692">
        <ele>2531.8000488281</ele>
        <time>2019-01-19T13:34:40.000Z</time>
      </trkpt>
      <trkpt lat="45.61744" lon="6.63692">
        <ele>2531.8000488281</ele>
        <time>2019-01-19T13:34:43.000Z</time>
      </trkpt>
      <trkpt lat="45.61744" lon="6.63692">
        <ele>2531.8000488281</ele>
        <time>2019-01-19T13:34:50.000Z</time>
      </trkpt>
      <trkpt lat="45.61744" lon="6.63692">
        <ele>2532</ele>
        <time>2019-01-19T13:34:59.000Z</time>
      </trkpt>
      <trkpt lat="45.61744" lon="6.63692">
        <ele>2532</ele>
        <time>2019-01-19T13:35:20.000Z</time>
      </trkpt>
      <trkpt lat="45.61744" lon="6.63692">
        <ele>2532</ele>
        <time>2019-01-19T13:35:34.000Z</time>
      </trkpt>
      <trkpt lat="45.61747" lon="6.63692">
        <ele>2531.3999023438</ele>
        <time>2019-01-19T13:35:43.000Z</time>
      </trkpt>
      <trkpt lat="45.61751" lon="6.63691">
        <ele>2530.8000488281</ele>
        <time>2019-01-19T13:35:46.000Z</time>
      </trkpt>
      <trkpt lat="45.61753" lon="6.6369">
        <ele>2530.3999023438</ele>
        <time>2019-01-19T13:35:48.000Z</time>
      </trkpt>
      <trkpt lat="45.61755" lon="6.6369">
        <ele>2530</ele>
        <time>2019-01-19T13:35:49.000Z</time>
      </trkpt>
      <trkpt lat="45.61758" lon="6.6369">
        <ele>2530</ele>
        <time>2019-01-19T13:35:52.000Z</time>
      </trkpt>
      <trkpt lat="45.61759" lon="6.6369">
        <ele>2530</ele>
        <time>2019-01-19T13:35:53.000Z</time>
      </trkpt>
      <trkpt lat="45.6176" lon="6.63691">
        <ele>2530.1999511719</ele>
        <time>2019-01-19T13:35:55.000Z</time>
      </trkpt>
      <trkpt lat="45.61761" lon="6.63691">
        <ele>2530.1999511719</ele>
        <time>2019-01-19T13:36:02.000Z</time>
      </trkpt>
      <trkpt lat="45.61761" lon="6.63691">
        <ele>2530.1999511719</ele>
        <time>2019-01-19T13:36:07.000Z</time>
      </trkpt>
      <trkpt lat="45.61761" lon="6.63691">
        <ele>2530.1999511719</ele>
        <time>2019-01-19T13:36:15.000Z</time>
      </trkpt>
      <trkpt lat="45.61761" lon="6.63691">
        <ele>2530.1999511719</ele>
        <time>2019-01-19T13:36:18.000Z</time>
      </trkpt>
      <trkpt lat="45.61761" lon="6.63691">
        <ele>2530.1999511719</ele>
        <time>2019-01-19T13:36:33.000Z</time>
      </trkpt>
      <trkpt lat="45.61761" lon="6.6369">
        <ele>2530.1999511719</ele>
        <time>2019-01-19T13:36:49.000Z</time>
      </trkpt>
      <trkpt lat="45.61761" lon="6.6369">
        <ele>2530.1999511719</ele>
        <time>2019-01-19T13:37:02.000Z</time>
      </trkpt>
      <trkpt lat="45.6176" lon="6.6369">
        <ele>2530.1999511719</ele>
        <time>2019-01-19T13:37:21.000Z</time>
      </trkpt>
      <trkpt lat="45.61761" lon="6.6369">
        <ele>2530.1999511719</ele>
        <time>2019-01-19T13:37:36.000Z</time>
      </trkpt>
      <trkpt lat="45.61773" lon="6.63687">
        <ele>2531.1999511719</ele>
        <time>2019-01-19T13:37:47.000Z</time>
      </trkpt>
      <trkpt lat="45.61792" lon="6.63685">
        <ele>2532.6000976562</ele>
        <time>2019-01-19T13:38:03.000Z</time>
      </trkpt>
      <trkpt lat="45.61795" lon="6.63687">
        <ele>2532.8000488281</ele>
        <time>2019-01-19T13:38:15.000Z</time>
      </trkpt>
      <trkpt lat="45.61803" lon="6.63686">
        <ele>2534</ele>
        <time>2019-01-19T13:38:27.000Z</time>
      </trkpt>
      <trkpt lat="45.61808" lon="6.63684">
        <ele>2537</ele>
        <time>2019-01-19T13:38:42.000Z</time>
      </trkpt>
      <trkpt lat="45.61808" lon="6.63684">
        <ele>2537</ele>
        <time>2019-01-19T13:38:52.000Z</time>
      </trkpt>
      <trkpt lat="45.61808" lon="6.63684">
        <ele>2537</ele>
        <time>2019-01-19T13:39:00.000Z</time>
      </trkpt>
      <trkpt lat="45.618" lon="6.63689">
        <ele>2533.1999511719</ele>
        <time>2019-01-19T13:39:12.000Z</time>
      </trkpt>
      <trkpt lat="45.61785" lon="6.63691">
        <ele>2532</ele>
        <time>2019-01-19T13:39:22.000Z</time>
      </trkpt>
      <trkpt lat="45.61781" lon="6.63687">
        <ele>2531.8000488281</ele>
        <time>2019-01-19T13:39:36.000Z</time>
      </trkpt>
      <trkpt lat="45.61781" lon="6.63688">
        <ele>2531.8000488281</ele>
        <time>2019-01-19T13:39:51.000Z</time>
      </trkpt>
      <trkpt lat="45.61783" lon="6.6369">
        <ele>2531.8000488281</ele>
        <time>2019-01-19T13:39:55.000Z</time>
      </trkpt>
      <trkpt lat="45.61784" lon="6.63691">
        <ele>2531.8000488281</ele>
        <time>2019-01-19T13:39:58.000Z</time>
      </trkpt>
      <trkpt lat="45.61779" lon="6.63691">
        <ele>2531.6000976562</ele>
        <time>2019-01-19T13:39:59.000Z</time>
      </trkpt>
      <trkpt lat="45.61767" lon="6.63693">
        <ele>2530.6000976562</ele>
        <time>2019-01-19T13:40:04.000Z</time>
      </trkpt>
      <trkpt lat="45.61767" lon="6.63693">
        <ele>2530.6000976562</ele>
        <time>2019-01-19T13:40:08.000Z</time>
      </trkpt>
      <trkpt lat="45.61767" lon="6.63694">
        <ele>2530.6000976562</ele>
        <time>2019-01-19T13:40:10.000Z</time>
      </trkpt>
      <trkpt lat="45.61766" lon="6.63697">
        <ele>2530.1999511719</ele>
        <time>2019-01-19T13:40:24.000Z</time>
      </trkpt>
      <trkpt lat="45.61763" lon="6.637">
        <ele>2530.6000976562</ele>
        <time>2019-01-19T13:40:37.000Z</time>
      </trkpt>
      <trkpt lat="45.6176" lon="6.63702">
        <ele>2531.1999511719</ele>
        <time>2019-01-19T13:40:50.000Z</time>
      </trkpt>
      <trkpt lat="45.61761" lon="6.63701">
        <ele>2531</ele>
        <time>2019-01-19T13:40:52.000Z</time>
      </trkpt>
      <trkpt lat="45.61771" lon="6.63696">
        <ele>2530.6000976562</ele>
        <time>2019-01-19T13:41:05.000Z</time>
      </trkpt>
      <trkpt lat="45.61781" lon="6.63692">
        <ele>2531.6000976562</ele>
        <time>2019-01-19T13:41:13.000Z</time>
      </trkpt>
      <trkpt lat="45.61799" lon="6.63694">
        <ele>2532.8000488281</ele>
        <time>2019-01-19T13:41:20.000Z</time>
      </trkpt>
      <trkpt lat="45.61831" lon="6.63693">
        <ele>2549.8000488281</ele>
        <time>2019-01-19T13:41:28.000Z</time>
      </trkpt>
      <trkpt lat="45.61869" lon="6.63693">
        <ele>2561.8000488281</ele>
        <time>2019-01-19T13:41:37.000Z</time>
      </trkpt>
      <trkpt lat="45.61909" lon="6.63697">
        <ele>2568.8000488281</ele>
        <time>2019-01-19T13:41:46.000Z</time>
      </trkpt>
      <trkpt lat="45.6196" lon="6.637">
        <ele>2573.8000488281</ele>
        <time>2019-01-19T13:41:56.000Z</time>
      </trkpt>
      <trkpt lat="45.62018" lon="6.63698">
        <ele>2585.3999023438</ele>
        <time>2019-01-19T13:42:03.000Z</time>
      </trkpt>
      <trkpt lat="45.62026" lon="6.63698">
        <ele>2586.8000488281</ele>
        <time>2019-01-19T13:42:04.000Z</time>
      </trkpt>
      <trkpt lat="45.62043" lon="6.63697">
        <ele>2589.3999023438</ele>
        <time>2019-01-19T13:42:06.000Z</time>
      </trkpt>
      <trkpt lat="45.62098" lon="6.63697">
        <ele>2565.3999023438</ele>
        <time>2019-01-19T13:42:13.000Z</time>
      </trkpt>
      <trkpt lat="45.62105" lon="6.63697">
        <ele>2561</ele>
        <time>2019-01-19T13:42:14.000Z</time>
      </trkpt>
      <trkpt lat="45.61741" lon="6.63688">
        <ele>2531.6000976562</ele>
        <time>2019-01-19T13:42:19.000Z</time>
      </trkpt>
      <trkpt lat="45.61762" lon="6.63689">
        <ele>2530.3999023438</ele>
        <time>2019-01-19T13:42:31.000Z</time>
      </trkpt>
      <trkpt lat="45.61767" lon="6.63688">
        <ele>2530.8000488281</ele>
        <time>2019-01-19T13:42:41.000Z</time>
      </trkpt>
      <trkpt lat="45.61767" lon="6.63688">
        <ele>2530.8000488281</ele>
        <time>2019-01-19T13:42:42.000Z</time>
      </trkpt>
      <trkpt lat="45.6177" lon="6.63687">
        <ele>2531</ele>
        <time>2019-01-19T13:42:48.000Z</time>
      </trkpt>
      <trkpt lat="45.61774" lon="6.63687">
        <ele>2531.1999511719</ele>
        <time>2019-01-19T13:42:54.000Z</time>
      </trkpt>
      <trkpt lat="45.61782" lon="6.63687">
        <ele>2531.8000488281</ele>
        <time>2019-01-19T13:43:04.000Z</time>
      </trkpt>
      <trkpt lat="45.61793" lon="6.63689">
        <ele>2532.6000976562</ele>
        <time>2019-01-19T13:43:16.000Z</time>
      </trkpt>
      <trkpt lat="45.61793" lon="6.63691">
        <ele>2532.3999023438</ele>
        <time>2019-01-19T13:43:23.000Z</time>
      </trkpt>
      <trkpt lat="45.618" lon="6.63688">
        <ele>2533.1999511719</ele>
        <time>2019-01-19T13:43:30.000Z</time>
      </trkpt>
      <trkpt lat="45.61816" lon="6.63687">
        <ele>2541</ele>
        <time>2019-01-19T13:43:38.000Z</time>
      </trkpt>
      <trkpt lat="45.61817" lon="6.63688">
        <ele>2541.6000976562</ele>
        <time>2019-01-19T13:43:45.000Z</time>
      </trkpt>
      <trkpt lat="45.61817" lon="6.63688">
        <ele>2541.6000976562</ele>
        <time>2019-01-19T13:43:59.000Z</time>
      </trkpt>
      <trkpt lat="45.61817" lon="6.63688">
        <ele>2541.6000976562</ele>
        <time>2019-01-19T13:44:09.000Z</time>
      </trkpt>
      <trkpt lat="45.61817" lon="6.63688">
        <ele>2541.6000976562</ele>
        <time>2019-01-19T13:44:21.000Z</time>
      </trkpt>
      <trkpt lat="45.61817" lon="6.63688">
        <ele>2541.6000976562</ele>
        <time>2019-01-19T13:44:38.000Z</time>
      </trkpt>
      <trkpt lat="45.61815" lon="6.63689">
        <ele>2540.8000488281</ele>
        <time>2019-01-19T13:44:54.000Z</time>
      </trkpt>
      <trkpt lat="45.61815" lon="6.63689">
        <ele>2540.8000488281</ele>
        <time>2019-01-19T13:45:05.000Z</time>
      </trkpt>
      <trkpt lat="45.61815" lon="6.63689">
        <ele>2540.8000488281</ele>
        <time>2019-01-19T13:45:20.000Z</time>
      </trkpt>
      <trkpt lat="45.61813" lon="6.63689">
        <ele>2539.6000976562</ele>
        <time>2019-01-19T13:45:34.000Z</time>
      </trkpt>
      <trkpt lat="45.61813" lon="6.63689">
        <ele>2539.6000976562</ele>
        <time>2019-01-19T13:45:50.000Z</time>
      </trkpt>
      <trkpt lat="45.61813" lon="6.63689">
        <ele>2539.6000976562</ele>
        <time>2019-01-19T13:46:03.000Z</time>
      </trkpt>
      <trkpt lat="45.61813" lon="6.63689">
        <ele>2539.6000976562</ele>
        <time>2019-01-19T13:46:09.000Z</time>
      </trkpt>
      <trkpt lat="45.6181" lon="6.63689">
        <ele>2538</ele>
        <time>2019-01-19T13:46:15.000Z</time>
      </trkpt>
      <trkpt lat="45.6181" lon="6.63689">
        <ele>2538</ele>
        <time>2019-01-19T13:46:25.000Z</time>
      </trkpt>
      <trkpt lat="45.61808" lon="6.63689">
        <ele>2536.8000488281</ele>
        <time>2019-01-19T13:46:39.000Z</time>
      </trkpt>
      <trkpt lat="45.61808" lon="6.63689">
        <ele>2536.8000488281</ele>
        <time>2019-01-19T13:46:55.000Z</time>
      </trkpt>
      <trkpt lat="45.61808" lon="6.63689">
        <ele>2536.8000488281</ele>
        <time>2019-01-19T13:47:06.000Z</time>
      </trkpt>
      <trkpt lat="45.61807" lon="6.6369">
        <ele>2535.8000488281</ele>
        <time>2019-01-19T13:47:21.000Z</time>
      </trkpt>
      <trkpt lat="45.61804" lon="6.63691">
        <ele>2534.1999511719</ele>
        <time>2019-01-19T13:47:31.000Z</time>
      </trkpt>
      <trkpt lat="45.618" lon="6.63692">
        <ele>2533</ele>
        <time>2019-01-19T13:47:36.000Z</time>
      </trkpt>
      <trkpt lat="45.61795" lon="6.63695">
        <ele>2532.3999023438</ele>
        <time>2019-01-19T13:47:40.000Z</time>
      </trkpt>
      <trkpt lat="45.61792" lon="6.63695">
        <ele>2532.1999511719</ele>
        <time>2019-01-19T13:47:41.000Z</time>
      </trkpt>
      <trkpt lat="45.61789" lon="6.63696">
        <ele>2532</ele>
        <time>2019-01-19T13:47:43.000Z</time>
      </trkpt>
      <trkpt lat="45.61789" lon="6.63696">
        <ele>2532</ele>
        <time>2019-01-19T13:47:44.000Z</time>
      </trkpt>
      <trkpt lat="45.6179" lon="6.63698">
        <ele>2532</ele>
        <time>2019-01-19T13:47:48.000Z</time>
      </trkpt>
      <trkpt lat="45.61788" lon="6.637">
        <ele>2531.8000488281</ele>
        <time>2019-01-19T13:47:49.000Z</time>
      </trkpt>
      <trkpt lat="45.61784" lon="6.63701">
        <ele>2531.3999023438</ele>
        <time>2019-01-19T13:47:52.000Z</time>
      </trkpt>
      <trkpt lat="45.6178" lon="6.63702">
        <ele>2531</ele>
        <time>2019-01-19T13:47:55.000Z</time>
      </trkpt>
      <trkpt lat="45.61777" lon="6.63704">
        <ele>2530.8000488281</ele>
        <time>2019-01-19T13:47:56.000Z</time>
      </trkpt>
      <trkpt lat="45.61769" lon="6.63706">
        <ele>2530.8000488281</ele>
        <time>2019-01-19T13:47:57.000Z</time>
      </trkpt>
      <trkpt lat="45.61769" lon="6.63706">
        <ele>2530.8000488281</ele>
        <time>2019-01-19T13:47:58.000Z</time>
      </trkpt>
      <trkpt lat="45.61769" lon="6.63706">
        <ele>2530.8000488281</ele>
        <time>2019-01-19T13:47:59.000Z</time>
      </trkpt>
      <trkpt lat="45.61769" lon="6.63706">
        <ele>2530.8000488281</ele>
        <time>2019-01-19T13:48:00.000Z</time>
      </trkpt>
      <trkpt lat="45.61762" lon="6.6371">
        <ele>2532.1999511719</ele>
        <time>2019-01-19T13:48:05.000Z</time>
      </trkpt>
      <trkpt lat="45.61758" lon="6.63711">
        <ele>2533</ele>
        <time>2019-01-19T13:48:09.000Z</time>
      </trkpt>
      <trkpt lat="45.61757" lon="6.63713">
        <ele>2533.3999023438</ele>
        <time>2019-01-19T13:48:10.000Z</time>
      </trkpt>
      <trkpt lat="45.61753" lon="6.63717">
        <ele>2534.6000976562</ele>
        <time>2019-01-19T13:48:12.000Z</time>
      </trkpt>
      <trkpt lat="45.61754" lon="6.63719">
        <ele>2534.8000488281</ele>
        <time>2019-01-19T13:48:13.000Z</time>
      </trkpt>
      <trkpt lat="45.61753" lon="6.6372">
        <ele>2535</ele>
        <time>2019-01-19T13:48:15.000Z</time>
      </trkpt>
      <trkpt lat="45.61752" lon="6.63722">
        <ele>2535.6000976562</ele>
        <time>2019-01-19T13:48:17.000Z</time>
      </trkpt>
      <trkpt lat="45.61751" lon="6.63724">
        <ele>2536</ele>
        <time>2019-01-19T13:48:18.000Z</time>
      </trkpt>
      <trkpt lat="45.61752" lon="6.63726">
        <ele>2536</ele>
        <time>2019-01-19T13:48:19.000Z</time>
      </trkpt>
      <trkpt lat="45.61753" lon="6.6373">
        <ele>2536.6000976562</ele>
        <time>2019-01-19T13:48:21.000Z</time>
      </trkpt>
      <trkpt lat="45.61752" lon="6.63732">
        <ele>2537</ele>
        <time>2019-01-19T13:48:23.000Z</time>
      </trkpt>
      <trkpt lat="45.61751" lon="6.63732">
        <ele>2537.1999511719</ele>
        <time>2019-01-19T13:48:24.000Z</time>
      </trkpt>
      <trkpt lat="45.6175" lon="6.63732">
        <ele>2537.1999511719</ele>
        <time>2019-01-19T13:48:25.000Z</time>
      </trkpt>
      <trkpt lat="45.6175" lon="6.63732">
        <ele>2537.1999511719</ele>
        <time>2019-01-19T13:48:26.000Z</time>
      </trkpt>
      <trkpt lat="45.6175" lon="6.63732">
        <ele>2537.1999511719</ele>
        <time>2019-01-19T13:48:28.000Z</time>
      </trkpt>
      <trkpt lat="45.6175" lon="6.63732">
        <ele>2537.1999511719</ele>
        <time>2019-01-19T13:48:30.000Z</time>
      </trkpt>
      <trkpt lat="45.6175" lon="6.63732">
        <ele>2537.1999511719</ele>
        <time>2019-01-19T13:48:32.000Z</time>
      </trkpt>
      <trkpt lat="45.6175" lon="6.63733">
        <ele>2537.3999023438</ele>
        <time>2019-01-19T13:48:47.000Z</time>
      </trkpt>
      <trkpt lat="45.61751" lon="6.63735">
        <ele>2537.6000976562</ele>
        <time>2019-01-19T13:48:48.000Z</time>
      </trkpt>
      <trkpt lat="45.61751" lon="6.63738">
        <ele>2536.8000488281</ele>
        <time>2019-01-19T13:48:51.000Z</time>
      </trkpt>
      <trkpt lat="45.6175" lon="6.63741">
        <ele>2535.8000488281</ele>
        <time>2019-01-19T13:48:53.000Z</time>
      </trkpt>
      <trkpt lat="45.6175" lon="6.6374">
        <ele>2536</ele>
        <time>2019-01-19T13:48:54.000Z</time>
      </trkpt>
      <trkpt lat="45.6175" lon="6.63741">
        <ele>2535.8000488281</ele>
        <time>2019-01-19T13:48:55.000Z</time>
      </trkpt>
      <trkpt lat="45.6175" lon="6.63741">
        <ele>2535.6000976562</ele>
        <time>2019-01-19T13:48:56.000Z</time>
      </trkpt>
      <trkpt lat="45.6175" lon="6.63741">
        <ele>2535.6000976562</ele>
        <time>2019-01-19T13:48:58.000Z</time>
      </trkpt>
      <trkpt lat="45.6175" lon="6.63741">
        <ele>2535.6000976562</ele>
        <time>2019-01-19T13:49:00.000Z</time>
      </trkpt>
      <trkpt lat="45.6175" lon="6.63741">
        <ele>2535.6000976562</ele>
        <time>2019-01-19T13:49:04.000Z</time>
      </trkpt>
      <trkpt lat="45.6175" lon="6.63741">
        <ele>2535.6000976562</ele>
        <time>2019-01-19T13:49:06.000Z</time>
      </trkpt>
      <trkpt lat="45.61753" lon="6.63749">
        <ele>2531.8000488281</ele>
        <time>2019-01-19T13:49:10.000Z</time>
      </trkpt>
      <trkpt lat="45.61754" lon="6.6375">
        <ele>2531.3999023438</ele>
        <time>2019-01-19T13:49:11.000Z</time>
      </trkpt>
      <trkpt lat="45.61755" lon="6.63753">
        <ele>2530.1999511719</ele>
        <time>2019-01-19T13:49:13.000Z</time>
      </trkpt>
      <trkpt lat="45.61756" lon="6.63754">
        <ele>2529.6000976562</ele>
        <time>2019-01-19T13:49:14.000Z</time>
      </trkpt>
      <trkpt lat="45.61757" lon="6.63756">
        <ele>2528.6000976562</ele>
        <time>2019-01-19T13:49:15.000Z</time>
      </trkpt>
      <trkpt lat="45.61758" lon="6.63758">
        <ele>2528</ele>
        <time>2019-01-19T13:49:16.000Z</time>
      </trkpt>
      <trkpt lat="45.61757" lon="6.6376">
        <ele>2527</ele>
        <time>2019-01-19T13:49:17.000Z</time>
      </trkpt>
      <trkpt lat="45.61758" lon="6.63761">
        <ele>2526.3999023438</ele>
        <time>2019-01-19T13:49:18.000Z</time>
      </trkpt>
      <trkpt lat="45.61758" lon="6.63763">
        <ele>2525.3999023438</ele>
        <time>2019-01-19T13:49:19.000Z</time>
      </trkpt>
      <trkpt lat="45.61757" lon="6.63766">
        <ele>2524.3999023438</ele>
        <time>2019-01-19T13:49:20.000Z</time>
      </trkpt>
      <trkpt lat="45.61755" lon="6.63771">
        <ele>2523</ele>
        <time>2019-01-19T13:49:21.000Z</time>
      </trkpt>
      <trkpt lat="45.61757" lon="6.63775">
        <ele>2520.8000488281</ele>
        <time>2019-01-19T13:49:22.000Z</time>
      </trkpt>
      <trkpt lat="45.61757" lon="6.63779">
        <ele>2517.6000976562</ele>
        <time>2019-01-19T13:49:23.000Z</time>
      </trkpt>
      <trkpt lat="45.61756" lon="6.63782">
        <ele>2515.3999023438</ele>
        <time>2019-01-19T13:49:24.000Z</time>
      </trkpt>
      <trkpt lat="45.61754" lon="6.63785">
        <ele>2513.3999023438</ele>
        <time>2019-01-19T13:49:25.000Z</time>
      </trkpt>
      <trkpt lat="45.61752" lon="6.63787">
        <ele>2511.6000976562</ele>
        <time>2019-01-19T13:49:26.000Z</time>
      </trkpt>
      <trkpt lat="45.61754" lon="6.63791">
        <ele>2509.3999023438</ele>
        <time>2019-01-19T13:49:27.000Z</time>
      </trkpt>
      <trkpt lat="45.61754" lon="6.63794">
        <ele>2507.3999023438</ele>
        <time>2019-01-19T13:49:28.000Z</time>
      </trkpt>
      <trkpt lat="45.61752" lon="6.638">
        <ele>2502.3999023438</ele>
        <time>2019-01-19T13:49:30.000Z</time>
      </trkpt>
      <trkpt lat="45.61753" lon="6.63805">
        <ele>2499.6000976562</ele>
        <time>2019-01-19T13:49:31.000Z</time>
      </trkpt>
      <trkpt lat="45.61752" lon="6.6381">
        <ele>2496.1999511719</ele>
        <time>2019-01-19T13:49:32.000Z</time>
      </trkpt>
      <trkpt lat="45.6175" lon="6.63814">
        <ele>2493.1999511719</ele>
        <time>2019-01-19T13:49:33.000Z</time>
      </trkpt>
      <trkpt lat="45.61748" lon="6.63818">
        <ele>2490.1999511719</ele>
        <time>2019-01-19T13:49:34.000Z</time>
      </trkpt>
      <trkpt lat="45.61748" lon="6.63822">
        <ele>2487.6000976562</ele>
        <time>2019-01-19T13:49:35.000Z</time>
      </trkpt>
      <trkpt lat="45.61746" lon="6.63827">
        <ele>2484.1999511719</ele>
        <time>2019-01-19T13:49:36.000Z</time>
      </trkpt>
      <trkpt lat="45.61742" lon="6.63834">
        <ele>2479.6000976562</ele>
        <time>2019-01-19T13:49:37.000Z</time>
      </trkpt>
      <trkpt lat="45.61743" lon="6.63841">
        <ele>2476</ele>
        <time>2019-01-19T13:49:38.000Z</time>
      </trkpt>
      <trkpt lat="45.61743" lon="6.63848">
        <ele>2471.8000488281</ele>
        <time>2019-01-19T13:49:39.000Z</time>
      </trkpt>
      <trkpt lat="45.61741" lon="6.63854">
        <ele>2468</ele>
        <time>2019-01-19T13:49:40.000Z</time>
      </trkpt>
      <trkpt lat="45.61739" lon="6.63862">
        <ele>2463.3999023438</ele>
        <time>2019-01-19T13:49:41.000Z</time>
      </trkpt>
      <trkpt lat="45.61738" lon="6.6387">
        <ele>2458.3999023438</ele>
        <time>2019-01-19T13:49:42.000Z</time>
      </trkpt>
      <trkpt lat="45.61738" lon="6.63878">
        <ele>2453.8000488281</ele>
        <time>2019-01-19T13:49:43.000Z</time>
      </trkpt>
      <trkpt lat="45.61736" lon="6.63886">
        <ele>2449.3999023438</ele>
        <time>2019-01-19T13:49:44.000Z</time>
      </trkpt>
      <trkpt lat="45.61733" lon="6.63895">
        <ele>2444</ele>
        <time>2019-01-19T13:49:45.000Z</time>
      </trkpt>
      <trkpt lat="45.61735" lon="6.63903">
        <ele>2439.8000488281</ele>
        <time>2019-01-19T13:49:46.000Z</time>
      </trkpt>
      <trkpt lat="45.61733" lon="6.63911">
        <ele>2437.3999023438</ele>
        <time>2019-01-19T13:49:47.000Z</time>
      </trkpt>
      <trkpt lat="45.6173" lon="6.63918">
        <ele>2434.6000976562</ele>
        <time>2019-01-19T13:49:48.000Z</time>
      </trkpt>
      <trkpt lat="45.61727" lon="6.63926">
        <ele>2431.3999023438</ele>
        <time>2019-01-19T13:49:49.000Z</time>
      </trkpt>
      <trkpt lat="45.61724" lon="6.63936">
        <ele>2427.6000976562</ele>
        <time>2019-01-19T13:49:50.000Z</time>
      </trkpt>
      <trkpt lat="45.61721" lon="6.63944">
        <ele>2424.6000976562</ele>
        <time>2019-01-19T13:49:51.000Z</time>
      </trkpt>
      <trkpt lat="45.61718" lon="6.63952">
        <ele>2421.1999511719</ele>
        <time>2019-01-19T13:49:52.000Z</time>
      </trkpt>
      <trkpt lat="45.61719" lon="6.6396">
        <ele>2418.8000488281</ele>
        <time>2019-01-19T13:49:53.000Z</time>
      </trkpt>
      <trkpt lat="45.61719" lon="6.63967">
        <ele>2416.1999511719</ele>
        <time>2019-01-19T13:49:54.000Z</time>
      </trkpt>
      <trkpt lat="45.61717" lon="6.63973">
        <ele>2414</ele>
        <time>2019-01-19T13:49:55.000Z</time>
      </trkpt>
      <trkpt lat="45.61715" lon="6.63977">
        <ele>2412.1999511719</ele>
        <time>2019-01-19T13:49:56.000Z</time>
      </trkpt>
      <trkpt lat="45.61711" lon="6.63978">
        <ele>2411.1999511719</ele>
        <time>2019-01-19T13:49:57.000Z</time>
      </trkpt>
      <trkpt lat="45.61708" lon="6.63977">
        <ele>2410.8000488281</ele>
        <time>2019-01-19T13:49:58.000Z</time>
      </trkpt>
      <trkpt lat="45.61708" lon="6.63974">
        <ele>2411.8000488281</ele>
        <time>2019-01-19T13:49:59.000Z</time>
      </trkpt>
      <trkpt lat="45.61706" lon="6.63973">
        <ele>2411.8000488281</ele>
        <time>2019-01-19T13:50:00.000Z</time>
      </trkpt>
      <trkpt lat="45.61705" lon="6.63969">
        <ele>2413</ele>
        <time>2019-01-19T13:50:01.000Z</time>
      </trkpt>
      <trkpt lat="45.61705" lon="6.63969">
        <ele>2413</ele>
        <time>2019-01-19T13:50:02.000Z</time>
      </trkpt>
      <trkpt lat="45.61704" lon="6.63966">
        <ele>2413.6000976562</ele>
        <time>2019-01-19T13:50:04.000Z</time>
      </trkpt>
      <trkpt lat="45.61705" lon="6.63968">
        <ele>2413.1999511719</ele>
        <time>2019-01-19T13:50:05.000Z</time>
      </trkpt>
      <trkpt lat="45.61705" lon="6.63968">
        <ele>2413.3999023438</ele>
        <time>2019-01-19T13:50:09.000Z</time>
      </trkpt>
      <trkpt lat="45.61705" lon="6.63968">
        <ele>2413.3999023438</ele>
        <time>2019-01-19T13:50:10.000Z</time>
      </trkpt>
      <trkpt lat="45.61705" lon="6.63968">
        <ele>2413.3999023438</ele>
        <time>2019-01-19T13:50:13.000Z</time>
      </trkpt>
      <trkpt lat="45.61705" lon="6.63968">
        <ele>2413.3999023438</ele>
        <time>2019-01-19T13:50:25.000Z</time>
      </trkpt>
      <trkpt lat="45.61705" lon="6.63968">
        <ele>2413.3999023438</ele>
        <time>2019-01-19T13:50:40.000Z</time>
      </trkpt>
      <trkpt lat="45.61705" lon="6.63967">
        <ele>2413.6000976562</ele>
        <time>2019-01-19T13:50:57.000Z</time>
      </trkpt>
      <trkpt lat="45.61705" lon="6.63967">
        <ele>2413.6000976562</ele>
        <time>2019-01-19T13:51:00.000Z</time>
      </trkpt>
      <trkpt lat="45.61705" lon="6.63967">
        <ele>2413.6000976562</ele>
        <time>2019-01-19T13:51:12.000Z</time>
      </trkpt>
      <trkpt lat="45.61705" lon="6.63966">
        <ele>2413.8000488281</ele>
        <time>2019-01-19T13:51:34.000Z</time>
      </trkpt>
      <trkpt lat="45.61705" lon="6.63966">
        <ele>2413.8000488281</ele>
        <time>2019-01-19T13:51:46.000Z</time>
      </trkpt>
      <trkpt lat="45.61701" lon="6.63966">
        <ele>2413</ele>
        <time>2019-01-19T13:51:51.000Z</time>
      </trkpt>
      <trkpt lat="45.61698" lon="6.63966">
        <ele>2412.3999023438</ele>
        <time>2019-01-19T13:51:52.000Z</time>
      </trkpt>
      <trkpt lat="45.61694" lon="6.63966">
        <ele>2411.6000976562</ele>
        <time>2019-01-19T13:51:53.000Z</time>
      </trkpt>
      <trkpt lat="45.61683" lon="6.63963">
        <ele>2410</ele>
        <time>2019-01-19T13:51:56.000Z</time>
      </trkpt>
      <trkpt lat="45.61681" lon="6.63963">
        <ele>2409.8000488281</ele>
        <time>2019-01-19T13:51:57.000Z</time>
      </trkpt>
      <trkpt lat="45.61671" lon="6.63961">
        <ele>2408.1999511719</ele>
        <time>2019-01-19T13:52:00.000Z</time>
      </trkpt>
      <trkpt lat="45.6166" lon="6.63961">
        <ele>2406.1999511719</ele>
        <time>2019-01-19T13:52:03.000Z</time>
      </trkpt>
      <trkpt lat="45.61648" lon="6.63962">
        <ele>2402.8000488281</ele>
        <time>2019-01-19T13:52:06.000Z</time>
      </trkpt>
      <trkpt lat="45.61643" lon="6.63963">
        <ele>2401.6000976562</ele>
        <time>2019-01-19T13:52:07.000Z</time>
      </trkpt>
      <trkpt lat="45.61633" lon="6.63962">
        <ele>2400</ele>
        <time>2019-01-19T13:52:09.000Z</time>
      </trkpt>
      <trkpt lat="45.6163" lon="6.63961">
        <ele>2399.6000976562</ele>
        <time>2019-01-19T13:52:10.000Z</time>
      </trkpt>
      <trkpt lat="45.61628" lon="6.63961">
        <ele>2399.3999023438</ele>
        <time>2019-01-19T13:52:11.000Z</time>
      </trkpt>
      <trkpt lat="45.61627" lon="6.63964">
        <ele>2398.1999511719</ele>
        <time>2019-01-19T13:52:12.000Z</time>
      </trkpt>
      <trkpt lat="45.61622" lon="6.6397">
        <ele>2395.1999511719</ele>
        <time>2019-01-19T13:52:14.000Z</time>
      </trkpt>
      <trkpt lat="45.61612" lon="6.63973">
        <ele>2392.1999511719</ele>
        <time>2019-01-19T13:52:16.000Z</time>
      </trkpt>
      <trkpt lat="45.61608" lon="6.63977">
        <ele>2389.8000488281</ele>
        <time>2019-01-19T13:52:17.000Z</time>
      </trkpt>
      <trkpt lat="45.61606" lon="6.63982">
        <ele>2387.3999023438</ele>
        <time>2019-01-19T13:52:18.000Z</time>
      </trkpt>
      <trkpt lat="45.61602" lon="6.63988">
        <ele>2384.8000488281</ele>
        <time>2019-01-19T13:52:19.000Z</time>
      </trkpt>
      <trkpt lat="45.61594" lon="6.63991">
        <ele>2382.8000488281</ele>
        <time>2019-01-19T13:52:20.000Z</time>
      </trkpt>
      <trkpt lat="45.61587" lon="6.63994">
        <ele>2381</ele>
        <time>2019-01-19T13:52:21.000Z</time>
      </trkpt>
      <trkpt lat="45.61581" lon="6.63996">
        <ele>2379.3999023438</ele>
        <time>2019-01-19T13:52:22.000Z</time>
      </trkpt>
      <trkpt lat="45.61576" lon="6.63999">
        <ele>2377.8000488281</ele>
        <time>2019-01-19T13:52:23.000Z</time>
      </trkpt>
      <trkpt lat="45.61571" lon="6.64006">
        <ele>2375.6000976562</ele>
        <time>2019-01-19T13:52:24.000Z</time>
      </trkpt>
      <trkpt lat="45.61566" lon="6.64012">
        <ele>2373.6000976562</ele>
        <time>2019-01-19T13:52:25.000Z</time>
      </trkpt>
      <trkpt lat="45.61563" lon="6.64023">
        <ele>2371.1999511719</ele>
        <time>2019-01-19T13:52:26.000Z</time>
      </trkpt>
      <trkpt lat="45.61562" lon="6.64034">
        <ele>2369</ele>
        <time>2019-01-19T13:52:27.000Z</time>
      </trkpt>
      <trkpt lat="45.61564" lon="6.64045">
        <ele>2367.6000976562</ele>
        <time>2019-01-19T13:52:28.000Z</time>
      </trkpt>
      <trkpt lat="45.61565" lon="6.64055">
        <ele>2366</ele>
        <time>2019-01-19T13:52:29.000Z</time>
      </trkpt>
      <trkpt lat="45.61563" lon="6.64062">
        <ele>2364.3999023438</ele>
        <time>2019-01-19T13:52:30.000Z</time>
      </trkpt>
      <trkpt lat="45.61559" lon="6.64068">
        <ele>2362.6000976562</ele>
        <time>2019-01-19T13:52:31.000Z</time>
      </trkpt>
      <trkpt lat="45.61553" lon="6.64069">
        <ele>2361.1999511719</ele>
        <time>2019-01-19T13:52:32.000Z</time>
      </trkpt>
      <trkpt lat="45.61548" lon="6.6407">
        <ele>2359.8000488281</ele>
        <time>2019-01-19T13:52:33.000Z</time>
      </trkpt>
      <trkpt lat="45.61543" lon="6.64073">
        <ele>2358.1999511719</ele>
        <time>2019-01-19T13:52:34.000Z</time>
      </trkpt>
      <trkpt lat="45.61538" lon="6.64078">
        <ele>2356.3999023438</ele>
        <time>2019-01-19T13:52:35.000Z</time>
      </trkpt>
      <trkpt lat="45.61531" lon="6.64081">
        <ele>2354.1999511719</ele>
        <time>2019-01-19T13:52:36.000Z</time>
      </trkpt>
      <trkpt lat="45.61525" lon="6.64088">
        <ele>2351.6000976562</ele>
        <time>2019-01-19T13:52:37.000Z</time>
      </trkpt>
      <trkpt lat="45.61521" lon="6.64097">
        <ele>2349.3999023438</ele>
        <time>2019-01-19T13:52:38.000Z</time>
      </trkpt>
      <trkpt lat="45.61519" lon="6.64109">
        <ele>2347.3999023438</ele>
        <time>2019-01-19T13:52:39.000Z</time>
      </trkpt>
      <trkpt lat="45.61515" lon="6.64119">
        <ele>2345.3999023438</ele>
        <time>2019-01-19T13:52:40.000Z</time>
      </trkpt>
      <trkpt lat="45.61512" lon="6.64129">
        <ele>2344.1999511719</ele>
        <time>2019-01-19T13:52:41.000Z</time>
      </trkpt>
      <trkpt lat="45.61507" lon="6.64135">
        <ele>2343</ele>
        <time>2019-01-19T13:52:42.000Z</time>
      </trkpt>
      <trkpt lat="45.615" lon="6.64143">
        <ele>2341.1999511719</ele>
        <time>2019-01-19T13:52:43.000Z</time>
      </trkpt>
      <trkpt lat="45.61494" lon="6.64149">
        <ele>2339.8000488281</ele>
        <time>2019-01-19T13:52:44.000Z</time>
      </trkpt>
      <trkpt lat="45.61486" lon="6.6415">
        <ele>2338.1999511719</ele>
        <time>2019-01-19T13:52:45.000Z</time>
      </trkpt>
      <trkpt lat="45.61478" lon="6.64149">
        <ele>2336.8000488281</ele>
        <time>2019-01-19T13:52:46.000Z</time>
      </trkpt>
      <trkpt lat="45.6147" lon="6.64151">
        <ele>2335.3999023438</ele>
        <time>2019-01-19T13:52:47.000Z</time>
      </trkpt>
      <trkpt lat="45.61463" lon="6.64152">
        <ele>2335.1999511719</ele>
        <time>2019-01-19T13:52:48.000Z</time>
      </trkpt>
      <trkpt lat="45.61455" lon="6.6415">
        <ele>2335.3999023438</ele>
        <time>2019-01-19T13:52:49.000Z</time>
      </trkpt>
      <trkpt lat="45.61448" lon="6.64148">
        <ele>2335.8000488281</ele>
        <time>2019-01-19T13:52:50.000Z</time>
      </trkpt>
      <trkpt lat="45.61441" lon="6.6415">
        <ele>2335.6000976562</ele>
        <time>2019-01-19T13:52:51.000Z</time>
      </trkpt>
      <trkpt lat="45.61433" lon="6.64149">
        <ele>2335.8000488281</ele>
        <time>2019-01-19T13:52:52.000Z</time>
      </trkpt>
      <trkpt lat="45.61427" lon="6.6415">
        <ele>2335.8000488281</ele>
        <time>2019-01-19T13:52:53.000Z</time>
      </trkpt>
      <trkpt lat="45.61422" lon="6.64151">
        <ele>2335.8000488281</ele>
        <time>2019-01-19T13:52:54.000Z</time>
      </trkpt>
      <trkpt lat="45.61417" lon="6.6415">
        <ele>2335.8000488281</ele>
        <time>2019-01-19T13:52:55.000Z</time>
      </trkpt>
      <trkpt lat="45.61412" lon="6.64149">
        <ele>2336</ele>
        <time>2019-01-19T13:52:56.000Z</time>
      </trkpt>
      <trkpt lat="45.61407" lon="6.64149">
        <ele>2336.1999511719</ele>
        <time>2019-01-19T13:52:57.000Z</time>
      </trkpt>
      <trkpt lat="45.61403" lon="6.64149">
        <ele>2336.1999511719</ele>
        <time>2019-01-19T13:52:58.000Z</time>
      </trkpt>
      <trkpt lat="45.61401" lon="6.64148">
        <ele>2336.1999511719</ele>
        <time>2019-01-19T13:52:59.000Z</time>
      </trkpt>
      <trkpt lat="45.61401" lon="6.64146">
        <ele>2336.3999023438</ele>
        <time>2019-01-19T13:53:01.000Z</time>
      </trkpt>
      <trkpt lat="45.61403" lon="6.64146">
        <ele>2336.6000976562</ele>
        <time>2019-01-19T13:53:03.000Z</time>
      </trkpt>
      <trkpt lat="45.61404" lon="6.64145">
        <ele>2336.6000976562</ele>
        <time>2019-01-19T13:53:07.000Z</time>
      </trkpt>
      <trkpt lat="45.61404" lon="6.64145">
        <ele>2336.6000976562</ele>
        <time>2019-01-19T13:53:21.000Z</time>
      </trkpt>
      <trkpt lat="45.61405" lon="6.64145">
        <ele>2336.6000976562</ele>
        <time>2019-01-19T13:53:28.000Z</time>
      </trkpt>
      <trkpt lat="45.61406" lon="6.64144">
        <ele>2336.6000976562</ele>
        <time>2019-01-19T13:53:39.000Z</time>
      </trkpt>
      <trkpt lat="45.61406" lon="6.64144">
        <ele>2336.6000976562</ele>
        <time>2019-01-19T13:53:43.000Z</time>
      </trkpt>
      <trkpt lat="45.61406" lon="6.64144">
        <ele>2336.6000976562</ele>
        <time>2019-01-19T13:53:59.000Z</time>
      </trkpt>
      <trkpt lat="45.61406" lon="6.64144">
        <ele>2336.6000976562</ele>
        <time>2019-01-19T13:54:16.000Z</time>
      </trkpt>
      <trkpt lat="45.61406" lon="6.64144">
        <ele>2336.6000976562</ele>
        <time>2019-01-19T13:54:38.000Z</time>
      </trkpt>
      <trkpt lat="45.61406" lon="6.64144">
        <ele>2336.6000976562</ele>
        <time>2019-01-19T13:54:59.000Z</time>
      </trkpt>
      <trkpt lat="45.61406" lon="6.64144">
        <ele>2336.6000976562</ele>
        <time>2019-01-19T13:55:08.000Z</time>
      </trkpt>
      <trkpt lat="45.61406" lon="6.64144">
        <ele>2336.6000976562</ele>
        <time>2019-01-19T13:55:13.000Z</time>
      </trkpt>
      <trkpt lat="45.61406" lon="6.64144">
        <ele>2336.6000976562</ele>
        <time>2019-01-19T13:55:15.000Z</time>
      </trkpt>
      <trkpt lat="45.61405" lon="6.64144">
        <ele>2336.6000976562</ele>
        <time>2019-01-19T13:55:21.000Z</time>
      </trkpt>
      <trkpt lat="45.61402" lon="6.64144">
        <ele>2336.8000488281</ele>
        <time>2019-01-19T13:55:23.000Z</time>
      </trkpt>
      <trkpt lat="45.61401" lon="6.64143">
        <ele>2336.8000488281</ele>
        <time>2019-01-19T13:55:26.000Z</time>
      </trkpt>
      <trkpt lat="45.61398" lon="6.64142">
        <ele>2337</ele>
        <time>2019-01-19T13:55:30.000Z</time>
      </trkpt>
      <trkpt lat="45.61393" lon="6.64145">
        <ele>2336.6000976562</ele>
        <time>2019-01-19T13:55:35.000Z</time>
      </trkpt>
      <trkpt lat="45.61389" lon="6.64146">
        <ele>2336.6000976562</ele>
        <time>2019-01-19T13:55:42.000Z</time>
      </trkpt>
      <trkpt lat="45.61384" lon="6.64148">
        <ele>2336.6000976562</ele>
        <time>2019-01-19T13:55:46.000Z</time>
      </trkpt>
      <trkpt lat="45.61382" lon="6.64148">
        <ele>2337</ele>
        <time>2019-01-19T13:55:52.000Z</time>
      </trkpt>
      <trkpt lat="45.61381" lon="6.64149">
        <ele>2337</ele>
        <time>2019-01-19T13:55:58.000Z</time>
      </trkpt>
      <trkpt lat="45.6138" lon="6.64148">
        <ele>2337.1999511719</ele>
        <time>2019-01-19T13:56:03.000Z</time>
      </trkpt>
      <trkpt lat="45.61379" lon="6.64148">
        <ele>2337.1999511719</ele>
        <time>2019-01-19T13:56:10.000Z</time>
      </trkpt>
      <trkpt lat="45.61374" lon="6.64148">
        <ele>2337</ele>
        <time>2019-01-19T13:56:15.000Z</time>
      </trkpt>
      <trkpt lat="45.61371" lon="6.64148">
        <ele>2337</ele>
        <time>2019-01-19T13:56:20.000Z</time>
      </trkpt>
      <trkpt lat="45.61366" lon="6.64148">
        <ele>2336.8000488281</ele>
        <time>2019-01-19T13:56:25.000Z</time>
      </trkpt>
      <trkpt lat="45.61365" lon="6.64146">
        <ele>2337.3999023438</ele>
        <time>2019-01-19T13:56:30.000Z</time>
      </trkpt>
      <trkpt lat="45.61364" lon="6.64145">
        <ele>2337.6000976562</ele>
        <time>2019-01-19T13:56:32.000Z</time>
      </trkpt>
      <trkpt lat="45.61362" lon="6.64144">
        <ele>2337.8000488281</ele>
        <time>2019-01-19T13:56:35.000Z</time>
      </trkpt>
      <trkpt lat="45.61361" lon="6.64145">
        <ele>2337.3999023438</ele>
        <time>2019-01-19T13:56:42.000Z</time>
      </trkpt>
      <trkpt lat="45.61358" lon="6.64145">
        <ele>2337</ele>
        <time>2019-01-19T13:56:47.000Z</time>
      </trkpt>
      <trkpt lat="45.61356" lon="6.64145">
        <ele>2337</ele>
        <time>2019-01-19T13:56:51.000Z</time>
      </trkpt>
      <trkpt lat="45.61354" lon="6.64146">
        <ele>2336.8000488281</ele>
        <time>2019-01-19T13:56:56.000Z</time>
      </trkpt>
      <trkpt lat="45.61352" lon="6.64146">
        <ele>2336.6000976562</ele>
        <time>2019-01-19T13:57:01.000Z</time>
      </trkpt>
      <trkpt lat="45.61351" lon="6.64145">
        <ele>2336.8000488281</ele>
        <time>2019-01-19T13:57:03.000Z</time>
      </trkpt>
      <trkpt lat="45.61351" lon="6.64145">
        <ele>2336.8000488281</ele>
        <time>2019-01-19T13:57:05.000Z</time>
      </trkpt>
      <trkpt lat="45.61352" lon="6.64145">
        <ele>2337</ele>
        <time>2019-01-19T13:57:11.000Z</time>
      </trkpt>
      <trkpt lat="45.61351" lon="6.64145">
        <ele>2337</ele>
        <time>2019-01-19T13:57:17.000Z</time>
      </trkpt>
      <trkpt lat="45.61347" lon="6.64147">
        <ele>2336</ele>
        <time>2019-01-19T13:57:20.000Z</time>
      </trkpt>
      <trkpt lat="45.61337" lon="6.64155">
        <ele>2333.8000488281</ele>
        <time>2019-01-19T13:57:26.000Z</time>
      </trkpt>
      <trkpt lat="45.61335" lon="6.64157">
        <ele>2334</ele>
        <time>2019-01-19T13:57:28.000Z</time>
      </trkpt>
      <trkpt lat="45.61332" lon="6.6416">
        <ele>2334</ele>
        <time>2019-01-19T13:57:31.000Z</time>
      </trkpt>
      <trkpt lat="45.61326" lon="6.6416">
        <ele>2333.8000488281</ele>
        <time>2019-01-19T13:57:36.000Z</time>
      </trkpt>
      <trkpt lat="45.61325" lon="6.64161">
        <ele>2333.6000976562</ele>
        <time>2019-01-19T13:57:37.000Z</time>
      </trkpt>
      <trkpt lat="45.61321" lon="6.64161">
        <ele>2333.6000976562</ele>
        <time>2019-01-19T13:57:39.000Z</time>
      </trkpt>
      <trkpt lat="45.61318" lon="6.64161">
        <ele>2333.3999023438</ele>
        <time>2019-01-19T13:57:41.000Z</time>
      </trkpt>
      <trkpt lat="45.61314" lon="6.64163">
        <ele>2333.1999511719</ele>
        <time>2019-01-19T13:57:44.000Z</time>
      </trkpt>
      <trkpt lat="45.61303" lon="6.64166">
        <ele>2332.1999511719</ele>
        <time>2019-01-19T13:57:49.000Z</time>
      </trkpt>
      <trkpt lat="45.61301" lon="6.64167">
        <ele>2332.1999511719</ele>
        <time>2019-01-19T13:57:50.000Z</time>
      </trkpt>
      <trkpt lat="45.61297" lon="6.6417">
        <ele>2332.6000976562</ele>
        <time>2019-01-19T13:57:54.000Z</time>
      </trkpt>
      <trkpt lat="45.61297" lon="6.6417">
        <ele>2332.8000488281</ele>
        <time>2019-01-19T13:57:55.000Z</time>
      </trkpt>
      <trkpt lat="45.61294" lon="6.64171">
        <ele>2333</ele>
        <time>2019-01-19T13:58:00.000Z</time>
      </trkpt>
      <trkpt lat="45.61287" lon="6.64176">
        <ele>2333.6000976562</ele>
        <time>2019-01-19T13:58:05.000Z</time>
      </trkpt>
      <trkpt lat="45.61281" lon="6.64184">
        <ele>2334.3999023438</ele>
        <time>2019-01-19T13:58:10.000Z</time>
      </trkpt>
      <trkpt lat="45.6128" lon="6.64186">
        <ele>2334.6000976562</ele>
        <time>2019-01-19T13:58:11.000Z</time>
      </trkpt>
      <trkpt lat="45.61279" lon="6.64187">
        <ele>2334.6000976562</ele>
        <time>2019-01-19T13:58:12.000Z</time>
      </trkpt>
      <trkpt lat="45.61273" lon="6.64194">
        <ele>2335.1999511719</ele>
        <time>2019-01-19T13:58:17.000Z</time>
      </trkpt>
      <trkpt lat="45.61272" lon="6.64196">
        <ele>2335.3999023438</ele>
        <time>2019-01-19T13:58:18.000Z</time>
      </trkpt>
      <trkpt lat="45.61266" lon="6.64202">
        <ele>2335.3999023438</ele>
        <time>2019-01-19T13:58:23.000Z</time>
      </trkpt>
      <trkpt lat="45.61263" lon="6.64205">
        <ele>2334.3999023438</ele>
        <time>2019-01-19T13:58:28.000Z</time>
      </trkpt>
      <trkpt lat="45.6126" lon="6.64208">
        <ele>2333.1999511719</ele>
        <time>2019-01-19T13:58:30.000Z</time>
      </trkpt>
      <trkpt lat="45.61255" lon="6.64214">
        <ele>2330.8000488281</ele>
        <time>2019-01-19T13:58:34.000Z</time>
      </trkpt>
      <trkpt lat="45.61253" lon="6.64217">
        <ele>2330</ele>
        <time>2019-01-19T13:58:35.000Z</time>
      </trkpt>
      <trkpt lat="45.6125" lon="6.64222">
        <ele>2328.1999511719</ele>
        <time>2019-01-19T13:58:39.000Z</time>
      </trkpt>
      <trkpt lat="45.61248" lon="6.64223">
        <ele>2327.6000976562</ele>
        <time>2019-01-19T13:58:44.000Z</time>
      </trkpt>
      <trkpt lat="45.61247" lon="6.64224">
        <ele>2327.3999023438</ele>
        <time>2019-01-19T13:58:45.000Z</time>
      </trkpt>
      <trkpt lat="45.61245" lon="6.64224">
        <ele>2327</ele>
        <time>2019-01-19T13:58:46.000Z</time>
      </trkpt>
      <trkpt lat="45.61244" lon="6.64224">
        <ele>2326.8000488281</ele>
        <time>2019-01-19T13:58:49.000Z</time>
      </trkpt>
      <trkpt lat="45.61242" lon="6.64225">
        <ele>2326.1999511719</ele>
        <time>2019-01-19T13:58:55.000Z</time>
      </trkpt>
      <trkpt lat="45.61241" lon="6.64225">
        <ele>2326</ele>
        <time>2019-01-19T13:58:59.000Z</time>
      </trkpt>
      <trkpt lat="45.61241" lon="6.64225">
        <ele>2326</ele>
        <time>2019-01-19T13:59:04.000Z</time>
      </trkpt>
      <trkpt lat="45.6124" lon="6.64226">
        <ele>2325.8000488281</ele>
        <time>2019-01-19T13:59:09.000Z</time>
      </trkpt>
      <trkpt lat="45.6124" lon="6.64226">
        <ele>2325.8000488281</ele>
        <time>2019-01-19T13:59:11.000Z</time>
      </trkpt>
      <trkpt lat="45.61239" lon="6.64232">
        <ele>2324</ele>
        <time>2019-01-19T13:59:17.000Z</time>
      </trkpt>
      <trkpt lat="45.61238" lon="6.64234">
        <ele>2323.3999023438</ele>
        <time>2019-01-19T13:59:18.000Z</time>
      </trkpt>
      <trkpt lat="45.61238" lon="6.64234">
        <ele>2323.3999023438</ele>
        <time>2019-01-19T13:59:22.000Z</time>
      </trkpt>
      <trkpt lat="45.61238" lon="6.64234">
        <ele>2323.3999023438</ele>
        <time>2019-01-19T13:59:32.000Z</time>
      </trkpt>
      <trkpt lat="45.61238" lon="6.64234">
        <ele>2323.3999023438</ele>
        <time>2019-01-19T13:59:42.000Z</time>
      </trkpt>
      <trkpt lat="45.61238" lon="6.64234">
        <ele>2323.3999023438</ele>
        <time>2019-01-19T13:59:54.000Z</time>
      </trkpt>
      <trkpt lat="45.61238" lon="6.64234">
        <ele>2323.3999023438</ele>
        <time>2019-01-19T14:00:07.000Z</time>
      </trkpt>
      <trkpt lat="45.61238" lon="6.64234">
        <ele>2323.3999023438</ele>
        <time>2019-01-19T14:00:22.000Z</time>
      </trkpt>
      <trkpt lat="45.61238" lon="6.64234">
        <ele>2323.3999023438</ele>
        <time>2019-01-19T14:00:27.000Z</time>
      </trkpt>
      <trkpt lat="45.61238" lon="6.64234">
        <ele>2323.3999023438</ele>
        <time>2019-01-19T14:00:34.000Z</time>
      </trkpt>
      <trkpt lat="45.61238" lon="6.64234">
        <ele>2323.3999023438</ele>
        <time>2019-01-19T14:00:47.000Z</time>
      </trkpt>
      <trkpt lat="45.61238" lon="6.64234">
        <ele>2323.3999023438</ele>
        <time>2019-01-19T14:00:52.000Z</time>
      </trkpt>
      <trkpt lat="45.61238" lon="6.64234">
        <ele>2323.3999023438</ele>
        <time>2019-01-19T14:01:01.000Z</time>
      </trkpt>
      <trkpt lat="45.61238" lon="6.64234">
        <ele>2323.3999023438</ele>
        <time>2019-01-19T14:01:17.000Z</time>
      </trkpt>
      <trkpt lat="45.61238" lon="6.64235">
        <ele>2323.1999511719</ele>
        <time>2019-01-19T14:01:25.000Z</time>
      </trkpt>
      <trkpt lat="45.61238" lon="6.64235">
        <ele>2323.1999511719</ele>
        <time>2019-01-19T14:01:39.000Z</time>
      </trkpt>
      <trkpt lat="45.61238" lon="6.64235">
        <ele>2323.1999511719</ele>
        <time>2019-01-19T14:01:55.000Z</time>
      </trkpt>
      <trkpt lat="45.61237" lon="6.64235">
        <ele>2323.1999511719</ele>
        <time>2019-01-19T14:02:08.000Z</time>
      </trkpt>
      <trkpt lat="45.61237" lon="6.64235">
        <ele>2323</ele>
        <time>2019-01-19T14:02:09.000Z</time>
      </trkpt>
      <trkpt lat="45.61236" lon="6.64236">
        <ele>2322.8000488281</ele>
        <time>2019-01-19T14:02:20.000Z</time>
      </trkpt>
      <trkpt lat="45.61236" lon="6.64236">
        <ele>2322.8000488281</ele>
        <time>2019-01-19T14:02:31.000Z</time>
      </trkpt>
      <trkpt lat="45.61232" lon="6.64242">
        <ele>2321.6000976562</ele>
        <time>2019-01-19T14:02:40.000Z</time>
      </trkpt>
      <trkpt lat="45.61231" lon="6.64243">
        <ele>2321.3999023438</ele>
        <time>2019-01-19T14:02:41.000Z</time>
      </trkpt>
      <trkpt lat="45.61225" lon="6.64253">
        <ele>2319.1999511719</ele>
        <time>2019-01-19T14:02:49.000Z</time>
      </trkpt>
      <trkpt lat="45.61221" lon="6.64273">
        <ele>2316</ele>
        <time>2019-01-19T14:02:53.000Z</time>
      </trkpt>
      <trkpt lat="45.61216" lon="6.6429">
        <ele>2313.3999023438</ele>
        <time>2019-01-19T14:02:55.000Z</time>
      </trkpt>
      <trkpt lat="45.61213" lon="6.64299">
        <ele>2312.1999511719</ele>
        <time>2019-01-19T14:02:56.000Z</time>
      </trkpt>
      <trkpt lat="45.61212" lon="6.64309">
        <ele>2311</ele>
        <time>2019-01-19T14:02:57.000Z</time>
      </trkpt>
      <trkpt lat="45.61206" lon="6.64316">
        <ele>2308.3999023438</ele>
        <time>2019-01-19T14:02:58.000Z</time>
      </trkpt>
      <trkpt lat="45.61204" lon="6.64327">
        <ele>2305.6000976562</ele>
        <time>2019-01-19T14:02:59.000Z</time>
      </trkpt>
      <trkpt lat="45.61206" lon="6.64338">
        <ele>2303.6000976562</ele>
        <time>2019-01-19T14:03:00.000Z</time>
      </trkpt>
      <trkpt lat="45.61203" lon="6.64346">
        <ele>2301.6000976562</ele>
        <time>2019-01-19T14:03:01.000Z</time>
      </trkpt>
      <trkpt lat="45.61206" lon="6.64354">
        <ele>2300.3999023438</ele>
        <time>2019-01-19T14:03:02.000Z</time>
      </trkpt>
      <trkpt lat="45.61209" lon="6.64362">
        <ele>2299.6000976562</ele>
        <time>2019-01-19T14:03:03.000Z</time>
      </trkpt>
      <trkpt lat="45.61214" lon="6.6437">
        <ele>2298.6000976562</ele>
        <time>2019-01-19T14:03:04.000Z</time>
      </trkpt>
      <trkpt lat="45.61214" lon="6.6438">
        <ele>2296.8000488281</ele>
        <time>2019-01-19T14:03:05.000Z</time>
      </trkpt>
      <trkpt lat="45.61214" lon="6.64393">
        <ele>2294</ele>
        <time>2019-01-19T14:03:06.000Z</time>
      </trkpt>
      <trkpt lat="45.61218" lon="6.64403">
        <ele>2292.8000488281</ele>
        <time>2019-01-19T14:03:07.000Z</time>
      </trkpt>
      <trkpt lat="45.61222" lon="6.64412">
        <ele>2291.1999511719</ele>
        <time>2019-01-19T14:03:08.000Z</time>
      </trkpt>
      <trkpt lat="45.61226" lon="6.6442">
        <ele>2289.8000488281</ele>
        <time>2019-01-19T14:03:09.000Z</time>
      </trkpt>
      <trkpt lat="45.61227" lon="6.64431">
        <ele>2287.8000488281</ele>
        <time>2019-01-19T14:03:10.000Z</time>
      </trkpt>
      <trkpt lat="45.61227" lon="6.64445">
        <ele>2285.1999511719</ele>
        <time>2019-01-19T14:03:11.000Z</time>
      </trkpt>
      <trkpt lat="45.61224" lon="6.64459">
        <ele>2282.3999023438</ele>
        <time>2019-01-19T14:03:12.000Z</time>
      </trkpt>
      <trkpt lat="45.61219" lon="6.64467">
        <ele>2280.6000976562</ele>
        <time>2019-01-19T14:03:13.000Z</time>
      </trkpt>
      <trkpt lat="45.61213" lon="6.64473">
        <ele>2278.8000488281</ele>
        <time>2019-01-19T14:03:14.000Z</time>
      </trkpt>
      <trkpt lat="45.61209" lon="6.64474">
        <ele>2278.1999511719</ele>
        <time>2019-01-19T14:03:15.000Z</time>
      </trkpt>
      <trkpt lat="45.61208" lon="6.64478">
        <ele>2277.8000488281</ele>
        <time>2019-01-19T14:03:16.000Z</time>
      </trkpt>
      <trkpt lat="45.6121" lon="6.64483">
        <ele>2277.3999023438</ele>
        <time>2019-01-19T14:03:17.000Z</time>
      </trkpt>
      <trkpt lat="45.61211" lon="6.64488">
        <ele>2276.8000488281</ele>
        <time>2019-01-19T14:03:18.000Z</time>
      </trkpt>
      <trkpt lat="45.61211" lon="6.64497">
        <ele>2275.6000976562</ele>
        <time>2019-01-19T14:03:19.000Z</time>
      </trkpt>
      <trkpt lat="45.61209" lon="6.64517">
        <ele>2272.8000488281</ele>
        <time>2019-01-19T14:03:21.000Z</time>
      </trkpt>
      <trkpt lat="45.61208" lon="6.64524">
        <ele>2271.8000488281</ele>
        <time>2019-01-19T14:03:22.000Z</time>
      </trkpt>
      <trkpt lat="45.61207" lon="6.64531">
        <ele>2270.8000488281</ele>
        <time>2019-01-19T14:03:23.000Z</time>
      </trkpt>
      <trkpt lat="45.61207" lon="6.64539">
        <ele>2269.6000976562</ele>
        <time>2019-01-19T14:03:24.000Z</time>
      </trkpt>
      <trkpt lat="45.61204" lon="6.64546">
        <ele>2268.6000976562</ele>
        <time>2019-01-19T14:03:25.000Z</time>
      </trkpt>
      <trkpt lat="45.61201" lon="6.64555">
        <ele>2267.3999023438</ele>
        <time>2019-01-19T14:03:26.000Z</time>
      </trkpt>
      <trkpt lat="45.61198" lon="6.64577">
        <ele>2264.8000488281</ele>
        <time>2019-01-19T14:03:28.000Z</time>
      </trkpt>
      <trkpt lat="45.61193" lon="6.64596">
        <ele>2263</ele>
        <time>2019-01-19T14:03:30.000Z</time>
      </trkpt>
      <trkpt lat="45.61193" lon="6.64603">
        <ele>2262.3999023438</ele>
        <time>2019-01-19T14:03:31.000Z</time>
      </trkpt>
      <trkpt lat="45.61192" lon="6.64609">
        <ele>2261.8000488281</ele>
        <time>2019-01-19T14:03:32.000Z</time>
      </trkpt>
      <trkpt lat="45.61191" lon="6.64617">
        <ele>2261</ele>
        <time>2019-01-19T14:03:33.000Z</time>
      </trkpt>
      <trkpt lat="45.61191" lon="6.64624">
        <ele>2260.3999023438</ele>
        <time>2019-01-19T14:03:34.000Z</time>
      </trkpt>
      <trkpt lat="45.61189" lon="6.64631">
        <ele>2259.8000488281</ele>
        <time>2019-01-19T14:03:35.000Z</time>
      </trkpt>
      <trkpt lat="45.61183" lon="6.64644">
        <ele>2258.8000488281</ele>
        <time>2019-01-19T14:03:37.000Z</time>
      </trkpt>
      <trkpt lat="45.6118" lon="6.64657">
        <ele>2257.3999023438</ele>
        <time>2019-01-19T14:03:39.000Z</time>
      </trkpt>
      <trkpt lat="45.61179" lon="6.64672">
        <ele>2255.3999023438</ele>
        <time>2019-01-19T14:03:41.000Z</time>
      </trkpt>
      <trkpt lat="45.61184" lon="6.64698">
        <ele>2251.8000488281</ele>
        <time>2019-01-19T14:03:44.000Z</time>
      </trkpt>
      <trkpt lat="45.61183" lon="6.6471">
        <ele>2250.8000488281</ele>
        <time>2019-01-19T14:03:45.000Z</time>
      </trkpt>
      <trkpt lat="45.61182" lon="6.64722">
        <ele>2250</ele>
        <time>2019-01-19T14:03:46.000Z</time>
      </trkpt>
      <trkpt lat="45.61185" lon="6.64745">
        <ele>2247.8000488281</ele>
        <time>2019-01-19T14:03:48.000Z</time>
      </trkpt>
      <trkpt lat="45.61186" lon="6.64755">
        <ele>2246.3999023438</ele>
        <time>2019-01-19T14:03:49.000Z</time>
      </trkpt>
      <trkpt lat="45.61189" lon="6.64765">
        <ele>2245</ele>
        <time>2019-01-19T14:03:50.000Z</time>
      </trkpt>
      <trkpt lat="45.61192" lon="6.64776">
        <ele>2243.3999023438</ele>
        <time>2019-01-19T14:03:51.000Z</time>
      </trkpt>
      <trkpt lat="45.61191" lon="6.64786">
        <ele>2242.3999023438</ele>
        <time>2019-01-19T14:03:52.000Z</time>
      </trkpt>
      <trkpt lat="45.61189" lon="6.64795">
        <ele>2240.6000976562</ele>
        <time>2019-01-19T14:03:53.000Z</time>
      </trkpt>
      <trkpt lat="45.61184" lon="6.64806">
        <ele>2237.8000488281</ele>
        <time>2019-01-19T14:03:55.000Z</time>
      </trkpt>
      <trkpt lat="45.61174" lon="6.64811">
        <ele>2235.8000488281</ele>
        <time>2019-01-19T14:03:57.000Z</time>
      </trkpt>
      <trkpt lat="45.61169" lon="6.64812">
        <ele>2235.3999023438</ele>
        <time>2019-01-19T14:03:58.000Z</time>
      </trkpt>
      <trkpt lat="45.61166" lon="6.64811">
        <ele>2235.3999023438</ele>
        <time>2019-01-19T14:03:59.000Z</time>
      </trkpt>
      <trkpt lat="45.61163" lon="6.6481">
        <ele>2235.6000976562</ele>
        <time>2019-01-19T14:04:00.000Z</time>
      </trkpt>
      <trkpt lat="45.6116" lon="6.64809">
        <ele>2235.8000488281</ele>
        <time>2019-01-19T14:04:01.000Z</time>
      </trkpt>
      <trkpt lat="45.61156" lon="6.64807">
        <ele>2236.1999511719</ele>
        <time>2019-01-19T14:04:03.000Z</time>
      </trkpt>
      <trkpt lat="45.61152" lon="6.64802">
        <ele>2237.1999511719</ele>
        <time>2019-01-19T14:04:07.000Z</time>
      </trkpt>
      <trkpt lat="45.61151" lon="6.648">
        <ele>2237.6000976562</ele>
        <time>2019-01-19T14:04:09.000Z</time>
      </trkpt>
      <trkpt lat="45.61149" lon="6.648">
        <ele>2237.6000976562</ele>
        <time>2019-01-19T14:04:10.000Z</time>
      </trkpt>
      <trkpt lat="45.61145" lon="6.64796">
        <ele>2238.1999511719</ele>
        <time>2019-01-19T14:04:13.000Z</time>
      </trkpt>
      <trkpt lat="45.61145" lon="6.64795">
        <ele>2238.6000976562</ele>
        <time>2019-01-19T14:04:15.000Z</time>
      </trkpt>
      <trkpt lat="45.61146" lon="6.64793">
        <ele>2239</ele>
        <time>2019-01-19T14:04:18.000Z</time>
      </trkpt>
      <trkpt lat="45.61144" lon="6.64793">
        <ele>2239</ele>
        <time>2019-01-19T14:04:25.000Z</time>
      </trkpt>
      <trkpt lat="45.61141" lon="6.64793">
        <ele>2239</ele>
        <time>2019-01-19T14:04:26.000Z</time>
      </trkpt>
      <trkpt lat="45.61132" lon="6.64788">
        <ele>2240</ele>
        <time>2019-01-19T14:04:30.000Z</time>
      </trkpt>
      <trkpt lat="45.61124" lon="6.64785">
        <ele>2241</ele>
        <time>2019-01-19T14:04:33.000Z</time>
      </trkpt>
      <trkpt lat="45.61121" lon="6.64786">
        <ele>2240.8000488281</ele>
        <time>2019-01-19T14:04:34.000Z</time>
      </trkpt>
      <trkpt lat="45.61116" lon="6.64785">
        <ele>2241.1999511719</ele>
        <time>2019-01-19T14:04:35.000Z</time>
      </trkpt>
      <trkpt lat="45.6111" lon="6.64784">
        <ele>2241.3999023438</ele>
        <time>2019-01-19T14:04:36.000Z</time>
      </trkpt>
      <trkpt lat="45.61105" lon="6.64784">
        <ele>2241.6000976562</ele>
        <time>2019-01-19T14:04:37.000Z</time>
      </trkpt>
      <trkpt lat="45.61098" lon="6.64782">
        <ele>2242.1999511719</ele>
        <time>2019-01-19T14:04:38.000Z</time>
      </trkpt>
      <trkpt lat="45.61093" lon="6.6478">
        <ele>2242.6000976562</ele>
        <time>2019-01-19T14:04:39.000Z</time>
      </trkpt>
      <trkpt lat="45.61087" lon="6.64778">
        <ele>2243</ele>
        <time>2019-01-19T14:04:40.000Z</time>
      </trkpt>
      <trkpt lat="45.61082" lon="6.64778">
        <ele>2242.8000488281</ele>
        <time>2019-01-19T14:04:41.000Z</time>
      </trkpt>
      <trkpt lat="45.61077" lon="6.64782">
        <ele>2241.6000976562</ele>
        <time>2019-01-19T14:04:42.000Z</time>
      </trkpt>
      <trkpt lat="45.61076" lon="6.6479">
        <ele>2238.8000488281</ele>
        <time>2019-01-19T14:04:44.000Z</time>
      </trkpt>
      <trkpt lat="45.6107" lon="6.64803">
        <ele>2234.6000976562</ele>
        <time>2019-01-19T14:04:46.000Z</time>
      </trkpt>
      <trkpt lat="45.61072" lon="6.64811">
        <ele>2232.1999511719</ele>
        <time>2019-01-19T14:04:47.000Z</time>
      </trkpt>
      <trkpt lat="45.61069" lon="6.6482">
        <ele>2229.3999023438</ele>
        <time>2019-01-19T14:04:48.000Z</time>
      </trkpt>
      <trkpt lat="45.61064" lon="6.64827">
        <ele>2225.8000488281</ele>
        <time>2019-01-19T14:04:49.000Z</time>
      </trkpt>
      <trkpt lat="45.61062" lon="6.64836">
        <ele>2219.6000976562</ele>
        <time>2019-01-19T14:04:50.000Z</time>
      </trkpt>
      <trkpt lat="45.61062" lon="6.64843">
        <ele>2214</ele>
        <time>2019-01-19T14:04:51.000Z</time>
      </trkpt>
      <trkpt lat="45.61065" lon="6.6485">
        <ele>2209.6000976562</ele>
        <time>2019-01-19T14:04:52.000Z</time>
      </trkpt>
      <trkpt lat="45.61063" lon="6.64858">
        <ele>2202.8000488281</ele>
        <time>2019-01-19T14:04:53.000Z</time>
      </trkpt>
      <trkpt lat="45.6106" lon="6.64867">
        <ele>2194</ele>
        <time>2019-01-19T14:04:54.000Z</time>
      </trkpt>
      <trkpt lat="45.61057" lon="6.64878">
        <ele>2184.1999511719</ele>
        <time>2019-01-19T14:04:55.000Z</time>
      </trkpt>
      <trkpt lat="45.61054" lon="6.64888">
        <ele>2175.6000976562</ele>
        <time>2019-01-19T14:04:56.000Z</time>
      </trkpt>
      <trkpt lat="45.61052" lon="6.64892">
        <ele>2171.6000976562</ele>
        <time>2019-01-19T14:04:57.000Z</time>
      </trkpt>
      <trkpt lat="45.61053" lon="6.64891">
        <ele>2173</ele>
        <time>2019-01-19T14:04:58.000Z</time>
      </trkpt>
      <trkpt lat="45.61055" lon="6.64891">
        <ele>2173.6000976562</ele>
        <time>2019-01-19T14:04:59.000Z</time>
      </trkpt>
      <trkpt lat="45.61056" lon="6.64889">
        <ele>2174.8000488281</ele>
        <time>2019-01-19T14:05:00.000Z</time>
      </trkpt>
      <trkpt lat="45.61056" lon="6.64889">
        <ele>2174.8000488281</ele>
        <time>2019-01-19T14:05:01.000Z</time>
      </trkpt>
      <trkpt lat="45.61056" lon="6.64889">
        <ele>2174.8000488281</ele>
        <time>2019-01-19T14:05:02.000Z</time>
      </trkpt>
      <trkpt lat="45.61056" lon="6.64889">
        <ele>2174.8000488281</ele>
        <time>2019-01-19T14:05:03.000Z</time>
      </trkpt>
      <trkpt lat="45.61056" lon="6.64891">
        <ele>2173.3999023438</ele>
        <time>2019-01-19T14:05:04.000Z</time>
      </trkpt>
      <trkpt lat="45.61062" lon="6.64902">
        <ele>2166.6000976562</ele>
        <time>2019-01-19T14:05:06.000Z</time>
      </trkpt>
      <trkpt lat="45.61078" lon="6.64914">
        <ele>2168.6000976562</ele>
        <time>2019-01-19T14:05:09.000Z</time>
      </trkpt>
      <trkpt lat="45.61079" lon="6.64921">
        <ele>2166.6000976562</ele>
        <time>2019-01-19T14:05:10.000Z</time>
      </trkpt>
      <trkpt lat="45.6108" lon="6.64928">
        <ele>2164.3999023438</ele>
        <time>2019-01-19T14:05:11.000Z</time>
      </trkpt>
      <trkpt lat="45.61077" lon="6.64935">
        <ele>2161</ele>
        <time>2019-01-19T14:05:12.000Z</time>
      </trkpt>
      <trkpt lat="45.61079" lon="6.64944">
        <ele>2158.6000976562</ele>
        <time>2019-01-19T14:05:13.000Z</time>
      </trkpt>
      <trkpt lat="45.61082" lon="6.64951">
        <ele>2157.3999023438</ele>
        <time>2019-01-19T14:05:14.000Z</time>
      </trkpt>
      <trkpt lat="45.61082" lon="6.64958">
        <ele>2154.6000976562</ele>
        <time>2019-01-19T14:05:15.000Z</time>
      </trkpt>
      <trkpt lat="45.6108" lon="6.64963">
        <ele>2152.3999023438</ele>
        <time>2019-01-19T14:05:16.000Z</time>
      </trkpt>
      <trkpt lat="45.61076" lon="6.6497">
        <ele>2148.6000976562</ele>
        <time>2019-01-19T14:05:17.000Z</time>
      </trkpt>
      <trkpt lat="45.61079" lon="6.64976">
        <ele>2147.8000488281</ele>
        <time>2019-01-19T14:05:18.000Z</time>
      </trkpt>
      <trkpt lat="45.61078" lon="6.64983">
        <ele>2144.6000976562</ele>
        <time>2019-01-19T14:05:19.000Z</time>
      </trkpt>
      <trkpt lat="45.61077" lon="6.64988">
        <ele>2142.6000976562</ele>
        <time>2019-01-19T14:05:20.000Z</time>
      </trkpt>
      <trkpt lat="45.61076" lon="6.64993">
        <ele>2141</ele>
        <time>2019-01-19T14:05:21.000Z</time>
      </trkpt>
      <trkpt lat="45.61074" lon="6.65">
        <ele>2138.6000976562</ele>
        <time>2019-01-19T14:05:22.000Z</time>
      </trkpt>
      <trkpt lat="45.61072" lon="6.65006">
        <ele>2136.1999511719</ele>
        <time>2019-01-19T14:05:23.000Z</time>
      </trkpt>
      <trkpt lat="45.61065" lon="6.65011">
        <ele>2132</ele>
        <time>2019-01-19T14:05:24.000Z</time>
      </trkpt>
      <trkpt lat="45.61059" lon="6.65015">
        <ele>2128.8000488281</ele>
        <time>2019-01-19T14:05:25.000Z</time>
      </trkpt>
      <trkpt lat="45.61055" lon="6.65015">
        <ele>2127.1999511719</ele>
        <time>2019-01-19T14:05:26.000Z</time>
      </trkpt>
      <trkpt lat="45.61052" lon="6.65016">
        <ele>2125.6000976562</ele>
        <time>2019-01-19T14:05:27.000Z</time>
      </trkpt>
      <trkpt lat="45.61048" lon="6.65017">
        <ele>2125.1999511719</ele>
        <time>2019-01-19T14:05:28.000Z</time>
      </trkpt>
      <trkpt lat="45.61042" lon="6.65018">
        <ele>2124.6000976562</ele>
        <time>2019-01-19T14:05:30.000Z</time>
      </trkpt>
      <trkpt lat="45.61039" lon="6.65022">
        <ele>2123.6000976562</ele>
        <time>2019-01-19T14:05:31.000Z</time>
      </trkpt>
      <trkpt lat="45.61039" lon="6.65025">
        <ele>2122.8000488281</ele>
        <time>2019-01-19T14:05:32.000Z</time>
      </trkpt>
      <trkpt lat="45.6104" lon="6.6503">
        <ele>2121.1999511719</ele>
        <time>2019-01-19T14:05:34.000Z</time>
      </trkpt>
      <trkpt lat="45.61039" lon="6.6504">
        <ele>2118.6000976562</ele>
        <time>2019-01-19T14:05:35.000Z</time>
      </trkpt>
      <trkpt lat="45.61039" lon="6.65048">
        <ele>2116.3999023438</ele>
        <time>2019-01-19T14:05:36.000Z</time>
      </trkpt>
      <trkpt lat="45.61041" lon="6.65055">
        <ele>2114.6000976562</ele>
        <time>2019-01-19T14:05:37.000Z</time>
      </trkpt>
      <trkpt lat="45.61046" lon="6.6506">
        <ele>2113.3999023438</ele>
        <time>2019-01-19T14:05:38.000Z</time>
      </trkpt>
      <trkpt lat="45.61049" lon="6.65067">
        <ele>2111.6000976562</ele>
        <time>2019-01-19T14:05:39.000Z</time>
      </trkpt>
      <trkpt lat="45.61051" lon="6.65076">
        <ele>2109.3999023438</ele>
        <time>2019-01-19T14:05:40.000Z</time>
      </trkpt>
      <trkpt lat="45.61054" lon="6.65083">
        <ele>2108.6000976562</ele>
        <time>2019-01-19T14:05:41.000Z</time>
      </trkpt>
      <trkpt lat="45.61055" lon="6.65092">
        <ele>2107</ele>
        <time>2019-01-19T14:05:42.000Z</time>
      </trkpt>
      <trkpt lat="45.61051" lon="6.65101">
        <ele>2103.6000976562</ele>
        <time>2019-01-19T14:05:43.000Z</time>
      </trkpt>
      <trkpt lat="45.61049" lon="6.6511">
        <ele>2101</ele>
        <time>2019-01-19T14:05:44.000Z</time>
      </trkpt>
      <trkpt lat="45.61047" lon="6.65118">
        <ele>2099</ele>
        <time>2019-01-19T14:05:45.000Z</time>
      </trkpt>
      <trkpt lat="45.61047" lon="6.65121">
        <ele>2098.3999023438</ele>
        <time>2019-01-19T14:05:46.000Z</time>
      </trkpt>
      <trkpt lat="45.61047" lon="6.65126">
        <ele>2097</ele>
        <time>2019-01-19T14:05:47.000Z</time>
      </trkpt>
      <trkpt lat="45.61044" lon="6.6513">
        <ele>2095.6000976562</ele>
        <time>2019-01-19T14:05:48.000Z</time>
      </trkpt>
      <trkpt lat="45.61043" lon="6.65134">
        <ele>2094.6000976562</ele>
        <time>2019-01-19T14:05:49.000Z</time>
      </trkpt>
      <trkpt lat="45.6104" lon="6.65141">
        <ele>2092.3999023438</ele>
        <time>2019-01-19T14:05:50.000Z</time>
      </trkpt>
      <trkpt lat="45.61038" lon="6.65146">
        <ele>2090.1999511719</ele>
        <time>2019-01-19T14:05:51.000Z</time>
      </trkpt>
      <trkpt lat="45.61034" lon="6.65151">
        <ele>2087.6000976562</ele>
        <time>2019-01-19T14:05:52.000Z</time>
      </trkpt>
      <trkpt lat="45.61032" lon="6.65153">
        <ele>2086.6000976562</ele>
        <time>2019-01-19T14:05:53.000Z</time>
      </trkpt>
      <trkpt lat="45.61028" lon="6.65154">
        <ele>2085.3999023438</ele>
        <time>2019-01-19T14:05:54.000Z</time>
      </trkpt>
      <trkpt lat="45.61024" lon="6.65156">
        <ele>2084</ele>
        <time>2019-01-19T14:05:55.000Z</time>
      </trkpt>
      <trkpt lat="45.61018" lon="6.65157">
        <ele>2082.1999511719</ele>
        <time>2019-01-19T14:05:56.000Z</time>
      </trkpt>
      <trkpt lat="45.61014" lon="6.65162">
        <ele>2080.1999511719</ele>
        <time>2019-01-19T14:05:57.000Z</time>
      </trkpt>
      <trkpt lat="45.61011" lon="6.65166">
        <ele>2079</ele>
        <time>2019-01-19T14:05:58.000Z</time>
      </trkpt>
      <trkpt lat="45.61013" lon="6.65174">
        <ele>2077.8000488281</ele>
        <time>2019-01-19T14:05:59.000Z</time>
      </trkpt>
      <trkpt lat="45.61011" lon="6.65182">
        <ele>2075.8000488281</ele>
        <time>2019-01-19T14:06:00.000Z</time>
      </trkpt>
      <trkpt lat="45.61008" lon="6.65191">
        <ele>2073.3999023438</ele>
        <time>2019-01-19T14:06:01.000Z</time>
      </trkpt>
      <trkpt lat="45.61003" lon="6.652">
        <ele>2071.1999511719</ele>
        <time>2019-01-19T14:06:02.000Z</time>
      </trkpt>
      <trkpt lat="45.61" lon="6.65208">
        <ele>2069.3999023438</ele>
        <time>2019-01-19T14:06:03.000Z</time>
      </trkpt>
      <trkpt lat="45.60996" lon="6.65212">
        <ele>2068</ele>
        <time>2019-01-19T14:06:04.000Z</time>
      </trkpt>
      <trkpt lat="45.60992" lon="6.65217">
        <ele>2066.6000976562</ele>
        <time>2019-01-19T14:06:05.000Z</time>
      </trkpt>
      <trkpt lat="45.60989" lon="6.65218">
        <ele>2065.8000488281</ele>
        <time>2019-01-19T14:06:06.000Z</time>
      </trkpt>
      <trkpt lat="45.60987" lon="6.65216">
        <ele>2065.3999023438</ele>
        <time>2019-01-19T14:06:07.000Z</time>
      </trkpt>
      <trkpt lat="45.60984" lon="6.65215">
        <ele>2065.1999511719</ele>
        <time>2019-01-19T14:06:08.000Z</time>
      </trkpt>
      <trkpt lat="45.60982" lon="6.65214">
        <ele>2064.8000488281</ele>
        <time>2019-01-19T14:06:09.000Z</time>
      </trkpt>
      <trkpt lat="45.60982" lon="6.65211">
        <ele>2065.1999511719</ele>
        <time>2019-01-19T14:06:10.000Z</time>
      </trkpt>
      <trkpt lat="45.60982" lon="6.65211">
        <ele>2065.1999511719</ele>
        <time>2019-01-19T14:06:13.000Z</time>
      </trkpt>
      <trkpt lat="45.60982" lon="6.65211">
        <ele>2065.1999511719</ele>
        <time>2019-01-19T14:06:14.000Z</time>
      </trkpt>
      <trkpt lat="45.60976" lon="6.65206">
        <ele>2064.6000976562</ele>
        <time>2019-01-19T14:06:25.000Z</time>
      </trkpt>
      <trkpt lat="45.60957" lon="6.65206">
        <ele>2062</ele>
        <time>2019-01-19T14:06:29.000Z</time>
      </trkpt>
      <trkpt lat="45.60953" lon="6.65206">
        <ele>2061.3999023438</ele>
        <time>2019-01-19T14:06:30.000Z</time>
      </trkpt>
      <trkpt lat="45.60948" lon="6.65208">
        <ele>2060.6000976562</ele>
        <time>2019-01-19T14:06:31.000Z</time>
      </trkpt>
      <trkpt lat="45.60937" lon="6.6521">
        <ele>2059.1999511719</ele>
        <time>2019-01-19T14:06:33.000Z</time>
      </trkpt>
      <trkpt lat="45.6093" lon="6.65211">
        <ele>2057.3999023438</ele>
        <time>2019-01-19T14:06:35.000Z</time>
      </trkpt>
      <trkpt lat="45.60926" lon="6.65213">
        <ele>2056.6000976562</ele>
        <time>2019-01-19T14:06:36.000Z</time>
      </trkpt>
      <trkpt lat="45.60909" lon="6.65218">
        <ele>2052.8000488281</ele>
        <time>2019-01-19T14:06:40.000Z</time>
      </trkpt>
      <trkpt lat="45.60904" lon="6.65219">
        <ele>2051.6000976562</ele>
        <time>2019-01-19T14:06:41.000Z</time>
      </trkpt>
      <trkpt lat="45.60892" lon="6.6522">
        <ele>2049.1999511719</ele>
        <time>2019-01-19T14:06:43.000Z</time>
      </trkpt>
      <trkpt lat="45.60886" lon="6.65222">
        <ele>2048</ele>
        <time>2019-01-19T14:06:44.000Z</time>
      </trkpt>
      <trkpt lat="45.60881" lon="6.65223">
        <ele>2047.5999755859</ele>
        <time>2019-01-19T14:06:45.000Z</time>
      </trkpt>
      <trkpt lat="45.60876" lon="6.65224">
        <ele>2047.4000244141</ele>
        <time>2019-01-19T14:06:46.000Z</time>
      </trkpt>
      <trkpt lat="45.6087" lon="6.65223">
        <ele>2046.8000488281</ele>
        <time>2019-01-19T14:06:47.000Z</time>
      </trkpt>
      <trkpt lat="45.60861" lon="6.65224">
        <ele>2044.4000244141</ele>
        <time>2019-01-19T14:06:49.000Z</time>
      </trkpt>
      <trkpt lat="45.60851" lon="6.65224">
        <ele>2041.5999755859</ele>
        <time>2019-01-19T14:06:51.000Z</time>
      </trkpt>
      <trkpt lat="45.60842" lon="6.65224">
        <ele>2039.8000488281</ele>
        <time>2019-01-19T14:06:53.000Z</time>
      </trkpt>
      <trkpt lat="45.60836" lon="6.65225">
        <ele>2038.1999511719</ele>
        <time>2019-01-19T14:06:55.000Z</time>
      </trkpt>
      <trkpt lat="45.60827" lon="6.65224">
        <ele>2036.1999511719</ele>
        <time>2019-01-19T14:06:57.000Z</time>
      </trkpt>
      <trkpt lat="45.6082" lon="6.65222">
        <ele>2035.4000244141</ele>
        <time>2019-01-19T14:06:59.000Z</time>
      </trkpt>
      <trkpt lat="45.60817" lon="6.65222">
        <ele>2034.8000488281</ele>
        <time>2019-01-19T14:07:00.000Z</time>
      </trkpt>
      <trkpt lat="45.60815" lon="6.65227">
        <ele>2032</ele>
        <time>2019-01-19T14:07:02.000Z</time>
      </trkpt>
      <trkpt lat="45.60815" lon="6.65236">
        <ele>2028</ele>
        <time>2019-01-19T14:07:04.000Z</time>
      </trkpt>
      <trkpt lat="45.60812" lon="6.65238">
        <ele>2027</ele>
        <time>2019-01-19T14:07:05.000Z</time>
      </trkpt>
      <trkpt lat="45.60811" lon="6.65245">
        <ele>2024.8000488281</ele>
        <time>2019-01-19T14:07:06.000Z</time>
      </trkpt>
      <trkpt lat="45.60814" lon="6.6525">
        <ele>2023.8000488281</ele>
        <time>2019-01-19T14:07:07.000Z</time>
      </trkpt>
      <trkpt lat="45.60813" lon="6.65256">
        <ele>2021.1999511719</ele>
        <time>2019-01-19T14:07:08.000Z</time>
      </trkpt>
      <trkpt lat="45.60811" lon="6.65262">
        <ele>2018</ele>
        <time>2019-01-19T14:07:10.000Z</time>
      </trkpt>
      <trkpt lat="45.60808" lon="6.65262">
        <ele>2017.1999511719</ele>
        <time>2019-01-19T14:07:11.000Z</time>
      </trkpt>
      <trkpt lat="45.60807" lon="6.65262">
        <ele>2016.4000244141</ele>
        <time>2019-01-19T14:07:12.000Z</time>
      </trkpt>
      <trkpt lat="45.60806" lon="6.65262">
        <ele>2016</ele>
        <time>2019-01-19T14:07:13.000Z</time>
      </trkpt>
      <trkpt lat="45.60803" lon="6.65261">
        <ele>2015.4000244141</ele>
        <time>2019-01-19T14:07:15.000Z</time>
      </trkpt>
      <trkpt lat="45.60802" lon="6.6526">
        <ele>2015.4000244141</ele>
        <time>2019-01-19T14:07:18.000Z</time>
      </trkpt>
      <trkpt lat="45.60802" lon="6.6526">
        <ele>2015.4000244141</ele>
        <time>2019-01-19T14:07:19.000Z</time>
      </trkpt>
      <trkpt lat="45.608" lon="6.65261">
        <ele>2014.5999755859</ele>
        <time>2019-01-19T14:07:29.000Z</time>
      </trkpt>
      <trkpt lat="45.60798" lon="6.65263">
        <ele>2012.8000488281</ele>
        <time>2019-01-19T14:07:30.000Z</time>
      </trkpt>
      <trkpt lat="45.60799" lon="6.65272">
        <ele>2009.5999755859</ele>
        <time>2019-01-19T14:07:32.000Z</time>
      </trkpt>
      <trkpt lat="45.60799" lon="6.65277">
        <ele>2007.8000488281</ele>
        <time>2019-01-19T14:07:33.000Z</time>
      </trkpt>
      <trkpt lat="45.60794" lon="6.65285">
        <ele>2002.4000244141</ele>
        <time>2019-01-19T14:07:35.000Z</time>
      </trkpt>
      <trkpt lat="45.60797" lon="6.65292">
        <ele>2001.1999511719</ele>
        <time>2019-01-19T14:07:36.000Z</time>
      </trkpt>
      <trkpt lat="45.60796" lon="6.65297">
        <ele>1998.4000244141</ele>
        <time>2019-01-19T14:07:37.000Z</time>
      </trkpt>
      <trkpt lat="45.60794" lon="6.65302">
        <ele>1995.4000244141</ele>
        <time>2019-01-19T14:07:38.000Z</time>
      </trkpt>
      <trkpt lat="45.60795" lon="6.65309">
        <ele>1993.4000244141</ele>
        <time>2019-01-19T14:07:39.000Z</time>
      </trkpt>
      <trkpt lat="45.60796" lon="6.65313">
        <ele>1992</ele>
        <time>2019-01-19T14:07:40.000Z</time>
      </trkpt>
      <trkpt lat="45.60793" lon="6.65319">
        <ele>1989.8000488281</ele>
        <time>2019-01-19T14:07:41.000Z</time>
      </trkpt>
      <trkpt lat="45.60791" lon="6.65324">
        <ele>1989</ele>
        <time>2019-01-19T14:07:42.000Z</time>
      </trkpt>
      <trkpt lat="45.6079" lon="6.65329">
        <ele>1988.5999755859</ele>
        <time>2019-01-19T14:07:43.000Z</time>
      </trkpt>
      <trkpt lat="45.60788" lon="6.65334">
        <ele>1988</ele>
        <time>2019-01-19T14:07:44.000Z</time>
      </trkpt>
      <trkpt lat="45.60786" lon="6.65339">
        <ele>1987.1999511719</ele>
        <time>2019-01-19T14:07:45.000Z</time>
      </trkpt>
      <trkpt lat="45.60784" lon="6.65343">
        <ele>1986.5999755859</ele>
        <time>2019-01-19T14:07:46.000Z</time>
      </trkpt>
      <trkpt lat="45.60783" lon="6.65346">
        <ele>1986.1999511719</ele>
        <time>2019-01-19T14:07:47.000Z</time>
      </trkpt>
      <trkpt lat="45.60784" lon="6.65349">
        <ele>1986.4000244141</ele>
        <time>2019-01-19T14:07:48.000Z</time>
      </trkpt>
      <trkpt lat="45.60786" lon="6.65351">
        <ele>1986.8000488281</ele>
        <time>2019-01-19T14:07:49.000Z</time>
      </trkpt>
      <trkpt lat="45.60789" lon="6.65355">
        <ele>1987.4000244141</ele>
        <time>2019-01-19T14:07:50.000Z</time>
      </trkpt>
      <trkpt lat="45.60791" lon="6.65358">
        <ele>1987.8000488281</ele>
        <time>2019-01-19T14:07:51.000Z</time>
      </trkpt>
      <trkpt lat="45.60792" lon="6.65361">
        <ele>1988</ele>
        <time>2019-01-19T14:07:52.000Z</time>
      </trkpt>
      <trkpt lat="45.60791" lon="6.65365">
        <ele>1987.5999755859</ele>
        <time>2019-01-19T14:07:53.000Z</time>
      </trkpt>
      <trkpt lat="45.6079" lon="6.65369">
        <ele>1987.1999511719</ele>
        <time>2019-01-19T14:07:54.000Z</time>
      </trkpt>
      <trkpt lat="45.60787" lon="6.65377">
        <ele>1986.1999511719</ele>
        <time>2019-01-19T14:07:55.000Z</time>
      </trkpt>
      <trkpt lat="45.60779" lon="6.65382">
        <ele>1984.4000244141</ele>
        <time>2019-01-19T14:07:56.000Z</time>
      </trkpt>
      <trkpt lat="45.60773" lon="6.65381">
        <ele>1984.1999511719</ele>
        <time>2019-01-19T14:07:57.000Z</time>
      </trkpt>
      <trkpt lat="45.60767" lon="6.65379">
        <ele>1983.5999755859</ele>
        <time>2019-01-19T14:07:58.000Z</time>
      </trkpt>
      <trkpt lat="45.6076" lon="6.65379">
        <ele>1983.4000244141</ele>
        <time>2019-01-19T14:07:59.000Z</time>
      </trkpt>
      <trkpt lat="45.60755" lon="6.65379">
        <ele>1983.4000244141</ele>
        <time>2019-01-19T14:08:00.000Z</time>
      </trkpt>
      <trkpt lat="45.60751" lon="6.65382">
        <ele>1983.8000488281</ele>
        <time>2019-01-19T14:08:01.000Z</time>
      </trkpt>
      <trkpt lat="45.6074" lon="6.65387">
        <ele>1984.5999755859</ele>
        <time>2019-01-19T14:08:03.000Z</time>
      </trkpt>
      <trkpt lat="45.60736" lon="6.65388">
        <ele>1984.5999755859</ele>
        <time>2019-01-19T14:08:04.000Z</time>
      </trkpt>
      <trkpt lat="45.6073" lon="6.6539">
        <ele>1984.8000488281</ele>
        <time>2019-01-19T14:08:05.000Z</time>
      </trkpt>
      <trkpt lat="45.60725" lon="6.6539">
        <ele>1984.5999755859</ele>
        <time>2019-01-19T14:08:06.000Z</time>
      </trkpt>
      <trkpt lat="45.6072" lon="6.6539">
        <ele>1984.5999755859</ele>
        <time>2019-01-19T14:08:07.000Z</time>
      </trkpt>
      <trkpt lat="45.60716" lon="6.65391">
        <ele>1984.5999755859</ele>
        <time>2019-01-19T14:08:08.000Z</time>
      </trkpt>
      <trkpt lat="45.60714" lon="6.65392">
        <ele>1984.5999755859</ele>
        <time>2019-01-19T14:08:09.000Z</time>
      </trkpt>
      <trkpt lat="45.60712" lon="6.65393">
        <ele>1984.8000488281</ele>
        <time>2019-01-19T14:08:10.000Z</time>
      </trkpt>
      <trkpt lat="45.6071" lon="6.65394">
        <ele>1984.8000488281</ele>
        <time>2019-01-19T14:08:11.000Z</time>
      </trkpt>
      <trkpt lat="45.60708" lon="6.65396">
        <ele>1985.1999511719</ele>
        <time>2019-01-19T14:08:12.000Z</time>
      </trkpt>
      <trkpt lat="45.60708" lon="6.65396">
        <ele>1985.1999511719</ele>
        <time>2019-01-19T14:08:14.000Z</time>
      </trkpt>
      <trkpt lat="45.60708" lon="6.65396">
        <ele>1985.1999511719</ele>
        <time>2019-01-19T14:08:15.000Z</time>
      </trkpt>
      <trkpt lat="45.60707" lon="6.65397">
        <ele>1985.4000244141</ele>
        <time>2019-01-19T14:08:16.000Z</time>
      </trkpt>
      <trkpt lat="45.60703" lon="6.654">
        <ele>1986.1999511719</ele>
        <time>2019-01-19T14:08:17.000Z</time>
      </trkpt>
      <trkpt lat="45.60683" lon="6.65408">
        <ele>1988.4000244141</ele>
        <time>2019-01-19T14:08:20.000Z</time>
      </trkpt>
      <trkpt lat="45.60674" lon="6.65411">
        <ele>1989.1999511719</ele>
        <time>2019-01-19T14:08:21.000Z</time>
      </trkpt>
      <trkpt lat="45.60667" lon="6.65412">
        <ele>1989.4000244141</ele>
        <time>2019-01-19T14:08:22.000Z</time>
      </trkpt>
      <trkpt lat="45.60661" lon="6.65411">
        <ele>1989.1999511719</ele>
        <time>2019-01-19T14:08:23.000Z</time>
      </trkpt>
      <trkpt lat="45.60655" lon="6.6541">
        <ele>1988.5999755859</ele>
        <time>2019-01-19T14:08:24.000Z</time>
      </trkpt>
      <trkpt lat="45.60649" lon="6.65408">
        <ele>1988</ele>
        <time>2019-01-19T14:08:25.000Z</time>
      </trkpt>
      <trkpt lat="45.60644" lon="6.65406">
        <ele>1987.4000244141</ele>
        <time>2019-01-19T14:08:26.000Z</time>
      </trkpt>
      <trkpt lat="45.6064" lon="6.65404">
        <ele>1986.5999755859</ele>
        <time>2019-01-19T14:08:27.000Z</time>
      </trkpt>
      <trkpt lat="45.60631" lon="6.65401">
        <ele>1984.4000244141</ele>
        <time>2019-01-19T14:08:29.000Z</time>
      </trkpt>
      <trkpt lat="45.60622" lon="6.654">
        <ele>1981.4000244141</ele>
        <time>2019-01-19T14:08:31.000Z</time>
      </trkpt>
      <trkpt lat="45.60607" lon="6.654">
        <ele>1976.5999755859</ele>
        <time>2019-01-19T14:08:34.000Z</time>
      </trkpt>
      <trkpt lat="45.60596" lon="6.654">
        <ele>1972.5999755859</ele>
        <time>2019-01-19T14:08:36.000Z</time>
      </trkpt>
      <trkpt lat="45.60583" lon="6.65398">
        <ele>1968.4000244141</ele>
        <time>2019-01-19T14:08:38.000Z</time>
      </trkpt>
      <trkpt lat="45.60577" lon="6.65396">
        <ele>1966</ele>
        <time>2019-01-19T14:08:39.000Z</time>
      </trkpt>
      <trkpt lat="45.60571" lon="6.65395">
        <ele>1964.1999511719</ele>
        <time>2019-01-19T14:08:40.000Z</time>
      </trkpt>
      <trkpt lat="45.60562" lon="6.65394">
        <ele>1960.8000488281</ele>
        <time>2019-01-19T14:08:42.000Z</time>
      </trkpt>
      <trkpt lat="45.60556" lon="6.65393">
        <ele>1959</ele>
        <time>2019-01-19T14:08:43.000Z</time>
      </trkpt>
      <trkpt lat="45.60545" lon="6.65395">
        <ele>1956</ele>
        <time>2019-01-19T14:08:45.000Z</time>
      </trkpt>
      <trkpt lat="45.60532" lon="6.65396">
        <ele>1950.1999511719</ele>
        <time>2019-01-19T14:08:47.000Z</time>
      </trkpt>
      <trkpt lat="45.60525" lon="6.65397">
        <ele>1946.8000488281</ele>
        <time>2019-01-19T14:08:48.000Z</time>
      </trkpt>
      <trkpt lat="45.60517" lon="6.65398">
        <ele>1943.5999755859</ele>
        <time>2019-01-19T14:08:49.000Z</time>
      </trkpt>
      <trkpt lat="45.60503" lon="6.65398">
        <ele>1937.1999511719</ele>
        <time>2019-01-19T14:08:51.000Z</time>
      </trkpt>
      <trkpt lat="45.60497" lon="6.65398">
        <ele>1934.1999511719</ele>
        <time>2019-01-19T14:08:52.000Z</time>
      </trkpt>
      <trkpt lat="45.6049" lon="6.65398">
        <ele>1931.1999511719</ele>
        <time>2019-01-19T14:08:53.000Z</time>
      </trkpt>
      <trkpt lat="45.60483" lon="6.65398">
        <ele>1928.1999511719</ele>
        <time>2019-01-19T14:08:54.000Z</time>
      </trkpt>
      <trkpt lat="45.60476" lon="6.65398">
        <ele>1925.1999511719</ele>
        <time>2019-01-19T14:08:55.000Z</time>
      </trkpt>
      <trkpt lat="45.60464" lon="6.65397">
        <ele>1920.4000244141</ele>
        <time>2019-01-19T14:08:57.000Z</time>
      </trkpt>
      <trkpt lat="45.60459" lon="6.65396">
        <ele>1918.8000488281</ele>
        <time>2019-01-19T14:08:58.000Z</time>
      </trkpt>
      <trkpt lat="45.60453" lon="6.65395">
        <ele>1917.1999511719</ele>
        <time>2019-01-19T14:08:59.000Z</time>
      </trkpt>
      <trkpt lat="45.60443" lon="6.65393">
        <ele>1913.8000488281</ele>
        <time>2019-01-19T14:09:01.000Z</time>
      </trkpt>
      <trkpt lat="45.60433" lon="6.6539">
        <ele>1910.5999755859</ele>
        <time>2019-01-19T14:09:03.000Z</time>
      </trkpt>
      <trkpt lat="45.60429" lon="6.65389">
        <ele>1909.4000244141</ele>
        <time>2019-01-19T14:09:04.000Z</time>
      </trkpt>
      <trkpt lat="45.60423" lon="6.65388">
        <ele>1907.4000244141</ele>
        <time>2019-01-19T14:09:06.000Z</time>
      </trkpt>
      <trkpt lat="45.6042" lon="6.65386">
        <ele>1906.5999755859</ele>
        <time>2019-01-19T14:09:07.000Z</time>
      </trkpt>
      <trkpt lat="45.60403" lon="6.65367">
        <ele>1904.8000488281</ele>
        <time>2019-01-19T14:09:12.000Z</time>
      </trkpt>
      <trkpt lat="45.60396" lon="6.65349">
        <ele>1906.4000244141</ele>
        <time>2019-01-19T14:09:16.000Z</time>
      </trkpt>
      <trkpt lat="45.60398" lon="6.65342">
        <ele>1908.8000488281</ele>
        <time>2019-01-19T14:09:18.000Z</time>
      </trkpt>
      <trkpt lat="45.60401" lon="6.65338">
        <ele>1910.5999755859</ele>
        <time>2019-01-19T14:09:22.000Z</time>
      </trkpt>
      <trkpt lat="45.60401" lon="6.65337">
        <ele>1910.8000488281</ele>
        <time>2019-01-19T14:09:24.000Z</time>
      </trkpt>
      <trkpt lat="45.60406" lon="6.65342">
        <ele>1911.8000488281</ele>
        <time>2019-01-19T14:09:28.000Z</time>
      </trkpt>
      <trkpt lat="45.60407" lon="6.65343">
        <ele>1911.8000488281</ele>
        <time>2019-01-19T14:09:29.000Z</time>
      </trkpt>
      <trkpt lat="45.60409" lon="6.65343">
        <ele>1912.5999755859</ele>
        <time>2019-01-19T14:09:31.000Z</time>
      </trkpt>
      <trkpt lat="45.60409" lon="6.65343">
        <ele>1912.5999755859</ele>
        <time>2019-01-19T14:09:33.000Z</time>
      </trkpt>
      <trkpt lat="45.60409" lon="6.65343">
        <ele>1912.5999755859</ele>
        <time>2019-01-19T14:09:35.000Z</time>
      </trkpt>
      <trkpt lat="45.60409" lon="6.65343">
        <ele>1912.5999755859</ele>
        <time>2019-01-19T14:09:42.000Z</time>
      </trkpt>
      <trkpt lat="45.6041" lon="6.65343">
        <ele>1912.5999755859</ele>
        <time>2019-01-19T14:09:44.000Z</time>
      </trkpt>
      <trkpt lat="45.60412" lon="6.6535">
        <ele>1912</ele>
        <time>2019-01-19T14:09:46.000Z</time>
      </trkpt>
      <trkpt lat="45.60412" lon="6.65353">
        <ele>1911.1999511719</ele>
        <time>2019-01-19T14:09:47.000Z</time>
      </trkpt>
      <trkpt lat="45.60412" lon="6.65355">
        <ele>1910.5999755859</ele>
        <time>2019-01-19T14:09:48.000Z</time>
      </trkpt>
      <trkpt lat="45.6041" lon="6.65355">
        <ele>1910.1999511719</ele>
        <time>2019-01-19T14:09:49.000Z</time>
      </trkpt>
      <trkpt lat="45.60408" lon="6.65352">
        <ele>1910</ele>
        <time>2019-01-19T14:09:50.000Z</time>
      </trkpt>
      <trkpt lat="45.60406" lon="6.65347">
        <ele>1910.5999755859</ele>
        <time>2019-01-19T14:09:51.000Z</time>
      </trkpt>
      <trkpt lat="45.60405" lon="6.65342">
        <ele>1911.4000244141</ele>
        <time>2019-01-19T14:09:52.000Z</time>
      </trkpt>
      <trkpt lat="45.60403" lon="6.65333">
        <ele>1912.4000244141</ele>
        <time>2019-01-19T14:09:55.000Z</time>
      </trkpt>
      <trkpt lat="45.60401" lon="6.65331">
        <ele>1912</ele>
        <time>2019-01-19T14:09:56.000Z</time>
      </trkpt>
      <trkpt lat="45.604" lon="6.65329">
        <ele>1911.8000488281</ele>
        <time>2019-01-19T14:09:57.000Z</time>
      </trkpt>
      <trkpt lat="45.60397" lon="6.6533">
        <ele>1911</ele>
        <time>2019-01-19T14:09:59.000Z</time>
      </trkpt>
      <trkpt lat="45.60397" lon="6.65333">
        <ele>1910.4000244141</ele>
        <time>2019-01-19T14:10:00.000Z</time>
      </trkpt>
      <trkpt lat="45.60402" lon="6.65339">
        <ele>1910.8000488281</ele>
        <time>2019-01-19T14:10:02.000Z</time>
      </trkpt>
      <trkpt lat="45.60407" lon="6.65343">
        <ele>1911.8000488281</ele>
        <time>2019-01-19T14:10:04.000Z</time>
      </trkpt>
      <trkpt lat="45.60407" lon="6.65344">
        <ele>1911.8000488281</ele>
        <time>2019-01-19T14:10:05.000Z</time>
      </trkpt>
      <trkpt lat="45.60406" lon="6.65343">
        <ele>1911.4000244141</ele>
        <time>2019-01-19T14:10:06.000Z</time>
      </trkpt>
      <trkpt lat="45.60405" lon="6.65343">
        <ele>1911</ele>
        <time>2019-01-19T14:10:07.000Z</time>
      </trkpt>
      <trkpt lat="45.60404" lon="6.65342">
        <ele>1910.5999755859</ele>
        <time>2019-01-19T14:10:08.000Z</time>
      </trkpt>
      <trkpt lat="45.60403" lon="6.6534">
        <ele>1911</ele>
        <time>2019-01-19T14:10:09.000Z</time>
      </trkpt>
      <trkpt lat="45.60403" lon="6.65335">
        <ele>1911.8000488281</ele>
        <time>2019-01-19T14:10:11.000Z</time>
      </trkpt>
      <trkpt lat="45.60403" lon="6.65333">
        <ele>1912.1999511719</ele>
        <time>2019-01-19T14:10:13.000Z</time>
      </trkpt>
      <trkpt lat="45.60403" lon="6.65334">
        <ele>1912</ele>
        <time>2019-01-19T14:10:14.000Z</time>
      </trkpt>
      <trkpt lat="45.60407" lon="6.65354">
        <ele>1909.1999511719</ele>
        <time>2019-01-19T14:10:17.000Z</time>
      </trkpt>
      <trkpt lat="45.60409" lon="6.65362">
        <ele>1908.4000244141</ele>
        <time>2019-01-19T14:10:18.000Z</time>
      </trkpt>
      <trkpt lat="45.60411" lon="6.65371">
        <ele>1906.8000488281</ele>
        <time>2019-01-19T14:10:19.000Z</time>
      </trkpt>
      <trkpt lat="45.60411" lon="6.65382">
        <ele>1904.4000244141</ele>
        <time>2019-01-19T14:10:20.000Z</time>
      </trkpt>
      <trkpt lat="45.6041" lon="6.65391">
        <ele>1901.8000488281</ele>
        <time>2019-01-19T14:10:21.000Z</time>
      </trkpt>
      <trkpt lat="45.60408" lon="6.65399">
        <ele>1899.1999511719</ele>
        <time>2019-01-19T14:10:22.000Z</time>
      </trkpt>
      <trkpt lat="45.60405" lon="6.65405">
        <ele>1897</ele>
        <time>2019-01-19T14:10:23.000Z</time>
      </trkpt>
      <trkpt lat="45.60401" lon="6.65407">
        <ele>1895.4000244141</ele>
        <time>2019-01-19T14:10:24.000Z</time>
      </trkpt>
      <trkpt lat="45.60397" lon="6.65407">
        <ele>1894</ele>
        <time>2019-01-19T14:10:25.000Z</time>
      </trkpt>
      <trkpt lat="45.60394" lon="6.65408">
        <ele>1892.8000488281</ele>
        <time>2019-01-19T14:10:26.000Z</time>
      </trkpt>
      <trkpt lat="45.60394" lon="6.6541">
        <ele>1892.4000244141</ele>
        <time>2019-01-19T14:10:27.000Z</time>
      </trkpt>
      <trkpt lat="45.60394" lon="6.65412">
        <ele>1892.1999511719</ele>
        <time>2019-01-19T14:10:28.000Z</time>
      </trkpt>
      <trkpt lat="45.60395" lon="6.65419">
        <ele>1892.1999511719</ele>
        <time>2019-01-19T14:10:31.000Z</time>
      </trkpt>
      <trkpt lat="45.60396" lon="6.65418">
        <ele>1892.5999755859</ele>
        <time>2019-01-19T14:10:34.000Z</time>
      </trkpt>
      <trkpt lat="45.60397" lon="6.65417">
        <ele>1893</ele>
        <time>2019-01-19T14:10:37.000Z</time>
      </trkpt>
      <trkpt lat="45.60397" lon="6.65417">
        <ele>1893</ele>
        <time>2019-01-19T14:10:38.000Z</time>
      </trkpt>
      <trkpt lat="45.60397" lon="6.6542">
        <ele>1892.5999755859</ele>
        <time>2019-01-19T14:10:44.000Z</time>
      </trkpt>
      <trkpt lat="45.60399" lon="6.65431">
        <ele>1892.8000488281</ele>
        <time>2019-01-19T14:10:47.000Z</time>
      </trkpt>
      <trkpt lat="45.604" lon="6.65436">
        <ele>1893</ele>
        <time>2019-01-19T14:10:50.000Z</time>
      </trkpt>
      <trkpt lat="45.60402" lon="6.65438">
        <ele>1893.1999511719</ele>
        <time>2019-01-19T14:10:51.000Z</time>
      </trkpt>
      <trkpt lat="45.60404" lon="6.65442">
        <ele>1893.5999755859</ele>
        <time>2019-01-19T14:10:52.000Z</time>
      </trkpt>
      <trkpt lat="45.60407" lon="6.6545">
        <ele>1894.1999511719</ele>
        <time>2019-01-19T14:10:54.000Z</time>
      </trkpt>
      <trkpt lat="45.60408" lon="6.65452">
        <ele>1894.5999755859</ele>
        <time>2019-01-19T14:10:55.000Z</time>
      </trkpt>
      <trkpt lat="45.60411" lon="6.65458">
        <ele>1894.8000488281</ele>
        <time>2019-01-19T14:10:57.000Z</time>
      </trkpt>
      <trkpt lat="45.60415" lon="6.65465">
        <ele>1895.8000488281</ele>
        <time>2019-01-19T14:10:59.000Z</time>
      </trkpt>
      <trkpt lat="45.60417" lon="6.65472">
        <ele>1896</ele>
        <time>2019-01-19T14:11:01.000Z</time>
      </trkpt>
      <trkpt lat="45.60415" lon="6.65477">
        <ele>1895.4000244141</ele>
        <time>2019-01-19T14:11:02.000Z</time>
      </trkpt>
      <trkpt lat="45.60412" lon="6.65483">
        <ele>1893.8000488281</ele>
        <time>2019-01-19T14:11:03.000Z</time>
      </trkpt>
      <trkpt lat="45.604" lon="6.65487">
        <ele>1890</ele>
        <time>2019-01-19T14:11:05.000Z</time>
      </trkpt>
      <trkpt lat="45.60389" lon="6.65495">
        <ele>1887.5999755859</ele>
        <time>2019-01-19T14:11:07.000Z</time>
      </trkpt>
      <trkpt lat="45.60384" lon="6.65501">
        <ele>1886.8000488281</ele>
        <time>2019-01-19T14:11:08.000Z</time>
      </trkpt>
      <trkpt lat="45.60378" lon="6.65505">
        <ele>1886</ele>
        <time>2019-01-19T14:11:09.000Z</time>
      </trkpt>
      <trkpt lat="45.60372" lon="6.6551">
        <ele>1885</ele>
        <time>2019-01-19T14:11:10.000Z</time>
      </trkpt>
      <trkpt lat="45.60366" lon="6.65515">
        <ele>1884.1999511719</ele>
        <time>2019-01-19T14:11:11.000Z</time>
      </trkpt>
      <trkpt lat="45.60361" lon="6.6552">
        <ele>1883.4000244141</ele>
        <time>2019-01-19T14:11:12.000Z</time>
      </trkpt>
      <trkpt lat="45.60356" lon="6.65526">
        <ele>1882.8000488281</ele>
        <time>2019-01-19T14:11:13.000Z</time>
      </trkpt>
      <trkpt lat="45.60351" lon="6.65532">
        <ele>1882.4000244141</ele>
        <time>2019-01-19T14:11:14.000Z</time>
      </trkpt>
      <trkpt lat="45.60347" lon="6.65536">
        <ele>1881.5999755859</ele>
        <time>2019-01-19T14:11:15.000Z</time>
      </trkpt>
      <trkpt lat="45.60344" lon="6.6554">
        <ele>1880.5999755859</ele>
        <time>2019-01-19T14:11:16.000Z</time>
      </trkpt>
      <trkpt lat="45.60335" lon="6.65551">
        <ele>1878.1999511719</ele>
        <time>2019-01-19T14:11:18.000Z</time>
      </trkpt>
      <trkpt lat="45.6033" lon="6.65557">
        <ele>1877.1999511719</ele>
        <time>2019-01-19T14:11:19.000Z</time>
      </trkpt>
      <trkpt lat="45.60325" lon="6.65563">
        <ele>1875.8000488281</ele>
        <time>2019-01-19T14:11:20.000Z</time>
      </trkpt>
      <trkpt lat="45.60318" lon="6.65575">
        <ele>1874.8000488281</ele>
        <time>2019-01-19T14:11:22.000Z</time>
      </trkpt>
      <trkpt lat="45.60312" lon="6.65583">
        <ele>1873.5999755859</ele>
        <time>2019-01-19T14:11:24.000Z</time>
      </trkpt>
      <trkpt lat="45.60305" lon="6.6559">
        <ele>1871.1999511719</ele>
        <time>2019-01-19T14:11:26.000Z</time>
      </trkpt>
      <trkpt lat="45.60296" lon="6.65591">
        <ele>1867.5999755859</ele>
        <time>2019-01-19T14:11:28.000Z</time>
      </trkpt>
      <trkpt lat="45.60291" lon="6.65594">
        <ele>1865.8000488281</ele>
        <time>2019-01-19T14:11:29.000Z</time>
      </trkpt>
      <trkpt lat="45.60287" lon="6.65599">
        <ele>1864.4000244141</ele>
        <time>2019-01-19T14:11:30.000Z</time>
      </trkpt>
      <trkpt lat="45.60284" lon="6.65604">
        <ele>1863.5999755859</ele>
        <time>2019-01-19T14:11:31.000Z</time>
      </trkpt>
      <trkpt lat="45.60283" lon="6.65607">
        <ele>1863.4000244141</ele>
        <time>2019-01-19T14:11:32.000Z</time>
      </trkpt>
      <trkpt lat="45.60282" lon="6.6561">
        <ele>1863.1999511719</ele>
        <time>2019-01-19T14:11:33.000Z</time>
      </trkpt>
      <trkpt lat="45.6028" lon="6.65611">
        <ele>1862.4000244141</ele>
        <time>2019-01-19T14:11:34.000Z</time>
      </trkpt>
      <trkpt lat="45.60277" lon="6.65612">
        <ele>1861.5999755859</ele>
        <time>2019-01-19T14:11:35.000Z</time>
      </trkpt>
      <trkpt lat="45.60276" lon="6.6561">
        <ele>1861</ele>
        <time>2019-01-19T14:11:36.000Z</time>
      </trkpt>
      <trkpt lat="45.60275" lon="6.65607">
        <ele>1860</ele>
        <time>2019-01-19T14:11:37.000Z</time>
      </trkpt>
      <trkpt lat="45.60272" lon="6.65604">
        <ele>1858.8000488281</ele>
        <time>2019-01-19T14:11:38.000Z</time>
      </trkpt>
      <trkpt lat="45.6027" lon="6.65604">
        <ele>1857.8000488281</ele>
        <time>2019-01-19T14:11:39.000Z</time>
      </trkpt>
      <trkpt lat="45.60269" lon="6.65604">
        <ele>1857.5999755859</ele>
        <time>2019-01-19T14:11:40.000Z</time>
      </trkpt>
      <trkpt lat="45.60269" lon="6.65604">
        <ele>1857.5999755859</ele>
        <time>2019-01-19T14:11:42.000Z</time>
      </trkpt>
      <trkpt lat="45.60269" lon="6.65604">
        <ele>1857.5999755859</ele>
        <time>2019-01-19T14:11:43.000Z</time>
      </trkpt>
      <trkpt lat="45.60269" lon="6.65604">
        <ele>1857.5999755859</ele>
        <time>2019-01-19T14:11:45.000Z</time>
      </trkpt>
      <trkpt lat="45.60269" lon="6.65604">
        <ele>1857.5999755859</ele>
        <time>2019-01-19T14:11:49.000Z</time>
      </trkpt>
      <trkpt lat="45.60269" lon="6.65604">
        <ele>1857.5999755859</ele>
        <time>2019-01-19T14:11:54.000Z</time>
      </trkpt>
      <trkpt lat="45.60269" lon="6.65604">
        <ele>1857.5999755859</ele>
        <time>2019-01-19T14:12:07.000Z</time>
      </trkpt>
      <trkpt lat="45.60269" lon="6.65603">
        <ele>1857.5999755859</ele>
        <time>2019-01-19T14:12:22.000Z</time>
      </trkpt>
      <trkpt lat="45.60269" lon="6.65603">
        <ele>1857.5999755859</ele>
        <time>2019-01-19T14:12:35.000Z</time>
      </trkpt>
      <trkpt lat="45.6027" lon="6.65603">
        <ele>1857.8000488281</ele>
        <time>2019-01-19T14:12:43.000Z</time>
      </trkpt>
      <trkpt lat="45.60269" lon="6.65604">
        <ele>1857.4000244141</ele>
        <time>2019-01-19T14:13:02.000Z</time>
      </trkpt>
      <trkpt lat="45.60265" lon="6.65614">
        <ele>1857</ele>
        <time>2019-01-19T14:13:05.000Z</time>
      </trkpt>
      <trkpt lat="45.60262" lon="6.65624">
        <ele>1855.1999511719</ele>
        <time>2019-01-19T14:13:07.000Z</time>
      </trkpt>
      <trkpt lat="45.60259" lon="6.65637">
        <ele>1853.8000488281</ele>
        <time>2019-01-19T14:13:09.000Z</time>
      </trkpt>
      <trkpt lat="45.60255" lon="6.65648">
        <ele>1852</ele>
        <time>2019-01-19T14:13:11.000Z</time>
      </trkpt>
      <trkpt lat="45.60251" lon="6.65659">
        <ele>1849.8000488281</ele>
        <time>2019-01-19T14:13:13.000Z</time>
      </trkpt>
      <trkpt lat="45.60246" lon="6.65668">
        <ele>1847.4000244141</ele>
        <time>2019-01-19T14:13:15.000Z</time>
      </trkpt>
      <trkpt lat="45.60245" lon="6.65673">
        <ele>1847</ele>
        <time>2019-01-19T14:13:16.000Z</time>
      </trkpt>
      <trkpt lat="45.60244" lon="6.65677">
        <ele>1846.1999511719</ele>
        <time>2019-01-19T14:13:17.000Z</time>
      </trkpt>
      <trkpt lat="45.60241" lon="6.65681">
        <ele>1844.5999755859</ele>
        <time>2019-01-19T14:13:18.000Z</time>
      </trkpt>
      <trkpt lat="45.60238" lon="6.65687">
        <ele>1843.1999511719</ele>
        <time>2019-01-19T14:13:19.000Z</time>
      </trkpt>
      <trkpt lat="45.60237" lon="6.65692">
        <ele>1842.4000244141</ele>
        <time>2019-01-19T14:13:20.000Z</time>
      </trkpt>
      <trkpt lat="45.60236" lon="6.65695">
        <ele>1841.5999755859</ele>
        <time>2019-01-19T14:13:21.000Z</time>
      </trkpt>
      <trkpt lat="45.60234" lon="6.65701">
        <ele>1840.8000488281</ele>
        <time>2019-01-19T14:13:23.000Z</time>
      </trkpt>
      <trkpt lat="45.60232" lon="6.65703">
        <ele>1839.8000488281</ele>
        <time>2019-01-19T14:13:24.000Z</time>
      </trkpt>
      <trkpt lat="45.60228" lon="6.65698">
        <ele>1837.5999755859</ele>
        <time>2019-01-19T14:13:26.000Z</time>
      </trkpt>
      <trkpt lat="45.60226" lon="6.65695">
        <ele>1836.8000488281</ele>
        <time>2019-01-19T14:13:27.000Z</time>
      </trkpt>
      <trkpt lat="45.60224" lon="6.65691">
        <ele>1835.8000488281</ele>
        <time>2019-01-19T14:13:28.000Z</time>
      </trkpt>
      <trkpt lat="45.60221" lon="6.65688">
        <ele>1834.1999511719</ele>
        <time>2019-01-19T14:13:29.000Z</time>
      </trkpt>
      <trkpt lat="45.60217" lon="6.65687">
        <ele>1832.4000244141</ele>
        <time>2019-01-19T14:13:30.000Z</time>
      </trkpt>
      <trkpt lat="45.60211" lon="6.65695">
        <ele>1829.5999755859</ele>
        <time>2019-01-19T14:13:32.000Z</time>
      </trkpt>
      <trkpt lat="45.6021" lon="6.65699">
        <ele>1829</ele>
        <time>2019-01-19T14:13:33.000Z</time>
      </trkpt>
      <trkpt lat="45.6021" lon="6.65702">
        <ele>1828.8000488281</ele>
        <time>2019-01-19T14:13:34.000Z</time>
      </trkpt>
      <trkpt lat="45.6021" lon="6.65705">
        <ele>1828.5999755859</ele>
        <time>2019-01-19T14:13:35.000Z</time>
      </trkpt>
      <trkpt lat="45.6021" lon="6.65709">
        <ele>1828.8000488281</ele>
        <time>2019-01-19T14:13:36.000Z</time>
      </trkpt>
      <trkpt lat="45.6021" lon="6.65713">
        <ele>1828.8000488281</ele>
        <time>2019-01-19T14:13:37.000Z</time>
      </trkpt>
      <trkpt lat="45.60209" lon="6.65716">
        <ele>1828.1999511719</ele>
        <time>2019-01-19T14:13:38.000Z</time>
      </trkpt>
      <trkpt lat="45.60207" lon="6.65722">
        <ele>1827</ele>
        <time>2019-01-19T14:13:39.000Z</time>
      </trkpt>
      <trkpt lat="45.60204" lon="6.6573">
        <ele>1825.4000244141</ele>
        <time>2019-01-19T14:13:40.000Z</time>
      </trkpt>
      <trkpt lat="45.60203" lon="6.65744">
        <ele>1824</ele>
        <time>2019-01-19T14:13:42.000Z</time>
      </trkpt>
      <trkpt lat="45.60201" lon="6.6575">
        <ele>1822.8000488281</ele>
        <time>2019-01-19T14:13:43.000Z</time>
      </trkpt>
      <trkpt lat="45.60199" lon="6.65754">
        <ele>1821.5999755859</ele>
        <time>2019-01-19T14:13:44.000Z</time>
      </trkpt>
      <trkpt lat="45.60196" lon="6.65757">
        <ele>1820</ele>
        <time>2019-01-19T14:13:45.000Z</time>
      </trkpt>
      <trkpt lat="45.60191" lon="6.65761">
        <ele>1817.8000488281</ele>
        <time>2019-01-19T14:13:46.000Z</time>
      </trkpt>
      <trkpt lat="45.60189" lon="6.65767">
        <ele>1816.4000244141</ele>
        <time>2019-01-19T14:13:47.000Z</time>
      </trkpt>
      <trkpt lat="45.60188" lon="6.65773">
        <ele>1815.4000244141</ele>
        <time>2019-01-19T14:13:48.000Z</time>
      </trkpt>
      <trkpt lat="45.60187" lon="6.65775">
        <ele>1815</ele>
        <time>2019-01-19T14:13:49.000Z</time>
      </trkpt>
      <trkpt lat="45.60187" lon="6.65775">
        <ele>1814.8000488281</ele>
        <time>2019-01-19T14:13:50.000Z</time>
      </trkpt>
      <trkpt lat="45.60186" lon="6.65776">
        <ele>1814.4000244141</ele>
        <time>2019-01-19T14:13:51.000Z</time>
      </trkpt>
      <trkpt lat="45.60185" lon="6.65779">
        <ele>1813.5999755859</ele>
        <time>2019-01-19T14:13:52.000Z</time>
      </trkpt>
      <trkpt lat="45.60184" lon="6.65784">
        <ele>1813.1999511719</ele>
        <time>2019-01-19T14:13:53.000Z</time>
      </trkpt>
      <trkpt lat="45.60184" lon="6.65793">
        <ele>1812.4000244141</ele>
        <time>2019-01-19T14:13:55.000Z</time>
      </trkpt>
      <trkpt lat="45.60182" lon="6.65795">
        <ele>1811.4000244141</ele>
        <time>2019-01-19T14:13:56.000Z</time>
      </trkpt>
      <trkpt lat="45.60179" lon="6.65794">
        <ele>1810</ele>
        <time>2019-01-19T14:13:57.000Z</time>
      </trkpt>
      <trkpt lat="45.60174" lon="6.65789">
        <ele>1807.5999755859</ele>
        <time>2019-01-19T14:13:59.000Z</time>
      </trkpt>
      <trkpt lat="45.60171" lon="6.65785">
        <ele>1806.4000244141</ele>
        <time>2019-01-19T14:14:01.000Z</time>
      </trkpt>
      <trkpt lat="45.60171" lon="6.65783">
        <ele>1806.4000244141</ele>
        <time>2019-01-19T14:14:03.000Z</time>
      </trkpt>
      <trkpt lat="45.60171" lon="6.65783">
        <ele>1806.4000244141</ele>
        <time>2019-01-19T14:14:04.000Z</time>
      </trkpt>
      <trkpt lat="45.60169" lon="6.65784">
        <ele>1805.5999755859</ele>
        <time>2019-01-19T14:14:06.000Z</time>
      </trkpt>
      <trkpt lat="45.60168" lon="6.65787">
        <ele>1804.4000244141</ele>
        <time>2019-01-19T14:14:07.000Z</time>
      </trkpt>
      <trkpt lat="45.60164" lon="6.65798">
        <ele>1801.8000488281</ele>
        <time>2019-01-19T14:14:10.000Z</time>
      </trkpt>
      <trkpt lat="45.60158" lon="6.65797">
        <ele>1798.8000488281</ele>
        <time>2019-01-19T14:14:12.000Z</time>
      </trkpt>
      <trkpt lat="45.60155" lon="6.65795">
        <ele>1797.4000244141</ele>
        <time>2019-01-19T14:14:13.000Z</time>
      </trkpt>
      <trkpt lat="45.60152" lon="6.65792">
        <ele>1796</ele>
        <time>2019-01-19T14:14:14.000Z</time>
      </trkpt>
      <trkpt lat="45.60142" lon="6.65789">
        <ele>1791.1999511719</ele>
        <time>2019-01-19T14:14:16.000Z</time>
      </trkpt>
      <trkpt lat="45.60137" lon="6.65795">
        <ele>1788</ele>
        <time>2019-01-19T14:14:18.000Z</time>
      </trkpt>
      <trkpt lat="45.60139" lon="6.65801">
        <ele>1788.8000488281</ele>
        <time>2019-01-19T14:14:20.000Z</time>
      </trkpt>
      <trkpt lat="45.6014" lon="6.65802">
        <ele>1789</ele>
        <time>2019-01-19T14:14:21.000Z</time>
      </trkpt>
      <trkpt lat="45.60139" lon="6.65804">
        <ele>1788.4000244141</ele>
        <time>2019-01-19T14:14:22.000Z</time>
      </trkpt>
      <trkpt lat="45.60136" lon="6.65804">
        <ele>1786.5999755859</ele>
        <time>2019-01-19T14:14:24.000Z</time>
      </trkpt>
      <trkpt lat="45.60135" lon="6.65802">
        <ele>1786.4000244141</ele>
        <time>2019-01-19T14:14:25.000Z</time>
      </trkpt>
      <trkpt lat="45.60134" lon="6.65799">
        <ele>1786.4000244141</ele>
        <time>2019-01-19T14:14:26.000Z</time>
      </trkpt>
      <trkpt lat="45.60133" lon="6.65797">
        <ele>1786.1999511719</ele>
        <time>2019-01-19T14:14:27.000Z</time>
      </trkpt>
      <trkpt lat="45.60129" lon="6.65793">
        <ele>1785.4000244141</ele>
        <time>2019-01-19T14:14:30.000Z</time>
      </trkpt>
      <trkpt lat="45.60127" lon="6.65802">
        <ele>1784.1999511719</ele>
        <time>2019-01-19T14:14:33.000Z</time>
      </trkpt>
      <trkpt lat="45.60127" lon="6.65805">
        <ele>1784</ele>
        <time>2019-01-19T14:14:34.000Z</time>
      </trkpt>
      <trkpt lat="45.60128" lon="6.65815">
        <ele>1783.1999511719</ele>
        <time>2019-01-19T14:14:36.000Z</time>
      </trkpt>
      <trkpt lat="45.60129" lon="6.65818">
        <ele>1783.1999511719</ele>
        <time>2019-01-19T14:14:37.000Z</time>
      </trkpt>
      <trkpt lat="45.6013" lon="6.65821">
        <ele>1783</ele>
        <time>2019-01-19T14:14:38.000Z</time>
      </trkpt>
      <trkpt lat="45.6013" lon="6.65828">
        <ele>1782.8000488281</ele>
        <time>2019-01-19T14:14:40.000Z</time>
      </trkpt>
      <trkpt lat="45.60128" lon="6.65835">
        <ele>1781.8000488281</ele>
        <time>2019-01-19T14:14:42.000Z</time>
      </trkpt>
      <trkpt lat="45.60124" lon="6.65837">
        <ele>1780.1999511719</ele>
        <time>2019-01-19T14:14:44.000Z</time>
      </trkpt>
      <trkpt lat="45.60121" lon="6.65835">
        <ele>1779.4000244141</ele>
        <time>2019-01-19T14:14:45.000Z</time>
      </trkpt>
      <trkpt lat="45.60118" lon="6.65832">
        <ele>1778.5999755859</ele>
        <time>2019-01-19T14:14:46.000Z</time>
      </trkpt>
      <trkpt lat="45.60114" lon="6.65831">
        <ele>1777.5999755859</ele>
        <time>2019-01-19T14:14:47.000Z</time>
      </trkpt>
      <trkpt lat="45.60112" lon="6.65832">
        <ele>1776.8000488281</ele>
        <time>2019-01-19T14:14:48.000Z</time>
      </trkpt>
      <trkpt lat="45.60112" lon="6.65833">
        <ele>1776.5999755859</ele>
        <time>2019-01-19T14:14:51.000Z</time>
      </trkpt>
      <trkpt lat="45.60112" lon="6.65833">
        <ele>1776.5999755859</ele>
        <time>2019-01-19T14:14:52.000Z</time>
      </trkpt>
      <trkpt lat="45.60111" lon="6.65835">
        <ele>1776.1999511719</ele>
        <time>2019-01-19T14:14:53.000Z</time>
      </trkpt>
      <trkpt lat="45.6011" lon="6.65836">
        <ele>1776</ele>
        <time>2019-01-19T14:14:55.000Z</time>
      </trkpt>
      <trkpt lat="45.60108" lon="6.65837">
        <ele>1775.1999511719</ele>
        <time>2019-01-19T14:14:58.000Z</time>
      </trkpt>
      <trkpt lat="45.60105" lon="6.6584">
        <ele>1774</ele>
        <time>2019-01-19T14:14:59.000Z</time>
      </trkpt>
      <trkpt lat="45.601" lon="6.6585">
        <ele>1771.8000488281</ele>
        <time>2019-01-19T14:15:01.000Z</time>
      </trkpt>
      <trkpt lat="45.60099" lon="6.65854">
        <ele>1771.1999511719</ele>
        <time>2019-01-19T14:15:02.000Z</time>
      </trkpt>
      <trkpt lat="45.60098" lon="6.65858">
        <ele>1770.5999755859</ele>
        <time>2019-01-19T14:15:04.000Z</time>
      </trkpt>
      <trkpt lat="45.60097" lon="6.6586">
        <ele>1770.1999511719</ele>
        <time>2019-01-19T14:15:05.000Z</time>
      </trkpt>
      <trkpt lat="45.60096" lon="6.65862">
        <ele>1769.8000488281</ele>
        <time>2019-01-19T14:15:06.000Z</time>
      </trkpt>
      <trkpt lat="45.60094" lon="6.65867">
        <ele>1768.5999755859</ele>
        <time>2019-01-19T14:15:07.000Z</time>
      </trkpt>
      <trkpt lat="45.60092" lon="6.6588">
        <ele>1765.8000488281</ele>
        <time>2019-01-19T14:15:09.000Z</time>
      </trkpt>
      <trkpt lat="45.60094" lon="6.65892">
        <ele>1764.5999755859</ele>
        <time>2019-01-19T14:15:11.000Z</time>
      </trkpt>
      <trkpt lat="45.60095" lon="6.65897">
        <ele>1764.4000244141</ele>
        <time>2019-01-19T14:15:12.000Z</time>
      </trkpt>
      <trkpt lat="45.60096" lon="6.65901">
        <ele>1764.1999511719</ele>
        <time>2019-01-19T14:15:13.000Z</time>
      </trkpt>
      <trkpt lat="45.60095" lon="6.65903">
        <ele>1763.8000488281</ele>
        <time>2019-01-19T14:15:14.000Z</time>
      </trkpt>
      <trkpt lat="45.60094" lon="6.65904">
        <ele>1763.4000244141</ele>
        <time>2019-01-19T14:15:15.000Z</time>
      </trkpt>
      <trkpt lat="45.60092" lon="6.65904">
        <ele>1762.4000244141</ele>
        <time>2019-01-19T14:15:17.000Z</time>
      </trkpt>
      <trkpt lat="45.60085" lon="6.65894">
        <ele>1760.8000488281</ele>
        <time>2019-01-19T14:15:20.000Z</time>
      </trkpt>
      <trkpt lat="45.60075" lon="6.65886">
        <ele>1757.8000488281</ele>
        <time>2019-01-19T14:15:22.000Z</time>
      </trkpt>
      <trkpt lat="45.6007" lon="6.65885">
        <ele>1756</ele>
        <time>2019-01-19T14:15:23.000Z</time>
      </trkpt>
      <trkpt lat="45.60068" lon="6.65887">
        <ele>1754.8000488281</ele>
        <time>2019-01-19T14:15:24.000Z</time>
      </trkpt>
      <trkpt lat="45.60066" lon="6.6589">
        <ele>1753.8000488281</ele>
        <time>2019-01-19T14:15:25.000Z</time>
      </trkpt>
      <trkpt lat="45.6007" lon="6.65904">
        <ele>1753.4000244141</ele>
        <time>2019-01-19T14:15:27.000Z</time>
      </trkpt>
      <trkpt lat="45.60074" lon="6.65925">
        <ele>1754.4000244141</ele>
        <time>2019-01-19T14:15:30.000Z</time>
      </trkpt>
      <trkpt lat="45.60078" lon="6.6594">
        <ele>1754.1999511719</ele>
        <time>2019-01-19T14:15:32.000Z</time>
      </trkpt>
      <trkpt lat="45.60081" lon="6.65948">
        <ele>1754.4000244141</ele>
        <time>2019-01-19T14:15:33.000Z</time>
      </trkpt>
      <trkpt lat="45.60089" lon="6.65961">
        <ele>1756.5999755859</ele>
        <time>2019-01-19T14:15:35.000Z</time>
      </trkpt>
      <trkpt lat="45.60092" lon="6.65969">
        <ele>1757.4000244141</ele>
        <time>2019-01-19T14:15:36.000Z</time>
      </trkpt>
      <trkpt lat="45.60095" lon="6.65975">
        <ele>1758</ele>
        <time>2019-01-19T14:15:37.000Z</time>
      </trkpt>
      <trkpt lat="45.60099" lon="6.65982">
        <ele>1759</ele>
        <time>2019-01-19T14:15:38.000Z</time>
      </trkpt>
      <trkpt lat="45.60103" lon="6.65994">
        <ele>1759.8000488281</ele>
        <time>2019-01-19T14:15:40.000Z</time>
      </trkpt>
      <trkpt lat="45.60104" lon="6.66001">
        <ele>1759.5999755859</ele>
        <time>2019-01-19T14:15:41.000Z</time>
      </trkpt>
      <trkpt lat="45.60105" lon="6.66005">
        <ele>1759.5999755859</ele>
        <time>2019-01-19T14:15:42.000Z</time>
      </trkpt>
      <trkpt lat="45.60107" lon="6.66008">
        <ele>1759.8000488281</ele>
        <time>2019-01-19T14:15:43.000Z</time>
      </trkpt>
      <trkpt lat="45.60107" lon="6.66015">
        <ele>1759.4000244141</ele>
        <time>2019-01-19T14:15:44.000Z</time>
      </trkpt>
      <trkpt lat="45.60106" lon="6.66018">
        <ele>1758.8000488281</ele>
        <time>2019-01-19T14:15:47.000Z</time>
      </trkpt>
      <trkpt lat="45.60103" lon="6.6602">
        <ele>1757</ele>
        <time>2019-01-19T14:15:49.000Z</time>
      </trkpt>
      <trkpt lat="45.60101" lon="6.66023">
        <ele>1755.1999511719</ele>
        <time>2019-01-19T14:15:51.000Z</time>
      </trkpt>
      <trkpt lat="45.60101" lon="6.66025">
        <ele>1755</ele>
        <time>2019-01-19T14:15:52.000Z</time>
      </trkpt>
      <trkpt lat="45.60104" lon="6.66034">
        <ele>1755.5999755859</ele>
        <time>2019-01-19T14:15:54.000Z</time>
      </trkpt>
      <trkpt lat="45.60105" lon="6.66037">
        <ele>1755.8000488281</ele>
        <time>2019-01-19T14:15:55.000Z</time>
      </trkpt>
      <trkpt lat="45.60103" lon="6.66043">
        <ele>1753.5999755859</ele>
        <time>2019-01-19T14:15:57.000Z</time>
      </trkpt>
      <trkpt lat="45.60101" lon="6.66047">
        <ele>1751.8000488281</ele>
        <time>2019-01-19T14:15:58.000Z</time>
      </trkpt>
      <trkpt lat="45.601" lon="6.66052">
        <ele>1750.4000244141</ele>
        <time>2019-01-19T14:15:59.000Z</time>
      </trkpt>
      <trkpt lat="45.60098" lon="6.66065">
        <ele>1746</ele>
        <time>2019-01-19T14:16:01.000Z</time>
      </trkpt>
      <trkpt lat="45.60096" lon="6.66072">
        <ele>1743.8000488281</ele>
        <time>2019-01-19T14:16:02.000Z</time>
      </trkpt>
      <trkpt lat="45.60095" lon="6.6608">
        <ele>1742.8000488281</ele>
        <time>2019-01-19T14:16:03.000Z</time>
      </trkpt>
      <trkpt lat="45.60095" lon="6.66087">
        <ele>1742</ele>
        <time>2019-01-19T14:16:04.000Z</time>
      </trkpt>
      <trkpt lat="45.60095" lon="6.66095">
        <ele>1741.8000488281</ele>
        <time>2019-01-19T14:16:05.000Z</time>
      </trkpt>
      <trkpt lat="45.60096" lon="6.66101">
        <ele>1741.4000244141</ele>
        <time>2019-01-19T14:16:06.000Z</time>
      </trkpt>
      <trkpt lat="45.60096" lon="6.66108">
        <ele>1741.4000244141</ele>
        <time>2019-01-19T14:16:07.000Z</time>
      </trkpt>
      <trkpt lat="45.60097" lon="6.66114">
        <ele>1741.4000244141</ele>
        <time>2019-01-19T14:16:08.000Z</time>
      </trkpt>
      <trkpt lat="45.60098" lon="6.66121">
        <ele>1740.5999755859</ele>
        <time>2019-01-19T14:16:09.000Z</time>
      </trkpt>
      <trkpt lat="45.60099" lon="6.66139">
        <ele>1738.4000244141</ele>
        <time>2019-01-19T14:16:11.000Z</time>
      </trkpt>
      <trkpt lat="45.601" lon="6.66148">
        <ele>1737</ele>
        <time>2019-01-19T14:16:12.000Z</time>
      </trkpt>
      <trkpt lat="45.60101" lon="6.66158">
        <ele>1736.4000244141</ele>
        <time>2019-01-19T14:16:13.000Z</time>
      </trkpt>
      <trkpt lat="45.60101" lon="6.66167">
        <ele>1736.1999511719</ele>
        <time>2019-01-19T14:16:14.000Z</time>
      </trkpt>
      <trkpt lat="45.60101" lon="6.66175">
        <ele>1735.5999755859</ele>
        <time>2019-01-19T14:16:15.000Z</time>
      </trkpt>
      <trkpt lat="45.60101" lon="6.66183">
        <ele>1735.1999511719</ele>
        <time>2019-01-19T14:16:16.000Z</time>
      </trkpt>
      <trkpt lat="45.60101" lon="6.66191">
        <ele>1734.5999755859</ele>
        <time>2019-01-19T14:16:17.000Z</time>
      </trkpt>
      <trkpt lat="45.60101" lon="6.66197">
        <ele>1734</ele>
        <time>2019-01-19T14:16:18.000Z</time>
      </trkpt>
      <trkpt lat="45.60101" lon="6.6621">
        <ele>1733.4000244141</ele>
        <time>2019-01-19T14:16:20.000Z</time>
      </trkpt>
      <trkpt lat="45.60098" lon="6.66237">
        <ele>1730.4000244141</ele>
        <time>2019-01-19T14:16:24.000Z</time>
      </trkpt>
      <trkpt lat="45.60093" lon="6.66265">
        <ele>1726.8000488281</ele>
        <time>2019-01-19T14:16:27.000Z</time>
      </trkpt>
      <trkpt lat="45.6009" lon="6.66276">
        <ele>1725</ele>
        <time>2019-01-19T14:16:28.000Z</time>
      </trkpt>
      <trkpt lat="45.60089" lon="6.66286">
        <ele>1724.4000244141</ele>
        <time>2019-01-19T14:16:29.000Z</time>
      </trkpt>
      <trkpt lat="45.60089" lon="6.66297">
        <ele>1724.5999755859</ele>
        <time>2019-01-19T14:16:30.000Z</time>
      </trkpt>
      <trkpt lat="45.60088" lon="6.66308">
        <ele>1724.5999755859</ele>
        <time>2019-01-19T14:16:31.000Z</time>
      </trkpt>
      <trkpt lat="45.60085" lon="6.6633">
        <ele>1722.5999755859</ele>
        <time>2019-01-19T14:16:33.000Z</time>
      </trkpt>
      <trkpt lat="45.60081" lon="6.66352">
        <ele>1719.4000244141</ele>
        <time>2019-01-19T14:16:35.000Z</time>
      </trkpt>
      <trkpt lat="45.60078" lon="6.66363">
        <ele>1718</ele>
        <time>2019-01-19T14:16:36.000Z</time>
      </trkpt>
      <trkpt lat="45.60076" lon="6.66373">
        <ele>1717</ele>
        <time>2019-01-19T14:16:37.000Z</time>
      </trkpt>
      <trkpt lat="45.60074" lon="6.66383">
        <ele>1716.1999511719</ele>
        <time>2019-01-19T14:16:38.000Z</time>
      </trkpt>
      <trkpt lat="45.60073" lon="6.66392">
        <ele>1715.8000488281</ele>
        <time>2019-01-19T14:16:39.000Z</time>
      </trkpt>
      <trkpt lat="45.60072" lon="6.664">
        <ele>1715.5999755859</ele>
        <time>2019-01-19T14:16:40.000Z</time>
      </trkpt>
      <trkpt lat="45.6007" lon="6.66408">
        <ele>1713.8000488281</ele>
        <time>2019-01-19T14:16:41.000Z</time>
      </trkpt>
      <trkpt lat="45.60067" lon="6.66412">
        <ele>1711.4000244141</ele>
        <time>2019-01-19T14:16:42.000Z</time>
      </trkpt>
      <trkpt lat="45.60065" lon="6.66414">
        <ele>1709.8000488281</ele>
        <time>2019-01-19T14:16:43.000Z</time>
      </trkpt>
      <trkpt lat="45.60064" lon="6.66412">
        <ele>1709.5999755859</ele>
        <time>2019-01-19T14:16:45.000Z</time>
      </trkpt>
      <trkpt lat="45.60064" lon="6.66412">
        <ele>1709.5999755859</ele>
        <time>2019-01-19T14:16:46.000Z</time>
      </trkpt>
      <trkpt lat="45.60064" lon="6.66411">
        <ele>1709.8000488281</ele>
        <time>2019-01-19T14:16:55.000Z</time>
      </trkpt>
      <trkpt lat="45.60063" lon="6.6641">
        <ele>1709</ele>
        <time>2019-01-19T14:17:06.000Z</time>
      </trkpt>
      <trkpt lat="45.60061" lon="6.66407">
        <ele>1708.4000244141</ele>
        <time>2019-01-19T14:17:07.000Z</time>
      </trkpt>
      <trkpt lat="45.60058" lon="6.66399">
        <ele>1707.5999755859</ele>
        <time>2019-01-19T14:17:09.000Z</time>
      </trkpt>
      <trkpt lat="45.60058" lon="6.66397">
        <ele>1707.1999511719</ele>
        <time>2019-01-19T14:17:10.000Z</time>
      </trkpt>
      <trkpt lat="45.60057" lon="6.66395">
        <ele>1706.8000488281</ele>
        <time>2019-01-19T14:17:11.000Z</time>
      </trkpt>
      <trkpt lat="45.60055" lon="6.66395">
        <ele>1705.4000244141</ele>
        <time>2019-01-19T14:17:12.000Z</time>
      </trkpt>
      <trkpt lat="45.60051" lon="6.66396">
        <ele>1703.1999511719</ele>
        <time>2019-01-19T14:17:13.000Z</time>
      </trkpt>
      <trkpt lat="45.60047" lon="6.66396">
        <ele>1700.8000488281</ele>
        <time>2019-01-19T14:17:14.000Z</time>
      </trkpt>
      <trkpt lat="45.60042" lon="6.66394">
        <ele>1698</ele>
        <time>2019-01-19T14:17:15.000Z</time>
      </trkpt>
      <trkpt lat="45.60037" lon="6.6639">
        <ele>1695.1999511719</ele>
        <time>2019-01-19T14:17:16.000Z</time>
      </trkpt>
      <trkpt lat="45.60034" lon="6.66383">
        <ele>1693.1999511719</ele>
        <time>2019-01-19T14:17:17.000Z</time>
      </trkpt>
      <trkpt lat="45.60032" lon="6.66377">
        <ele>1692</ele>
        <time>2019-01-19T14:17:18.000Z</time>
      </trkpt>
      <trkpt lat="45.6003" lon="6.66373">
        <ele>1690.5999755859</ele>
        <time>2019-01-19T14:17:19.000Z</time>
      </trkpt>
      <trkpt lat="45.60028" lon="6.66371">
        <ele>1689.4000244141</ele>
        <time>2019-01-19T14:17:20.000Z</time>
      </trkpt>
      <trkpt lat="45.60026" lon="6.66369">
        <ele>1688.1999511719</ele>
        <time>2019-01-19T14:17:21.000Z</time>
      </trkpt>
      <trkpt lat="45.60026" lon="6.66368">
        <ele>1688.4000244141</ele>
        <time>2019-01-19T14:17:22.000Z</time>
      </trkpt>
      <trkpt lat="45.60025" lon="6.66369">
        <ele>1687.5999755859</ele>
        <time>2019-01-19T14:17:23.000Z</time>
      </trkpt>
      <trkpt lat="45.60023" lon="6.66369">
        <ele>1686.5999755859</ele>
        <time>2019-01-19T14:17:24.000Z</time>
      </trkpt>
      <trkpt lat="45.60021" lon="6.66368">
        <ele>1685.1999511719</ele>
        <time>2019-01-19T14:17:25.000Z</time>
      </trkpt>
      <trkpt lat="45.60019" lon="6.66365">
        <ele>1684.1999511719</ele>
        <time>2019-01-19T14:17:26.000Z</time>
      </trkpt>
      <trkpt lat="45.60018" lon="6.66361">
        <ele>1683.4000244141</ele>
        <time>2019-01-19T14:17:27.000Z</time>
      </trkpt>
      <trkpt lat="45.60018" lon="6.66359">
        <ele>1683.1999511719</ele>
        <time>2019-01-19T14:17:28.000Z</time>
      </trkpt>
      <trkpt lat="45.60018" lon="6.66358">
        <ele>1683.1999511719</ele>
        <time>2019-01-19T14:17:29.000Z</time>
      </trkpt>
      <trkpt lat="45.60018" lon="6.66357">
        <ele>1683</ele>
        <time>2019-01-19T14:17:30.000Z</time>
      </trkpt>
      <trkpt lat="45.60018" lon="6.66357">
        <ele>1683</ele>
        <time>2019-01-19T14:17:33.000Z</time>
      </trkpt>
      <trkpt lat="45.60017" lon="6.66357">
        <ele>1682.8000488281</ele>
        <time>2019-01-19T14:17:37.000Z</time>
      </trkpt>
      <trkpt lat="45.60015" lon="6.66359">
        <ele>1682</ele>
        <time>2019-01-19T14:17:38.000Z</time>
      </trkpt>
      <trkpt lat="45.60015" lon="6.6636">
        <ele>1681.4000244141</ele>
        <time>2019-01-19T14:17:41.000Z</time>
      </trkpt>
      <trkpt lat="45.60014" lon="6.66362">
        <ele>1681</ele>
        <time>2019-01-19T14:17:42.000Z</time>
      </trkpt>
      <trkpt lat="45.60011" lon="6.66362">
        <ele>1679.5999755859</ele>
        <time>2019-01-19T14:17:43.000Z</time>
      </trkpt>
      <trkpt lat="45.60009" lon="6.6636">
        <ele>1678.4000244141</ele>
        <time>2019-01-19T14:17:44.000Z</time>
      </trkpt>
      <trkpt lat="45.60008" lon="6.66359">
        <ele>1677.8000488281</ele>
        <time>2019-01-19T14:17:45.000Z</time>
      </trkpt>
      <trkpt lat="45.60007" lon="6.66357">
        <ele>1677</ele>
        <time>2019-01-19T14:17:47.000Z</time>
      </trkpt>
      <trkpt lat="45.60005" lon="6.66356">
        <ele>1676.1999511719</ele>
        <time>2019-01-19T14:17:48.000Z</time>
      </trkpt>
      <trkpt lat="45.60004" lon="6.66359">
        <ele>1675</ele>
        <time>2019-01-19T14:17:51.000Z</time>
      </trkpt>
      <trkpt lat="45.60002" lon="6.6636">
        <ele>1674</ele>
        <time>2019-01-19T14:17:52.000Z</time>
      </trkpt>
      <trkpt lat="45.59999" lon="6.66361">
        <ele>1672</ele>
        <time>2019-01-19T14:17:54.000Z</time>
      </trkpt>
      <trkpt lat="45.59998" lon="6.66361">
        <ele>1671</ele>
        <time>2019-01-19T14:17:55.000Z</time>
      </trkpt>
      <trkpt lat="45.59997" lon="6.66361">
        <ele>1670.1999511719</ele>
        <time>2019-01-19T14:17:56.000Z</time>
      </trkpt>
      <trkpt lat="45.59996" lon="6.66361">
        <ele>1669.8000488281</ele>
        <time>2019-01-19T14:17:57.000Z</time>
      </trkpt>
      <trkpt lat="45.59996" lon="6.66361">
        <ele>1670</ele>
        <time>2019-01-19T14:17:59.000Z</time>
      </trkpt>
      <trkpt lat="45.59996" lon="6.66361">
        <ele>1670</ele>
        <time>2019-01-19T14:18:01.000Z</time>
      </trkpt>
      <trkpt lat="45.59996" lon="6.66363">
        <ele>1669.5999755859</ele>
        <time>2019-01-19T14:18:02.000Z</time>
      </trkpt>
      <trkpt lat="45.59996" lon="6.66368">
        <ele>1669.5999755859</ele>
        <time>2019-01-19T14:18:04.000Z</time>
      </trkpt>
      <trkpt lat="45.6" lon="6.66384">
        <ele>1671</ele>
        <time>2019-01-19T14:18:08.000Z</time>
      </trkpt>
      <trkpt lat="45.60001" lon="6.66394">
        <ele>1671.4000244141</ele>
        <time>2019-01-19T14:18:10.000Z</time>
      </trkpt>
      <trkpt lat="45.60001" lon="6.66406">
        <ele>1671.1999511719</ele>
        <time>2019-01-19T14:18:12.000Z</time>
      </trkpt>
      <trkpt lat="45.60002" lon="6.6642">
        <ele>1670.4000244141</ele>
        <time>2019-01-19T14:18:14.000Z</time>
      </trkpt>
      <trkpt lat="45.60003" lon="6.66428">
        <ele>1670.1999511719</ele>
        <time>2019-01-19T14:18:15.000Z</time>
      </trkpt>
      <trkpt lat="45.60003" lon="6.66446">
        <ele>1668.8000488281</ele>
        <time>2019-01-19T14:18:17.000Z</time>
      </trkpt>
      <trkpt lat="45.60002" lon="6.66462">
        <ele>1667</ele>
        <time>2019-01-19T14:18:19.000Z</time>
      </trkpt>
      <trkpt lat="45.60003" lon="6.6647">
        <ele>1666.8000488281</ele>
        <time>2019-01-19T14:18:20.000Z</time>
      </trkpt>
      <trkpt lat="45.60003" lon="6.66478">
        <ele>1666.8000488281</ele>
        <time>2019-01-19T14:18:21.000Z</time>
      </trkpt>
      <trkpt lat="45.60005" lon="6.66486">
        <ele>1667.1999511719</ele>
        <time>2019-01-19T14:18:22.000Z</time>
      </trkpt>
      <trkpt lat="45.60006" lon="6.66494">
        <ele>1665.1999511719</ele>
        <time>2019-01-19T14:18:23.000Z</time>
      </trkpt>
      <trkpt lat="45.60008" lon="6.66511">
        <ele>1660.5999755859</ele>
        <time>2019-01-19T14:18:25.000Z</time>
      </trkpt>
      <trkpt lat="45.6001" lon="6.66519">
        <ele>1659</ele>
        <time>2019-01-19T14:18:26.000Z</time>
      </trkpt>
      <trkpt lat="45.60014" lon="6.66534">
        <ele>1657</ele>
        <time>2019-01-19T14:18:28.000Z</time>
      </trkpt>
      <trkpt lat="45.60016" lon="6.6654">
        <ele>1657</ele>
        <time>2019-01-19T14:18:29.000Z</time>
      </trkpt>
      <trkpt lat="45.60019" lon="6.66546">
        <ele>1656.8000488281</ele>
        <time>2019-01-19T14:18:30.000Z</time>
      </trkpt>
      <trkpt lat="45.60024" lon="6.6656">
        <ele>1656.5999755859</ele>
        <time>2019-01-19T14:18:32.000Z</time>
      </trkpt>
      <trkpt lat="45.6003" lon="6.66573">
        <ele>1656.4000244141</ele>
        <time>2019-01-19T14:18:34.000Z</time>
      </trkpt>
      <trkpt lat="45.60036" lon="6.66588">
        <ele>1655</ele>
        <time>2019-01-19T14:18:36.000Z</time>
      </trkpt>
      <trkpt lat="45.6004" lon="6.66596">
        <ele>1654</ele>
        <time>2019-01-19T14:18:37.000Z</time>
      </trkpt>
      <trkpt lat="45.60045" lon="6.66612">
        <ele>1651.4000244141</ele>
        <time>2019-01-19T14:18:39.000Z</time>
      </trkpt>
      <trkpt lat="45.60047" lon="6.66621">
        <ele>1650.1999511719</ele>
        <time>2019-01-19T14:18:40.000Z</time>
      </trkpt>
      <trkpt lat="45.60051" lon="6.66626">
        <ele>1650.4000244141</ele>
        <time>2019-01-19T14:18:41.000Z</time>
      </trkpt>
      <trkpt lat="45.6006" lon="6.66638">
        <ele>1651.4000244141</ele>
        <time>2019-01-19T14:18:43.000Z</time>
      </trkpt>
      <trkpt lat="45.60069" lon="6.6665">
        <ele>1652.5999755859</ele>
        <time>2019-01-19T14:18:45.000Z</time>
      </trkpt>
      <trkpt lat="45.60073" lon="6.66656">
        <ele>1652.8000488281</ele>
        <time>2019-01-19T14:18:46.000Z</time>
      </trkpt>
      <trkpt lat="45.60077" lon="6.66663">
        <ele>1652.1999511719</ele>
        <time>2019-01-19T14:18:47.000Z</time>
      </trkpt>
      <trkpt lat="45.60089" lon="6.66686">
        <ele>1649.4000244141</ele>
        <time>2019-01-19T14:18:50.000Z</time>
      </trkpt>
      <trkpt lat="45.60097" lon="6.66703">
        <ele>1647.4000244141</ele>
        <time>2019-01-19T14:18:52.000Z</time>
      </trkpt>
      <trkpt lat="45.60101" lon="6.66712">
        <ele>1646.5999755859</ele>
        <time>2019-01-19T14:18:53.000Z</time>
      </trkpt>
      <trkpt lat="45.60105" lon="6.66721">
        <ele>1645.5999755859</ele>
        <time>2019-01-19T14:18:54.000Z</time>
      </trkpt>
      <trkpt lat="45.60112" lon="6.66737">
        <ele>1644</ele>
        <time>2019-01-19T14:18:56.000Z</time>
      </trkpt>
      <trkpt lat="45.60122" lon="6.66754">
        <ele>1642</ele>
        <time>2019-01-19T14:18:58.000Z</time>
      </trkpt>
      <trkpt lat="45.60131" lon="6.66768">
        <ele>1640.8000488281</ele>
        <time>2019-01-19T14:19:00.000Z</time>
      </trkpt>
      <trkpt lat="45.60136" lon="6.66775">
        <ele>1640.1999511719</ele>
        <time>2019-01-19T14:19:01.000Z</time>
      </trkpt>
      <trkpt lat="45.60141" lon="6.66782">
        <ele>1639.5999755859</ele>
        <time>2019-01-19T14:19:02.000Z</time>
      </trkpt>
      <trkpt lat="45.60145" lon="6.66789">
        <ele>1639</ele>
        <time>2019-01-19T14:19:03.000Z</time>
      </trkpt>
      <trkpt lat="45.60155" lon="6.66802">
        <ele>1638</ele>
        <time>2019-01-19T14:19:05.000Z</time>
      </trkpt>
      <trkpt lat="45.60161" lon="6.66809">
        <ele>1637.5999755859</ele>
        <time>2019-01-19T14:19:06.000Z</time>
      </trkpt>
      <trkpt lat="45.60166" lon="6.66815">
        <ele>1637.4000244141</ele>
        <time>2019-01-19T14:19:07.000Z</time>
      </trkpt>
      <trkpt lat="45.60171" lon="6.66823">
        <ele>1636.1999511719</ele>
        <time>2019-01-19T14:19:08.000Z</time>
      </trkpt>
      <trkpt lat="45.60179" lon="6.66835">
        <ele>1635</ele>
        <time>2019-01-19T14:19:10.000Z</time>
      </trkpt>
      <trkpt lat="45.60186" lon="6.66845">
        <ele>1634.1999511719</ele>
        <time>2019-01-19T14:19:12.000Z</time>
      </trkpt>
      <trkpt lat="45.60192" lon="6.66854">
        <ele>1633</ele>
        <time>2019-01-19T14:19:14.000Z</time>
      </trkpt>
      <trkpt lat="45.60194" lon="6.66858">
        <ele>1632.1999511719</ele>
        <time>2019-01-19T14:19:15.000Z</time>
      </trkpt>
      <trkpt lat="45.60205" lon="6.66877">
        <ele>1629.8000488281</ele>
        <time>2019-01-19T14:19:19.000Z</time>
      </trkpt>
      <trkpt lat="45.60211" lon="6.66886">
        <ele>1628.4000244141</ele>
        <time>2019-01-19T14:19:21.000Z</time>
      </trkpt>
      <trkpt lat="45.60217" lon="6.66896">
        <ele>1627</ele>
        <time>2019-01-19T14:19:23.000Z</time>
      </trkpt>
      <trkpt lat="45.60223" lon="6.66906">
        <ele>1625.5999755859</ele>
        <time>2019-01-19T14:19:25.000Z</time>
      </trkpt>
      <trkpt lat="45.60231" lon="6.66922">
        <ele>1623.8000488281</ele>
        <time>2019-01-19T14:19:28.000Z</time>
      </trkpt>
      <trkpt lat="45.60241" lon="6.66947">
        <ele>1620.1999511719</ele>
        <time>2019-01-19T14:19:32.000Z</time>
      </trkpt>
      <trkpt lat="45.60244" lon="6.66954">
        <ele>1619</ele>
        <time>2019-01-19T14:19:33.000Z</time>
      </trkpt>
      <trkpt lat="45.60246" lon="6.66962">
        <ele>1617.5999755859</ele>
        <time>2019-01-19T14:19:34.000Z</time>
      </trkpt>
      <trkpt lat="45.60251" lon="6.66976">
        <ele>1615.1999511719</ele>
        <time>2019-01-19T14:19:36.000Z</time>
      </trkpt>
      <trkpt lat="45.60254" lon="6.66982">
        <ele>1614.4000244141</ele>
        <time>2019-01-19T14:19:37.000Z</time>
      </trkpt>
      <trkpt lat="45.6026" lon="6.66994">
        <ele>1612.4000244141</ele>
        <time>2019-01-19T14:19:39.000Z</time>
      </trkpt>
      <trkpt lat="45.60267" lon="6.67004">
        <ele>1610.5999755859</ele>
        <time>2019-01-19T14:19:41.000Z</time>
      </trkpt>
      <trkpt lat="45.6027" lon="6.67008">
        <ele>1610.4000244141</ele>
        <time>2019-01-19T14:19:42.000Z</time>
      </trkpt>
      <trkpt lat="45.60277" lon="6.67014">
        <ele>1610</ele>
        <time>2019-01-19T14:19:44.000Z</time>
      </trkpt>
      <trkpt lat="45.60281" lon="6.67018">
        <ele>1609.8000488281</ele>
        <time>2019-01-19T14:19:45.000Z</time>
      </trkpt>
      <trkpt lat="45.60292" lon="6.67033">
        <ele>1607.5999755859</ele>
        <time>2019-01-19T14:19:49.000Z</time>
      </trkpt>
      <trkpt lat="45.60295" lon="6.67037">
        <ele>1606.8000488281</ele>
        <time>2019-01-19T14:19:50.000Z</time>
      </trkpt>
      <trkpt lat="45.60307" lon="6.67057">
        <ele>1603.1999511719</ele>
        <time>2019-01-19T14:19:54.000Z</time>
      </trkpt>
      <trkpt lat="45.60314" lon="6.67066">
        <ele>1602.1999511719</ele>
        <time>2019-01-19T14:19:56.000Z</time>
      </trkpt>
      <trkpt lat="45.60316" lon="6.67072">
        <ele>1601.4000244141</ele>
        <time>2019-01-19T14:19:57.000Z</time>
      </trkpt>
      <trkpt lat="45.60319" lon="6.67082">
        <ele>1599.8000488281</ele>
        <time>2019-01-19T14:19:59.000Z</time>
      </trkpt>
      <trkpt lat="45.6032" lon="6.67086">
        <ele>1599</ele>
        <time>2019-01-19T14:20:00.000Z</time>
      </trkpt>
      <trkpt lat="45.6032" lon="6.67098">
        <ele>1597</ele>
        <time>2019-01-19T14:20:02.000Z</time>
      </trkpt>
      <trkpt lat="45.60321" lon="6.67105">
        <ele>1595.8000488281</ele>
        <time>2019-01-19T14:20:03.000Z</time>
      </trkpt>
      <trkpt lat="45.60322" lon="6.67129">
        <ele>1592.4000244141</ele>
        <time>2019-01-19T14:20:06.000Z</time>
      </trkpt>
      <trkpt lat="45.60323" lon="6.67143">
        <ele>1590.1999511719</ele>
        <time>2019-01-19T14:20:08.000Z</time>
      </trkpt>
      <trkpt lat="45.60323" lon="6.6715">
        <ele>1589</ele>
        <time>2019-01-19T14:20:09.000Z</time>
      </trkpt>
      <trkpt lat="45.60322" lon="6.67156">
        <ele>1587.5999755859</ele>
        <time>2019-01-19T14:20:10.000Z</time>
      </trkpt>
      <trkpt lat="45.60316" lon="6.6717">
        <ele>1582.8000488281</ele>
        <time>2019-01-19T14:20:12.000Z</time>
      </trkpt>
      <trkpt lat="45.60304" lon="6.67174">
        <ele>1580.5999755859</ele>
        <time>2019-01-19T14:20:14.000Z</time>
      </trkpt>
      <trkpt lat="45.60291" lon="6.67171">
        <ele>1577.8000488281</ele>
        <time>2019-01-19T14:20:16.000Z</time>
      </trkpt>
      <trkpt lat="45.60286" lon="6.67166">
        <ele>1576.8000488281</ele>
        <time>2019-01-19T14:20:17.000Z</time>
      </trkpt>
      <trkpt lat="45.60282" lon="6.67158">
        <ele>1576.5999755859</ele>
        <time>2019-01-19T14:20:18.000Z</time>
      </trkpt>
      <trkpt lat="45.60279" lon="6.67149">
        <ele>1576.5999755859</ele>
        <time>2019-01-19T14:20:19.000Z</time>
      </trkpt>
      <trkpt lat="45.60275" lon="6.67142">
        <ele>1576.1999511719</ele>
        <time>2019-01-19T14:20:20.000Z</time>
      </trkpt>
      <trkpt lat="45.6027" lon="6.67136">
        <ele>1575.4000244141</ele>
        <time>2019-01-19T14:20:21.000Z</time>
      </trkpt>
      <trkpt lat="45.60264" lon="6.67132">
        <ele>1574.1999511719</ele>
        <time>2019-01-19T14:20:22.000Z</time>
      </trkpt>
      <trkpt lat="45.60256" lon="6.67129">
        <ele>1572.5999755859</ele>
        <time>2019-01-19T14:20:23.000Z</time>
      </trkpt>
      <trkpt lat="45.60248" lon="6.67127">
        <ele>1570.5999755859</ele>
        <time>2019-01-19T14:20:24.000Z</time>
      </trkpt>
      <trkpt lat="45.60239" lon="6.67126">
        <ele>1568.4000244141</ele>
        <time>2019-01-19T14:20:25.000Z</time>
      </trkpt>
      <trkpt lat="45.6023" lon="6.67122">
        <ele>1566.5999755859</ele>
        <time>2019-01-19T14:20:26.000Z</time>
      </trkpt>
      <trkpt lat="45.60223" lon="6.67117">
        <ele>1565.1999511719</ele>
        <time>2019-01-19T14:20:27.000Z</time>
      </trkpt>
      <trkpt lat="45.60217" lon="6.67111">
        <ele>1564</ele>
        <time>2019-01-19T14:20:28.000Z</time>
      </trkpt>
      <trkpt lat="45.6021" lon="6.67104">
        <ele>1562.1999511719</ele>
        <time>2019-01-19T14:20:29.000Z</time>
      </trkpt>
      <trkpt lat="45.60204" lon="6.67097">
        <ele>1560.8000488281</ele>
        <time>2019-01-19T14:20:30.000Z</time>
      </trkpt>
      <trkpt lat="45.60198" lon="6.67091">
        <ele>1559.1999511719</ele>
        <time>2019-01-19T14:20:31.000Z</time>
      </trkpt>
      <trkpt lat="45.60191" lon="6.67085">
        <ele>1557.5999755859</ele>
        <time>2019-01-19T14:20:32.000Z</time>
      </trkpt>
      <trkpt lat="45.60184" lon="6.67079">
        <ele>1555.5999755859</ele>
        <time>2019-01-19T14:20:33.000Z</time>
      </trkpt>
      <trkpt lat="45.60177" lon="6.67073">
        <ele>1553.8000488281</ele>
        <time>2019-01-19T14:20:34.000Z</time>
      </trkpt>
      <trkpt lat="45.6017" lon="6.67069">
        <ele>1552</ele>
        <time>2019-01-19T14:20:35.000Z</time>
      </trkpt>
      <trkpt lat="45.60163" lon="6.67064">
        <ele>1550.5999755859</ele>
        <time>2019-01-19T14:20:36.000Z</time>
      </trkpt>
      <trkpt lat="45.60155" lon="6.67059">
        <ele>1549</ele>
        <time>2019-01-19T14:20:37.000Z</time>
      </trkpt>
      <trkpt lat="45.60149" lon="6.67055">
        <ele>1547.5999755859</ele>
        <time>2019-01-19T14:20:38.000Z</time>
      </trkpt>
      <trkpt lat="45.60143" lon="6.67051">
        <ele>1546.5999755859</ele>
        <time>2019-01-19T14:20:39.000Z</time>
      </trkpt>
      <trkpt lat="45.60137" lon="6.67046">
        <ele>1545.5999755859</ele>
        <time>2019-01-19T14:20:40.000Z</time>
      </trkpt>
      <trkpt lat="45.60131" lon="6.67042">
        <ele>1544.8000488281</ele>
        <time>2019-01-19T14:20:41.000Z</time>
      </trkpt>
      <trkpt lat="45.60127" lon="6.67037">
        <ele>1544.4000244141</ele>
        <time>2019-01-19T14:20:42.000Z</time>
      </trkpt>
      <trkpt lat="45.60123" lon="6.67033">
        <ele>1544.1999511719</ele>
        <time>2019-01-19T14:20:43.000Z</time>
      </trkpt>
      <trkpt lat="45.60119" lon="6.6703">
        <ele>1543.8000488281</ele>
        <time>2019-01-19T14:20:44.000Z</time>
      </trkpt>
      <trkpt lat="45.60116" lon="6.67031">
        <ele>1542.8000488281</ele>
        <time>2019-01-19T14:20:45.000Z</time>
      </trkpt>
      <trkpt lat="45.60114" lon="6.67035">
        <ele>1541.5999755859</ele>
        <time>2019-01-19T14:20:46.000Z</time>
      </trkpt>
      <trkpt lat="45.60119" lon="6.67043">
        <ele>1541</ele>
        <time>2019-01-19T14:20:49.000Z</time>
      </trkpt>
      <trkpt lat="45.6012" lon="6.67047">
        <ele>1540.5999755859</ele>
        <time>2019-01-19T14:20:50.000Z</time>
      </trkpt>
      <trkpt lat="45.60121" lon="6.67049">
        <ele>1540.1999511719</ele>
        <time>2019-01-19T14:20:51.000Z</time>
      </trkpt>
      <trkpt lat="45.6012" lon="6.67051">
        <ele>1539.8000488281</ele>
        <time>2019-01-19T14:20:53.000Z</time>
      </trkpt>
      <trkpt lat="45.60118" lon="6.6705">
        <ele>1539.1999511719</ele>
        <time>2019-01-19T14:20:54.000Z</time>
      </trkpt>
      <trkpt lat="45.60117" lon="6.67053">
        <ele>1538.4000244141</ele>
        <time>2019-01-19T14:20:55.000Z</time>
      </trkpt>
      <trkpt lat="45.60116" lon="6.6706">
        <ele>1536.5999755859</ele>
        <time>2019-01-19T14:20:57.000Z</time>
      </trkpt>
      <trkpt lat="45.60116" lon="6.67064">
        <ele>1535.5999755859</ele>
        <time>2019-01-19T14:20:58.000Z</time>
      </trkpt>
      <trkpt lat="45.60115" lon="6.67076">
        <ele>1534.5999755859</ele>
        <time>2019-01-19T14:21:00.000Z</time>
      </trkpt>
      <trkpt lat="45.60115" lon="6.67082">
        <ele>1534.8000488281</ele>
        <time>2019-01-19T14:21:01.000Z</time>
      </trkpt>
      <trkpt lat="45.60113" lon="6.67088">
        <ele>1534.4000244141</ele>
        <time>2019-01-19T14:21:02.000Z</time>
      </trkpt>
      <trkpt lat="45.60109" lon="6.67093">
        <ele>1533.5999755859</ele>
        <time>2019-01-19T14:21:03.000Z</time>
      </trkpt>
      <trkpt lat="45.601" lon="6.67095">
        <ele>1531.1999511719</ele>
        <time>2019-01-19T14:21:05.000Z</time>
      </trkpt>
      <trkpt lat="45.60094" lon="6.67091">
        <ele>1529.4000244141</ele>
        <time>2019-01-19T14:21:06.000Z</time>
      </trkpt>
      <trkpt lat="45.6009" lon="6.67087">
        <ele>1527.8000488281</ele>
        <time>2019-01-19T14:21:07.000Z</time>
      </trkpt>
      <trkpt lat="45.60087" lon="6.67083">
        <ele>1526.5999755859</ele>
        <time>2019-01-19T14:21:08.000Z</time>
      </trkpt>
      <trkpt lat="45.60084" lon="6.6708">
        <ele>1525.8000488281</ele>
        <time>2019-01-19T14:21:09.000Z</time>
      </trkpt>
      <trkpt lat="45.60081" lon="6.6708">
        <ele>1525</ele>
        <time>2019-01-19T14:21:10.000Z</time>
      </trkpt>
      <trkpt lat="45.60079" lon="6.67082">
        <ele>1524.4000244141</ele>
        <time>2019-01-19T14:21:11.000Z</time>
      </trkpt>
      <trkpt lat="45.60076" lon="6.67088">
        <ele>1524</ele>
        <time>2019-01-19T14:21:12.000Z</time>
      </trkpt>
      <trkpt lat="45.60074" lon="6.67095">
        <ele>1523.5999755859</ele>
        <time>2019-01-19T14:21:13.000Z</time>
      </trkpt>
      <trkpt lat="45.60073" lon="6.67102">
        <ele>1523.5999755859</ele>
        <time>2019-01-19T14:21:14.000Z</time>
      </trkpt>
      <trkpt lat="45.60073" lon="6.67109">
        <ele>1523.4000244141</ele>
        <time>2019-01-19T14:21:15.000Z</time>
      </trkpt>
      <trkpt lat="45.60072" lon="6.67115">
        <ele>1523.4000244141</ele>
        <time>2019-01-19T14:21:16.000Z</time>
      </trkpt>
      <trkpt lat="45.60071" lon="6.67119">
        <ele>1523.1999511719</ele>
        <time>2019-01-19T14:21:17.000Z</time>
      </trkpt>
      <trkpt lat="45.60071" lon="6.67123">
        <ele>1523.4000244141</ele>
        <time>2019-01-19T14:21:18.000Z</time>
      </trkpt>
      <trkpt lat="45.60071" lon="6.67126">
        <ele>1523.4000244141</ele>
        <time>2019-01-19T14:21:20.000Z</time>
      </trkpt>
      <trkpt lat="45.60071" lon="6.67126">
        <ele>1523.4000244141</ele>
        <time>2019-01-19T14:21:21.000Z</time>
      </trkpt>
      <trkpt lat="45.60071" lon="6.67126">
        <ele>1523.4000244141</ele>
        <time>2019-01-19T14:21:25.000Z</time>
      </trkpt>
      <trkpt lat="45.60071" lon="6.67126">
        <ele>1523.4000244141</ele>
        <time>2019-01-19T14:21:29.000Z</time>
      </trkpt>
      <trkpt lat="45.60071" lon="6.67126">
        <ele>1523.4000244141</ele>
        <time>2019-01-19T14:21:46.000Z</time>
      </trkpt>
      <trkpt lat="45.60071" lon="6.67126">
        <ele>1523.4000244141</ele>
        <time>2019-01-19T14:21:55.000Z</time>
      </trkpt>
      <trkpt lat="45.60071" lon="6.67128">
        <ele>1523.4000244141</ele>
        <time>2019-01-19T14:22:02.000Z</time>
      </trkpt>
      <trkpt lat="45.60069" lon="6.67129">
        <ele>1522.8000488281</ele>
        <time>2019-01-19T14:22:07.000Z</time>
      </trkpt>
      <trkpt lat="45.60067" lon="6.67132">
        <ele>1522.1999511719</ele>
        <time>2019-01-19T14:22:08.000Z</time>
      </trkpt>
      <trkpt lat="45.60058" lon="6.6714">
        <ele>1519.5999755859</ele>
        <time>2019-01-19T14:22:11.000Z</time>
      </trkpt>
      <trkpt lat="45.60049" lon="6.67138">
        <ele>1517</ele>
        <time>2019-01-19T14:22:13.000Z</time>
      </trkpt>
      <trkpt lat="45.60046" lon="6.67134">
        <ele>1515.8000488281</ele>
        <time>2019-01-19T14:22:14.000Z</time>
      </trkpt>
      <trkpt lat="45.60044" lon="6.67128">
        <ele>1515.1999511719</ele>
        <time>2019-01-19T14:22:15.000Z</time>
      </trkpt>
      <trkpt lat="45.60042" lon="6.67123">
        <ele>1514.4000244141</ele>
        <time>2019-01-19T14:22:16.000Z</time>
      </trkpt>
      <trkpt lat="45.60039" lon="6.67113">
        <ele>1513.1999511719</ele>
        <time>2019-01-19T14:22:18.000Z</time>
      </trkpt>
      <trkpt lat="45.60036" lon="6.67097">
        <ele>1512</ele>
        <time>2019-01-19T14:22:21.000Z</time>
      </trkpt>
      <trkpt lat="45.60034" lon="6.67085">
        <ele>1510.8000488281</ele>
        <time>2019-01-19T14:22:23.000Z</time>
      </trkpt>
      <trkpt lat="45.60031" lon="6.6708">
        <ele>1510.1999511719</ele>
        <time>2019-01-19T14:22:24.000Z</time>
      </trkpt>
      <trkpt lat="45.60029" lon="6.67074">
        <ele>1509.1999511719</ele>
        <time>2019-01-19T14:22:25.000Z</time>
      </trkpt>
      <trkpt lat="45.60026" lon="6.67069">
        <ele>1508.5999755859</ele>
        <time>2019-01-19T14:22:26.000Z</time>
      </trkpt>
      <trkpt lat="45.60024" lon="6.67064">
        <ele>1508.5999755859</ele>
        <time>2019-01-19T14:22:27.000Z</time>
      </trkpt>
      <trkpt lat="45.60021" lon="6.6706">
        <ele>1508.4000244141</ele>
        <time>2019-01-19T14:22:28.000Z</time>
      </trkpt>
      <trkpt lat="45.60014" lon="6.67054">
        <ele>1507.8000488281</ele>
        <time>2019-01-19T14:22:30.000Z</time>
      </trkpt>
      <trkpt lat="45.60006" lon="6.67051">
        <ele>1506</ele>
        <time>2019-01-19T14:22:32.000Z</time>
      </trkpt>
      <trkpt lat="45.59993" lon="6.67044">
        <ele>1503.1999511719</ele>
        <time>2019-01-19T14:22:35.000Z</time>
      </trkpt>
      <trkpt lat="45.59982" lon="6.67041">
        <ele>1500.5999755859</ele>
        <time>2019-01-19T14:22:37.000Z</time>
      </trkpt>
      <trkpt lat="45.5997" lon="6.67034">
        <ele>1498.1999511719</ele>
        <time>2019-01-19T14:22:39.000Z</time>
      </trkpt>
      <trkpt lat="45.59963" lon="6.6703">
        <ele>1497.5999755859</ele>
        <time>2019-01-19T14:22:40.000Z</time>
      </trkpt>
      <trkpt lat="45.59958" lon="6.67027">
        <ele>1497</ele>
        <time>2019-01-19T14:22:41.000Z</time>
      </trkpt>
      <trkpt lat="45.59951" lon="6.67025">
        <ele>1496</ele>
        <time>2019-01-19T14:22:42.000Z</time>
      </trkpt>
      <trkpt lat="45.59938" lon="6.67019">
        <ele>1494.4000244141</ele>
        <time>2019-01-19T14:22:44.000Z</time>
      </trkpt>
      <trkpt lat="45.59931" lon="6.67016">
        <ele>1493.5999755859</ele>
        <time>2019-01-19T14:22:45.000Z</time>
      </trkpt>
      <trkpt lat="45.59924" lon="6.67014">
        <ele>1492.8000488281</ele>
        <time>2019-01-19T14:22:46.000Z</time>
      </trkpt>
      <trkpt lat="45.5991" lon="6.67007">
        <ele>1491.1999511719</ele>
        <time>2019-01-19T14:22:48.000Z</time>
      </trkpt>
      <trkpt lat="45.59897" lon="6.66995">
        <ele>1490.8000488281</ele>
        <time>2019-01-19T14:22:50.000Z</time>
      </trkpt>
      <trkpt lat="45.59885" lon="6.66983">
        <ele>1490.8000488281</ele>
        <time>2019-01-19T14:22:52.000Z</time>
      </trkpt>
      <trkpt lat="45.59874" lon="6.6697">
        <ele>1490.8000488281</ele>
        <time>2019-01-19T14:22:54.000Z</time>
      </trkpt>
      <trkpt lat="45.59868" lon="6.66966">
        <ele>1490.1999511719</ele>
        <time>2019-01-19T14:22:55.000Z</time>
      </trkpt>
      <trkpt lat="45.59857" lon="6.66958">
        <ele>1489.4000244141</ele>
        <time>2019-01-19T14:22:57.000Z</time>
      </trkpt>
      <trkpt lat="45.59851" lon="6.66956">
        <ele>1488.4000244141</ele>
        <time>2019-01-19T14:22:58.000Z</time>
      </trkpt>
      <trkpt lat="45.59844" lon="6.66954">
        <ele>1487.1999511719</ele>
        <time>2019-01-19T14:22:59.000Z</time>
      </trkpt>
      <trkpt lat="45.59832" lon="6.66954">
        <ele>1484.4000244141</ele>
        <time>2019-01-19T14:23:01.000Z</time>
      </trkpt>
      <trkpt lat="45.59822" lon="6.66954">
        <ele>1482.1999511719</ele>
        <time>2019-01-19T14:23:03.000Z</time>
      </trkpt>
      <trkpt lat="45.59812" lon="6.66952">
        <ele>1480.1999511719</ele>
        <time>2019-01-19T14:23:05.000Z</time>
      </trkpt>
      <trkpt lat="45.59806" lon="6.66952">
        <ele>1479</ele>
        <time>2019-01-19T14:23:07.000Z</time>
      </trkpt>
      <trkpt lat="45.59806" lon="6.66952">
        <ele>1478.8000488281</ele>
        <time>2019-01-19T14:23:08.000Z</time>
      </trkpt>
      <trkpt lat="45.59806" lon="6.66952">
        <ele>1479</ele>
        <time>2019-01-19T14:23:12.000Z</time>
      </trkpt>
      <trkpt lat="45.59805" lon="6.66952">
        <ele>1478.5999755859</ele>
        <time>2019-01-19T14:23:26.000Z</time>
      </trkpt>
      <trkpt lat="45.59804" lon="6.66952">
        <ele>1478.4000244141</ele>
        <time>2019-01-19T14:23:27.000Z</time>
      </trkpt>
      <trkpt lat="45.59795" lon="6.66953">
        <ele>1476.8000488281</ele>
        <time>2019-01-19T14:23:31.000Z</time>
      </trkpt>
      <trkpt lat="45.59784" lon="6.66954">
        <ele>1474.4000244141</ele>
        <time>2019-01-19T14:23:34.000Z</time>
      </trkpt>
      <trkpt lat="45.59775" lon="6.66955">
        <ele>1472.8000488281</ele>
        <time>2019-01-19T14:23:36.000Z</time>
      </trkpt>
      <trkpt lat="45.59758" lon="6.66955">
        <ele>1470.8000488281</ele>
        <time>2019-01-19T14:23:39.000Z</time>
      </trkpt>
      <trkpt lat="45.59746" lon="6.66955">
        <ele>1469.8000488281</ele>
        <time>2019-01-19T14:23:41.000Z</time>
      </trkpt>
      <trkpt lat="45.5974" lon="6.66953">
        <ele>1469.4000244141</ele>
        <time>2019-01-19T14:23:42.000Z</time>
      </trkpt>
      <trkpt lat="45.59729" lon="6.66948">
        <ele>1469.1999511719</ele>
        <time>2019-01-19T14:23:44.000Z</time>
      </trkpt>
      <trkpt lat="45.59724" lon="6.66944">
        <ele>1469.1999511719</ele>
        <time>2019-01-19T14:23:45.000Z</time>
      </trkpt>
      <trkpt lat="45.59719" lon="6.66939">
        <ele>1469.1999511719</ele>
        <time>2019-01-19T14:23:46.000Z</time>
      </trkpt>
      <trkpt lat="45.5971" lon="6.66917">
        <ele>1470</ele>
        <time>2019-01-19T14:23:49.000Z</time>
      </trkpt>
      <trkpt lat="45.59708" lon="6.66904">
        <ele>1471.1999511719</ele>
        <time>2019-01-19T14:23:50.000Z</time>
      </trkpt>
      <trkpt lat="45.59706" lon="6.66893">
        <ele>1471.1999511719</ele>
        <time>2019-01-19T14:23:51.000Z</time>
      </trkpt>
      <trkpt lat="45.59702" lon="6.66871">
        <ele>1471.1999511719</ele>
        <time>2019-01-19T14:23:53.000Z</time>
      </trkpt>
      <trkpt lat="45.597" lon="6.6685">
        <ele>1471.1999511719</ele>
        <time>2019-01-19T14:23:55.000Z</time>
      </trkpt>
      <trkpt lat="45.59698" lon="6.66841">
        <ele>1471.1999511719</ele>
        <time>2019-01-19T14:23:56.000Z</time>
      </trkpt>
      <trkpt lat="45.59696" lon="6.66832">
        <ele>1470.8000488281</ele>
        <time>2019-01-19T14:23:57.000Z</time>
      </trkpt>
      <trkpt lat="45.59688" lon="6.66815">
        <ele>1470.5999755859</ele>
        <time>2019-01-19T14:23:59.000Z</time>
      </trkpt>
      <trkpt lat="45.59684" lon="6.66807">
        <ele>1471</ele>
        <time>2019-01-19T14:24:00.000Z</time>
      </trkpt>
      <trkpt lat="45.59678" lon="6.66801">
        <ele>1471</ele>
        <time>2019-01-19T14:24:01.000Z</time>
      </trkpt>
      <trkpt lat="45.59672" lon="6.66794">
        <ele>1471</ele>
        <time>2019-01-19T14:24:02.000Z</time>
      </trkpt>
      <trkpt lat="45.59665" lon="6.66788">
        <ele>1471</ele>
        <time>2019-01-19T14:24:03.000Z</time>
      </trkpt>
      <trkpt lat="45.59652" lon="6.66776">
        <ele>1470.4000244141</ele>
        <time>2019-01-19T14:24:05.000Z</time>
      </trkpt>
      <trkpt lat="45.59646" lon="6.66771">
        <ele>1469.8000488281</ele>
        <time>2019-01-19T14:24:06.000Z</time>
      </trkpt>
      <trkpt lat="45.59639" lon="6.6677">
        <ele>1468.4000244141</ele>
        <time>2019-01-19T14:24:07.000Z</time>
      </trkpt>
      <trkpt lat="45.59627" lon="6.6677">
        <ele>1467.1999511719</ele>
        <time>2019-01-19T14:24:09.000Z</time>
      </trkpt>
      <trkpt lat="45.59622" lon="6.6677">
        <ele>1466.8000488281</ele>
        <time>2019-01-19T14:24:10.000Z</time>
      </trkpt>
      <trkpt lat="45.59616" lon="6.66771">
        <ele>1466.1999511719</ele>
        <time>2019-01-19T14:24:11.000Z</time>
      </trkpt>
      <trkpt lat="45.59604" lon="6.66773">
        <ele>1465.5999755859</ele>
        <time>2019-01-19T14:24:13.000Z</time>
      </trkpt>
      <trkpt lat="45.59599" lon="6.66773">
        <ele>1465.4000244141</ele>
        <time>2019-01-19T14:24:14.000Z</time>
      </trkpt>
      <trkpt lat="45.59587" lon="6.66777">
        <ele>1463.8000488281</ele>
        <time>2019-01-19T14:24:16.000Z</time>
      </trkpt>
      <trkpt lat="45.59578" lon="6.66786">
        <ele>1459.8000488281</ele>
        <time>2019-01-19T14:24:18.000Z</time>
      </trkpt>
      <trkpt lat="45.59575" lon="6.6679">
        <ele>1458.4000244141</ele>
        <time>2019-01-19T14:24:19.000Z</time>
      </trkpt>
      <trkpt lat="45.59572" lon="6.66792">
        <ele>1457.4000244141</ele>
        <time>2019-01-19T14:24:20.000Z</time>
      </trkpt>
      <trkpt lat="45.59566" lon="6.66798">
        <ele>1455</ele>
        <time>2019-01-19T14:24:23.000Z</time>
      </trkpt>
      <trkpt lat="45.59568" lon="6.66804">
        <ele>1453.5999755859</ele>
        <time>2019-01-19T14:24:25.000Z</time>
      </trkpt>
      <trkpt lat="45.5958" lon="6.66816">
        <ele>1451.1999511719</ele>
        <time>2019-01-19T14:24:26.000Z</time>
      </trkpt>
      <trkpt lat="45.596" lon="6.66848">
        <ele>1451.5999755859</ele>
        <time>2019-01-19T14:24:29.000Z</time>
      </trkpt>
      <trkpt lat="45.59604" lon="6.66859">
        <ele>1451.8000488281</ele>
        <time>2019-01-19T14:24:30.000Z</time>
      </trkpt>
      <trkpt lat="45.5961" lon="6.66879">
        <ele>1451.4000244141</ele>
        <time>2019-01-19T14:24:32.000Z</time>
      </trkpt>
      <trkpt lat="45.59614" lon="6.66914">
        <ele>1446.4000244141</ele>
        <time>2019-01-19T14:24:35.000Z</time>
      </trkpt>
      <trkpt lat="45.59616" lon="6.66937">
        <ele>1444.1999511719</ele>
        <time>2019-01-19T14:24:37.000Z</time>
      </trkpt>
      <trkpt lat="45.59617" lon="6.66948">
        <ele>1443.1999511719</ele>
        <time>2019-01-19T14:24:38.000Z</time>
      </trkpt>
      <trkpt lat="45.59618" lon="6.66969">
        <ele>1441</ele>
        <time>2019-01-19T14:24:40.000Z</time>
      </trkpt>
      <trkpt lat="45.5962" lon="6.6698">
        <ele>1441.4000244141</ele>
        <time>2019-01-19T14:24:41.000Z</time>
      </trkpt>
      <trkpt lat="45.59625" lon="6.66991">
        <ele>1443.5999755859</ele>
        <time>2019-01-19T14:24:42.000Z</time>
      </trkpt>
      <trkpt lat="45.5963" lon="6.6701">
        <ele>1448.5999755859</ele>
        <time>2019-01-19T14:24:44.000Z</time>
      </trkpt>
      <trkpt lat="45.5963" lon="6.67017">
        <ele>1450.4000244141</ele>
        <time>2019-01-19T14:24:45.000Z</time>
      </trkpt>
      <trkpt lat="45.5963" lon="6.67026">
        <ele>1452.1999511719</ele>
        <time>2019-01-19T14:24:46.000Z</time>
      </trkpt>
      <trkpt lat="45.5963" lon="6.67045">
        <ele>1456.4000244141</ele>
        <time>2019-01-19T14:24:49.000Z</time>
      </trkpt>
      <trkpt lat="45.5963" lon="6.67048">
        <ele>1457.4000244141</ele>
        <time>2019-01-19T14:24:50.000Z</time>
      </trkpt>
      <trkpt lat="45.5963" lon="6.67045">
        <ele>1456.5999755859</ele>
        <time>2019-01-19T14:24:53.000Z</time>
      </trkpt>
      <trkpt lat="45.59629" lon="6.67042">
        <ele>1455.8000488281</ele>
        <time>2019-01-19T14:24:55.000Z</time>
      </trkpt>
      <trkpt lat="45.59603" lon="6.67036">
        <ele>1450.4000244141</ele>
        <time>2019-01-19T14:24:57.000Z</time>
      </trkpt>
      <trkpt lat="45.59577" lon="6.67031">
        <ele>1449</ele>
        <time>2019-01-19T14:24:59.000Z</time>
      </trkpt>
      <trkpt lat="45.59566" lon="6.67028">
        <ele>1448.4000244141</ele>
        <time>2019-01-19T14:25:00.000Z</time>
      </trkpt>
      <trkpt lat="45.59557" lon="6.67026">
        <ele>1447.8000488281</ele>
        <time>2019-01-19T14:25:01.000Z</time>
      </trkpt>
      <trkpt lat="45.59524" lon="6.67016">
        <ele>1439.8000488281</ele>
        <time>2019-01-19T14:25:03.000Z</time>
      </trkpt>
      <trkpt lat="45.59503" lon="6.67012">
        <ele>1434.5999755859</ele>
        <time>2019-01-19T14:25:06.000Z</time>
      </trkpt>
      <trkpt lat="45.59491" lon="6.67014">
        <ele>1433.4000244141</ele>
        <time>2019-01-19T14:25:08.000Z</time>
      </trkpt>
      <trkpt lat="45.59485" lon="6.67016">
        <ele>1432.8000488281</ele>
        <time>2019-01-19T14:25:09.000Z</time>
      </trkpt>
      <trkpt lat="45.59469" lon="6.67026">
        <ele>1432.8000488281</ele>
        <time>2019-01-19T14:25:12.000Z</time>
      </trkpt>
      <trkpt lat="45.59464" lon="6.6703">
        <ele>1433.1999511719</ele>
        <time>2019-01-19T14:25:13.000Z</time>
      </trkpt>
      <trkpt lat="45.59454" lon="6.67038">
        <ele>1434.1999511719</ele>
        <time>2019-01-19T14:25:15.000Z</time>
      </trkpt>
      <trkpt lat="45.59449" lon="6.67041">
        <ele>1434.1999511719</ele>
        <time>2019-01-19T14:25:16.000Z</time>
      </trkpt>
      <trkpt lat="45.59438" lon="6.67044">
        <ele>1433</ele>
        <time>2019-01-19T14:25:18.000Z</time>
      </trkpt>
      <trkpt lat="45.59405" lon="6.67053">
        <ele>1428.8000488281</ele>
        <time>2019-01-19T14:25:24.000Z</time>
      </trkpt>
      <trkpt lat="45.59394" lon="6.67059">
        <ele>1428.4000244141</ele>
        <time>2019-01-19T14:25:26.000Z</time>
      </trkpt>
      <trkpt lat="45.59379" lon="6.67067">
        <ele>1428.4000244141</ele>
        <time>2019-01-19T14:25:29.000Z</time>
      </trkpt>
      <trkpt lat="45.59369" lon="6.67072">
        <ele>1429.1999511719</ele>
        <time>2019-01-19T14:25:31.000Z</time>
      </trkpt>
      <trkpt lat="45.59364" lon="6.67073">
        <ele>1429.1999511719</ele>
        <time>2019-01-19T14:25:32.000Z</time>
      </trkpt>
      <trkpt lat="45.59348" lon="6.67075">
        <ele>1428.1999511719</ele>
        <time>2019-01-19T14:25:36.000Z</time>
      </trkpt>
      <trkpt lat="45.59344" lon="6.67076">
        <ele>1428.1999511719</ele>
        <time>2019-01-19T14:25:37.000Z</time>
      </trkpt>
      <trkpt lat="45.59328" lon="6.67077">
        <ele>1426.8000488281</ele>
        <time>2019-01-19T14:25:42.000Z</time>
      </trkpt>
      <trkpt lat="45.59308" lon="6.67072">
        <ele>1422.8000488281</ele>
        <time>2019-01-19T14:25:50.000Z</time>
      </trkpt>
      <trkpt lat="45.59286" lon="6.67071">
        <ele>1420.8000488281</ele>
        <time>2019-01-19T14:25:58.000Z</time>
      </trkpt>
      <trkpt lat="45.59262" lon="6.67073">
        <ele>1420.4000244141</ele>
        <time>2019-01-19T14:26:07.000Z</time>
      </trkpt>
      <trkpt lat="45.59244" lon="6.67074">
        <ele>1420.4000244141</ele>
        <time>2019-01-19T14:26:15.000Z</time>
      </trkpt>
      <trkpt lat="45.5922" lon="6.67076">
        <ele>1419.4000244141</ele>
        <time>2019-01-19T14:26:24.000Z</time>
      </trkpt>
      <trkpt lat="45.59199" lon="6.67084">
        <ele>1421</ele>
        <time>2019-01-19T14:26:33.000Z</time>
      </trkpt>
      <trkpt lat="45.59194" lon="6.67086">
        <ele>1421.1999511719</ele>
        <time>2019-01-19T14:26:34.000Z</time>
      </trkpt>
      <trkpt lat="45.59182" lon="6.67088">
        <ele>1421.1999511719</ele>
        <time>2019-01-19T14:26:40.000Z</time>
      </trkpt>
      <trkpt lat="45.5918" lon="6.67089">
        <ele>1421.4000244141</ele>
        <time>2019-01-19T14:26:46.000Z</time>
      </trkpt>
      <trkpt lat="45.5918" lon="6.67089">
        <ele>1421.4000244141</ele>
        <time>2019-01-19T14:26:56.000Z</time>
      </trkpt>
      <trkpt lat="45.5918" lon="6.67089">
        <ele>1421.4000244141</ele>
        <time>2019-01-19T14:26:58.000Z</time>
      </trkpt>
      <trkpt lat="45.5918" lon="6.67089">
        <ele>1421.4000244141</ele>
        <time>2019-01-19T14:27:05.000Z</time>
      </trkpt>
      <trkpt lat="45.5918" lon="6.67089">
        <ele>1421.4000244141</ele>
        <time>2019-01-19T14:27:07.000Z</time>
      </trkpt>
      <trkpt lat="45.5918" lon="6.67089">
        <ele>1421.4000244141</ele>
        <time>2019-01-19T14:27:12.000Z</time>
      </trkpt>
      <trkpt lat="45.5918" lon="6.67089">
        <ele>1421.4000244141</ele>
        <time>2019-01-19T14:27:13.000Z</time>
      </trkpt>
      <trkpt lat="45.5918" lon="6.67089">
        <ele>1421.4000244141</ele>
        <time>2019-01-19T14:27:22.000Z</time>
      </trkpt>
      <trkpt lat="45.5918" lon="6.67089">
        <ele>1421.4000244141</ele>
        <time>2019-01-19T14:27:33.000Z</time>
      </trkpt>
      <trkpt lat="45.59179" lon="6.6709">
        <ele>1421.4000244141</ele>
        <time>2019-01-19T14:27:43.000Z</time>
      </trkpt>
      <trkpt lat="45.59178" lon="6.6709">
        <ele>1421.4000244141</ele>
        <time>2019-01-19T14:27:48.000Z</time>
      </trkpt>
      <trkpt lat="45.59178" lon="6.6709">
        <ele>1421.5999755859</ele>
        <time>2019-01-19T14:27:49.000Z</time>
      </trkpt>
      <trkpt lat="45.59177" lon="6.6709">
        <ele>1421.4000244141</ele>
        <time>2019-01-19T14:27:50.000Z</time>
      </trkpt>
      <trkpt lat="45.59176" lon="6.6709">
        <ele>1421.4000244141</ele>
        <time>2019-01-19T14:27:52.000Z</time>
      </trkpt>
      <trkpt lat="45.59176" lon="6.6709">
        <ele>1421.4000244141</ele>
        <time>2019-01-19T14:27:57.000Z</time>
      </trkpt>
      <trkpt lat="45.59175" lon="6.6709">
        <ele>1421.1999511719</ele>
        <time>2019-01-19T14:27:58.000Z</time>
      </trkpt>
      <trkpt lat="45.59171" lon="6.6709">
        <ele>1421</ele>
        <time>2019-01-19T14:28:04.000Z</time>
      </trkpt>
      <trkpt lat="45.59168" lon="6.67089">
        <ele>1420.1999511719</ele>
        <time>2019-01-19T14:28:08.000Z</time>
      </trkpt>
      <trkpt lat="45.59161" lon="6.67087">
        <ele>1419.4000244141</ele>
        <time>2019-01-19T14:28:13.000Z</time>
      </trkpt>
      <trkpt lat="45.59155" lon="6.67088">
        <ele>1419</ele>
        <time>2019-01-19T14:28:18.000Z</time>
      </trkpt>
      <trkpt lat="45.59148" lon="6.67087">
        <ele>1418.1999511719</ele>
        <time>2019-01-19T14:28:24.000Z</time>
      </trkpt>
      <trkpt lat="45.59144" lon="6.67089">
        <ele>1418.5999755859</ele>
        <time>2019-01-19T14:28:28.000Z</time>
      </trkpt>
      <trkpt lat="45.59137" lon="6.6709">
        <ele>1418.5999755859</ele>
        <time>2019-01-19T14:28:34.000Z</time>
      </trkpt>
      <trkpt lat="45.59133" lon="6.67089">
        <ele>1418</ele>
        <time>2019-01-19T14:28:38.000Z</time>
      </trkpt>
      <trkpt lat="45.59132" lon="6.67086">
        <ele>1417</ele>
        <time>2019-01-19T14:28:40.000Z</time>
      </trkpt>
      <trkpt lat="45.59132" lon="6.67085">
        <ele>1416.5999755859</ele>
        <time>2019-01-19T14:28:53.000Z</time>
      </trkpt>
      <trkpt lat="45.59132" lon="6.67085">
        <ele>1416.5999755859</ele>
        <time>2019-01-19T14:29:04.000Z</time>
      </trkpt>
      <trkpt lat="45.59132" lon="6.67085">
        <ele>1416.5999755859</ele>
        <time>2019-01-19T14:29:16.000Z</time>
      </trkpt>
      <trkpt lat="45.59132" lon="6.67085">
        <ele>1416.8000488281</ele>
        <time>2019-01-19T14:29:26.000Z</time>
      </trkpt>
    </trkseg>
  </trk>
</gpx>